
Distance (Route):
Temperature : 18.0°C
Humidity : 93.0%
Pressure : 970.1hPa| Receiver | Frames | First received | Last received |
|---|---|---|---|
| DO3MHA-11 | 888 | 2026-08-31 03:48:12 | 2026-08-31 06:30:48 |
| DO3MHA-12 | 856 | 2026-08-31 03:48:30 | 2026-08-31 06:30:28 |
| OE5MMP-10 | 646 | 2026-08-31 04:21:13 | 2026-08-31 06:35:16 |
| BAUMI2-15 | 354 | 2026-08-31 04:17:46 | 2026-08-31 06:06:23 |
| OE5DXL-15 | 290 | 2026-08-31 03:58:53 | 2026-08-31 06:35:43 |
| DM0DOS-11 | 249 | 2026-08-31 04:46:29 | 2026-08-31 05:43:16 |
| OE5DRO-10 | 245 | 2026-08-31 04:02:25 | 2026-08-31 06:31:10 |
| OE5WHR-10 | 243 | 2026-08-31 04:14:56 | 2026-08-31 06:23:56 |
| OM5KV | 241 | 2026-08-31 04:37:39 | 2026-08-31 05:20:32 |
| OE3JTB-15 | 228 | 2026-08-31 04:35:23 | 2026-08-31 06:34:15 |
| PG1ADW-2 | 186 | 2026-08-31 04:23:20 | 2026-08-31 06:28:59 |
| DB0UT-7 | 175 | 2026-08-31 04:03:48 | 2026-08-31 06:03:30 |
| NBG1-10 | 140 | 2026-08-31 03:53:15 | 2026-08-31 06:13:05 |
| DL6DJ-15 | 140 | 2026-08-31 03:56:23 | 2026-08-31 06:16:12 |
| DG1MFX-10 | 105 | 2026-08-31 03:59:17 | 2026-08-31 05:59:53 |
| DF7PN | 91 | 2026-08-31 04:15:39 | 2026-08-31 05:58:40 |
| DB0NH | 84 | 2026-08-31 03:57:18 | 2026-08-31 06:16:19 |
| DG1MJG | 80 | 2026-08-31 03:48:50 | 2026-08-31 05:30:53 |
| DK5PH-5 | 78 | 2026-08-31 04:31:42 | 2026-08-31 05:46:15 |
| OE5GOL-10 | 74 | 2026-08-31 05:41:11 | 2026-08-31 06:20:11 |
| OE5REO-15 | 65 | 2026-08-31 04:52:10 | 2026-08-31 06:21:26 |
| DM7RM-13 | 52 | 2026-08-31 04:26:53 | 2026-08-31 05:33:01 |
| DO8TBO-1 | 46 | 2026-08-31 04:12:04 | 2026-08-31 05:48:47 |
| DF1GD-15 | 44 | 2026-08-31 04:52:57 | 2026-08-31 05:33:07 |
| OE5HKT-10 | 44 | 2026-08-31 05:00:38 | 2026-08-31 06:20:42 |
| DL1ZP-14 | 43 | 2026-08-31 04:49:57 | 2026-08-31 05:43:17 |
| SONDE2-11 | 39 | 2026-08-31 04:58:42 | 2026-08-31 05:39:04 |
| HSKMA3-T | 30 | 2026-08-31 05:24:09 | 2026-08-31 05:29:40 |
| DH7VM-15 | 21 | 2026-08-31 04:12:30 | 2026-08-31 05:51:30 |
| DN1GJH-1 | 19 | 2026-08-31 04:39:19 | 2026-08-31 04:53:17 |
| DF3TZ-5 | 18 | 2026-08-31 05:00:07 | 2026-08-31 05:45:40 |
| EDDB2-11 | 17 | 2026-08-31 05:19:19 | 2026-08-31 05:40:32 |
| DO7DH-14 | 16 | 2026-08-31 05:53:44 | 2026-08-31 06:05:20 |
| S52SK | 15 | 2026-08-31 04:39:34 | 2026-08-31 04:48:13 |
| SONCRA | 13 | 2026-08-31 05:15:54 | 2026-08-31 05:29:53 |
| OE9MKV-15 | 10 | 2026-08-31 05:14:24 | 2026-08-31 05:31:32 |
| OE8JPQ-2 | 9 | 2026-08-31 04:55:23 | 2026-08-31 05:27:09 |
| DB0ND-19 | 8 | 2026-08-31 04:22:59 | 2026-08-31 06:04:53 |
| SP3BTT-10 | 4 | 2026-08-31 05:12:12 | 2026-08-31 05:23:43 |
| DC4HF-4 | 2 | 2026-08-31 05:28:45 | 2026-08-31 05:29:57 |
| IN3HCDX | 1 | 2026-08-31 05:45:30 | 2026-08-31 05:45:30 |
| Receiver | Date | Latitude | Longitude | Direction | Speed | Altitude | Climb | Temperature | Humidity | Pressure | Voltage | Killtimer | Uptime | BKT | XDATA |
|---|---|---|---|---|---|---|---|---|---|---|---|---|---|---|---|
| OE5DXL-15 | 2026-08-31 06:35:43 | 48.32122 | 13.14178 | 72° | 7km/h | 439m | -3.1m/s | 18.0°C | 93.0% | 970.1hPa | 2.7V | 00:32:45 | 00:00:00 | 00:00:00 | |
| OE5DXL-15 | 2026-08-31 06:35:40 | 48.32120 | 13.14172 | 70° | 7km/h | 446m | -3.6m/s | 18.1°C | 91.6% | 969.3hPa | 2.7V | 00:32:47 | 00:00:00 | 00:00:00 | |
| OE5DXL-15 | 2026-08-31 06:35:37 | 48.32118 | 13.14162 | 75° | 11km/h | 457m | -3.8m/s | 18.0°C | 92.2% | 968.0hPa | 2.7V | 00:32:50 | 00:00:00 | 00:00:00 | |
| OE5DXL-15 | 2026-08-31 06:35:35 | 48.32116 | 13.14155 | 68° | 9km/h | 465m | -4.0m/s | 18.0°C | 91.2% | 967.3hPa | 2.7V | 00:32:52 | 00:00:00 | 00:00:00 | |
| OE5DXL-15 | 2026-08-31 06:35:33 | 48.32114 | 13.14149 | 86° | 9km/h | 473m | -3.9m/s | 18.1°C | 91.0% | 966.3hPa | 2.7V | 00:32:54 | 00:00:00 | 00:00:00 | |
| OE5DXL-15 | 2026-08-31 06:35:31 | 48.32113 | 13.14143 | 67° | 7km/h | 481m | -3.8m/s | 18.0°C | 90.7% | 965.7hPa | 2.7V | 00:32:56 | 00:00:00 | 00:00:00 | |
| OE5DXL-15 | 2026-08-31 06:35:29 | 48.32112 | 13.14138 | 74° | 7km/h | 489m | -3.8m/s | 17.9°C | 88.9% | 964.6hPa | 2.7V | 00:32:58 | 00:00:00 | 00:00:00 | |
| OE5DXL-15 | 2026-08-31 06:35:27 | 48.32111 | 13.14132 | 85° | 7km/h | 497m | -4.0m/s | 18.0°C | 89.9% | 963.6hPa | 2.7V | 00:33:00 | 00:00:00 | 00:00:00 | |
| OE5DXL-15 | 2026-08-31 06:35:25 | 48.32111 | 13.14126 | 93° | 7km/h | 506m | -4.1m/s | 18.4°C | 81.1% | 962.8hPa | 2.7V | 00:33:02 | 00:00:00 | 00:00:00 | |
| OE5DXL-15 | 2026-08-31 06:35:23 | 48.32111 | 13.14120 | 104° | 7km/h | 514m | -3.5m/s | 18.3°C | 80.7% | 961.8hPa | 2.7V | 00:33:04 | 00:00:00 | 00:00:00 | |
| OE5DXL-15 | 2026-08-31 06:35:21 | 48.32112 | 13.14115 | 104° | 7km/h | 521m | -3.3m/s | 18.3°C | 80.9% | 960.8hPa | 2.7V | 00:33:06 | 00:00:00 | 00:00:00 | |
| OE5DXL-15 | 2026-08-31 06:35:19 | 48.32113 | 13.14110 | 105° | 5km/h | 529m | -4.4m/s | 18.2°C | 81.3% | 960.1hPa | 2.7V | 00:33:08 | 00:00:00 | 00:00:00 | |
| OE5DXL-15 | 2026-08-31 06:35:17 | 48.32114 | 13.14106 | 100° | 5km/h | 538m | -3.7m/s | 18.1°C | 81.9% | 959.2hPa | 2.7V | 00:33:10 | 00:00:00 | 00:00:00 | |
| OE5MMP-10 | 2026-08-31 06:35:16 | 48.32114 | 13.14104 | 107° | 4km/h | 542m | -4.0m/s | 18.1°C | 82.0% | 958.7hPa | 2.7V | 00:33:11 | 03:07:35 | 00:00:00 | |
| OE5DXL-15 | 2026-08-31 06:35:15 | 48.32114 | 13.14102 | 87° | 4km/h | 545m | -3.5m/s | 18.0°C | 82.3% | 958.2hPa | 2.7V | 00:33:12 | 00:00:00 | 00:00:00 | |
| OE5MMP-10 | 2026-08-31 06:35:14 | 48.32114 | 13.14101 | 96° | 4km/h | 549m | -3.7m/s | 18.0°C | 82.4% | 958.0hPa | 2.7V | 00:33:13 | 03:07:33 | 00:00:00 | |
| OE5DXL-15 | 2026-08-31 06:35:13 | 48.32114 | 13.14099 | 98° | 5km/h | 553m | -3.2m/s | 18.0°C | 82.3% | 957.5hPa | 2.7V | 00:33:14 | 00:00:00 | 00:00:00 | |
| OE5MMP-10 | 2026-08-31 06:35:12 | 48.32114 | 13.14097 | 91° | 5km/h | 556m | -3.5m/s | 18.0°C | 82.2% | 957.1hPa | 2.7V | 00:33:15 | 03:07:31 | 00:00:00 | |
| OE5DXL-15 | 2026-08-31 06:35:11 | 48.32114 | 13.14095 | 99° | 4km/h | 560m | -3.8m/s | 17.9°C | 82.6% | 956.7hPa | 2.7V | 00:33:16 | 00:00:00 | 00:00:00 | |
| OE5DXL-15 | 2026-08-31 06:35:09 | 48.32114 | 13.14092 | 106° | 4km/h | 568m | -4.2m/s | 17.9°C | 82.3% | 955.9hPa | 2.7V | 00:33:18 | 00:00:00 | 00:00:00 | |
| OE5MMP-10 | 2026-08-31 06:35:08 | 48.32114 | 13.14091 | 106° | 4km/h | 572m | -4.0m/s | 18.0°C | 81.2% | 955.4hPa | 2.7V | 00:33:19 | 03:07:27 | 00:00:00 | |
| OE5DXL-15 | 2026-08-31 06:35:07 | 48.32114 | 13.14090 | 97° | 4km/h | 576m | -4.2m/s | 17.9°C | 81.5% | 955.0hPa | 2.7V | 00:33:20 | 00:00:00 | 00:00:00 | |
| OE5MMP-10 | 2026-08-31 06:35:06 | 48.32114 | 13.14088 | 100° | 4km/h | 580m | -3.9m/s | 17.9°C | 81.2% | 0hPa | 2.7V | 00:33:21 | 03:07:25 | 00:00:00 | |
| OE5DXL-15 | 2026-08-31 06:35:05 | 48.32115 | 13.14087 | 105° | 4km/h | 584m | -4.0m/s | 17.9°C | 81.4% | 954.0hPa | 2.7V | 00:33:22 | 00:00:00 | 00:00:00 | |
| OE5MMP-10 | 2026-08-31 06:35:04 | 48.32115 | 13.14086 | 117° | 5km/h | 588m | -4.0m/s | 17.9°C | 81.1% | 953.5hPa | 2.7V | 00:33:23 | 03:07:23 | 00:00:00 | |
| OE5DXL-15 | 2026-08-31 06:35:03 | 48.32116 | 13.14084 | 124° | 5km/h | 593m | -4.0m/s | 17.8°C | 81.7% | 953.0hPa | 2.7V | 00:33:24 | 00:00:00 | 00:00:00 | |
| OE5MMP-10 | 2026-08-31 06:35:02 | 48.32116 | 13.14082 | 116° | 7km/h | 597m | -4.3m/s | 17.8°C | 81.2% | 952.6hPa | 2.7V | 00:33:25 | 03:07:21 | 00:00:00 | |
| OE5DXL-15 | 2026-08-31 06:35:01 | 48.32117 | 13.14080 | 117° | 7km/h | 601m | -3.9m/s | 17.7°C | 81.9% | 952.0hPa | 2.7V | 00:33:26 | 00:00:00 | 00:00:00 | |
| OE5MMP-10 | 2026-08-31 06:35:00 | 48.32118 | 13.14077 | 107° | 9km/h | 605m | -4.1m/s | 17.7°C | 82.1% | 951.8hPa | 2.7V | 00:33:27 | 03:07:19 | 00:00:00 | |
| OE5DXL-15 | 2026-08-31 06:34:59 | 48.32118 | 13.14074 | 104° | 9km/h | 609m | -3.8m/s | 17.5°C | 83.8% | 951.3hPa | 2.7V | 00:33:28 | 00:00:00 | 00:00:00 | |
| OE5MMP-10 | 2026-08-31 06:34:57 | 48.32119 | 13.14068 | 98° | 11km/h | 617m | -4.3m/s | 17.6°C | 82.8% | 950.3hPa | 2.7V | 00:33:30 | 03:07:16 | 00:00:00 | |
| OE5DXL-15 | 2026-08-31 06:34:57 | 48.32119 | 13.14068 | 98° | 11km/h | 617m | -4.3m/s | 17.6°C | 82.8% | 950.3hPa | 2.7V | 00:33:30 | 00:00:00 | 00:00:00 | |
| OE5DXL-15 | 2026-08-31 06:34:55 | 48.32119 | 13.14059 | 95° | 13km/h | 626m | -4.4m/s | 17.6°C | 80.8% | 949.1hPa | 2.7V | 00:33:32 | 00:00:00 | 00:00:00 | |
| OE5MMP-10 | 2026-08-31 06:34:55 | 48.32119 | 13.14059 | 95° | 13km/h | 626m | -4.4m/s | 17.6°C | 80.8% | 949.1hPa | 2.7V | 00:33:32 | 03:07:14 | 00:00:00 | |
| OE5MMP-10 | 2026-08-31 06:34:53 | 48.32120 | 13.14049 | 101° | 15km/h | 634m | -3.7m/s | 17.6°C | 80.4% | 948.5hPa | 2.7V | 00:33:34 | 03:07:12 | 00:00:00 | |
| OE5DXL-15 | 2026-08-31 06:34:52 | 48.32121 | 13.14044 | 97° | 16km/h | 638m | -3.7m/s | 17.5°C | 80.7% | 948.0hPa | 2.7V | 00:33:35 | 00:00:00 | 00:00:00 | |
| OE5MMP-10 | 2026-08-31 06:34:51 | 48.32121 | 13.14038 | 103° | 16km/h | 642m | -3.7m/s | 17.5°C | 81.0% | 947.6hPa | 2.7V | 00:33:36 | 03:07:10 | 00:00:00 | |
| OE5MMP-10 | 2026-08-31 06:34:49 | 48.32123 | 13.14026 | 100° | 16km/h | 650m | -3.6m/s | 17.4°C | 81.3% | 946.7hPa | 2.7V | 00:33:38 | 03:07:08 | 00:00:00 | |
| OE5MMP-10 | 2026-08-31 06:34:47 | 48.32124 | 13.14013 | 99° | 18km/h | 657m | -3.6m/s | 17.4°C | 81.5% | 945.7hPa | 2.7V | 00:33:40 | 03:07:06 | 00:00:00 | |
| OE5DXL-15 | 2026-08-31 06:34:46 | 48.32125 | 13.14007 | 99° | 18km/h | 661m | -3.6m/s | 17.3°C | 81.3% | 945.4hPa | 2.7V | 00:33:41 | 00:00:00 | 00:00:00 | |
| OE5MMP-10 | 2026-08-31 06:34:45 | 48.32125 | 13.14000 | 98° | 18km/h | 665m | -3.6m/s | 17.3°C | 81.5% | 945.0hPa | 2.7V | 00:33:42 | 03:07:04 | 00:00:00 | |
| OE5MMP-10 | 2026-08-31 06:34:43 | 48.32127 | 13.13986 | 98° | 18km/h | 672m | -3.4m/s | 17.2°C | 82.1% | 944.1hPa | 2.7V | 00:33:44 | 03:07:02 | 00:00:00 | |
| OE5MMP-10 | 2026-08-31 06:34:40 | 48.32127 | 13.13965 | 86° | 18km/h | 683m | -3.8m/s | 17.1°C | 82.6% | 942.9hPa | 2.7V | 00:33:47 | 03:06:59 | 00:00:00 | |
| OE5DXL-15 | 2026-08-31 06:34:40 | 48.32127 | 13.13965 | 86° | 20km/h | 683m | -3.8m/s | 17.1°C | 82.6% | 942.9hPa | 2.7V | 00:33:47 | 00:00:00 | 00:00:00 | |
| OE5MMP-10 | 2026-08-31 06:34:38 | 48.32126 | 13.13950 | 83° | 20km/h | 691m | -3.9m/s | 17.1°C | 82.1% | 942.2hPa | 2.7V | 00:33:49 | 03:06:57 | 00:00:00 | |
| OE5DXL-15 | 2026-08-31 06:34:34 | 48.32121 | 13.13918 | 76° | 24km/h | 706m | -4.2m/s | 17.3°C | 78.3% | 940.6hPa | 2.7V | 00:33:53 | 00:00:00 | 00:00:00 | |
| OE5DXL-15 | 2026-08-31 06:34:28 | 48.32110 | 13.13867 | 69° | 24km/h | 730m | -3.4m/s | 17.1°C | 79.7% | 938.0hPa | 2.7V | 00:33:59 | 00:00:00 | 00:00:00 | |
| OE5MMP-10 | 2026-08-31 06:34:25 | 48.32103 | 13.13842 | 64° | 24km/h | 741m | -3.7m/s | 16.9°C | 80.5% | 936.7hPa | 2.7V | 00:34:02 | 03:06:44 | 00:00:00 | |
| OE5DXL-15 | 2026-08-31 06:34:22 | 48.32093 | 13.13817 | 58° | 26km/h | 754m | -4.9m/s | 16.7°C | 81.2% | 935.3hPa | 2.7V | 00:34:05 | 03:06:41 | 00:00:00 | |
| OE5DXL-15 | 2026-08-31 06:34:16 | 48.32073 | 13.13765 | 64° | 27km/h | 783m | -4.3m/s | 16.4°C | 83.0% | 932.1hPa | 2.7V | 00:34:11 | 00:00:00 | 00:00:00 | |
| OE3JTB-15 | 2026-08-31 06:34:15 | 48.32070 | 13.13756 | 63° | 27km/h | 787m | -4.1m/s | 16.4°C | 83.0% | 931.7hPa | 2.7V | 00:34:12 | 03:06:34 | 00:00:00 | |
| OE3JTB-15 | 2026-08-31 06:34:12 | 48.32060 | 13.13729 | 61° | 29km/h | 800m | -4.2m/s | 16.3°C | 82.8% | 930.3hPa | 2.7V | 00:34:15 | 00:00:00 | 00:00:00 | |
| OE5MMP-10 | 2026-08-31 06:34:11 | 48.32056 | 13.13719 | 60° | 29km/h | 804m | -3.8m/s | 16.3°C | 82.9% | 929.9hPa | 2.7V | 00:34:16 | 03:06:30 | 00:00:00 | |
| OE3JTB-15 | 2026-08-31 06:34:10 | 48.32052 | 13.13709 | 61° | 31km/h | 807m | -3.5m/s | 16.3°C | 83.2% | 929.4hPa | 2.7V | 00:34:17 | 00:00:00 | 00:00:00 | |
| OE5DXL-15 | 2026-08-31 06:34:10 | 48.32052 | 13.13709 | 61° | 31km/h | 807m | -3.5m/s | 16.3°C | 83.2% | 929.4hPa | 2.7V | 00:34:17 | 00:00:00 | 00:00:00 | |
| OE3JTB-15 | 2026-08-31 06:34:08 | 48.32045 | 13.13689 | 63° | 31km/h | 815m | -3.4m/s | 16.2°C | 83.5% | 928.5hPa | 2.7V | 00:34:19 | 03:06:27 | 00:00:00 | |
| OE5MMP-10 | 2026-08-31 06:34:07 | 48.32041 | 13.13679 | 63° | 31km/h | 818m | -3.4m/s | 16.2°C | 83.5% | 928.2hPa | 2.7V | 00:34:20 | 03:06:26 | 00:00:00 | |
| OE3JTB-15 | 2026-08-31 06:34:06 | 48.32038 | 13.13669 | 62° | 31km/h | 822m | -3.7m/s | 16.2°C | 83.3% | 927.8hPa | 2.7V | 00:34:21 | 00:00:00 | 00:00:00 | |
| OE3JTB-15 | 2026-08-31 06:34:04 | 48.32030 | 13.13647 | 65° | 33km/h | 830m | -3.6m/s | 16.2°C | 82.8% | 927.0hPa | 2.7V | 00:34:23 | 00:00:00 | 00:00:00 | |
| OE5DXL-15 | 2026-08-31 06:34:04 | 48.32030 | 13.13647 | 65° | 35km/h | 830m | -3.6m/s | 16.2°C | 82.8% | 927.0hPa | 2.7V | 00:34:23 | 00:00:00 | 00:00:00 | |
| OE5MMP-10 | 2026-08-31 06:34:04 | 48.32030 | 13.13647 | 65° | 33km/h | 830m | -3.6m/s | 16.2°C | 82.8% | 927.0hPa | 2.7V | 00:34:23 | 03:06:23 | 00:00:00 | |
| OE3JTB-15 | 2026-08-31 06:34:02 | 48.32023 | 13.13623 | 67° | 37km/h | 837m | -4.0m/s | 16.2°C | 82.1% | 926.1hPa | 2.7V | 00:34:25 | 03:06:21 | 00:00:00 | |
| OE5MMP-10 | 2026-08-31 06:34:02 | 48.32023 | 13.13623 | 67° | 37km/h | 837m | -4.0m/s | 16.2°C | 82.1% | 926.1hPa | 2.7V | 00:34:25 | 03:06:21 | 00:00:00 | |
| OE3JTB-15 | 2026-08-31 06:34:00 | 48.32016 | 13.13598 | 67° | 37km/h | 846m | -4.1m/s | 16.4°C | 79.7% | 925.4hPa | 2.7V | 00:34:27 | 00:00:00 | 00:00:00 | |
| OE5MMP-10 | 2026-08-31 06:34:00 | 48.32016 | 13.13598 | 67° | 37km/h | 846m | -4.1m/s | 16.4°C | 79.7% | 925.4hPa | 2.7V | 00:34:27 | 03:06:19 | 00:00:00 | |
| OE3JTB-15 | 2026-08-31 06:33:58 | 48.32008 | 13.13573 | 67° | 37km/h | 853m | -3.5m/s | 16.5°C | 79.1% | 924.6hPa | 2.7V | 00:34:29 | 00:00:00 | 00:00:00 | |
| OE5DXL-15 | 2026-08-31 06:33:58 | 48.32008 | 13.13573 | 67° | 37km/h | 853m | -3.5m/s | 16.5°C | 79.1% | 924.6hPa | 2.7V | 00:34:29 | 00:00:00 | 00:00:00 | |
| OE3JTB-15 | 2026-08-31 06:33:56 | 48.32001 | 13.13547 | 69° | 37km/h | 861m | -3.7m/s | 16.5°C | 78.5% | 923.6hPa | 2.7V | 00:34:31 | 03:06:15 | 00:00:00 | |
| OE5MMP-10 | 2026-08-31 06:33:56 | 48.32001 | 13.13547 | 69° | 37km/h | 861m | -3.7m/s | 16.5°C | 78.5% | 923.6hPa | 2.7V | 00:34:31 | 03:06:15 | 00:00:00 | |
| OE3JTB-15 | 2026-08-31 06:33:54 | 48.31995 | 13.13520 | 72° | 37km/h | 868m | -3.8m/s | 16.5°C | 78.0% | 922.6hPa | 2.7V | 00:34:33 | 00:00:00 | 00:00:00 | |
| OE3JTB-15 | 2026-08-31 06:33:52 | 48.31990 | 13.13493 | 76° | 37km/h | 876m | -4.0m/s | 16.6°C | 76.2% | 922.0hPa | 2.7V | 00:34:35 | 00:00:00 | 00:00:00 | |
| OE5DXL-15 | 2026-08-31 06:33:52 | 48.31990 | 13.13493 | 76° | 37km/h | 876m | -4.0m/s | 16.6°C | 76.2% | 922.0hPa | 2.7V | 00:34:35 | 00:00:00 | 00:00:00 | |
| OE3JTB-15 | 2026-08-31 06:33:50 | 48.31985 | 13.13466 | 78° | 37km/h | 884m | -3.7m/s | 16.5°C | 76.1% | 921.2hPa | 2.7V | 00:34:37 | 03:06:09 | 00:00:00 | |
| OE3JTB-15 | 2026-08-31 06:33:48 | 48.31981 | 13.13438 | 78° | 38km/h | 892m | -3.7m/s | 16.5°C | 76.0% | 920.1hPa | 2.7V | 00:34:39 | 00:00:00 | 00:00:00 | |
| OE5MMP-10 | 2026-08-31 06:33:47 | 48.31979 | 13.13424 | 78° | 38km/h | 896m | -4.1m/s | 16.5°C | 76.1% | 920.2hPa | 2.7V | 00:34:40 | 03:06:06 | 00:00:00 | |
| OE3JTB-15 | 2026-08-31 06:33:46 | 48.31977 | 13.13410 | 79° | 38km/h | 899m | -4.0m/s | 16.4°C | 76.1% | 919.5hPa | 2.7V | 00:34:41 | 00:00:00 | 00:00:00 | |
| OE5DXL-15 | 2026-08-31 06:33:46 | 48.31977 | 13.13410 | 79° | 38km/h | 899m | -4.0m/s | 16.4°C | 76.1% | 919.5hPa | 2.7V | 00:34:41 | 00:00:00 | 00:00:00 | |
| OE3JTB-15 | 2026-08-31 06:33:44 | 48.31973 | 13.13382 | 79° | 38km/h | 907m | -3.7m/s | 16.4°C | 76.2% | 918.7hPa | 2.7V | 00:34:43 | 03:06:03 | 00:00:00 | |
| OE3JTB-15 | 2026-08-31 06:33:42 | 48.31969 | 13.13354 | 79° | 38km/h | 915m | -3.8m/s | 16.3°C | 76.6% | 918.0hPa | 2.7V | 00:34:45 | 00:00:00 | 00:00:00 | |
| OE3JTB-15 | 2026-08-31 06:33:40 | 48.31966 | 13.13325 | 80° | 38km/h | 923m | -3.9m/s | 16.2°C | 76.9% | 917.1hPa | 2.7V | 00:34:47 | 00:00:00 | 00:00:00 | |
| OE5DXL-15 | 2026-08-31 06:33:40 | 48.31966 | 13.13325 | 80° | 38km/h | 923m | -3.9m/s | 16.2°C | 76.9% | 917.1hPa | 2.7V | 00:34:47 | 00:00:00 | 00:00:00 | |
| OE3JTB-15 | 2026-08-31 06:33:38 | 48.31962 | 13.13297 | 80° | 38km/h | 931m | -3.6m/s | 16.2°C | 76.8% | 916.1hPa | 2.7V | 00:34:49 | 03:05:57 | 00:00:00 | |
| OE3JTB-15 | 2026-08-31 06:33:36 | 48.31958 | 13.13268 | 80° | 40km/h | 938m | -3.8m/s | 16.1°C | 77.0% | 915.1hPa | 2.7V | 00:34:51 | 00:00:00 | 00:00:00 | |
| OE3JTB-15 | 2026-08-31 06:33:34 | 48.31955 | 13.13237 | 80° | 42km/h | 946m | -3.9m/s | 16.1°C | 76.3% | 914.4hPa | 2.7V | 00:34:53 | 00:00:00 | 00:00:00 | |
| OE5DXL-15 | 2026-08-31 06:33:34 | 48.31955 | 13.13237 | 80° | 42km/h | 946m | -3.9m/s | 16.1°C | 76.3% | 914.4hPa | 2.7V | 00:34:53 | 00:00:00 | 00:00:00 | |
| OE3JTB-15 | 2026-08-31 06:33:32 | 48.31951 | 13.13206 | 80° | 42km/h | 954m | -4.2m/s | 16.1°C | 76.2% | 913.8hPa | 2.7V | 00:34:55 | 03:05:51 | 00:00:00 | |
| OE3JTB-15 | 2026-08-31 06:33:30 | 48.31947 | 13.13173 | 80° | 44km/h | 962m | -3.7m/s | 16.0°C | 76.5% | 912.8hPa | 2.7V | 00:34:57 | 00:00:00 | 00:00:00 | |
| OE3JTB-15 | 2026-08-31 06:33:28 | 48.31943 | 13.13141 | 80° | 44km/h | 970m | -3.6m/s | 16.0°C | 76.6% | 911.9hPa | 2.7V | 00:34:59 | 00:00:00 | 00:00:00 | |
| OE5DXL-15 | 2026-08-31 06:33:28 | 48.31943 | 13.13141 | 80° | 44km/h | 970m | -3.6m/s | 16.0°C | 76.6% | 911.9hPa | 2.7V | 00:34:59 | 00:00:00 | 00:00:00 | |
| OE5MMP-10 | 2026-08-31 06:33:27 | 48.31941 | 13.13125 | 80° | 44km/h | 973m | -3.8m/s | 16.0°C | 76.3% | 911.5hPa | 2.7V | 00:35:00 | 03:05:46 | 00:00:00 | |
| OE3JTB-15 | 2026-08-31 06:33:26 | 48.31939 | 13.13109 | 81° | 44km/h | 977m | -3.6m/s | 15.9°C | 76.4% | 911.3hPa | 2.7V | 00:35:01 | 03:05:45 | 00:00:00 | |
| OE3JTB-15 | 2026-08-31 06:33:24 | 48.31936 | 13.13076 | 83° | 42km/h | 985m | -4.1m/s | 15.9°C | 76.7% | 910.4hPa | 2.7V | 00:35:03 | 00:00:00 | 00:00:00 | |
| OE5DXL-15 | 2026-08-31 06:33:22 | 48.31934 | 13.13044 | 86° | 44km/h | 992m | -3.8m/s | 15.9°C | 76.1% | 909.4hPa | 2.7V | 00:35:05 | 00:00:00 | 00:00:00 | |
| OE3JTB-15 | 2026-08-31 06:33:22 | 48.31934 | 13.13044 | 86° | 44km/h | 992m | -3.8m/s | 15.9°C | 76.1% | 909.4hPa | 2.7V | 00:35:05 | 00:00:00 | 00:00:00 | |
| OE5MMP-10 | 2026-08-31 06:33:21 | 48.31933 | 13.13028 | 86° | 44km/h | 996m | -3.5m/s | 15.9°C | 75.7% | 909.1hPa | 2.7V | 00:35:06 | 03:05:40 | 00:00:00 | |
| OE3JTB-15 | 2026-08-31 06:33:20 | 48.31932 | 13.13011 | 86° | 42km/h | 1000m | -3.6m/s | 15.9°C | 75.8% | 908.7hPa | 2.7V | 00:35:07 | 03:05:39 | 00:00:00 | |
| OE3JTB-15 | 2026-08-31 06:33:18 | 48.31930 | 13.12979 | 87° | 44km/h | 1007m | -3.5m/s | 15.9°C | 75.4% | 907.9hPa | 2.7V | 00:35:09 | 00:00:00 | 00:00:00 | |
| OE3JTB-15 | 2026-08-31 06:33:16 | 48.31929 | 13.12946 | 86° | 44km/h | 1015m | -3.5m/s | 15.9°C | 74.9% | 906.9hPa | 2.7V | 00:35:11 | 00:00:00 | 00:00:00 | |
| OE5DXL-15 | 2026-08-31 06:33:16 | 48.31929 | 13.12946 | 86° | 44km/h | 1015m | -3.5m/s | 15.9°C | 74.9% | 906.9hPa | 2.7V | 00:35:11 | 00:00:00 | 00:00:00 | |
| OE3JTB-15 | 2026-08-31 06:33:14 | 48.31927 | 13.12912 | 87° | 44km/h | 1022m | -3.7m/s | 15.9°C | 74.7% | 906.3hPa | 2.7V | 00:35:13 | 03:05:33 | 00:00:00 | |
| OE3JTB-15 | 2026-08-31 06:33:12 | 48.31926 | 13.12878 | 87° | 44km/h | 1030m | -3.9m/s | 15.8°C | 74.7% | 905.6hPa | 2.7V | 00:35:15 | 00:00:00 | 00:00:00 | |
| OE5MMP-10 | 2026-08-31 06:33:12 | 48.31926 | 13.12878 | 87° | 46km/h | 1030m | -3.9m/s | 15.8°C | 74.7% | 905.6hPa | 2.7V | 00:35:15 | 03:05:31 | 00:00:00 | |
| OE3JTB-15 | 2026-08-31 06:33:10 | 48.31925 | 13.12845 | 87° | 46km/h | 1038m | -3.7m/s | 15.8°C | 74.9% | 904.5hPa | 2.7V | 00:35:17 | 00:00:00 | 00:00:00 | |
| OE5DXL-15 | 2026-08-31 06:33:10 | 48.31925 | 13.12845 | 87° | 46km/h | 1038m | -3.7m/s | 15.8°C | 74.9% | 904.5hPa | 2.7V | 00:35:17 | 00:00:00 | 00:00:00 | |
| OE3JTB-15 | 2026-08-31 06:33:08 | 48.31924 | 13.12810 | 89° | 46km/h | 1046m | -4.2m/s | 15.6°C | 75.6% | 903.9hPa | 2.7V | 00:35:19 | 03:05:27 | 00:00:00 | |
| OE3JTB-15 | 2026-08-31 06:33:06 | 48.31923 | 13.12775 | 90° | 46km/h | 1055m | -4.0m/s | 15.6°C | 75.4% | 902.9hPa | 2.7V | 00:35:21 | 00:00:00 | 00:00:00 | |
| OE5MMP-10 | 2026-08-31 06:33:05 | 48.31923 | 13.12758 | 90° | 49km/h | 1059m | -3.8m/s | 15.6°C | 75.1% | 902.4hPa | 2.7V | 00:35:22 | 03:05:24 | 00:00:00 | |
| OE3JTB-15 | 2026-08-31 06:33:04 | 48.31924 | 13.12740 | 92° | 47km/h | 1063m | -3.8m/s | 15.6°C | 75.4% | 902.0hPa | 2.7V | 00:35:23 | 00:00:00 | 00:00:00 | |
| OE5DXL-15 | 2026-08-31 06:33:04 | 48.31924 | 13.12740 | 92° | 47km/h | 1063m | -3.8m/s | 15.6°C | 75.4% | 902.0hPa | 2.7V | 00:35:23 | 00:00:00 | 00:00:00 | |
| OE3JTB-15 | 2026-08-31 06:33:02 | 48.31925 | 13.12705 | 93° | 47km/h | 1071m | -4.2m/s | 15.8°C | 73.1% | 901.2hPa | 2.7V | 00:35:25 | 03:05:21 | 00:00:00 | |
| OE3JTB-15 | 2026-08-31 06:33:00 | 48.31926 | 13.12669 | 93° | 47km/h | 1079m | -4.4m/s | 15.7°C | 72.4% | 900.4hPa | 2.7V | 00:35:27 | 00:00:00 | 00:00:00 | |
| OE3JTB-15 | 2026-08-31 06:32:58 | 48.31927 | 13.12632 | 93° | 47km/h | 1088m | -4.1m/s | 15.6°C | 72.6% | 899.4hPa | 2.7V | 00:35:29 | 00:00:00 | 00:00:00 | |
| OE5DXL-15 | 2026-08-31 06:32:58 | 48.31927 | 13.12632 | 93° | 51km/h | 1088m | -4.1m/s | 15.6°C | 72.6% | 899.4hPa | 2.7V | 00:35:29 | 00:00:00 | 00:00:00 | |
| OE3JTB-15 | 2026-08-31 06:32:56 | 48.31927 | 13.12596 | 90° | 51km/h | 1096m | -4.1m/s | 15.5°C | 73.5% | 898.6hPa | 2.7V | 00:35:31 | 03:05:15 | 00:00:00 | |
| OE5MMP-10 | 2026-08-31 06:32:54 | 48.31927 | 13.12557 | 90° | 55km/h | 1105m | -3.8m/s | 15.3°C | 75.3% | 897.6hPa | 2.7V | 00:35:33 | 03:05:13 | 00:00:00 | |
| OE3JTB-15 | 2026-08-31 06:32:54 | 48.31927 | 13.12557 | 90° | 53km/h | 1105m | -3.8m/s | 15.3°C | 75.3% | 897.6hPa | 2.7V | 00:35:33 | 00:00:00 | 00:00:00 | |
| OE3JTB-15 | 2026-08-31 06:32:52 | 48.31927 | 13.12517 | 91° | 53km/h | 1112m | -3.4m/s | 15.2°C | 76.3% | 896.8hPa | 2.7V | 00:35:35 | 00:00:00 | 00:00:00 | |
| OE5DXL-15 | 2026-08-31 06:32:52 | 48.31927 | 13.12517 | 91° | 53km/h | 1112m | -3.4m/s | 15.2°C | 76.3% | 896.8hPa | 2.7V | 00:35:35 | 00:00:00 | 00:00:00 | |
| OE3JTB-15 | 2026-08-31 06:32:50 | 48.31927 | 13.12477 | 90° | 53km/h | 1119m | -4.1m/s | 15.2°C | 76.6% | 896.1hPa | 2.7V | 00:35:37 | 03:05:09 | 00:00:00 | |
| OE3JTB-15 | 2026-08-31 06:32:48 | 48.31927 | 13.12436 | 90° | 55km/h | 1127m | -3.9m/s | 15.1°C | 76.3% | 895.4hPa | 2.7V | 00:35:39 | 00:00:00 | 00:00:00 | |
| OE3JTB-15 | 2026-08-31 06:32:46 | 48.31927 | 13.12394 | 93° | 55km/h | 1135m | -3.8m/s | 15.1°C | 76.0% | 894.4hPa | 2.7V | 00:35:41 | 00:00:00 | 00:00:00 | |
| OE5DXL-15 | 2026-08-31 06:32:46 | 48.31927 | 13.12394 | 93° | 57km/h | 1135m | -3.8m/s | 15.1°C | 76.0% | 894.4hPa | 2.7V | 00:35:41 | 00:00:00 | 00:00:00 | |
| OE3JTB-15 | 2026-08-31 06:32:44 | 48.31928 | 13.12352 | 93° | 55km/h | 1142m | -3.6m/s | 15.0°C | 76.1% | 893.6hPa | 2.7V | 00:35:43 | 03:05:03 | 00:00:00 | |
| OE3JTB-15 | 2026-08-31 06:32:42 | 48.31929 | 13.12310 | 92° | 57km/h | 1149m | -3.7m/s | 14.9°C | 77.0% | 893.0hPa | 2.7V | 00:35:45 | 00:00:00 | 00:00:00 | |
| OE5MMP-10 | 2026-08-31 06:32:42 | 48.31929 | 13.12310 | 92° | 57km/h | 1149m | -3.7m/s | 14.9°C | 77.0% | 893.0hPa | 2.7V | 00:35:45 | 03:05:01 | 00:00:00 | |
| OE3JTB-15 | 2026-08-31 06:32:40 | 48.31930 | 13.12267 | 91° | 57km/h | 1156m | -3.7m/s | 14.9°C | 75.8% | 892.0hPa | 2.7V | 00:35:47 | 00:00:00 | 00:00:00 | |
| OE5DXL-15 | 2026-08-31 06:32:40 | 48.31930 | 13.12267 | 91° | 57km/h | 1156m | -3.7m/s | 14.9°C | 75.8% | 892.0hPa | 2.7V | 00:35:47 | 00:00:00 | 00:00:00 | |
| OE3JTB-15 | 2026-08-31 06:32:38 | 48.31930 | 13.12224 | 92° | 57km/h | 1164m | -3.8m/s | 14.9°C | 75.9% | 891.3hPa | 2.7V | 00:35:49 | 03:04:57 | 00:00:00 | |
| OE3JTB-15 | 2026-08-31 06:32:36 | 48.31930 | 13.12180 | 90° | 58km/h | 1172m | -3.8m/s | 14.9°C | 75.3% | 890.4hPa | 2.7V | 00:35:51 | 00:00:00 | 00:00:00 | |
| OE5MMP-10 | 2026-08-31 06:32:35 | 48.31930 | 13.12158 | 91° | 58km/h | 1176m | -3.7m/s | 14.9°C | 75.2% | 890.2hPa | 2.7V | 00:35:52 | 03:04:54 | 00:00:00 | |
| OE5DXL-15 | 2026-08-31 06:32:34 | 48.31930 | 13.12136 | 90° | 58km/h | 1179m | -3.8m/s | 14.9°C | 73.8% | 889.7hPa | 2.7V | 00:35:53 | 00:00:00 | 00:00:00 | |
| OE3JTB-15 | 2026-08-31 06:32:34 | 48.31930 | 13.12136 | 90° | 58km/h | 1179m | -3.8m/s | 14.9°C | 73.8% | 889.7hPa | 2.7V | 00:35:53 | 00:00:00 | 00:00:00 | |
| OE3JTB-15 | 2026-08-31 06:32:32 | 48.31930 | 13.12092 | 89° | 58km/h | 1187m | -3.9m/s | 14.8°C | 75.6% | 888.6hPa | 2.7V | 00:35:55 | 03:04:51 | 00:00:00 | |
| OE3JTB-15 | 2026-08-31 06:32:30 | 48.31929 | 13.12048 | 88° | 57km/h | 1194m | -3.4m/s | 14.7°C | 75.8% | 888.0hPa | 2.7V | 00:35:57 | 00:00:00 | 00:00:00 | |
| OE5MMP-10 | 2026-08-31 06:32:30 | 48.31929 | 13.12048 | 88° | 57km/h | 1194m | -3.4m/s | 14.7°C | 75.8% | 888.0hPa | 2.7V | 00:35:57 | 03:04:49 | 00:00:00 | |
| OE3JTB-15 | 2026-08-31 06:32:28 | 48.31927 | 13.12005 | 86° | 57km/h | 1201m | -3.4m/s | 14.6°C | 75.8% | 887.4hPa | 2.7V | 00:35:59 | 00:00:00 | 00:00:00 | |
| OE5DXL-15 | 2026-08-31 06:32:28 | 48.31927 | 13.12005 | 86° | 57km/h | 1201m | -3.4m/s | 14.6°C | 75.8% | 887.4hPa | 2.7V | 00:35:59 | 00:00:00 | 00:00:00 | |
| OE3JTB-15 | 2026-08-31 06:32:26 | 48.31924 | 13.11962 | 85° | 57km/h | 1209m | -3.7m/s | 14.5°C | 77.4% | 886.5hPa | 2.7V | 00:36:01 | 03:04:45 | 00:00:00 | |
| OE3JTB-15 | 2026-08-31 06:32:24 | 48.31921 | 13.11920 | 86° | 55km/h | 1216m | -3.4m/s | 14.5°C | 76.8% | 885.7hPa | 2.7V | 00:36:03 | 00:00:00 | 00:00:00 | |
| OE5MMP-10 | 2026-08-31 06:32:24 | 48.31921 | 13.11920 | 86° | 55km/h | 1216m | -3.4m/s | 14.5°C | 76.8% | 885.7hPa | 2.7V | 00:36:03 | 03:04:43 | 00:00:00 | |
| OE3JTB-15 | 2026-08-31 06:32:22 | 48.31919 | 13.11878 | 86° | 55km/h | 1223m | -3.5m/s | 14.7°C | 74.5% | 885.0hPa | 2.7V | 00:36:05 | 00:00:00 | 00:00:00 | |
| OE5DXL-15 | 2026-08-31 06:32:22 | 48.31919 | 13.11878 | 86° | 55km/h | 1223m | -3.5m/s | 14.7°C | 74.5% | 885.0hPa | 2.7V | 00:36:05 | 00:00:00 | 00:00:00 | |
| OE3JTB-15 | 2026-08-31 06:32:20 | 48.31918 | 13.11836 | 88° | 55km/h | 1230m | -3.3m/s | 14.7°C | 73.7% | 884.2hPa | 2.7V | 00:36:07 | 03:04:39 | 00:00:00 | |
| OE3JTB-15 | 2026-08-31 06:32:18 | 48.31916 | 13.11795 | 88° | 55km/h | 1236m | -3.2m/s | 14.7°C | 73.5% | 883.4hPa | 2.7V | 00:36:09 | 00:00:00 | 00:00:00 | |
| OE3JTB-15 | 2026-08-31 06:32:16 | 48.31916 | 13.11754 | 89° | 55km/h | 1243m | -3.1m/s | 14.6°C | 73.8% | 883.0hPa | 2.7V | 00:36:11 | 00:00:00 | 00:00:00 | |
| OE5MMP-10 | 2026-08-31 06:32:16 | 48.31916 | 13.11754 | 89° | 55km/h | 1243m | -3.1m/s | 14.6°C | 73.8% | 883.0hPa | 2.7V | 00:36:11 | 03:04:35 | 00:00:00 | |
| OE5DXL-15 | 2026-08-31 06:32:16 | 48.31916 | 13.11754 | 89° | 53km/h | 1243m | -3.1m/s | 14.6°C | 73.8% | 883.0hPa | 2.7V | 00:36:11 | 00:00:00 | 00:00:00 | |
| OE3JTB-15 | 2026-08-31 06:32:14 | 48.31915 | 13.11713 | 89° | 53km/h | 1249m | -3.1m/s | 14.5°C | 74.1% | 882.2hPa | 2.7V | 00:36:13 | 03:04:33 | 00:00:00 | |
| OE3JTB-15 | 2026-08-31 06:32:12 | 48.31914 | 13.11672 | 89° | 53km/h | 1255m | -3.3m/s | 14.4°C | 74.9% | 881.5hPa | 2.7V | 00:36:15 | 00:00:00 | 00:00:00 | |
| OE5MMP-10 | 2026-08-31 06:32:11 | 48.31914 | 13.11652 | 89° | 55km/h | 1259m | -3.2m/s | 14.4°C | 74.7% | 881.3hPa | 2.7V | 00:36:16 | 03:04:30 | 00:00:00 | |
| OE5DXL-15 | 2026-08-31 06:32:10 | 48.31913 | 13.11631 | 89° | 55km/h | 1262m | -3.2m/s | 14.5°C | 74.0% | 880.9hPa | 2.7V | 00:36:17 | 00:00:00 | 00:00:00 | |
| OE3JTB-15 | 2026-08-31 06:32:10 | 48.31913 | 13.11631 | 89° | 53km/h | 1262m | -3.2m/s | 14.5°C | 74.0% | 880.9hPa | 2.7V | 00:36:17 | 00:00:00 | 00:00:00 | |
| OE3JTB-15 | 2026-08-31 06:32:08 | 48.31912 | 13.11590 | 89° | 55km/h | 1269m | -3.2m/s | 14.5°C | 73.6% | 880.2hPa | 2.7V | 00:36:19 | 03:04:27 | 00:00:00 | |
| OE3JTB-15 | 2026-08-31 06:32:06 | 48.31912 | 13.11549 | 89° | 55km/h | 1275m | -3.4m/s | 14.4°C | 74.1% | 879.9hPa | 2.7V | 00:36:21 | 00:00:00 | 00:00:00 | |
| OE3JTB-15 | 2026-08-31 06:32:04 | 48.31911 | 13.11508 | 88° | 55km/h | 1281m | -3.2m/s | 14.4°C | 74.1% | 878.9hPa | 2.7V | 00:36:23 | 00:00:00 | 00:00:00 | |
| OE5DXL-15 | 2026-08-31 06:32:04 | 48.31911 | 13.11508 | 88° | 57km/h | 1281m | -3.2m/s | 14.4°C | 74.1% | 878.9hPa | 2.7V | 00:36:23 | 00:00:00 | 00:00:00 | |
| OE3JTB-15 | 2026-08-31 06:32:02 | 48.31910 | 13.11466 | 90° | 57km/h | 1288m | -3.2m/s | 14.5°C | 71.9% | 878.3hPa | 2.7V | 00:36:25 | 03:04:21 | 00:00:00 | |
| OE5MMP-10 | 2026-08-31 06:32:01 | 48.31910 | 13.11444 | 89° | 60km/h | 1291m | -3.4m/s | 14.5°C | 72.0% | 877.8hPa | 2.7V | 00:36:26 | 03:04:20 | 00:00:00 | |
| OE3JTB-15 | 2026-08-31 06:32:00 | 48.31910 | 13.11422 | 90° | 58km/h | 1295m | -3.2m/s | 14.4°C | 73.0% | 877.5hPa | 2.7V | 00:36:27 | 00:00:00 | 00:00:00 | |
| OE3JTB-15 | 2026-08-31 06:31:58 | 48.31910 | 13.11377 | 90° | 60km/h | 1301m | -3.1m/s | 14.4°C | 72.2% | 876.9hPa | 2.7V | 00:36:29 | 00:00:00 | 00:00:00 | |
| OE5DXL-15 | 2026-08-31 06:31:58 | 48.31910 | 13.11377 | 90° | 60km/h | 1301m | -3.1m/s | 14.4°C | 72.2% | 876.9hPa | 2.7V | 00:36:29 | 00:00:00 | 00:00:00 | |
| OE3JTB-15 | 2026-08-31 06:31:56 | 48.31910 | 13.11332 | 92° | 60km/h | 1308m | -3.3m/s | 14.7°C | 69.2% | 876.3hPa | 2.7V | 00:36:31 | 03:04:15 | 00:00:00 | |
| OE5MMP-10 | 2026-08-31 06:31:55 | 48.31910 | 13.11308 | 92° | 62km/h | 1311m | -3.0m/s | 14.7°C | 69.2% | 875.8hPa | 2.7V | 00:36:32 | 03:04:14 | 00:00:00 | |
| OE3JTB-15 | 2026-08-31 06:31:54 | 48.31911 | 13.11285 | 92° | 62km/h | 1314m | -3.0m/s | 14.6°C | 69.4% | 875.4hPa | 2.7V | 00:36:33 | 00:00:00 | 00:00:00 | |
| OE3JTB-15 | 2026-08-31 06:31:50 | 48.31913 | 13.11190 | 94° | 64km/h | 1327m | -3.1m/s | 14.5°C | 70.0% | 874.1hPa | 2.7V | 00:36:37 | 03:04:09 | 00:00:00 | |
| OE5MMP-10 | 2026-08-31 06:31:50 | 48.31913 | 13.11190 | 94° | 64km/h | 1327m | -3.1m/s | 14.5°C | 70.0% | 874.1hPa | 2.7V | 00:36:37 | 03:04:09 | 00:00:00 | |
| OE3JTB-15 | 2026-08-31 06:31:48 | 48.31916 | 13.11142 | 95° | 64km/h | 1333m | -3.0m/s | 14.5°C | 70.2% | 873.8hPa | 2.7V | 00:36:39 | 00:00:00 | 00:00:00 | |
| OE5DXL-15 | 2026-08-31 06:31:46 | 48.31918 | 13.11094 | 95° | 64km/h | 1340m | -3.2m/s | 14.5°C | 70.4% | 872.8hPa | 2.7V | 00:36:41 | 00:00:00 | 00:00:00 | |
| OE3JTB-15 | 2026-08-31 06:31:46 | 48.31918 | 13.11094 | 95° | 64km/h | 1340m | -3.2m/s | 14.5°C | 70.4% | 872.8hPa | 2.7V | 00:36:41 | 00:00:00 | 00:00:00 | |
| OE5MMP-10 | 2026-08-31 06:31:45 | 48.31920 | 13.11070 | 96° | 64km/h | 1343m | -3.2m/s | 14.5°C | 70.4% | 872.5hPa | 2.7V | 00:36:42 | 03:04:04 | 00:00:00 | |
| OE3JTB-15 | 2026-08-31 06:31:44 | 48.31921 | 13.11047 | 96° | 64km/h | 1346m | -3.0m/s | 14.4°C | 70.5% | 872.5hPa | 2.7V | 00:36:43 | 03:04:03 | 00:00:00 | |
| OE3JTB-15 | 2026-08-31 06:31:42 | 48.31924 | 13.10999 | 97° | 64km/h | 1352m | -3.1m/s | 14.4°C | 70.5% | 871.8hPa | 2.7V | 00:36:45 | 00:00:00 | 00:00:00 | |
| OE3JTB-15 | 2026-08-31 06:31:40 | 48.31928 | 13.10951 | 97° | 64km/h | 1359m | -3.1m/s | 14.4°C | 70.9% | 871.1hPa | 2.7V | 00:36:47 | 00:00:00 | 00:00:00 | |
| OE5DXL-15 | 2026-08-31 06:31:40 | 48.31928 | 13.10951 | 97° | 64km/h | 1359m | -3.1m/s | 14.4°C | 70.9% | 871.1hPa | 2.7V | 00:36:47 | 00:00:00 | 00:00:00 | |
| OE5MMP-10 | 2026-08-31 06:31:40 | 48.31928 | 13.10951 | 97° | 64km/h | 1359m | -3.1m/s | 14.4°C | 70.9% | 871.1hPa | 2.7V | 00:36:47 | 03:03:59 | 00:00:00 | |
| OE3JTB-15 | 2026-08-31 06:31:38 | 48.31931 | 13.10903 | 97° | 64km/h | 1365m | -3.1m/s | 14.3°C | 72.1% | 870.4hPa | 2.7V | 00:36:49 | 03:03:57 | 00:00:00 | |
| OE3JTB-15 | 2026-08-31 06:31:36 | 48.31935 | 13.10856 | 97° | 64km/h | 1371m | -3.2m/s | 14.2°C | 72.6% | 869.6hPa | 2.7V | 00:36:51 | 00:00:00 | 00:00:00 | |
| OE3JTB-15 | 2026-08-31 06:31:34 | 48.31938 | 13.10808 | 97° | 64km/h | 1378m | -3.1m/s | 14.2°C | 72.9% | 869.2hPa | 2.7V | 00:36:53 | 00:00:00 | 00:00:00 | |
| OE5MMP-10 | 2026-08-31 06:31:34 | 48.31938 | 13.10808 | 97° | 64km/h | 1378m | -3.1m/s | 14.2°C | 72.9% | 869.2hPa | 2.7V | 00:36:53 | 03:03:53 | 00:00:00 | |
| OE5DXL-15 | 2026-08-31 06:31:34 | 48.31938 | 13.10808 | 97° | 64km/h | 1378m | -3.1m/s | 14.2°C | 72.9% | 869.2hPa | 2.7V | 00:36:53 | 00:00:00 | 00:00:00 | |
| OE3JTB-15 | 2026-08-31 06:31:32 | 48.31942 | 13.10760 | 96° | 64km/h | 1384m | -2.9m/s | 14.1°C | 73.1% | 868.3hPa | 2.7V | 00:36:55 | 03:03:51 | 00:00:00 | |
| OE3JTB-15 | 2026-08-31 06:31:30 | 48.31945 | 13.10712 | 96° | 64km/h | 1390m | -3.2m/s | 14.1°C | 73.3% | 867.9hPa | 2.7V | 00:36:57 | 00:00:00 | 00:00:00 | |
| OE3JTB-15 | 2026-08-31 06:31:28 | 48.31949 | 13.10665 | 96° | 64km/h | 1396m | -3.2m/s | 14.0°C | 73.5% | 867.0hPa | 2.7V | 00:36:59 | 00:00:00 | 00:00:00 | |
| OE5MMP-10 | 2026-08-31 06:31:28 | 48.31949 | 13.10665 | 96° | 64km/h | 1396m | -3.2m/s | 14.0°C | 73.5% | 867.0hPa | 2.7V | 00:36:59 | 03:03:47 | 00:00:00 | |
| OE5DXL-15 | 2026-08-31 06:31:28 | 48.31949 | 13.10665 | 96° | 64km/h | 1396m | -3.2m/s | 14.0°C | 73.5% | 867.0hPa | 2.7V | 00:36:59 | 00:00:00 | 00:00:00 | |
| OE3JTB-15 | 2026-08-31 06:31:26 | 48.31952 | 13.10617 | 97° | 64km/h | 1403m | -3.0m/s | 14.0°C | 74.0% | 866.5hPa | 2.7V | 00:37:01 | 03:03:45 | 00:00:00 | |
| OE3JTB-15 | 2026-08-31 06:31:24 | 48.31956 | 13.10569 | 97° | 64km/h | 1409m | -2.9m/s | 13.9°C | 74.3% | 865.8hPa | 2.7V | 00:37:03 | 00:00:00 | 00:00:00 | |
| OE5MMP-10 | 2026-08-31 06:31:23 | 48.31958 | 13.10545 | 98° | 64km/h | 1412m | -2.9m/s | 13.9°C | 74.6% | 865.4hPa | 2.7V | 00:37:04 | 03:03:42 | 00:00:00 | |
| OE3JTB-15 | 2026-08-31 06:31:20 | 48.31964 | 13.10474 | 99° | 64km/h | 1420m | -2.8m/s | 13.8°C | 75.5% | 864.6hPa | 2.7V | 00:37:07 | 03:03:39 | 00:00:00 | |
| OE3JTB-15 | 2026-08-31 06:31:18 | 48.31969 | 13.10427 | 100° | 62km/h | 1426m | -2.8m/s | 13.8°C | 75.8% | 864.0hPa | 2.7V | 00:37:09 | 00:00:00 | 00:00:00 | |
| OE5MMP-10 | 2026-08-31 06:31:18 | 48.31969 | 13.10427 | 100° | 62km/h | 1426m | -2.8m/s | 13.8°C | 75.8% | 864.0hPa | 2.7V | 00:37:09 | 03:03:37 | 00:00:00 | |
| OE3JTB-15 | 2026-08-31 06:31:16 | 48.31975 | 13.10380 | 101° | 62km/h | 1432m | -2.8m/s | 13.8°C | 75.6% | 863.5hPa | 2.7V | 00:37:11 | 00:00:00 | 00:00:00 | |
| OE5DXL-15 | 2026-08-31 06:31:16 | 48.31975 | 13.10380 | 101° | 62km/h | 1432m | -2.8m/s | 13.8°C | 75.6% | 863.5hPa | 2.7V | 00:37:11 | 00:00:00 | 00:00:00 | |
| OE3JTB-15 | 2026-08-31 06:31:14 | 48.31980 | 13.10334 | 101° | 62km/h | 1438m | -2.9m/s | 13.7°C | 75.3% | 862.9hPa | 2.7V | 00:37:13 | 03:03:33 | 00:00:00 | |
| OE3JTB-15 | 2026-08-31 06:31:12 | 48.31987 | 13.10288 | 102° | 60km/h | 1444m | -2.9m/s | 13.7°C | 73.9% | 862.3hPa | 2.7V | 00:37:15 | 00:00:00 | 00:00:00 | |
| OE5DRO-10 | 2026-08-31 06:31:10 | 48.31993 | 13.10243 | 103° | 60km/h | 1449m | -3.1m/s | 13.7°C | 73.6% | 861.5hPa | 2.7V | 00:37:17 | 00:00:00 | 00:00:00 | |
| OE3JTB-15 | 2026-08-31 06:31:10 | 48.31993 | 13.10243 | 103° | 60km/h | 1449m | -3.1m/s | 13.7°C | 73.6% | 861.5hPa | 2.7V | 00:37:17 | 00:00:00 | 00:00:00 | |
| OE5MMP-10 | 2026-08-31 06:31:10 | 48.31993 | 13.10243 | 103° | 60km/h | 1449m | -3.1m/s | 13.7°C | 73.6% | 861.5hPa | 2.7V | 00:37:17 | 03:03:29 | 00:00:00 | |
| OE5DXL-15 | 2026-08-31 06:31:10 | 48.31993 | 13.10243 | 103° | 60km/h | 1449m | -3.1m/s | 13.7°C | 73.6% | 861.5hPa | 2.7V | 00:37:17 | 00:00:00 | 00:00:00 | |
| OE3JTB-15 | 2026-08-31 06:31:08 | 48.31999 | 13.10199 | 103° | 60km/h | 1455m | -2.7m/s | 13.7°C | 74.1% | 861.2hPa | 2.7V | 00:37:19 | 03:03:27 | 00:00:00 | |
| OE5MMP-10 | 2026-08-31 06:31:05 | 48.32009 | 13.10132 | 102° | 58km/h | 1465m | -2.7m/s | 13.7°C | 71.8% | 860.1hPa | 2.7V | 00:37:22 | 03:03:24 | 00:00:00 | |
| OE5DRO-10 | 2026-08-31 06:31:04 | 48.32012 | 13.10111 | 103° | 58km/h | 1467m | -2.8m/s | 13.7°C | 71.6% | 859.9hPa | 2.7V | 00:37:23 | 00:00:00 | 00:00:00 | |
| OE3JTB-15 | 2026-08-31 06:31:04 | 48.32012 | 13.10111 | 103° | 58km/h | 1467m | -2.8m/s | 13.7°C | 71.6% | 859.9hPa | 2.7V | 00:37:23 | 00:00:00 | 00:00:00 | |
| OE5DXL-15 | 2026-08-31 06:31:04 | 48.32012 | 13.10111 | 103° | 58km/h | 1467m | -2.8m/s | 13.7°C | 71.6% | 859.9hPa | 2.7V | 00:37:23 | 00:00:00 | 00:00:00 | |
| OE5DRO-10 | 2026-08-31 06:31:02 | 48.32018 | 13.10067 | 103° | 58km/h | 1473m | -3.1m/s | 13.6°C | 71.6% | 859.2hPa | 2.7V | 00:37:25 | 00:00:00 | 00:00:00 | |
| OE3JTB-15 | 2026-08-31 06:31:02 | 48.32018 | 13.10067 | 103° | 58km/h | 1473m | -3.1m/s | 13.6°C | 71.6% | 859.2hPa | 2.7V | 00:37:25 | 03:03:21 | 00:00:00 | |
| OE5DRO-10 | 2026-08-31 06:31:00 | 48.32024 | 13.10024 | 103° | 58km/h | 1479m | -2.9m/s | 13.6°C | 71.7% | 858.7hPa | 2.7V | 00:37:27 | 00:00:00 | 00:00:00 | |
| OE3JTB-15 | 2026-08-31 06:31:00 | 48.32024 | 13.10024 | 103° | 58km/h | 1479m | -2.9m/s | 13.6°C | 71.7% | 858.7hPa | 2.7V | 00:37:27 | 00:00:00 | 00:00:00 | |
| OE5MMP-10 | 2026-08-31 06:30:59 | 48.32027 | 13.10002 | 103° | 58km/h | 1482m | -3.0m/s | 13.6°C | 71.6% | 858.3hPa | 2.7V | 00:37:28 | 03:03:18 | 00:00:00 | |
| OE5DRO-10 | 2026-08-31 06:30:58 | 48.32030 | 13.09981 | 102° | 58km/h | 1485m | -3.1m/s | 13.5°C | 71.6% | 858.1hPa | 2.7V | 00:37:29 | 00:00:00 | 00:00:00 | |
| OE5DXL-15 | 2026-08-31 06:30:58 | 48.32030 | 13.09981 | 102° | 58km/h | 1485m | -3.1m/s | 13.5°C | 71.6% | 858.1hPa | 2.7V | 00:37:29 | 00:00:00 | 00:00:00 | |
| OE3JTB-15 | 2026-08-31 06:30:58 | 48.32030 | 13.09981 | 102° | 58km/h | 1485m | -3.1m/s | 13.5°C | 71.6% | 858.1hPa | 2.7V | 00:37:29 | 00:00:00 | 00:00:00 | |
| OE5DRO-10 | 2026-08-31 06:30:56 | 48.32036 | 13.09937 | 102° | 58km/h | 1492m | -3.2m/s | 13.5°C | 71.7% | 857.3hPa | 2.7V | 00:37:31 | 00:00:00 | 00:00:00 | |
| OE3JTB-15 | 2026-08-31 06:30:56 | 48.32036 | 13.09937 | 102° | 58km/h | 1492m | -3.2m/s | 13.5°C | 71.7% | 857.3hPa | 2.7V | 00:37:31 | 03:03:15 | 00:00:00 | |
| OE5DRO-10 | 2026-08-31 06:30:54 | 48.32042 | 13.09893 | 102° | 58km/h | 1498m | -3.3m/s | 13.5°C | 71.5% | 856.6hPa | 2.7V | 00:37:33 | 00:00:00 | 00:00:00 | |
| OE3JTB-15 | 2026-08-31 06:30:54 | 48.32042 | 13.09893 | 102° | 58km/h | 1498m | -3.3m/s | 13.5°C | 71.5% | 856.6hPa | 2.7V | 00:37:33 | 00:00:00 | 00:00:00 | |
| OE5MMP-10 | 2026-08-31 06:30:54 | 48.32042 | 13.09893 | 102° | 58km/h | 1498m | -3.3m/s | 13.5°C | 71.5% | 856.6hPa | 2.7V | 00:37:33 | 03:03:13 | 00:00:00 | |
| OE5DRO-10 | 2026-08-31 06:30:53 | 48.32048 | 13.09849 | 102° | 58km/h | 1505m | -3.2m/s | 13.4°C | 70.8% | 856.0hPa | 2.7V | 00:37:35 | 00:00:00 | 00:00:00 | |
| OE3JTB-15 | 2026-08-31 06:30:53 | 48.32048 | 13.09849 | 102° | 58km/h | 1505m | -3.2m/s | 13.4°C | 70.8% | 856.0hPa | 2.7V | 00:37:35 | 00:00:00 | 00:00:00 | |
| OE5DXL-15 | 2026-08-31 06:30:53 | 48.32048 | 13.09849 | 102° | 58km/h | 1505m | -3.2m/s | 13.4°C | 70.8% | 856.0hPa | 2.7V | 00:37:35 | 00:00:00 | 00:00:00 | |
| OE3JTB-15 | 2026-08-31 06:30:50 | 48.32054 | 13.09805 | 102° | 58km/h | 1512m | -3.4m/s | 13.4°C | 70.5% | 855.4hPa | 2.7V | 00:37:37 | 03:03:09 | 00:00:00 | |
| OE5DRO-10 | 2026-08-31 06:30:49 | 48.32057 | 13.09784 | 102° | 57km/h | 1515m | -3.3m/s | 13.4°C | 69.5% | 855.0hPa | 2.7V | 00:37:38 | 00:00:00 | 00:00:00 | |
| OE5MMP-10 | 2026-08-31 06:30:49 | 48.32057 | 13.09784 | 102° | 57km/h | 1515m | -3.3m/s | 13.4°C | 69.5% | 855.0hPa | 2.7V | 00:37:38 | 03:03:08 | 00:00:00 | |
| OE3JTB-15 | 2026-08-31 06:30:48 | 48.32060 | 13.09762 | 102° | 57km/h | 1519m | -3.3m/s | 13.4°C | 68.3% | 854.6hPa | 2.7V | 00:37:39 | 00:00:00 | 00:00:00 | |
| DO3MHA-11 | 2026-08-31 06:30:48 | 48.32060 | 13.09762 | 102° | 57km/h | 1519m | -3.3m/s | 13.4°C | 68.3% | 854.6hPa | 2.7V | 00:37:39 | 03:03:07 | 00:00:00 | |
| OE3JTB-15 | 2026-08-31 06:30:46 | 48.32066 | 13.09720 | 103° | 55km/h | 1525m | -3.3m/s | 13.4°C | 70.3% | 853.9hPa | 2.7V | 00:37:41 | 00:00:00 | 00:00:00 | |
| OE5DXL-15 | 2026-08-31 06:30:46 | 48.32066 | 13.09720 | 103° | 55km/h | 1525m | -3.3m/s | 13.4°C | 70.3% | 853.9hPa | 2.7V | 00:37:41 | 00:00:00 | 00:00:00 | |
| OE5DRO-10 | 2026-08-31 06:30:45 | 48.32069 | 13.09700 | 102° | 55km/h | 1529m | -3.3m/s | 13.4°C | 71.4% | 853.7hPa | 2.7V | 00:37:42 | 00:00:00 | 00:00:00 | |
| OE3JTB-15 | 2026-08-31 06:30:44 | 48.32072 | 13.09679 | 103° | 53km/h | 1532m | -3.2m/s | 13.4°C | 71.1% | 853.3hPa | 2.7V | 00:37:43 | 03:03:03 | 00:00:00 | |
| OE5MMP-10 | 2026-08-31 06:30:44 | 48.32072 | 13.09679 | 103° | 51km/h | 1532m | -3.2m/s | 13.4°C | 71.1% | 853.3hPa | 2.7V | 00:37:43 | 03:03:03 | 00:00:00 | |
| OE5DRO-10 | 2026-08-31 06:30:43 | 48.32075 | 13.09659 | 103° | 53km/h | 1535m | -3.4m/s | 13.4°C | 72.4% | 852.8hPa | 2.7V | 00:37:44 | 00:00:00 | 00:00:00 | |
| DO3MHA-11 | 2026-08-31 06:30:43 | 48.32075 | 13.09659 | 103° | 51km/h | 1535m | -3.4m/s | 13.4°C | 72.4% | 852.8hPa | 2.7V | 00:37:44 | 03:03:02 | 00:00:00 | |
| OE3JTB-15 | 2026-08-31 06:30:42 | 48.32078 | 13.09640 | 103° | 53km/h | 1539m | -3.3m/s | 13.3°C | 73.6% | 852.7hPa | 2.7V | 00:37:45 | 00:00:00 | 00:00:00 | |
| OE5DRO-10 | 2026-08-31 06:30:41 | 48.32081 | 13.09620 | 102° | 51km/h | 1542m | -3.3m/s | 13.3°C | 73.9% | 852.4hPa | 2.7V | 00:37:46 | 00:00:00 | 00:00:00 | |
| OE3JTB-15 | 2026-08-31 06:30:40 | 48.32083 | 13.09601 | 102° | 51km/h | 1545m | -3.1m/s | 13.3°C | 74.2% | 852.0hPa | 2.7V | 00:37:47 | 00:00:00 | 00:00:00 | |
| OE5DXL-15 | 2026-08-31 06:30:40 | 48.32083 | 13.09601 | 102° | 49km/h | 1545m | -3.1m/s | 13.3°C | 74.2% | 852.0hPa | 2.7V | 00:37:47 | 00:00:00 | 00:00:00 | |
| OE3JTB-15 | 2026-08-31 06:30:38 | 48.32088 | 13.09563 | 102° | 49km/h | 1552m | -3.4m/s | 13.2°C | 74.9% | 851.2hPa | 2.7V | 00:37:49 | 03:02:57 | 00:00:00 | |
| OE5DRO-10 | 2026-08-31 06:30:37 | 48.32091 | 13.09545 | 102° | 49km/h | 1555m | -3.4m/s | 13.2°C | 75.3% | 850.9hPa | 2.7V | 00:37:50 | 00:00:00 | 00:00:00 | |
| DO3MHA-11 | 2026-08-31 06:30:37 | 48.32091 | 13.09545 | 102° | 49km/h | 1555m | -3.4m/s | 13.2°C | 75.3% | 850.9hPa | 2.7V | 00:37:50 | 03:02:56 | 00:00:00 | |
| OE3JTB-15 | 2026-08-31 06:30:36 | 48.32093 | 13.09526 | 102° | 49km/h | 1559m | -3.4m/s | 13.2°C | 76.6% | 850.5hPa | 2.7V | 00:37:51 | 00:00:00 | 00:00:00 | |
| OE5DRO-10 | 2026-08-31 06:30:35 | 48.32096 | 13.09508 | 102° | 49km/h | 1562m | -3.3m/s | 13.1°C | 76.7% | 850.2hPa | 2.7V | 00:37:52 | 00:00:00 | 00:00:00 | |
| OE3JTB-15 | 2026-08-31 06:30:34 | 48.32098 | 13.09489 | 101° | 49km/h | 1565m | -3.5m/s | 13.1°C | 76.9% | 850.0hPa | 2.7V | 00:37:53 | 00:00:00 | 00:00:00 | |
| OE5MMP-10 | 2026-08-31 06:30:33 | 48.32101 | 13.09471 | 101° | 49km/h | 1569m | -3.5m/s | 13.1°C | 77.1% | 849.5hPa | 2.7V | 00:37:54 | 03:02:52 | 00:00:00 | |
| OE3JTB-15 | 2026-08-31 06:30:32 | 48.32103 | 13.09453 | 101° | 49km/h | 1572m | -3.5m/s | 13.0°C | 77.3% | 849.1hPa | 2.7V | 00:37:55 | 03:02:51 | 00:00:00 | |
| DO3MHA-11 | 2026-08-31 06:30:32 | 48.32103 | 13.09453 | 101° | 49km/h | 1572m | -3.5m/s | 13.0°C | 77.3% | 849.1hPa | 2.7V | 00:37:55 | 03:02:51 | 00:00:00 | |
| OE3JTB-15 | 2026-08-31 06:30:30 | 48.32107 | 13.09417 | 101° | 49km/h | 1580m | -3.5m/s | 13.0°C | 79.0% | 848.8hPa | 2.7V | 00:37:57 | 00:00:00 | 00:00:00 | |
| OE5DRO-10 | 2026-08-31 06:30:28 | 48.32112 | 13.09380 | 101° | 49km/h | 1587m | -3.3m/s | 12.9°C | 80.0% | 847.8hPa | 2.7V | 00:37:59 | 00:00:00 | 00:00:00 | |
| OE3JTB-15 | 2026-08-31 06:30:28 | 48.32112 | 13.09380 | 101° | 49km/h | 1587m | -3.3m/s | 12.9°C | 80.0% | 847.8hPa | 2.7V | 00:37:59 | 00:00:00 | 00:00:00 | |
| DO3MHA-12 | 2026-08-31 06:30:28 | 48.32112 | 13.09380 | 101° | 49km/h | 1587m | -3.3m/s | 12.9°C | 80.0% | 847.8hPa | 2.7V | 00:37:59 | 03:02:47 | 00:00:00 | |
| DO3MHA-11 | 2026-08-31 06:30:27 | 48.32114 | 13.09362 | 101° | 49km/h | 1590m | -3.4m/s | 12.8°C | 80.6% | 847.5hPa | 2.7V | 00:38:00 | 03:02:46 | 00:00:00 | |
| OE3JTB-15 | 2026-08-31 06:30:26 | 48.32116 | 13.09343 | 101° | 49km/h | 1594m | -3.5m/s | 12.8°C | 81.3% | 847.2hPa | 2.7V | 00:38:01 | 03:02:45 | 00:00:00 | |
| OE5MMP-10 | 2026-08-31 06:30:25 | 48.32119 | 13.09325 | 101° | 49km/h | 1597m | -3.4m/s | 12.8°C | 81.8% | 846.8hPa | 2.7V | 00:38:02 | 03:02:44 | 00:00:00 | |
| OE3JTB-15 | 2026-08-31 06:30:24 | 48.32121 | 13.09307 | 101° | 49km/h | 1601m | -3.3m/s | 12.7°C | 82.0% | 846.5hPa | 2.7V | 00:38:03 | 00:00:00 | 00:00:00 | |
| DO3MHA-11 | 2026-08-31 06:30:22 | 48.32125 | 13.09270 | 101° | 49km/h | 1607m | -3.4m/s | 12.7°C | 82.5% | 845.7hPa | 2.7V | 00:38:05 | 03:02:41 | 00:00:00 | |
| OE3JTB-15 | 2026-08-31 06:30:22 | 48.32125 | 13.09270 | 101° | 49km/h | 1607m | -3.4m/s | 12.7°C | 82.5% | 845.7hPa | 2.7V | 00:38:05 | 00:00:00 | 00:00:00 | |
| OE5DRO-10 | 2026-08-31 06:30:21 | 48.32128 | 13.09251 | 100° | 49km/h | 1611m | -3.6m/s | 12.6°C | 82.7% | 845.2hPa | 2.7V | 00:38:06 | 00:00:00 | 00:00:00 | |
| OE3JTB-15 | 2026-08-31 06:30:21 | 48.32130 | 13.09233 | 101° | 49km/h | 1615m | -3.4m/s | 12.6°C | 83.2% | 845.1hPa | 2.7V | 00:38:07 | 03:02:39 | 00:00:00 | |
| OE5MMP-10 | 2026-08-31 06:30:20 | 48.32130 | 13.09233 | 101° | 47km/h | 1615m | -3.4m/s | 12.6°C | 83.2% | 845.1hPa | 2.7V | 00:38:07 | 03:02:39 | 00:00:00 | |
| OE5DXL-15 | 2026-08-31 06:30:20 | 48.32130 | 13.09233 | 101° | 47km/h | 1615m | -3.4m/s | 12.6°C | 83.2% | 845.1hPa | 2.7V | 00:38:07 | 00:00:00 | 00:00:00 | |
| DO3MHA-12 | 2026-08-31 06:30:19 | 48.32132 | 13.09215 | 100° | 49km/h | 1618m | -3.4m/s | 12.6°C | 83.6% | 844.7hPa | 2.7V | 00:38:08 | 03:02:38 | 00:00:00 | |
| OE3JTB-15 | 2026-08-31 06:30:18 | 48.32134 | 13.09197 | 100° | 49km/h | 1622m | -3.5m/s | 12.5°C | 84.6% | 844.3hPa | 2.7V | 00:38:09 | 00:00:00 | 00:00:00 | |
| DO3MHA-11 | 2026-08-31 06:30:17 | 48.32136 | 13.09178 | 100° | 47km/h | 1625m | -3.5m/s | 12.5°C | 85.0% | 843.9hPa | 2.7V | 00:38:10 | 03:02:36 | 00:00:00 | |
| OE3JTB-15 | 2026-08-31 06:30:16 | 48.32138 | 13.09160 | 99° | 47km/h | 1629m | -3.6m/s | 12.5°C | 84.9% | 843.4hPa | 2.7V | 00:38:11 | 00:00:00 | 00:00:00 | |
| OE5DRO-10 | 2026-08-31 06:30:14 | 48.32142 | 13.09124 | 98° | 47km/h | 1636m | -3.6m/s | 12.4°C | 85.8% | 842.8hPa | 2.7V | 00:38:13 | 00:00:00 | 00:00:00 | |
| OE3JTB-15 | 2026-08-31 06:30:14 | 48.32142 | 13.09124 | 98° | 47km/h | 1636m | -3.6m/s | 12.4°C | 85.8% | 842.8hPa | 2.7V | 00:38:13 | 03:02:33 | 00:00:00 | |
| DO3MHA-12 | 2026-08-31 06:30:14 | 48.32142 | 13.09124 | 98° | 47km/h | 1636m | -3.6m/s | 12.4°C | 85.8% | 842.8hPa | 2.7V | 00:38:13 | 03:02:33 | 00:00:00 | |
| OE3JTB-15 | 2026-08-31 06:30:10 | 48.32147 | 13.09052 | 96° | 47km/h | 1650m | -3.5m/s | 12.3°C | 86.4% | 841.4hPa | 2.7V | 00:38:17 | 00:00:00 | 00:00:00 | |
| OE5MMP-10 | 2026-08-31 06:30:09 | 48.32148 | 13.09034 | 95° | 47km/h | 1654m | -3.5m/s | 12.3°C | 86.5% | 841.0hPa | 2.7V | 00:38:18 | 03:02:28 | 00:00:00 | |
| DO3MHA-12 | 2026-08-31 06:30:09 | 48.32148 | 13.09034 | 95° | 47km/h | 1654m | -3.5m/s | 12.3°C | 86.5% | 841.0hPa | 2.7V | 00:38:18 | 03:02:28 | 00:00:00 | |
| OE3JTB-15 | 2026-08-31 06:30:08 | 48.32149 | 13.09016 | 95° | 47km/h | 1657m | -3.5m/s | 12.2°C | 86.6% | 840.6hPa | 2.7V | 00:38:19 | 03:02:27 | 00:00:00 | |
| OE5DRO-10 | 2026-08-31 06:30:07 | 48.32150 | 13.08997 | 94° | 47km/h | 1661m | -3.7m/s | 12.2°C | 86.8% | 840.3hPa | 2.7V | 00:38:20 | 00:00:00 | 00:00:00 | |
| DO3MHA-11 | 2026-08-31 06:30:07 | 48.32150 | 13.08997 | 94° | 47km/h | 1661m | -3.7m/s | 12.2°C | 86.8% | 840.3hPa | 2.7V | 00:38:20 | 03:02:26 | 00:00:00 | |
| OE3JTB-15 | 2026-08-31 06:30:06 | 48.32151 | 13.08979 | 94° | 47km/h | 1665m | -3.7m/s | 12.2°C | 87.0% | 840.0hPa | 2.7V | 00:38:21 | 00:00:00 | 00:00:00 | |
| DO3MHA-12 | 2026-08-31 06:30:04 | 48.32152 | 13.08943 | 93° | 47km/h | 1672m | -3.6m/s | 12.1°C | 87.2% | 839.2hPa | 2.7V | 00:38:23 | 03:02:23 | 00:00:00 | |
| OE3JTB-15 | 2026-08-31 06:30:04 | 48.32152 | 13.08943 | 93° | 47km/h | 1672m | -3.6m/s | 12.1°C | 87.2% | 839.2hPa | 2.7V | 00:38:23 | 00:00:00 | 00:00:00 | |
| OE5MMP-10 | 2026-08-31 06:30:04 | 48.32152 | 13.08943 | 93° | 47km/h | 1672m | -3.6m/s | 12.1°C | 87.2% | 839.2hPa | 2.7V | 00:38:23 | 03:02:23 | 00:00:00 | |
| OE3JTB-15 | 2026-08-31 06:30:02 | 48.32153 | 13.08907 | 92° | 47km/h | 1679m | -3.9m/s | 12.0°C | 87.6% | 838.5hPa | 2.7V | 00:38:25 | 03:02:21 | 00:00:00 | |
| DO3MHA-11 | 2026-08-31 06:30:02 | 48.32153 | 13.08907 | 92° | 47km/h | 1679m | -3.9m/s | 12.0°C | 87.6% | 838.5hPa | 2.7V | 00:38:25 | 03:02:21 | 00:00:00 | |
| OE5DRO-10 | 2026-08-31 06:30:00 | 48.32153 | 13.08871 | 92° | 47km/h | 1687m | -3.8m/s | 11.9°C | 88.0% | 837.8hPa | 2.7V | 00:38:27 | 00:00:00 | 00:00:00 | |
| OE3JTB-15 | 2026-08-31 06:30:00 | 48.32153 | 13.08871 | 92° | 47km/h | 1687m | -3.8m/s | 11.9°C | 88.0% | 837.8hPa | 2.7V | 00:38:27 | 00:00:00 | 00:00:00 | |
| OE5DXL-15 | 2026-08-31 06:30:00 | 48.32153 | 13.08871 | 92° | 51km/h | 1687m | -3.8m/s | 11.9°C | 88.0% | 837.8hPa | 2.7V | 00:38:27 | 00:00:00 | 00:00:00 | |
| DO3MHA-12 | 2026-08-31 06:29:59 | 48.32153 | 13.08853 | 92° | 47km/h | 1691m | -3.9m/s | 11.9°C | 88.0% | 837.4hPa | 2.7V | 00:38:28 | 03:02:18 | 00:00:00 | |
| OE5MMP-10 | 2026-08-31 06:29:59 | 48.32153 | 13.08853 | 92° | 47km/h | 1691m | -3.9m/s | 11.9°C | 88.0% | 837.4hPa | 2.7V | 00:38:28 | 03:02:18 | 00:00:00 | |
| OE3JTB-15 | 2026-08-31 06:29:58 | 48.32154 | 13.08835 | 92° | 47km/h | 1695m | -3.9m/s | 11.9°C | 88.3% | 836.8hPa | 2.7V | 00:38:29 | 00:00:00 | 00:00:00 | |
| DO3MHA-11 | 2026-08-31 06:29:57 | 48.32154 | 13.08817 | 91° | 47km/h | 1699m | -3.8m/s | 11.8°C | 88.7% | 836.6hPa | 2.7V | 00:38:30 | 03:02:16 | 00:00:00 | |
| OE3JTB-15 | 2026-08-31 06:29:56 | 48.32154 | 13.08799 | 91° | 47km/h | 1703m | -4.0m/s | 11.8°C | 88.9% | 836.2hPa | 2.7V | 00:38:31 | 03:02:15 | 00:00:00 | |
| OE3JTB-15 | 2026-08-31 06:29:54 | 48.32154 | 13.08763 | 90° | 47km/h | 1711m | -3.6m/s | 11.7°C | 89.1% | 835.3hPa | 2.7V | 00:38:33 | 00:00:00 | 00:00:00 | |
| DO3MHA-12 | 2026-08-31 06:29:54 | 48.32154 | 13.08763 | 90° | 49km/h | 1711m | -3.6m/s | 11.7°C | 89.1% | 835.3hPa | 2.7V | 00:38:33 | 03:02:13 | 00:00:00 | |
| OE5MMP-10 | 2026-08-31 06:29:54 | 48.32154 | 13.08763 | 90° | 49km/h | 1711m | -3.6m/s | 11.7°C | 89.1% | 835.3hPa | 2.7V | 00:38:33 | 03:02:13 | 00:00:00 | |
| OE5DRO-10 | 2026-08-31 06:29:53 | 48.32154 | 13.08744 | 89° | 51km/h | 1714m | -3.8m/s | 11.7°C | 89.0% | 835.1hPa | 2.7V | 00:38:34 | 00:00:00 | 00:00:00 | |
| OE3JTB-15 | 2026-08-31 06:29:52 | 48.32153 | 13.08726 | 89° | 49km/h | 1718m | -3.9m/s | 11.7°C | 89.2% | 834.5hPa | 2.7V | 00:38:35 | 00:00:00 | 00:00:00 | |
| DO3MHA-11 | 2026-08-31 06:29:52 | 48.32153 | 13.08726 | 89° | 51km/h | 1718m | -3.9m/s | 11.7°C | 89.2% | 834.5hPa | 2.7V | 00:38:35 | 03:02:11 | 00:00:00 | |
| DO3MHA-12 | 2026-08-31 06:29:49 | 48.32151 | 13.08669 | 86° | 51km/h | 1730m | -3.8m/s | 11.7°C | 89.2% | 833.6hPa | 2.7V | 00:38:38 | 03:02:08 | 00:00:00 | |
| OE5MMP-10 | 2026-08-31 06:29:49 | 48.32151 | 13.08669 | 86° | 53km/h | 1730m | -3.8m/s | 11.7°C | 89.2% | 833.6hPa | 2.7V | 00:38:38 | 03:02:08 | 00:00:00 | |
| OE3JTB-15 | 2026-08-31 06:29:48 | 48.32150 | 13.08649 | 86° | 51km/h | 1734m | -3.9m/s | 11.7°C | 89.8% | 833.2hPa | 2.7V | 00:38:39 | 00:00:00 | 00:00:00 | |
| DO3MHA-11 | 2026-08-31 06:29:47 | 48.32149 | 13.08630 | 86° | 53km/h | 1738m | -3.8m/s | 11.7°C | 90.2% | 832.7hPa | 2.7V | 00:38:40 | 03:02:06 | 00:00:00 | |
| OE5DRO-10 | 2026-08-31 06:29:46 | 48.32148 | 13.08610 | 86° | 55km/h | 1741m | -3.6m/s | 11.6°C | 90.3% | 832.2hPa | 2.7V | 00:38:41 | 00:00:00 | 00:00:00 | |
| OE3JTB-15 | 2026-08-31 06:29:46 | 48.32148 | 13.08610 | 86° | 53km/h | 1741m | -3.6m/s | 11.6°C | 90.3% | 832.2hPa | 2.7V | 00:38:41 | 00:00:00 | 00:00:00 | |
| DO3MHA-12 | 2026-08-31 06:29:44 | 48.32146 | 13.08570 | 86° | 55km/h | 1749m | -4.0m/s | 11.6°C | 90.8% | 831.6hPa | 2.7V | 00:38:43 | 03:02:03 | 00:00:00 | |
| OE3JTB-15 | 2026-08-31 06:29:44 | 48.32146 | 13.08570 | 86° | 55km/h | 1749m | -4.0m/s | 11.6°C | 90.8% | 831.6hPa | 2.7V | 00:38:43 | 03:02:03 | 00:00:00 | |
| OE5MMP-10 | 2026-08-31 06:29:42 | 48.32144 | 13.08529 | 86° | 57km/h | 1757m | -3.9m/s | 11.5°C | 91.0% | 830.7hPa | 2.7V | 00:38:45 | 03:02:01 | 00:00:00 | |
| OE3JTB-15 | 2026-08-31 06:29:42 | 48.32144 | 13.08529 | 86° | 55km/h | 1757m | -3.9m/s | 11.5°C | 91.0% | 830.7hPa | 2.7V | 00:38:45 | 00:00:00 | 00:00:00 | |
| DO3MHA-11 | 2026-08-31 06:29:42 | 48.32144 | 13.08529 | 86° | 57km/h | 1757m | -3.9m/s | 11.5°C | 91.0% | 830.7hPa | 2.7V | 00:38:45 | 03:02:01 | 00:00:00 | |
| OE3JTB-15 | 2026-08-31 06:29:40 | 48.32141 | 13.08486 | 86° | 57km/h | 1765m | -4.1m/s | 11.5°C | 91.0% | 830.0hPa | 2.7V | 00:38:47 | 00:00:00 | 00:00:00 | |
| OE5DXL-15 | 2026-08-31 06:29:40 | 48.32141 | 13.08486 | 86° | 60km/h | 1765m | -4.1m/s | 11.5°C | 91.0% | 830.0hPa | 2.7V | 00:38:47 | 00:00:00 | 00:00:00 | |
| OE5DRO-10 | 2026-08-31 06:29:39 | 48.32140 | 13.08465 | 86° | 58km/h | 1769m | -3.8m/s | 11.4°C | 91.1% | 829.6hPa | 2.7V | 00:38:48 | 00:00:00 | 00:00:00 | |
| DO3MHA-12 | 2026-08-31 06:29:39 | 48.32140 | 13.08465 | 86° | 58km/h | 1769m | -3.8m/s | 11.4°C | 91.1% | 829.6hPa | 2.7V | 00:38:48 | 03:01:58 | 00:00:00 | |
| OE3JTB-15 | 2026-08-31 06:29:38 | 48.32139 | 13.08443 | 87° | 58km/h | 1773m | -3.7m/s | 11.4°C | 91.2% | 829.2hPa | 2.7V | 00:38:49 | 03:01:57 | 00:00:00 | |
| DO3MHA-11 | 2026-08-31 06:29:37 | 48.32138 | 13.08421 | 88° | 60km/h | 1777m | -3.6m/s | 11.4°C | 91.4% | 828.8hPa | 2.7V | 00:38:50 | 03:01:56 | 00:00:00 | |
| OE3JTB-15 | 2026-08-31 06:29:36 | 48.32138 | 13.08399 | 89° | 60km/h | 1780m | -3.8m/s | 11.4°C | 91.6% | 828.4hPa | 2.7V | 00:38:51 | 00:00:00 | 00:00:00 | |
| OE5MMP-10 | 2026-08-31 06:29:36 | 48.32138 | 13.08399 | 89° | 60km/h | 1780m | -3.8m/s | 11.4°C | 91.6% | 828.4hPa | 2.7V | 00:38:51 | 03:01:55 | 00:00:00 | |
| OE3JTB-15 | 2026-08-31 06:29:34 | 48.32138 | 13.08353 | 90° | 60km/h | 1788m | -3.8m/s | 11.4°C | 91.8% | 827.6hPa | 2.7V | 00:38:53 | 00:00:00 | 00:00:00 | |
| DO3MHA-12 | 2026-08-31 06:29:34 | 48.32138 | 13.08353 | 90° | 60km/h | 1788m | -3.8m/s | 11.4°C | 91.8% | 827.6hPa | 2.7V | 00:38:53 | 03:01:53 | 00:00:00 | |
| OE5DRO-10 | 2026-08-31 06:29:32 | 48.32138 | 13.08307 | 91° | 60km/h | 1796m | -4.0m/s | 11.3°C | 92.0% | 826.9hPa | 2.7V | 00:38:55 | 00:00:00 | 00:00:00 | |
| OE3JTB-15 | 2026-08-31 06:29:32 | 48.32138 | 13.08307 | 91° | 60km/h | 1796m | -4.0m/s | 11.3°C | 92.0% | 826.9hPa | 2.7V | 00:38:55 | 03:01:51 | 00:00:00 | |
| DO3MHA-11 | 2026-08-31 06:29:32 | 48.32138 | 13.08307 | 91° | 60km/h | 1796m | -4.0m/s | 11.3°C | 92.0% | 826.9hPa | 2.7V | 00:38:55 | 03:01:51 | 00:00:00 | |
| OE3JTB-15 | 2026-08-31 06:29:30 | 48.32138 | 13.08261 | 92° | 62km/h | 1804m | -3.9m/s | 11.3°C | 92.4% | 826.2hPa | 2.7V | 00:38:57 | 00:00:00 | 00:00:00 | |
| DO3MHA-12 | 2026-08-31 06:29:29 | 48.32139 | 13.08238 | 93° | 60km/h | 1808m | -4.0m/s | 11.2°C | 92.5% | 825.4hPa | 2.7V | 00:38:58 | 03:01:48 | 00:00:00 | |
| OE5MMP-10 | 2026-08-31 06:29:29 | 48.32139 | 13.08238 | 93° | 60km/h | 1808m | -4.0m/s | 11.2°C | 92.5% | 825.4hPa | 2.7V | 00:38:58 | 03:01:48 | 00:00:00 | |
| OE3JTB-15 | 2026-08-31 06:29:28 | 48.32139 | 13.08215 | 93° | 60km/h | 1812m | -4.1m/s | 11.2°C | 92.4% | 825.3hPa | 2.7V | 00:38:59 | 00:00:00 | 00:00:00 | |
| DO3MHA-11 | 2026-08-31 06:29:27 | 48.32140 | 13.08192 | 93° | 60km/h | 1816m | -4.1m/s | 11.2°C | 92.5% | 824.8hPa | 2.7V | 00:39:00 | 03:01:46 | 00:00:00 | |
| OE3JTB-15 | 2026-08-31 06:29:26 | 48.32141 | 13.08168 | 94° | 60km/h | 1820m | -4.3m/s | 11.1°C | 92.5% | 824.4hPa | 2.7V | 00:39:01 | 03:01:45 | 00:00:00 | |
| OE5DRO-10 | 2026-08-31 06:29:25 | 48.32142 | 13.08145 | 93° | 60km/h | 1825m | -4.0m/s | 11.1°C | 92.6% | 824.0hPa | 2.7V | 00:39:02 | 00:00:00 | 00:00:00 | |
| OE3JTB-15 | 2026-08-31 06:29:24 | 48.32142 | 13.08122 | 94° | 60km/h | 1829m | -4.0m/s | 11.1°C | 91.8% | 823.6hPa | 2.7V | 00:39:03 | 00:00:00 | 00:00:00 | |
| OE5MMP-10 | 2026-08-31 06:29:24 | 48.32142 | 13.08122 | 94° | 60km/h | 1829m | -4.0m/s | 11.1°C | 91.8% | 823.6hPa | 2.7V | 00:39:03 | 03:01:43 | 00:00:00 | |
| DO3MHA-12 | 2026-08-31 06:29:24 | 48.32142 | 13.08122 | 94° | 60km/h | 1829m | -4.0m/s | 11.1°C | 91.8% | 823.6hPa | 2.7V | 00:39:03 | 03:01:43 | 00:00:00 | |
| OE3JTB-15 | 2026-08-31 06:29:22 | 48.32144 | 13.08077 | 94° | 60km/h | 1837m | -4.0m/s | 11.1°C | 91.4% | 822.8hPa | 2.7V | 00:39:05 | 00:00:00 | 00:00:00 | |
| DO3MHA-11 | 2026-08-31 06:29:22 | 48.32144 | 13.08077 | 94° | 60km/h | 1837m | -4.0m/s | 11.1°C | 91.4% | 822.8hPa | 2.7V | 00:39:05 | 03:01:41 | 00:00:00 | |
| OE3JTB-15 | 2026-08-31 06:29:20 | 48.32146 | 13.08031 | 95° | 60km/h | 1845m | -4.1m/s | 11.1°C | 91.3% | 822.0hPa | 2.7V | 00:39:07 | 03:01:39 | 00:00:00 | |
| OE5DXL-15 | 2026-08-31 06:29:20 | 48.32146 | 13.08031 | 95° | 58km/h | 1845m | -4.1m/s | 11.1°C | 91.3% | 822.0hPa | 2.7V | 00:39:07 | 00:00:00 | 00:00:00 | |
| DO3MHA-12 | 2026-08-31 06:29:19 | 48.32147 | 13.08008 | 95° | 60km/h | 1849m | -4.0m/s | 11.1°C | 91.9% | 821.5hPa | 2.7V | 00:39:08 | 03:01:38 | 00:00:00 | |
| OE5DRO-10 | 2026-08-31 06:29:18 | 48.32148 | 13.07985 | 95° | 60km/h | 1853m | -4.0m/s | 11.0°C | 91.7% | 821.2hPa | 2.7V | 00:39:09 | 00:00:00 | 00:00:00 | |
| OE3JTB-15 | 2026-08-31 06:29:18 | 48.32148 | 13.07985 | 95° | 60km/h | 1853m | -4.0m/s | 11.0°C | 91.7% | 821.2hPa | 2.7V | 00:39:09 | 00:00:00 | 00:00:00 | |
| OE5MMP-10 | 2026-08-31 06:29:18 | 48.32148 | 13.07985 | 95° | 60km/h | 1853m | -4.0m/s | 11.0°C | 91.7% | 821.2hPa | 2.7V | 00:39:09 | 03:01:37 | 00:00:00 | |
| DO3MHA-11 | 2026-08-31 06:29:17 | 48.32149 | 13.07962 | 95° | 60km/h | 1857m | -4.0m/s | 11.0°C | 91.6% | 820.8hPa | 2.7V | 00:39:10 | 03:01:36 | 00:00:00 | |
| OE3JTB-15 | 2026-08-31 06:29:16 | 48.32151 | 13.07940 | 96° | 60km/h | 1861m | -4.0m/s | 11.0°C | 91.3% | 820.5hPa | 2.7V | 00:39:11 | 00:00:00 | 00:00:00 | |
| OE3JTB-15 | 2026-08-31 06:29:14 | 48.32153 | 13.07895 | 96° | 58km/h | 1869m | -4.0m/s | 11.0°C | 91.1% | 819.7hPa | 2.7V | 00:39:13 | 03:01:33 | 00:00:00 | |
| DO3MHA-12 | 2026-08-31 06:29:14 | 48.32153 | 13.07895 | 96° | 58km/h | 1869m | -4.0m/s | 11.0°C | 91.1% | 819.7hPa | 2.7V | 00:39:13 | 03:01:33 | 00:00:00 | |
| OE5MMP-10 | 2026-08-31 06:29:13 | 48.32155 | 13.07872 | 97° | 58km/h | 1873m | -4.1m/s | 11.0°C | 91.2% | 819.3hPa | 2.7V | 00:39:14 | 03:01:32 | 00:00:00 | |
| OE3JTB-15 | 2026-08-31 06:29:12 | 48.32157 | 13.07850 | 97° | 58km/h | 1877m | -4.1m/s | 10.9°C | 91.1% | 818.9hPa | 2.7V | 00:39:15 | 00:00:00 | 00:00:00 | |
| DO3MHA-11 | 2026-08-31 06:29:12 | 48.32157 | 13.07850 | 97° | 58km/h | 1877m | -4.1m/s | 10.9°C | 91.1% | 818.9hPa | 2.7V | 00:39:15 | 03:01:31 | 00:00:00 | |
| OE5DRO-10 | 2026-08-31 06:29:11 | 48.32158 | 13.07828 | 97° | 57km/h | 1881m | -3.9m/s | 10.9°C | 91.3% | 818.4hPa | 2.7V | 00:39:16 | 00:00:00 | 00:00:00 | |
| OE3JTB-15 | 2026-08-31 06:29:10 | 48.32160 | 13.07806 | 98° | 58km/h | 1885m | -3.7m/s | 10.9°C | 90.7% | 818.1hPa | 2.7V | 00:39:17 | 00:00:00 | 00:00:00 | |
| DO3MHA-12 | 2026-08-31 06:29:09 | 48.32162 | 13.07784 | 98° | 57km/h | 1889m | -3.7m/s | 10.9°C | 90.8% | 817.6hPa | 2.7V | 00:39:18 | 03:01:28 | 00:00:00 | |
| OE3JTB-15 | 2026-08-31 06:29:08 | 48.32164 | 13.07762 | 98° | 57km/h | 1893m | -3.9m/s | 10.9°C | 90.8% | 817.3hPa | 2.7V | 00:39:19 | 03:01:27 | 00:00:00 | |
| OE5MMP-10 | 2026-08-31 06:29:08 | 48.32164 | 13.07762 | 98° | 57km/h | 1893m | -3.9m/s | 10.9°C | 90.8% | 817.3hPa | 2.7V | 00:39:19 | 03:01:27 | 00:00:00 | |
| DO3MHA-11 | 2026-08-31 06:29:07 | 48.32166 | 13.07741 | 99° | 57km/h | 1897m | -4.1m/s | 10.9°C | 90.8% | 816.9hPa | 2.7V | 00:39:20 | 03:01:26 | 00:00:00 | |
| OE3JTB-15 | 2026-08-31 06:29:06 | 48.32168 | 13.07720 | 99° | 57km/h | 1901m | -3.9m/s | 10.8°C | 90.8% | 816.5hPa | 2.7V | 00:39:21 | 00:00:00 | 00:00:00 | |
| OE5DRO-10 | 2026-08-31 06:29:04 | 48.32172 | 13.07677 | 100° | 55km/h | 1909m | -4.0m/s | 10.8°C | 91.4% | 815.7hPa | 2.7V | 00:39:23 | 00:00:00 | 00:00:00 | |
| DO3MHA-12 | 2026-08-31 06:29:04 | 48.32172 | 13.07677 | 100° | 55km/h | 1909m | -4.0m/s | 10.8°C | 91.4% | 815.7hPa | 2.7V | 00:39:23 | 03:01:23 | 00:00:00 | |
| OE3JTB-15 | 2026-08-31 06:29:04 | 48.32172 | 13.07677 | 100° | 57km/h | 1909m | -4.0m/s | 10.8°C | 91.4% | 815.7hPa | 2.7V | 00:39:23 | 00:00:00 | 00:00:00 | |
| OE3JTB-15 | 2026-08-31 06:29:02 | 48.32177 | 13.07635 | 100° | 55km/h | 1917m | -4.1m/s | 10.8°C | 89.9% | 815.1hPa | 2.7V | 00:39:25 | 03:01:21 | 00:00:00 | |
| DO3MHA-11 | 2026-08-31 06:29:02 | 48.32177 | 13.07635 | 100° | 55km/h | 1917m | -4.1m/s | 10.8°C | 89.9% | 815.1hPa | 2.7V | 00:39:25 | 03:01:21 | 00:00:00 | |
| OE5MMP-10 | 2026-08-31 06:29:01 | 48.32179 | 13.07614 | 100° | 55km/h | 1921m | -4.0m/s | 10.7°C | 89.0% | 814.6hPa | 2.7V | 00:39:26 | 03:01:20 | 00:00:00 | |
| OE3JTB-15 | 2026-08-31 06:29:00 | 48.32182 | 13.07594 | 100° | 55km/h | 1925m | -3.9m/s | 10.7°C | 88.7% | 814.1hPa | 2.7V | 00:39:27 | 00:00:00 | 00:00:00 | |
| OE5DXL-15 | 2026-08-31 06:29:00 | 48.32182 | 13.07594 | 100° | 51km/h | 1925m | -3.9m/s | 10.7°C | 88.7% | 814.1hPa | 2.7V | 00:39:27 | 00:00:00 | 00:00:00 | |
| PG1ADW-2 | 2026-08-31 06:28:59 | 48.32184 | 13.07573 | 100° | 53km/h | 1929m | -4.2m/s | 10.7°C | 89.3% | 813.8hPa | 2.7V | 00:39:28 | 00:00:00 | 00:00:00 | |
| DO3MHA-12 | 2026-08-31 06:28:59 | 48.32184 | 13.07573 | 100° | 53km/h | 1929m | -4.2m/s | 10.7°C | 89.3% | 813.8hPa | 2.7V | 00:39:28 | 03:01:18 | 00:00:00 | |
| OE3JTB-15 | 2026-08-31 06:28:58 | 48.32186 | 13.07553 | 100° | 53km/h | 1933m | -4.2m/s | 10.6°C | 88.8% | 813.4hPa | 2.7V | 00:39:29 | 00:00:00 | 00:00:00 | |
| OE5DRO-10 | 2026-08-31 06:28:57 | 48.32188 | 13.07533 | 99° | 51km/h | 1938m | -4.1m/s | 10.6°C | 88.2% | 812.9hPa | 2.7V | 00:39:30 | 00:00:00 | 00:00:00 | |
| DO3MHA-11 | 2026-08-31 06:28:57 | 48.32188 | 13.07533 | 99° | 53km/h | 1938m | -4.1m/s | 10.6°C | 88.2% | 812.9hPa | 2.7V | 00:39:30 | 03:01:16 | 00:00:00 | |
| OE3JTB-15 | 2026-08-31 06:28:56 | 48.32190 | 13.07513 | 100° | 53km/h | 1942m | -3.9m/s | 10.6°C | 88.9% | 812.4hPa | 2.7V | 00:39:31 | 03:01:15 | 00:00:00 | |
| OE5MMP-10 | 2026-08-31 06:28:56 | 48.32190 | 13.07513 | 100° | 51km/h | 1942m | -3.9m/s | 10.6°C | 88.9% | 812.4hPa | 2.7V | 00:39:31 | 03:01:15 | 00:00:00 | |
| OE3JTB-15 | 2026-08-31 06:28:54 | 48.32194 | 13.07474 | 99° | 51km/h | 1950m | -4.1m/s | 10.5°C | 88.8% | 811.8hPa | 2.7V | 00:39:33 | 00:00:00 | 00:00:00 | |
| DO3MHA-12 | 2026-08-31 06:28:54 | 48.32194 | 13.07474 | 99° | 51km/h | 1950m | -4.1m/s | 10.5°C | 88.8% | 811.8hPa | 2.7V | 00:39:33 | 03:01:13 | 00:00:00 | |
| PG1ADW-2 | 2026-08-31 06:28:52 | 48.32198 | 13.07436 | 99° | 49km/h | 1958m | -4.0m/s | 10.5°C | 89.2% | 811.0hPa | 2.7V | 00:39:35 | 00:00:00 | 00:00:00 | |
| OE3JTB-15 | 2026-08-31 06:28:52 | 48.32198 | 13.07436 | 99° | 49km/h | 1958m | -4.0m/s | 10.5°C | 89.2% | 811.0hPa | 2.7V | 00:39:35 | 00:00:00 | 00:00:00 | |
| DO3MHA-11 | 2026-08-31 06:28:52 | 48.32198 | 13.07436 | 99° | 49km/h | 1958m | -4.0m/s | 10.5°C | 89.2% | 811.0hPa | 2.7V | 00:39:35 | 03:01:11 | 00:00:00 | |
| OE5MMP-10 | 2026-08-31 06:28:51 | 48.32200 | 13.07417 | 98° | 49km/h | 1962m | -4.1m/s | 10.4°C | 89.2% | 810.6hPa | 2.7V | 00:39:36 | 03:01:10 | 00:00:00 | |
| OE5DRO-10 | 2026-08-31 06:28:50 | 48.32202 | 13.07398 | 98° | 49km/h | 1966m | -4.1m/s | 10.4°C | 89.4% | 810.3hPa | 2.7V | 00:39:37 | 00:00:00 | 00:00:00 | |
| OE3JTB-15 | 2026-08-31 06:28:50 | 48.32202 | 13.07398 | 98° | 49km/h | 1966m | -4.1m/s | 10.4°C | 89.4% | 810.3hPa | 2.7V | 00:39:37 | 03:01:09 | 00:00:00 | |
| DO3MHA-12 | 2026-08-31 06:28:49 | 48.32203 | 13.07380 | 97° | 49km/h | 1971m | -4.3m/s | 10.4°C | 89.4% | 809.8hPa | 2.7V | 00:39:38 | 03:01:08 | 00:00:00 | |
| OE3JTB-15 | 2026-08-31 06:28:48 | 48.32205 | 13.07362 | 98° | 49km/h | 1975m | -4.1m/s | 10.3°C | 89.5% | 809.2hPa | 2.7V | 00:39:39 | 00:00:00 | 00:00:00 | |
| DO3MHA-11 | 2026-08-31 06:28:47 | 48.32206 | 13.07343 | 98° | 47km/h | 1979m | -3.9m/s | 10.3°C | 89.5% | 808.9hPa | 2.7V | 00:39:40 | 03:01:06 | 00:00:00 | |
| PG1ADW-2 | 2026-08-31 06:28:46 | 48.32208 | 13.07325 | 97° | 47km/h | 1983m | -4.2m/s | 10.3°C | 89.5% | 808.6hPa | 2.7V | 00:39:41 | 03:01:05 | 00:00:00 | |
| OE3JTB-15 | 2026-08-31 06:28:46 | 48.32208 | 13.07325 | 97° | 47km/h | 1983m | -4.2m/s | 10.3°C | 89.5% | 808.6hPa | 2.7V | 00:39:41 | 00:00:00 | 00:00:00 | |
| OE5MMP-10 | 2026-08-31 06:28:45 | 48.32209 | 13.07307 | 97° | 47km/h | 1987m | -4.1m/s | 10.3°C | 89.4% | 808.2hPa | 2.7V | 00:39:42 | 03:01:04 | 00:00:00 | |
| OE3JTB-15 | 2026-08-31 06:28:44 | 48.32210 | 13.07288 | 97° | 47km/h | 1992m | -4.0m/s | 10.2°C | 89.2% | 807.8hPa | 2.7V | 00:39:43 | 03:01:03 | 00:00:00 | |
| DO3MHA-12 | 2026-08-31 06:28:44 | 48.32210 | 13.07288 | 97° | 47km/h | 1992m | -4.0m/s | 10.2°C | 89.2% | 807.8hPa | 2.7V | 00:39:43 | 03:01:03 | 00:00:00 | |
| OE5DRO-10 | 2026-08-31 06:28:43 | 48.32212 | 13.07270 | 96° | 47km/h | 1996m | -4.1m/s | 10.2°C | 89.3% | 807.3hPa | 2.7V | 00:39:44 | 00:00:00 | 00:00:00 | |
| OE3JTB-15 | 2026-08-31 06:28:42 | 48.32213 | 13.07252 | 96° | 47km/h | 2000m | -4.0m/s | 10.2°C | 89.1% | 806.9hPa | 2.7V | 00:39:45 | 00:00:00 | 00:00:00 | |
| DO3MHA-11 | 2026-08-31 06:28:42 | 48.32213 | 13.07252 | 96° | 47km/h | 2000m | -4.0m/s | 10.2°C | 89.1% | 806.9hPa | 2.7V | 00:39:45 | 03:01:01 | 00:00:00 | |
| OE5DXL-15 | 2026-08-31 06:28:40 | 48.32215 | 13.07216 | 96° | 46km/h | 2008m | -4.2m/s | 10.1°C | 89.1% | 806.2hPa | 2.7V | 00:39:47 | 00:00:00 | 00:00:00 | |
| DO3MHA-12 | 2026-08-31 06:28:39 | 48.32217 | 13.07199 | 96° | 47km/h | 2012m | -4.1m/s | 10.1°C | 89.0% | 805.8hPa | 2.7V | 00:39:48 | 03:00:58 | 00:00:00 | |
| OE3JTB-15 | 2026-08-31 06:28:38 | 48.32218 | 13.07181 | 96° | 47km/h | 2016m | -4.0m/s | 10.0°C | 89.0% | 805.3hPa | 2.7V | 00:39:49 | 03:00:57 | 00:00:00 | |
| DO3MHA-11 | 2026-08-31 06:28:37 | 48.32219 | 13.07163 | 96° | 47km/h | 2021m | -4.1m/s | 10.0°C | 88.8% | 805.1hPa | 2.7V | 00:39:50 | 03:00:56 | 00:00:00 | |
| OE3JTB-15 | 2026-08-31 06:28:36 | 48.32220 | 13.07145 | 96° | 47km/h | 2024m | -4.2m/s | 10.0°C | 88.9% | 804.4hPa | 2.7V | 00:39:51 | 00:00:00 | 00:00:00 | |
| OE3JTB-15 | 2026-08-31 06:28:34 | 48.32222 | 13.07110 | 95° | 46km/h | 2033m | -3.9m/s | 9.9°C | 88.1% | 803.7hPa | 2.7V | 00:39:53 | 00:00:00 | 00:00:00 | |
| DO3MHA-11 | 2026-08-31 06:28:32 | 48.32224 | 13.07075 | 95° | 46km/h | 2041m | -4.0m/s | 9.9°C | 87.7% | 803.1hPa | 2.7V | 00:39:55 | 03:00:51 | 00:00:00 | |
| OE5MMP-10 | 2026-08-31 06:28:30 | 48.32225 | 13.07040 | 93° | 46km/h | 2049m | -3.7m/s | 9.8°C | 88.3% | 802.1hPa | 2.7V | 00:39:57 | 03:00:49 | 00:00:00 | |
| DO3MHA-12 | 2026-08-31 06:28:29 | 48.32226 | 13.07023 | 94° | 46km/h | 2053m | -4.0m/s | 9.8°C | 88.6% | 801.7hPa | 2.7V | 00:39:58 | 03:00:48 | 00:00:00 | |
| OE3JTB-15 | 2026-08-31 06:28:25 | 48.32227 | 13.06954 | 91° | 44km/h | 2069m | -3.9m/s | 9.7°C | 89.6% | 800.4hPa | 2.7V | 00:40:02 | 03:00:44 | 00:00:00 | |
| DO3MHA-12 | 2026-08-31 06:28:24 | 48.32227 | 13.06937 | 91° | 44km/h | 2073m | -4.1m/s | 9.6°C | 88.9% | 799.9hPa | 2.7V | 00:40:03 | 03:00:43 | 00:00:00 | |
| DO3MHA-11 | 2026-08-31 06:28:22 | 48.32227 | 13.06903 | 89° | 44km/h | 2081m | -3.8m/s | 9.6°C | 88.6% | 799.2hPa | 2.7V | 00:40:05 | 03:00:41 | 00:00:00 | |
| OE5DXL-15 | 2026-08-31 06:28:20 | 48.32226 | 13.06869 | 89° | 47km/h | 2089m | -4.0m/s | 9.5°C | 89.0% | 798.3hPa | 2.7V | 00:40:07 | 03:00:39 | 00:00:00 | |
| DO3MHA-12 | 2026-08-31 06:28:19 | 48.32226 | 13.06852 | 89° | 46km/h | 2093m | -4.0m/s | 9.5°C | 89.1% | 798.0hPa | 2.7V | 00:40:08 | 03:00:38 | 00:00:00 | |
| DO3MHA-11 | 2026-08-31 06:28:17 | 48.32225 | 13.06818 | 87° | 46km/h | 2101m | -4.0m/s | 9.5°C | 88.9% | 797.1hPa | 2.7V | 00:40:10 | 03:00:36 | 00:00:00 | |
| OE3JTB-15 | 2026-08-31 06:28:16 | 48.32224 | 13.06801 | 87° | 46km/h | 2105m | -4.0m/s | 9.4°C | 89.1% | 796.7hPa | 2.7V | 00:40:11 | 00:00:00 | 00:00:00 | |
| OE5DRO-10 | 2026-08-31 06:28:15 | 48.32223 | 13.06784 | 86° | 46km/h | 2109m | -3.8m/s | 9.4°C | 89.2% | 796.4hPa | 2.7V | 00:40:12 | 00:00:00 | 00:00:00 | |
| DO3MHA-12 | 2026-08-31 06:28:14 | 48.32223 | 13.06767 | 86° | 46km/h | 2113m | -3.8m/s | 9.4°C | 89.6% | 796.2hPa | 2.7V | 00:40:13 | 03:00:33 | 00:00:00 | |
| DO3MHA-11 | 2026-08-31 06:28:12 | 48.32221 | 13.06732 | 85° | 47km/h | 2121m | -4.0m/s | 9.3°C | 89.7% | 795.3hPa | 2.7V | 00:40:15 | 03:00:31 | 00:00:00 | |
| DO3MHA-12 | 2026-08-31 06:28:09 | 48.32217 | 13.06679 | 84° | 47km/h | 2133m | -4.0m/s | 9.2°C | 88.6% | 794.0hPa | 2.7V | 00:40:18 | 03:00:28 | 00:00:00 | |
| OE5DRO-10 | 2026-08-31 06:28:08 | 48.32216 | 13.06661 | 84° | 47km/h | 2137m | -3.8m/s | 9.2°C | 88.7% | 793.9hPa | 2.7V | 00:40:19 | 00:00:00 | 00:00:00 | |
| DO3MHA-11 | 2026-08-31 06:28:07 | 48.32214 | 13.06643 | 84° | 47km/h | 2141m | -3.8m/s | 9.2°C | 88.3% | 793.5hPa | 2.7V | 00:40:20 | 03:00:26 | 00:00:00 | |
| DO3MHA-12 | 2026-08-31 06:28:04 | 48.32210 | 13.06589 | 84° | 49km/h | 2152m | -3.9m/s | 9.1°C | 88.4% | 792.3hPa | 2.7V | 00:40:23 | 03:00:23 | 00:00:00 | |
| DO3MHA-11 | 2026-08-31 06:28:02 | 48.32206 | 13.06552 | 83° | 49km/h | 2160m | -3.8m/s | 9.0°C | 88.5% | 791.4hPa | 2.7V | 00:40:25 | 03:00:21 | 00:00:00 | |
| OE5DRO-10 | 2026-08-31 06:28:01 | 48.32205 | 13.06534 | 83° | 51km/h | 2164m | -3.8m/s | 9.0°C | 88.6% | 791.3hPa | 2.7V | 00:40:26 | 00:00:00 | 00:00:00 | |
| OE5DXL-15 | 2026-08-31 06:28:00 | 48.32203 | 13.06515 | 83° | 55km/h | 2168m | -4.1m/s | 9.0°C | 87.7% | 790.8hPa | 2.7V | 00:40:27 | 00:00:00 | 00:00:00 | |
| DO3MHA-12 | 2026-08-31 06:27:59 | 48.32201 | 13.06496 | 82° | 51km/h | 2172m | -3.9m/s | 9.0°C | 87.2% | 790.3hPa | 2.7V | 00:40:28 | 03:00:18 | 00:00:00 | |
| OE5MMP-10 | 2026-08-31 06:27:58 | 48.32199 | 13.06477 | 83° | 55km/h | 2176m | -3.8m/s | 9.0°C | 87.1% | 790.1hPa | 2.7V | 00:40:29 | 03:00:17 | 00:00:00 | |
| DO3MHA-11 | 2026-08-31 06:27:57 | 48.32198 | 13.06458 | 83° | 53km/h | 2180m | -3.7m/s | 8.9°C | 87.1% | 789.9hPa | 2.7V | 00:40:30 | 03:00:16 | 00:00:00 | |
| DO3MHA-12 | 2026-08-31 06:27:54 | 48.32193 | 13.06398 | 83° | 55km/h | 2192m | -4.2m/s | 8.9°C | 88.1% | 788.6hPa | 2.7V | 00:40:33 | 03:00:13 | 00:00:00 | |
| DO3MHA-11 | 2026-08-31 06:27:52 | 48.32189 | 13.06357 | 84° | 57km/h | 2200m | -3.8m/s | 8.8°C | 88.5% | 787.8hPa | 2.7V | 00:40:35 | 03:00:11 | 00:00:00 | |
| DO3MHA-12 | 2026-08-31 06:27:49 | 48.32185 | 13.06294 | 85° | 57km/h | 2211m | -3.9m/s | 8.7°C | 88.9% | 786.5hPa | 2.7V | 00:40:38 | 03:00:08 | 00:00:00 | |
| OE5MMP-10 | 2026-08-31 06:27:47 | 48.32182 | 13.06251 | 85° | 58km/h | 2220m | -4.3m/s | 8.6°C | 88.8% | 786.1hPa | 2.7V | 00:40:40 | 03:00:06 | 00:00:00 | |
| DO3MHA-12 | 2026-08-31 06:27:44 | 48.32178 | 13.06186 | 86° | 58km/h | 2232m | -3.9m/s | 8.5°C | 88.5% | 784.9hPa | 2.7V | 00:40:43 | 03:00:03 | 00:00:00 | |
| DO3MHA-11 | 2026-08-31 06:27:42 | 48.32176 | 13.06142 | 86° | 58km/h | 2240m | -3.8m/s | 8.5°C | 88.6% | 784.1hPa | 2.7V | 00:40:45 | 03:00:01 | 00:00:00 | |
| OE5DXL-15 | 2026-08-31 06:27:40 | 48.32174 | 13.06099 | 87° | 57km/h | 2248m | -3.8m/s | 8.4°C | 88.5% | 783.4hPa | 2.7V | 00:40:47 | 00:00:00 | 00:00:00 | |
| DO3MHA-12 | 2026-08-31 06:27:39 | 48.32173 | 13.06077 | 87° | 58km/h | 2252m | -3.8m/s | 8.4°C | 88.8% | 782.8hPa | 2.7V | 00:40:48 | 02:59:58 | 00:00:00 | |
| DO3MHA-11 | 2026-08-31 06:27:37 | 48.32172 | 13.06032 | 88° | 58km/h | 2259m | -3.6m/s | 8.3°C | 89.7% | 782.2hPa | 2.7V | 00:40:50 | 02:59:56 | 00:00:00 | |
| DO3MHA-12 | 2026-08-31 06:27:34 | 48.32171 | 13.05966 | 90° | 58km/h | 2270m | -3.7m/s | 8.2°C | 90.1% | 781.2hPa | 2.7V | 00:40:53 | 02:59:53 | 00:00:00 | |
| OE5DRO-10 | 2026-08-31 06:27:33 | 48.32171 | 13.05944 | 91° | 57km/h | 2274m | -3.7m/s | 8.2°C | 90.2% | 780.6hPa | 2.7V | 00:40:54 | 00:00:00 | 00:00:00 | |
| DO3MHA-11 | 2026-08-31 06:27:32 | 48.32171 | 13.05922 | 92° | 57km/h | 2278m | -3.8m/s | 8.2°C | 90.0% | 780.2hPa | 2.7V | 00:40:55 | 02:59:51 | 00:00:00 | |
| OE3JTB-15 | 2026-08-31 06:27:31 | 48.32172 | 13.05900 | 93° | 55km/h | 2281m | -4.0m/s | 8.1°C | 90.0% | 780.0hPa | 2.7V | 00:40:56 | 02:59:50 | 00:00:00 | |
| OE5MMP-10 | 2026-08-31 06:27:30 | 48.32172 | 13.05878 | 94° | 53km/h | 2285m | -3.9m/s | 8.1°C | 89.8% | 779.6hPa | 2.7V | 00:40:57 | 02:59:49 | 00:00:00 | |
| DO3MHA-12 | 2026-08-31 06:27:29 | 48.32173 | 13.05857 | 95° | 55km/h | 2289m | -3.7m/s | 8.1°C | 89.3% | 779.3hPa | 2.7V | 00:40:58 | 02:59:48 | 00:00:00 | |
| DO3MHA-11 | 2026-08-31 06:27:27 | 48.32175 | 13.05815 | 96° | 53km/h | 2297m | -3.7m/s | 8.0°C | 89.8% | 778.5hPa | 2.7V | 00:41:00 | 02:59:46 | 00:00:00 | |
| OE5DRO-10 | 2026-08-31 06:27:26 | 48.32177 | 13.05795 | 96° | 51km/h | 2300m | -3.8m/s | 8.0°C | 89.7% | 778.1hPa | 2.7V | 00:41:01 | 00:00:00 | 00:00:00 | |
| DO3MHA-11 | 2026-08-31 06:27:22 | 48.32183 | 13.05716 | 98° | 49km/h | 2316m | -4.1m/s | 7.8°C | 90.4% | 776.8hPa | 2.7V | 00:41:05 | 02:59:41 | 00:00:00 | |
| OE5DXL-15 | 2026-08-31 06:27:20 | 48.32186 | 13.05677 | 97° | 47km/h | 2324m | -3.9m/s | 7.7°C | 90.8% | 776.0hPa | 2.7V | 00:41:07 | 00:00:00 | 00:00:00 | |
| DO3MHA-12 | 2026-08-31 06:27:19 | 48.32187 | 13.05659 | 96° | 49km/h | 2328m | -3.9m/s | 7.7°C | 91.1% | 775.7hPa | 2.7V | 00:41:08 | 02:59:38 | 00:00:00 | |
| DO3MHA-12 | 2026-08-31 06:27:14 | 48.32193 | 13.05566 | 95° | 47km/h | 2348m | -4.0m/s | 7.6°C | 90.2% | 773.8hPa | 2.7V | 00:41:13 | 02:59:33 | 00:00:00 | |
| OE3JTB-15 | 2026-08-31 06:27:13 | 48.32194 | 13.05547 | 95° | 47km/h | 2352m | -3.9m/s | 7.6°C | 90.7% | 773.4hPa | 2.7V | 00:41:14 | 00:00:00 | 00:00:00 | |
| DO3MHA-11 | 2026-08-31 06:27:12 | 48.32195 | 13.05529 | 94° | 47km/h | 2356m | -4.0m/s | 7.5°C | 90.9% | 773.0hPa | 2.7V | 00:41:15 | 02:59:31 | 00:00:00 | |
| DO3MHA-12 | 2026-08-31 06:27:09 | 48.32197 | 13.05475 | 94° | 47km/h | 2368m | -3.9m/s | 7.5°C | 88.9% | 771.7hPa | 2.7V | 00:41:18 | 02:59:28 | 00:00:00 | |
| DO3MHA-11 | 2026-08-31 06:27:07 | 48.32198 | 13.05440 | 93° | 46km/h | 2375m | -3.9m/s | 7.5°C | 87.8% | 771.1hPa | 2.7V | 00:41:20 | 02:59:26 | 00:00:00 | |
| OE5DRO-10 | 2026-08-31 06:27:05 | 48.32199 | 13.05404 | 92° | 46km/h | 2383m | -3.8m/s | 7.4°C | 88.8% | 770.4hPa | 2.7V | 00:41:22 | 00:00:00 | 00:00:00 | |
| DO3MHA-12 | 2026-08-31 06:27:04 | 48.32199 | 13.05387 | 91° | 46km/h | 2387m | -4.0m/s | 7.3°C | 88.8% | 770.1hPa | 2.7V | 00:41:23 | 02:59:23 | 00:00:00 | |
| DO3MHA-11 | 2026-08-31 06:27:02 | 48.32199 | 13.05352 | 90° | 46km/h | 2395m | -4.0m/s | 7.3°C | 88.5% | 769.3hPa | 2.7V | 00:41:25 | 02:59:21 | 00:00:00 | |
| OE5MMP-10 | 2026-08-31 06:27:01 | 48.32199 | 13.05335 | 90° | 44km/h | 2399m | -3.8m/s | 7.3°C | 88.9% | 768.9hPa | 2.7V | 00:41:26 | 02:59:20 | 00:00:00 | |
| PG1ADW-2 | 2026-08-31 06:27:00 | 48.32199 | 13.05318 | 89° | 44km/h | 2403m | -4.0m/s | 7.2°C | 88.5% | 768.7hPa | 2.7V | 00:41:27 | 00:00:00 | 00:00:00 | |
| DO3MHA-12 | 2026-08-31 06:26:59 | 48.32198 | 13.05301 | 88° | 44km/h | 2407m | -3.9m/s | 7.2°C | 88.3% | 768.2hPa | 2.7V | 00:41:28 | 02:59:18 | 00:00:00 | |
| OE5DRO-10 | 2026-08-31 06:26:58 | 48.32198 | 13.05284 | 87° | 44km/h | 2411m | -3.9m/s | 7.2°C | 88.1% | 767.9hPa | 2.7V | 00:41:29 | 00:00:00 | 00:00:00 | |
| DO3MHA-11 | 2026-08-31 06:26:57 | 48.32197 | 13.05267 | 87° | 44km/h | 2415m | -4.0m/s | 7.2°C | 87.9% | 767.5hPa | 2.7V | 00:41:30 | 02:59:16 | 00:00:00 | |
| OE3JTB-15 | 2026-08-31 06:26:55 | 48.32195 | 13.05234 | 86° | 44km/h | 2423m | -3.9m/s | 7.2°C | 82.1% | 766.8hPa | 2.7V | 00:41:32 | 00:00:00 | 00:00:00 | |
| DO3MHA-11 | 2026-08-31 06:26:52 | 48.32192 | 13.05184 | 85° | 44km/h | 2435m | -4.1m/s | 7.1°C | 80.8% | 765.6hPa | 2.7V | 00:41:35 | 02:59:11 | 00:00:00 | |
| OE5DRO-10 | 2026-08-31 06:26:51 | 48.32191 | 13.05167 | 84° | 44km/h | 2439m | -3.9m/s | 7.1°C | 80.3% | 765.3hPa | 2.7V | 00:41:36 | 00:00:00 | 00:00:00 | |
| OE5MMP-10 | 2026-08-31 06:26:50 | 48.32190 | 13.05151 | 85° | 44km/h | 2443m | -4.1m/s | 7.0°C | 80.2% | 764.9hPa | 2.7V | 00:41:37 | 02:59:09 | 00:00:00 | |
| DO3MHA-11 | 2026-08-31 06:26:47 | 48.32186 | 13.05101 | 83° | 46km/h | 2455m | -4.1m/s | 6.9°C | 80.4% | 763.6hPa | 2.7V | 00:41:40 | 02:59:06 | 00:00:00 | |
| OE3JTB-15 | 2026-08-31 06:26:46 | 48.32185 | 13.05084 | 83° | 46km/h | 2459m | -4.1m/s | 6.9°C | 80.3% | 763.1hPa | 2.7V | 00:41:41 | 00:00:00 | 00:00:00 | |
| OE5DRO-10 | 2026-08-31 06:26:44 | 48.32182 | 13.05051 | 82° | 46km/h | 2467m | -4.1m/s | 6.9°C | 78.4% | 762.5hPa | 2.7V | 00:41:43 | 00:00:00 | 00:00:00 | |
| OE5DXL-15 | 2026-08-31 06:26:40 | 48.32175 | 13.04983 | 80° | 46km/h | 2483m | -4.0m/s | 6.8°C | 77.4% | 761.0hPa | 2.7V | 00:41:47 | 00:00:00 | 00:00:00 | |
| OE5MMP-10 | 2026-08-31 06:26:39 | 48.32173 | 13.04966 | 80° | 46km/h | 2487m | -3.9m/s | 6.8°C | 76.2% | 760.7hPa | 2.7V | 00:41:48 | 02:58:58 | 00:00:00 | |
| OE3JTB-15 | 2026-08-31 06:26:37 | 48.32169 | 13.04931 | 80° | 46km/h | 2495m | -3.9m/s | 6.7°C | 76.0% | 760.3hPa | 2.7V | 00:41:50 | 02:58:56 | 00:00:00 | |
| DO3MHA-11 | 2026-08-31 06:26:34 | 48.32162 | 13.04879 | 79° | 46km/h | 2507m | -3.8m/s | 6.5°C | 79.0% | 758.9hPa | 2.7V | 00:41:53 | 02:58:53 | 00:00:00 | |
| OE5DRO-10 | 2026-08-31 06:26:30 | 48.32152 | 13.04810 | 79° | 46km/h | 2523m | -3.8m/s | 6.3°C | 85.8% | 757.4hPa | 2.7V | 00:41:57 | 00:00:00 | 00:00:00 | |
| DO3MHA-11 | 2026-08-31 06:26:29 | 48.32150 | 13.04793 | 79° | 46km/h | 2527m | -4.0m/s | 6.3°C | 88.0% | 757.1hPa | 2.7V | 00:41:58 | 02:58:48 | 00:00:00 | |
| DO3MHA-12 | 2026-08-31 06:26:28 | 48.32147 | 13.04775 | 78° | 46km/h | 2530m | -3.7m/s | 6.3°C | 88.1% | 756.8hPa | 2.7V | 00:41:59 | 02:58:47 | 00:00:00 | |
| DO3MHA-11 | 2026-08-31 06:26:24 | 48.32137 | 13.04706 | 79° | 47km/h | 2546m | -4.2m/s | 6.4°C | 78.7% | 755.3hPa | 2.7V | 00:42:03 | 02:58:43 | 00:00:00 | |
| DO3MHA-12 | 2026-08-31 06:26:23 | 48.32135 | 13.04689 | 78° | 47km/h | 2551m | -4.0m/s | 6.3°C | 78.6% | 754.9hPa | 2.7V | 00:42:04 | 02:58:42 | 00:00:00 | |
| OE5DXL-15 | 2026-08-31 06:26:20 | 48.32127 | 13.04637 | 78° | 51km/h | 2562m | -3.8m/s | 6.2°C | 78.1% | 753.9hPa | 2.7V | 00:42:07 | 00:00:00 | 00:00:00 | |
| DO3MHA-11 | 2026-08-31 06:26:19 | 48.32125 | 13.04620 | 78° | 47km/h | 2566m | -3.9m/s | 6.2°C | 78.1% | 753.6hPa | 2.7V | 00:42:08 | 02:58:38 | 00:00:00 | |
| DO3MHA-12 | 2026-08-31 06:26:18 | 48.32122 | 13.04603 | 78° | 47km/h | 2570m | -4.1m/s | 6.2°C | 77.8% | 753.1hPa | 2.7V | 00:42:09 | 02:58:37 | 00:00:00 | |
| OE5MMP-10 | 2026-08-31 06:26:17 | 48.32119 | 13.04585 | 77° | 49km/h | 2574m | -4.0m/s | 6.1°C | 77.8% | 752.8hPa | 2.7V | 00:42:10 | 02:58:36 | 00:00:00 | |
| OE5DRO-10 | 2026-08-31 06:26:16 | 48.32117 | 13.04568 | 77° | 51km/h | 2578m | -4.0m/s | 6.1°C | 77.3% | 752.6hPa | 2.7V | 00:42:11 | 00:00:00 | 00:00:00 | |
| DO3MHA-11 | 2026-08-31 06:26:14 | 48.32111 | 13.04532 | 77° | 49km/h | 2586m | -3.7m/s | 6.1°C | 76.6% | 751.4hPa | 2.7V | 00:42:13 | 02:58:33 | 00:00:00 | |
| DO3MHA-12 | 2026-08-31 06:26:13 | 48.32108 | 13.04514 | 77° | 49km/h | 2590m | -3.9m/s | 6.0°C | 76.7% | 751.3hPa | 2.7V | 00:42:14 | 02:58:32 | 00:00:00 | |
| DO3MHA-11 | 2026-08-31 06:26:09 | 48.32096 | 13.04441 | 76° | 51km/h | 2606m | -3.7m/s | 5.9°C | 77.2% | 749.8hPa | 2.7V | 00:42:18 | 02:58:28 | 00:00:00 | |
| DO3MHA-12 | 2026-08-31 06:26:08 | 48.32093 | 13.04423 | 77° | 53km/h | 2610m | -4.1m/s | 5.9°C | 77.9% | 749.5hPa | 2.7V | 00:42:19 | 02:58:27 | 00:00:00 | |
| OE5MMP-10 | 2026-08-31 06:26:07 | 48.32090 | 13.04403 | 76° | 55km/h | 2614m | -3.9m/s | 5.8°C | 78.1% | 749.2hPa | 2.7V | 00:42:20 | 02:58:26 | 00:00:00 | |
| DO3MHA-11 | 2026-08-31 06:26:04 | 48.32080 | 13.04345 | 76° | 55km/h | 2626m | -4.1m/s | 5.7°C | 78.3% | 748.1hPa | 2.7V | 00:42:23 | 02:58:23 | 00:00:00 | |
| DO3MHA-12 | 2026-08-31 06:26:03 | 48.32077 | 13.04325 | 77° | 55km/h | 2630m | -3.9m/s | 5.7°C | 77.9% | 747.6hPa | 2.7V | 00:42:24 | 02:58:22 | 00:00:00 | |
| OE3JTB-15 | 2026-08-31 06:26:01 | 48.32070 | 13.04285 | 77° | 57km/h | 2638m | -4.0m/s | 5.6°C | 78.1% | 747.0hPa | 2.7V | 00:42:26 | 02:58:20 | 00:00:00 | |
| PG1ADW-2 | 2026-08-31 06:26:00 | 48.32067 | 13.04265 | 78° | 57km/h | 2642m | -4.0m/s | 5.6°C | 77.7% | 746.7hPa | 2.7V | 00:42:27 | 00:00:00 | 00:00:00 | |
| DO3MHA-11 | 2026-08-31 06:25:59 | 48.32064 | 13.04244 | 78° | 57km/h | 2646m | -3.9m/s | 5.6°C | 77.8% | 746.3hPa | 2.7V | 00:42:28 | 02:58:18 | 00:00:00 | |
| DO3MHA-12 | 2026-08-31 06:25:58 | 48.32060 | 13.04223 | 78° | 57km/h | 2650m | -4.1m/s | 5.6°C | 77.6% | 745.7hPa | 2.7V | 00:42:29 | 02:58:17 | 00:00:00 | |
| OE5MMP-10 | 2026-08-31 06:25:57 | 48.32058 | 13.04203 | 78° | 58km/h | 2654m | -3.8m/s | 5.5°C | 78.1% | 745.6hPa | 2.7V | 00:42:30 | 02:58:16 | 00:00:00 | |
| DO3MHA-11 | 2026-08-31 06:25:54 | 48.32049 | 13.04138 | 81° | 58km/h | 2666m | -3.8m/s | 5.4°C | 78.8% | 744.5hPa | 2.7V | 00:42:33 | 02:58:13 | 00:00:00 | |
| DO3MHA-12 | 2026-08-31 06:25:53 | 48.32047 | 13.04117 | 82° | 58km/h | 2670m | -3.7m/s | 5.4°C | 79.3% | 744.1hPa | 2.7V | 00:42:34 | 02:58:12 | 00:00:00 | |
| DO3MHA-11 | 2026-08-31 06:25:49 | 48.32039 | 13.04030 | 83° | 58km/h | 2685m | -3.9m/s | 5.2°C | 80.9% | 742.8hPa | 2.7V | 00:42:38 | 02:58:08 | 00:00:00 | |
| DO3MHA-12 | 2026-08-31 06:25:48 | 48.32037 | 13.04008 | 83° | 58km/h | 2689m | -3.9m/s | 5.2°C | 80.7% | 742.4hPa | 2.7V | 00:42:39 | 02:58:07 | 00:00:00 | |
| OE5MMP-10 | 2026-08-31 06:25:47 | 48.32035 | 13.03986 | 83° | 58km/h | 2693m | -3.9m/s | 5.2°C | 78.9% | 742.0hPa | 2.7V | 00:42:40 | 02:58:06 | 00:00:00 | |
| DO3MHA-11 | 2026-08-31 06:25:44 | 48.32030 | 13.03921 | 83° | 57km/h | 2705m | -3.7m/s | 5.2°C | 77.7% | 740.9hPa | 2.7V | 00:42:43 | 02:58:03 | 00:00:00 | |
| DO3MHA-12 | 2026-08-31 06:25:43 | 48.32028 | 13.03899 | 83° | 57km/h | 2709m | -3.8m/s | 5.1°C | 77.6% | 740.6hPa | 2.7V | 00:42:44 | 02:58:02 | 00:00:00 | |
| OE3JTB-15 | 2026-08-31 06:25:42 | 48.32026 | 13.03877 | 83° | 58km/h | 2713m | -3.7m/s | 5.1°C | 77.6% | 740.2hPa | 2.7V | 00:42:45 | 00:00:00 | 00:00:00 | |
| PG1ADW-2 | 2026-08-31 06:25:40 | 48.32022 | 13.03834 | 84° | 58km/h | 2720m | -4.0m/s | 5.1°C | 75.9% | 739.4hPa | 2.7V | 00:42:47 | 00:00:00 | 00:00:00 | |
| DO3MHA-11 | 2026-08-31 06:25:39 | 48.32021 | 13.03812 | 84° | 57km/h | 2725m | -3.8m/s | 5.0°C | 76.4% | 739.2hPa | 2.7V | 00:42:48 | 02:57:58 | 00:00:00 | |
| DO3MHA-12 | 2026-08-31 06:25:38 | 48.32019 | 13.03791 | 84° | 57km/h | 2728m | -3.6m/s | 5.0°C | 74.6% | 738.9hPa | 2.7V | 00:42:49 | 02:57:57 | 00:00:00 | |
| OE5MMP-10 | 2026-08-31 06:25:36 | 48.32016 | 13.03748 | 85° | 58km/h | 2736m | -3.6m/s | 5.0°C | 69.9% | 738.2hPa | 2.7V | 00:42:51 | 02:57:55 | 00:00:00 | |
| DO3MHA-11 | 2026-08-31 06:25:34 | 48.32013 | 13.03704 | 85° | 58km/h | 2744m | -3.9m/s | 5.0°C | 70.8% | 737.3hPa | 2.7V | 00:42:53 | 02:57:53 | 00:00:00 | |
| DO3MHA-12 | 2026-08-31 06:25:33 | 48.32012 | 13.03683 | 85° | 58km/h | 2747m | -3.9m/s | 4.9°C | 71.4% | 737.2hPa | 2.7V | 00:42:54 | 02:57:52 | 00:00:00 | |
| DO3MHA-11 | 2026-08-31 06:25:29 | 48.32006 | 13.03595 | 86° | 58km/h | 2763m | -4.0m/s | 4.8°C | 71.9% | 735.8hPa | 2.7V | 00:42:58 | 02:57:48 | 00:00:00 | |
| DO3MHA-12 | 2026-08-31 06:25:28 | 48.32006 | 13.03573 | 86° | 58km/h | 2767m | -4.0m/s | 4.8°C | 72.3% | 735.4hPa | 2.7V | 00:42:59 | 02:57:47 | 00:00:00 | |
| DO3MHA-11 | 2026-08-31 06:25:24 | 48.32002 | 13.03485 | 87° | 58km/h | 2783m | -3.8m/s | 4.7°C | 74.9% | 733.9hPa | 2.7V | 00:43:03 | 02:57:43 | 00:00:00 | |
| DO3MHA-12 | 2026-08-31 06:25:23 | 48.32001 | 13.03462 | 87° | 58km/h | 2786m | -4.0m/s | 4.6°C | 75.0% | 733.5hPa | 2.7V | 00:43:04 | 02:57:42 | 00:00:00 | |
| OE5MMP-10 | 2026-08-31 06:25:21 | 48.31999 | 13.03419 | 87° | 58km/h | 2795m | -4.3m/s | 4.6°C | 74.1% | 732.8hPa | 2.7V | 00:43:06 | 02:57:40 | 00:00:00 | |
| PG1ADW-2 | 2026-08-31 06:25:20 | 48.31999 | 13.03396 | 87° | 60km/h | 2799m | -4.2m/s | 4.6°C | 73.3% | 732.4hPa | 2.7V | 00:43:07 | 02:57:39 | 00:00:00 | |
| DO3MHA-11 | 2026-08-31 06:25:19 | 48.31998 | 13.03374 | 87° | 58km/h | 2803m | -4.0m/s | 4.6°C | 72.7% | 732.0hPa | 2.7V | 00:43:08 | 02:57:38 | 00:00:00 | |
| DO3MHA-11 | 2026-08-31 06:25:14 | 48.31992 | 13.03263 | 86° | 60km/h | 2823m | -3.9m/s | 4.6°C | 71.3% | 730.2hPa | 2.7V | 00:43:13 | 02:57:33 | 00:00:00 | |
| OE5DRO-10 | 2026-08-31 06:25:12 | 48.31990 | 13.03218 | 85° | 62km/h | 2831m | -4.0m/s | 4.6°C | 71.0% | 729.6hPa | 2.7V | 00:43:15 | 00:00:00 | 00:00:00 | |
| OE5MMP-10 | 2026-08-31 06:25:10 | 48.31987 | 13.03173 | 85° | 62km/h | 2839m | -3.7m/s | 4.6°C | 67.6% | 728.9hPa | 2.7V | 00:43:17 | 02:57:29 | 00:00:00 | |
| DO3MHA-11 | 2026-08-31 06:25:08 | 48.31984 | 13.03127 | 86° | 62km/h | 2847m | -4.0m/s | 4.9°C | 62.0% | 728.0hPa | 2.7V | 00:43:19 | 02:57:27 | 00:00:00 | |
| DO3MHA-12 | 2026-08-31 06:25:05 | 48.31982 | 13.03058 | 87° | 62km/h | 2859m | -3.8m/s | 5.1°C | 51.0% | 727.0hPa | 2.7V | 00:43:22 | 02:57:24 | 00:00:00 | |
| OE3JTB-15 | 2026-08-31 06:25:04 | 48.31981 | 13.03034 | 87° | 64km/h | 2863m | -3.9m/s | 5.2°C | 47.1% | 726.7hPa | 2.7V | 00:43:23 | 02:57:23 | 00:00:00 | |
| DO3MHA-11 | 2026-08-31 06:25:03 | 48.31980 | 13.03010 | 87° | 64km/h | 2867m | -3.7m/s | 5.2°C | 46.7% | 726.3hPa | 2.7V | 00:43:24 | 02:57:22 | 00:00:00 | |
| DO3MHA-12 | 2026-08-31 06:25:00 | 48.31977 | 13.02938 | 87° | 64km/h | 2879m | -4.3m/s | 5.1°C | 45.2% | 725.3hPa | 2.7V | 00:43:27 | 02:57:19 | 00:00:00 | |
| OE5DXL-15 | 2026-08-31 06:24:59 | 48.31975 | 13.02914 | 87° | 66km/h | 2883m | -4.1m/s | 5.1°C | 44.7% | 724.9hPa | 2.7V | 00:43:28 | 00:00:00 | 00:00:00 | |
| DO3MHA-11 | 2026-08-31 06:24:58 | 48.31975 | 13.02890 | 87° | 64km/h | 2888m | -4.2m/s | 5.1°C | 44.4% | 724.5hPa | 2.7V | 00:43:29 | 02:57:17 | 00:00:00 | |
| OE5DRO-10 | 2026-08-31 06:24:56 | 48.31973 | 13.02841 | 87° | 66km/h | 2896m | -4.2m/s | 5.0°C | 44.7% | 723.8hPa | 2.7V | 00:43:31 | 00:00:00 | 00:00:00 | |
| DO3MHA-12 | 2026-08-31 06:24:55 | 48.31972 | 13.02817 | 88° | 64km/h | 2900m | -4.0m/s | 5.0°C | 44.5% | 723.5hPa | 2.7V | 00:43:32 | 02:57:14 | 00:00:00 | |
| DO3MHA-11 | 2026-08-31 06:24:53 | 48.31970 | 13.02768 | 88° | 66km/h | 2908m | -4.1m/s | 4.9°C | 44.6% | 722.7hPa | 2.7V | 00:43:34 | 02:57:12 | 00:00:00 | |
| DO3MHA-12 | 2026-08-31 06:24:50 | 48.31968 | 13.02694 | 88° | 66km/h | 2920m | -3.7m/s | 4.8°C | 44.1% | 721.5hPa | 2.7V | 00:43:37 | 02:57:09 | 00:00:00 | |
| OE5MMP-10 | 2026-08-31 06:24:49 | 48.31968 | 13.02669 | 88° | 66km/h | 2924m | -3.7m/s | 4.8°C | 44.8% | 721.3hPa | 2.7V | 00:43:38 | 02:57:08 | 00:00:00 | |
| DO3MHA-11 | 2026-08-31 06:24:48 | 48.31967 | 13.02645 | 88° | 66km/h | 2928m | -4.0m/s | 4.7°C | 44.2% | 721.0hPa | 2.7V | 00:43:39 | 02:57:07 | 00:00:00 | |
| DO3MHA-12 | 2026-08-31 06:24:45 | 48.31964 | 13.02570 | 86° | 66km/h | 2940m | -4.2m/s | 4.6°C | 44.0% | 719.9hPa | 2.7V | 00:43:42 | 02:57:04 | 00:00:00 | |
| DO3MHA-11 | 2026-08-31 06:24:43 | 48.31960 | 13.02520 | 84° | 68km/h | 2949m | -4.3m/s | 4.7°C | 40.1% | 719.0hPa | 2.7V | 00:43:44 | 02:57:02 | 00:00:00 | |
| DO3MHA-12 | 2026-08-31 06:24:40 | 48.31955 | 13.02445 | 85° | 68km/h | 2961m | -4.1m/s | 4.5°C | 42.5% | 718.0hPa | 2.7V | 00:43:47 | 02:56:59 | 00:00:00 | |
| OE5MMP-10 | 2026-08-31 06:24:39 | 48.31953 | 13.02419 | 85° | 68km/h | 2965m | -3.9m/s | 4.5°C | 41.5% | 717.5hPa | 2.7V | 00:43:48 | 02:56:58 | 00:00:00 | |
| DO3MHA-11 | 2026-08-31 06:24:38 | 48.31952 | 13.02394 | 85° | 68km/h | 2969m | -3.8m/s | 4.4°C | 41.9% | 717.2hPa | 2.7V | 00:43:49 | 02:56:57 | 00:00:00 | |
| DO3MHA-12 | 2026-08-31 06:24:35 | 48.31947 | 13.02317 | 84° | 69km/h | 2981m | -3.8m/s | 4.4°C | 40.8% | 716.2hPa | 2.7V | 00:43:52 | 02:56:54 | 00:00:00 | |
| DO3MHA-11 | 2026-08-31 06:24:33 | 48.31943 | 13.02266 | 85° | 69km/h | 2988m | -3.4m/s | 4.4°C | 40.6% | 715.6hPa | 2.7V | 00:43:54 | 02:56:52 | 00:00:00 | |
| DO3MHA-12 | 2026-08-31 06:24:30 | 48.31939 | 13.02187 | 86° | 71km/h | 2999m | -3.8m/s | 4.2°C | 41.3% | 714.5hPa | 2.7V | 00:43:57 | 02:56:49 | 00:00:00 | |
| OE5MMP-10 | 2026-08-31 06:24:29 | 48.31937 | 13.02160 | 86° | 71km/h | 3003m | -4.0m/s | 4.2°C | 41.6% | 714.2hPa | 2.7V | 00:43:58 | 02:56:48 | 00:00:00 | |
| DO3MHA-11 | 2026-08-31 06:24:28 | 48.31936 | 13.02134 | 86° | 71km/h | 3007m | -3.9m/s | 4.2°C | 41.4% | 713.9hPa | 2.7V | 00:43:59 | 02:56:47 | 00:00:00 | |
| OE3JTB-15 | 2026-08-31 06:24:26 | 48.31934 | 13.02080 | 87° | 75km/h | 3015m | -3.7m/s | 4.2°C | 40.0% | 713.1hPa | 2.7V | 00:44:01 | 00:00:00 | 00:00:00 | |
| DO3MHA-12 | 2026-08-31 06:24:25 | 48.31932 | 13.02053 | 87° | 73km/h | 3019m | -4.0m/s | 4.2°C | 39.8% | 712.7hPa | 2.7V | 00:44:02 | 02:56:44 | 00:00:00 | |
| OE5DRO-10 | 2026-08-31 06:24:24 | 48.31931 | 13.02025 | 87° | 75km/h | 3023m | -3.7m/s | 4.1°C | 39.9% | 712.6hPa | 2.7V | 00:44:03 | 00:00:00 | 00:00:00 | |
| DO3MHA-11 | 2026-08-31 06:24:23 | 48.31930 | 13.01998 | 87° | 73km/h | 3027m | -3.8m/s | 4.1°C | 39.9% | 712.2hPa | 2.7V | 00:44:04 | 02:56:42 | 00:00:00 | |
| DO3MHA-12 | 2026-08-31 06:24:20 | 48.31926 | 13.01916 | 87° | 73km/h | 3037m | -3.9m/s | 4.1°C | 39.0% | 711.3hPa | 2.7V | 00:44:07 | 02:56:39 | 00:00:00 | |
| DO3MHA-11 | 2026-08-31 06:24:18 | 48.31924 | 13.01860 | 88° | 75km/h | 3046m | -4.0m/s | 4.0°C | 39.3% | 710.7hPa | 2.7V | 00:44:09 | 02:56:37 | 00:00:00 | |
| DO3MHA-12 | 2026-08-31 06:24:15 | 48.31922 | 13.01776 | 88° | 75km/h | 3057m | -3.6m/s | 3.8°C | 40.6% | 709.5hPa | 2.7V | 00:44:12 | 02:56:34 | 00:00:00 | |
| DO3MHA-11 | 2026-08-31 06:24:13 | 48.31921 | 13.01719 | 88° | 77km/h | 3065m | -3.5m/s | 3.7°C | 41.0% | 708.8hPa | 2.7V | 00:44:14 | 02:56:32 | 00:00:00 | |
| DO3MHA-12 | 2026-08-31 06:24:10 | 48.31919 | 13.01632 | 89° | 77km/h | 3076m | -3.8m/s | 3.7°C | 39.8% | 707.8hPa | 2.7V | 00:44:17 | 02:56:29 | 00:00:00 | |
| OE5MMP-10 | 2026-08-31 06:24:09 | 48.31918 | 13.01603 | 89° | 78km/h | 3079m | -3.8m/s | 3.7°C | 40.0% | 707.6hPa | 2.7V | 00:44:18 | 02:56:28 | 00:00:00 | |
| DO3MHA-11 | 2026-08-31 06:24:08 | 48.31918 | 13.01574 | 89° | 78km/h | 3083m | -4.0m/s | 3.6°C | 39.9% | 707.2hPa | 2.7V | 00:44:19 | 02:56:27 | 00:00:00 | |
| OE3JTB-15 | 2026-08-31 06:24:07 | 48.31917 | 13.01545 | 89° | 80km/h | 3088m | -4.1m/s | 3.6°C | 40.5% | 706.8hPa | 2.7V | 00:44:20 | 02:56:26 | 00:00:00 | |
| DO3MHA-12 | 2026-08-31 06:24:05 | 48.31916 | 13.01485 | 89° | 78km/h | 3096m | -4.0m/s | 3.6°C | 40.2% | 706.2hPa | 2.7V | 00:44:22 | 02:56:24 | 00:00:00 | |
| DO3MHA-11 | 2026-08-31 06:24:03 | 48.31915 | 13.01425 | 89° | 80km/h | 3104m | -4.4m/s | 3.5°C | 40.2% | 705.4hPa | 2.7V | 00:44:24 | 02:56:22 | 00:00:00 | |
| DO3MHA-12 | 2026-08-31 06:24:00 | 48.31913 | 13.01335 | 89° | 80km/h | 3117m | -4.3m/s | 3.5°C | 39.7% | 704.2hPa | 2.7V | 00:44:27 | 02:56:19 | 00:00:00 | |
| OE5MMP-10 | 2026-08-31 06:23:59 | 48.31912 | 13.01304 | 89° | 82km/h | 3121m | -4.1m/s | 3.4°C | 39.8% | 703.9hPa | 2.7V | 00:44:28 | 02:56:18 | 00:00:00 | |
| DO3MHA-11 | 2026-08-31 06:23:58 | 48.31912 | 13.01273 | 89° | 82km/h | 3125m | -3.9m/s | 3.4°C | 39.9% | 703.6hPa | 2.7V | 00:44:29 | 02:56:17 | 00:00:00 | |
| OE5WHR-10 | 2026-08-31 06:23:56 | 48.31911 | 13.01212 | 88° | 86km/h | 3133m | -3.8m/s | 3.2°C | 40.4% | 702.8hPa | 2.7V | 00:44:31 | 02:56:15 | 00:00:00 | |
| DO3MHA-12 | 2026-08-31 06:23:55 | 48.31910 | 13.01180 | 89° | 84km/h | 3137m | -3.7m/s | 3.2°C | 40.7% | 702.6hPa | 2.7V | 00:44:32 | 02:56:14 | 00:00:00 | |
| DO3MHA-11 | 2026-08-31 06:23:53 | 48.31909 | 13.01117 | 89° | 84km/h | 3145m | -3.8m/s | 3.2°C | 40.3% | 701.8hPa | 2.7V | 00:44:34 | 02:56:12 | 00:00:00 | |
| OE5DRO-10 | 2026-08-31 06:23:52 | 48.31908 | 13.01086 | 88° | 88km/h | 3149m | -3.9m/s | 3.2°C | 40.3% | 701.6hPa | 2.7V | 00:44:35 | 00:00:00 | 00:00:00 | |
| DO3MHA-12 | 2026-08-31 06:23:50 | 48.31906 | 13.01022 | 87° | 86km/h | 3157m | -4.1m/s | 3.0°C | 41.1% | 700.9hPa | 2.7V | 00:44:37 | 02:56:09 | 00:00:00 | |
| OE5MMP-10 | 2026-08-31 06:23:49 | 48.31905 | 13.00990 | 87° | 88km/h | 3160m | -3.7m/s | 3.0°C | 41.0% | 700.4hPa | 2.7V | 00:44:38 | 02:56:08 | 00:00:00 | |
| DO3MHA-11 | 2026-08-31 06:23:48 | 48.31904 | 13.00958 | 88° | 88km/h | 3164m | -3.9m/s | 3.0°C | 40.9% | 700.1hPa | 2.7V | 00:44:39 | 02:56:07 | 00:00:00 | |
| DO3MHA-12 | 2026-08-31 06:23:45 | 48.31901 | 13.00858 | 87° | 88km/h | 3176m | -3.6m/s | 2.9°C | 40.4% | 699.2hPa | 2.6V | 00:44:42 | 02:56:04 | 00:00:00 | |
| DO3MHA-11 | 2026-08-31 06:23:43 | 48.31898 | 13.00791 | 88° | 88km/h | 3183m | -3.5m/s | 2.9°C | 40.7% | 698.5hPa | 2.6V | 00:44:44 | 02:56:02 | 00:00:00 | |
| DO3MHA-12 | 2026-08-31 06:23:40 | 48.31896 | 13.00691 | 88° | 89km/h | 3193m | -3.3m/s | 2.9°C | 40.2% | 697.6hPa | 2.6V | 00:44:47 | 02:55:59 | 00:00:00 | |
| OE5MMP-10 | 2026-08-31 06:23:39 | 48.31895 | 13.00657 | 89° | 91km/h | 3196m | -3.2m/s | 3.0°C | 39.2% | 697.3hPa | 2.6V | 00:44:48 | 02:55:58 | 00:00:00 | |
| DO3MHA-11 | 2026-08-31 06:23:38 | 48.31894 | 13.00623 | 89° | 91km/h | 3200m | -3.5m/s | 3.0°C | 38.9% | 697.1hPa | 2.6V | 00:44:49 | 02:55:57 | 00:00:00 | |
| DO3MHA-12 | 2026-08-31 06:23:35 | 48.31893 | 13.00520 | 90° | 91km/h | 3210m | -3.3m/s | 3.1°C | 38.2% | 696.1hPa | 2.6V | 00:44:52 | 02:55:54 | 00:00:00 | |
| DO3MHA-11 | 2026-08-31 06:23:33 | 48.31893 | 13.00451 | 91° | 89km/h | 3217m | -3.4m/s | 3.1°C | 37.1% | 695.5hPa | 2.7V | 00:44:54 | 02:55:52 | 00:00:00 | |
| DO3MHA-12 | 2026-08-31 06:23:30 | 48.31895 | 13.00348 | 93° | 88km/h | 3227m | -3.1m/s | 3.1°C | 35.2% | 694.9hPa | 2.7V | 00:44:57 | 02:55:49 | 00:00:00 | |
| OE5MMP-10 | 2026-08-31 06:23:29 | 48.31897 | 13.00314 | 94° | 84km/h | 3230m | -3.2m/s | 3.1°C | 34.0% | 694.5hPa | 2.7V | 00:44:58 | 02:55:48 | 00:00:00 | |
| DO3MHA-11 | 2026-08-31 06:23:28 | 48.31898 | 13.00281 | 94° | 86km/h | 3233m | -3.3m/s | 3.1°C | 32.7% | 694.2hPa | 2.7V | 00:44:59 | 02:55:47 | 00:00:00 | |
| DO3MHA-12 | 2026-08-31 06:23:25 | 48.31903 | 13.00183 | 94° | 84km/h | 3243m | -3.3m/s | 3.0°C | 39.4% | 693.5hPa | 2.7V | 00:45:02 | 02:55:44 | 00:00:00 | |
| DO3MHA-11 | 2026-08-31 06:23:23 | 48.31905 | 13.00119 | 94° | 82km/h | 3250m | -3.3m/s | 2.9°C | 44.1% | 692.8hPa | 2.7V | 00:45:04 | 02:55:42 | 00:00:00 | |
| DO3MHA-12 | 2026-08-31 06:23:20 | 48.31909 | 13.00025 | 93° | 80km/h | 3260m | -3.3m/s | 2.8°C | 45.1% | 691.9hPa | 2.7V | 00:45:07 | 02:55:39 | 00:00:00 | |
| OE5MMP-10 | 2026-08-31 06:23:19 | 48.31910 | 12.99994 | 93° | 80km/h | 3264m | -3.3m/s | 2.8°C | 46.2% | 691.5hPa | 2.7V | 00:45:08 | 02:55:38 | 00:00:00 | |
| DO3MHA-11 | 2026-08-31 06:23:18 | 48.31910 | 12.99964 | 93° | 80km/h | 3267m | -3.3m/s | 2.7°C | 46.8% | 691.3hPa | 2.7V | 00:45:09 | 02:55:37 | 00:00:00 | |
| DO3MHA-12 | 2026-08-31 06:23:15 | 48.31912 | 12.99873 | 91° | 78km/h | 3278m | -3.4m/s | 2.6°C | 52.5% | 690.5hPa | 2.7V | 00:45:12 | 02:55:34 | 00:00:00 | |
| DO3MHA-11 | 2026-08-31 06:23:13 | 48.31912 | 12.99813 | 90° | 78km/h | 3285m | -3.4m/s | 2.5°C | 55.6% | 689.9hPa | 2.7V | 00:45:14 | 02:55:32 | 00:00:00 | |
| DO3MHA-12 | 2026-08-31 06:23:10 | 48.31910 | 12.99724 | 88° | 78km/h | 3295m | -3.5m/s | 2.4°C | 57.9% | 689.0hPa | 2.7V | 00:45:17 | 02:55:29 | 00:00:00 | |
| DO3MHA-11 | 2026-08-31 06:23:08 | 48.31908 | 12.99664 | 87° | 80km/h | 3302m | -3.4m/s | 2.3°C | 60.3% | 688.5hPa | 2.7V | 00:45:19 | 02:55:27 | 00:00:00 | |
| DO3MHA-12 | 2026-08-31 06:23:05 | 48.31903 | 12.99574 | 85° | 82km/h | 3312m | -3.6m/s | 2.3°C | 58.0% | 687.5hPa | 2.7V | 00:45:22 | 02:55:24 | 00:00:00 | |
| OE5DRO-10 | 2026-08-31 06:23:04 | 48.31901 | 12.99544 | 84° | 88km/h | 3316m | -3.3m/s | 2.2°C | 57.4% | 687.0hPa | 2.7V | 00:45:23 | 00:00:00 | 00:00:00 | |
| DO3MHA-11 | 2026-08-31 06:23:03 | 48.31898 | 12.99513 | 84° | 84km/h | 3319m | -3.4m/s | 2.2°C | 59.5% | 687.0hPa | 2.7V | 00:45:24 | 02:55:22 | 00:00:00 | |
| OE5WHR-10 | 2026-08-31 06:23:02 | 48.31896 | 12.99482 | 84° | 82km/h | 3323m | -3.5m/s | 2.2°C | 59.7% | 686.8hPa | 2.7V | 00:45:25 | 02:55:21 | 00:00:00 | |
| DO3MHA-12 | 2026-08-31 06:23:00 | 48.31891 | 12.99419 | 83° | 88km/h | 3330m | -3.5m/s | 2.1°C | 59.6% | 685.9hPa | 2.7V | 00:45:27 | 02:55:19 | 00:00:00 | |
| OE5DXL-15 | 2026-08-31 06:22:59 | 48.31888 | 12.99386 | 83° | 91km/h | 3333m | -3.4m/s | 2.1°C | 58.8% | 685.7hPa | 2.7V | 00:45:28 | 00:00:00 | 00:00:00 | |
| DO3MHA-11 | 2026-08-31 06:22:58 | 48.31886 | 12.99354 | 83° | 89km/h | 3337m | -3.4m/s | 2.1°C | 56.7% | 685.6hPa | 2.7V | 00:45:29 | 02:55:17 | 00:00:00 | |
| DO3MHA-12 | 2026-08-31 06:22:55 | 48.31878 | 12.99253 | 84° | 91km/h | 3347m | -3.3m/s | 2.1°C | 52.8% | 684.5hPa | 2.7V | 00:45:32 | 02:55:14 | 00:00:00 | |
| DO3MHA-11 | 2026-08-31 06:22:53 | 48.31873 | 12.99184 | 85° | 91km/h | 3354m | -3.6m/s | 2.1°C | 52.1% | 683.9hPa | 2.7V | 00:45:34 | 02:55:12 | 00:00:00 | |
| OE3JTB-15 | 2026-08-31 06:22:51 | 48.31869 | 12.99115 | 85° | 93km/h | 3362m | -3.7m/s | 2.0°C | 55.0% | 683.4hPa | 2.7V | 00:45:36 | 00:00:00 | 00:00:00 | |
| DO3MHA-12 | 2026-08-31 06:22:50 | 48.31867 | 12.99080 | 85° | 93km/h | 3366m | -3.4m/s | 2.0°C | 55.4% | 683.0hPa | 2.6V | 00:45:37 | 02:55:09 | 00:00:00 | |
| DO3MHA-11 | 2026-08-31 06:22:48 | 48.31863 | 12.99010 | 86° | 93km/h | 3372m | -3.6m/s | 1.9°C | 63.3% | 682.4hPa | 2.7V | 00:45:39 | 02:55:07 | 00:00:00 | |
| DO3MHA-12 | 2026-08-31 06:22:45 | 48.31858 | 12.98903 | 88° | 93km/h | 3384m | -3.5m/s | 1.9°C | 65.3% | 681.5hPa | 2.7V | 00:45:42 | 02:55:04 | 00:00:00 | |
| DO3MHA-11 | 2026-08-31 06:22:43 | 48.31856 | 12.98832 | 88° | 93km/h | 3391m | -3.5m/s | 1.9°C | 63.5% | 680.9hPa | 2.7V | 00:45:44 | 02:55:02 | 00:00:00 | |
| DO3MHA-12 | 2026-08-31 06:22:40 | 48.31855 | 12.98726 | 90° | 93km/h | 3402m | -3.5m/s | 1.9°C | 56.1% | 679.9hPa | 2.7V | 00:45:47 | 02:54:59 | 00:00:00 | |
| DO3MHA-11 | 2026-08-31 06:22:38 | 48.31855 | 12.98655 | 91° | 91km/h | 3409m | -3.5m/s | 2.0°C | 52.6% | 679.3hPa | 2.7V | 00:45:49 | 02:54:57 | 00:00:00 | |
| DO3MHA-12 | 2026-08-31 06:22:35 | 48.31856 | 12.98551 | 92° | 89km/h | 3420m | -3.5m/s | 2.0°C | 36.9% | 678.3hPa | 2.7V | 00:45:52 | 02:54:54 | 00:00:00 | |
| DO3MHA-11 | 2026-08-31 06:22:33 | 48.31857 | 12.98482 | 93° | 89km/h | 3427m | -3.7m/s | 2.0°C | 40.3% | 677.8hPa | 2.7V | 00:45:54 | 02:54:52 | 00:00:00 | |
| OE3JTB-15 | 2026-08-31 06:22:32 | 48.31858 | 12.98449 | 93° | 82km/h | 3430m | -3.4m/s | 2.0°C | 43.6% | 677.6hPa | 2.7V | 00:45:55 | 00:00:00 | 00:00:00 | |
| DO3MHA-12 | 2026-08-31 06:22:30 | 48.31860 | 12.98381 | 93° | 88km/h | 3437m | -3.5m/s | 2.0°C | 45.1% | 676.8hPa | 2.7V | 00:45:57 | 02:54:49 | 00:00:00 | |
| OE5DXL-15 | 2026-08-31 06:22:29 | 48.31861 | 12.98348 | 93° | 80km/h | 3441m | -3.6m/s | 2.0°C | 40.1% | 676.7hPa | 2.7V | 00:45:58 | 00:00:00 | 00:00:00 | |
| DO3MHA-11 | 2026-08-31 06:22:28 | 48.31862 | 12.98314 | 94° | 86km/h | 3445m | -3.7m/s | 2.0°C | 35.0% | 676.3hPa | 2.7V | 00:45:59 | 02:54:47 | 00:00:00 | |
| DO3MHA-12 | 2026-08-31 06:22:25 | 48.31866 | 12.98217 | 93° | 82km/h | 3455m | -3.8m/s | 2.0°C | 35.4% | 675.4hPa | 2.7V | 00:46:02 | 02:54:44 | 00:00:00 | |
| DO3MHA-11 | 2026-08-31 06:22:23 | 48.31868 | 12.98154 | 93° | 80km/h | 3463m | -3.7m/s | 2.0°C | 35.5% | 674.8hPa | 2.7V | 00:46:04 | 02:54:42 | 00:00:00 | |
| DO3MHA-12 | 2026-08-31 06:22:20 | 48.31869 | 12.98062 | 91° | 78km/h | 3474m | -3.8m/s | 2.0°C | 32.9% | 673.8hPa | 2.7V | 00:46:07 | 02:54:39 | 00:00:00 | |
| DO3MHA-11 | 2026-08-31 06:22:18 | 48.31870 | 12.98001 | 90° | 78km/h | 3481m | -3.6m/s | 2.1°C | 26.8% | 673.3hPa | 2.6V | 00:46:09 | 02:54:37 | 00:00:00 | |
| OE5DRO-10 | 2026-08-31 06:22:16 | 48.31869 | 12.97942 | 89° | 78km/h | 3489m | -3.7m/s | 2.0°C | 29.8% | 672.5hPa | 2.6V | 00:46:11 | 00:00:00 | 00:00:00 | |
| DO3MHA-12 | 2026-08-31 06:22:15 | 48.31868 | 12.97913 | 88° | 78km/h | 3493m | -3.6m/s | 2.0°C | 30.8% | 672.3hPa | 2.6V | 00:46:12 | 02:54:34 | 00:00:00 | |
| DO3MHA-11 | 2026-08-31 06:22:13 | 48.31866 | 12.97854 | 87° | 78km/h | 3500m | -3.8m/s | 2.0°C | 32.0% | 671.6hPa | 2.6V | 00:46:14 | 02:54:32 | 00:00:00 | |
| OE5WHR-10 | 2026-08-31 06:22:11 | 48.31864 | 12.97795 | 86° | 80km/h | 3508m | -3.6m/s | 1.9°C | 32.8% | 671.1hPa | 2.6V | 00:46:16 | 00:00:00 | 00:00:00 | |
| DO3MHA-12 | 2026-08-31 06:22:10 | 48.31862 | 12.97765 | 85° | 78km/h | 3511m | -3.7m/s | 1.9°C | 33.3% | 670.6hPa | 2.6V | 00:46:17 | 02:54:29 | 00:00:00 | |
| DO3MHA-11 | 2026-08-31 06:22:08 | 48.31858 | 12.97705 | 85° | 80km/h | 3519m | -3.9m/s | 1.8°C | 34.4% | 670.1hPa | 2.6V | 00:46:19 | 02:54:27 | 00:00:00 | |
| DO3MHA-12 | 2026-08-31 06:22:05 | 48.31851 | 12.97615 | 83° | 80km/h | 3531m | -4.0m/s | 1.7°C | 36.4% | 669.2hPa | 2.6V | 00:46:22 | 02:54:24 | 00:00:00 | |
| DO3MHA-11 | 2026-08-31 06:22:03 | 48.31846 | 12.97555 | 83° | 80km/h | 3539m | -4.1m/s | 1.6°C | 36.9% | 668.5hPa | 2.7V | 00:46:24 | 02:54:22 | 00:00:00 | |
| DO3MHA-12 | 2026-08-31 06:22:00 | 48.31837 | 12.97465 | 82° | 80km/h | 3552m | -4.3m/s | 1.5°C | 39.7% | 667.4hPa | 2.7V | 00:46:27 | 02:54:19 | 00:00:00 | |
| OE5DXL-15 | 2026-08-31 06:21:59 | 48.31834 | 12.97434 | 82° | 88km/h | 3556m | -4.3m/s | 1.5°C | 40.0% | 667.1hPa | 2.7V | 00:46:28 | 00:00:00 | 00:00:00 | |
| DO3MHA-11 | 2026-08-31 06:21:58 | 48.31831 | 12.97404 | 81° | 82km/h | 3560m | -4.1m/s | 1.5°C | 39.4% | 666.7hPa | 2.7V | 00:46:29 | 02:54:17 | 00:00:00 | |
| DO3MHA-12 | 2026-08-31 06:21:55 | 48.31821 | 12.97313 | 81° | 84km/h | 3573m | -4.0m/s | 1.5°C | 34.4% | 665.5hPa | 2.7V | 00:46:32 | 02:54:14 | 00:00:00 | |
| OE5WHR-10 | 2026-08-31 06:21:54 | 48.31817 | 12.97282 | 80° | 88km/h | 3577m | -4.0m/s | 1.5°C | 33.8% | 665.2hPa | 2.7V | 00:46:33 | 00:00:00 | 00:00:00 | |
| DO3MHA-11 | 2026-08-31 06:21:53 | 48.31814 | 12.97251 | 80° | 84km/h | 3581m | -4.0m/s | 1.5°C | 33.9% | 664.9hPa | 2.7V | 00:46:34 | 02:54:12 | 00:00:00 | |
| DO3MHA-12 | 2026-08-31 06:21:50 | 48.31802 | 12.97157 | 80° | 88km/h | 3593m | -3.8m/s | 1.6°C | 31.1% | 663.9hPa | 2.7V | 00:46:37 | 02:54:09 | 00:00:00 | |
| OE5MMP-10 | 2026-08-31 06:21:48 | 48.31793 | 12.97093 | 79° | 89km/h | 3601m | -4.1m/s | 1.8°C | 28.1% | 663.3hPa | 2.7V | 00:46:39 | 02:54:07 | 00:00:00 | |
| DO3MHA-12 | 2026-08-31 06:21:45 | 48.31780 | 12.96994 | 79° | 91km/h | 3613m | -4.2m/s | 1.8°C | 28.7% | 662.3hPa | 2.7V | 00:46:42 | 02:54:04 | 00:00:00 | |
| OE5DRO-10 | 2026-08-31 06:21:44 | 48.31776 | 12.96960 | 79° | 89km/h | 3618m | -4.1m/s | 1.7°C | 29.2% | 662.1hPa | 2.7V | 00:46:43 | 00:00:00 | 00:00:00 | |
| DO3MHA-11 | 2026-08-31 06:21:43 | 48.31771 | 12.96927 | 80° | 91km/h | 3622m | -3.9m/s | 1.7°C | 29.8% | 661.8hPa | 2.7V | 00:46:44 | 02:54:02 | 00:00:00 | |
| DO3MHA-12 | 2026-08-31 06:21:40 | 48.31760 | 12.96823 | 82° | 91km/h | 3634m | -3.6m/s | 1.7°C | 31.4% | 660.7hPa | 2.7V | 00:46:47 | 02:53:59 | 00:00:00 | |
| DO3MHA-11 | 2026-08-31 06:21:38 | 48.31754 | 12.96754 | 84° | 89km/h | 3641m | -3.8m/s | 1.6°C | 32.6% | 660.1hPa | 2.7V | 00:46:49 | 02:53:57 | 00:00:00 | |
| OE5WHR-10 | 2026-08-31 06:21:37 | 48.31751 | 12.96720 | 84° | 84km/h | 3645m | -3.9m/s | 1.6°C | 34.2% | 659.9hPa | 2.7V | 00:46:50 | 02:53:56 | 00:00:00 | |
| DO3MHA-12 | 2026-08-31 06:21:35 | 48.31747 | 12.96652 | 86° | 88km/h | 3653m | -3.8m/s | 1.5°C | 37.2% | 659.1hPa | 2.7V | 00:46:52 | 02:53:54 | 00:00:00 | |
| DO3MHA-11 | 2026-08-31 06:21:33 | 48.31743 | 12.96585 | 86° | 86km/h | 3661m | -3.8m/s | 1.4°C | 39.1% | 658.5hPa | 2.7V | 00:46:54 | 02:53:52 | 00:00:00 | |
| DO3MHA-12 | 2026-08-31 06:21:30 | 48.31739 | 12.96487 | 87° | 84km/h | 3673m | -4.0m/s | 1.3°C | 42.4% | 657.5hPa | 2.7V | 00:46:57 | 02:53:49 | 00:00:00 | |
| OE5DXL-15 | 2026-08-31 06:21:29 | 48.31738 | 12.96455 | 87° | 77km/h | 3677m | -3.9m/s | 1.3°C | 43.2% | 657.1hPa | 2.7V | 00:46:58 | 00:00:00 | 00:00:00 | |
| OE5MMP-10 | 2026-08-31 06:21:28 | 48.31736 | 12.96423 | 87° | 80km/h | 3681m | -3.9m/s | 1.2°C | 44.5% | 657.0hPa | 2.7V | 00:46:59 | 02:53:47 | 00:00:00 | |
| OE5REO-15 | 2026-08-31 06:21:26 | 48.31735 | 12.96392 | 87° | 82km/h | 3685m | -3.8m/s | 1.2°C | 46.3% | 656.5hPa | 2.7V | 00:00:00 | 00:00:00 | 00:00:00 | |
| DO3MHA-12 | 2026-08-31 06:21:25 | 48.31732 | 12.96329 | 86° | 80km/h | 3693m | -4.2m/s | 1.1°C | 51.4% | 655.9hPa | 2.7V | 00:47:02 | 02:53:44 | 00:00:00 | |
| DO3MHA-11 | 2026-08-31 06:21:23 | 48.31730 | 12.96268 | 86° | 78km/h | 3701m | -4.1m/s | 1.1°C | 55.4% | 655.4hPa | 2.7V | 00:47:04 | 02:53:42 | 00:00:00 | |
| DO3MHA-12 | 2026-08-31 06:21:20 | 48.31725 | 12.96178 | 86° | 77km/h | 3714m | -4.3m/s | 1.0°C | 58.9% | 654.1hPa | 2.7V | 00:47:07 | 02:53:39 | 00:00:00 | |
| DO3MHA-11 | 2026-08-31 06:21:18 | 48.31721 | 12.96119 | 85° | 75km/h | 3722m | -4.3m/s | 1.0°C | 59.5% | 653.5hPa | 2.7V | 00:47:09 | 02:53:37 | 00:00:00 | |
| DO3MHA-12 | 2026-08-31 06:21:15 | 48.31714 | 12.96034 | 83° | 73km/h | 3735m | -4.2m/s | 0.8°C | 60.2% | 652.3hPa | 2.7V | 00:47:12 | 02:53:34 | 00:00:00 | |
| DO3MHA-11 | 2026-08-31 06:21:13 | 48.31709 | 12.95978 | 82° | 73km/h | 3743m | -4.1m/s | 0.8°C | 60.5% | 651.7hPa | 2.7V | 00:47:14 | 02:53:32 | 00:00:00 | |
| OE5DRO-10 | 2026-08-31 06:21:12 | 48.31706 | 12.95951 | 81° | 77km/h | 3748m | -4.3m/s | 0.7°C | 61.5% | 651.5hPa | 2.7V | 00:47:15 | 00:00:00 | 00:00:00 | |
| DO3MHA-12 | 2026-08-31 06:21:10 | 48.31699 | 12.95897 | 79° | 73km/h | 3756m | -4.1m/s | 0.7°C | 62.6% | 650.7hPa | 2.6V | 00:47:17 | 02:53:29 | 00:00:00 | |
| OE5REO-15 | 2026-08-31 06:21:09 | 48.31699 | 12.95897 | 79° | 73km/h | 3756m | -4.2m/s | 0.7°C | 61.0% | 650.8hPa | 2.6V | 00:00:00 | 00:00:00 | 00:00:00 | |
| DO3MHA-11 | 2026-08-31 06:21:08 | 48.31691 | 12.95843 | 76° | 75km/h | 3765m | -4.2m/s | 0.6°C | 62.9% | 650.0hPa | 2.6V | 00:47:19 | 02:53:27 | 00:00:00 | |
| DO3MHA-12 | 2026-08-31 06:21:05 | 48.31676 | 12.95762 | 74° | 77km/h | 3777m | -4.2m/s | 0.5°C | 61.5% | 649.0hPa | 2.6V | 00:47:22 | 02:53:24 | 00:00:00 | |
| DO3MHA-11 | 2026-08-31 06:21:03 | 48.31665 | 12.95707 | 73° | 78km/h | 3786m | -4.3m/s | 0.5°C | 61.1% | 647.9hPa | 2.7V | 00:47:24 | 02:53:22 | 00:00:00 | |
| DO3MHA-12 | 2026-08-31 06:21:00 | 48.31647 | 12.95623 | 72° | 80km/h | 3799m | -4.5m/s | 0.4°C | 61.5% | 647.3hPa | 2.6V | 00:47:27 | 02:53:19 | 00:00:00 | |
| OE5DXL-15 | 2026-08-31 06:20:59 | 48.31641 | 12.95594 | 72° | 78km/h | 3804m | -4.2m/s | 0.4°C | 61.7% | 646.9hPa | 2.6V | 00:47:28 | 00:00:00 | 00:00:00 | |
| DO3MHA-11 | 2026-08-31 06:20:58 | 48.31634 | 12.95565 | 72° | 84km/h | 3808m | -4.3m/s | 0.4°C | 61.8% | 646.6hPa | 2.6V | 00:47:29 | 02:53:17 | 00:00:00 | |
| OE5DRO-10 | 2026-08-31 06:20:56 | 48.31622 | 12.95506 | 73° | 82km/h | 3816m | -4.1m/s | 0.3°C | 62.0% | 645.9hPa | 2.6V | 00:47:31 | 00:00:00 | 00:00:00 | |
| DO3MHA-12 | 2026-08-31 06:20:55 | 48.31615 | 12.95475 | 74° | 86km/h | 3820m | -4.0m/s | 0.3°C | 62.5% | 645.7hPa | 2.6V | 00:47:32 | 02:53:14 | 00:00:00 | |
| DO3MHA-11 | 2026-08-31 06:20:53 | 48.31603 | 12.95413 | 76° | 86km/h | 3829m | -4.2m/s | 0.2°C | 63.6% | 644.9hPa | 2.6V | 00:47:34 | 02:53:12 | 00:00:00 | |
| DO3MHA-12 | 2026-08-31 06:20:50 | 48.31590 | 12.95317 | 81° | 82km/h | 3841m | -4.1m/s | 0.1°C | 64.2% | 643.9hPa | 2.6V | 00:47:37 | 02:53:09 | 00:00:00 | |
| OE5MMP-10 | 2026-08-31 06:20:48 | 48.31583 | 12.95254 | 82° | 78km/h | 3849m | -3.8m/s | 0.0°C | 64.5% | 643.4hPa | 2.7V | 00:47:39 | 02:53:07 | 00:00:00 | |
| OE5REO-15 | 2026-08-31 06:20:47 | 48.31583 | 12.95254 | 83° | 82km/h | 3849m | -3.9m/s | 0.0°C | 62.8% | 643.4hPa | 2.7V | 00:00:00 | 00:00:00 | 00:00:00 | |
| OE5WHR-10 | 2026-08-31 06:20:46 | 48.31578 | 12.95192 | 83° | 77km/h | 3856m | -3.7m/s | -0.0°C | 65.3% | 642.5hPa | 2.7V | 00:47:41 | 02:53:05 | 00:00:00 | |
| DO3MHA-12 | 2026-08-31 06:20:45 | 48.31575 | 12.95162 | 83° | 78km/h | 3860m | -4.1m/s | -0.0°C | 65.6% | 642.4hPa | 2.7V | 00:47:42 | 02:53:04 | 00:00:00 | |
| DO3MHA-11 | 2026-08-31 06:20:43 | 48.31570 | 12.95103 | 83° | 78km/h | 3869m | -4.3m/s | -0.1°C | 65.8% | 641.6hPa | 2.7V | 00:47:44 | 02:53:02 | 00:00:00 | |
| OE5HKT-10 | 2026-08-31 06:20:42 | 48.31568 | 12.95073 | 83° | 71km/h | 3874m | -4.3m/s | -0.1°C | 66.2% | 641.3hPa | 2.7V | 00:47:45 | 02:53:01 | 00:00:00 | |
| DO3MHA-12 | 2026-08-31 06:20:40 | 48.31562 | 12.95015 | 83° | 77km/h | 3883m | -4.2m/s | -0.2°C | 67.5% | 640.6hPa | 2.7V | 00:47:47 | 02:52:59 | 00:00:00 | |
| DO3MHA-11 | 2026-08-31 06:20:38 | 48.31558 | 12.94957 | 83° | 75km/h | 3891m | -4.1m/s | -0.3°C | 68.1% | 639.9hPa | 2.7V | 00:47:49 | 02:52:57 | 00:00:00 | |
| DO3MHA-12 | 2026-08-31 06:20:35 | 48.31550 | 12.94871 | 83° | 73km/h | 3904m | -4.2m/s | -0.4°C | 68.9% | 638.8hPa | 2.7V | 00:47:52 | 02:52:54 | 00:00:00 | |
| DO3MHA-11 | 2026-08-31 06:20:33 | 48.31544 | 12.94815 | 82° | 71km/h | 3912m | -4.2m/s | -0.4°C | 69.1% | 638.2hPa | 2.7V | 00:47:54 | 02:52:52 | 00:00:00 | |
| DO3MHA-12 | 2026-08-31 06:20:30 | 48.31535 | 12.94734 | 79° | 69km/h | 3924m | -4.0m/s | -0.4°C | 73.8% | 637.3hPa | 2.7V | 00:47:57 | 02:52:49 | 00:00:00 | |
| OE5DXL-15 | 2026-08-31 06:20:29 | 48.31531 | 12.94708 | 78° | 71km/h | 3928m | -4.1m/s | -0.5°C | 74.6% | 637.1hPa | 2.7V | 00:47:58 | 00:00:00 | 00:00:00 | |
| OE5MMP-10 | 2026-08-31 06:20:28 | 48.31527 | 12.94682 | 78° | 68km/h | 3933m | -4.3m/s | -0.5°C | 75.1% | 636.7hPa | 2.7V | 00:47:59 | 02:52:47 | 00:00:00 | |
| OE3JTB-15 | 2026-08-31 06:20:27 | 48.31523 | 12.94657 | 77° | 73km/h | 3937m | -3.9m/s | -0.6°C | 75.2% | 636.3hPa | 2.7V | 00:48:00 | 00:00:00 | 00:00:00 | |
| DO3MHA-12 | 2026-08-31 06:20:25 | 48.31515 | 12.94607 | 76° | 66km/h | 3945m | -4.6m/s | -0.7°C | 75.6% | 635.5hPa | 2.7V | 00:48:02 | 02:52:44 | 00:00:00 | |
| OE5DRO-10 | 2026-08-31 06:20:24 | 48.31511 | 12.94582 | 76° | 69km/h | 3950m | -4.5m/s | -0.7°C | 76.4% | 635.1hPa | 2.7V | 00:48:03 | 00:00:00 | 00:00:00 | |
| DO3MHA-11 | 2026-08-31 06:20:23 | 48.31507 | 12.94558 | 76° | 66km/h | 3954m | -4.9m/s | -0.8°C | 76.5% | 634.9hPa | 2.7V | 00:48:04 | 02:52:42 | 00:00:00 | |
| DO3MHA-12 | 2026-08-31 06:20:20 | 48.31493 | 12.94486 | 73° | 68km/h | 3969m | -4.9m/s | -0.9°C | 78.5% | 633.6hPa | 2.7V | 00:48:07 | 02:52:39 | 00:00:00 | |
| OE5MMP-10 | 2026-08-31 06:20:18 | 48.31483 | 12.94438 | 71° | 69km/h | 3979m | -5.1m/s | -1.0°C | 78.6% | 632.7hPa | 2.7V | 00:48:09 | 02:52:37 | 00:00:00 | |
| DO3MHA-12 | 2026-08-31 06:20:15 | 48.31465 | 12.94365 | 70° | 69km/h | 3994m | -4.9m/s | -1.2°C | 78.9% | 631.6hPa | 2.7V | 00:48:12 | 02:52:34 | 00:00:00 | |
| DO3MHA-11 | 2026-08-31 06:20:13 | 48.31453 | 12.94316 | 69° | 73km/h | 4003m | -4.1m/s | -1.3°C | 79.6% | 630.9hPa | 2.7V | 00:48:14 | 02:52:32 | 00:00:00 | |
| OE5WHR-10 | 2026-08-31 06:20:12 | 48.31446 | 12.94292 | 68° | 64km/h | 4007m | -4.5m/s | -1.3°C | 79.8% | 630.7hPa | 2.7V | 00:48:15 | 00:00:00 | 00:00:00 | |
| OE5GOL-10 | 2026-08-31 06:20:11 | 48.31439 | 12.94267 | 68° | 73km/h | 4012m | -4.5m/s | -1.4°C | 80.0% | 630.4hPa | 2.7V | 00:48:16 | 02:52:30 | 00:00:00 | |
| DO3MHA-12 | 2026-08-31 06:20:10 | 48.31432 | 12.94241 | 68° | 77km/h | 4016m | -4.5m/s | -1.4°C | 80.3% | 629.9hPa | 2.7V | 00:48:17 | 02:52:29 | 00:00:00 | |
| OE5MMP-10 | 2026-08-31 06:20:08 | 48.31418 | 12.94188 | 69° | 80km/h | 4025m | -4.2m/s | -1.5°C | 81.0% | 629.1hPa | 2.7V | 00:48:19 | 02:52:27 | 00:00:00 | |
| OE5HKT-10 | 2026-08-31 06:20:07 | 48.31410 | 12.94160 | 70° | 75km/h | 4029m | -4.0m/s | -1.6°C | 82.1% | 628.8hPa | 2.7V | 00:48:20 | 00:00:00 | 00:00:00 | |
| DO3MHA-12 | 2026-08-31 06:20:05 | 48.31397 | 12.94102 | 72° | 80km/h | 4038m | -4.3m/s | -1.7°C | 82.2% | 628.2hPa | 2.7V | 00:48:22 | 02:52:24 | 00:00:00 | |
| DO3MHA-11 | 2026-08-31 06:20:03 | 48.31385 | 12.94043 | 75° | 78km/h | 4047m | -4.3m/s | -1.8°C | 82.9% | 627.6hPa | 2.7V | 00:48:24 | 02:52:22 | 00:00:00 | |
| DO3MHA-12 | 2026-08-31 06:20:00 | 48.31370 | 12.93956 | 77° | 75km/h | 4060m | -4.5m/s | -1.9°C | 83.6% | 626.5hPa | 2.7V | 00:48:27 | 02:52:19 | 00:00:00 | |
| OE5DXL-15 | 2026-08-31 06:19:59 | 48.31366 | 12.93928 | 78° | 64km/h | 4065m | -4.5m/s | -1.9°C | 83.8% | 626.0hPa | 2.7V | 00:48:28 | 00:00:00 | 00:00:00 | |
| DO3MHA-11 | 2026-08-31 06:19:58 | 48.31361 | 12.93900 | 78° | 73km/h | 4069m | -4.4m/s | -1.9°C | 84.4% | 625.8hPa | 2.7V | 00:48:29 | 02:52:17 | 00:00:00 | |
| DO3MHA-12 | 2026-08-31 06:19:55 | 48.31350 | 12.93819 | 79° | 69km/h | 4084m | -4.6m/s | -2.0°C | 86.6% | 624.7hPa | 2.7V | 00:48:32 | 02:52:14 | 00:00:00 | |
| DO3MHA-11 | 2026-08-31 06:19:53 | 48.31343 | 12.93767 | 79° | 68km/h | 4093m | -4.6m/s | -2.0°C | 88.0% | 624.1hPa | 2.7V | 00:48:34 | 02:52:12 | 00:00:00 | |
| OE5DRO-10 | 2026-08-31 06:19:52 | 48.31339 | 12.93741 | 78° | 64km/h | 4097m | -4.5m/s | -2.0°C | 88.7% | 623.7hPa | 2.7V | 00:48:35 | 00:00:00 | 00:00:00 | |
| DO3MHA-12 | 2026-08-31 06:19:50 | 48.31332 | 12.93690 | 79° | 66km/h | 4107m | -4.7m/s | -2.1°C | 89.3% | 622.9hPa | 2.7V | 00:48:37 | 02:52:09 | 00:00:00 | |
| DO3MHA-11 | 2026-08-31 06:19:48 | 48.31325 | 12.93640 | 78° | 66km/h | 4116m | -4.4m/s | -2.1°C | 89.9% | 622.1hPa | 2.6V | 00:48:39 | 02:52:07 | 00:00:00 | |
| DO3MHA-12 | 2026-08-31 06:19:45 | 48.31314 | 12.93567 | 78° | 62km/h | 4129m | -4.5m/s | -2.2°C | 90.9% | 621.2hPa | 2.7V | 00:48:42 | 02:52:04 | 00:00:00 | |
| DO3MHA-11 | 2026-08-31 06:19:43 | 48.31307 | 12.93521 | 77° | 62km/h | 4138m | -4.6m/s | -2.2°C | 91.7% | 620.4hPa | 2.7V | 00:48:44 | 02:52:02 | 00:00:00 | |
| OE5GOL-10 | 2026-08-31 06:19:41 | 48.31299 | 12.93475 | 77° | 57km/h | 4147m | -4.3m/s | -2.2°C | 92.5% | 619.6hPa | 2.7V | 00:48:46 | 02:52:00 | 00:00:00 | |
| DO3MHA-12 | 2026-08-31 06:19:40 | 48.31296 | 12.93452 | 76° | 60km/h | 4152m | -4.5m/s | -2.3°C | 92.6% | 619.2hPa | 2.7V | 00:48:47 | 02:51:59 | 00:00:00 | |
| DO3MHA-11 | 2026-08-31 06:19:38 | 48.31288 | 12.93408 | 76° | 58km/h | 4161m | -4.5m/s | -2.4°C | 93.3% | 618.6hPa | 2.7V | 00:48:49 | 02:51:57 | 00:00:00 | |
| OE5DRO-10 | 2026-08-31 06:19:36 | 48.31280 | 12.93364 | 75° | 57km/h | 4170m | -4.7m/s | -2.4°C | 93.5% | 617.9hPa | 2.7V | 00:48:51 | 00:00:00 | 00:00:00 | |
| DO3MHA-12 | 2026-08-31 06:19:35 | 48.31277 | 12.93343 | 75° | 58km/h | 4175m | -4.8m/s | -2.5°C | 93.8% | 617.4hPa | 2.7V | 00:48:52 | 02:51:54 | 00:00:00 | |
| DO3MHA-11 | 2026-08-31 06:19:33 | 48.31268 | 12.93300 | 74° | 57km/h | 4184m | -4.9m/s | -2.5°C | 94.5% | 616.6hPa | 2.7V | 00:48:54 | 02:51:52 | 00:00:00 | |
| DO3MHA-12 | 2026-08-31 06:19:30 | 48.31256 | 12.93238 | 73° | 55km/h | 4198m | -4.7m/s | -2.6°C | 95.3% | 615.8hPa | 2.7V | 00:48:57 | 02:51:49 | 00:00:00 | |
| OE5DXL-15 | 2026-08-31 06:19:29 | 48.31251 | 12.93218 | 72° | 58km/h | 4203m | -4.5m/s | -2.7°C | 95.5% | 615.2hPa | 2.7V | 00:48:58 | 00:00:00 | 00:00:00 | |
| OE5MMP-10 | 2026-08-31 06:19:28 | 48.31247 | 12.93198 | 71° | 55km/h | 4207m | -4.4m/s | -2.7°C | 95.4% | 615.0hPa | 2.7V | 00:48:59 | 02:51:47 | 00:00:00 | |
| DO3MHA-12 | 2026-08-31 06:19:25 | 48.31232 | 12.93140 | 69° | 55km/h | 4221m | -4.8m/s | -2.8°C | 96.4% | 614.0hPa | 2.7V | 00:49:02 | 02:51:44 | 00:00:00 | |
| DO3MHA-11 | 2026-08-31 06:19:23 | 48.31221 | 12.93101 | 68° | 55km/h | 4231m | -4.5m/s | -2.9°C | 97.1% | 613.2hPa | 2.7V | 00:49:04 | 02:51:42 | 00:00:00 | |
| PG1ADW-2 | 2026-08-31 06:19:21 | 48.31205 | 12.93043 | 65° | 60km/h | 4245m | -4.5m/s | -3.0°C | 97.5% | 612.2hPa | 2.7V | 00:49:07 | 00:00:00 | 00:00:00 | |
| DO3MHA-12 | 2026-08-31 06:19:20 | 48.31205 | 12.93043 | 65° | 55km/h | 4245m | -4.5m/s | -3.0°C | 97.5% | 612.2hPa | 2.7V | 00:49:07 | 02:51:39 | 00:00:00 | |
| DO3MHA-11 | 2026-08-31 06:19:18 | 48.31193 | 12.93006 | 64° | 55km/h | 4254m | -4.9m/s | -3.0°C | 97.8% | 611.5hPa | 2.7V | 00:49:09 | 02:51:37 | 00:00:00 | |
| DO3MHA-12 | 2026-08-31 06:19:15 | 48.31174 | 12.92952 | 61° | 57km/h | 4268m | -4.6m/s | -3.2°C | 98.7% | 610.3hPa | 2.7V | 00:49:12 | 02:51:34 | 00:00:00 | |
| DO3MHA-11 | 2026-08-31 06:19:13 | 48.31160 | 12.92915 | 60° | 58km/h | 4278m | -4.3m/s | -3.2°C | 0% | 609.5hPa | 2.7V | 00:49:14 | 02:51:32 | 00:00:00 | |
| OE5GOL-10 | 2026-08-31 06:19:11 | 48.31145 | 12.92878 | 59° | 60km/h | 4286m | -4.2m/s | -3.3°C | 0% | 609.0hPa | 2.7V | 00:49:16 | 02:51:30 | 00:00:00 | |
| DO3MHA-12 | 2026-08-31 06:19:10 | 48.31137 | 12.92859 | 59° | 64km/h | 4290m | -4.3m/s | -3.4°C | 0% | 608.6hPa | 2.7V | 00:49:17 | 02:51:29 | 00:00:00 | |
| DO3MHA-11 | 2026-08-31 06:19:08 | 48.31121 | 12.92818 | 62° | 66km/h | 4299m | -4.5m/s | -3.4°C | 0% | 607.9hPa | 2.7V | 00:49:19 | 02:51:27 | 00:00:00 | |
| DO3MHA-12 | 2026-08-31 06:19:05 | 48.31099 | 12.92751 | 66° | 66km/h | 4313m | -4.7m/s | -3.6°C | 0% | 606.8hPa | 2.7V | 00:49:22 | 02:51:24 | 00:00:00 | |
| OE5DRO-10 | 2026-08-31 06:19:04 | 48.31092 | 12.92728 | 68° | 62km/h | 4317m | -4.7m/s | -3.6°C | 0% | 606.5hPa | 2.7V | 00:49:23 | 00:00:00 | 00:00:00 | |
| OE5WHR-10 | 2026-08-31 06:19:02 | 48.31080 | 12.92681 | 70° | 60km/h | 4327m | -4.7m/s | -3.7°C | 0% | 605.8hPa | 2.7V | 00:49:25 | 02:51:21 | 00:00:00 | |
| DO3MHA-12 | 2026-08-31 06:19:00 | 48.31069 | 12.92634 | 71° | 64km/h | 4336m | -4.6m/s | -3.7°C | 0% | 605.1hPa | 2.7V | 00:49:27 | 02:51:19 | 00:00:00 | |
| OE5DXL-15 | 2026-08-31 06:18:59 | 48.31063 | 12.92611 | 72° | 55km/h | 4341m | -4.7m/s | -3.7°C | 0% | 604.8hPa | 2.7V | 00:49:28 | 00:00:00 | 00:00:00 | |
| DO3MHA-11 | 2026-08-31 06:18:53 | 48.31036 | 12.92478 | 75° | 57km/h | 4369m | -4.7m/s | -3.9°C | 0% | 602.5hPa | 2.7V | 00:49:34 | 02:51:12 | 00:00:00 | |
| DO3MHA-12 | 2026-08-31 06:18:50 | 48.31025 | 12.92414 | 76° | 55km/h | 4383m | -4.6m/s | -4.0°C | 0% | 601.5hPa | 2.7V | 00:49:37 | 02:51:09 | 00:00:00 | |
| OE5MMP-10 | 2026-08-31 06:18:48 | 48.31018 | 12.92374 | 76° | 53km/h | 4392m | -4.6m/s | -4.0°C | 0% | 601.0hPa | 2.6V | 00:49:39 | 02:51:07 | 00:00:00 | |
| OE5HKT-10 | 2026-08-31 06:18:46 | 48.31011 | 12.92334 | 77° | 51km/h | 4401m | -4.8m/s | -4.1°C | 0% | 600.2hPa | 2.7V | 00:49:41 | 00:00:00 | 00:00:00 | |
| OE5WHR-10 | 2026-08-31 06:18:45 | 48.31008 | 12.92314 | 77° | 49km/h | 4406m | -4.9m/s | -4.1°C | 0% | 599.7hPa | 2.7V | 00:49:42 | 00:00:00 | 00:00:00 | |
| DO3MHA-11 | 2026-08-31 06:18:43 | 48.31001 | 12.92275 | 76° | 51km/h | 4415m | -4.5m/s | -4.1°C | 0% | 599.1hPa | 2.6V | 00:49:44 | 02:51:02 | 00:00:00 | |
| OE5GOL-10 | 2026-08-31 06:18:41 | 48.30995 | 12.92237 | 76° | 47km/h | 4425m | -4.9m/s | -4.2°C | 0% | 598.4hPa | 2.6V | 00:49:46 | 02:51:00 | 00:00:00 | |
| DO3MHA-12 | 2026-08-31 06:18:40 | 48.30991 | 12.92218 | 76° | 49km/h | 4429m | -4.5m/s | -4.2°C | 0% | 598.0hPa | 2.6V | 00:49:47 | 02:50:59 | 00:00:00 | |
| DO3MHA-11 | 2026-08-31 06:18:38 | 48.30985 | 12.92181 | 76° | 49km/h | 4438m | -4.7m/s | -4.3°C | 0% | 597.4hPa | 2.6V | 00:49:49 | 02:50:57 | 00:00:00 | |
| DO3MHA-12 | 2026-08-31 06:18:35 | 48.30975 | 12.92127 | 76° | 47km/h | 4452m | -4.6m/s | -4.4°C | 0% | 596.2hPa | 2.6V | 00:49:52 | 02:50:54 | 00:00:00 | |
| DO3MHA-11 | 2026-08-31 06:18:33 | 48.30969 | 12.92091 | 76° | 47km/h | 4462m | -4.6m/s | -4.4°C | 0% | 595.7hPa | 2.7V | 00:49:54 | 02:50:52 | 00:00:00 | |
| OE5DRO-10 | 2026-08-31 06:18:32 | 48.30966 | 12.92073 | 76° | 46km/h | 4466m | -4.7m/s | -4.5°C | 0% | 595.2hPa | 2.6V | 00:49:55 | 00:00:00 | 00:00:00 | |
| OE3JTB-15 | 2026-08-31 06:18:31 | 48.30963 | 12.92056 | 76° | 47km/h | 4471m | -4.5m/s | -4.5°C | 0% | 594.9hPa | 2.6V | 00:49:56 | 00:00:00 | 00:00:00 | |
| DO3MHA-12 | 2026-08-31 06:18:30 | 48.30960 | 12.92038 | 75° | 46km/h | 4475m | -4.6m/s | -4.5°C | 0% | 594.5hPa | 2.6V | 00:49:57 | 02:50:49 | 00:00:00 | |
| OE5DXL-15 | 2026-08-31 06:18:29 | 48.30957 | 12.92022 | 73° | 49km/h | 4480m | -4.6m/s | -4.6°C | 0% | 594.2hPa | 2.6V | 00:49:58 | 00:00:00 | 00:00:00 | |
| DO3MHA-11 | 2026-08-31 06:18:28 | 48.30953 | 12.92005 | 71° | 44km/h | 4485m | -4.6m/s | -4.6°C | 0% | 593.9hPa | 2.6V | 00:49:59 | 02:50:47 | 00:00:00 | |
| DO3MHA-12 | 2026-08-31 06:18:25 | 48.30941 | 12.91960 | 65° | 44km/h | 4498m | -4.6m/s | -4.8°C | 0% | 592.8hPa | 2.6V | 00:50:02 | 02:50:44 | 00:00:00 | |
| DO3MHA-11 | 2026-08-31 06:18:23 | 48.30930 | 12.91930 | 61° | 46km/h | 4507m | -4.6m/s | -4.8°C | 0% | 592.3hPa | 2.6V | 00:50:04 | 02:50:42 | 00:00:00 | |
| DO3MHA-12 | 2026-08-31 06:18:20 | 48.30912 | 12.91885 | 59° | 49km/h | 4521m | -4.6m/s | -4.9°C | 0% | 591.1hPa | 2.6V | 00:50:07 | 02:50:39 | 00:00:00 | |
| OE5DRO-10 | 2026-08-31 06:18:16 | 48.30886 | 12.91823 | 57° | 51km/h | 4540m | -4.6m/s | -5.0°C | 0% | 589.9hPa | 2.7V | 00:50:11 | 00:00:00 | 00:00:00 | |
| DO3MHA-12 | 2026-08-31 06:18:15 | 48.30879 | 12.91807 | 58° | 49km/h | 4544m | -4.9m/s | -4.9°C | 0% | 589.3hPa | 2.7V | 00:50:12 | 02:50:34 | 00:00:00 | |
| DO3MHA-11 | 2026-08-31 06:18:13 | 48.30865 | 12.91775 | 57° | 49km/h | 4554m | -4.9m/s | -4.9°C | 0% | 588.7hPa | 2.7V | 00:50:14 | 02:50:32 | 00:00:00 | |
| OE5GOL-10 | 2026-08-31 06:18:11 | 48.30851 | 12.91744 | 57° | 57km/h | 4564m | -4.9m/s | -5.0°C | 0% | 587.8hPa | 2.7V | 00:50:16 | 02:50:30 | 00:00:00 | |
| DO3MHA-12 | 2026-08-31 06:18:10 | 48.30844 | 12.91729 | 57° | 49km/h | 4569m | -4.9m/s | -5.0°C | 0% | 587.6hPa | 2.7V | 00:50:17 | 02:50:29 | 00:00:00 | |
| DO3MHA-11 | 2026-08-31 06:18:08 | 48.30831 | 12.91698 | 57° | 51km/h | 4579m | -4.8m/s | -5.0°C | 0% | 586.9hPa | 2.7V | 00:50:19 | 02:50:27 | 00:00:00 | |
| OE5REO-15 | 2026-08-31 06:18:06 | 48.30824 | 12.91682 | 57° | 49km/h | 4583m | -4.6m/s | -5.1°C | 98.1% | 586.5hPa | 2.7V | 00:50:00 | 00:00:00 | 00:00:00 | |
| DO3MHA-12 | 2026-08-31 06:18:05 | 48.30809 | 12.91651 | 56° | 55km/h | 4592m | -4.4m/s | -5.1°C | 0% | 585.9hPa | 2.7V | 00:50:22 | 02:50:24 | 00:00:00 | |
| DO3MHA-11 | 2026-08-31 06:18:03 | 48.30794 | 12.91617 | 57° | 57km/h | 4601m | -4.2m/s | -5.1°C | 0% | 585.1hPa | 2.6V | 00:50:24 | 02:50:22 | 00:00:00 | |
| OE3JTB-15 | 2026-08-31 06:18:02 | 48.30786 | 12.91599 | 57° | 55km/h | 4606m | -4.2m/s | -5.1°C | 99.9% | 584.8hPa | 2.7V | 00:50:25 | 02:50:21 | 00:00:00 | |
| PG1ADW-2 | 2026-08-31 06:18:00 | 48.30770 | 12.91563 | 58° | 58km/h | 4614m | -4.6m/s | -4.9°C | 97.3% | 584.1hPa | 2.7V | 00:50:27 | 00:00:00 | 00:00:00 | |
| OE5DXL-15 | 2026-08-31 06:17:59 | 48.30762 | 12.91544 | 59° | 55km/h | 4619m | -4.3m/s | -4.9°C | 96.5% | 583.9hPa | 2.7V | 00:50:28 | 00:00:00 | 00:00:00 | |
| DO3MHA-11 | 2026-08-31 06:17:58 | 48.30754 | 12.91525 | 59° | 55km/h | 4624m | -4.4m/s | -4.8°C | 94.6% | 583.5hPa | 2.7V | 00:50:29 | 02:50:17 | 00:00:00 | |
| OE5WHR-10 | 2026-08-31 06:17:54 | 48.30723 | 12.91443 | 63° | 55km/h | 4641m | -4.6m/s | -4.8°C | 92.7% | 582.2hPa | 2.7V | 00:50:33 | 00:00:00 | 00:00:00 | |
| OE5REO-15 | 2026-08-31 06:17:50 | 48.30703 | 12.91379 | 67° | 62km/h | 4655m | -4.3m/s | -5.0°C | 90.9% | 581.3hPa | 2.7V | 00:50:00 | 00:00:00 | 00:00:00 | |
| OE5MMP-10 | 2026-08-31 06:17:48 | 48.30685 | 12.91315 | 69° | 51km/h | 4668m | -4.4m/s | -5.0°C | 91.7% | 580.3hPa | 2.7V | 00:50:39 | 02:50:07 | 00:00:00 | |
| OE5DRO-10 | 2026-08-31 06:17:44 | 48.30666 | 12.91236 | 70° | 47km/h | 4684m | -4.2m/s | -5.1°C | 91.7% | 579.0hPa | 2.7V | 00:50:43 | 00:00:00 | 00:00:00 | |
| DO3MHA-11 | 2026-08-31 06:17:42 | 48.30656 | 12.91201 | 69° | 49km/h | 4693m | -4.2m/s | -5.2°C | 91.9% | 578.5hPa | 2.7V | 00:50:45 | 02:50:01 | 00:00:00 | |
| OE5GOL-10 | 2026-08-31 06:17:41 | 48.30652 | 12.91184 | 68° | 51km/h | 4697m | -4.3m/s | -5.2°C | 91.9% | 578.1hPa | 2.7V | 00:50:46 | 02:50:00 | 00:00:00 | |
| PG1ADW-2 | 2026-08-31 06:17:40 | 48.30647 | 12.91167 | 67° | 47km/h | 4701m | -4.1m/s | -5.2°C | 91.8% | 577.7hPa | 2.7V | 00:50:47 | 00:00:00 | 00:00:00 | |
| OE5MMP-10 | 2026-08-31 06:17:38 | 48.30637 | 12.91135 | 64° | 47km/h | 4709m | -4.0m/s | -5.2°C | 92.3% | 577.1hPa | 2.7V | 00:50:49 | 02:49:57 | 00:00:00 | |
| OE5WHR-10 | 2026-08-31 06:17:37 | 48.30632 | 12.91119 | 63° | 49km/h | 4714m | -4.2m/s | -5.3°C | 92.6% | 576.7hPa | 2.7V | 00:50:50 | 00:00:00 | 00:00:00 | |
| OE5REO-15 | 2026-08-31 06:17:35 | 48.30626 | 12.91103 | 62° | 46km/h | 4718m | -4.2m/s | -5.4°C | 89.9% | 576.6hPa | 2.7V | 00:51:00 | 00:00:00 | 00:00:00 | |
| OE3JTB-15 | 2026-08-31 06:17:33 | 48.30608 | 12.91058 | 58° | 55km/h | 4731m | -4.5m/s | -5.4°C | 92.2% | 575.6hPa | 2.7V | 00:50:54 | 00:00:00 | 00:00:00 | |
| OE5DXL-15 | 2026-08-31 06:17:29 | 48.30581 | 12.90998 | 54° | 57km/h | 4748m | -4.4m/s | -5.5°C | 93.1% | 574.4hPa | 2.7V | 00:50:58 | 00:00:00 | 00:00:00 | |
| DO3MHA-12 | 2026-08-31 06:17:28 | 48.30574 | 12.90983 | 54° | 49km/h | 4752m | -4.7m/s | -5.6°C | 93.3% | 573.8hPa | 2.7V | 00:50:59 | 02:49:47 | 00:00:00 | |
| DO3MHA-11 | 2026-08-31 06:17:25 | 48.30551 | 12.90938 | 52° | 51km/h | 4766m | -4.5m/s | -5.7°C | 94.0% | 572.9hPa | 2.7V | 00:51:02 | 02:49:44 | 00:00:00 | |
| DO3MHA-12 | 2026-08-31 06:17:23 | 48.30536 | 12.90909 | 52° | 51km/h | 4775m | -4.5m/s | -5.8°C | 94.0% | 572.4hPa | 2.6V | 00:51:04 | 02:49:42 | 00:00:00 | |
| DO3MHA-11 | 2026-08-31 06:17:20 | 48.30511 | 12.90864 | 51° | 60km/h | 4788m | -4.3m/s | -5.9°C | 94.3% | 571.4hPa | 2.6V | 00:51:07 | 02:49:39 | 00:00:00 | |
| OE5REO-15 | 2026-08-31 06:17:19 | 48.30511 | 12.90864 | 51° | 53km/h | 4788m | -4.3m/s | -5.9°C | 91.2% | 571.4hPa | 2.6V | 00:51:00 | 00:00:00 | 00:00:00 | |
| OE5MMP-10 | 2026-08-31 06:17:18 | 48.30494 | 12.90833 | 50° | 58km/h | 4797m | -4.3m/s | -5.9°C | 94.4% | 570.7hPa | 2.6V | 00:51:09 | 02:49:37 | 00:00:00 | |
| OE5DRO-10 | 2026-08-31 06:17:12 | 48.30437 | 12.90736 | 49° | 62km/h | 4822m | -4.0m/s | -6.1°C | 95.9% | 569.0hPa | 2.7V | 00:51:15 | 00:00:00 | 00:00:00 | |
| OE5GOL-10 | 2026-08-31 06:17:11 | 48.30427 | 12.90718 | 51° | 60km/h | 4826m | -4.0m/s | -6.1°C | 94.8% | 568.7hPa | 2.6V | 00:51:16 | 02:49:30 | 00:00:00 | |
| DO3MHA-11 | 2026-08-31 06:17:08 | 48.30397 | 12.90661 | 55° | 64km/h | 4837m | -3.8m/s | -6.2°C | 94.4% | 568.0hPa | 2.7V | 00:51:19 | 02:49:27 | 00:00:00 | |
| OE3JTB-15 | 2026-08-31 06:17:04 | 48.30362 | 12.90581 | 60° | 58km/h | 4853m | -3.7m/s | -6.3°C | 94.4% | 566.7hPa | 2.7V | 00:51:23 | 00:00:00 | 00:00:00 | |
| OE5WHR-10 | 2026-08-31 06:17:03 | 48.30353 | 12.90560 | 60° | 60km/h | 4857m | -3.7m/s | -6.3°C | 94.5% | 566.5hPa | 2.7V | 00:51:24 | 00:00:00 | 00:00:00 | |
| PG1ADW-2 | 2026-08-31 06:17:00 | 48.30330 | 12.90499 | 61° | 58km/h | 4868m | -3.8m/s | -6.4°C | 94.8% | 565.7hPa | 2.7V | 00:51:27 | 00:00:00 | 00:00:00 | |
| OE5DXL-15 | 2026-08-31 06:16:59 | 48.30322 | 12.90478 | 61° | 55km/h | 4872m | -3.6m/s | -6.4°C | 94.9% | 565.3hPa | 2.7V | 00:51:28 | 00:00:00 | 00:00:00 | |
| OE5MMP-10 | 2026-08-31 06:16:58 | 48.30315 | 12.90458 | 61° | 60km/h | 4875m | -3.8m/s | -6.5°C | 95.0% | 565.2hPa | 2.7V | 00:51:29 | 02:49:17 | 00:00:00 | |
| OE5DRO-10 | 2026-08-31 06:16:56 | 48.30300 | 12.90417 | 62° | 58km/h | 4883m | -3.6m/s | -6.5°C | 94.7% | 564.5hPa | 2.7V | 00:51:31 | 00:00:00 | 00:00:00 | |
| OE5MMP-10 | 2026-08-31 06:16:48 | 48.30245 | 12.90257 | 65° | 55km/h | 4915m | -3.8m/s | -6.7°C | 94.7% | 562.4hPa | 2.7V | 00:51:39 | 02:49:07 | 00:00:00 | |
| OE5REO-15 | 2026-08-31 06:16:47 | 48.30245 | 12.90257 | 66° | 58km/h | 4915m | -3.9m/s | -6.7°C | 91.6% | 562.5hPa | 2.7V | 00:52:00 | 00:00:00 | 00:00:00 | |
| OE5WHR-10 | 2026-08-31 06:16:46 | 48.30234 | 12.90217 | 66° | 51km/h | 4922m | -3.9m/s | -6.7°C | 94.9% | 561.8hPa | 2.7V | 00:51:41 | 00:00:00 | 00:00:00 | |
| OE5GOL-10 | 2026-08-31 06:16:41 | 48.30205 | 12.90122 | 66° | 49km/h | 4941m | -3.7m/s | -6.9°C | 95.7% | 560.4hPa | 2.7V | 00:51:46 | 02:49:00 | 00:00:00 | |
| PG1ADW-2 | 2026-08-31 06:16:40 | 48.30200 | 12.90103 | 66° | 47km/h | 4945m | -3.8m/s | -6.9°C | 95.9% | 560.2hPa | 2.7V | 00:51:47 | 00:00:00 | 00:00:00 | |
| OE5MMP-10 | 2026-08-31 06:16:38 | 48.30189 | 12.90067 | 67° | 47km/h | 4953m | -3.8m/s | -6.9°C | 95.8% | 559.6hPa | 2.7V | 00:51:49 | 02:48:57 | 00:00:00 | |
| OE3JTB-15 | 2026-08-31 06:16:35 | 48.30173 | 12.90016 | 65° | 49km/h | 4964m | -3.4m/s | -7.0°C | 96.1% | 558.8hPa | 2.7V | 00:51:52 | 02:48:54 | 00:00:00 | |
| OE5REO-15 | 2026-08-31 06:16:31 | 48.30157 | 12.89968 | 63° | 46km/h | 4975m | -4.0m/s | -7.1°C | 92.9% | 558.2hPa | 2.7V | 00:52:00 | 00:00:00 | 00:00:00 | |
| DO3MHA-11 | 2026-08-31 06:16:29 | 48.30140 | 12.89923 | 60° | 49km/h | 4987m | -3.9m/s | -7.1°C | 95.6% | 557.1hPa | 2.7V | 00:51:58 | 02:48:48 | 00:00:00 | |
| OE5MMP-10 | 2026-08-31 06:16:28 | 48.30134 | 12.89908 | 58° | 49km/h | 4991m | -4.2m/s | -7.1°C | 95.3% | 556.8hPa | 2.7V | 00:51:59 | 02:48:47 | 00:00:00 | |
| OE5DRO-10 | 2026-08-31 06:16:24 | 48.30107 | 12.89850 | 54° | 51km/h | 5008m | -4.1m/s | -7.2°C | 95.3% | 555.7hPa | 2.7V | 00:52:03 | 00:00:00 | 00:00:00 | |
| DO3MHA-12 | 2026-08-31 06:16:21 | 48.30084 | 12.89806 | 52° | 53km/h | 5020m | -4.2m/s | -7.2°C | 95.0% | 554.9hPa | 2.6V | 00:52:06 | 02:48:40 | 00:00:00 | |
| PG1ADW-2 | 2026-08-31 06:16:20 | 48.30076 | 12.89791 | 52° | 55km/h | 5025m | -4.0m/s | -7.2°C | 94.8% | 554.4hPa | 2.6V | 00:52:07 | 00:00:00 | 00:00:00 | |
| DB0NH | 2026-08-31 06:16:19 | 48.30068 | 12.89776 | 51° | 60km/h | 5029m | -3.9m/s | -7.3°C | 94.8% | 554.2hPa | 2.7V | 00:52:08 | 02:48:38 | 00:00:00 | |
| OE5MMP-10 | 2026-08-31 06:16:18 | 48.30059 | 12.89760 | 51° | 53km/h | 5033m | -4.1m/s | -7.3°C | 94.7% | 553.8hPa | 2.7V | 00:52:09 | 02:48:37 | 00:00:00 | |
| DO3MHA-11 | 2026-08-31 06:16:16 | 48.30042 | 12.89730 | 51° | 55km/h | 5041m | -4.4m/s | -7.3°C | 93.6% | 553.3hPa | 2.6V | 00:52:11 | 02:48:35 | 00:00:00 | |
| DL6DJ-15 | 2026-08-31 06:16:12 | 48.29999 | 12.89653 | 49° | 53km/h | 5063m | -4.3m/s | -7.5°C | 90.9% | 551.9hPa | 2.6V | 00:00:00 | 00:00:00 | 00:00:00 | |
| OE5GOL-10 | 2026-08-31 06:16:11 | 48.29999 | 12.89653 | 50° | 62km/h | 5063m | -4.3m/s | -7.5°C | 94.2% | 551.9hPa | 2.6V | 00:52:16 | 02:48:30 | 00:00:00 | |
| OE5MMP-10 | 2026-08-31 06:16:08 | 48.29972 | 12.89605 | 50° | 60km/h | 5076m | -4.1m/s | -7.6°C | 95.0% | 550.8hPa | 2.6V | 00:52:19 | 02:48:27 | 00:00:00 | |
| DO3MHA-11 | 2026-08-31 06:16:06 | 48.29954 | 12.89572 | 51° | 60km/h | 5084m | -4.0m/s | -7.6°C | 95.5% | 550.4hPa | 2.6V | 00:52:21 | 02:48:25 | 00:00:00 | |
| DO3MHA-12 | 2026-08-31 06:16:01 | 48.29906 | 12.89485 | 51° | 64km/h | 5104m | -4.0m/s | -7.8°C | 96.5% | 548.8hPa | 2.6V | 00:52:26 | 02:48:20 | 00:00:00 | |
| PG1ADW-2 | 2026-08-31 06:16:00 | 48.29896 | 12.89467 | 51° | 66km/h | 5108m | -4.0m/s | -7.8°C | 97.3% | 548.5hPa | 2.7V | 00:52:27 | 02:48:19 | 00:00:00 | |
| OE5DXL-15 | 2026-08-31 06:15:59 | 48.29886 | 12.89449 | 52° | 68km/h | 5112m | -3.8m/s | -7.8°C | 97.2% | 548.2hPa | 2.7V | 00:52:28 | 00:00:00 | 00:00:00 | |
| OE5MMP-10 | 2026-08-31 06:15:58 | 48.29876 | 12.89430 | 52° | 66km/h | 5116m | -3.9m/s | -7.9°C | 97.7% | 547.9hPa | 2.6V | 00:52:29 | 02:48:17 | 00:00:00 | |
| DO3MHA-11 | 2026-08-31 06:15:56 | 48.29856 | 12.89392 | 53° | 66km/h | 5124m | -4.0m/s | -7.9°C | 97.0% | 547.4hPa | 2.6V | 00:52:31 | 02:48:15 | 00:00:00 | |
| OE5WHR-10 | 2026-08-31 06:15:55 | 48.29847 | 12.89372 | 54° | 66km/h | 5129m | -4.2m/s | -7.9°C | 97.2% | 547.3hPa | 2.7V | 00:52:32 | 00:00:00 | 00:00:00 | |
| OE5DRO-10 | 2026-08-31 06:15:52 | 48.29817 | 12.89312 | 55° | 68km/h | 5141m | -4.2m/s | -8.0°C | 96.8% | 546.2hPa | 2.7V | 00:52:35 | 00:00:00 | 00:00:00 | |
| DO3MHA-12 | 2026-08-31 06:15:50 | 48.29798 | 12.89271 | 55° | 68km/h | 5149m | -4.0m/s | -8.0°C | 97.0% | 545.7hPa | 2.7V | 00:52:37 | 02:48:09 | 00:00:00 | |
| OE5MMP-10 | 2026-08-31 06:15:48 | 48.29778 | 12.89230 | 55° | 68km/h | 5158m | -4.2m/s | -8.1°C | 97.4% | 545.2hPa | 2.7V | 00:52:39 | 02:48:07 | 00:00:00 | |
| DB0NH | 2026-08-31 06:15:46 | 48.29758 | 12.89189 | 54° | 62km/h | 5166m | -4.3m/s | -8.2°C | 97.7% | 544.5hPa | 2.7V | 00:52:41 | 02:48:05 | 00:00:00 | |
| OE5GOL-10 | 2026-08-31 06:15:41 | 48.29706 | 12.89088 | 52° | 66km/h | 5188m | -4.7m/s | -8.3°C | 98.1% | 542.9hPa | 2.7V | 00:52:46 | 02:48:00 | 00:00:00 | |
| DO3MHA-12 | 2026-08-31 06:15:40 | 48.29695 | 12.89068 | 52° | 69km/h | 5193m | -4.6m/s | -8.4°C | 98.4% | 542.6hPa | 2.7V | 00:52:47 | 02:47:59 | 00:00:00 | |
| OE5WHR-10 | 2026-08-31 06:15:38 | 48.29674 | 12.89029 | 52° | 69km/h | 5202m | -4.8m/s | -8.4°C | 97.6% | 542.0hPa | 2.7V | 00:52:49 | 02:47:57 | 00:00:00 | |
| OE3JTB-15 | 2026-08-31 06:15:37 | 48.29664 | 12.89009 | 52° | 66km/h | 5207m | -4.3m/s | -8.4°C | 96.9% | 541.7hPa | 2.7V | 00:52:50 | 00:00:00 | 00:00:00 | |
| DO3MHA-11 | 2026-08-31 06:15:36 | 48.29653 | 12.88989 | 52° | 71km/h | 5211m | -4.5m/s | -8.4°C | 97.1% | 541.3hPa | 2.7V | 00:52:51 | 02:47:55 | 00:00:00 | |
| DO3MHA-12 | 2026-08-31 06:15:30 | 48.29589 | 12.88861 | 57° | 69km/h | 5238m | -4.2m/s | -8.4°C | 96.7% | 539.5hPa | 2.7V | 00:52:57 | 02:47:49 | 00:00:00 | |
| OE5DXL-15 | 2026-08-31 06:15:29 | 48.29580 | 12.88838 | 58° | 64km/h | 5242m | -4.1m/s | -8.4°C | 96.2% | 539.1hPa | 2.6V | 00:52:58 | 00:00:00 | 00:00:00 | |
| OE5MMP-10 | 2026-08-31 06:15:28 | 48.29570 | 12.88815 | 59° | 68km/h | 5246m | -4.0m/s | -8.5°C | 96.1% | 538.9hPa | 2.6V | 00:52:59 | 02:47:47 | 00:00:00 | |
| DO3MHA-11 | 2026-08-31 06:15:26 | 48.29552 | 12.88768 | 62° | 66km/h | 5254m | -4.1m/s | -8.6°C | 96.7% | 538.4hPa | 2.6V | 00:53:01 | 02:47:45 | 00:00:00 | |
| OE5WHR-10 | 2026-08-31 06:15:21 | 48.29512 | 12.88653 | 63° | 60km/h | 5275m | -4.5m/s | -8.6°C | 93.3% | 536.9hPa | 2.7V | 00:53:06 | 00:00:00 | 00:00:00 | |
| DO3MHA-12 | 2026-08-31 06:15:20 | 48.29505 | 12.88630 | 63° | 60km/h | 5280m | -4.5m/s | -8.6°C | 93.5% | 536.6hPa | 2.7V | 00:53:07 | 02:47:39 | 00:00:00 | |
| DO3MHA-11 | 2026-08-31 06:15:16 | 48.29474 | 12.88547 | 60° | 58km/h | 5297m | -4.2m/s | -8.7°C | 95.4% | 535.4hPa | 2.7V | 00:53:11 | 02:47:35 | 00:00:00 | |
| OE5REO-15 | 2026-08-31 06:15:14 | 48.29467 | 12.88528 | 60° | 58km/h | 5301m | -4.2m/s | -8.8°C | 91.6% | 535.2hPa | 2.7V | 00:00:00 | 00:00:00 | 00:00:00 | |
| DO3MHA-12 | 2026-08-31 06:15:10 | 48.29425 | 12.88437 | 53° | 62km/h | 5322m | -4.2m/s | -8.9°C | 94.7% | 533.7hPa | 2.7V | 00:53:17 | 02:47:29 | 00:00:00 | |
| OE5MMP-10 | 2026-08-31 06:15:08 | 48.29407 | 12.88403 | 51° | 64km/h | 5330m | -4.6m/s | -8.9°C | 95.0% | 533.1hPa | 2.7V | 00:53:19 | 02:47:27 | 00:00:00 | |
| DB0NH | 2026-08-31 06:15:07 | 48.29397 | 12.88386 | 49° | 69km/h | 5335m | -4.7m/s | -9.0°C | 95.1% | 532.9hPa | 2.7V | 00:53:20 | 02:47:26 | 00:00:00 | |
| DO3MHA-11 | 2026-08-31 06:15:06 | 48.29387 | 12.88369 | 48° | 66km/h | 5339m | -4.4m/s | -9.0°C | 95.5% | 532.6hPa | 2.7V | 00:53:21 | 02:47:25 | 00:00:00 | |
| OE5WHR-10 | 2026-08-31 06:15:04 | 48.29366 | 12.88334 | 47° | 71km/h | 5348m | -4.4m/s | -9.1°C | 95.7% | 531.8hPa | 2.7V | 00:53:23 | 00:00:00 | 00:00:00 | |
| DO3MHA-12 | 2026-08-31 06:15:00 | 48.29321 | 12.88262 | 48° | 71km/h | 5366m | -4.1m/s | -9.2°C | 96.4% | 530.7hPa | 2.7V | 00:53:27 | 02:47:19 | 00:00:00 | |
| OE5DXL-15 | 2026-08-31 06:14:59 | 48.29309 | 12.88243 | 48° | 75km/h | 5370m | -4.1m/s | -9.3°C | 96.8% | 530.4hPa | 2.6V | 00:53:28 | 00:00:00 | 00:00:00 | |
| OE5MMP-10 | 2026-08-31 06:14:58 | 48.29297 | 12.88224 | 48° | 73km/h | 5374m | -4.0m/s | -9.3°C | 97.0% | 530.1hPa | 2.6V | 00:53:29 | 02:47:17 | 00:00:00 | |
| DO3MHA-11 | 2026-08-31 06:14:56 | 48.29272 | 12.88184 | 48° | 75km/h | 5382m | -4.0m/s | -9.4°C | 97.7% | 529.6hPa | 2.6V | 00:53:31 | 02:47:15 | 00:00:00 | |
| OE5REO-15 | 2026-08-31 06:14:52 | 48.29236 | 12.88121 | 51° | 75km/h | 5394m | -4.5m/s | -9.5°C | 94.3% | 528.7hPa | 2.7V | 00:54:00 | 00:00:00 | 00:00:00 | |
| DO3MHA-12 | 2026-08-31 06:14:50 | 48.29200 | 12.88055 | 52° | 77km/h | 5407m | -4.7m/s | -9.6°C | 99.0% | 527.9hPa | 2.7V | 00:53:37 | 02:47:09 | 00:00:00 | |
| OE5MMP-10 | 2026-08-31 06:14:48 | 48.29176 | 12.88010 | 53° | 77km/h | 5417m | -5.0m/s | -9.7°C | 98.9% | 527.3hPa | 2.7V | 00:53:39 | 02:47:07 | 00:00:00 | |
| OE5WHR-10 | 2026-08-31 06:14:47 | 48.29164 | 12.87987 | 53° | 75km/h | 5421m | -4.6m/s | -9.7°C | 98.2% | 526.7hPa | 2.6V | 00:53:40 | 02:47:06 | 00:00:00 | |
| DO3MHA-11 | 2026-08-31 06:14:46 | 48.29153 | 12.87963 | 54° | 77km/h | 5426m | -4.6m/s | -9.7°C | 97.8% | 526.6hPa | 2.6V | 00:53:41 | 02:47:05 | 00:00:00 | |
| OE5GOL-10 | 2026-08-31 06:14:41 | 48.29097 | 12.87842 | 59° | 66km/h | 5448m | -4.2m/s | -9.9°C | 98.2% | 525.1hPa | 2.6V | 00:53:46 | 02:47:00 | 00:00:00 | |
| DO3MHA-12 | 2026-08-31 06:14:40 | 48.29087 | 12.87817 | 60° | 75km/h | 5452m | -4.2m/s | -9.9°C | 97.5% | 524.8hPa | 2.6V | 00:53:47 | 02:46:59 | 00:00:00 | |
| OE3JTB-15 | 2026-08-31 06:14:39 | 48.29077 | 12.87792 | 61° | 66km/h | 5456m | -4.1m/s | -10.0°C | 97.2% | 524.5hPa | 2.6V | 00:53:48 | 00:00:00 | 00:00:00 | |
| OE5MMP-10 | 2026-08-31 06:14:38 | 48.29068 | 12.87766 | 62° | 73km/h | 5460m | -4.0m/s | -10.0°C | 94.4% | 524.3hPa | 2.7V | 00:53:49 | 02:46:57 | 00:00:00 | |
| DO3MHA-11 | 2026-08-31 06:14:36 | 48.29050 | 12.87715 | 63° | 69km/h | 5468m | -4.2m/s | -10.0°C | 93.6% | 523.6hPa | 2.7V | 00:53:51 | 02:46:55 | 00:00:00 | |
| OE5REO-15 | 2026-08-31 06:14:34 | 48.29041 | 12.87689 | 64° | 75km/h | 5473m | -4.3m/s | -10.1°C | 90.2% | 523.4hPa | 2.7V | 00:54:00 | 00:00:00 | 00:00:00 | |
| OE5DRO-10 | 2026-08-31 06:14:32 | 48.29017 | 12.87616 | 65° | 64km/h | 5485m | -4.2m/s | -10.2°C | 94.4% | 522.4hPa | 2.7V | 00:53:55 | 00:00:00 | 00:00:00 | |
| DO3MHA-12 | 2026-08-31 06:14:30 | 48.29003 | 12.87568 | 66° | 64km/h | 5494m | -4.1m/s | -10.2°C | 93.6% | 521.9hPa | 2.7V | 00:53:57 | 02:46:49 | 00:00:00 | |
| OE5DXL-15 | 2026-08-31 06:14:29 | 48.28995 | 12.87545 | 66° | 64km/h | 5498m | -4.2m/s | -10.3°C | 93.8% | 521.7hPa | 2.7V | 00:53:58 | 00:00:00 | 00:00:00 | |
| OE5MMP-10 | 2026-08-31 06:14:28 | 48.28988 | 12.87522 | 66° | 62km/h | 5502m | -4.3m/s | -10.3°C | 93.9% | 521.4hPa | 2.6V | 00:53:59 | 02:46:47 | 00:00:00 | |
| DO3MHA-11 | 2026-08-31 06:14:26 | 48.28975 | 12.87476 | 67° | 62km/h | 5511m | -4.3m/s | -10.4°C | 94.0% | 520.8hPa | 2.6V | 00:54:01 | 02:46:45 | 00:00:00 | |
| DO3MHA-12 | 2026-08-31 06:14:20 | 48.28936 | 12.87347 | 64° | 58km/h | 5536m | -4.2m/s | -10.6°C | 94.4% | 519.2hPa | 2.7V | 00:54:07 | 02:46:39 | 00:00:00 | |
| OE5MMP-10 | 2026-08-31 06:14:18 | 48.28922 | 12.87307 | 62° | 58km/h | 5545m | -4.2m/s | -10.6°C | 95.2% | 518.4hPa | 2.7V | 00:54:09 | 02:46:37 | 00:00:00 | |
| OE5REO-15 | 2026-08-31 06:14:17 | 48.28921 | 12.87307 | 63° | 58km/h | 5545m | -4.3m/s | -10.7°C | 91.5% | 518.5hPa | 2.7V | 00:54:00 | 00:00:00 | 00:00:00 | |
| DO3MHA-11 | 2026-08-31 06:14:16 | 48.28907 | 12.87269 | 60° | 60km/h | 5554m | -4.3m/s | -10.7°C | 95.3% | 517.8hPa | 2.7V | 00:54:11 | 02:46:35 | 00:00:00 | |
| OE5WHR-10 | 2026-08-31 06:14:13 | 48.28884 | 12.87213 | 57° | 68km/h | 5567m | -4.1m/s | -10.7°C | 86.6% | 517.0hPa | 2.7V | 00:54:14 | 00:00:00 | 00:00:00 | |
| OE5GOL-10 | 2026-08-31 06:14:11 | 48.28867 | 12.87175 | 56° | 71km/h | 5575m | -4.2m/s | -10.8°C | 87.3% | 516.4hPa | 2.7V | 00:54:16 | 02:46:30 | 00:00:00 | |
| OE3JTB-15 | 2026-08-31 06:14:10 | 48.28858 | 12.87157 | 55° | 71km/h | 5579m | -4.1m/s | -10.8°C | 86.7% | 516.2hPa | 2.7V | 00:54:17 | 00:00:00 | 00:00:00 | |
| OE5MMP-10 | 2026-08-31 06:14:08 | 48.28839 | 12.87119 | 53° | 68km/h | 5588m | -3.8m/s | -10.9°C | 86.9% | 515.6hPa | 2.7V | 00:54:19 | 02:46:27 | 00:00:00 | |
| DL6DJ-15 | 2026-08-31 06:14:07 | 48.28830 | 12.87100 | 52° | 64km/h | 5592m | -4.2m/s | -11.0°C | 85.4% | 515.5hPa | 2.7V | 00:00:00 | 00:00:00 | 00:00:00 | |
| DO3MHA-11 | 2026-08-31 06:14:06 | 48.28820 | 12.87081 | 53° | 69km/h | 5596m | -4.2m/s | -11.0°C | 89.4% | 515.2hPa | 2.7V | 00:54:21 | 02:46:25 | 00:00:00 | |
| OE5REO-15 | 2026-08-31 06:14:01 | 48.28778 | 12.86999 | 54° | 69km/h | 5612m | -3.9m/s | -11.2°C | 84.1% | 514.0hPa | 2.7V | 00:55:00 | 00:00:00 | 00:00:00 | |
| DO3MHA-12 | 2026-08-31 06:14:00 | 48.28757 | 12.86957 | 54° | 73km/h | 5620m | -3.9m/s | -11.2°C | 88.7% | 513.4hPa | 2.7V | 00:54:27 | 02:46:19 | 00:00:00 | |
| OE5DXL-15 | 2026-08-31 06:13:59 | 48.28746 | 12.86936 | 55° | 71km/h | 5624m | -4.0m/s | -11.2°C | 88.6% | 513.2hPa | 2.7V | 00:54:28 | 00:00:00 | 00:00:00 | |
| OE5MMP-10 | 2026-08-31 06:13:58 | 48.28736 | 12.86914 | 55° | 73km/h | 5628m | -3.8m/s | -11.3°C | 89.1% | 512.8hPa | 2.7V | 00:54:29 | 02:46:17 | 00:00:00 | |
| OE5DRO-10 | 2026-08-31 06:13:57 | 48.28725 | 12.86892 | 56° | 73km/h | 5632m | -4.0m/s | -11.3°C | 86.6% | 512.7hPa | 2.7V | 00:54:30 | 00:00:00 | 00:00:00 | |
| DO3MHA-11 | 2026-08-31 06:13:56 | 48.28715 | 12.86869 | 57° | 75km/h | 5636m | -4.1m/s | -11.4°C | 83.5% | 512.4hPa | 2.7V | 00:54:31 | 02:46:15 | 00:00:00 | |
| OE5WHR-10 | 2026-08-31 06:13:52 | 48.28675 | 12.86776 | 59° | 71km/h | 5652m | -3.9m/s | -11.4°C | 92.4% | 511.3hPa | 2.7V | 00:54:35 | 02:46:11 | 00:00:00 | |
| DO3MHA-12 | 2026-08-31 06:13:50 | 48.28656 | 12.86727 | 61° | 75km/h | 5660m | -3.9m/s | -11.5°C | 87.7% | 510.8hPa | 2.7V | 00:54:37 | 02:46:09 | 00:00:00 | |
| OE5MMP-10 | 2026-08-31 06:13:48 | 48.28638 | 12.86676 | 63° | 73km/h | 5667m | -3.8m/s | -11.6°C | 86.2% | 510.4hPa | 2.7V | 00:54:39 | 02:46:07 | 00:00:00 | |
| DO3MHA-11 | 2026-08-31 06:13:46 | 48.28621 | 12.86626 | 64° | 73km/h | 5675m | -4.0m/s | -11.7°C | 89.7% | 509.8hPa | 2.6V | 00:54:41 | 02:46:05 | 00:00:00 | |
| OE5HKT-10 | 2026-08-31 06:13:43 | 48.28596 | 12.86549 | 66° | 66km/h | 5687m | -4.1m/s | -11.8°C | 89.2% | 508.9hPa | 2.6V | 00:54:44 | 02:46:02 | 00:00:00 | |
| OE5GOL-10 | 2026-08-31 06:13:41 | 48.28582 | 12.86499 | 67° | 68km/h | 5696m | -4.2m/s | -11.8°C | 87.4% | 508.5hPa | 2.6V | 00:54:46 | 02:46:00 | 00:00:00 | |
| DO3MHA-12 | 2026-08-31 06:13:40 | 48.28574 | 12.86473 | 68° | 68km/h | 5700m | -4.1m/s | -11.9°C | 87.7% | 508.1hPa | 2.6V | 00:54:47 | 02:45:59 | 00:00:00 | |
| OE5MMP-10 | 2026-08-31 06:13:38 | 48.28561 | 12.86424 | 69° | 66km/h | 5709m | -4.4m/s | -12.0°C | 87.7% | 507.6hPa | 2.6V | 00:54:49 | 02:45:57 | 00:00:00 | |
| DO3MHA-11 | 2026-08-31 06:13:36 | 48.28548 | 12.86375 | 70° | 64km/h | 5717m | -4.3m/s | -12.1°C | 86.6% | 507.0hPa | 2.6V | 00:54:51 | 02:45:55 | 00:00:00 | |
| OE5WHR-10 | 2026-08-31 06:13:31 | 48.28518 | 12.86257 | 69° | 68km/h | 5738m | -4.0m/s | -12.3°C | 82.8% | 505.6hPa | 2.6V | 00:54:56 | 00:00:00 | 00:00:00 | |
| DO3MHA-12 | 2026-08-31 06:13:30 | 48.28512 | 12.86234 | 69° | 60km/h | 5742m | -4.2m/s | -12.3°C | 82.5% | 505.3hPa | 2.6V | 00:54:57 | 02:45:49 | 00:00:00 | |
| OE5DXL-15 | 2026-08-31 06:13:29 | 48.28506 | 12.86212 | 68° | 69km/h | 5747m | -4.1m/s | -12.3°C | 82.9% | 505.1hPa | 2.7V | 00:54:58 | 00:00:00 | 00:00:00 | |
| OE5MMP-10 | 2026-08-31 06:13:28 | 48.28500 | 12.86191 | 67° | 62km/h | 5751m | -3.9m/s | -12.4°C | 83.4% | 504.8hPa | 2.7V | 00:54:59 | 02:45:47 | 00:00:00 | |
| DO3MHA-11 | 2026-08-31 06:13:26 | 48.28487 | 12.86150 | 65° | 64km/h | 5759m | -4.1m/s | -12.4°C | 84.3% | 504.3hPa | 2.7V | 00:55:01 | 02:45:45 | 00:00:00 | |
| OE5HKT-10 | 2026-08-31 06:13:21 | 48.28449 | 12.86050 | 58° | 64km/h | 5779m | -4.0m/s | -12.5°C | 86.8% | 502.9hPa | 2.7V | 00:55:06 | 00:00:00 | 00:00:00 | |
| DO3MHA-12 | 2026-08-31 06:13:20 | 48.28440 | 12.86029 | 57° | 73km/h | 5783m | -4.0m/s | -12.5°C | 87.3% | 502.7hPa | 2.7V | 00:55:07 | 02:45:39 | 00:00:00 | |
| OE5DRO-10 | 2026-08-31 06:13:19 | 48.28430 | 12.86008 | 57° | 75km/h | 5787m | -3.9m/s | -12.5°C | 88.3% | 502.6hPa | 2.7V | 00:55:08 | 00:00:00 | 00:00:00 | |
| OE5MMP-10 | 2026-08-31 06:13:18 | 48.28421 | 12.85986 | 57° | 75km/h | 5791m | -3.7m/s | -12.6°C | 88.1% | 502.1hPa | 2.7V | 00:55:09 | 02:45:37 | 00:00:00 | |
| DO3MHA-11 | 2026-08-31 06:13:16 | 48.28401 | 12.85941 | 58° | 77km/h | 5798m | -3.8m/s | -12.6°C | 88.4% | 501.8hPa | 2.7V | 00:55:11 | 02:45:35 | 00:00:00 | |
| OE5REO-15 | 2026-08-31 06:13:14 | 48.28391 | 12.85917 | 59° | 75km/h | 5802m | -3.7m/s | -12.7°C | 84.6% | 501.5hPa | 2.7V | 00:55:00 | 00:00:00 | 00:00:00 | |
| OE3JTB-15 | 2026-08-31 06:13:12 | 48.28362 | 12.85843 | 61° | 68km/h | 5813m | -3.5m/s | -12.7°C | 89.4% | 500.8hPa | 2.7V | 00:55:15 | 00:00:00 | 00:00:00 | |
| OE5GOL-10 | 2026-08-31 06:13:11 | 48.28352 | 12.85817 | 62° | 68km/h | 5816m | -3.8m/s | -12.7°C | 90.3% | 500.5hPa | 2.7V | 00:55:16 | 02:45:30 | 00:00:00 | |
| DO3MHA-12 | 2026-08-31 06:13:10 | 48.28343 | 12.85791 | 64° | 75km/h | 5820m | -3.7m/s | -12.8°C | 90.4% | 500.2hPa | 2.7V | 00:55:17 | 02:45:29 | 00:00:00 | |
| OE5MMP-10 | 2026-08-31 06:13:08 | 48.28327 | 12.85738 | 66° | 73km/h | 5828m | -3.9m/s | -12.8°C | 91.0% | 499.7hPa | 2.7V | 00:55:19 | 02:45:27 | 00:00:00 | |
| DO3MHA-11 | 2026-08-31 06:13:06 | 48.28311 | 12.85685 | 68° | 71km/h | 5836m | -3.9m/s | -12.9°C | 91.0% | 499.2hPa | 2.7V | 00:55:21 | 02:45:25 | 00:00:00 | |
| NBG1-10 | 2026-08-31 06:13:05 | 48.28304 | 12.85658 | 69° | 68km/h | 5840m | -3.8m/s | -12.9°C | 90.9% | 499.0hPa | 2.7V | 00:55:22 | 02:45:24 | 00:00:00 | |
| DO3MHA-12 | 2026-08-31 06:13:00 | 48.28273 | 12.85527 | 72° | 66km/h | 5858m | -3.7m/s | -13.2°C | 90.5% | 497.7hPa | 2.7V | 00:55:27 | 02:45:19 | 00:00:00 | |
| OE5DXL-15 | 2026-08-31 06:12:59 | 48.28268 | 12.85502 | 73° | 66km/h | 5861m | -3.7m/s | -13.1°C | 92.1% | 497.5hPa | 2.7V | 00:55:28 | 00:00:00 | 00:00:00 | |
| OE5MMP-10 | 2026-08-31 06:12:58 | 48.28263 | 12.85477 | 73° | 64km/h | 5865m | -4.0m/s | -13.2°C | 92.1% | 497.2hPa | 2.7V | 00:55:29 | 02:45:17 | 00:00:00 | |
| DO3MHA-11 | 2026-08-31 06:12:56 | 48.28253 | 12.85429 | 73° | 62km/h | 5873m | -3.9m/s | -13.2°C | 92.4% | 496.8hPa | 2.7V | 00:55:31 | 02:45:15 | 00:00:00 | |
| DO3MHA-12 | 2026-08-31 06:12:50 | 48.28222 | 12.85293 | 70° | 60km/h | 5897m | -3.8m/s | -13.4°C | 94.1% | 495.2hPa | 2.7V | 00:55:37 | 02:45:09 | 00:00:00 | |
| OE5WHR-10 | 2026-08-31 06:12:49 | 48.28216 | 12.85273 | 69° | 68km/h | 5901m | -3.7m/s | -13.4°C | 94.2% | 494.9hPa | 2.7V | 00:55:38 | 02:45:08 | 00:00:00 | |
| OE5MMP-10 | 2026-08-31 06:12:48 | 48.28211 | 12.85252 | 68° | 60km/h | 5904m | -3.7m/s | -13.4°C | 94.0% | 494.8hPa | 2.7V | 00:55:39 | 02:45:07 | 00:00:00 | |
| DO3MHA-11 | 2026-08-31 06:12:46 | 48.28199 | 12.85211 | 66° | 64km/h | 5912m | -4.0m/s | -13.5°C | 94.1% | 494.3hPa | 2.6V | 00:55:41 | 02:45:05 | 00:00:00 | |
| OE3JTB-15 | 2026-08-31 06:12:43 | 48.28179 | 12.85153 | 61° | 68km/h | 5922m | -3.4m/s | -13.6°C | 95.2% | 493.5hPa | 2.6V | 00:55:44 | 00:00:00 | 00:00:00 | |
| OE5GOL-10 | 2026-08-31 06:12:41 | 48.28163 | 12.85112 | 59° | 66km/h | 5930m | -3.3m/s | -13.7°C | 95.8% | 493.0hPa | 2.6V | 00:55:46 | 02:45:00 | 00:00:00 | |
| DO3MHA-12 | 2026-08-31 06:12:40 | 48.28154 | 12.85091 | 58° | 71km/h | 5933m | -3.1m/s | -13.7°C | 96.4% | 492.9hPa | 2.7V | 00:55:47 | 02:44:59 | 00:00:00 | |
| OE5MMP-10 | 2026-08-31 06:12:38 | 48.28136 | 12.85048 | 58° | 73km/h | 5940m | -3.5m/s | -13.8°C | 96.0% | 492.5hPa | 2.7V | 00:55:49 | 02:44:57 | 00:00:00 | |
| DO3MHA-11 | 2026-08-31 06:12:36 | 48.28117 | 12.85003 | 59° | 73km/h | 5947m | -3.7m/s | -13.8°C | 96.0% | 491.9hPa | 2.7V | 00:55:51 | 02:44:55 | 00:00:00 | |
| DB0NH | 2026-08-31 06:12:33 | 48.28088 | 12.84932 | 62° | 64km/h | 5958m | -3.6m/s | -13.9°C | 96.4% | 491.2hPa | 2.7V | 00:55:54 | 02:44:52 | 00:00:00 | |
| DO3MHA-12 | 2026-08-31 06:12:30 | 48.28063 | 12.84855 | 67° | 69km/h | 5968m | -3.3m/s | -14.0°C | 98.3% | 490.6hPa | 2.6V | 00:55:57 | 02:44:49 | 00:00:00 | |
| NBG1-10 | 2026-08-31 06:12:29 | 48.28056 | 12.84829 | 68° | 71km/h | 5972m | -3.2m/s | -14.0°C | 98.5% | 490.4hPa | 2.7V | 00:55:58 | 02:44:48 | 00:00:00 | |
| OE5WHR-10 | 2026-08-31 06:12:28 | 48.28049 | 12.84803 | 70° | 62km/h | 5975m | -3.2m/s | -14.1°C | 98.6% | 490.1hPa | 2.7V | 00:55:59 | 00:00:00 | 00:00:00 | |
| OE5REO-15 | 2026-08-31 06:12:27 | 48.28049 | 12.84803 | 71° | 73km/h | 5975m | -3.3m/s | -14.1°C | 94.4% | 490.2hPa | 2.7V | 00:56:00 | 00:00:00 | 00:00:00 | |
| DO3MHA-11 | 2026-08-31 06:12:26 | 48.28037 | 12.84752 | 72° | 62km/h | 5981m | -3.1m/s | -14.1°C | 98.5% | 489.6hPa | 2.7V | 00:56:01 | 02:44:45 | 00:00:00 | |
| OE5DRO-10 | 2026-08-31 06:12:22 | 48.28016 | 12.84656 | 72° | 60km/h | 5994m | -3.2m/s | -14.2°C | 98.0% | 489.0hPa | 2.7V | 00:56:05 | 00:00:00 | 00:00:00 | |
| DO3MHA-12 | 2026-08-31 06:12:20 | 48.28006 | 12.84612 | 71° | 58km/h | 6000m | -2.8m/s | -14.3°C | 99.5% | 488.6hPa | 2.7V | 00:56:07 | 02:44:39 | 00:00:00 | |
| OE5MMP-10 | 2026-08-31 06:12:18 | 48.27996 | 12.84569 | 69° | 58km/h | 6006m | -3.2m/s | -14.3°C | 99.0% | 488.1hPa | 2.7V | 00:56:09 | 02:44:37 | 00:00:00 | |
| OE5HKT-10 | 2026-08-31 06:12:17 | 48.27991 | 12.84549 | 69° | 66km/h | 6009m | -3.3m/s | -14.3°C | 98.7% | 487.9hPa | 2.6V | 00:56:10 | 00:00:00 | 00:00:00 | |
| DO3MHA-11 | 2026-08-31 06:12:16 | 48.27985 | 12.84529 | 67° | 58km/h | 6012m | -3.4m/s | -14.3°C | 97.8% | 487.7hPa | 2.6V | 00:56:11 | 02:44:35 | 00:00:00 | |
| OE3JTB-15 | 2026-08-31 06:12:14 | 48.27973 | 12.84490 | 64° | 68km/h | 6019m | -3.6m/s | -14.4°C | 97.5% | 487.3hPa | 2.6V | 00:56:13 | 02:44:33 | 00:00:00 | |
| OE5GOL-10 | 2026-08-31 06:12:11 | 48.27952 | 12.84433 | 58° | 68km/h | 6029m | -3.3m/s | -14.4°C | 97.6% | 486.6hPa | 2.6V | 00:56:16 | 02:44:30 | 00:00:00 | |
| DO3MHA-12 | 2026-08-31 06:12:10 | 48.27944 | 12.84415 | 57° | 68km/h | 6032m | -3.2m/s | -14.5°C | 97.8% | 486.2hPa | 2.6V | 00:56:17 | 02:44:29 | 00:00:00 | |
| OE5MMP-10 | 2026-08-31 06:12:08 | 48.27927 | 12.84377 | 56° | 69km/h | 6039m | -3.2m/s | -14.5°C | 98.1% | 486.0hPa | 2.6V | 00:56:19 | 02:44:27 | 00:00:00 | |
| OE5WHR-10 | 2026-08-31 06:12:07 | 48.27917 | 12.84357 | 55° | 71km/h | 6042m | -3.6m/s | -14.5°C | 98.5% | 485.8hPa | 2.6V | 00:56:20 | 00:00:00 | 00:00:00 | |
| DO3MHA-11 | 2026-08-31 06:12:06 | 48.27908 | 12.84337 | 55° | 71km/h | 6046m | -3.7m/s | -14.5°C | 99.2% | 485.6hPa | 2.6V | 00:56:21 | 02:44:25 | 00:00:00 | |
| OE5DRO-10 | 2026-08-31 06:12:03 | 48.27878 | 12.84271 | 58° | 71km/h | 6056m | -3.4m/s | -14.6°C | 98.8% | 485.0hPa | 2.6V | 00:56:24 | 00:00:00 | 00:00:00 | |
| DO3MHA-12 | 2026-08-31 06:12:00 | 48.27850 | 12.84201 | 61° | 73km/h | 6066m | -3.2m/s | -14.7°C | 0% | 484.2hPa | 2.7V | 00:56:27 | 02:44:19 | 00:00:00 | |
| OE5DXL-15 | 2026-08-31 06:11:59 | 48.27841 | 12.84176 | 62° | 62km/h | 6069m | -3.2m/s | -14.8°C | 0% | 484.0hPa | 2.7V | 00:56:28 | 00:00:00 | 00:00:00 | |
| DB0NH | 2026-08-31 06:11:58 | 48.27832 | 12.84151 | 63° | 80km/h | 6073m | -3.7m/s | -14.8°C | 0% | 483.8hPa | 2.7V | 00:56:29 | 02:44:17 | 00:00:00 | |
| DO3MHA-11 | 2026-08-31 06:11:56 | 48.27815 | 12.84100 | 64° | 71km/h | 6080m | -3.8m/s | -14.9°C | 0% | 483.4hPa | 2.7V | 00:56:31 | 02:44:15 | 00:00:00 | |
| OE5REO-15 | 2026-08-31 06:11:55 | 48.27815 | 12.84100 | 65° | 75km/h | 6080m | -3.8m/s | -14.9°C | 95.6% | 483.5hPa | 2.6V | 00:56:00 | 00:00:00 | 00:00:00 | |
| DO3MHA-12 | 2026-08-31 06:11:50 | 48.27772 | 12.83949 | 70° | 62km/h | 6102m | -3.6m/s | -15.0°C | 0% | 481.9hPa | 2.6V | 00:56:37 | 02:44:09 | 00:00:00 | |
| OE5MMP-10 | 2026-08-31 06:11:48 | 48.27760 | 12.83900 | 71° | 60km/h | 6109m | -3.8m/s | -15.1°C | 0% | 481.4hPa | 2.6V | 00:56:39 | 02:44:07 | 00:00:00 | |
| OE3JTB-15 | 2026-08-31 06:11:45 | 48.27744 | 12.83833 | 71° | 60km/h | 6120m | -3.7m/s | -15.2°C | 0% | 480.6hPa | 2.7V | 00:56:42 | 00:00:00 | 00:00:00 | |
| NBG1-10 | 2026-08-31 06:11:44 | 48.27739 | 12.83811 | 71° | 58km/h | 6123m | -3.8m/s | -15.2°C | 0% | 480.5hPa | 2.7V | 00:56:43 | 02:44:03 | 00:00:00 | |
| OE5GOL-10 | 2026-08-31 06:11:41 | 48.27725 | 12.83748 | 71° | 62km/h | 6134m | -3.8m/s | -15.3°C | 0% | 479.7hPa | 2.7V | 00:56:46 | 02:44:00 | 00:00:00 | |
| DO3MHA-12 | 2026-08-31 06:11:40 | 48.27720 | 12.83728 | 71° | 55km/h | 6138m | -3.7m/s | -15.4°C | 0% | 479.6hPa | 2.7V | 00:56:47 | 02:43:59 | 00:00:00 | |
| OE5MMP-10 | 2026-08-31 06:11:38 | 48.27710 | 12.83689 | 70° | 55km/h | 6145m | -4.0m/s | -15.4°C | 0% | 479.1hPa | 2.7V | 00:56:49 | 02:43:57 | 00:00:00 | |
| DO3MHA-11 | 2026-08-31 06:11:36 | 48.27700 | 12.83650 | 67° | 55km/h | 6152m | -3.6m/s | -15.5°C | 0% | 478.5hPa | 2.7V | 00:56:51 | 02:43:55 | 00:00:00 | |
| OE5HKT-10 | 2026-08-31 06:11:35 | 48.27694 | 12.83632 | 66° | 75km/h | 6156m | -3.6m/s | -15.5°C | 0% | 478.3hPa | 2.7V | 00:56:52 | 00:00:00 | 00:00:00 | |
| DL6DJ-15 | 2026-08-31 06:11:32 | 48.27676 | 12.83577 | 61° | 53km/h | 6165m | -3.6m/s | -15.6°C | 100.0% | 477.6hPa | 2.7V | 00:00:00 | 00:00:00 | 00:00:00 | |
| DO3MHA-12 | 2026-08-31 06:11:30 | 48.27662 | 12.83541 | 57° | 62km/h | 6173m | -3.5m/s | -15.6°C | 0% | 477.2hPa | 2.7V | 00:56:57 | 02:43:49 | 00:00:00 | |
| OE5DXL-15 | 2026-08-31 06:11:29 | 48.27654 | 12.83523 | 57° | 69km/h | 6176m | -3.7m/s | -15.6°C | 0% | 476.9hPa | 2.7V | 00:56:58 | 00:00:00 | 00:00:00 | |
| DO3MHA-11 | 2026-08-31 06:11:26 | 48.27628 | 12.83468 | 54° | 66km/h | 6187m | -4.0m/s | -15.7°C | 0% | 476.3hPa | 2.6V | 00:57:01 | 02:43:45 | 00:00:00 | |
| OE5WHR-10 | 2026-08-31 06:11:25 | 48.27619 | 12.83450 | 54° | 71km/h | 6191m | -4.6m/s | -15.7°C | 0% | 476.1hPa | 2.7V | 00:57:02 | 00:00:00 | 00:00:00 | |
| DO3MHA-12 | 2026-08-31 06:11:20 | 48.27571 | 12.83349 | 57° | 71km/h | 6211m | -3.5m/s | -15.9°C | 0% | 474.8hPa | 2.6V | 00:57:07 | 02:43:39 | 00:00:00 | |
| OE5MMP-10 | 2026-08-31 06:11:18 | 48.27552 | 12.83306 | 56° | 73km/h | 6218m | -3.7m/s | -15.9°C | 0% | 474.3hPa | 2.6V | 00:57:09 | 02:43:37 | 00:00:00 | |
| DO3MHA-11 | 2026-08-31 06:11:16 | 48.27532 | 12.83262 | 58° | 73km/h | 6225m | -3.8m/s | -16.0°C | 0% | 473.9hPa | 2.6V | 00:57:11 | 02:43:35 | 00:00:00 | |
| OE5GOL-10 | 2026-08-31 06:11:11 | 48.27487 | 12.83143 | 64° | 75km/h | 6244m | -3.9m/s | -16.1°C | 0% | 472.8hPa | 2.6V | 00:57:16 | 02:43:30 | 00:00:00 | |
| DO3MHA-12 | 2026-08-31 06:11:10 | 48.27478 | 12.83118 | 63° | 75km/h | 6248m | -3.9m/s | -16.2°C | 0% | 472.5hPa | 2.6V | 00:57:17 | 02:43:29 | 00:00:00 | |
| OE5REO-15 | 2026-08-31 06:11:09 | 48.27478 | 12.83118 | 63° | 73km/h | 6248m | -4.0m/s | -16.2°C | 0% | 472.6hPa | 2.6V | 00:00:00 | 00:00:00 | 00:00:00 | |
| OE5MMP-10 | 2026-08-31 06:11:08 | 48.27462 | 12.83067 | 66° | 75km/h | 6257m | -4.4m/s | -16.2°C | 0% | 472.0hPa | 2.6V | 00:57:19 | 02:43:27 | 00:00:00 | |
| NBG1-10 | 2026-08-31 06:11:07 | 48.27454 | 12.83042 | 64° | 75km/h | 6261m | -4.8m/s | -16.3°C | 0% | 471.8hPa | 2.6V | 00:57:20 | 02:43:26 | 00:00:00 | |
| DO3MHA-11 | 2026-08-31 06:11:06 | 48.27445 | 12.83016 | 65° | 75km/h | 6266m | -4.6m/s | -16.3°C | 0% | 471.5hPa | 2.6V | 00:57:21 | 02:43:25 | 00:00:00 | |
| OE5WHR-10 | 2026-08-31 06:11:04 | 48.27430 | 12.82964 | 66° | 77km/h | 6275m | -4.1m/s | -16.4°C | 0% | 470.9hPa | 2.6V | 00:57:23 | 00:00:00 | 00:00:00 | |
| DL6DJ-15 | 2026-08-31 06:11:01 | 48.27309 | 12.82570 | 70° | 78km/h | 6323m | -3.3m/s | -16.7°C | 89.4% | 468.1hPa | 2.6V | 00:00:00 | 00:00:00 | 00:00:00 | |
| DO3MHA-12 | 2026-08-31 06:11:00 | 48.27398 | 12.82860 | 64° | 77km/h | 6290m | -2.9m/s | -16.5°C | 0% | 470.0hPa | 2.6V | 00:57:27 | 02:43:19 | 00:00:00 | |
| OE5DXL-15 | 2026-08-31 06:10:59 | 48.27389 | 12.82834 | 63° | 75km/h | 6293m | -2.3m/s | -16.6°C | 0% | 469.8hPa | 2.6V | 00:57:28 | 00:00:00 | 00:00:00 | |
| OE5MMP-10 | 2026-08-31 06:10:58 | 48.27380 | 12.82808 | 64° | 77km/h | 6295m | -2.9m/s | -16.6°C | 0% | 469.6hPa | 2.6V | 00:57:29 | 02:43:17 | 00:00:00 | |
| DO3MHA-11 | 2026-08-31 06:10:56 | 48.27364 | 12.82758 | 64° | 77km/h | 6302m | -3.8m/s | -16.7°C | 0% | 469.4hPa | 2.6V | 00:57:31 | 02:43:15 | 00:00:00 | |
| OE5REO-15 | 2026-08-31 06:10:54 | 48.27355 | 12.82732 | 64° | 75km/h | 6306m | -3.4m/s | -16.7°C | 0% | 469.1hPa | 2.6V | 00:00:00 | 00:00:00 | 00:00:00 | |
| DO3MHA-12 | 2026-08-31 06:10:50 | 48.27316 | 12.82598 | 71° | 75km/h | 6320m | -3.3m/s | -16.7°C | 95.4% | 468.2hPa | 2.6V | 00:57:37 | 02:43:09 | 00:00:00 | |
| OE5MMP-10 | 2026-08-31 06:10:48 | 48.27303 | 12.82541 | 73° | 73km/h | 6326m | -3.2m/s | -16.6°C | 92.6% | 467.7hPa | 2.6V | 00:57:39 | 02:43:07 | 00:00:00 | |
| OE3JTB-15 | 2026-08-31 06:10:47 | 48.27297 | 12.82513 | 75° | 77km/h | 6330m | -3.3m/s | -16.4°C | 87.4% | 467.6hPa | 2.6V | 00:57:40 | 02:43:06 | 00:00:00 | |
| DO3MHA-11 | 2026-08-31 06:10:46 | 48.27292 | 12.82484 | 76° | 71km/h | 6333m | -3.0m/s | -16.1°C | 76.0% | 467.5hPa | 2.6V | 00:57:41 | 02:43:05 | 00:00:00 | |
| OE5WHR-10 | 2026-08-31 06:10:43 | 48.27279 | 12.82402 | 76° | 77km/h | 6343m | -2.9m/s | -15.8°C | 64.6% | 467.0hPa | 2.6V | 00:57:44 | 02:43:02 | 00:00:00 | |
| OE5GOL-10 | 2026-08-31 06:10:41 | 48.27269 | 12.82352 | 73° | 77km/h | 6349m | -3.1m/s | -15.9°C | 65.4% | 466.6hPa | 2.6V | 00:57:46 | 02:43:00 | 00:00:00 | |
| DO3MHA-12 | 2026-08-31 06:10:40 | 48.27263 | 12.82328 | 70° | 73km/h | 6352m | -3.0m/s | -15.9°C | 65.7% | 466.4hPa | 2.6V | 00:57:47 | 02:42:59 | 00:00:00 | |
| OE5MMP-10 | 2026-08-31 06:10:38 | 48.27250 | 12.82282 | 65° | 77km/h | 6358m | -2.9m/s | -15.9°C | 62.7% | 465.8hPa | 2.6V | 00:57:49 | 02:42:57 | 00:00:00 | |
| OE5REO-15 | 2026-08-31 06:10:37 | 48.27250 | 12.82282 | 66° | 68km/h | 6358m | -2.9m/s | -16.0°C | 59.5% | 465.9hPa | 2.6V | 00:58:00 | 00:00:00 | 00:00:00 | |
| DO3MHA-11 | 2026-08-31 06:10:36 | 48.27234 | 12.82235 | 63° | 80km/h | 6364m | -2.8m/s | -16.0°C | 63.3% | 465.5hPa | 2.6V | 00:57:51 | 02:42:55 | 00:00:00 | |
| NBG1-10 | 2026-08-31 06:10:34 | 48.27217 | 12.82185 | 63° | 77km/h | 6370m | -3.0m/s | -16.1°C | 66.5% | 465.2hPa | 2.6V | 00:57:53 | 02:42:53 | 00:00:00 | |
| DO3MHA-12 | 2026-08-31 06:10:30 | 48.27180 | 12.82076 | 65° | 84km/h | 6382m | -2.7m/s | -16.2°C | 65.4% | 464.6hPa | 2.6V | 00:57:57 | 02:42:49 | 00:00:00 | |
| OE5DXL-15 | 2026-08-31 06:10:29 | 48.27172 | 12.82047 | 67° | 75km/h | 6385m | -3.0m/s | -16.1°C | 60.4% | 464.3hPa | 2.6V | 00:57:58 | 00:00:00 | 00:00:00 | |
| OE5MMP-10 | 2026-08-31 06:10:28 | 48.27163 | 12.82018 | 68° | 82km/h | 6388m | -3.3m/s | -16.1°C | 61.9% | 464.1hPa | 2.6V | 00:57:59 | 02:42:47 | 00:00:00 | |
| DO3MHA-11 | 2026-08-31 06:10:26 | 48.27147 | 12.81958 | 70° | 80km/h | 6394m | -2.9m/s | -16.2°C | 61.9% | 463.7hPa | 2.6V | 00:58:01 | 02:42:45 | 00:00:00 | |
| OE5WHR-10 | 2026-08-31 06:10:22 | 48.27121 | 12.81836 | 75° | 71km/h | 6406m | -3.0m/s | -16.4°C | 66.6% | 463.0hPa | 2.7V | 00:58:05 | 00:00:00 | 00:00:00 | |
| DO3MHA-12 | 2026-08-31 06:10:20 | 48.27110 | 12.81777 | 77° | 71km/h | 6412m | -3.0m/s | -16.2°C | 53.6% | 462.6hPa | 2.6V | 00:58:07 | 02:42:39 | 00:00:00 | |
| OE5MMP-10 | 2026-08-31 06:10:18 | 48.27101 | 12.81719 | 78° | 68km/h | 6418m | -3.3m/s | -16.3°C | 53.6% | 462.1hPa | 2.6V | 00:58:09 | 02:42:37 | 00:00:00 | |
| OE5REO-15 | 2026-08-31 06:10:17 | 48.27101 | 12.81719 | 78° | 75km/h | 6418m | -3.4m/s | -16.3°C | 50.8% | 462.2hPa | 2.6V | 00:58:00 | 00:00:00 | 00:00:00 | |
| DO3MHA-11 | 2026-08-31 06:10:16 | 48.27093 | 12.81665 | 78° | 66km/h | 6425m | -3.6m/s | -16.3°C | 53.8% | 461.8hPa | 2.6V | 00:58:11 | 02:42:35 | 00:00:00 | |
| OE5GOL-10 | 2026-08-31 06:10:11 | 48.27071 | 12.81544 | 71° | 71km/h | 6442m | -3.5m/s | -16.4°C | 57.1% | 460.7hPa | 2.6V | 00:58:16 | 02:42:30 | 00:00:00 | |
| DO3MHA-12 | 2026-08-31 06:10:10 | 48.27066 | 12.81522 | 68° | 71km/h | 6446m | -3.5m/s | -16.5°C | 57.0% | 460.5hPa | 2.6V | 00:58:17 | 02:42:29 | 00:00:00 | |
| OE5DRO-10 | 2026-08-31 06:10:09 | 48.27059 | 12.81500 | 66° | 75km/h | 6449m | -3.7m/s | -16.5°C | 57.3% | 460.4hPa | 2.6V | 00:58:18 | 00:00:00 | 00:00:00 | |
| OE5MMP-10 | 2026-08-31 06:10:08 | 48.27052 | 12.81478 | 64° | 75km/h | 6453m | -3.6m/s | -16.5°C | 59.0% | 460.1hPa | 2.6V | 00:58:19 | 02:42:27 | 00:00:00 | |
| DO3MHA-11 | 2026-08-31 06:10:06 | 48.27036 | 12.81432 | 62° | 78km/h | 6460m | -3.6m/s | -16.6°C | 59.1% | 459.7hPa | 2.6V | 00:58:21 | 02:42:25 | 00:00:00 | |
| OE5REO-15 | 2026-08-31 06:10:02 | 48.27002 | 12.81330 | 67° | 80km/h | 6474m | -3.4m/s | -16.8°C | 55.8% | 458.8hPa | 2.6V | 00:58:00 | 00:00:00 | 00:00:00 | |
| DL6DJ-15 | 2026-08-31 06:09:59 | 48.26973 | 12.81216 | 72° | 80km/h | 6487m | -3.7m/s | -16.9°C | 57.0% | 458.1hPa | 2.6V | 00:00:00 | 00:00:00 | 00:00:00 | |
| OE5MMP-10 | 2026-08-31 06:09:58 | 48.26973 | 12.81216 | 73° | 77km/h | 6488m | -3.6m/s | -16.8°C | 60.2% | 458.0hPa | 2.6V | 00:58:29 | 02:42:17 | 00:00:00 | |
| OE5HKT-10 | 2026-08-31 06:09:57 | 48.26967 | 12.81187 | 74° | 69km/h | 6491m | -3.5m/s | -16.9°C | 60.3% | 457.8hPa | 2.6V | 00:58:30 | 02:42:16 | 00:00:00 | |
| DO3MHA-11 | 2026-08-31 06:09:56 | 48.26961 | 12.81158 | 75° | 73km/h | 6495m | -3.6m/s | -16.9°C | 60.2% | 457.5hPa | 2.6V | 00:58:31 | 02:42:15 | 00:00:00 | |
| DO3MHA-12 | 2026-08-31 06:09:50 | 48.26935 | 12.80990 | 79° | 64km/h | 6518m | -4.2m/s | -17.0°C | 58.8% | 456.0hPa | 2.6V | 00:58:37 | 02:42:09 | 00:00:00 | |
| OE3JTB-15 | 2026-08-31 06:09:49 | 48.26932 | 12.80964 | 80° | 71km/h | 6522m | -4.0m/s | -17.1°C | 59.4% | 455.7hPa | 2.6V | 00:58:38 | 00:00:00 | 00:00:00 | |
| OE5MMP-10 | 2026-08-31 06:09:48 | 48.26929 | 12.80939 | 79° | 62km/h | 6526m | -4.4m/s | -17.1°C | 59.5% | 455.5hPa | 2.6V | 00:58:39 | 02:42:07 | 00:00:00 | |
| DO3MHA-11 | 2026-08-31 06:09:46 | 48.26922 | 12.80892 | 76° | 64km/h | 6534m | -3.9m/s | -17.2°C | 59.9% | 455.1hPa | 2.6V | 00:58:41 | 02:42:05 | 00:00:00 | |
| OE5REO-15 | 2026-08-31 06:09:45 | 48.26922 | 12.80892 | 77° | 62km/h | 6534m | -4.0m/s | -17.3°C | 56.7% | 455.2hPa | 2.6V | 00:00:00 | 00:00:00 | 00:00:00 | |
| OE5GOL-10 | 2026-08-31 06:09:41 | 48.26897 | 12.80782 | 65° | 71km/h | 6551m | -3.8m/s | -17.4°C | 55.6% | 453.9hPa | 2.6V | 00:58:46 | 02:42:00 | 00:00:00 | |
| DO3MHA-12 | 2026-08-31 06:09:40 | 48.26890 | 12.80761 | 65° | 75km/h | 6555m | -3.8m/s | -17.4°C | 55.7% | 453.7hPa | 2.6V | 00:58:47 | 02:41:59 | 00:00:00 | |
| OE5MMP-10 | 2026-08-31 06:09:38 | 48.26875 | 12.80716 | 64° | 77km/h | 6562m | -4.0m/s | -17.5°C | 56.2% | 453.3hPa | 2.6V | 00:58:49 | 02:41:57 | 00:00:00 | |
| DO3MHA-11 | 2026-08-31 06:09:36 | 48.26858 | 12.80667 | 65° | 78km/h | 6570m | -4.1m/s | -17.6°C | 57.0% | 452.8hPa | 2.6V | 00:58:51 | 02:41:55 | 00:00:00 | |
| OE5DRO-10 | 2026-08-31 06:09:31 | 48.26822 | 12.80529 | 73° | 73km/h | 6589m | -3.9m/s | -17.7°C | 49.6% | 451.6hPa | 2.6V | 00:58:56 | 00:00:00 | 00:00:00 | |
| DO3MHA-12 | 2026-08-31 06:09:30 | 48.26816 | 12.80500 | 74° | 77km/h | 6593m | -3.9m/s | -17.7°C | 48.3% | 451.4hPa | 2.6V | 00:58:57 | 02:41:49 | 00:00:00 | |
| OE5DXL-15 | 2026-08-31 06:09:29 | 48.26810 | 12.80471 | 76° | 66km/h | 6597m | -4.4m/s | -17.7°C | 46.7% | 450.9hPa | 2.6V | 00:58:58 | 00:00:00 | 00:00:00 | |
| DL6DJ-15 | 2026-08-31 06:09:28 | 48.26801 | 12.80412 | 78° | 77km/h | 6606m | -4.7m/s | -17.9°C | 44.1% | 450.7hPa | 2.6V | 00:00:00 | 00:00:00 | 00:00:00 | |
| DO3MHA-11 | 2026-08-31 06:09:26 | 48.26797 | 12.80383 | 80° | 71km/h | 6611m | -4.3m/s | -17.9°C | 47.0% | 450.3hPa | 2.6V | 00:59:01 | 02:41:45 | 00:00:00 | |
| DO3MHA-12 | 2026-08-31 06:09:20 | 48.26781 | 12.80217 | 82° | 64km/h | 6635m | -4.1m/s | -18.0°C | 44.5% | 448.9hPa | 2.6V | 00:59:07 | 02:41:39 | 00:00:00 | |
| OE5WHR-10 | 2026-08-31 06:09:19 | 48.26779 | 12.80190 | 85° | 62km/h | 6640m | -4.1m/s | -18.0°C | 43.6% | 448.7hPa | 2.6V | 00:59:08 | 00:00:00 | 00:00:00 | |
| OE5MMP-10 | 2026-08-31 06:09:18 | 48.26777 | 12.80164 | 85° | 62km/h | 6644m | -4.4m/s | -18.1°C | 43.6% | 448.3hPa | 2.6V | 00:59:09 | 02:41:37 | 00:00:00 | |
| DO3MHA-11 | 2026-08-31 06:09:16 | 48.26773 | 12.80114 | 86° | 60km/h | 6652m | -4.5m/s | -18.2°C | 43.8% | 447.9hPa | 2.5V | 00:59:11 | 02:41:35 | 00:00:00 | |
| OE5HKT-10 | 2026-08-31 06:09:15 | 48.26772 | 12.80090 | 82° | 60km/h | 6656m | -4.0m/s | -18.2°C | 43.8% | 447.7hPa | 2.5V | 00:59:12 | 00:00:00 | 00:00:00 | |
| OE5DRO-10 | 2026-08-31 06:09:12 | 48.26765 | 12.80020 | 81° | 60km/h | 6668m | -3.8m/s | -18.2°C | 39.4% | 446.9hPa | 2.5V | 00:59:15 | 00:00:00 | 00:00:00 | |
| OE5GOL-10 | 2026-08-31 06:09:11 | 48.26763 | 12.79998 | 82° | 66km/h | 6672m | -4.2m/s | -18.2°C | 37.6% | 446.6hPa | 2.6V | 00:59:16 | 02:41:30 | 00:00:00 | |
| DO3MHA-12 | 2026-08-31 06:09:10 | 48.26760 | 12.79976 | 81° | 62km/h | 6676m | -4.4m/s | -18.2°C | 35.4% | 446.5hPa | 2.6V | 00:59:17 | 02:41:29 | 00:00:00 | |
| OE5MMP-10 | 2026-08-31 06:09:08 | 48.26754 | 12.79932 | 77° | 58km/h | 6685m | -4.1m/s | -18.2°C | 29.6% | 446.0hPa | 2.6V | 00:59:19 | 02:41:27 | 00:00:00 | |
| DO3MHA-11 | 2026-08-31 06:09:06 | 48.26747 | 12.79890 | 77° | 60km/h | 6693m | -4.2m/s | -18.1°C | 26.8% | 445.5hPa | 2.6V | 00:59:21 | 02:41:25 | 00:00:00 | |
| DL6DJ-15 | 2026-08-31 06:08:57 | 48.26681 | 12.79628 | 66° | 68km/h | 6743m | -4.3m/s | -18.5°C | 44.5% | 442.5hPa | 2.6V | 00:00:00 | 00:00:00 | 00:00:00 | |
| DO3MHA-11 | 2026-08-31 06:08:56 | 48.26695 | 12.79674 | 68° | 73km/h | 6735m | -4.0m/s | -18.4°C | 46.3% | 442.9hPa | 2.6V | 00:59:31 | 02:41:15 | 00:00:00 | |
| NBG1-10 | 2026-08-31 06:08:55 | 48.26688 | 12.79651 | 67° | 68km/h | 6739m | -3.8m/s | -18.4°C | 46.6% | 442.7hPa | 2.5V | 00:59:32 | 02:41:14 | 00:00:00 | |
| OE5HKT-10 | 2026-08-31 06:08:54 | 48.26681 | 12.79628 | 67° | 68km/h | 6743m | -4.3m/s | -18.4°C | 47.2% | 442.5hPa | 2.6V | 00:59:33 | 02:41:13 | 00:00:00 | |
| OE5DRO-10 | 2026-08-31 06:08:53 | 48.26675 | 12.79604 | 68° | 68km/h | 6747m | -4.1m/s | -18.5°C | 48.0% | 442.2hPa | 2.6V | 00:59:34 | 00:00:00 | 00:00:00 | |
| OE3JTB-15 | 2026-08-31 06:08:51 | 48.26660 | 12.79554 | 68° | 66km/h | 6755m | -4.0m/s | -18.5°C | 47.3% | 441.6hPa | 2.6V | 00:59:36 | 00:00:00 | 00:00:00 | |
| OE5MMP-10 | 2026-08-31 06:08:48 | 48.26640 | 12.79474 | 72° | 71km/h | 6767m | -4.2m/s | -18.6°C | 43.8% | 441.0hPa | 2.5V | 00:59:39 | 02:41:07 | 00:00:00 | |
| DO3MHA-11 | 2026-08-31 06:08:46 | 48.26629 | 12.79418 | 77° | 60km/h | 6775m | -3.9m/s | -18.6°C | 44.2% | 440.5hPa | 2.6V | 00:59:41 | 02:41:05 | 00:00:00 | |
| OE5GOL-10 | 2026-08-31 06:08:41 | 48.26613 | 12.79285 | 82° | 66km/h | 6796m | -4.2m/s | -18.8°C | 45.4% | 439.2hPa | 2.6V | 00:59:46 | 02:41:00 | 00:00:00 | |
| PG1ADW-2 | 2026-08-31 06:08:40 | 48.26610 | 12.79261 | 80° | 62km/h | 6799m | -4.0m/s | -18.8°C | 45.7% | 439.1hPa | 2.6V | 00:59:47 | 00:00:00 | 00:00:00 | |
| OE5MMP-10 | 2026-08-31 06:08:38 | 48.26604 | 12.79216 | 78° | 58km/h | 6807m | -4.2m/s | -18.9°C | 46.3% | 438.6hPa | 2.6V | 00:59:49 | 02:40:57 | 00:00:00 | |
| OE5WHR-10 | 2026-08-31 06:08:37 | 48.26601 | 12.79195 | 77° | 64km/h | 6811m | -4.5m/s | -18.9°C | 46.5% | 438.4hPa | 2.6V | 00:59:50 | 02:40:56 | 00:00:00 | |
| DO3MHA-12 | 2026-08-31 06:08:35 | 48.26593 | 12.79153 | 72° | 68km/h | 6820m | -4.5m/s | -19.0°C | 47.2% | 437.9hPa | 2.6V | 00:59:52 | 02:40:54 | 00:00:00 | |
| OE5DRO-10 | 2026-08-31 06:08:34 | 48.26588 | 12.79132 | 72° | 66km/h | 6824m | -4.5m/s | -19.0°C | 47.6% | 437.6hPa | 2.5V | 00:59:53 | 00:00:00 | 00:00:00 | |
| OE5HKT-10 | 2026-08-31 06:08:33 | 48.26584 | 12.79112 | 70° | 68km/h | 6828m | -4.8m/s | -19.0°C | 48.3% | 437.3hPa | 2.5V | 00:59:54 | 00:00:00 | 00:00:00 | |
| OE5DXL-15 | 2026-08-31 06:08:29 | 48.26560 | 12.79031 | 63° | 71km/h | 6846m | -4.7m/s | -19.2°C | 49.0% | 436.2hPa | 2.6V | 00:59:58 | 00:00:00 | 00:00:00 | |
| OE5MMP-10 | 2026-08-31 06:08:28 | 48.26553 | 12.79010 | 65° | 66km/h | 6850m | -4.3m/s | -19.2°C | 49.2% | 436.1hPa | 2.5V | 00:59:59 | 02:40:47 | 00:00:00 | |
| DL6DJ-15 | 2026-08-31 06:08:26 | 48.26505 | 12.78881 | 57° | 68km/h | 6877m | -5.1m/s | -19.5°C | 47.0% | 434.5hPa | 2.5V | 00:00:00 | 00:00:00 | 00:00:00 | |
| NBG1-10 | 2026-08-31 06:08:22 | 48.26505 | 12.78881 | 58° | 71km/h | 6878m | -5.0m/s | -19.5°C | 50.0% | 434.4hPa | 2.5V | 01:00:00 | 02:40:41 | 00:00:00 | |
| OE5REO-15 | 2026-08-31 06:08:21 | 48.26505 | 12.78881 | 59° | 69km/h | 6878m | -5.1m/s | -19.5°C | 47.0% | 434.5hPa | 2.5V | 01:00:00 | 00:00:00 | 00:00:00 | |
| PG1ADW-2 | 2026-08-31 06:08:20 | 48.26487 | 12.78837 | 60° | 75km/h | 6888m | -5.2m/s | -19.5°C | 50.1% | 434.0hPa | 2.5V | 00:00:00 | 00:00:00 | 00:00:00 | |
| OE5MMP-10 | 2026-08-31 06:08:18 | 48.26468 | 12.78792 | 58° | 78km/h | 6898m | -4.9m/s | -19.6°C | 50.3% | 433.4hPa | 2.5V | 01:00:00 | 02:40:37 | 00:00:00 | |
| DO3MHA-12 | 2026-08-31 06:08:17 | 48.26458 | 12.78768 | 60° | 78km/h | 6902m | -4.6m/s | -19.6°C | 49.8% | 433.1hPa | 2.6V | 01:00:00 | 02:40:36 | 00:00:00 | |
| OE5WHR-10 | 2026-08-31 06:08:16 | 48.26449 | 12.78743 | 60° | 73km/h | 6907m | -4.6m/s | -19.6°C | 49.3% | 432.8hPa | 2.6V | 01:00:00 | 00:00:00 | 00:00:00 | |
| DO3MHA-11 | 2026-08-31 06:08:15 | 48.26439 | 12.78718 | 61° | 78km/h | 6911m | -4.4m/s | -19.7°C | 49.4% | 432.4hPa | 2.6V | 01:00:00 | 02:40:34 | 00:00:00 | |
| OE5HKT-10 | 2026-08-31 06:08:12 | 48.26412 | 12.78640 | 65° | 71km/h | 6924m | -4.6m/s | -19.8°C | 48.9% | 431.8hPa | 2.6V | 01:00:00 | 00:00:00 | 00:00:00 | |
| OE5GOL-10 | 2026-08-31 06:08:11 | 48.26403 | 12.78613 | 66° | 69km/h | 6929m | -4.4m/s | -19.8°C | 47.5% | 431.4hPa | 2.6V | 01:00:00 | 02:40:30 | 00:00:00 | |
| OE5MMP-10 | 2026-08-31 06:08:08 | 48.26379 | 12.78529 | 69° | 71km/h | 6943m | -4.6m/s | -19.7°C | 38.1% | 430.7hPa | 2.5V | 00:00:00 | 02:40:27 | 00:00:00 | |
| DO3MHA-12 | 2026-08-31 06:08:07 | 48.26372 | 12.78501 | 70° | 69km/h | 6947m | -4.2m/s | -19.7°C | 37.3% | 430.5hPa | 2.5V | 00:00:00 | 02:40:26 | 00:00:00 | |
| DO3MHA-11 | 2026-08-31 06:08:05 | 48.26359 | 12.78447 | 71° | 66km/h | 6956m | -4.6m/s | -19.7°C | 36.4% | 429.9hPa | 2.5V | 00:00:00 | 02:40:24 | 00:00:00 | |
| DL6DJ-15 | 2026-08-31 06:07:54 | 48.26298 | 12.78192 | 63° | 58km/h | 7007m | -4.9m/s | -20.2°C | 38.9% | 426.9hPa | 2.5V | 00:00:00 | 00:00:00 | 00:00:00 | |
| OE3JTB-15 | 2026-08-31 06:07:53 | 48.26292 | 12.78172 | 63° | 68km/h | 7012m | -5.3m/s | -20.2°C | 42.4% | 426.5hPa | 2.5V | 01:00:00 | 02:40:12 | 00:00:00 | |
| OE5HKT-10 | 2026-08-31 06:07:51 | 48.26277 | 12.78133 | 60° | 68km/h | 7022m | -4.5m/s | -20.3°C | 44.8% | 426.0hPa | 2.5V | 00:00:00 | 02:40:10 | 00:00:00 | |
| NBG1-10 | 2026-08-31 06:07:49 | 48.26260 | 12.78093 | 56° | 69km/h | 7031m | -5.2m/s | -20.4°C | 45.6% | 425.4hPa | 2.5V | 00:00:00 | 02:40:08 | 00:00:00 | |
| OE5MMP-10 | 2026-08-31 06:07:48 | 48.26251 | 12.78073 | 56° | 75km/h | 7036m | -5.0m/s | -20.4°C | 46.3% | 425.2hPa | 2.5V | 00:00:00 | 02:40:07 | 00:00:00 | |
| DO3MHA-12 | 2026-08-31 06:07:47 | 48.26241 | 12.78052 | 56° | 75km/h | 7041m | -5.1m/s | -20.4°C | 48.5% | 425.0hPa | 2.6V | 00:00:00 | 02:40:06 | 00:00:00 | |
| DO3MHA-11 | 2026-08-31 06:07:45 | 48.26221 | 12.78008 | 57° | 77km/h | 7051m | -4.8m/s | -20.5°C | 52.3% | 424.4hPa | 2.6V | 00:00:00 | 02:40:04 | 00:00:00 | |
| OE5GOL-10 | 2026-08-31 06:07:41 | 48.26182 | 12.77907 | 65° | 69km/h | 7069m | -4.9m/s | -20.7°C | 59.2% | 423.3hPa | 2.5V | 00:00:00 | 02:40:00 | 00:00:00 | |
| PG1ADW-2 | 2026-08-31 06:07:40 | 48.26174 | 12.77881 | 66° | 66km/h | 7074m | -4.8m/s | -20.8°C | 60.5% | 423.1hPa | 2.5V | 00:00:00 | 00:00:00 | 00:00:00 | |
| OE5MMP-10 | 2026-08-31 06:07:38 | 48.26158 | 12.77826 | 68° | 69km/h | 7084m | -4.9m/s | -20.8°C | 63.0% | 422.6hPa | 2.5V | 01:00:00 | 02:39:57 | 00:00:00 | |
| DO3MHA-12 | 2026-08-31 06:07:37 | 48.26151 | 12.77799 | 70° | 68km/h | 7088m | -4.7m/s | -20.9°C | 64.2% | 422.4hPa | 2.5V | 01:00:00 | 02:39:56 | 00:00:00 | |
| DO3MHA-11 | 2026-08-31 06:07:35 | 48.26139 | 12.77746 | 73° | 64km/h | 7098m | -4.8m/s | -20.9°C | 64.7% | 421.7hPa | 2.5V | 01:00:00 | 02:39:54 | 00:00:00 | |
| OE5WHR-10 | 2026-08-31 06:07:34 | 48.26133 | 12.77720 | 74° | 66km/h | 7102m | -4.8m/s | -21.0°C | 64.8% | 421.5hPa | 2.5V | 01:00:00 | 02:39:53 | 00:00:00 | |
| OE5HKT-10 | 2026-08-31 06:07:30 | 48.26115 | 12.77624 | 74° | 68km/h | 7123m | -5.1m/s | -21.1°C | 61.6% | 420.3hPa | 2.5V | 01:00:00 | 00:00:00 | 00:00:00 | |
| OE5DXL-15 | 2026-08-31 06:07:29 | 48.26111 | 12.77602 | 73° | 71km/h | 7127m | -5.3m/s | -21.1°C | 61.7% | 420.0hPa | 2.6V | 00:00:00 | 02:39:48 | 00:00:00 | |
| OE5MMP-10 | 2026-08-31 06:07:28 | 48.26106 | 12.77581 | 71° | 62km/h | 7133m | -4.8m/s | -21.2°C | 62.2% | 419.8hPa | 2.6V | 00:00:00 | 02:39:47 | 00:00:00 | |
| DO3MHA-12 | 2026-08-31 06:07:27 | 48.26101 | 12.77561 | 67° | 62km/h | 7137m | -4.7m/s | -21.2°C | 62.5% | 419.5hPa | 2.6V | 00:00:00 | 02:39:46 | 00:00:00 | |
| DO3MHA-11 | 2026-08-31 06:07:25 | 48.26088 | 12.77523 | 63° | 66km/h | 7146m | -4.9m/s | -21.2°C | 63.8% | 418.9hPa | 2.5V | 00:00:00 | 02:39:44 | 00:00:00 | |
| OE3JTB-15 | 2026-08-31 06:07:24 | 48.26081 | 12.77503 | 60° | 75km/h | 7151m | -5.0m/s | -21.3°C | 64.8% | 418.7hPa | 2.5V | 00:00:00 | 00:00:00 | 00:00:00 | |
| DL6DJ-15 | 2026-08-31 06:07:23 | 48.26073 | 12.77483 | 58° | 60km/h | 7156m | -5.0m/s | -21.3°C | 62.0% | 418.4hPa | 2.5V | 00:00:00 | 00:00:00 | 00:00:00 | |
| PG1ADW-2 | 2026-08-31 06:07:20 | 48.26047 | 12.77422 | 56° | 77km/h | 7171m | -5.0m/s | -21.2°C | 61.6% | 417.6hPa | 2.5V | 01:01:00 | 00:00:00 | 00:00:00 | |
| OE5REO-15 | 2026-08-31 06:07:19 | 48.26046 | 12.77422 | 57° | 66km/h | 7171m | -5.1m/s | -21.3°C | 57.9% | 417.7hPa | 2.6V | 00:00:00 | 00:00:00 | 00:00:00 | |
| OE5MMP-10 | 2026-08-31 06:07:18 | 48.26028 | 12.77379 | 59° | 77km/h | 7180m | -5.2m/s | -21.2°C | 55.6% | 417.0hPa | 2.6V | 01:01:00 | 02:39:37 | 00:00:00 | |
| DO3MHA-12 | 2026-08-31 06:07:17 | 48.26018 | 12.77356 | 58° | 77km/h | 7186m | -5.1m/s | -21.2°C | 56.1% | 416.7hPa | 2.6V | 01:01:00 | 02:39:36 | 00:00:00 | |
| NBG1-10 | 2026-08-31 06:07:16 | 48.26008 | 12.77333 | 58° | 73km/h | 7191m | -5.3m/s | -21.3°C | 56.8% | 416.6hPa | 2.6V | 01:01:00 | 02:39:35 | 00:00:00 | |
| DO3MHA-11 | 2026-08-31 06:07:15 | 48.25999 | 12.77309 | 60° | 78km/h | 7196m | -5.1m/s | -21.3°C | 57.6% | 416.2hPa | 2.5V | 01:01:00 | 02:39:34 | 00:00:00 | |
| OE5WHR-10 | 2026-08-31 06:07:13 | 48.25979 | 12.77260 | 60° | 77km/h | 7206m | -5.2m/s | -21.4°C | 58.3% | 415.6hPa | 2.6V | 00:00:00 | 00:00:00 | 00:00:00 | |
| OE5GOL-10 | 2026-08-31 06:07:11 | 48.25960 | 12.77207 | 62° | 73km/h | 7216m | -5.2m/s | -21.5°C | 58.7% | 415.1hPa | 2.5V | 01:01:00 | 02:39:30 | 00:00:00 | |
| OE5HKT-10 | 2026-08-31 06:07:09 | 48.25942 | 12.77153 | 65° | 73km/h | 7226m | -5.2m/s | -21.6°C | 59.3% | 414.5hPa | 2.5V | 00:00:00 | 00:00:00 | 00:00:00 | |
| OE5MMP-10 | 2026-08-31 06:07:08 | 48.25933 | 12.77126 | 66° | 80km/h | 7231m | -5.2m/s | -21.6°C | 59.4% | 414.2hPa | 2.5V | 00:00:00 | 02:39:27 | 00:00:00 | |
| DO3MHA-12 | 2026-08-31 06:07:07 | 48.25925 | 12.77097 | 68° | 78km/h | 7236m | -5.0m/s | -21.7°C | 59.5% | 413.8hPa | 2.5V | 00:00:00 | 02:39:26 | 00:00:00 | |
| DO3MHA-11 | 2026-08-31 06:07:05 | 48.25909 | 12.77040 | 70° | 77km/h | 7246m | -5.2m/s | -21.8°C | 59.9% | 413.3hPa | 2.5V | 00:00:00 | 02:39:24 | 00:00:00 | |
| OE5REO-15 | 2026-08-31 06:07:03 | 48.25902 | 12.77011 | 71° | 80km/h | 7251m | -5.3m/s | -21.8°C | 56.8% | 413.1hPa | 2.5V | 00:00:00 | 00:00:00 | 00:00:00 | |
| PG1ADW-2 | 2026-08-31 06:07:00 | 48.25877 | 12.76897 | 74° | 69km/h | 7271m | -5.0m/s | -21.9°C | 62.7% | 412.0hPa | 2.5V | 00:00:00 | 00:00:00 | 00:00:00 | |
| OE5DXL-15 | 2026-08-31 06:06:59 | 48.25872 | 12.76869 | 76° | 73km/h | 7276m | -5.6m/s | -22.0°C | 63.9% | 411.7hPa | 2.5V | 01:01:00 | 00:00:00 | 00:00:00 | |
| OE5MMP-10 | 2026-08-31 06:06:58 | 48.25868 | 12.76843 | 75° | 66km/h | 7282m | -5.0m/s | -22.0°C | 64.4% | 411.4hPa | 2.5V | 01:01:00 | 02:39:17 | 00:00:00 | |
| DO3MHA-12 | 2026-08-31 06:06:57 | 48.25863 | 12.76817 | 76° | 64km/h | 7287m | -5.5m/s | -22.1°C | 64.4% | 411.0hPa | 2.5V | 01:01:00 | 02:39:16 | 00:00:00 | |
| DO3MHA-11 | 2026-08-31 06:06:55 | 48.25854 | 12.76767 | 74° | 64km/h | 7297m | -5.0m/s | -22.1°C | 64.8% | 410.6hPa | 2.6V | 01:01:00 | 02:39:14 | 00:00:00 | |
| OE5WHR-10 | 2026-08-31 06:06:52 | 48.25839 | 12.76698 | 68° | 75km/h | 7312m | -5.2m/s | -22.3°C | 65.1% | 409.7hPa | 2.6V | 01:01:00 | 00:00:00 | 00:00:00 | |
| OE5HKT-10 | 2026-08-31 06:06:48 | 48.25812 | 12.76612 | 62° | 73km/h | 7333m | -4.8m/s | -22.5°C | 65.9% | 408.6hPa | 2.6V | 01:01:00 | 02:39:07 | 00:00:00 | |
| DO3MHA-12 | 2026-08-31 06:06:47 | 48.25804 | 12.76590 | 60° | 77km/h | 7338m | -5.3m/s | -22.5°C | 66.0% | 408.2hPa | 2.6V | 00:00:00 | 02:39:06 | 00:00:00 | |
| DO3MHA-11 | 2026-08-31 06:06:45 | 48.25786 | 12.76545 | 59° | 78km/h | 7348m | -5.3m/s | -22.6°C | 66.0% | 407.6hPa | 2.6V | 00:00:00 | 02:39:04 | 00:00:00 | |
| NBG1-10 | 2026-08-31 06:06:43 | 48.25767 | 12.76497 | 60° | 75km/h | 7359m | -5.3m/s | -22.6°C | 65.9% | 407.2hPa | 2.6V | 00:00:00 | 02:39:02 | 00:00:00 | |
| OE5GOL-10 | 2026-08-31 06:06:41 | 48.25748 | 12.76445 | 64° | 75km/h | 7370m | -5.2m/s | -22.7°C | 66.0% | 406.5hPa | 2.6V | 00:00:00 | 02:39:00 | 00:00:00 | |
| PG1ADW-2 | 2026-08-31 06:06:40 | 48.25739 | 12.76418 | 65° | 75km/h | 7375m | -5.3m/s | -22.8°C | 66.1% | 406.2hPa | 2.5V | 01:01:00 | 02:38:59 | 00:00:00 | |
| OE5MMP-10 | 2026-08-31 06:06:38 | 48.25721 | 12.76362 | 66° | 80km/h | 7386m | -5.1m/s | -22.8°C | 65.6% | 405.8hPa | 2.5V | 01:01:00 | 02:38:57 | 00:00:00 | |
| DO3MHA-12 | 2026-08-31 06:06:37 | 48.25713 | 12.76333 | 67° | 80km/h | 7391m | -5.1m/s | -22.9°C | 65.6% | 405.4hPa | 2.5V | 01:01:00 | 02:38:56 | 00:00:00 | |
| DO3MHA-11 | 2026-08-31 06:06:35 | 48.25697 | 12.76275 | 70° | 77km/h | 7401m | -5.2m/s | -22.9°C | 65.8% | 404.8hPa | 2.5V | 01:01:00 | 02:38:54 | 00:00:00 | |
| OE5WHR-10 | 2026-08-31 06:06:31 | 48.25671 | 12.76158 | 74° | 73km/h | 7422m | -5.1m/s | -23.1°C | 66.2% | 403.7hPa | 2.5V | 00:00:00 | 02:38:50 | 00:00:00 | |
| OE5DXL-15 | 2026-08-31 06:06:29 | 48.25660 | 12.76102 | 76° | 78km/h | 7433m | -4.8m/s | -23.2°C | 66.8% | 403.1hPa | 2.5V | 00:00:00 | 00:00:00 | 00:00:00 | |
| OE5MMP-10 | 2026-08-31 06:06:28 | 48.25656 | 12.76075 | 76° | 68km/h | 7438m | -5.0m/s | -23.2°C | 66.8% | 402.8hPa | 2.5V | 00:00:00 | 02:38:47 | 00:00:00 | |
| DO3MHA-12 | 2026-08-31 06:06:27 | 48.25651 | 12.76049 | 76° | 68km/h | 7443m | -5.0m/s | -23.3°C | 66.7% | 402.6hPa | 2.5V | 00:00:00 | 02:38:46 | 00:00:00 | |
| OE3JTB-15 | 2026-08-31 06:06:26 | 48.25647 | 12.76024 | 74° | 80km/h | 7447m | -4.9m/s | -23.3°C | 66.9% | 402.2hPa | 2.6V | 00:00:00 | 02:38:45 | 00:00:00 | |
| DO3MHA-11 | 2026-08-31 06:06:25 | 48.25642 | 12.76000 | 73° | 69km/h | 7452m | -5.1m/s | -23.4°C | 66.8% | 402.0hPa | 2.6V | 00:00:00 | 02:38:44 | 00:00:00 | |
| BAUMI2-15 | 2026-08-31 06:06:23 | 48.25630 | 12.75954 | 68° | 69km/h | 7462m | -4.7m/s | -23.4°C | 67.1% | 401.5hPa | 2.6V | 01:02:00 | 02:38:42 | 00:00:00 | |
| OE5DRO-10 | 2026-08-31 06:06:21 | 48.25616 | 12.75909 | 64° | 80km/h | 7472m | -4.9m/s | -23.5°C | 67.0% | 401.0hPa | 2.6V | 01:02:00 | 00:00:00 | 00:00:00 | |
| PG1ADW-2 | 2026-08-31 06:06:20 | 48.25608 | 12.75886 | 63° | 82km/h | 7477m | -5.2m/s | -23.5°C | 67.2% | 400.6hPa | 2.6V | 00:00:00 | 00:00:00 | 00:00:00 | |
| OE5MMP-10 | 2026-08-31 06:06:18 | 48.25592 | 12.75840 | 61° | 78km/h | 7487m | -5.1m/s | -23.6°C | 67.6% | 400.0hPa | 2.5V | 01:02:00 | 02:38:37 | 00:00:00 | |
| DO3MHA-12 | 2026-08-31 06:06:17 | 48.25582 | 12.75815 | 60° | 80km/h | 7492m | -5.0m/s | -23.6°C | 67.7% | 399.7hPa | 2.6V | 01:02:00 | 02:38:36 | 00:00:00 | |
| BAUMI2-15 | 2026-08-31 06:06:16 | 48.25573 | 12.75791 | 59° | 75km/h | 7497m | -5.1m/s | -23.6°C | 67.8% | 399.4hPa | 2.6V | 00:00:00 | 02:38:35 | 00:00:00 | |
| DO3MHA-11 | 2026-08-31 06:06:15 | 48.25563 | 12.75766 | 60° | 82km/h | 7502m | -5.5m/s | -23.6°C | 68.0% | 399.2hPa | 2.6V | 01:02:00 | 02:38:34 | 00:00:00 | |
| OE5REO-15 | 2026-08-31 06:06:12 | 48.25543 | 12.75715 | 60° | 80km/h | 7513m | -5.6m/s | -23.7°C | 63.9% | 398.5hPa | 2.6V | 01:02:00 | 00:00:00 | 00:00:00 | |
| OE5GOL-10 | 2026-08-31 06:06:11 | 48.25522 | 12.75663 | 61° | 86km/h | 7524m | -5.4m/s | -23.7°C | 68.7% | 398.0hPa | 2.6V | 01:02:00 | 02:38:30 | 00:00:00 | |
| OE5WHR-10 | 2026-08-31 06:06:10 | 48.25512 | 12.75636 | 60° | 89km/h | 7529m | -5.5m/s | -23.8°C | 68.4% | 397.7hPa | 2.6V | 01:02:00 | 00:00:00 | 00:00:00 | |
| OE5MMP-10 | 2026-08-31 06:06:08 | 48.25490 | 12.75580 | 62° | 91km/h | 7540m | -5.5m/s | -23.8°C | 68.6% | 397.1hPa | 2.5V | 00:00:00 | 02:38:27 | 00:00:00 | |
| DO3MHA-12 | 2026-08-31 06:06:07 | 48.25480 | 12.75550 | 62° | 91km/h | 7545m | -5.5m/s | -23.9°C | 68.7% | 396.9hPa | 2.5V | 00:00:00 | 02:38:26 | 00:00:00 | |
| DO3MHA-11 | 2026-08-31 06:06:05 | 48.25459 | 12.75490 | 65° | 93km/h | 7556m | -5.7m/s | -23.9°C | 68.5% | 396.2hPa | 2.5V | 00:00:00 | 02:38:24 | 00:00:00 | |
| BAUMI2-15 | 2026-08-31 06:06:02 | 48.25429 | 12.75396 | 67° | 93km/h | 7573m | -5.7m/s | -24.0°C | 68.6% | 395.4hPa | 2.5V | 00:00:00 | 02:38:21 | 00:00:00 | |
| DL6DJ-15 | 2026-08-31 06:05:50 | 48.25336 | 12.75012 | 73° | 80km/h | 7638m | -5.5m/s | -24.4°C | 54.7% | 391.9hPa | 2.5V | 00:00:00 | 00:00:00 | 00:00:00 | |
| OE5WHR-10 | 2026-08-31 06:05:49 | 48.25330 | 12.74983 | 74° | 84km/h | 7644m | -5.4m/s | -24.4°C | 56.6% | 391.6hPa | 2.5V | 00:00:00 | 00:00:00 | 00:00:00 | |
| OE5MMP-10 | 2026-08-31 06:05:48 | 48.25325 | 12.74955 | 71° | 78km/h | 7649m | -5.3m/s | -24.4°C | 54.5% | 391.3hPa | 2.5V | 00:00:00 | 02:38:07 | 00:00:00 | |
| DO3MHA-12 | 2026-08-31 06:05:47 | 48.25318 | 12.74927 | 70° | 80km/h | 7654m | -5.0m/s | -24.4°C | 53.1% | 390.9hPa | 2.6V | 00:00:00 | 02:38:06 | 00:00:00 | |
| DO3MHA-11 | 2026-08-31 06:05:45 | 48.25303 | 12.74874 | 66° | 82km/h | 7664m | -5.7m/s | -24.4°C | 49.2% | 390.4hPa | 2.6V | 00:00:00 | 02:38:04 | 00:00:00 | |
| BAUMI2-15 | 2026-08-31 06:05:42 | 48.25277 | 12.74794 | 62° | 82km/h | 7680m | -5.4m/s | -24.4°C | 44.7% | 389.5hPa | 2.6V | 00:00:00 | 02:38:01 | 00:00:00 | |
| OE5GOL-10 | 2026-08-31 06:05:41 | 48.25267 | 12.74767 | 62° | 93km/h | 7686m | -5.2m/s | -24.4°C | 44.9% | 389.3hPa | 2.6V | 00:00:00 | 02:38:00 | 00:00:00 | |
| PG1ADW-2 | 2026-08-31 06:05:40 | 48.25257 | 12.74740 | 61° | 93km/h | 7691m | -5.3m/s | -24.5°C | 45.0% | 389.0hPa | 2.6V | 00:00:00 | 00:00:00 | 00:00:00 | |
| OE5MMP-10 | 2026-08-31 06:05:38 | 48.25236 | 12.74686 | 61° | 89km/h | 7701m | -5.5m/s | -24.6°C | 45.3% | 388.4hPa | 2.6V | 01:02:00 | 02:37:57 | 00:00:00 | |
| DO3MHA-12 | 2026-08-31 06:05:37 | 48.25226 | 12.74658 | 61° | 91km/h | 7707m | -5.6m/s | -24.6°C | 45.5% | 388.2hPa | 2.6V | 01:02:00 | 02:37:56 | 00:00:00 | |
| OE5REO-15 | 2026-08-31 06:05:36 | 48.25226 | 12.74658 | 62° | 86km/h | 7707m | -5.6m/s | -24.7°C | 42.2% | 388.2hPa | 2.6V | 01:03:00 | 00:00:00 | 00:00:00 | |
| DO3MHA-11 | 2026-08-31 06:05:35 | 48.25204 | 12.74601 | 60° | 93km/h | 7718m | -5.8m/s | -24.7°C | 45.3% | 387.5hPa | 2.6V | 01:02:00 | 02:37:54 | 00:00:00 | |
| BAUMI2-15 | 2026-08-31 06:05:32 | 48.25170 | 12.74513 | 60° | 95km/h | 7734m | -5.9m/s | -24.9°C | 45.3% | 386.8hPa | 2.6V | 00:00:00 | 02:37:51 | 00:00:00 | |
| OE5DXL-15 | 2026-08-31 06:05:29 | 48.25135 | 12.74421 | 62° | 93km/h | 7751m | -5.5m/s | -24.9°C | 42.5% | 385.9hPa | 2.6V | 00:00:00 | 00:00:00 | 00:00:00 | |
| OE5MMP-10 | 2026-08-31 06:05:28 | 48.25123 | 12.74388 | 63° | 100km/h | 7756m | -5.2m/s | -24.9°C | 40.8% | 385.4hPa | 2.5V | 00:00:00 | 02:37:47 | 00:00:00 | |
| DO3MHA-12 | 2026-08-31 06:05:27 | 48.25111 | 12.74356 | 62° | 102km/h | 7762m | -5.7m/s | -24.9°C | 39.6% | 385.2hPa | 2.5V | 00:00:00 | 02:37:46 | 00:00:00 | |
| DO3MHA-11 | 2026-08-31 06:05:25 | 48.25088 | 12.74288 | 63° | 100km/h | 7773m | -5.5m/s | -25.0°C | 36.8% | 384.6hPa | 2.6V | 00:00:00 | 02:37:44 | 00:00:00 | |
| OE5DRO-10 | 2026-08-31 06:05:24 | 48.25077 | 12.74254 | 64° | 93km/h | 7779m | -5.5m/s | -24.9°C | 35.6% | 384.4hPa | 2.6V | 00:00:00 | 00:00:00 | 00:00:00 | |
| BAUMI2-15 | 2026-08-31 06:05:22 | 48.25054 | 12.74184 | 65° | 102km/h | 7790m | -5.6m/s | -24.9°C | 36.3% | 383.9hPa | 2.5V | 00:00:00 | 02:37:41 | 00:00:00 | |
| OE5REO-15 | 2026-08-31 06:05:21 | 48.25054 | 12.74184 | 65° | 102km/h | 7790m | -5.6m/s | -24.9°C | 33.5% | 383.9hPa | 2.6V | 01:03:00 | 00:00:00 | 00:00:00 | |
| DO7DH-14 | 2026-08-31 06:05:20 | 48.25033 | 12.74113 | 68° | 93km/h | 7801m | -5.6m/s | -25.0°C | 36.5% | 383.2hPa | 2.6V | 00:00:00 | 02:37:39 | 00:00:00 | |
| DL6DJ-15 | 2026-08-31 06:05:19 | 48.25024 | 12.74077 | 67° | 102km/h | 7806m | -5.3m/s | -25.1°C | 34.0% | 383.0hPa | 2.6V | 00:00:00 | 00:00:00 | 00:00:00 | |
| OE5MMP-10 | 2026-08-31 06:05:18 | 48.25014 | 12.74042 | 70° | 91km/h | 7811m | -5.5m/s | -25.1°C | 37.1% | 382.6hPa | 2.6V | 01:03:00 | 02:37:37 | 00:00:00 | |
| DO3MHA-12 | 2026-08-31 06:05:17 | 48.25006 | 12.74006 | 71° | 89km/h | 7817m | -5.3m/s | -25.1°C | 37.1% | 382.3hPa | 2.5V | 01:03:00 | 02:37:36 | 00:00:00 | |
| DO3MHA-11 | 2026-08-31 06:05:15 | 48.24990 | 12.73937 | 73° | 88km/h | 7828m | -5.5m/s | -25.2°C | 38.1% | 381.8hPa | 2.5V | 01:03:00 | 02:37:34 | 00:00:00 | |
| BAUMI2-15 | 2026-08-31 06:05:12 | 48.24968 | 12.73837 | 71° | 86km/h | 7844m | -5.4m/s | -25.3°C | 41.0% | 380.9hPa | 2.5V | 00:00:00 | 02:37:31 | 00:00:00 | |
| OE5GOL-10 | 2026-08-31 06:05:11 | 48.24961 | 12.73806 | 71° | 95km/h | 7849m | -5.6m/s | -25.3°C | 41.6% | 380.6hPa | 2.5V | 01:03:00 | 02:37:30 | 00:00:00 | |
| OE5MMP-10 | 2026-08-31 06:05:08 | 48.24939 | 12.73716 | 68° | 86km/h | 7865m | -5.3m/s | -25.4°C | 41.5% | 379.8hPa | 2.5V | 00:00:00 | 02:37:27 | 00:00:00 | |
| OE5WHR-10 | 2026-08-31 06:05:07 | 48.24930 | 12.73686 | 66° | 95km/h | 7871m | -5.7m/s | -25.4°C | 41.8% | 379.5hPa | 2.5V | 00:00:00 | 00:00:00 | 00:00:00 | |
| DO3MHA-11 | 2026-08-31 06:05:05 | 48.24912 | 12.73630 | 64° | 91km/h | 7882m | -5.9m/s | -25.5°C | 41.6% | 378.9hPa | 2.5V | 00:00:00 | 02:37:24 | 00:00:00 | |
| NBG1-10 | 2026-08-31 06:05:04 | 48.24903 | 12.73602 | 63° | 93km/h | 7888m | -5.1m/s | -25.5°C | 40.4% | 378.6hPa | 2.5V | 01:03:00 | 02:37:23 | 00:00:00 | |
| BAUMI2-15 | 2026-08-31 06:05:02 | 48.24881 | 12.73545 | 59° | 91km/h | 7898m | -5.4m/s | -25.6°C | 39.7% | 378.0hPa | 2.5V | 00:00:00 | 02:37:21 | 00:00:00 | |
| DB0ND-19 | 2026-08-31 06:04:53 | 48.24749 | 12.73186 | 66° | 104km/h | 7957m | -5.8m/s | -26.2°C | 39.2% | 375.0hPa | 2.5V | 00:00:00 | 00:00:00 | 00:00:00 | |
| DO7DH-14 | 2026-08-31 06:04:50 | 48.24739 | 12.73149 | 67° | 97km/h | 7963m | -5.5m/s | -26.2°C | 42.4% | 374.7hPa | 2.5V | 01:03:00 | 02:37:09 | 00:00:00 | |
| OE5MMP-10 | 2026-08-31 06:04:48 | 48.24719 | 12.73077 | 70° | 93km/h | 7974m | -5.7m/s | -26.3°C | 42.1% | 374.0hPa | 2.5V | 00:00:00 | 02:37:07 | 00:00:00 | |
| DO3MHA-12 | 2026-08-31 06:04:47 | 48.24711 | 12.73040 | 70° | 91km/h | 7979m | -5.3m/s | -26.3°C | 41.8% | 373.9hPa | 2.6V | 00:00:00 | 02:37:06 | 00:00:00 | |
| OE5WHR-10 | 2026-08-31 06:04:46 | 48.24702 | 12.73005 | 72° | 93km/h | 7985m | -5.4m/s | -26.4°C | 41.2% | 373.5hPa | 2.6V | 01:03:00 | 00:00:00 | 00:00:00 | |
| DO3MHA-11 | 2026-08-31 06:04:45 | 48.24694 | 12.72970 | 72° | 88km/h | 7990m | -5.9m/s | -26.4°C | 40.4% | 373.2hPa | 2.6V | 00:00:00 | 02:37:04 | 00:00:00 | |
| OE5GOL-10 | 2026-08-31 06:04:41 | 48.24666 | 12.72837 | 73° | 95km/h | 8011m | -5.8m/s | -26.6°C | 39.0% | 372.2hPa | 2.5V | 00:00:00 | 02:37:00 | 00:00:00 | |
| PG1ADW-2 | 2026-08-31 06:04:40 | 48.24658 | 12.72806 | 71° | 95km/h | 8017m | -5.9m/s | -26.6°C | 39.9% | 371.9hPa | 2.5V | 01:03:00 | 00:00:00 | 00:00:00 | |
| OE5MMP-10 | 2026-08-31 06:04:38 | 48.24643 | 12.72747 | 68° | 89km/h | 8028m | -5.5m/s | -26.7°C | 41.6% | 371.3hPa | 2.5V | 01:03:00 | 02:36:57 | 00:00:00 | |
| DO3MHA-12 | 2026-08-31 06:04:37 | 48.24635 | 12.72718 | 68° | 91km/h | 8034m | -5.1m/s | -26.7°C | 40.8% | 371.1hPa | 2.5V | 01:03:00 | 02:36:56 | 00:00:00 | |
| DO3MHA-11 | 2026-08-31 06:04:35 | 48.24617 | 12.72661 | 64° | 97km/h | 8044m | -5.4m/s | -26.8°C | 39.4% | 370.5hPa | 2.5V | 01:03:00 | 02:36:54 | 00:00:00 | |
| OE5REO-15 | 2026-08-31 06:04:33 | 48.24607 | 12.72632 | 62° | 86km/h | 8049m | -5.4m/s | -26.9°C | 35.8% | 370.3hPa | 2.5V | 01:04:00 | 00:00:00 | 00:00:00 | |
| NBG1-10 | 2026-08-31 06:04:31 | 48.24573 | 12.72542 | 62° | 97km/h | 8063m | -4.6m/s | -26.9°C | 35.0% | 369.4hPa | 2.5V | 00:00:00 | 02:36:50 | 00:00:00 | |
| OE3JTB-15 | 2026-08-31 06:04:30 | 48.24561 | 12.72510 | 63° | 97km/h | 8068m | -5.0m/s | -26.9°C | 34.1% | 369.2hPa | 2.5V | 00:00:00 | 00:00:00 | 00:00:00 | |
| OE5DXL-15 | 2026-08-31 06:04:29 | 48.24550 | 12.72476 | 64° | 97km/h | 8073m | -5.3m/s | -26.9°C | 32.5% | 368.9hPa | 2.6V | 00:00:00 | 00:00:00 | 00:00:00 | |
| OE5MMP-10 | 2026-08-31 06:04:28 | 48.24538 | 12.72442 | 65° | 106km/h | 8078m | -5.4m/s | -27.0°C | 30.5% | 368.7hPa | 2.6V | 00:00:00 | 02:36:47 | 00:00:00 | |
| DO3MHA-12 | 2026-08-31 06:04:27 | 48.24527 | 12.72406 | 65° | 104km/h | 8084m | -5.7m/s | -27.0°C | 28.4% | 368.4hPa | 2.6V | 00:00:00 | 02:36:46 | 00:00:00 | |
| DO3MHA-11 | 2026-08-31 06:04:25 | 48.24504 | 12.72334 | 68° | 104km/h | 8095m | -5.6m/s | -27.0°C | 17.8% | 367.9hPa | 2.5V | 00:00:00 | 02:36:44 | 00:00:00 | |
| DO7DH-14 | 2026-08-31 06:04:20 | 48.24455 | 12.72148 | 72° | 99km/h | 8123m | -6.0m/s | -27.1°C | 8.4% | 366.5hPa | 2.5V | 00:00:00 | 02:36:39 | 00:00:00 | |
| OE5MMP-10 | 2026-08-31 06:04:18 | 48.24439 | 12.72073 | 73° | 91km/h | 8134m | -5.3m/s | -27.2°C | 8.2% | 365.9hPa | 2.5V | 01:04:00 | 02:36:37 | 00:00:00 | |
| DO3MHA-12 | 2026-08-31 06:04:17 | 48.24432 | 12.72037 | 75° | 89km/h | 8139m | -5.4m/s | -27.2°C | 8.2% | 365.6hPa | 2.6V | 01:04:00 | 02:36:36 | 00:00:00 | |
| DO3MHA-11 | 2026-08-31 06:04:15 | 48.24419 | 12.71966 | 76° | 88km/h | 8150m | -5.5m/s | -27.3°C | 8.3% | 365.1hPa | 2.6V | 01:04:00 | 02:36:34 | 00:00:00 | |
| OE5DRO-10 | 2026-08-31 06:04:14 | 48.24413 | 12.71932 | 76° | 95km/h | 8156m | -6.0m/s | -27.4°C | 8.3% | 364.9hPa | 2.6V | 01:04:00 | 00:00:00 | 00:00:00 | |
| OE5GOL-10 | 2026-08-31 06:04:11 | 48.24394 | 12.71836 | 72° | 102km/h | 8172m | -5.4m/s | -27.5°C | 9.5% | 364.0hPa | 2.5V | 01:04:00 | 02:36:30 | 00:00:00 | |
| OE5MMP-10 | 2026-08-31 06:04:08 | 48.24370 | 12.71746 | 66° | 95km/h | 8188m | -5.5m/s | -27.5°C | 13.0% | 363.3hPa | 2.5V | 00:00:00 | 02:36:27 | 00:00:00 | |
| DO3MHA-12 | 2026-08-31 06:04:07 | 48.24360 | 12.71716 | 66° | 97km/h | 8193m | -5.3m/s | -27.5°C | 14.3% | 362.9hPa | 2.5V | 00:00:00 | 02:36:26 | 00:00:00 | |
| DO3MHA-11 | 2026-08-31 06:04:05 | 48.24340 | 12.71654 | 64° | 100km/h | 8204m | -5.2m/s | -27.6°C | 14.2% | 362.4hPa | 2.5V | 00:00:00 | 02:36:24 | 00:00:00 | |
| OE5WHR-10 | 2026-08-31 06:04:04 | 48.24330 | 12.71622 | 63° | 106km/h | 8209m | -5.7m/s | -27.7°C | 13.9% | 362.1hPa | 2.5V | 01:04:00 | 00:00:00 | 00:00:00 | |
| DL6DJ-15 | 2026-08-31 06:03:46 | 48.24118 | 12.70922 | 72° | 108km/h | 8316m | -5.5m/s | -28.6°C | 24.7% | 356.8hPa | 2.6V | 00:00:00 | 00:00:00 | 00:00:00 | |
| DO3MHA-11 | 2026-08-31 06:03:45 | 48.24118 | 12.70922 | 73° | 100km/h | 8316m | -5.4m/s | -28.6°C | 27.3% | 356.7hPa | 2.6V | 00:00:00 | 02:36:04 | 00:00:00 | |
| OE5WHR-10 | 2026-08-31 06:03:43 | 48.24103 | 12.70844 | 74° | 100km/h | 8327m | -5.2m/s | -28.7°C | 28.8% | 356.3hPa | 2.5V | 00:00:00 | 00:00:00 | 00:00:00 | |
| OE5DRO-10 | 2026-08-31 06:03:42 | 48.24096 | 12.70806 | 75° | 100km/h | 8332m | -5.9m/s | -28.7°C | 29.2% | 355.9hPa | 2.5V | 00:00:00 | 00:00:00 | 00:00:00 | |
| OE5GOL-10 | 2026-08-31 06:03:41 | 48.24088 | 12.70769 | 74° | 104km/h | 8338m | -5.6m/s | -28.8°C | 29.9% | 355.7hPa | 2.5V | 00:00:00 | 02:36:00 | 00:00:00 | |
| PG1ADW-2 | 2026-08-31 06:03:40 | 48.24081 | 12.70733 | 74° | 100km/h | 8344m | -5.2m/s | -28.8°C | 30.9% | 355.4hPa | 2.5V | 00:00:00 | 00:00:00 | 00:00:00 | |
| OE5MMP-10 | 2026-08-31 06:03:38 | 48.24067 | 12.70663 | 72° | 95km/h | 8355m | -5.7m/s | -28.9°C | 33.2% | 354.9hPa | 2.5V | 01:04:00 | 02:35:57 | 00:00:00 | |
| DO3MHA-12 | 2026-08-31 06:03:37 | 48.24059 | 12.70629 | 71° | 95km/h | 8360m | -5.5m/s | -28.9°C | 33.6% | 354.5hPa | 2.5V | 01:04:00 | 02:35:56 | 00:00:00 | |
| DO3MHA-11 | 2026-08-31 06:03:35 | 48.24043 | 12.70563 | 68° | 99km/h | 8371m | -5.5m/s | -29.0°C | 33.3% | 354.0hPa | 2.5V | 01:04:00 | 02:35:54 | 00:00:00 | |
| OE3JTB-15 | 2026-08-31 06:03:32 | 48.24014 | 12.70466 | 65° | 104km/h | 8388m | -5.5m/s | -29.1°C | 33.0% | 353.3hPa | 2.5V | 00:00:00 | 02:35:51 | 00:00:00 | |
| OE5REO-15 | 2026-08-31 06:03:31 | 48.24014 | 12.70466 | 65° | 93km/h | 8388m | -5.6m/s | -29.2°C | 30.0% | 353.3hPa | 2.5V | 01:05:00 | 00:00:00 | 00:00:00 | |
| DB0UT-7 | 2026-08-31 06:03:30 | 48.23993 | 12.70401 | 63° | 104km/h | 8399m | -5.8m/s | -29.2°C | 32.8% | 352.6hPa | 2.5V | 00:00:00 | 00:00:00 | 00:00:00 | |
| OE5DXL-15 | 2026-08-31 06:03:29 | 48.23981 | 12.70368 | 63° | 104km/h | 8405m | -6.0m/s | -29.3°C | 32.8% | 352.4hPa | 2.6V | 00:00:00 | 00:00:00 | 00:00:00 | |
| OE5MMP-10 | 2026-08-31 06:03:28 | 48.23969 | 12.70334 | 62° | 110km/h | 8410m | -5.7m/s | -29.3°C | 33.0% | 352.1hPa | 2.6V | 00:00:00 | 02:35:47 | 00:00:00 | |
| DO3MHA-12 | 2026-08-31 06:03:27 | 48.23957 | 12.70300 | 62° | 111km/h | 8416m | -5.5m/s | -29.4°C | 33.0% | 351.8hPa | 2.6V | 00:00:00 | 02:35:46 | 00:00:00 | |
| DO3MHA-11 | 2026-08-31 06:03:25 | 48.23931 | 12.70229 | 62° | 113km/h | 8427m | -5.7m/s | -29.5°C | 32.6% | 351.3hPa | 2.5V | 00:00:00 | 02:35:44 | 00:00:00 | |
| OE5DRO-10 | 2026-08-31 06:03:23 | 48.23906 | 12.70155 | 64° | 106km/h | 8438m | -5.4m/s | -29.6°C | 32.7% | 350.8hPa | 2.5V | 01:05:00 | 00:00:00 | 00:00:00 | |
| OE5WHR-10 | 2026-08-31 06:03:22 | 48.23893 | 12.70117 | 66° | 104km/h | 8444m | -5.5m/s | -29.6°C | 32.8% | 350.5hPa | 2.5V | 01:05:00 | 02:35:41 | 00:00:00 | |
| DB0ND-19 | 2026-08-31 06:03:20 | 48.23847 | 12.69958 | 68° | 113km/h | 8466m | -5.6m/s | -29.9°C | 29.4% | 349.5hPa | 2.5V | 00:00:00 | 00:00:00 | 00:00:00 | |
| OE5MMP-10 | 2026-08-31 06:03:18 | 48.23847 | 12.69958 | 69° | 108km/h | 8466m | -5.5m/s | -29.8°C | 32.4% | 349.5hPa | 2.5V | 01:05:00 | 02:35:37 | 00:00:00 | |
| DO3MHA-12 | 2026-08-31 06:03:17 | 48.23837 | 12.69917 | 71° | 106km/h | 8472m | -5.5m/s | -29.9°C | 32.4% | 349.1hPa | 2.6V | 01:05:00 | 02:35:36 | 00:00:00 | |
| DO3MHA-11 | 2026-08-31 06:03:15 | 48.23818 | 12.69836 | 72° | 102km/h | 8483m | -5.4m/s | -30.0°C | 32.5% | 348.6hPa | 2.6V | 01:05:00 | 02:35:34 | 00:00:00 | |
| DB0NH | 2026-08-31 06:03:12 | 48.23794 | 12.69719 | 75° | 108km/h | 8499m | -5.9m/s | -30.1°C | 33.4% | 347.8hPa | 2.5V | 01:05:00 | 02:35:31 | 00:00:00 | |
| OE5GOL-10 | 2026-08-31 06:03:11 | 48.23787 | 12.69681 | 75° | 108km/h | 8505m | -6.0m/s | -30.2°C | 33.9% | 347.5hPa | 2.6V | 01:05:00 | 02:35:30 | 00:00:00 | |
| OE5HKT-10 | 2026-08-31 06:03:10 | 48.23780 | 12.69644 | 74° | 106km/h | 8512m | -6.2m/s | -30.2°C | 34.5% | 347.2hPa | 2.6V | 01:05:00 | 00:00:00 | 00:00:00 | |
| DO3MHA-12 | 2026-08-31 06:03:07 | 48.23759 | 12.69536 | 73° | 99km/h | 8530m | -5.8m/s | -30.4°C | 35.4% | 346.4hPa | 2.6V | 00:00:00 | 02:35:26 | 00:00:00 | |
| DO3MHA-11 | 2026-08-31 06:03:05 | 48.23744 | 12.69469 | 71° | 102km/h | 8541m | -5.2m/s | -30.5°C | 36.4% | 345.9hPa | 2.6V | 00:00:00 | 02:35:24 | 00:00:00 | |
| OE5DRO-10 | 2026-08-31 06:03:04 | 48.23735 | 12.69436 | 68° | 111km/h | 8546m | -5.1m/s | -30.6°C | 36.7% | 345.6hPa | 2.6V | 00:00:00 | 00:00:00 | 00:00:00 | |
| OE3JTB-15 | 2026-08-31 06:03:03 | 48.23726 | 12.69403 | 67° | 108km/h | 8551m | -5.0m/s | -30.6°C | 36.7% | 345.4hPa | 2.5V | 01:05:00 | 00:00:00 | 00:00:00 | |
| DB0ND-19 | 2026-08-31 06:02:49 | 48.23561 | 12.68821 | 73° | 115km/h | 8633m | -5.2m/s | -31.2°C | 24.7% | 341.5hPa | 2.5V | 00:00:00 | 00:00:00 | 00:00:00 | |
| BAUMI2-15 | 2026-08-31 06:02:47 | 48.23553 | 12.68779 | 75° | 111km/h | 8638m | -5.3m/s | -31.2°C | 26.6% | 341.2hPa | 2.5V | 01:05:00 | 02:35:06 | 00:00:00 | |
| DO3MHA-11 | 2026-08-31 06:02:45 | 48.23538 | 12.68695 | 77° | 102km/h | 8648m | -5.2m/s | -31.2°C | 23.3% | 340.7hPa | 2.5V | 00:00:00 | 02:35:04 | 00:00:00 | |
| OE5REO-15 | 2026-08-31 06:02:44 | 48.23538 | 12.68695 | 77° | 111km/h | 8648m | -5.3m/s | -31.2°C | 20.7% | 340.8hPa | 2.6V | 01:06:00 | 00:00:00 | 00:00:00 | |
| DB0NH | 2026-08-31 06:02:42 | 48.23520 | 12.68575 | 78° | 110km/h | 8664m | -5.3m/s | -31.3°C | 24.8% | 340.0hPa | 2.6V | 00:00:00 | 02:35:01 | 00:00:00 | |
| OE5GOL-10 | 2026-08-31 06:02:41 | 48.23514 | 12.68536 | 77° | 110km/h | 8669m | -5.3m/s | -31.3°C | 25.8% | 339.7hPa | 2.6V | 00:00:00 | 02:35:00 | 00:00:00 | |
| OE5WHR-10 | 2026-08-31 06:02:40 | 48.23508 | 12.68499 | 77° | 108km/h | 8675m | -5.4m/s | -31.4°C | 27.4% | 339.4hPa | 2.6V | 01:05:00 | 00:00:00 | 00:00:00 | |
| OE5MMP-10 | 2026-08-31 06:02:38 | 48.23496 | 12.68426 | 75° | 100km/h | 8686m | -5.3m/s | -31.5°C | 32.8% | 339.0hPa | 2.6V | 01:05:00 | 02:34:57 | 00:00:00 | |
| DO3MHA-12 | 2026-08-31 06:02:37 | 48.23489 | 12.68390 | 74° | 102km/h | 8691m | -5.1m/s | -31.5°C | 34.0% | 338.7hPa | 2.6V | 01:05:00 | 02:34:56 | 00:00:00 | |
| DO3MHA-11 | 2026-08-31 06:02:35 | 48.23473 | 12.68320 | 71° | 106km/h | 8701m | -5.1m/s | -31.6°C | 38.2% | 338.1hPa | 2.6V | 01:05:00 | 02:34:54 | 00:00:00 | |
| OE3JTB-15 | 2026-08-31 06:02:34 | 48.23464 | 12.68286 | 69° | 110km/h | 8707m | -5.4m/s | -31.7°C | 39.0% | 338.0hPa | 2.6V | 00:00:00 | 00:00:00 | 00:00:00 | |
| BAUMI2-15 | 2026-08-31 06:02:32 | 48.23445 | 12.68215 | 67° | 106km/h | 8717m | -5.1m/s | -31.8°C | 38.5% | 337.4hPa | 2.6V | 00:00:00 | 02:34:51 | 00:00:00 | |
| DB0UT-7 | 2026-08-31 06:02:30 | 48.23423 | 12.68143 | 66° | 110km/h | 8727m | -5.2m/s | -31.9°C | 37.5% | 336.9hPa | 2.6V | 00:00:00 | 00:00:00 | 00:00:00 | |
| OE5DXL-15 | 2026-08-31 06:02:29 | 48.23412 | 12.68106 | 66° | 110km/h | 8733m | -5.4m/s | -31.9°C | 36.5% | 336.7hPa | 2.6V | 00:00:00 | 00:00:00 | 00:00:00 | |
| OE5MMP-10 | 2026-08-31 06:02:28 | 48.23401 | 12.68067 | 66° | 117km/h | 8738m | -5.3m/s | -31.9°C | 36.0% | 336.4hPa | 2.6V | 00:00:00 | 02:34:47 | 00:00:00 | |
| DO3MHA-12 | 2026-08-31 06:02:27 | 48.23389 | 12.68029 | 67° | 119km/h | 8743m | -5.1m/s | -32.0°C | 35.7% | 336.1hPa | 2.6V | 00:00:00 | 02:34:46 | 00:00:00 | |
| OE5DRO-10 | 2026-08-31 06:02:26 | 48.23378 | 12.67989 | 67° | 111km/h | 8749m | -5.2m/s | -32.0°C | 35.6% | 335.9hPa | 2.6V | 00:00:00 | 00:00:00 | 00:00:00 | |
| DO3MHA-11 | 2026-08-31 06:02:25 | 48.23367 | 12.67949 | 68° | 119km/h | 8754m | -5.1m/s | -32.1°C | 35.5% | 335.6hPa | 2.6V | 00:00:00 | 02:34:44 | 00:00:00 | |
| BAUMI2-15 | 2026-08-31 06:02:22 | 48.23334 | 12.67823 | 71° | 119km/h | 8770m | -5.2m/s | -32.2°C | 38.5% | 334.9hPa | 2.6V | 00:00:00 | 02:34:41 | 00:00:00 | |
| PG1ADW-2 | 2026-08-31 06:02:20 | 48.23315 | 12.67736 | 74° | 108km/h | 8780m | -5.3m/s | -32.3°C | 39.9% | 334.4hPa | 2.5V | 00:00:00 | 00:00:00 | 00:00:00 | |
| OE5WHR-10 | 2026-08-31 06:02:19 | 48.23307 | 12.67693 | 75° | 108km/h | 8786m | -5.0m/s | -32.4°C | 40.4% | 334.1hPa | 2.5V | 00:00:00 | 02:34:38 | 00:00:00 | |
| OE5MMP-10 | 2026-08-31 06:02:18 | 48.23299 | 12.67650 | 76° | 108km/h | 8790m | -5.3m/s | -32.4°C | 40.8% | 333.9hPa | 2.5V | 01:06:00 | 02:34:37 | 00:00:00 | |
| DO3MHA-12 | 2026-08-31 06:02:17 | 48.23292 | 12.67607 | 77° | 106km/h | 8796m | -5.1m/s | -32.5°C | 40.9% | 333.6hPa | 2.5V | 01:06:00 | 02:34:36 | 00:00:00 | |
| DO3MHA-11 | 2026-08-31 06:02:15 | 48.23279 | 12.67524 | 78° | 102km/h | 8806m | -5.0m/s | -32.6°C | 40.9% | 333.1hPa | 2.5V | 01:06:00 | 02:34:34 | 00:00:00 | |
| DL6DJ-15 | 2026-08-31 06:02:13 | 48.23261 | 12.67406 | 76° | 102km/h | 8821m | -4.9m/s | -32.8°C | 37.4% | 332.5hPa | 2.5V | 00:00:00 | 00:00:00 | 00:00:00 | |
| DB0NH | 2026-08-31 06:02:12 | 48.23261 | 12.67406 | 77° | 111km/h | 8821m | -4.9m/s | -32.7°C | 41.4% | 332.5hPa | 2.5V | 01:06:00 | 02:34:31 | 00:00:00 | |
| OE5GOL-10 | 2026-08-31 06:02:11 | 48.23254 | 12.67369 | 75° | 111km/h | 8826m | -5.0m/s | -32.8°C | 41.4% | 332.2hPa | 2.5V | 01:06:00 | 02:34:30 | 00:00:00 | |
| OE5MMP-10 | 2026-08-31 06:02:08 | 48.23232 | 12.67261 | 71° | 108km/h | 8841m | -5.1m/s | -32.9°C | 41.0% | 331.5hPa | 2.6V | 00:00:00 | 02:34:27 | 00:00:00 | |
| BAUMI2-15 | 2026-08-31 06:02:07 | 48.23223 | 12.67226 | 69° | 102km/h | 8846m | -5.3m/s | -33.0°C | 40.5% | 331.3hPa | 2.6V | 01:06:00 | 02:34:26 | 00:00:00 | |
| DO3MHA-11 | 2026-08-31 06:02:05 | 48.23204 | 12.67155 | 67° | 113km/h | 8856m | -4.9m/s | -33.0°C | 38.5% | 330.8hPa | 2.5V | 00:00:00 | 02:34:24 | 00:00:00 | |
| BAUMI2-15 | 2026-08-31 06:02:02 | 48.23170 | 12.67045 | 65° | 115km/h | 8871m | -5.1m/s | -33.2°C | 37.9% | 330.1hPa | 2.5V | 00:00:00 | 02:34:21 | 00:00:00 | |
| DB0ND-19 | 2026-08-31 06:01:47 | 48.23010 | 12.66365 | 76° | 110km/h | 8954m | -5.1m/s | -33.8°C | -1.0% | 326.3hPa | 2.5V | 00:00:00 | 00:00:00 | 00:00:00 | |
| NBG1-10 | 2026-08-31 06:01:46 | 48.23010 | 12.66365 | 77° | 119km/h | 8954m | -5.1m/s | -33.8°C | 40.2% | 326.3hPa | 2.5V | 01:06:00 | 02:34:05 | 00:00:00 | |
| DO3MHA-11 | 2026-08-31 06:01:45 | 48.23004 | 12.66325 | 77° | 110km/h | 8959m | -4.9m/s | -33.8°C | 40.8% | 325.9hPa | 2.5V | 00:00:00 | 02:34:04 | 00:00:00 | |
| DL6DJ-15 | 2026-08-31 06:01:42 | 48.22973 | 12.66173 | 69° | 104km/h | 8978m | -4.9m/s | -34.0°C | 38.5% | 325.2hPa | 2.6V | 00:00:00 | 00:00:00 | 00:00:00 | |
| OE5GOL-10 | 2026-08-31 06:01:41 | 48.22973 | 12.66173 | 70° | 117km/h | 8978m | -4.8m/s | -33.9°C | 42.7% | 325.1hPa | 2.6V | 00:00:00 | 02:34:00 | 00:00:00 | |
| PG1ADW-2 | 2026-08-31 06:01:40 | 48.22964 | 12.66136 | 68° | 120km/h | 8983m | -4.9m/s | -33.9°C | 42.6% | 324.8hPa | 2.6V | 00:00:00 | 00:00:00 | 00:00:00 | |
| OE5MMP-10 | 2026-08-31 06:01:38 | 48.22942 | 12.66060 | 66° | 124km/h | 8993m | -4.9m/s | -34.0°C | 42.4% | 324.5hPa | 2.6V | 01:06:00 | 02:33:57 | 00:00:00 | |
| DO3MHA-12 | 2026-08-31 06:01:37 | 48.22930 | 12.66020 | 66° | 124km/h | 8998m | -5.1m/s | -34.1°C | 42.3% | 324.2hPa | 2.6V | 01:06:00 | 02:33:56 | 00:00:00 | |
| OE3JTB-15 | 2026-08-31 06:01:36 | 48.22918 | 12.65979 | 67° | 117km/h | 9003m | -4.9m/s | -34.1°C | 42.1% | 324.0hPa | 2.6V | 00:00:00 | 00:00:00 | 00:00:00 | |
| DO3MHA-11 | 2026-08-31 06:01:35 | 48.22906 | 12.65938 | 67° | 126km/h | 9008m | -4.9m/s | -34.2°C | 41.7% | 323.7hPa | 2.6V | 01:06:00 | 02:33:54 | 00:00:00 | |
| BAUMI2-15 | 2026-08-31 06:01:32 | 48.22870 | 12.65806 | 70° | 128km/h | 9023m | -4.9m/s | -34.2°C | 38.3% | 323.0hPa | 2.6V | 00:00:00 | 02:33:51 | 00:00:00 | |
| DB0UT-7 | 2026-08-31 06:01:30 | 48.22849 | 12.65714 | 73° | 117km/h | 9033m | -5.0m/s | -34.2°C | 35.8% | 322.6hPa | 2.6V | 00:00:00 | 00:00:00 | 00:00:00 | |
| OE5DXL-15 | 2026-08-31 06:01:29 | 48.22839 | 12.65667 | 74° | 117km/h | 9038m | -5.0m/s | -34.2°C | 34.9% | 322.4hPa | 2.6V | 00:00:00 | 00:00:00 | 00:00:00 | |
| OE5MMP-10 | 2026-08-31 06:01:28 | 48.22830 | 12.65621 | 75° | 119km/h | 9043m | -4.8m/s | -34.2°C | 34.0% | 322.1hPa | 2.6V | 00:00:00 | 02:33:47 | 00:00:00 | |
| BAUMI2-15 | 2026-08-31 06:01:27 | 48.22822 | 12.65574 | 76° | 122km/h | 9048m | -4.8m/s | -34.2°C | 33.3% | 321.9hPa | 2.6V | 01:07:00 | 02:33:46 | 00:00:00 | |
| OE5REO-15 | 2026-08-31 06:01:26 | 48.22822 | 12.65574 | 77° | 126km/h | 9048m | -4.8m/s | -34.3°C | 29.7% | 322.0hPa | 2.6V | 00:00:00 | 00:00:00 | 00:00:00 | |
| DO3MHA-11 | 2026-08-31 06:01:25 | 48.22808 | 12.65483 | 78° | 111km/h | 9057m | -4.8m/s | -34.3°C | 33.5% | 321.4hPa | 2.6V | 00:00:00 | 02:33:44 | 00:00:00 | |
| BAUMI2-15 | 2026-08-31 06:01:22 | 48.22789 | 12.65351 | 79° | 110km/h | 9072m | -5.0m/s | -34.5°C | 34.7% | 320.8hPa | 2.6V | 00:00:00 | 02:33:41 | 00:00:00 | |
| DO7DH-14 | 2026-08-31 06:01:20 | 48.22777 | 12.65267 | 78° | 117km/h | 9082m | -5.0m/s | -34.6°C | 36.0% | 320.3hPa | 2.5V | 00:00:00 | 02:33:39 | 00:00:00 | |
| OE5HKT-10 | 2026-08-31 06:01:19 | 48.22771 | 12.65227 | 78° | 115km/h | 9087m | -4.8m/s | -34.6°C | 36.9% | 320.1hPa | 2.5V | 01:07:00 | 02:33:38 | 00:00:00 | |
| OE5MMP-10 | 2026-08-31 06:01:18 | 48.22765 | 12.65187 | 76° | 108km/h | 9092m | -4.7m/s | -34.7°C | 37.5% | 319.9hPa | 2.5V | 01:07:00 | 02:33:37 | 00:00:00 | |
| DO3MHA-12 | 2026-08-31 06:01:17 | 48.22758 | 12.65148 | 75° | 108km/h | 9097m | -4.7m/s | -34.7°C | 38.4% | 319.6hPa | 2.5V | 01:07:00 | 02:33:36 | 00:00:00 | |
| OE5WHR-10 | 2026-08-31 06:01:16 | 48.22751 | 12.65110 | 73° | 119km/h | 9101m | -4.7m/s | -34.7°C | 38.7% | 319.4hPa | 2.5V | 01:07:00 | 02:33:35 | 00:00:00 | |
| DO3MHA-11 | 2026-08-31 06:01:15 | 48.22743 | 12.65072 | 72° | 111km/h | 9106m | -4.9m/s | -34.8°C | 38.7% | 319.2hPa | 2.5V | 01:07:00 | 02:33:34 | 00:00:00 | |
| NBG1-10 | 2026-08-31 06:01:13 | 48.22725 | 12.64997 | 70° | 117km/h | 9116m | -5.0m/s | -34.9°C | 38.9% | 318.8hPa | 2.6V | 00:00:00 | 02:33:32 | 00:00:00 | |
| DB0NH | 2026-08-31 06:01:12 | 48.22715 | 12.64958 | 68° | 119km/h | 9121m | -4.8m/s | -34.9°C | 38.8% | 318.6hPa | 2.6V | 01:07:00 | 02:33:31 | 00:00:00 | |
| OE5GOL-10 | 2026-08-31 06:01:11 | 48.22704 | 12.64920 | 68° | 119km/h | 9126m | -4.7m/s | -34.9°C | 38.8% | 318.3hPa | 2.6V | 01:07:00 | 02:33:30 | 00:00:00 | |
| OE5DRO-10 | 2026-08-31 06:01:10 | 48.22693 | 12.64881 | 68° | 122km/h | 9131m | -4.8m/s | -35.0°C | 38.8% | 318.1hPa | 2.6V | 00:00:00 | 00:00:00 | 00:00:00 | |
| OE5MMP-10 | 2026-08-31 06:01:08 | 48.22670 | 12.64801 | 67° | 122km/h | 9140m | -4.9m/s | -35.1°C | 38.8% | 317.7hPa | 2.6V | 00:00:00 | 02:33:27 | 00:00:00 | |
| DO3MHA-12 | 2026-08-31 06:01:07 | 48.22658 | 12.64761 | 67° | 124km/h | 9145m | -4.9m/s | -35.1°C | 38.8% | 317.4hPa | 2.6V | 00:00:00 | 02:33:26 | 00:00:00 | |
| DO3MHA-11 | 2026-08-31 06:01:05 | 48.22635 | 12.64678 | 67° | 126km/h | 9156m | -5.2m/s | -35.2°C | 39.1% | 317.0hPa | 2.6V | 00:00:00 | 02:33:24 | 00:00:00 | |
| BAUMI2-15 | 2026-08-31 06:01:02 | 48.22599 | 12.64549 | 69° | 128km/h | 9171m | -4.6m/s | -35.3°C | 40.0% | 316.2hPa | 2.6V | 00:00:00 | 02:33:21 | 00:00:00 | |
| PG1ADW-2 | 2026-08-31 06:01:00 | 48.22577 | 12.64459 | 71° | 119km/h | 9180m | -4.9m/s | -35.4°C | 40.7% | 315.8hPa | 2.6V | 00:00:00 | 00:00:00 | 00:00:00 | |
| OE5DXL-15 | 2026-08-31 06:00:59 | 48.22566 | 12.64413 | 72° | 122km/h | 9185m | -5.1m/s | -35.4°C | 40.0% | 315.5hPa | 2.6V | 01:07:00 | 00:00:00 | 00:00:00 | |
| OE5MMP-10 | 2026-08-31 06:00:58 | 48.22556 | 12.64367 | 73° | 122km/h | 9190m | -5.1m/s | -35.4°C | 39.2% | 315.3hPa | 2.6V | 01:07:00 | 02:33:17 | 00:00:00 | |
| BAUMI2-15 | 2026-08-31 06:00:57 | 48.22547 | 12.64321 | 74° | 124km/h | 9195m | -5.2m/s | -35.4°C | 38.2% | 315.1hPa | 2.6V | 01:07:00 | 02:33:16 | 00:00:00 | |
| DO3MHA-11 | 2026-08-31 06:00:55 | 48.22530 | 12.64228 | 76° | 115km/h | 9205m | -5.0m/s | -35.5°C | 36.1% | 314.7hPa | 2.6V | 01:07:00 | 02:33:14 | 00:00:00 | |
| DO3MHA-12 | 2026-08-31 06:00:54 | 48.22522 | 12.64182 | 77° | 113km/h | 9210m | -4.8m/s | -35.5°C | 35.1% | 314.5hPa | 2.6V | 01:07:00 | 02:33:13 | 00:00:00 | |
| OE5DRO-10 | 2026-08-31 06:00:51 | 48.22501 | 12.64049 | 78° | 119km/h | 9225m | -5.1m/s | -35.5°C | 34.4% | 313.8hPa | 2.6V | 01:07:00 | 00:00:00 | 00:00:00 | |
| DO7DH-14 | 2026-08-31 06:00:50 | 48.22494 | 12.64006 | 77° | 120km/h | 9230m | -5.0m/s | -35.6°C | 35.1% | 313.5hPa | 2.6V | 01:07:00 | 02:33:09 | 00:00:00 | |
| OE5MMP-10 | 2026-08-31 06:00:48 | 48.22481 | 12.63924 | 76° | 113km/h | 9240m | -4.8m/s | -35.7°C | 36.0% | 313.1hPa | 2.6V | 00:00:00 | 02:33:07 | 00:00:00 | |
| DO3MHA-11 | 2026-08-31 06:00:45 | 48.22456 | 12.63807 | 70° | 119km/h | 9254m | -4.8m/s | -35.8°C | 35.2% | 312.4hPa | 2.5V | 00:00:00 | 02:33:04 | 00:00:00 | |
| DO3MHA-12 | 2026-08-31 06:00:44 | 48.22446 | 12.63769 | 69° | 122km/h | 9259m | -5.0m/s | -35.8°C | 34.5% | 312.3hPa | 2.5V | 00:00:00 | 02:33:03 | 00:00:00 | |
| OE5REO-15 | 2026-08-31 06:00:43 | 48.22446 | 12.63769 | 69° | 110km/h | 9259m | -5.0m/s | -35.9°C | 30.6% | 312.3hPa | 2.5V | 00:00:00 | 00:00:00 | 00:00:00 | |
| DB0NH | 2026-08-31 06:00:42 | 48.22424 | 12.63690 | 67° | 120km/h | 9269m | -4.9m/s | -35.9°C | 33.2% | 311.8hPa | 2.5V | 00:00:00 | 02:33:01 | 00:00:00 | |
| OE5GOL-10 | 2026-08-31 06:00:41 | 48.22412 | 12.63650 | 67° | 122km/h | 9274m | -5.1m/s | -35.9°C | 32.6% | 311.7hPa | 2.5V | 00:00:00 | 02:33:00 | 00:00:00 | |
| NBG1-10 | 2026-08-31 06:00:40 | 48.22400 | 12.63609 | 67° | 122km/h | 9279m | -5.0m/s | -35.9°C | 32.2% | 311.4hPa | 2.5V | 01:07:00 | 02:32:59 | 00:00:00 | |
| DL6DJ-15 | 2026-08-31 06:00:39 | 48.22388 | 12.63567 | 66° | 120km/h | 9284m | -4.9m/s | -36.0°C | 28.0% | 311.2hPa | 2.5V | 00:00:00 | 00:00:00 | 00:00:00 | |
| OE3JTB-15 | 2026-08-31 06:00:38 | 48.22375 | 12.63524 | 67° | 122km/h | 9289m | -5.0m/s | -36.0°C | 31.7% | 311.0hPa | 2.5V | 00:00:00 | 02:32:57 | 00:00:00 | |
| DO3MHA-11 | 2026-08-31 06:00:35 | 48.22339 | 12.63390 | 70° | 130km/h | 9304m | -4.9m/s | -36.1°C | 34.3% | 310.3hPa | 2.5V | 01:07:00 | 02:32:54 | 00:00:00 | |
| OE5WHR-10 | 2026-08-31 06:00:34 | 48.22327 | 12.63343 | 71° | 120km/h | 9309m | -4.9m/s | -36.1°C | 34.7% | 310.1hPa | 2.5V | 01:07:00 | 00:00:00 | 00:00:00 | |
| OE5DRO-10 | 2026-08-31 06:00:32 | 48.22306 | 12.63248 | 73° | 120km/h | 9319m | -4.8m/s | -36.2°C | 34.2% | 309.7hPa | 2.5V | 00:00:00 | 00:00:00 | 00:00:00 | |
| OE5DXL-15 | 2026-08-31 06:00:29 | 48.22279 | 12.63104 | 76° | 122km/h | 9333m | -5.1m/s | -36.2°C | 31.5% | 309.0hPa | 2.5V | 00:00:00 | 00:00:00 | 00:00:00 | |
| OE5MMP-10 | 2026-08-31 06:00:28 | 48.22271 | 12.63057 | 77° | 119km/h | 9338m | -4.8m/s | -36.3°C | 31.0% | 308.7hPa | 2.5V | 00:00:00 | 02:32:47 | 00:00:00 | |
| DO3MHA-11 | 2026-08-31 06:00:25 | 48.22249 | 12.62918 | 78° | 115km/h | 9352m | -4.8m/s | -36.4°C | 29.8% | 308.1hPa | 2.5V | 00:00:00 | 02:32:44 | 00:00:00 | |
| DO3MHA-12 | 2026-08-31 06:00:24 | 48.22242 | 12.62873 | 78° | 113km/h | 9357m | -4.8m/s | -36.4°C | 29.6% | 307.9hPa | 2.5V | 00:00:00 | 02:32:43 | 00:00:00 | |
| DO7DH-14 | 2026-08-31 06:00:20 | 48.22216 | 12.62702 | 76° | 122km/h | 9377m | -5.0m/s | -36.6°C | 34.4% | 307.0hPa | 2.6V | 00:00:00 | 02:32:39 | 00:00:00 | |
| DO3MHA-11 | 2026-08-31 06:00:15 | 48.22175 | 12.62502 | 70° | 124km/h | 9402m | -4.8m/s | -36.8°C | 37.6% | 305.9hPa | 2.6V | 01:08:00 | 02:32:34 | 00:00:00 | |
| DO3MHA-12 | 2026-08-31 06:00:14 | 48.22164 | 12.62462 | 68° | 126km/h | 9407m | -4.7m/s | -36.8°C | 37.7% | 305.7hPa | 2.5V | 01:08:00 | 02:32:33 | 00:00:00 | |
| OE5WHR-10 | 2026-08-31 06:00:13 | 48.22153 | 12.62422 | 68° | 128km/h | 9412m | -4.4m/s | -36.9°C | 37.1% | 305.5hPa | 2.5V | 00:00:00 | 02:32:32 | 00:00:00 | |
| DB0NH | 2026-08-31 06:00:12 | 48.22141 | 12.62380 | 68° | 126km/h | 9416m | -4.7m/s | -36.9°C | 36.2% | 305.3hPa | 2.5V | 01:08:00 | 02:32:31 | 00:00:00 | |
| OE5GOL-10 | 2026-08-31 06:00:11 | 48.22130 | 12.62337 | 68° | 124km/h | 9421m | -4.9m/s | -36.9°C | 35.1% | 305.0hPa | 2.6V | 01:08:00 | 02:32:30 | 00:00:00 | |
| OE3JTB-15 | 2026-08-31 06:00:09 | 48.22106 | 12.62249 | 69° | 124km/h | 9431m | -5.0m/s | -37.0°C | 33.9% | 304.7hPa | 2.6V | 01:08:00 | 00:00:00 | 00:00:00 | |
| OE5MMP-10 | 2026-08-31 06:00:08 | 48.22094 | 12.62204 | 70° | 131km/h | 9436m | -5.1m/s | -37.0°C | 33.7% | 304.4hPa | 2.5V | 00:00:00 | 02:32:27 | 00:00:00 | |
| NBG1-10 | 2026-08-31 06:00:07 | 48.22083 | 12.62158 | 71° | 126km/h | 9441m | -5.0m/s | -37.0°C | 33.5% | 304.3hPa | 2.5V | 00:00:00 | 02:32:26 | 00:00:00 | |
| DO3MHA-11 | 2026-08-31 06:00:05 | 48.22061 | 12.62064 | 72° | 131km/h | 9451m | -5.0m/s | -37.1°C | 34.0% | 303.8hPa | 2.5V | 00:00:00 | 02:32:24 | 00:00:00 | |
| DO3MHA-12 | 2026-08-31 06:00:04 | 48.22051 | 12.62016 | 73° | 131km/h | 9456m | -5.1m/s | -37.1°C | 34.7% | 303.5hPa | 2.5V | 00:00:00 | 02:32:23 | 00:00:00 | |
| PG1ADW-2 | 2026-08-31 06:00:00 | 48.22014 | 12.61822 | 76° | 120km/h | 9476m | -4.9m/s | -37.2°C | 38.0% | 302.6hPa | 2.5V | 01:08:00 | 02:32:19 | 00:00:00 | |
| OE5DXL-15 | 2026-08-31 05:59:59 | 48.22006 | 12.61773 | 77° | 124km/h | 9481m | -4.9m/s | -37.3°C | 39.0% | 302.5hPa | 2.5V | 01:08:00 | 00:00:00 | 00:00:00 | |
| OE5MMP-10 | 2026-08-31 05:59:58 | 48.21998 | 12.61725 | 78° | 120km/h | 9486m | -5.0m/s | -37.3°C | 39.9% | 302.3hPa | 2.5V | 01:08:00 | 02:32:17 | 00:00:00 | |
| DO3MHA-11 | 2026-08-31 05:59:55 | 48.21979 | 12.61583 | 80° | 115km/h | 9501m | -5.1m/s | -37.4°C | 42.3% | 301.5hPa | 2.5V | 01:08:00 | 02:32:14 | 00:00:00 | |
| DO3MHA-12 | 2026-08-31 05:59:54 | 48.21973 | 12.61537 | 80° | 115km/h | 9506m | -5.1m/s | -37.5°C | 42.7% | 301.3hPa | 2.5V | 01:08:00 | 02:32:13 | 00:00:00 | |
| DG1MFX-10 | 2026-08-31 05:59:53 | 48.21973 | 12.61537 | 80° | 120km/h | 9506m | -5.1m/s | -37.5°C | 38.0% | 301.4hPa | 2.6V | 00:00:00 | 00:00:00 | 00:00:00 | |
| OE5WHR-10 | 2026-08-31 05:59:52 | 48.21962 | 12.61449 | 79° | 124km/h | 9516m | -4.7m/s | -37.6°C | 43.7% | 300.9hPa | 2.6V | 01:08:00 | 00:00:00 | 00:00:00 | |
| DO7DH-14 | 2026-08-31 05:59:50 | 48.21950 | 12.61366 | 77° | 122km/h | 9526m | -4.8m/s | -37.7°C | 44.2% | 300.4hPa | 2.5V | 01:08:00 | 02:32:09 | 00:00:00 | |
| OE5MMP-10 | 2026-08-31 05:59:48 | 48.21935 | 12.61284 | 74° | 120km/h | 9536m | -5.1m/s | -37.8°C | 44.1% | 300.0hPa | 2.5V | 00:00:00 | 02:32:07 | 00:00:00 | |
| DO3MHA-11 | 2026-08-31 05:59:45 | 48.21908 | 12.61162 | 71° | 126km/h | 9551m | -5.2m/s | -37.9°C | 43.0% | 299.4hPa | 2.6V | 00:00:00 | 02:32:04 | 00:00:00 | |
| DO3MHA-12 | 2026-08-31 05:59:44 | 48.21898 | 12.61120 | 70° | 128km/h | 9556m | -4.9m/s | -38.0°C | 42.6% | 299.2hPa | 2.5V | 00:00:00 | 02:32:03 | 00:00:00 | |
| DB0UT-7 | 2026-08-31 05:59:43 | 48.21887 | 12.61078 | 70° | 124km/h | 9561m | -4.9m/s | -38.0°C | 42.2% | 298.9hPa | 2.5V | 01:08:00 | 02:32:02 | 00:00:00 | |
| OE5GOL-10 | 2026-08-31 05:59:41 | 48.21865 | 12.60992 | 69° | 124km/h | 9572m | -5.1m/s | -38.1°C | 41.2% | 298.5hPa | 2.5V | 00:00:00 | 02:32:00 | 00:00:00 | |
| PG1ADW-2 | 2026-08-31 05:59:40 | 48.21853 | 12.60947 | 70° | 126km/h | 9577m | -5.3m/s | -38.1°C | 40.8% | 298.4hPa | 2.5V | 00:00:00 | 00:00:00 | 00:00:00 | |
| OE5MMP-10 | 2026-08-31 05:59:38 | 48.21831 | 12.60854 | 71° | 133km/h | 9587m | -5.4m/s | -38.2°C | 40.8% | 297.8hPa | 2.5V | 01:08:00 | 02:31:57 | 00:00:00 | |
| DL6DJ-15 | 2026-08-31 05:59:37 | 48.21820 | 12.60806 | 71° | 133km/h | 9593m | -5.4m/s | -38.3°C | 36.3% | 297.7hPa | 2.5V | 00:00:00 | 00:00:00 | 00:00:00 | |
| DO3MHA-11 | 2026-08-31 05:59:35 | 48.21800 | 12.60708 | 75° | 128km/h | 9603m | -5.2m/s | -38.3°C | 42.4% | 297.2hPa | 2.5V | 01:08:00 | 02:31:54 | 00:00:00 | |
| DO3MHA-12 | 2026-08-31 05:59:34 | 48.21791 | 12.60658 | 76° | 126km/h | 9608m | -5.2m/s | -38.3°C | 43.1% | 296.9hPa | 2.5V | 01:08:00 | 02:31:53 | 00:00:00 | |
| DB0NH | 2026-08-31 05:59:33 | 48.21782 | 12.60608 | 77° | 124km/h | 9613m | -5.2m/s | -38.3°C | 43.6% | 296.7hPa | 2.5V | 00:00:00 | 02:31:52 | 00:00:00 | |
| OE5HKT-10 | 2026-08-31 05:59:32 | 48.21775 | 12.60559 | 78° | 126km/h | 9619m | -5.1m/s | -38.4°C | 44.3% | 296.5hPa | 2.5V | 01:08:00 | 00:00:00 | 00:00:00 | |
| OE5WHR-10 | 2026-08-31 05:59:31 | 48.21768 | 12.60510 | 79° | 120km/h | 9624m | -5.0m/s | -38.4°C | 44.6% | 296.3hPa | 2.5V | 00:00:00 | 00:00:00 | 00:00:00 | |
| DG1MFX-10 | 2026-08-31 05:59:30 | 48.21768 | 12.60510 | 80° | 130km/h | 9624m | -5.1m/s | -38.5°C | 39.6% | 296.3hPa | 2.5V | 01:09:00 | 00:00:00 | 00:00:00 | |
| OE5DXL-15 | 2026-08-31 05:59:29 | 48.21756 | 12.60416 | 80° | 124km/h | 9634m | -5.0m/s | -38.5°C | 44.0% | 295.8hPa | 2.5V | 00:00:00 | 00:00:00 | 00:00:00 | |
| OE5MMP-10 | 2026-08-31 05:59:28 | 48.21750 | 12.60370 | 80° | 115km/h | 9639m | -4.8m/s | -38.5°C | 43.5% | 295.6hPa | 2.5V | 00:00:00 | 02:31:47 | 00:00:00 | |
| DO3MHA-11 | 2026-08-31 05:59:25 | 48.21731 | 12.60241 | 76° | 115km/h | 9653m | -4.9m/s | -38.7°C | 41.7% | 295.0hPa | 2.5V | 00:00:00 | 02:31:44 | 00:00:00 | |
| DO3MHA-12 | 2026-08-31 05:59:24 | 48.21723 | 12.60199 | 75° | 117km/h | 9658m | -4.9m/s | -38.7°C | 41.2% | 294.8hPa | 2.5V | 00:00:00 | 02:31:43 | 00:00:00 | |
| DO7DH-14 | 2026-08-31 05:59:20 | 48.21689 | 12.60036 | 71° | 126km/h | 9679m | -5.2m/s | -38.9°C | 38.9% | 294.0hPa | 2.6V | 00:00:00 | 02:31:39 | 00:00:00 | |
| OE5MMP-10 | 2026-08-31 05:59:18 | 48.21669 | 12.59954 | 69° | 126km/h | 9690m | -5.2m/s | -38.9°C | 36.8% | 293.4hPa | 2.6V | 01:09:00 | 02:31:37 | 00:00:00 | |
| OE5DRO-10 | 2026-08-31 05:59:16 | 48.21646 | 12.59871 | 68° | 131km/h | 9700m | -4.9m/s | -39.0°C | 33.9% | 293.0hPa | 2.5V | 00:00:00 | 00:00:00 | 00:00:00 | |
| DO3MHA-11 | 2026-08-31 05:59:15 | 48.21634 | 12.59828 | 68° | 133km/h | 9705m | -4.9m/s | -39.1°C | 33.0% | 292.7hPa | 2.5V | 01:09:00 | 02:31:34 | 00:00:00 | |
| DO3MHA-12 | 2026-08-31 05:59:14 | 48.21622 | 12.59785 | 68° | 133km/h | 9710m | -5.0m/s | -39.1°C | 32.1% | 292.6hPa | 2.5V | 01:09:00 | 02:31:33 | 00:00:00 | |
| DB0UT-7 | 2026-08-31 05:59:13 | 48.21610 | 12.59740 | 68° | 124km/h | 9715m | -5.1m/s | -39.1°C | 30.7% | 292.3hPa | 2.5V | 00:00:00 | 00:00:00 | 00:00:00 | |
| OE5GOL-10 | 2026-08-31 05:59:11 | 48.21585 | 12.59649 | 69° | 126km/h | 9725m | -5.0m/s | -39.2°C | 29.9% | 291.9hPa | 2.5V | 01:09:00 | 02:31:30 | 00:00:00 | |
| OE5WHR-10 | 2026-08-31 05:59:10 | 48.21573 | 12.59601 | 70° | 126km/h | 9730m | -5.0m/s | -39.2°C | 30.1% | 291.6hPa | 2.5V | 01:09:00 | 02:31:29 | 00:00:00 | |
| DL6DJ-15 | 2026-08-31 05:59:06 | 48.21528 | 12.59405 | 73° | 137km/h | 9751m | -5.0m/s | -39.5°C | 28.1% | 290.9hPa | 2.5V | 00:00:00 | 00:00:00 | 00:00:00 | |
| DO3MHA-11 | 2026-08-31 05:59:05 | 48.21518 | 12.59356 | 75° | 128km/h | 9756m | -5.0m/s | -39.4°C | 33.2% | 290.7hPa | 2.5V | 00:00:00 | 02:31:24 | 00:00:00 | |
| DO3MHA-12 | 2026-08-31 05:59:04 | 48.21509 | 12.59306 | 76° | 126km/h | 9761m | -5.1m/s | -39.5°C | 34.3% | 290.4hPa | 2.5V | 00:00:00 | 02:31:23 | 00:00:00 | |
| NBG1-10 | 2026-08-31 05:59:01 | 48.21486 | 12.59159 | 78° | 126km/h | 9776m | -5.3m/s | -39.6°C | 35.1% | 289.7hPa | 2.5V | 00:00:00 | 02:31:20 | 00:00:00 | |
| PG1ADW-2 | 2026-08-31 05:59:00 | 48.21479 | 12.59112 | 78° | 122km/h | 9782m | -5.3m/s | -39.7°C | 35.4% | 289.5hPa | 2.5V | 00:00:00 | 00:00:00 | 00:00:00 | |
| OE5DXL-15 | 2026-08-31 05:58:59 | 48.21472 | 12.59065 | 78° | 124km/h | 9787m | -5.2m/s | -39.7°C | 35.6% | 289.3hPa | 2.5V | 01:09:00 | 00:00:00 | 00:00:00 | |
| OE5MMP-10 | 2026-08-31 05:58:58 | 48.21465 | 12.59019 | 78° | 117km/h | 9792m | -5.5m/s | -39.8°C | 35.9% | 289.0hPa | 2.5V | 01:09:00 | 02:31:17 | 00:00:00 | |
| OE5DRO-10 | 2026-08-31 05:58:57 | 48.21458 | 12.58974 | 78° | 122km/h | 9798m | -5.4m/s | -39.8°C | 36.2% | 288.8hPa | 2.5V | 01:09:00 | 00:00:00 | 00:00:00 | |
| DO3MHA-11 | 2026-08-31 05:58:55 | 48.21445 | 12.58887 | 77° | 117km/h | 9809m | -5.3m/s | -39.9°C | 37.6% | 288.4hPa | 2.5V | 01:09:00 | 02:31:14 | 00:00:00 | |
| DO3MHA-12 | 2026-08-31 05:58:54 | 48.21438 | 12.58845 | 76° | 119km/h | 9815m | -5.3m/s | -40.0°C | 39.1% | 288.2hPa | 2.5V | 01:09:00 | 02:31:13 | 00:00:00 | |
| DB0NH | 2026-08-31 05:58:52 | 48.21423 | 12.58762 | 73° | 120km/h | 9826m | -5.5m/s | -40.0°C | 41.3% | 287.7hPa | 2.6V | 01:09:00 | 02:31:11 | 00:00:00 | |
| DO7DH-14 | 2026-08-31 05:58:50 | 48.21404 | 12.58681 | 70° | 124km/h | 9837m | -5.3m/s | -40.1°C | 44.3% | 287.3hPa | 2.6V | 01:09:00 | 02:31:09 | 00:00:00 | |
| OE5WHR-10 | 2026-08-31 05:58:49 | 48.21393 | 12.58640 | 69° | 128km/h | 9842m | -5.1m/s | -40.1°C | 45.6% | 287.0hPa | 2.6V | 00:00:00 | 00:00:00 | 00:00:00 | |
| OE5MMP-10 | 2026-08-31 05:58:48 | 48.21382 | 12.58599 | 68° | 130km/h | 9847m | -4.9m/s | -40.2°C | 46.8% | 286.8hPa | 2.6V | 00:00:00 | 02:31:07 | 00:00:00 | |
| BAUMI2-15 | 2026-08-31 05:58:47 | 48.21371 | 12.58557 | 68° | 128km/h | 9852m | -4.9m/s | -40.2°C | 48.0% | 286.5hPa | 2.5V | 01:09:00 | 02:31:06 | 00:00:00 | |
| DO3MHA-11 | 2026-08-31 05:58:45 | 48.21346 | 12.58469 | 68° | 133km/h | 9863m | -5.3m/s | -40.3°C | 48.7% | 286.2hPa | 2.5V | 00:00:00 | 02:31:04 | 00:00:00 | |
| DO3MHA-12 | 2026-08-31 05:58:44 | 48.21334 | 12.58424 | 68° | 133km/h | 9868m | -5.4m/s | -40.4°C | 49.1% | 285.9hPa | 2.6V | 00:00:00 | 02:31:03 | 00:00:00 | |
| OE3JTB-15 | 2026-08-31 05:58:42 | 48.21310 | 12.58330 | 70° | 126km/h | 9879m | -5.1m/s | -40.5°C | 49.8% | 285.5hPa | 2.6V | 00:00:00 | 00:00:00 | 00:00:00 | |
| OE5GOL-10 | 2026-08-31 05:58:41 | 48.21298 | 12.58282 | 71° | 126km/h | 9884m | -5.4m/s | -40.5°C | 50.4% | 285.3hPa | 2.5V | 00:00:00 | 02:31:00 | 00:00:00 | |
| DF7PN | 2026-08-31 05:58:40 | 48.21277 | 12.58185 | 73° | 135km/h | 9895m | -5.5m/s | -40.6°C | 45.7% | 284.9hPa | 2.5V | 00:00:00 | 00:00:00 | 00:00:00 | |
| OE5MMP-10 | 2026-08-31 05:58:38 | 48.21267 | 12.58135 | 75° | 128km/h | 9901m | -5.0m/s | -40.6°C | 51.9% | 284.6hPa | 2.5V | 01:09:00 | 02:30:57 | 00:00:00 | |
| BAUMI2-15 | 2026-08-31 05:58:37 | 48.21258 | 12.58086 | 76° | 131km/h | 9906m | -5.4m/s | -40.7°C | 52.1% | 284.4hPa | 2.5V | 01:09:00 | 02:30:56 | 00:00:00 | |
| DO3MHA-11 | 2026-08-31 05:58:35 | 48.21242 | 12.57987 | 78° | 120km/h | 9916m | -5.2m/s | -40.8°C | 52.4% | 283.9hPa | 2.6V | 01:09:00 | 02:30:54 | 00:00:00 | |
| DO3MHA-12 | 2026-08-31 05:58:34 | 48.21235 | 12.57939 | 79° | 119km/h | 9922m | -5.2m/s | -40.8°C | 52.8% | 283.8hPa | 2.6V | 01:09:00 | 02:30:53 | 00:00:00 | |
| BAUMI2-15 | 2026-08-31 05:58:32 | 48.21223 | 12.57845 | 80° | 119km/h | 9932m | -5.1m/s | -40.9°C | 53.5% | 283.2hPa | 2.6V | 00:00:00 | 02:30:51 | 00:00:00 | |
| OE5DXL-15 | 2026-08-31 05:58:29 | 48.21205 | 12.57712 | 78° | 124km/h | 9948m | -5.4m/s | -41.1°C | 54.4% | 282.5hPa | 2.6V | 00:00:00 | 00:00:00 | 00:00:00 | |
| OE5WHR-10 | 2026-08-31 05:58:28 | 48.21199 | 12.57670 | 77° | 126km/h | 9953m | -5.5m/s | -41.1°C | 54.7% | 282.3hPa | 2.6V | 01:09:00 | 00:00:00 | 00:00:00 | |
| BAUMI2-15 | 2026-08-31 05:58:27 | 48.21192 | 12.57629 | 76° | 113km/h | 9959m | -5.5m/s | -41.2°C | 55.3% | 282.1hPa | 2.6V | 01:10:00 | 02:30:46 | 00:00:00 | |
| DO3MHA-11 | 2026-08-31 05:58:25 | 48.21176 | 12.57547 | 72° | 122km/h | 9970m | -5.7m/s | -41.3°C | 56.2% | 281.7hPa | 2.6V | 00:00:00 | 02:30:44 | 00:00:00 | |
| DO3MHA-12 | 2026-08-31 05:58:24 | 48.21167 | 12.57506 | 71° | 126km/h | 9975m | -5.4m/s | -41.4°C | 56.4% | 281.4hPa | 2.6V | 00:00:00 | 02:30:43 | 00:00:00 | |
| BAUMI2-15 | 2026-08-31 05:58:22 | 48.21146 | 12.57424 | 69° | 124km/h | 9986m | -5.3m/s | -41.5°C | 56.2% | 281.0hPa | 2.5V | 00:00:00 | 02:30:41 | 00:00:00 | |
| DO7DH-14 | 2026-08-31 05:58:20 | 48.21123 | 12.57339 | 69° | 124km/h | 9997m | -5.6m/s | -41.6°C | 56.2% | 280.5hPa | 2.6V | 00:00:00 | 02:30:39 | 00:00:00 | |
| OE5DRO-10 | 2026-08-31 05:58:19 | 48.21111 | 12.57295 | 69° | 128km/h | 10003m | -5.6m/s | -41.6°C | 56.0% | 280.3hPa | 2.6V | 01:10:00 | 00:00:00 | 00:00:00 | |
| OE5MMP-10 | 2026-08-31 05:58:18 | 48.21099 | 12.57249 | 69° | 135km/h | 10008m | -5.4m/s | -41.7°C | 56.2% | 280.1hPa | 2.5V | 01:10:00 | 02:30:37 | 00:00:00 | |
| BAUMI2-15 | 2026-08-31 05:58:17 | 48.21088 | 12.57203 | 70° | 135km/h | 10014m | -5.4m/s | -41.7°C | 56.5% | 279.8hPa | 2.6V | 01:10:00 | 02:30:36 | 00:00:00 | |
| DO3MHA-11 | 2026-08-31 05:58:15 | 48.21065 | 12.57108 | 72° | 133km/h | 10025m | -5.5m/s | -41.8°C | 56.6% | 279.4hPa | 2.6V | 01:10:00 | 02:30:34 | 00:00:00 | |
| DO3MHA-12 | 2026-08-31 05:58:14 | 48.21055 | 12.57058 | 73° | 131km/h | 10031m | -5.7m/s | -41.8°C | 57.0% | 279.2hPa | 2.6V | 01:10:00 | 02:30:33 | 00:00:00 | |
| OE3JTB-15 | 2026-08-31 05:58:13 | 48.21045 | 12.57009 | 75° | 124km/h | 10037m | -5.5m/s | -41.9°C | 57.4% | 278.9hPa | 2.6V | 01:10:00 | 00:00:00 | 00:00:00 | |
| BAUMI2-15 | 2026-08-31 05:58:12 | 48.21036 | 12.56959 | 76° | 133km/h | 10042m | -5.7m/s | -41.9°C | 57.7% | 278.7hPa | 2.6V | 00:00:00 | 02:30:31 | 00:00:00 | |
| OE5GOL-10 | 2026-08-31 05:58:11 | 48.21027 | 12.56909 | 77° | 124km/h | 10048m | -5.5m/s | -42.0°C | 58.1% | 278.4hPa | 2.6V | 01:10:00 | 02:30:30 | 00:00:00 | |
| DG1MFX-10 | 2026-08-31 05:58:09 | 48.21020 | 12.56859 | 78° | 133km/h | 10054m | -5.5m/s | -42.1°C | 51.9% | 278.3hPa | 2.6V | 01:10:00 | 00:00:00 | 00:00:00 | |
| OE5MMP-10 | 2026-08-31 05:58:08 | 48.21006 | 12.56761 | 80° | 119km/h | 10065m | -5.4m/s | -42.1°C | 59.2% | 277.8hPa | 2.6V | 00:00:00 | 02:30:27 | 00:00:00 | |
| OE5WHR-10 | 2026-08-31 05:58:07 | 48.21000 | 12.56714 | 80° | 120km/h | 10070m | -5.3m/s | -42.2°C | 59.5% | 277.5hPa | 2.6V | 00:00:00 | 02:30:26 | 00:00:00 | |
| DO3MHA-11 | 2026-08-31 05:58:05 | 48.20989 | 12.56621 | 81° | 115km/h | 10081m | -5.3m/s | -42.3°C | 60.1% | 277.1hPa | 2.6V | 00:00:00 | 02:30:24 | 00:00:00 | |
| DO3MHA-12 | 2026-08-31 05:58:04 | 48.20983 | 12.56576 | 80° | 113km/h | 10086m | -5.5m/s | -42.3°C | 60.6% | 276.9hPa | 2.6V | 00:00:00 | 02:30:23 | 00:00:00 | |
| BAUMI2-15 | 2026-08-31 05:58:02 | 48.20972 | 12.56490 | 78° | 111km/h | 10098m | -5.6m/s | -42.5°C | 61.8% | 276.4hPa | 2.6V | 00:00:00 | 02:30:21 | 00:00:00 | |
| PG1ADW-2 | 2026-08-31 05:58:00 | 48.20958 | 12.56407 | 76° | 126km/h | 10109m | -5.6m/s | -42.6°C | 63.6% | 276.0hPa | 2.6V | 01:10:00 | 00:00:00 | 00:00:00 | |
| OE5DXL-15 | 2026-08-31 05:57:59 | 48.20951 | 12.56366 | 75° | 124km/h | 10114m | -5.5m/s | -42.6°C | 64.3% | 275.8hPa | 2.6V | 01:10:00 | 00:00:00 | 00:00:00 | |
| OE5MMP-10 | 2026-08-31 05:57:58 | 48.20943 | 12.56326 | 73° | 120km/h | 10120m | -5.5m/s | -42.7°C | 65.0% | 275.5hPa | 2.6V | 01:10:00 | 02:30:17 | 00:00:00 | |
| BAUMI2-15 | 2026-08-31 05:57:57 | 48.20934 | 12.56285 | 72° | 117km/h | 10126m | -5.6m/s | -42.7°C | 65.4% | 275.3hPa | 2.6V | 01:10:00 | 02:30:16 | 00:00:00 | |
| DO3MHA-11 | 2026-08-31 05:57:55 | 48.20915 | 12.56204 | 70° | 126km/h | 10137m | -5.6m/s | -42.8°C | 66.1% | 274.8hPa | 2.6V | 01:10:00 | 02:30:14 | 00:00:00 | |
| DO3MHA-12 | 2026-08-31 05:57:54 | 48.20905 | 12.56162 | 70° | 128km/h | 10143m | -5.9m/s | -42.9°C | 66.3% | 274.5hPa | 2.6V | 01:10:00 | 02:30:13 | 00:00:00 | |
| BAUMI2-15 | 2026-08-31 05:57:52 | 48.20882 | 12.56078 | 68° | 128km/h | 10154m | -5.6m/s | -42.9°C | 65.3% | 274.1hPa | 2.5V | 00:00:00 | 02:30:11 | 00:00:00 | |
| DO7DH-14 | 2026-08-31 05:57:50 | 48.20858 | 12.55990 | 68° | 128km/h | 10165m | -5.6m/s | -43.0°C | 64.6% | 273.6hPa | 2.6V | 01:10:00 | 02:30:09 | 00:00:00 | |
| DG1MFX-10 | 2026-08-31 05:57:49 | 48.20858 | 12.55990 | 69° | 128km/h | 10165m | -5.6m/s | -43.1°C | 57.3% | 273.7hPa | 2.5V | 01:11:00 | 00:00:00 | 00:00:00 | |
| OE5MMP-10 | 2026-08-31 05:57:48 | 48.20834 | 12.55899 | 70° | 133km/h | 10177m | -5.6m/s | -43.1°C | 64.5% | 273.2hPa | 2.5V | 00:00:00 | 02:30:07 | 00:00:00 | |
| BAUMI2-15 | 2026-08-31 05:57:47 | 48.20823 | 12.55851 | 71° | 137km/h | 10182m | -5.5m/s | -43.2°C | 64.4% | 272.9hPa | 2.5V | 01:10:00 | 02:30:06 | 00:00:00 | |
| OE5WHR-10 | 2026-08-31 05:57:46 | 48.20811 | 12.55803 | 72° | 126km/h | 10188m | -5.7m/s | -43.2°C | 64.3% | 272.7hPa | 2.5V | 01:10:00 | 00:00:00 | 00:00:00 | |
| DO3MHA-11 | 2026-08-31 05:57:45 | 48.20801 | 12.55754 | 73° | 130km/h | 10194m | -5.7m/s | -43.2°C | 64.3% | 272.4hPa | 2.5V | 00:00:00 | 02:30:04 | 00:00:00 | |
| DO3MHA-12 | 2026-08-31 05:57:44 | 48.20790 | 12.55704 | 74° | 128km/h | 10200m | -5.9m/s | -43.3°C | 64.3% | 272.2hPa | 2.5V | 00:00:00 | 02:30:03 | 00:00:00 | |
| OE5GOL-10 | 2026-08-31 05:57:41 | 48.20764 | 12.55555 | 77° | 130km/h | 10217m | -5.6m/s | -43.4°C | 62.6% | 271.5hPa | 2.5V | 00:00:00 | 02:30:00 | 00:00:00 | |
| PG1ADW-2 | 2026-08-31 05:57:40 | 48.20757 | 12.55506 | 78° | 124km/h | 10222m | -5.7m/s | -43.5°C | 61.4% | 271.3hPa | 2.6V | 00:00:00 | 00:00:00 | 00:00:00 | |
| OE5MMP-10 | 2026-08-31 05:57:38 | 48.20744 | 12.55412 | 79° | 117km/h | 10233m | -5.5m/s | -43.6°C | 59.1% | 270.8hPa | 2.6V | 01:10:00 | 02:29:57 | 00:00:00 | |
| BAUMI2-15 | 2026-08-31 05:57:37 | 48.20738 | 12.55367 | 78° | 117km/h | 10239m | -5.6m/s | -43.6°C | 57.9% | 270.6hPa | 2.6V | 01:10:00 | 02:29:56 | 00:00:00 | |
| DO3MHA-11 | 2026-08-31 05:57:35 | 48.20724 | 12.55280 | 76° | 119km/h | 10250m | -5.8m/s | -43.8°C | 56.0% | 270.2hPa | 2.5V | 01:10:00 | 02:29:54 | 00:00:00 | |
| DO3MHA-12 | 2026-08-31 05:57:34 | 48.20717 | 12.55238 | 75° | 120km/h | 10256m | -5.7m/s | -43.8°C | 54.9% | 269.9hPa | 2.5V | 01:10:00 | 02:29:53 | 00:00:00 | |
| DL6DJ-15 | 2026-08-31 05:57:33 | 48.20708 | 12.55197 | 72° | 113km/h | 10261m | -5.7m/s | -43.9°C | 47.1% | 269.7hPa | 2.5V | 00:00:00 | 00:00:00 | 00:00:00 | |
| BAUMI2-15 | 2026-08-31 05:57:32 | 48.20699 | 12.55156 | 71° | 119km/h | 10267m | -6.0m/s | -43.9°C | 52.2% | 269.5hPa | 2.5V | 00:00:00 | 02:29:51 | 00:00:00 | |
| OE5DXL-15 | 2026-08-31 05:57:29 | 48.20668 | 12.55032 | 68° | 130km/h | 10285m | -5.5m/s | -44.1°C | 47.5% | 268.7hPa | 2.5V | 00:00:00 | 00:00:00 | 00:00:00 | |
| OE5MMP-10 | 2026-08-31 05:57:28 | 48.20656 | 12.54989 | 68° | 135km/h | 10290m | -5.7m/s | -44.1°C | 46.1% | 268.5hPa | 2.5V | 00:00:00 | 02:29:47 | 00:00:00 | |
| BAUMI2-15 | 2026-08-31 05:57:27 | 48.20643 | 12.54945 | 68° | 133km/h | 10296m | -5.6m/s | -44.1°C | 44.5% | 268.3hPa | 2.5V | 01:11:00 | 02:29:46 | 00:00:00 | |
| DO3MHA-11 | 2026-08-31 05:57:25 | 48.20618 | 12.54854 | 68° | 139km/h | 10307m | -5.6m/s | -44.2°C | 42.3% | 267.8hPa | 2.5V | 00:00:00 | 02:29:44 | 00:00:00 | |
| DO3MHA-12 | 2026-08-31 05:57:24 | 48.20605 | 12.54807 | 69° | 139km/h | 10313m | -5.6m/s | -44.2°C | 42.1% | 267.6hPa | 2.5V | 00:00:00 | 02:29:43 | 00:00:00 | |
| BAUMI2-15 | 2026-08-31 05:57:22 | 48.20581 | 12.54710 | 71° | 141km/h | 10325m | -6.0m/s | -44.3°C | 42.0% | 267.1hPa | 2.5V | 00:00:00 | 02:29:41 | 00:00:00 | |
| DO7DH-14 | 2026-08-31 05:57:20 | 48.20558 | 12.54609 | 72° | 130km/h | 10337m | -5.9m/s | -44.3°C | 42.6% | 266.7hPa | 2.6V | 00:00:00 | 02:29:39 | 00:00:00 | |
| OE5MMP-10 | 2026-08-31 05:57:18 | 48.20537 | 12.54507 | 74° | 133km/h | 10349m | -5.9m/s | -44.4°C | 43.0% | 266.2hPa | 2.6V | 01:11:00 | 02:29:37 | 00:00:00 | |
| BAUMI2-15 | 2026-08-31 05:57:17 | 48.20527 | 12.54456 | 75° | 137km/h | 10355m | -6.1m/s | -44.5°C | 43.3% | 266.0hPa | 2.6V | 01:11:00 | 02:29:36 | 00:00:00 | |
| DB0UT-7 | 2026-08-31 05:57:15 | 48.20510 | 12.54353 | 77° | 131km/h | 10367m | -5.9m/s | -44.6°C | 43.2% | 265.5hPa | 2.6V | 01:11:00 | 02:29:34 | 00:00:00 | |
| DO3MHA-12 | 2026-08-31 05:57:14 | 48.20502 | 12.54303 | 78° | 124km/h | 10373m | -6.0m/s | -44.6°C | 43.0% | 265.2hPa | 2.6V | 01:11:00 | 02:29:33 | 00:00:00 | |
| BAUMI2-15 | 2026-08-31 05:57:12 | 48.20488 | 12.54204 | 79° | 124km/h | 10385m | -5.9m/s | -44.7°C | 42.0% | 264.9hPa | 2.6V | 00:00:00 | 02:29:31 | 00:00:00 | |
| OE5GOL-10 | 2026-08-31 05:57:11 | 48.20482 | 12.54157 | 79° | 130km/h | 10391m | -5.9m/s | -44.8°C | 41.7% | 264.6hPa | 2.6V | 01:11:00 | 02:29:30 | 00:00:00 | |
| OE5MMP-10 | 2026-08-31 05:57:08 | 48.20462 | 12.54020 | 77° | 122km/h | 10408m | -5.9m/s | -44.9°C | 40.8% | 263.9hPa | 2.6V | 00:00:00 | 02:29:27 | 00:00:00 | |
| BAUMI2-15 | 2026-08-31 05:57:07 | 48.20455 | 12.53977 | 76° | 119km/h | 10414m | -5.9m/s | -44.9°C | 40.8% | 263.6hPa | 2.6V | 01:11:00 | 02:29:26 | 00:00:00 | |
| DO3MHA-11 | 2026-08-31 05:57:05 | 48.20439 | 12.53891 | 73° | 128km/h | 10426m | -6.0m/s | -45.0°C | 40.6% | 263.2hPa | 2.5V | 00:00:00 | 02:29:24 | 00:00:00 | |
| DO3MHA-12 | 2026-08-31 05:57:04 | 48.20429 | 12.53849 | 72° | 130km/h | 10432m | -5.8m/s | -45.1°C | 40.5% | 263.0hPa | 2.5V | 00:00:00 | 02:29:23 | 00:00:00 | |
| OE5DRO-10 | 2026-08-31 05:57:03 | 48.20419 | 12.53806 | 70° | 135km/h | 10438m | -5.9m/s | -45.1°C | 40.1% | 262.7hPa | 2.5V | 01:11:00 | 00:00:00 | 00:00:00 | |
| BAUMI2-15 | 2026-08-31 05:57:02 | 48.20408 | 12.53763 | 69° | 128km/h | 10444m | -5.9m/s | -45.1°C | 39.9% | 262.5hPa | 2.5V | 00:00:00 | 02:29:21 | 00:00:00 | |
| PG1ADW-2 | 2026-08-31 05:57:00 | 48.20385 | 12.53675 | 68° | 133km/h | 10455m | -5.9m/s | -45.2°C | 40.1% | 262.0hPa | 2.5V | 00:00:00 | 00:00:00 | 00:00:00 | |
| OE5DXL-15 | 2026-08-31 05:56:59 | 48.20372 | 12.53629 | 68° | 131km/h | 10461m | -5.7m/s | -45.3°C | 40.2% | 261.8hPa | 2.5V | 01:11:00 | 00:00:00 | 00:00:00 | |
| OE5MMP-10 | 2026-08-31 05:56:58 | 48.20360 | 12.53582 | 68° | 141km/h | 10467m | -5.8m/s | -45.3°C | 40.4% | 261.5hPa | 2.5V | 01:11:00 | 02:29:17 | 00:00:00 | |
| BAUMI2-15 | 2026-08-31 05:56:57 | 48.20347 | 12.53535 | 69° | 139km/h | 10473m | -5.9m/s | -45.4°C | 40.5% | 261.3hPa | 2.5V | 01:11:00 | 02:29:16 | 00:00:00 | |
| DO3MHA-11 | 2026-08-31 05:56:55 | 48.20322 | 12.53436 | 71° | 139km/h | 10485m | -6.1m/s | -45.5°C | 41.2% | 260.8hPa | 2.5V | 01:11:00 | 02:29:14 | 00:00:00 | |
| DO3MHA-12 | 2026-08-31 05:56:54 | 48.20310 | 12.53385 | 72° | 137km/h | 10491m | -6.2m/s | -45.6°C | 41.7% | 260.7hPa | 2.5V | 01:11:00 | 02:29:13 | 00:00:00 | |
| NBG1-10 | 2026-08-31 05:56:52 | 48.20288 | 12.53281 | 75° | 135km/h | 10503m | -5.8m/s | -45.7°C | 42.3% | 260.2hPa | 2.5V | 00:00:00 | 02:29:11 | 00:00:00 | |
| OE5MMP-10 | 2026-08-31 05:56:48 | 48.20255 | 12.53075 | 79° | 124km/h | 10526m | -5.7m/s | -45.9°C | 42.4% | 259.2hPa | 2.5V | 00:00:00 | 02:29:07 | 00:00:00 | |
| DG1MFX-10 | 2026-08-31 05:56:47 | 48.20255 | 12.53075 | 79° | 135km/h | 10526m | -5.8m/s | -45.9°C | 36.4% | 259.3hPa | 2.6V | 01:12:00 | 00:00:00 | 00:00:00 | |
| OE3JTB-15 | 2026-08-31 05:56:46 | 48.20241 | 12.52977 | 79° | 133km/h | 10537m | -6.0m/s | -46.0°C | 42.6% | 258.8hPa | 2.6V | 00:00:00 | 00:00:00 | 00:00:00 | |
| DO3MHA-11 | 2026-08-31 05:56:45 | 48.20235 | 12.52930 | 79° | 122km/h | 10543m | -5.9m/s | -46.1°C | 42.8% | 258.6hPa | 2.6V | 00:00:00 | 02:29:04 | 00:00:00 | |
| DO3MHA-12 | 2026-08-31 05:56:44 | 48.20228 | 12.52884 | 78° | 122km/h | 10549m | -5.8m/s | -46.1°C | 43.0% | 258.4hPa | 2.5V | 00:00:00 | 02:29:03 | 00:00:00 | |
| OE5WHR-10 | 2026-08-31 05:56:43 | 48.20221 | 12.52839 | 77° | 133km/h | 10555m | -5.9m/s | -46.2°C | 43.5% | 258.1hPa | 2.5V | 00:00:00 | 00:00:00 | 00:00:00 | |
| OE5GOL-10 | 2026-08-31 05:56:41 | 48.20205 | 12.52752 | 74° | 133km/h | 10567m | -6.0m/s | -46.3°C | 44.8% | 257.6hPa | 2.6V | 00:00:00 | 02:29:00 | 00:00:00 | |
| PG1ADW-2 | 2026-08-31 05:56:40 | 48.20197 | 12.52709 | 73° | 135km/h | 10573m | -6.1m/s | -46.3°C | 45.2% | 257.4hPa | 2.6V | 01:11:00 | 00:00:00 | 00:00:00 | |
| OE5MMP-10 | 2026-08-31 05:56:38 | 48.20177 | 12.52623 | 70° | 133km/h | 10585m | -6.0m/s | -46.4°C | 45.0% | 257.0hPa | 2.6V | 01:11:00 | 02:28:57 | 00:00:00 | |
| DO3MHA-11 | 2026-08-31 05:56:35 | 48.20142 | 12.52492 | 68° | 139km/h | 10603m | -5.8m/s | -46.6°C | 44.4% | 256.3hPa | 2.6V | 01:11:00 | 02:28:54 | 00:00:00 | |
| DO3MHA-12 | 2026-08-31 05:56:34 | 48.20129 | 12.52447 | 68° | 141km/h | 10609m | -6.0m/s | -46.6°C | 44.0% | 256.0hPa | 2.6V | 01:11:00 | 02:28:53 | 00:00:00 | |
| DL6DJ-15 | 2026-08-31 05:56:31 | 48.20078 | 12.52255 | 69° | 141km/h | 10633m | -5.9m/s | -46.8°C | 36.7% | 255.2hPa | 2.6V | 00:00:00 | 00:00:00 | 00:00:00 | |
| OE5DXL-15 | 2026-08-31 05:56:29 | 48.20065 | 12.52204 | 70° | 135km/h | 10639m | -6.0m/s | -46.8°C | 43.1% | 254.9hPa | 2.6V | 00:00:00 | 00:00:00 | 00:00:00 | |
| OE5MMP-10 | 2026-08-31 05:56:28 | 48.20053 | 12.52153 | 72° | 142km/h | 10645m | -6.0m/s | -46.8°C | 43.3% | 254.6hPa | 2.5V | 00:00:00 | 02:28:47 | 00:00:00 | |
| DB0NH | 2026-08-31 05:56:26 | 48.20031 | 12.52049 | 74° | 137km/h | 10657m | -6.0m/s | -46.9°C | 43.9% | 254.3hPa | 2.5V | 01:12:00 | 02:28:45 | 00:00:00 | |
| DO3MHA-11 | 2026-08-31 05:56:25 | 48.20021 | 12.51997 | 75° | 137km/h | 10663m | -6.0m/s | -46.9°C | 44.1% | 254.0hPa | 2.5V | 00:00:00 | 02:28:44 | 00:00:00 | |
| DO3MHA-12 | 2026-08-31 05:56:24 | 48.20011 | 12.51944 | 76° | 135km/h | 10669m | -6.0m/s | -46.9°C | 44.2% | 253.8hPa | 2.5V | 00:00:00 | 02:28:43 | 00:00:00 | |
| OE5WHR-10 | 2026-08-31 05:56:22 | 48.19994 | 12.51838 | 78° | 131km/h | 10681m | -5.9m/s | -47.0°C | 44.0% | 253.3hPa | 2.5V | 01:12:00 | 00:00:00 | 00:00:00 | |
| PG1ADW-2 | 2026-08-31 05:56:20 | 48.19980 | 12.51734 | 79° | 131km/h | 10693m | -6.1m/s | -47.1°C | 43.5% | 252.9hPa | 2.5V | 00:00:00 | 00:00:00 | 00:00:00 | |
| NBG1-10 | 2026-08-31 05:56:19 | 48.19973 | 12.51684 | 80° | 133km/h | 10699m | -6.1m/s | -47.1°C | 43.2% | 252.5hPa | 2.5V | 01:12:00 | 02:28:38 | 00:00:00 | |
| OE5MMP-10 | 2026-08-31 05:56:18 | 48.19967 | 12.51634 | 80° | 124km/h | 10705m | -5.9m/s | -47.2°C | 42.9% | 252.4hPa | 2.6V | 01:12:00 | 02:28:37 | 00:00:00 | |
| OE3JTB-15 | 2026-08-31 05:56:17 | 48.19960 | 12.51586 | 79° | 133km/h | 10711m | -5.8m/s | -47.3°C | 42.8% | 252.1hPa | 2.5V | 01:12:00 | 02:28:36 | 00:00:00 | |
| DO3MHA-11 | 2026-08-31 05:56:15 | 48.19947 | 12.51493 | 77° | 124km/h | 10723m | -5.9m/s | -47.4°C | 42.8% | 251.7hPa | 2.5V | 01:12:00 | 02:28:34 | 00:00:00 | |
| DO3MHA-12 | 2026-08-31 05:56:14 | 48.19940 | 12.51448 | 76° | 126km/h | 10729m | -5.8m/s | -47.5°C | 42.8% | 251.5hPa | 2.5V | 01:12:00 | 02:28:33 | 00:00:00 | |
| OE5GOL-10 | 2026-08-31 05:56:11 | 48.19913 | 12.51317 | 72° | 133km/h | 10746m | -6.2m/s | -47.6°C | 42.3% | 250.8hPa | 2.5V | 01:12:00 | 02:28:30 | 00:00:00 | |
| DO7DH-14 | 2026-08-31 05:56:09 | 48.19892 | 12.51229 | 70° | 141km/h | 10759m | -6.1m/s | 0°C | 0% | 0hPa | 2.5V | 00:00:00 | 02:28:28 | 00:00:00 | |
| OE5MMP-10 | 2026-08-31 05:56:08 | 48.19880 | 12.51184 | 69° | 141km/h | 10765m | -6.0m/s | -47.7°C | 40.5% | 250.1hPa | 2.5V | 00:00:00 | 02:28:27 | 00:00:00 | |
| OE5DRO-10 | 2026-08-31 05:56:06 | 48.19856 | 12.51092 | 69° | 139km/h | 10778m | -6.2m/s | -47.7°C | 39.2% | 249.6hPa | 2.5V | 00:00:00 | 00:00:00 | 00:00:00 | |
| DO3MHA-11 | 2026-08-31 05:56:05 | 48.19843 | 12.51043 | 69° | 144km/h | 10784m | -6.2m/s | -47.8°C | 38.8% | 249.4hPa | 2.5V | 00:00:00 | 02:28:24 | 00:00:00 | |
| DO3MHA-12 | 2026-08-31 05:56:04 | 48.19831 | 12.50994 | 70° | 144km/h | 10790m | -5.9m/s | -47.8°C | 38.4% | 249.2hPa | 2.5V | 00:00:00 | 02:28:23 | 00:00:00 | |
| OE5WHR-10 | 2026-08-31 05:56:01 | 48.19795 | 12.50839 | 73° | 135km/h | 10808m | -5.9m/s | -47.9°C | 38.3% | 248.5hPa | 2.5V | 00:00:00 | 02:28:20 | 00:00:00 | |
| PG1ADW-2 | 2026-08-31 05:56:00 | 48.19784 | 12.50786 | 74° | 133km/h | 10814m | -5.8m/s | -47.9°C | 38.5% | 248.2hPa | 2.5V | 01:12:00 | 02:28:19 | 00:00:00 | |
| OE5DXL-15 | 2026-08-31 05:55:59 | 48.19773 | 12.50732 | 75° | 139km/h | 10819m | -5.9m/s | -48.0°C | 38.5% | 248.0hPa | 2.5V | 01:12:00 | 00:00:00 | 00:00:00 | |
| OE5MMP-10 | 2026-08-31 05:55:58 | 48.19764 | 12.50678 | 76° | 135km/h | 10826m | -6.1m/s | -48.0°C | 38.7% | 247.8hPa | 2.5V | 01:12:00 | 02:28:17 | 00:00:00 | |
| DB0NH | 2026-08-31 05:55:56 | 48.19747 | 12.50571 | 78° | 137km/h | 10838m | -6.3m/s | -48.0°C | 39.1% | 247.3hPa | 2.5V | 00:00:00 | 02:28:15 | 00:00:00 | |
| DO3MHA-11 | 2026-08-31 05:55:55 | 48.19740 | 12.50519 | 79° | 128km/h | 10844m | -6.3m/s | -48.0°C | 39.1% | 247.1hPa | 2.5V | 01:12:00 | 02:28:14 | 00:00:00 | |
| DO3MHA-12 | 2026-08-31 05:55:54 | 48.19734 | 12.50467 | 80° | 128km/h | 10851m | -6.3m/s | -48.0°C | 38.8% | 246.9hPa | 2.5V | 01:12:00 | 02:28:13 | 00:00:00 | |
| OE5MMP-10 | 2026-08-31 05:55:48 | 48.19695 | 12.50181 | 76° | 131km/h | 10887m | -5.9m/s | -48.3°C | 39.2% | 245.5hPa | 2.6V | 00:00:00 | 02:28:07 | 00:00:00 | |
| OE5DRO-10 | 2026-08-31 05:55:47 | 48.19687 | 12.50136 | 74° | 141km/h | 10893m | -5.9m/s | -48.4°C | 39.3% | 245.3hPa | 2.5V | 01:12:00 | 00:00:00 | 00:00:00 | |
| NBG1-10 | 2026-08-31 05:55:46 | 48.19678 | 12.50092 | 73° | 139km/h | 10899m | -5.6m/s | -48.4°C | 39.1% | 245.0hPa | 2.5V | 00:00:00 | 02:28:05 | 00:00:00 | |
| DO3MHA-11 | 2026-08-31 05:55:45 | 48.19668 | 12.50048 | 71° | 139km/h | 10905m | -5.9m/s | -48.5°C | 38.8% | 244.8hPa | 2.5V | 00:00:00 | 02:28:04 | 00:00:00 | |
| DO3MHA-12 | 2026-08-31 05:55:44 | 48.19657 | 12.50002 | 70° | 141km/h | 10911m | -5.9m/s | -48.5°C | 38.5% | 244.6hPa | 2.5V | 00:00:00 | 02:28:03 | 00:00:00 | |
| OE5GOL-10 | 2026-08-31 05:55:41 | 48.19621 | 12.49860 | 70° | 141km/h | 10929m | -6.0m/s | -48.6°C | 37.5% | 243.9hPa | 2.5V | 00:00:00 | 02:28:00 | 00:00:00 | |
| OE5WHR-10 | 2026-08-31 05:55:40 | 48.19610 | 12.49810 | 71° | 142km/h | 10935m | -6.1m/s | -48.7°C | 37.0% | 243.7hPa | 2.5V | 01:12:00 | 00:00:00 | 00:00:00 | |
| DO7DH-14 | 2026-08-31 05:55:39 | 48.19598 | 12.49759 | 72° | 148km/h | 10941m | -6.0m/s | 0°C | 0% | 0hPa | 2.5V | 01:12:00 | 02:27:58 | 00:00:00 | |
| OE5MMP-10 | 2026-08-31 05:55:38 | 48.19586 | 12.49707 | 73° | 148km/h | 10947m | -6.1m/s | -48.8°C | 37.0% | 243.2hPa | 2.5V | 01:12:00 | 02:27:57 | 00:00:00 | |
| DO3MHA-11 | 2026-08-31 05:55:35 | 48.19555 | 12.49546 | 76° | 146km/h | 10966m | -6.1m/s | -48.8°C | 37.7% | 242.7hPa | 2.5V | 01:12:00 | 02:27:54 | 00:00:00 | |
| DO3MHA-12 | 2026-08-31 05:55:34 | 48.19545 | 12.49491 | 77° | 144km/h | 10972m | -5.9m/s | -48.9°C | 37.8% | 242.4hPa | 2.5V | 01:12:00 | 02:27:53 | 00:00:00 | |
| DF7PN | 2026-08-31 05:55:33 | 48.19537 | 12.49436 | 77° | 150km/h | 10978m | -5.9m/s | -49.0°C | 31.7% | 242.2hPa | 2.5V | 00:00:00 | 00:00:00 | 00:00:00 | |
| DL6DJ-15 | 2026-08-31 05:55:29 | 48.19503 | 12.49163 | 81° | 142km/h | 11008m | -6.4m/s | -49.1°C | 31.8% | 241.0hPa | 2.5V | 00:00:00 | 00:00:00 | 00:00:00 | |
| OE5MMP-10 | 2026-08-31 05:55:28 | 48.19503 | 12.49163 | 82° | 133km/h | 11008m | -6.3m/s | -49.0°C | 38.0% | 241.0hPa | 2.5V | 00:00:00 | 02:27:47 | 00:00:00 | |
| DB0NH | 2026-08-31 05:55:26 | 48.19493 | 12.49057 | 83° | 142km/h | 11021m | -6.1m/s | -49.1°C | 37.8% | 240.5hPa | 2.5V | 01:13:00 | 02:27:45 | 00:00:00 | |
| DO3MHA-11 | 2026-08-31 05:55:25 | 48.19489 | 12.49006 | 83° | 131km/h | 11027m | -6.2m/s | -49.2°C | 37.7% | 240.2hPa | 2.5V | 00:00:00 | 02:27:44 | 00:00:00 | |
| DO3MHA-12 | 2026-08-31 05:55:24 | 48.19484 | 12.48955 | 83° | 131km/h | 11033m | -6.2m/s | -49.3°C | 37.6% | 240.1hPa | 2.5V | 00:00:00 | 02:27:43 | 00:00:00 | |
| OE5HKT-10 | 2026-08-31 05:55:23 | 48.19480 | 12.48906 | 82° | 142km/h | 11040m | -6.2m/s | -49.3°C | 37.7% | 239.8hPa | 2.5V | 00:00:00 | 00:00:00 | 00:00:00 | |
| PG1ADW-2 | 2026-08-31 05:55:20 | 48.19462 | 12.48763 | 77° | 144km/h | 11058m | -5.8m/s | -49.5°C | 37.5% | 239.2hPa | 2.5V | 01:13:00 | 00:00:00 | 00:00:00 | |
| OE3JTB-15 | 2026-08-31 05:55:19 | 48.19454 | 12.48716 | 75° | 142km/h | 11063m | -5.6m/s | -49.5°C | 37.4% | 238.9hPa | 2.6V | 01:13:00 | 00:00:00 | 00:00:00 | |
| OE5MMP-10 | 2026-08-31 05:55:18 | 48.19445 | 12.48668 | 75° | 144km/h | 11069m | -5.8m/s | -49.5°C | 37.0% | 238.7hPa | 2.6V | 01:13:00 | 02:27:37 | 00:00:00 | |
| DO3MHA-11 | 2026-08-31 05:55:15 | 48.19415 | 12.48520 | 73° | 150km/h | 11087m | -6.0m/s | -49.6°C | 36.8% | 238.1hPa | 2.5V | 01:13:00 | 02:27:34 | 00:00:00 | |
| DO3MHA-12 | 2026-08-31 05:55:14 | 48.19404 | 12.48469 | 73° | 151km/h | 11094m | -6.2m/s | -49.6°C | 37.0% | 237.9hPa | 2.5V | 01:13:00 | 02:27:33 | 00:00:00 | |
| NBG1-10 | 2026-08-31 05:55:13 | 48.19394 | 12.48416 | 74° | 144km/h | 11100m | -6.4m/s | -49.7°C | 37.3% | 237.6hPa | 2.5V | 01:13:00 | 02:27:32 | 00:00:00 | |
| OE5GOL-10 | 2026-08-31 05:55:11 | 48.19373 | 12.48307 | 76° | 144km/h | 11112m | -6.2m/s | -49.7°C | 38.4% | 237.1hPa | 2.5V | 01:13:00 | 02:27:30 | 00:00:00 | |
| OE5DRO-10 | 2026-08-31 05:55:09 | 48.19355 | 12.48195 | 78° | 141km/h | 11125m | -6.3m/s | -49.7°C | 39.0% | 236.7hPa | 2.5V | 01:13:00 | 00:00:00 | 00:00:00 | |
| OE5MMP-10 | 2026-08-31 05:55:08 | 48.19347 | 12.48137 | 79° | 148km/h | 11131m | -6.2m/s | -49.7°C | 39.0% | 236.5hPa | 2.5V | 00:00:00 | 02:27:27 | 00:00:00 | |
| DO7DH-14 | 2026-08-31 05:55:07 | 48.19340 | 12.48079 | 81° | 150km/h | 11137m | -6.3m/s | 0°C | 0% | 0hPa | 2.5V | 00:00:00 | 02:27:26 | 00:00:00 | |
| DO3MHA-11 | 2026-08-31 05:55:05 | 48.19328 | 12.47964 | 83° | 141km/h | 11150m | -6.2m/s | -49.8°C | 38.5% | 235.8hPa | 2.5V | 00:00:00 | 02:27:24 | 00:00:00 | |
| DO3MHA-12 | 2026-08-31 05:55:04 | 48.19324 | 12.47907 | 84° | 139km/h | 11156m | -6.2m/s | -49.8°C | 38.5% | 235.6hPa | 2.5V | 00:00:00 | 02:27:23 | 00:00:00 | |
| OE5HKT-10 | 2026-08-31 05:55:02 | 48.19316 | 12.47797 | 85° | 141km/h | 11168m | -6.2m/s | -49.8°C | 39.0% | 235.2hPa | 2.5V | 01:13:00 | 02:27:21 | 00:00:00 | |
| PG1ADW-2 | 2026-08-31 05:55:00 | 48.19308 | 12.47691 | 84° | 142km/h | 11181m | -6.5m/s | -49.9°C | 39.3% | 234.7hPa | 2.5V | 00:00:00 | 00:00:00 | 00:00:00 | |
| OE5DXL-15 | 2026-08-31 05:54:59 | 48.19305 | 12.47639 | 84° | 142km/h | 11187m | -6.3m/s | -49.9°C | 39.6% | 234.5hPa | 2.5V | 01:13:00 | 00:00:00 | 00:00:00 | |
| OE5MMP-10 | 2026-08-31 05:54:58 | 48.19301 | 12.47588 | 84° | 133km/h | 11194m | -6.3m/s | -49.9°C | 39.9% | 234.2hPa | 2.5V | 01:13:00 | 02:27:17 | 00:00:00 | |
| DO3MHA-11 | 2026-08-31 05:54:55 | 48.19286 | 12.47440 | 80° | 139km/h | 11213m | -6.5m/s | -50.0°C | 40.7% | 233.6hPa | 2.5V | 01:13:00 | 02:27:14 | 00:00:00 | |
| DO3MHA-12 | 2026-08-31 05:54:54 | 48.19280 | 12.47392 | 79° | 141km/h | 11219m | -6.1m/s | -50.0°C | 40.9% | 233.3hPa | 2.5V | 01:13:00 | 02:27:13 | 00:00:00 | |
| OE3JTB-15 | 2026-08-31 05:54:50 | 48.19247 | 12.47197 | 74° | 146km/h | 11244m | -6.3m/s | -50.3°C | 40.1% | 232.5hPa | 2.5V | 00:00:00 | 02:27:09 | 00:00:00 | |
| DB0UT-7 | 2026-08-31 05:54:49 | 48.19236 | 12.47146 | 74° | 142km/h | 11250m | -6.3m/s | -50.3°C | 39.8% | 232.3hPa | 2.5V | 01:13:00 | 02:27:08 | 00:00:00 | |
| OE5MMP-10 | 2026-08-31 05:54:48 | 48.19226 | 12.47094 | 74° | 153km/h | 11256m | -6.3m/s | -50.4°C | 39.8% | 232.1hPa | 2.6V | 00:00:00 | 02:27:07 | 00:00:00 | |
| DB0NH | 2026-08-31 05:54:47 | 48.19216 | 12.47041 | 75° | 124km/h | 11263m | -6.1m/s | -50.4°C | 40.2% | 231.8hPa | 2.5V | 00:00:00 | 02:27:06 | 00:00:00 | |
| DO3MHA-11 | 2026-08-31 05:54:45 | 48.19197 | 12.46930 | 77° | 151km/h | 11275m | -6.2m/s | -50.5°C | 41.1% | 231.3hPa | 2.5V | 00:00:00 | 02:27:04 | 00:00:00 | |
| DO3MHA-12 | 2026-08-31 05:54:44 | 48.19188 | 12.46874 | 78° | 144km/h | 11282m | -6.3m/s | -50.5°C | 41.6% | 231.1hPa | 2.5V | 00:00:00 | 02:27:03 | 00:00:00 | |
| DG1MFX-10 | 2026-08-31 05:54:42 | 48.19180 | 12.46816 | 79° | 155km/h | 11288m | -6.4m/s | -50.6°C | 35.1% | 231.0hPa | 2.5V | 01:14:00 | 00:00:00 | 00:00:00 | |
| OE5GOL-10 | 2026-08-31 05:54:41 | 48.19165 | 12.46700 | 81° | 144km/h | 11301m | -6.2m/s | -50.7°C | 42.6% | 230.4hPa | 2.5V | 00:00:00 | 02:27:00 | 00:00:00 | |
| NBG1-10 | 2026-08-31 05:54:40 | 48.19159 | 12.46642 | 82° | 144km/h | 11307m | -6.3m/s | -50.7°C | 42.6% | 230.3hPa | 2.5V | 00:00:00 | 02:26:59 | 00:00:00 | |
| BAUMI2-15 | 2026-08-31 05:54:38 | 48.19149 | 12.46527 | 84° | 144km/h | 11320m | -6.3m/s | -50.7°C | 41.9% | 229.8hPa | 2.6V | 00:00:00 | 02:26:57 | 00:00:00 | |
| DO3MHA-11 | 2026-08-31 05:54:35 | 48.19137 | 12.46362 | 85° | 133km/h | 11338m | -5.9m/s | -50.8°C | 40.6% | 229.1hPa | 2.6V | 01:13:00 | 02:26:54 | 00:00:00 | |
| BAUMI2-15 | 2026-08-31 05:54:33 | 48.19130 | 12.46259 | 84° | 131km/h | 11350m | -6.3m/s | -50.9°C | 40.1% | 228.7hPa | 2.6V | 01:13:00 | 02:26:52 | 00:00:00 | |
| DO3MHA-12 | 2026-08-31 05:54:32 | 48.19126 | 12.46209 | 83° | 133km/h | 11357m | -6.1m/s | -51.0°C | 40.1% | 228.4hPa | 2.5V | 01:13:00 | 02:26:51 | 00:00:00 | |
| OE5DRO-10 | 2026-08-31 05:54:31 | 48.19121 | 12.46159 | 82° | 144km/h | 11363m | -6.2m/s | -51.0°C | 39.6% | 228.2hPa | 2.5V | 01:13:00 | 00:00:00 | 00:00:00 | |
| OE5DXL-15 | 2026-08-31 05:54:29 | 48.19110 | 12.46061 | 79° | 142km/h | 11375m | -6.3m/s | -51.1°C | 39.7% | 227.8hPa | 2.6V | 00:00:00 | 00:00:00 | 00:00:00 | |
| BAUMI2-15 | 2026-08-31 05:54:28 | 48.19103 | 12.46013 | 78° | 133km/h | 11382m | -6.6m/s | -51.1°C | 39.5% | 227.5hPa | 2.6V | 00:00:00 | 02:26:47 | 00:00:00 | |
| DL6DJ-15 | 2026-08-31 05:54:26 | 48.19087 | 12.45916 | 74° | 133km/h | 11395m | -6.5m/s | -51.2°C | 32.3% | 227.2hPa | 2.6V | 00:00:00 | 00:00:00 | 00:00:00 | |
| DO3MHA-11 | 2026-08-31 05:54:25 | 48.19078 | 12.45867 | 74° | 146km/h | 11401m | -6.4m/s | -51.1°C | 38.8% | 226.9hPa | 2.6V | 00:00:00 | 02:26:44 | 00:00:00 | |
| BAUMI2-15 | 2026-08-31 05:54:23 | 48.19058 | 12.45767 | 73° | 146km/h | 11414m | -6.5m/s | -51.2°C | 38.6% | 226.5hPa | 2.6V | 01:14:00 | 02:26:42 | 00:00:00 | |
| DO3MHA-12 | 2026-08-31 05:54:22 | 48.19047 | 12.45716 | 73° | 151km/h | 11421m | -6.6m/s | -51.2°C | 38.7% | 226.2hPa | 2.6V | 00:00:00 | 02:26:41 | 00:00:00 | |
| DG1MFX-10 | 2026-08-31 05:54:21 | 48.19047 | 12.45716 | 73° | 142km/h | 11421m | -6.7m/s | -51.3°C | 32.0% | 226.3hPa | 2.6V | 01:14:00 | 00:00:00 | 00:00:00 | |
| OE5HKT-10 | 2026-08-31 05:54:20 | 48.19025 | 12.45612 | 73° | 144km/h | 11434m | -6.6m/s | -51.3°C | 38.8% | 225.7hPa | 2.6V | 01:14:00 | 00:00:00 | 00:00:00 | |
| DB0UT-7 | 2026-08-31 05:54:19 | 48.19013 | 12.45557 | 74° | 150km/h | 11440m | -6.6m/s | -51.4°C | 39.2% | 225.5hPa | 2.6V | 00:00:00 | 00:00:00 | 00:00:00 | |
| OE5MMP-10 | 2026-08-31 05:54:18 | 48.19002 | 12.45502 | 74° | 153km/h | 11447m | -6.6m/s | -51.4°C | 39.3% | 225.3hPa | 2.6V | 01:14:00 | 02:26:37 | 00:00:00 | |
| OE5WHR-10 | 2026-08-31 05:54:16 | 48.18982 | 12.45388 | 77° | 142km/h | 11460m | -6.1m/s | -51.5°C | 39.3% | 224.8hPa | 2.5V | 01:14:00 | 00:00:00 | 00:00:00 | |
| DO3MHA-11 | 2026-08-31 05:54:15 | 48.18972 | 12.45330 | 78° | 150km/h | 11466m | -6.1m/s | -51.5°C | 39.0% | 224.6hPa | 2.5V | 01:14:00 | 02:26:34 | 00:00:00 | |
| OE3JTB-15 | 2026-08-31 05:54:14 | 48.18964 | 12.45273 | 79° | 141km/h | 11472m | -6.0m/s | -51.5°C | 38.7% | 224.5hPa | 2.5V | 01:14:00 | 00:00:00 | 00:00:00 | |
| BAUMI2-15 | 2026-08-31 05:54:13 | 48.18957 | 12.45214 | 81° | 151km/h | 11478m | -6.1m/s | -51.6°C | 38.1% | 224.2hPa | 2.6V | 01:14:00 | 02:26:32 | 00:00:00 | |
| DO3MHA-12 | 2026-08-31 05:54:12 | 48.18951 | 12.45157 | 81° | 142km/h | 11484m | -6.4m/s | -51.6°C | 37.7% | 224.0hPa | 2.6V | 01:14:00 | 02:26:31 | 00:00:00 | |
| OE5GOL-10 | 2026-08-31 05:54:11 | 48.18945 | 12.45100 | 82° | 142km/h | 11491m | -6.2m/s | -51.6°C | 37.5% | 223.8hPa | 2.6V | 01:14:00 | 02:26:30 | 00:00:00 | |
| OE5MMP-10 | 2026-08-31 05:54:08 | 48.18929 | 12.44934 | 83° | 133km/h | 11510m | -6.6m/s | -51.7°C | 37.2% | 223.1hPa | 2.6V | 00:00:00 | 02:26:27 | 00:00:00 | |
| NBG1-10 | 2026-08-31 05:54:07 | 48.18924 | 12.44880 | 83° | 141km/h | 11517m | -6.7m/s | -51.8°C | 37.1% | 222.9hPa | 2.6V | 01:14:00 | 02:26:26 | 00:00:00 | |
| DO3MHA-11 | 2026-08-31 05:54:05 | 48.18914 | 12.44777 | 82° | 133km/h | 11530m | -6.6m/s | -51.8°C | 37.2% | 222.5hPa | 2.6V | 00:00:00 | 02:26:24 | 00:00:00 | |
| BAUMI2-15 | 2026-08-31 05:54:03 | 48.18903 | 12.44678 | 79° | 130km/h | 11543m | -6.4m/s | -51.9°C | 37.0% | 222.0hPa | 2.6V | 01:14:00 | 02:26:22 | 00:00:00 | |
| DO3MHA-12 | 2026-08-31 05:54:02 | 48.18896 | 12.44629 | 78° | 137km/h | 11550m | -6.4m/s | -51.9°C | 36.9% | 221.7hPa | 2.6V | 00:00:00 | 02:26:21 | 00:00:00 | |
| DG1MFX-10 | 2026-08-31 05:54:01 | 48.18896 | 12.44629 | 79° | 130km/h | 11550m | -6.5m/s | -51.9°C | 30.2% | 221.8hPa | 2.6V | 01:14:00 | 00:00:00 | 00:00:00 | |
| DF7PN | 2026-08-31 05:54:00 | 48.18881 | 12.44534 | 75° | 130km/h | 11563m | -6.4m/s | -51.9°C | 29.5% | 221.3hPa | 2.6V | 00:00:00 | 00:00:00 | 00:00:00 | |
| OE5DXL-15 | 2026-08-31 05:53:59 | 48.18871 | 12.44487 | 74° | 142km/h | 11569m | -6.4m/s | -51.9°C | 35.7% | 221.1hPa | 2.6V | 01:14:00 | 00:00:00 | 00:00:00 | |
| BAUMI2-15 | 2026-08-31 05:53:58 | 48.18862 | 12.44439 | 73° | 139km/h | 11576m | -6.6m/s | -52.0°C | 35.4% | 220.9hPa | 2.6V | 00:00:00 | 02:26:17 | 00:00:00 | |
| DO3MHA-11 | 2026-08-31 05:53:55 | 48.18830 | 12.44291 | 72° | 151km/h | 11596m | -6.3m/s | -52.1°C | 35.2% | 220.2hPa | 2.6V | 01:14:00 | 02:26:14 | 00:00:00 | |
| BAUMI2-15 | 2026-08-31 05:53:53 | 48.18807 | 12.44186 | 73° | 155km/h | 11608m | -6.5m/s | -52.1°C | 35.1% | 219.7hPa | 2.6V | 01:14:00 | 02:26:12 | 00:00:00 | |
| DO3MHA-12 | 2026-08-31 05:53:52 | 48.18795 | 12.44131 | 73° | 151km/h | 11615m | -6.4m/s | -52.1°C | 35.1% | 219.5hPa | 2.6V | 01:14:00 | 02:26:11 | 00:00:00 | |
| DB0UT-7 | 2026-08-31 05:53:49 | 48.18764 | 12.43961 | 77° | 146km/h | 11635m | -6.6m/s | -52.3°C | 35.3% | 218.8hPa | 2.6V | 01:14:00 | 02:26:08 | 00:00:00 | |
| OE5MMP-10 | 2026-08-31 05:53:48 | 48.18756 | 12.43903 | 79° | 142km/h | 11641m | -6.6m/s | -52.3°C | 35.3% | 218.6hPa | 2.6V | 00:00:00 | 02:26:07 | 00:00:00 | |
| BAUMI2-15 | 2026-08-31 05:53:47 | 48.18748 | 12.43845 | 80° | 148km/h | 11648m | -6.4m/s | -52.3°C | 35.0% | 218.4hPa | 2.6V | 00:00:00 | 02:26:06 | 00:00:00 | |
| DO3MHA-11 | 2026-08-31 05:53:45 | 48.18736 | 12.43732 | 82° | 135km/h | 11661m | -6.5m/s | -52.4°C | 34.0% | 217.9hPa | 2.5V | 00:00:00 | 02:26:04 | 00:00:00 | |
| DO7DH-14 | 2026-08-31 05:53:44 | 48.18731 | 12.43677 | 83° | 146km/h | 11667m | -6.3m/s | 0°C | 0% | 0hPa | 2.5V | 00:00:00 | 02:26:03 | 00:00:00 | |
| DO3MHA-12 | 2026-08-31 05:53:42 | 48.18721 | 12.43571 | 83° | 133km/h | 11680m | -6.6m/s | -52.5°C | 33.3% | 217.3hPa | 2.5V | 00:00:00 | 02:26:01 | 00:00:00 | |
| OE5GOL-10 | 2026-08-31 05:53:41 | 48.18716 | 12.43520 | 82° | 141km/h | 11687m | -6.6m/s | -52.5°C | 33.2% | 217.1hPa | 2.5V | 00:00:00 | 02:26:00 | 00:00:00 | |
| DG1MFX-10 | 2026-08-31 05:53:40 | 48.18716 | 12.43520 | 82° | 133km/h | 11687m | -6.7m/s | -52.6°C | 26.9% | 217.1hPa | 2.5V | 01:15:00 | 00:00:00 | 00:00:00 | |
| OE5MMP-10 | 2026-08-31 05:53:38 | 48.18697 | 12.43375 | 77° | 141km/h | 11707m | -6.3m/s | -52.6°C | 32.7% | 216.5hPa | 2.5V | 01:14:00 | 02:25:57 | 00:00:00 | |
| BAUMI2-15 | 2026-08-31 05:53:37 | 48.18688 | 12.43328 | 75° | 135km/h | 11713m | -6.3m/s | -52.6°C | 32.5% | 216.2hPa | 2.5V | 00:00:00 | 02:25:56 | 00:00:00 | |
| DO3MHA-11 | 2026-08-31 05:53:35 | 48.18669 | 12.43232 | 72° | 148km/h | 11727m | -6.8m/s | -52.7°C | 32.0% | 215.8hPa | 2.5V | 01:14:00 | 02:25:54 | 00:00:00 | |
| OE5WHR-10 | 2026-08-31 05:53:34 | 48.18658 | 12.43184 | 72° | 146km/h | 11733m | -6.8m/s | -52.7°C | 31.7% | 215.5hPa | 2.5V | 01:14:00 | 00:00:00 | 00:00:00 | |
| DO3MHA-12 | 2026-08-31 05:53:32 | 48.18635 | 12.43083 | 71° | 153km/h | 11747m | -6.6m/s | -52.8°C | 31.2% | 215.1hPa | 2.5V | 01:14:00 | 02:25:51 | 00:00:00 | |
| OE5DXL-15 | 2026-08-31 05:53:29 | 48.18599 | 12.42922 | 73° | 141km/h | 11767m | -6.4m/s | -52.8°C | 30.3% | 214.4hPa | 2.5V | 00:00:00 | 00:00:00 | 00:00:00 | |
| OE5MMP-10 | 2026-08-31 05:53:28 | 48.18588 | 12.42866 | 75° | 151km/h | 11773m | -6.4m/s | -52.8°C | 30.0% | 214.2hPa | 2.5V | 00:00:00 | 02:25:47 | 00:00:00 | |
| BAUMI2-15 | 2026-08-31 05:53:27 | 48.18577 | 12.42808 | 76° | 155km/h | 11780m | -6.5m/s | -52.8°C | 29.6% | 214.0hPa | 2.5V | 00:00:00 | 02:25:46 | 00:00:00 | |
| DO3MHA-11 | 2026-08-31 05:53:25 | 48.18559 | 12.42693 | 78° | 146km/h | 11793m | -6.6m/s | -52.8°C | 29.0% | 213.6hPa | 2.5V | 00:00:00 | 02:25:44 | 00:00:00 | |
| DL6DJ-15 | 2026-08-31 05:53:24 | 48.18551 | 12.42635 | 79° | 153km/h | 11800m | -6.9m/s | -52.9°C | 22.7% | 213.4hPa | 2.5V | 00:00:00 | 00:00:00 | 00:00:00 | |
| BAUMI2-15 | 2026-08-31 05:53:22 | 48.18537 | 12.42521 | 81° | 146km/h | 11813m | -6.6m/s | -52.9°C | 27.8% | 212.8hPa | 2.5V | 01:15:00 | 02:25:41 | 00:00:00 | |
| DB0UT-7 | 2026-08-31 05:53:19 | 48.18521 | 12.42357 | 83° | 137km/h | 11834m | -6.6m/s | -52.8°C | 26.7% | 212.2hPa | 2.5V | 00:00:00 | 00:00:00 | 00:00:00 | |
| OE5MMP-10 | 2026-08-31 05:53:18 | 48.18516 | 12.42304 | 83° | 130km/h | 11841m | -6.6m/s | -52.8°C | 26.5% | 212.0hPa | 2.6V | 01:15:00 | 02:25:37 | 00:00:00 | |
| BAUMI2-15 | 2026-08-31 05:53:17 | 48.18512 | 12.42252 | 83° | 131km/h | 11848m | -6.7m/s | -52.9°C | 26.3% | 211.8hPa | 2.6V | 00:00:00 | 02:25:36 | 00:00:00 | |
| DO3MHA-11 | 2026-08-31 05:53:15 | 48.18502 | 12.42152 | 82° | 128km/h | 11861m | -6.7m/s | -52.9°C | 26.1% | 211.3hPa | 2.5V | 01:15:00 | 02:25:34 | 00:00:00 | |
| OE5WHR-10 | 2026-08-31 05:53:13 | 48.18491 | 12.42055 | 80° | 139km/h | 11875m | -6.7m/s | -53.0°C | 26.2% | 210.8hPa | 2.5V | 00:00:00 | 00:00:00 | 00:00:00 | |
| DO3MHA-12 | 2026-08-31 05:53:12 | 48.18485 | 12.42008 | 79° | 131km/h | 11882m | -7.0m/s | -53.0°C | 26.1% | 210.6hPa | 2.5V | 01:15:00 | 02:25:31 | 00:00:00 | |
| OE5GOL-10 | 2026-08-31 05:53:11 | 48.18478 | 12.41962 | 78° | 135km/h | 11889m | -7.1m/s | -52.9°C | 25.8% | 210.4hPa | 2.5V | 01:15:00 | 02:25:30 | 00:00:00 | |
| OE3JTB-15 | 2026-08-31 05:53:10 | 48.18471 | 12.41917 | 76° | 131km/h | 11896m | -6.7m/s | -53.0°C | 25.6% | 210.2hPa | 2.6V | 01:15:00 | 02:25:29 | 00:00:00 | |
| OE5MMP-10 | 2026-08-31 05:53:08 | 48.18453 | 12.41825 | 74° | 142km/h | 11909m | -6.7m/s | -53.1°C | 24.9% | 209.8hPa | 2.6V | 00:00:00 | 02:25:27 | 00:00:00 | |
| BAUMI2-15 | 2026-08-31 05:53:07 | 48.18444 | 12.41778 | 73° | 139km/h | 11916m | -6.7m/s | -53.1°C | 24.3% | 209.5hPa | 2.6V | 00:00:00 | 02:25:26 | 00:00:00 | |
| DO3MHA-11 | 2026-08-31 05:53:05 | 48.18422 | 12.41682 | 72° | 148km/h | 11929m | -6.5m/s | -53.2°C | 23.5% | 209.1hPa | 2.6V | 00:00:00 | 02:25:24 | 00:00:00 | |
| DO3MHA-12 | 2026-08-31 05:53:02 | 48.18389 | 12.41527 | 74° | 146km/h | 11949m | -6.9m/s | -53.2°C | 23.2% | 208.4hPa | 2.6V | 00:00:00 | 02:25:21 | 00:00:00 | |
| DF7PN | 2026-08-31 05:52:58 | 48.18351 | 12.41307 | 78° | 150km/h | 11977m | -6.9m/s | -53.3°C | 18.5% | 207.6hPa | 2.6V | 00:00:00 | 00:00:00 | 00:00:00 | |
| DL6DJ-15 | 2026-08-31 05:52:53 | 48.18323 | 12.41036 | 83° | 135km/h | 12011m | -6.7m/s | -53.4°C | 17.6% | 206.5hPa | 2.6V | 00:00:00 | 00:00:00 | 00:00:00 | |
| OE5WHR-10 | 2026-08-31 05:52:52 | 48.18319 | 12.40985 | 83° | 137km/h | 12017m | -6.4m/s | -53.4°C | 22.6% | 206.3hPa | 2.6V | 01:15:00 | 02:25:11 | 00:00:00 | |
| DB0UT-7 | 2026-08-31 05:52:49 | 48.18304 | 12.40841 | 80° | 133km/h | 12037m | -6.6m/s | -53.5°C | 22.8% | 205.7hPa | 2.6V | 01:15:00 | 02:25:08 | 00:00:00 | |
| OE5MMP-10 | 2026-08-31 05:52:48 | 48.18298 | 12.40795 | 79° | 131km/h | 12044m | -6.7m/s | -53.6°C | 23.0% | 205.5hPa | 2.6V | 00:00:00 | 02:25:07 | 00:00:00 | |
| DO3MHA-11 | 2026-08-31 05:52:45 | 48.18275 | 12.40659 | 74° | 139km/h | 12064m | -6.6m/s | -53.6°C | 23.0% | 204.7hPa | 2.5V | 00:00:00 | 02:25:04 | 00:00:00 | |
| DO3MHA-12 | 2026-08-31 05:52:42 | 48.18245 | 12.40520 | 71° | 144km/h | 12084m | -6.5m/s | -53.7°C | 22.9% | 204.1hPa | 2.6V | 00:00:00 | 02:25:01 | 00:00:00 | |
| DG1MFX-10 | 2026-08-31 05:52:39 | 48.18223 | 12.40422 | 72° | 141km/h | 12098m | -6.8m/s | -53.8°C | 17.5% | 203.7hPa | 2.6V | 01:16:00 | 00:00:00 | 00:00:00 | |
| OE5MMP-10 | 2026-08-31 05:52:38 | 48.18199 | 12.40319 | 73° | 146km/h | 12111m | -6.8m/s | -53.9°C | 23.2% | 203.2hPa | 2.6V | 01:15:00 | 02:24:57 | 00:00:00 | |
| OE5DRO-10 | 2026-08-31 05:52:37 | 48.18188 | 12.40265 | 74° | 133km/h | 12118m | -6.6m/s | -53.9°C | 23.2% | 203.0hPa | 2.6V | 01:15:00 | 00:00:00 | 00:00:00 | |
| DO3MHA-11 | 2026-08-31 05:52:35 | 48.18168 | 12.40156 | 77° | 141km/h | 12131m | -6.7m/s | -53.9°C | 23.2% | 202.6hPa | 2.5V | 01:15:00 | 02:24:54 | 00:00:00 | |
| DO3MHA-12 | 2026-08-31 05:52:32 | 48.18145 | 12.39991 | 81° | 131km/h | 12151m | -6.6m/s | -54.1°C | 22.9% | 202.0hPa | 2.5V | 01:15:00 | 02:24:51 | 00:00:00 | |
| OE5WHR-10 | 2026-08-31 05:52:31 | 48.18140 | 12.39937 | 82° | 128km/h | 12158m | -6.6m/s | -54.1°C | 22.7% | 201.8hPa | 2.5V | 00:00:00 | 00:00:00 | 00:00:00 | |
| OE5DXL-15 | 2026-08-31 05:52:29 | 48.18129 | 12.39833 | 82° | 133km/h | 12172m | -6.6m/s | -54.3°C | 22.4% | 201.3hPa | 2.6V | 00:00:00 | 00:00:00 | 00:00:00 | |
| OE5MMP-10 | 2026-08-31 05:52:28 | 48.18124 | 12.39782 | 82° | 122km/h | 12178m | -6.8m/s | -54.3°C | 22.3% | 201.1hPa | 2.6V | 00:00:00 | 02:24:47 | 00:00:00 | |
| DF7PN | 2026-08-31 05:52:27 | 48.18114 | 12.39686 | 80° | 126km/h | 12192m | -6.7m/s | -54.5°C | 16.9% | 200.8hPa | 2.6V | 00:00:00 | 00:00:00 | 00:00:00 | |
| DO3MHA-11 | 2026-08-31 05:52:25 | 48.18109 | 12.39640 | 80° | 120km/h | 12199m | -6.5m/s | -54.5°C | 22.4% | 200.5hPa | 2.6V | 00:00:00 | 02:24:44 | 00:00:00 | |
| DO3MHA-12 | 2026-08-31 05:52:22 | 48.18090 | 12.39506 | 77° | 124km/h | 12219m | -6.5m/s | -54.5°C | 22.5% | 199.9hPa | 2.6V | 00:00:00 | 02:24:41 | 00:00:00 | |
| DB0UT-7 | 2026-08-31 05:52:19 | 48.18066 | 12.39376 | 73° | 133km/h | 12238m | -6.6m/s | -54.5°C | 22.2% | 199.2hPa | 2.6V | 00:00:00 | 00:00:00 | 00:00:00 | |
| OE5MMP-10 | 2026-08-31 05:52:18 | 48.18056 | 12.39333 | 72° | 131km/h | 12245m | -6.5m/s | -54.5°C | 22.1% | 199.1hPa | 2.6V | 01:16:00 | 02:24:37 | 00:00:00 | |
| DO3MHA-11 | 2026-08-31 05:52:15 | 48.18023 | 12.39201 | 69° | 139km/h | 12265m | -6.4m/s | -54.6°C | 21.5% | 198.4hPa | 2.5V | 01:16:00 | 02:24:34 | 00:00:00 | |
| OE5HKT-10 | 2026-08-31 05:52:14 | 48.18011 | 12.39155 | 68° | 137km/h | 12271m | -6.4m/s | -54.7°C | 21.6% | 198.2hPa | 2.5V | 01:16:00 | 00:00:00 | 00:00:00 | |
| PG1ADW-2 | 2026-08-31 05:52:13 | 48.17999 | 12.39109 | 68° | 141km/h | 12278m | -6.6m/s | -54.7°C | 21.6% | 198.0hPa | 2.5V | 00:00:00 | 00:00:00 | 00:00:00 | |
| DO3MHA-12 | 2026-08-31 05:52:12 | 48.17986 | 12.39062 | 68° | 144km/h | 12284m | -6.8m/s | -54.7°C | 21.6% | 197.8hPa | 2.5V | 01:16:00 | 02:24:31 | 00:00:00 | |
| OE5GOL-10 | 2026-08-31 05:52:11 | 48.17972 | 12.39014 | 69° | 133km/h | 12291m | -6.7m/s | -54.7°C | 21.6% | 197.6hPa | 2.5V | 01:16:00 | 02:24:30 | 00:00:00 | |
| OE5WHR-10 | 2026-08-31 05:52:10 | 48.17959 | 12.38964 | 70° | 133km/h | 12298m | -6.7m/s | -54.7°C | 21.6% | 197.4hPa | 2.5V | 01:16:00 | 00:00:00 | 00:00:00 | |
| OE5MMP-10 | 2026-08-31 05:52:08 | 48.17934 | 12.38861 | 72° | 142km/h | 12311m | -6.7m/s | -54.6°C | 21.9% | 197.0hPa | 2.5V | 00:00:00 | 02:24:27 | 00:00:00 | |
| DO3MHA-11 | 2026-08-31 05:52:05 | 48.17903 | 12.38701 | 76° | 137km/h | 12331m | -6.3m/s | -54.6°C | 21.5% | 196.4hPa | 2.5V | 00:00:00 | 02:24:24 | 00:00:00 | |
| OE3JTB-15 | 2026-08-31 05:52:03 | 48.17885 | 12.38594 | 78° | 128km/h | 12344m | -6.5m/s | -54.6°C | 21.1% | 196.1hPa | 2.5V | 01:16:00 | 00:00:00 | 00:00:00 | |
| DO3MHA-12 | 2026-08-31 05:52:02 | 48.17878 | 12.38542 | 79° | 130km/h | 12350m | -6.8m/s | -54.6°C | 20.8% | 195.8hPa | 2.5V | 00:00:00 | 02:24:21 | 00:00:00 | |
| DF7PN | 2026-08-31 05:51:56 | 48.17832 | 12.38201 | 77° | 120km/h | 12397m | -6.6m/s | -54.9°C | 14.8% | 194.5hPa | 2.5V | 00:00:00 | 00:00:00 | 00:00:00 | |
| DL6DJ-15 | 2026-08-31 05:51:51 | 48.17801 | 12.38027 | 72° | 115km/h | 12423m | -6.7m/s | -54.9°C | 15.1% | 193.7hPa | 2.5V | 00:00:00 | 00:00:00 | 00:00:00 | |
| DB0UT-7 | 2026-08-31 05:51:49 | 48.17782 | 12.37943 | 71° | 126km/h | 12437m | -7.1m/s | -54.9°C | 20.6% | 193.2hPa | 2.5V | 01:16:00 | 02:24:08 | 00:00:00 | |
| OE5MMP-10 | 2026-08-31 05:51:48 | 48.17772 | 12.37902 | 69° | 133km/h | 12444m | -7.1m/s | -54.9°C | 20.6% | 192.9hPa | 2.6V | 00:00:00 | 02:24:07 | 00:00:00 | |
| DO3MHA-11 | 2026-08-31 05:51:45 | 48.17736 | 12.37772 | 67° | 139km/h | 12464m | -6.3m/s | -55.0°C | 20.5% | 192.3hPa | 2.5V | 00:00:00 | 02:24:04 | 00:00:00 | |
| DO3MHA-12 | 2026-08-31 05:51:42 | 48.17697 | 12.37629 | 70° | 137km/h | 12483m | -6.4m/s | -55.1°C | 20.3% | 191.8hPa | 2.5V | 00:00:00 | 02:24:01 | 00:00:00 | |
| OE5GOL-10 | 2026-08-31 05:51:41 | 48.17685 | 12.37578 | 72° | 126km/h | 12489m | -6.4m/s | -55.2°C | 20.5% | 191.6hPa | 2.5V | 00:00:00 | 02:24:00 | 00:00:00 | |
| OE5DRO-10 | 2026-08-31 05:51:40 | 48.17674 | 12.37527 | 73° | 124km/h | 12496m | -6.4m/s | -55.2°C | 20.4% | 191.4hPa | 2.5V | 00:00:00 | 00:00:00 | 00:00:00 | |
| OE5MMP-10 | 2026-08-31 05:51:38 | 48.17654 | 12.37424 | 76° | 128km/h | 12509m | -6.5m/s | -55.2°C | 20.5% | 191.0hPa | 2.6V | 01:16:00 | 02:23:57 | 00:00:00 | |
| PG1ADW-2 | 2026-08-31 05:51:37 | 48.17645 | 12.37372 | 77° | 122km/h | 12516m | -6.6m/s | -55.2°C | 20.3% | 190.8hPa | 2.6V | 01:16:00 | 00:00:00 | 00:00:00 | |
| DG1MFX-10 | 2026-08-31 05:51:36 | 48.17645 | 12.37372 | 78° | 139km/h | 12516m | -6.6m/s | -55.2°C | 15.0% | 190.9hPa | 2.6V | 01:17:00 | 00:00:00 | 00:00:00 | |
| DO3MHA-11 | 2026-08-31 05:51:35 | 48.17630 | 12.37271 | 79° | 120km/h | 12529m | -6.4m/s | -55.2°C | 20.1% | 190.4hPa | 2.6V | 01:16:00 | 02:23:54 | 00:00:00 | |
| OE3JTB-15 | 2026-08-31 05:51:33 | 48.17619 | 12.37174 | 81° | 119km/h | 12541m | -6.2m/s | -55.1°C | 19.4% | 190.0hPa | 2.6V | 00:00:00 | 02:23:52 | 00:00:00 | |
| DO3MHA-12 | 2026-08-31 05:51:32 | 48.17613 | 12.37127 | 81° | 115km/h | 12548m | -6.3m/s | -55.1°C | 19.2% | 189.8hPa | 2.6V | 01:16:00 | 02:23:51 | 00:00:00 | |
| DH7VM-15 | 2026-08-31 05:51:30 | 48.17608 | 12.37082 | 81° | 120km/h | 12554m | -6.5m/s | -55.2°C | 13.8% | 189.7hPa | 2.6V | 00:00:00 | 00:00:00 | 00:00:00 | |
| OE5DXL-15 | 2026-08-31 05:51:29 | 48.17596 | 12.36995 | 78° | 120km/h | 12567m | -6.4m/s | -55.2°C | 18.8% | 189.3hPa | 2.6V | 00:00:00 | 00:00:00 | 00:00:00 | |
| OE5MMP-10 | 2026-08-31 05:51:28 | 48.17590 | 12.36953 | 77° | 113km/h | 12574m | -6.7m/s | -55.3°C | 18.8% | 189.1hPa | 2.6V | 00:00:00 | 02:23:47 | 00:00:00 | |
| DB0ND-19 | 2026-08-31 05:51:26 | 48.17576 | 12.36872 | 73° | 110km/h | 12586m | -6.5m/s | 0°C | -1.0% | -1.0hPa | 2.6V | 00:00:00 | 00:00:00 | 00:00:00 | |
| DF7PN | 2026-08-31 05:51:25 | 48.17558 | 12.36792 | 70° | 110km/h | 12600m | -6.8m/s | -55.3°C | 13.5% | 188.3hPa | 2.6V | 00:00:00 | 00:00:00 | 00:00:00 | |
| DO3MHA-12 | 2026-08-31 05:51:22 | 48.17538 | 12.36713 | 68° | 126km/h | 12613m | -6.7m/s | -55.2°C | 18.1% | 187.9hPa | 2.6V | 00:00:00 | 02:23:41 | 00:00:00 | |
| OE5DRO-10 | 2026-08-31 05:51:21 | 48.17527 | 12.36673 | 67° | 126km/h | 12620m | -6.5m/s | -55.2°C | 17.9% | 187.7hPa | 2.6V | 01:17:00 | 00:00:00 | 00:00:00 | |
| DL6DJ-15 | 2026-08-31 05:51:20 | 48.17515 | 12.36633 | 65° | 117km/h | 12626m | -6.8m/s | -55.3°C | 12.8% | 187.5hPa | 2.6V | 00:00:00 | 00:00:00 | 00:00:00 | |
| DB0UT-7 | 2026-08-31 05:51:19 | 48.17503 | 12.36592 | 66° | 122km/h | 12633m | -6.6m/s | -55.2°C | 17.5% | 187.3hPa | 2.6V | 00:00:00 | 00:00:00 | 00:00:00 | |
| OE5MMP-10 | 2026-08-31 05:51:18 | 48.17490 | 12.36550 | 65° | 133km/h | 12640m | -6.8m/s | -55.3°C | 17.6% | 187.1hPa | 2.6V | 01:17:00 | 02:23:37 | 00:00:00 | |
| DO3MHA-11 | 2026-08-31 05:51:15 | 48.17449 | 12.36418 | 66° | 133km/h | 12660m | -6.5m/s | -55.4°C | 17.6% | 186.5hPa | 2.5V | 01:17:00 | 02:23:34 | 00:00:00 | |
| DO3MHA-12 | 2026-08-31 05:51:12 | 48.17410 | 12.36275 | 71° | 126km/h | 12680m | -6.5m/s | -55.5°C | 17.8% | 186.0hPa | 2.6V | 01:17:00 | 02:23:31 | 00:00:00 | |
| OE5GOL-10 | 2026-08-31 05:51:11 | 48.17399 | 12.36226 | 72° | 124km/h | 12687m | -6.6m/s | -55.6°C | 17.8% | 185.7hPa | 2.6V | 01:17:00 | 02:23:30 | 00:00:00 | |
| OE5MMP-10 | 2026-08-31 05:51:08 | 48.17371 | 12.36079 | 76° | 115km/h | 12706m | -6.3m/s | -55.8°C | 17.4% | 185.2hPa | 2.6V | 00:00:00 | 02:23:27 | 00:00:00 | |
| OE5WHR-10 | 2026-08-31 05:51:07 | 48.17363 | 12.36032 | 77° | 120km/h | 12712m | -6.5m/s | -55.8°C | 17.3% | 185.0hPa | 2.6V | 00:00:00 | 00:00:00 | 00:00:00 | |
| DO3MHA-11 | 2026-08-31 05:51:05 | 48.17348 | 12.35943 | 76° | 111km/h | 12725m | -6.2m/s | -55.9°C | 17.2% | 184.6hPa | 2.6V | 00:00:00 | 02:23:24 | 00:00:00 | |
| OE5DRO-10 | 2026-08-31 05:51:02 | 48.17324 | 12.35820 | 72° | 124km/h | 12745m | -6.4m/s | -56.0°C | 17.7% | 184.1hPa | 2.6V | 00:00:00 | 00:00:00 | 00:00:00 | |
| DF7PN | 2026-08-31 05:50:54 | 48.17216 | 12.35476 | 60° | 122km/h | 12803m | -6.4m/s | -56.2°C | 11.9% | 182.5hPa | 2.6V | 00:00:00 | 00:00:00 | 00:00:00 | |
| DO3MHA-12 | 2026-08-31 05:50:52 | 48.17201 | 12.35434 | 62° | 135km/h | 12810m | -6.2m/s | -56.2°C | 16.6% | 182.2hPa | 2.6V | 01:17:00 | 02:23:11 | 00:00:00 | |
| OE5HKT-10 | 2026-08-31 05:50:50 | 48.17169 | 12.35348 | 63° | 128km/h | 12822m | -6.1m/s | -56.3°C | 16.7% | 181.8hPa | 2.6V | 01:17:00 | 02:23:09 | 00:00:00 | |
| NBG1-10 | 2026-08-31 05:50:49 | 48.17154 | 12.35302 | 64° | 131km/h | 12828m | -6.2m/s | -56.4°C | 16.8% | 181.6hPa | 2.6V | 01:17:00 | 02:23:08 | 00:00:00 | |
| OE5MMP-10 | 2026-08-31 05:50:48 | 48.17139 | 12.35256 | 65° | 137km/h | 12835m | -6.3m/s | -56.4°C | 16.8% | 181.5hPa | 2.6V | 00:00:00 | 02:23:07 | 00:00:00 | |
| BAUMI2-15 | 2026-08-31 05:50:47 | 48.17125 | 12.35208 | 66° | 139km/h | 12841m | -6.4m/s | -56.4°C | 17.1% | 181.3hPa | 2.6V | 00:00:00 | 02:23:06 | 00:00:00 | |
| OE5WHR-10 | 2026-08-31 05:50:46 | 48.17110 | 12.35160 | 67° | 124km/h | 12847m | -6.5m/s | -56.4°C | 17.1% | 181.2hPa | 2.5V | 01:17:00 | 02:23:05 | 00:00:00 | |
| DO3MHA-11 | 2026-08-31 05:50:45 | 48.17097 | 12.35111 | 69° | 133km/h | 12854m | -6.6m/s | -56.5°C | 17.2% | 181.0hPa | 2.5V | 00:00:00 | 02:23:04 | 00:00:00 | |
| OE5DRO-10 | 2026-08-31 05:50:43 | 48.17072 | 12.35012 | 71° | 122km/h | 12867m | -6.8m/s | -56.5°C | 17.4% | 180.6hPa | 2.6V | 01:17:00 | 00:00:00 | 00:00:00 | |
| DO3MHA-12 | 2026-08-31 05:50:42 | 48.17061 | 12.34963 | 72° | 124km/h | 12874m | -6.6m/s | -56.5°C | 17.4% | 180.4hPa | 2.5V | 00:00:00 | 02:23:01 | 00:00:00 | |
| OE5GOL-10 | 2026-08-31 05:50:41 | 48.17050 | 12.34914 | 73° | 126km/h | 12881m | -6.4m/s | -56.5°C | 17.3% | 180.1hPa | 2.5V | 00:00:00 | 02:23:00 | 00:00:00 | |
| OE5MMP-10 | 2026-08-31 05:50:38 | 48.17023 | 12.34769 | 76° | 117km/h | 12900m | -6.3m/s | -56.6°C | 16.9% | 179.6hPa | 2.5V | 01:17:00 | 02:22:57 | 00:00:00 | |
| BAUMI2-15 | 2026-08-31 05:50:37 | 48.17015 | 12.34724 | 77° | 117km/h | 12906m | -6.4m/s | -56.6°C | 16.7% | 179.5hPa | 2.5V | 00:00:00 | 02:22:56 | 00:00:00 | |
| DG1MFX-10 | 2026-08-31 05:50:36 | 48.17015 | 12.34724 | 77° | 124km/h | 12906m | -6.4m/s | -56.6°C | 11.7% | 179.5hPa | 2.5V | 01:17:00 | 00:00:00 | 00:00:00 | |
| DO3MHA-11 | 2026-08-31 05:50:35 | 48.17001 | 12.34636 | 76° | 115km/h | 12919m | -6.4m/s | -56.6°C | 16.5% | 179.1hPa | 2.5V | 01:17:00 | 02:22:54 | 00:00:00 | |
| DO3MHA-12 | 2026-08-31 05:50:32 | 48.16976 | 12.34513 | 71° | 120km/h | 12938m | -6.2m/s | -56.6°C | 16.5% | 178.6hPa | 2.5V | 01:17:00 | 02:22:51 | 00:00:00 | |
| OE5DXL-15 | 2026-08-31 05:50:29 | 48.16943 | 12.34395 | 66° | 126km/h | 12957m | -6.2m/s | -56.7°C | 16.3% | 178.1hPa | 2.5V | 00:00:00 | 00:00:00 | 00:00:00 | |
| OE5MMP-10 | 2026-08-31 05:50:28 | 48.16931 | 12.34356 | 64° | 131km/h | 12964m | -6.2m/s | -56.7°C | 15.9% | 177.8hPa | 2.6V | 00:00:00 | 02:22:47 | 00:00:00 | |
| BAUMI2-15 | 2026-08-31 05:50:27 | 48.16917 | 12.34316 | 63° | 128km/h | 12970m | -6.2m/s | -56.7°C | 15.8% | 177.7hPa | 2.6V | 00:00:00 | 02:22:46 | 00:00:00 | |
| DO3MHA-11 | 2026-08-31 05:50:25 | 48.16888 | 12.34232 | 63° | 137km/h | 12983m | -6.3m/s | -56.7°C | 15.7% | 177.3hPa | 2.6V | 00:00:00 | 02:22:44 | 00:00:00 | |
| OE5DRO-10 | 2026-08-31 05:50:24 | 48.16873 | 12.34188 | 64° | 128km/h | 12989m | -6.3m/s | -56.7°C | 15.7% | 177.1hPa | 2.6V | 00:00:00 | 00:00:00 | 00:00:00 | |
| OE3JTB-15 | 2026-08-31 05:50:23 | 48.16858 | 12.34143 | 65° | 126km/h | 12995m | -6.3m/s | -56.8°C | 15.8% | 177.0hPa | 2.6V | 01:18:00 | 00:00:00 | 00:00:00 | |
| BAUMI2-15 | 2026-08-31 05:50:22 | 48.16844 | 12.34096 | 66° | 141km/h | 13002m | -6.5m/s | -56.8°C | 15.9% | 176.8hPa | 2.5V | 01:18:00 | 02:22:41 | 00:00:00 | |
| DB0UT-7 | 2026-08-31 05:50:19 | 48.16804 | 12.33948 | 71° | 130km/h | 13021m | -6.3m/s | -56.9°C | 16.4% | 176.2hPa | 2.5V | 00:00:00 | 00:00:00 | 00:00:00 | |
| OE5MMP-10 | 2026-08-31 05:50:18 | 48.16792 | 12.33898 | 72° | 126km/h | 13027m | -6.6m/s | -56.9°C | 16.5% | 176.0hPa | 2.6V | 01:18:00 | 02:22:37 | 00:00:00 | |
| BAUMI2-15 | 2026-08-31 05:50:17 | 48.16781 | 12.33848 | 74° | 133km/h | 13034m | -6.5m/s | -57.0°C | 16.7% | 175.9hPa | 2.6V | 00:00:00 | 02:22:36 | 00:00:00 | |
| NBG1-10 | 2026-08-31 05:50:16 | 48.16771 | 12.33798 | 75° | 126km/h | 13041m | -6.3m/s | -57.0°C | 16.7% | 175.7hPa | 2.5V | 00:00:00 | 02:22:35 | 00:00:00 | |
| DO3MHA-11 | 2026-08-31 05:50:15 | 48.16763 | 12.33749 | 76° | 119km/h | 13047m | -6.2m/s | -57.0°C | 16.7% | 175.5hPa | 2.5V | 01:18:00 | 02:22:34 | 00:00:00 | |
| OE5GOL-10 | 2026-08-31 05:50:11 | 48.16732 | 12.33565 | 76° | 124km/h | 13072m | -6.2m/s | -57.2°C | 17.0% | 174.8hPa | 2.5V | 01:18:00 | 02:22:30 | 00:00:00 | |
| OE5MMP-10 | 2026-08-31 05:50:08 | 48.16708 | 12.33442 | 71° | 122km/h | 13091m | -6.1m/s | -57.4°C | 17.5% | 174.4hPa | 2.6V | 00:00:00 | 02:22:27 | 00:00:00 | |
| BAUMI2-15 | 2026-08-31 05:50:07 | 48.16698 | 12.33403 | 69° | 115km/h | 13097m | -6.1m/s | -57.4°C | 17.6% | 174.2hPa | 2.6V | 00:00:00 | 02:22:26 | 00:00:00 | |
| DO3MHA-11 | 2026-08-31 05:50:05 | 48.16675 | 12.33325 | 65° | 131km/h | 13109m | -5.9m/s | -57.5°C | 17.6% | 173.8hPa | 2.6V | 00:00:00 | 02:22:24 | 00:00:00 | |
| OE5WHR-10 | 2026-08-31 05:50:04 | 48.16662 | 12.33285 | 64° | 130km/h | 13116m | -5.9m/s | -57.5°C | 17.6% | 173.6hPa | 2.6V | 01:18:00 | 00:00:00 | 00:00:00 | |
| DO3MHA-12 | 2026-08-31 05:50:02 | 48.16634 | 12.33203 | 63° | 139km/h | 13128m | -6.0m/s | -57.5°C | 17.5% | 173.3hPa | 2.6V | 00:00:00 | 02:22:21 | 00:00:00 | |
| DF7PN | 2026-08-31 05:49:51 | 48.16498 | 12.32667 | 77° | 133km/h | 13194m | -6.2m/s | -57.8°C | 12.9% | 171.5hPa | 2.6V | 00:00:00 | 00:00:00 | 00:00:00 | |
| DB0UT-7 | 2026-08-31 05:49:49 | 48.16484 | 12.32571 | 78° | 128km/h | 13206m | -6.0m/s | -57.8°C | 18.1% | 171.2hPa | 2.6V | 01:18:00 | 02:22:08 | 00:00:00 | |
| OE5MMP-10 | 2026-08-31 05:49:48 | 48.16477 | 12.32525 | 78° | 117km/h | 13212m | -6.1m/s | -57.9°C | 18.1% | 171.0hPa | 2.6V | 00:00:00 | 02:22:07 | 00:00:00 | |
| OE5REO-15 | 2026-08-31 05:49:47 | 48.16469 | 12.32481 | 77° | 119km/h | 13219m | -6.2m/s | -57.9°C | 12.6% | 170.9hPa | 2.5V | 00:00:00 | 00:00:00 | 00:00:00 | |
| OE5DRO-10 | 2026-08-31 05:49:46 | 48.16462 | 12.32438 | 75° | 130km/h | 13225m | -6.1m/s | -57.9°C | 18.1% | 170.7hPa | 2.5V | 00:00:00 | 00:00:00 | 00:00:00 | |
| DO3MHA-11 | 2026-08-31 05:49:45 | 48.16454 | 12.32397 | 74° | 120km/h | 13231m | -6.0m/s | -58.0°C | 18.2% | 170.5hPa | 2.5V | 00:00:00 | 02:22:04 | 00:00:00 | |
| OE5WHR-10 | 2026-08-31 05:49:43 | 48.16436 | 12.32316 | 70° | 133km/h | 13243m | -6.1m/s | -58.1°C | 18.1% | 170.2hPa | 2.6V | 00:00:00 | 02:22:02 | 00:00:00 | |
| DO3MHA-12 | 2026-08-31 05:49:42 | 48.16425 | 12.32276 | 68° | 130km/h | 13249m | -6.1m/s | -58.1°C | 18.0% | 170.0hPa | 2.6V | 00:00:00 | 02:22:01 | 00:00:00 | |
| OE5GOL-10 | 2026-08-31 05:49:41 | 48.16414 | 12.32236 | 66° | 126km/h | 13255m | -6.0m/s | -58.1°C | 18.0% | 169.8hPa | 2.6V | 00:00:00 | 02:22:00 | 00:00:00 | |
| OE5MMP-10 | 2026-08-31 05:49:38 | 48.16374 | 12.32111 | 64° | 141km/h | 13273m | -5.8m/s | -58.3°C | 17.7% | 169.3hPa | 2.6V | 01:18:00 | 02:21:57 | 00:00:00 | |
| BAUMI2-15 | 2026-08-31 05:49:37 | 48.16359 | 12.32067 | 65° | 139km/h | 13279m | -6.0m/s | -58.3°C | 17.7% | 169.2hPa | 2.6V | 00:00:00 | 02:21:56 | 00:00:00 | |
| DO3MHA-11 | 2026-08-31 05:49:35 | 48.16330 | 12.31973 | 67° | 141km/h | 13290m | -5.9m/s | -58.4°C | 17.9% | 168.9hPa | 2.6V | 01:18:00 | 02:21:54 | 00:00:00 | |
| DG1MFX-10 | 2026-08-31 05:49:33 | 48.16316 | 12.31924 | 68° | 142km/h | 13297m | -6.0m/s | -58.5°C | 12.6% | 168.8hPa | 2.6V | 01:19:00 | 00:00:00 | 00:00:00 | |
| DO3MHA-12 | 2026-08-31 05:49:32 | 48.16290 | 12.31823 | 70° | 137km/h | 13308m | -5.9m/s | -58.6°C | 18.6% | 168.4hPa | 2.6V | 01:18:00 | 02:21:51 | 00:00:00 | |
| OE5DXL-15 | 2026-08-31 05:49:29 | 48.16257 | 12.31668 | 75° | 124km/h | 13326m | -5.7m/s | -58.6°C | 18.4% | 167.9hPa | 2.6V | 00:00:00 | 00:00:00 | 00:00:00 | |
| OE5MMP-10 | 2026-08-31 05:49:28 | 48.16247 | 12.31617 | 76° | 128km/h | 13332m | -5.6m/s | -58.6°C | 18.3% | 167.7hPa | 2.6V | 00:00:00 | 02:21:47 | 00:00:00 | |
| OE5DRO-10 | 2026-08-31 05:49:27 | 48.16239 | 12.31565 | 77° | 119km/h | 13337m | -5.7m/s | -58.6°C | 18.1% | 167.6hPa | 2.6V | 01:19:00 | 00:00:00 | 00:00:00 | |
| DO3MHA-11 | 2026-08-31 05:49:25 | 48.16224 | 12.31465 | 79° | 119km/h | 13349m | -5.9m/s | -58.7°C | 17.6% | 167.3hPa | 2.6V | 00:00:00 | 02:21:44 | 00:00:00 | |
| OE5WHR-10 | 2026-08-31 05:49:22 | 48.16205 | 12.31325 | 79° | 120km/h | 13366m | -6.0m/s | -58.6°C | 16.7% | 166.8hPa | 2.6V | 01:19:00 | 00:00:00 | 00:00:00 | |
| DF7PN | 2026-08-31 05:49:20 | 48.16192 | 12.31237 | 77° | 115km/h | 13379m | -6.0m/s | -58.5°C | 11.1% | 166.5hPa | 2.6V | 00:00:00 | 00:00:00 | 00:00:00 | |
| DB0UT-7 | 2026-08-31 05:49:19 | 48.16186 | 12.31195 | 77° | 119km/h | 13385m | -5.9m/s | -58.5°C | 16.4% | 166.4hPa | 2.6V | 00:00:00 | 00:00:00 | 00:00:00 | |
| OE5MMP-10 | 2026-08-31 05:49:18 | 48.16179 | 12.31154 | 76° | 113km/h | 13391m | -6.2m/s | -58.5°C | 16.3% | 166.2hPa | 2.6V | 01:19:00 | 02:21:37 | 00:00:00 | |
| BAUMI2-15 | 2026-08-31 05:49:17 | 48.16171 | 12.31114 | 75° | 110km/h | 13397m | -6.4m/s | -58.5°C | 16.4% | 166.0hPa | 2.6V | 00:00:00 | 02:21:36 | 00:00:00 | |
| DL6DJ-15 | 2026-08-31 05:49:16 | 48.16164 | 12.31074 | 72° | 108km/h | 13404m | -6.5m/s | -58.6°C | 11.1% | 165.9hPa | 2.5V | 00:00:00 | 00:00:00 | 00:00:00 | |
| DO3MHA-11 | 2026-08-31 05:49:15 | 48.16155 | 12.31035 | 72° | 119km/h | 13410m | -6.6m/s | -58.5°C | 16.5% | 165.7hPa | 2.5V | 01:19:00 | 02:21:34 | 00:00:00 | |
| DG1MFX-10 | 2026-08-31 05:49:13 | 48.16146 | 12.30996 | 70° | 110km/h | 13417m | -6.6m/s | -58.6°C | 11.1% | 165.5hPa | 2.5V | 01:19:00 | 00:00:00 | 00:00:00 | |
| DO3MHA-12 | 2026-08-31 05:49:12 | 48.16124 | 12.30919 | 66° | 128km/h | 13429m | -6.0m/s | -58.6°C | 16.2% | 165.1hPa | 2.5V | 01:19:00 | 02:21:31 | 00:00:00 | |
| OE5GOL-10 | 2026-08-31 05:49:11 | 48.16112 | 12.30880 | 65° | 119km/h | 13436m | -6.0m/s | -58.6°C | 16.0% | 165.0hPa | 2.5V | 01:19:00 | 02:21:30 | 00:00:00 | |
| NBG1-10 | 2026-08-31 05:49:10 | 48.16099 | 12.30840 | 64° | 120km/h | 13442m | -6.0m/s | -58.6°C | 15.7% | 164.8hPa | 2.5V | 00:00:00 | 02:21:29 | 00:00:00 | |
| OE5MMP-10 | 2026-08-31 05:49:08 | 48.16070 | 12.30756 | 64° | 131km/h | 13454m | -6.2m/s | -58.6°C | 15.6% | 164.5hPa | 2.5V | 00:00:00 | 02:21:27 | 00:00:00 | |
| BAUMI2-15 | 2026-08-31 05:49:07 | 48.16056 | 12.30712 | 65° | 133km/h | 13460m | -6.0m/s | -58.5°C | 15.5% | 164.4hPa | 2.5V | 00:00:00 | 02:21:26 | 00:00:00 | |
| OE3JTB-15 | 2026-08-31 05:49:04 | 48.16015 | 12.30574 | 69° | 120km/h | 13478m | -6.1m/s | -58.5°C | 15.9% | 163.9hPa | 2.5V | 01:19:00 | 02:21:23 | 00:00:00 | |
| DO3MHA-12 | 2026-08-31 05:49:02 | 48.15992 | 12.30477 | 73° | 119km/h | 13491m | -6.0m/s | -58.5°C | 15.5% | 163.6hPa | 2.5V | 00:00:00 | 02:21:21 | 00:00:00 | |
| OE5WHR-10 | 2026-08-31 05:49:01 | 48.15982 | 12.30429 | 74° | 113km/h | 13497m | -5.9m/s | -58.5°C | 15.3% | 163.4hPa | 2.5V | 00:00:00 | 00:00:00 | 00:00:00 | |
| OE5DXL-15 | 2026-08-31 05:48:59 | 48.15965 | 12.30335 | 76° | 119km/h | 13508m | -5.7m/s | -58.5°C | 14.6% | 163.1hPa | 2.5V | 01:19:00 | 00:00:00 | 00:00:00 | |
| OE5MMP-10 | 2026-08-31 05:48:58 | 48.15958 | 12.30290 | 77° | 108km/h | 13515m | -5.9m/s | -58.5°C | 14.4% | 163.0hPa | 2.6V | 01:19:00 | 02:21:17 | 00:00:00 | |
| BAUMI2-15 | 2026-08-31 05:48:57 | 48.15951 | 12.30247 | 76° | 111km/h | 13520m | -5.9m/s | -58.5°C | 14.3% | 162.8hPa | 2.6V | 00:00:00 | 02:21:16 | 00:00:00 | |
| DO3MHA-11 | 2026-08-31 05:48:55 | 48.15936 | 12.30165 | 75° | 106km/h | 13532m | -6.0m/s | -58.4°C | 14.1% | 162.5hPa | 2.6V | 01:19:00 | 02:21:14 | 00:00:00 | |
| DO3MHA-12 | 2026-08-31 05:48:52 | 48.15911 | 12.30051 | 70° | 110km/h | 13551m | -6.3m/s | -58.1°C | 13.8% | 162.0hPa | 2.6V | 01:19:00 | 02:21:11 | 00:00:00 | |
| PG1ADW-2 | 2026-08-31 05:48:51 | 48.15901 | 12.30015 | 67° | 120km/h | 13558m | -6.4m/s | -58.1°C | 13.7% | 161.8hPa | 2.5V | 01:19:00 | 00:00:00 | 00:00:00 | |
| DB0UT-7 | 2026-08-31 05:48:49 | 48.15879 | 12.29945 | 63° | 120km/h | 13570m | -6.5m/s | -58.0°C | 13.3% | 161.5hPa | 2.5V | 01:19:00 | 02:21:08 | 00:00:00 | |
| OE5MMP-10 | 2026-08-31 05:48:48 | 48.15867 | 12.29910 | 61° | 119km/h | 13577m | -6.7m/s | -58.0°C | 13.1% | 161.3hPa | 2.6V | 00:00:00 | 02:21:07 | 00:00:00 | |
| DO8TBO-1 | 2026-08-31 05:48:47 | 48.15824 | 12.29804 | 58° | 130km/h | 13597m | -6.4m/s | 0°C | 0% | 0hPa | 2.5V | 01:19:00 | 02:21:04 | 00:00:00 | |
| DB0NH | 2026-08-31 05:48:45 | 48.15824 | 12.29804 | 58° | 124km/h | 13597m | -6.4m/s | -58.0°C | 12.5% | 160.8hPa | 2.5V | 01:19:00 | 02:21:04 | 00:00:00 | |
| OE5REO-15 | 2026-08-31 05:48:44 | 48.15824 | 12.29804 | 58° | 113km/h | 13597m | -6.5m/s | -58.0°C | 7.8% | 160.9hPa | 2.5V | 00:00:00 | 00:00:00 | 00:00:00 | |
| DO3MHA-12 | 2026-08-31 05:48:42 | 48.15775 | 12.29691 | 57° | 131km/h | 13616m | -6.6m/s | -58.0°C | 12.0% | 160.3hPa | 2.5V | 00:00:00 | 02:21:01 | 00:00:00 | |
| OE5GOL-10 | 2026-08-31 05:48:41 | 48.15757 | 12.29651 | 58° | 128km/h | 13622m | -6.4m/s | -58.0°C | 11.9% | 160.1hPa | 2.5V | 00:00:00 | 02:21:00 | 00:00:00 | |
| OE5WHR-10 | 2026-08-31 05:48:40 | 48.15740 | 12.29610 | 59° | 122km/h | 13629m | -6.4m/s | -58.0°C | 11.9% | 160.0hPa | 2.6V | 01:19:00 | 02:20:59 | 00:00:00 | |
| OE5MMP-10 | 2026-08-31 05:48:38 | 48.15706 | 12.29523 | 61° | 128km/h | 13642m | -6.7m/s | -57.9°C | 12.0% | 159.6hPa | 2.6V | 01:19:00 | 02:20:57 | 00:00:00 | |
| NBG1-10 | 2026-08-31 05:48:37 | 48.15689 | 12.29478 | 63° | 131km/h | 13649m | -6.8m/s | -57.8°C | 11.8% | 159.5hPa | 2.6V | 01:19:00 | 02:20:56 | 00:00:00 | |
| DO3MHA-11 | 2026-08-31 05:48:35 | 48.15660 | 12.29385 | 67° | 120km/h | 13662m | -6.6m/s | -57.8°C | 11.9% | 159.2hPa | 2.6V | 01:19:00 | 02:20:54 | 00:00:00 | |
| DO3MHA-12 | 2026-08-31 05:48:32 | 48.15623 | 12.29247 | 70° | 113km/h | 13682m | -6.4m/s | -58.0°C | 11.6% | 158.6hPa | 2.6V | 01:19:00 | 02:20:51 | 00:00:00 | |
| PG1ADW-2 | 2026-08-31 05:48:31 | 48.15612 | 12.29204 | 70° | 124km/h | 13689m | -6.6m/s | -58.1°C | 11.5% | 158.5hPa | 2.6V | 00:00:00 | 00:00:00 | 00:00:00 | |
| OE5DRO-10 | 2026-08-31 05:48:30 | 48.15602 | 12.29162 | 70° | 126km/h | 13695m | -6.4m/s | -58.1°C | 11.5% | 158.3hPa | 2.6V | 00:00:00 | 00:00:00 | 00:00:00 | |
| OE5DXL-15 | 2026-08-31 05:48:29 | 48.15591 | 12.29122 | 68° | 133km/h | 13702m | -6.4m/s | -58.2°C | 11.5% | 158.1hPa | 2.6V | 00:00:00 | 00:00:00 | 00:00:00 | |
| OE5MMP-10 | 2026-08-31 05:48:28 | 48.15580 | 12.29083 | 66° | 117km/h | 13708m | -6.3m/s | -58.2°C | 11.6% | 158.0hPa | 2.6V | 00:00:00 | 02:20:47 | 00:00:00 | |
| DO3MHA-11 | 2026-08-31 05:48:25 | 48.15541 | 12.28975 | 59° | 126km/h | 13727m | -6.2m/s | -58.3°C | 11.5% | 157.5hPa | 2.6V | 00:00:00 | 02:20:44 | 00:00:00 | |
| DO3MHA-12 | 2026-08-31 05:48:22 | 48.15492 | 12.28867 | 55° | 135km/h | 13747m | -6.5m/s | -58.3°C | 11.0% | 157.1hPa | 2.6V | 00:00:00 | 02:20:41 | 00:00:00 | |
| OE5WHR-10 | 2026-08-31 05:48:19 | 48.15436 | 12.28750 | 55° | 141km/h | 13766m | -6.4m/s | -58.4°C | 10.7% | 156.6hPa | 2.5V | 00:00:00 | 00:00:00 | 00:00:00 | |
| OE5MMP-10 | 2026-08-31 05:48:18 | 48.15417 | 12.28709 | 56° | 144km/h | 13773m | -6.5m/s | -58.3°C | 10.5% | 156.4hPa | 2.6V | 01:20:00 | 02:20:37 | 00:00:00 | |
| DO3MHA-11 | 2026-08-31 05:48:15 | 48.15360 | 12.28576 | 59° | 146km/h | 13793m | -6.3m/s | -58.3°C | 10.5% | 156.0hPa | 2.5V | 01:20:00 | 02:20:34 | 00:00:00 | |
| DL6DJ-15 | 2026-08-31 05:48:14 | 48.15322 | 12.28482 | 60° | 146km/h | 13806m | -6.9m/s | -58.1°C | 6.0% | 155.6hPa | 2.5V | 00:00:00 | 00:00:00 | 00:00:00 | |
| DO3MHA-12 | 2026-08-31 05:48:12 | 48.15305 | 12.28433 | 62° | 144km/h | 13813m | -6.5m/s | -58.1°C | 10.3% | 155.4hPa | 2.5V | 01:20:00 | 02:20:31 | 00:00:00 | |
| OE5GOL-10 | 2026-08-31 05:48:11 | 48.15287 | 12.28384 | 64° | 130km/h | 13820m | -6.4m/s | -58.1°C | 10.5% | 155.3hPa | 2.5V | 01:20:00 | 02:20:30 | 00:00:00 | |
| OE5MMP-10 | 2026-08-31 05:48:08 | 48.15241 | 12.28233 | 68° | 139km/h | 13839m | -6.3m/s | -58.0°C | 10.4% | 154.7hPa | 2.5V | 00:00:00 | 02:20:27 | 00:00:00 | |
| DO3MHA-11 | 2026-08-31 05:48:05 | 48.15201 | 12.28081 | 71° | 131km/h | 13859m | -6.9m/s | -57.9°C | 10.1% | 154.2hPa | 2.5V | 00:00:00 | 02:20:24 | 00:00:00 | |
| NBG1-10 | 2026-08-31 05:48:04 | 48.15189 | 12.28031 | 71° | 126km/h | 13866m | -6.8m/s | -57.9°C | 10.0% | 154.1hPa | 2.5V | 00:00:00 | 02:20:23 | 00:00:00 | |
| DO3MHA-12 | 2026-08-31 05:48:02 | 48.15167 | 12.27932 | 73° | 124km/h | 13879m | -6.9m/s | -57.9°C | 9.6% | 153.8hPa | 2.5V | 00:00:00 | 02:20:21 | 00:00:00 | |
| DF7PN | 2026-08-31 05:47:47 | 48.15010 | 12.27294 | 62° | 126km/h | 13985m | -6.7m/s | -57.9°C | 4.7% | 151.3hPa | 2.5V | 00:00:00 | 00:00:00 | 00:00:00 | |
| DO3MHA-11 | 2026-08-31 05:47:45 | 48.14981 | 12.27205 | 66° | 135km/h | 13999m | -6.9m/s | -57.8°C | 8.6% | 150.9hPa | 2.5V | 00:00:00 | 02:20:04 | 00:00:00 | |
| PG1ADW-2 | 2026-08-31 05:47:44 | 48.14967 | 12.27158 | 67° | 117km/h | 14006m | -7.0m/s | -57.9°C | 8.7% | 150.7hPa | 2.5V | 00:00:00 | 00:00:00 | 00:00:00 | |
| DL6DJ-15 | 2026-08-31 05:47:43 | 48.14942 | 12.27062 | 70° | 137km/h | 14020m | -6.9m/s | -57.9°C | 4.6% | 150.4hPa | 2.5V | 00:00:00 | 00:00:00 | 00:00:00 | |
| DO3MHA-12 | 2026-08-31 05:47:42 | 48.14942 | 12.27062 | 71° | 130km/h | 14020m | -6.8m/s | -57.9°C | 8.7% | 150.3hPa | 2.5V | 00:00:00 | 02:20:01 | 00:00:00 | |
| OE5GOL-10 | 2026-08-31 05:47:41 | 48.14930 | 12.27012 | 73° | 113km/h | 14027m | -6.9m/s | -57.9°C | 8.7% | 150.2hPa | 2.5V | 00:00:00 | 02:20:00 | 00:00:00 | |
| OE5MMP-10 | 2026-08-31 05:47:38 | 48.14903 | 12.26865 | 78° | 117km/h | 14047m | -6.8m/s | -57.8°C | 8.5% | 149.7hPa | 2.5V | 01:20:00 | 02:19:57 | 00:00:00 | |
| OE5WHR-10 | 2026-08-31 05:47:37 | 48.14897 | 12.26816 | 79° | 108km/h | 14054m | -7.0m/s | -57.8°C | 8.5% | 149.6hPa | 2.5V | 00:00:00 | 02:19:56 | 00:00:00 | |
| DO3MHA-11 | 2026-08-31 05:47:35 | 48.14884 | 12.26723 | 81° | 108km/h | 14069m | -7.3m/s | -57.6°C | 8.2% | 149.2hPa | 2.5V | 01:20:00 | 02:19:54 | 00:00:00 | |
| OE5DRO-10 | 2026-08-31 05:47:33 | 48.14875 | 12.26633 | 82° | 104km/h | 14083m | -7.3m/s | -57.4°C | 7.8% | 148.9hPa | 2.5V | 01:20:00 | 00:00:00 | 00:00:00 | |
| DO3MHA-12 | 2026-08-31 05:47:32 | 48.14871 | 12.26590 | 82° | 100km/h | 14091m | -7.5m/s | -57.4°C | 7.8% | 148.7hPa | 2.5V | 01:20:00 | 02:19:51 | 00:00:00 | |
| NBG1-10 | 2026-08-31 05:47:31 | 48.14867 | 12.26549 | 83° | 97km/h | 14098m | -7.5m/s | -57.4°C | 7.6% | 148.5hPa | 2.5V | 01:20:00 | 02:19:50 | 00:00:00 | |
| DG1MFX-10 | 2026-08-31 05:47:30 | 48.14864 | 12.26509 | 83° | 106km/h | 14106m | -7.6m/s | -57.4°C | 4.0% | 148.4hPa | 2.5V | 01:21:00 | 00:00:00 | 00:00:00 | |
| OE5DXL-15 | 2026-08-31 05:47:29 | 48.14860 | 12.26470 | 82° | 99km/h | 14113m | -7.6m/s | -57.5°C | 7.7% | 148.2hPa | 2.5V | 00:00:00 | 00:00:00 | 00:00:00 | |
| OE5MMP-10 | 2026-08-31 05:47:28 | 48.14856 | 12.26432 | 81° | 99km/h | 14121m | -8.0m/s | -57.6°C | 7.8% | 148.0hPa | 2.6V | 00:00:00 | 02:19:47 | 00:00:00 | |
| DO3MHA-11 | 2026-08-31 05:47:25 | 48.14840 | 12.26327 | 74° | 104km/h | 14145m | -7.6m/s | -57.7°C | 8.0% | 147.4hPa | 2.6V | 00:00:00 | 02:19:44 | 00:00:00 | |
| PG1ADW-2 | 2026-08-31 05:47:23 | 48.14825 | 12.26260 | 69° | 102km/h | 14160m | -7.5m/s | -57.7°C | 8.0% | 147.0hPa | 2.6V | 01:21:00 | 00:00:00 | 00:00:00 | |
| DO3MHA-12 | 2026-08-31 05:47:22 | 48.14816 | 12.26227 | 68° | 111km/h | 14168m | -7.5m/s | -57.8°C | 8.1% | 146.9hPa | 2.6V | 00:00:00 | 02:19:41 | 00:00:00 | |
| DB0UT-7 | 2026-08-31 05:47:19 | 48.14785 | 12.26119 | 68° | 75km/h | 14189m | -7.1m/s | -57.7°C | 7.9% | 146.4hPa | 2.5V | 00:00:00 | 00:00:00 | 00:00:00 | |
| OE5MMP-10 | 2026-08-31 05:47:18 | 48.14775 | 12.26080 | 70° | 111km/h | 14197m | -7.1m/s | -57.7°C | 7.7% | 146.2hPa | 2.6V | 01:21:00 | 02:19:37 | 00:00:00 | |
| OE5WHR-10 | 2026-08-31 05:47:16 | 48.14756 | 12.25997 | 74° | 91km/h | 14211m | -7.1m/s | -57.6°C | 7.5% | 145.9hPa | 2.5V | 01:21:00 | 00:00:00 | 00:00:00 | |
| OE5DRO-10 | 2026-08-31 05:47:14 | 48.14742 | 12.25912 | 79° | 89km/h | 14225m | -7.2m/s | -57.6°C | 7.5% | 145.6hPa | 2.5V | 00:00:00 | 00:00:00 | 00:00:00 | |
| DL6DJ-15 | 2026-08-31 05:47:12 | 48.14730 | 12.25787 | 84° | 106km/h | 14247m | -7.2m/s | -57.7°C | 3.5% | 145.1hPa | 2.5V | 00:00:00 | 00:00:00 | 00:00:00 | |
| OE5GOL-10 | 2026-08-31 05:47:11 | 48.14730 | 12.25787 | 85° | 89km/h | 14247m | -7.1m/s | -57.6°C | 7.3% | 145.1hPa | 2.5V | 01:21:00 | 02:19:30 | 00:00:00 | |
| OE5MMP-10 | 2026-08-31 05:47:08 | 48.14724 | 12.25674 | 87° | 80km/h | 14269m | -7.2m/s | -57.6°C | 7.1% | 144.6hPa | 2.5V | 00:00:00 | 02:19:27 | 00:00:00 | |
| DO3MHA-11 | 2026-08-31 05:47:05 | 48.14720 | 12.25573 | 87° | 77km/h | 14291m | -7.1m/s | -57.5°C | 7.2% | 144.1hPa | 2.5V | 00:00:00 | 02:19:24 | 00:00:00 | |
| PG1ADW-2 | 2026-08-31 05:47:03 | 48.14717 | 12.25511 | 85° | 88km/h | 14305m | -7.9m/s | -57.5°C | 7.2% | 143.7hPa | 2.5V | 00:00:00 | 00:00:00 | 00:00:00 | |
| DO3MHA-12 | 2026-08-31 05:47:02 | 48.14714 | 12.25482 | 83° | 80km/h | 14313m | -7.7m/s | -57.4°C | 7.2% | 143.5hPa | 2.5V | 00:00:00 | 02:19:21 | 00:00:00 | |
| OE5DXL-15 | 2026-08-31 05:46:59 | 48.14703 | 12.25401 | 74° | 78km/h | 14337m | -7.4m/s | -57.5°C | 7.5% | 143.0hPa | 2.5V | 01:21:00 | 00:00:00 | 00:00:00 | |
| OE5MMP-10 | 2026-08-31 05:46:58 | 48.14697 | 12.25374 | 70° | 89km/h | 14344m | -7.0m/s | -57.6°C | 7.4% | 142.8hPa | 2.5V | 01:21:00 | 02:19:17 | 00:00:00 | |
| DO3MHA-11 | 2026-08-31 05:46:55 | 48.14673 | 12.25291 | 66° | 97km/h | 14365m | -7.0m/s | -57.5°C | 7.2% | 142.3hPa | 2.5V | 01:21:00 | 02:19:14 | 00:00:00 | |
| BAUMI2-15 | 2026-08-31 05:46:52 | 48.14646 | 12.25194 | 70° | 99km/h | 14387m | -7.4m/s | -57.0°C | 7.0% | 141.9hPa | 2.5V | 01:21:00 | 02:19:11 | 00:00:00 | |
| OE5MMP-10 | 2026-08-31 05:46:48 | 48.14620 | 12.25050 | 81° | 86km/h | 14416m | -7.0m/s | -56.5°C | 6.8% | 141.3hPa | 2.5V | 00:00:00 | 02:19:07 | 00:00:00 | |
| BAUMI2-15 | 2026-08-31 05:46:47 | 48.14617 | 12.25013 | 84° | 91km/h | 14423m | -7.0m/s | -56.6°C | 6.8% | 141.1hPa | 2.5V | 00:00:00 | 02:19:06 | 00:00:00 | |
| DB0NH | 2026-08-31 05:46:45 | 48.14614 | 12.24941 | 89° | 77km/h | 14437m | -7.0m/s | -56.6°C | 6.7% | 140.7hPa | 2.6V | 01:21:00 | 02:19:04 | 00:00:00 | |
| PG1ADW-2 | 2026-08-31 05:46:43 | 48.14613 | 12.24874 | 91° | 71km/h | 14452m | -7.4m/s | -56.5°C | 6.7% | 140.4hPa | 2.5V | 01:21:00 | 02:19:02 | 00:00:00 | |
| DO3MHA-12 | 2026-08-31 05:46:42 | 48.14613 | 12.24843 | 92° | 66km/h | 14459m | -7.0m/s | -56.4°C | 6.6% | 140.3hPa | 2.5V | 00:00:00 | 02:19:01 | 00:00:00 | |
| DL6DJ-15 | 2026-08-31 05:46:41 | 48.14614 | 12.24786 | 90° | 71km/h | 14473m | -7.2m/s | -56.4°C | 3.1% | 140.0hPa | 2.5V | 00:00:00 | 00:00:00 | 00:00:00 | |
| OE5MMP-10 | 2026-08-31 05:46:38 | 48.14614 | 12.24734 | 89° | 62km/h | 14488m | -7.3m/s | -56.4°C | 6.6% | 139.6hPa | 2.5V | 01:21:00 | 02:18:57 | 00:00:00 | |
| BAUMI2-15 | 2026-08-31 05:46:37 | 48.14613 | 12.24710 | 87° | 58km/h | 14496m | -7.6m/s | -56.4°C | 6.6% | 139.5hPa | 2.5V | 00:00:00 | 02:18:56 | 00:00:00 | |
| OE5DRO-10 | 2026-08-31 05:46:36 | 48.14612 | 12.24688 | 84° | 75km/h | 14503m | -7.5m/s | -56.4°C | 6.7% | 139.3hPa | 2.5V | 00:00:00 | 00:00:00 | 00:00:00 | |
| DO3MHA-11 | 2026-08-31 05:46:35 | 48.14610 | 12.24666 | 80° | 68km/h | 14511m | -7.4m/s | -56.5°C | 6.7% | 139.1hPa | 2.5V | 01:21:00 | 02:18:54 | 00:00:00 | |
| OE5WHR-10 | 2026-08-31 05:46:34 | 48.14607 | 12.24645 | 77° | 73km/h | 14518m | -7.3m/s | -56.5°C | 6.7% | 138.9hPa | 2.5V | 01:21:00 | 02:18:53 | 00:00:00 | |
| DO3MHA-12 | 2026-08-31 05:46:32 | 48.14597 | 12.24603 | 68° | 77km/h | 14533m | -7.8m/s | -56.6°C | 6.7% | 138.7hPa | 2.5V | 01:21:00 | 02:18:51 | 00:00:00 | |
| OE5DXL-15 | 2026-08-31 05:46:29 | 48.14576 | 12.24538 | 63° | 75km/h | 14557m | -7.4m/s | -56.5°C | 6.5% | 138.1hPa | 2.5V | 00:00:00 | 00:00:00 | 00:00:00 | |
| OE5MMP-10 | 2026-08-31 05:46:28 | 48.14567 | 12.24513 | 63° | 84km/h | 14564m | -7.4m/s | -56.5°C | 6.5% | 137.9hPa | 2.5V | 00:00:00 | 02:18:47 | 00:00:00 | |
| BAUMI2-15 | 2026-08-31 05:46:27 | 48.14558 | 12.24487 | 65° | 86km/h | 14572m | -7.3m/s | -56.5°C | 6.5% | 137.8hPa | 2.5V | 00:00:00 | 02:18:46 | 00:00:00 | |
| DO3MHA-11 | 2026-08-31 05:46:25 | 48.14542 | 12.24429 | 70° | 80km/h | 14587m | -7.3m/s | -56.6°C | 6.6% | 137.5hPa | 2.5V | 00:00:00 | 02:18:44 | 00:00:00 | |
| PG1ADW-2 | 2026-08-31 05:46:23 | 48.14529 | 12.24366 | 76° | 69km/h | 14601m | -7.5m/s | -56.7°C | 6.7% | 137.2hPa | 2.5V | 00:00:00 | 00:00:00 | 00:00:00 | |
| DO3MHA-12 | 2026-08-31 05:46:22 | 48.14523 | 12.24333 | 80° | 73km/h | 14609m | -7.4m/s | -56.7°C | 6.8% | 137.0hPa | 2.5V | 00:00:00 | 02:18:41 | 00:00:00 | |
| OE5MMP-10 | 2026-08-31 05:46:18 | 48.14514 | 12.24210 | 89° | 62km/h | 14640m | -7.5m/s | -56.8°C | 6.7% | 136.4hPa | 2.6V | 01:22:00 | 02:18:37 | 00:00:00 | |
| BAUMI2-15 | 2026-08-31 05:46:17 | 48.14514 | 12.24182 | 90° | 64km/h | 14647m | -7.4m/s | -56.9°C | 6.6% | 136.2hPa | 2.6V | 00:00:00 | 02:18:36 | 00:00:00 | |
| DK5PH-5 | 2026-08-31 05:46:15 | 48.14514 | 12.24131 | 90° | 68km/h | 14662m | -7.3m/s | -57.1°C | 6.7% | 135.8hPa | 2.5V | 00:00:00 | 02:18:34 | 00:00:00 | |
| DF7PN | 2026-08-31 05:46:14 | 48.14514 | 12.24108 | 86° | 58km/h | 14669m | -7.3m/s | -57.2°C | 3.1% | 135.7hPa | 2.5V | 00:00:00 | 00:00:00 | 00:00:00 | |
| OE5WHR-10 | 2026-08-31 05:46:13 | 48.14512 | 12.24087 | 82° | 71km/h | 14677m | -7.1m/s | -57.3°C | 6.8% | 135.5hPa | 2.5V | 00:00:00 | 00:00:00 | 00:00:00 | |
| DO3MHA-12 | 2026-08-31 05:46:12 | 48.14509 | 12.24067 | 76° | 68km/h | 14684m | -7.4m/s | -57.3°C | 6.8% | 135.4hPa | 2.5V | 01:22:00 | 02:18:31 | 00:00:00 | |
| OE5GOL-10 | 2026-08-31 05:46:11 | 48.14505 | 12.24048 | 70° | 66km/h | 14691m | -7.4m/s | -57.3°C | 6.8% | 135.3hPa | 2.5V | 01:22:00 | 02:18:30 | 00:00:00 | |
| DL6DJ-15 | 2026-08-31 05:46:09 | 48.14493 | 12.24009 | 60° | 58km/h | 14706m | -8.0m/s | -57.4°C | 3.1% | 134.9hPa | 2.5V | 00:00:00 | 00:00:00 | 00:00:00 | |
| DB0UT-7 | 2026-08-31 05:46:08 | 48.14485 | 12.23989 | 60° | 68km/h | 14715m | -8.2m/s | -57.4°C | 6.6% | 134.7hPa | 2.5V | 01:22:00 | 02:18:27 | 00:00:00 | |
| BAUMI2-15 | 2026-08-31 05:46:07 | 48.14477 | 12.23968 | 59° | 78km/h | 14723m | -8.5m/s | -57.4°C | 6.6% | 134.6hPa | 2.5V | 00:00:00 | 02:18:26 | 00:00:00 | |
| DG1MFX-10 | 2026-08-31 05:46:06 | 48.14477 | 12.23968 | 60° | 69km/h | 14723m | -8.6m/s | -57.4°C | 3.1% | 134.6hPa | 2.5V | 01:23:00 | 00:00:00 | 00:00:00 | |
| DO3MHA-11 | 2026-08-31 05:46:05 | 48.14458 | 12.23920 | 61° | 84km/h | 14740m | -8.8m/s | -57.4°C | 6.7% | 134.2hPa | 2.5V | 00:00:00 | 02:18:24 | 00:00:00 | |
| PG1ADW-2 | 2026-08-31 05:46:03 | 48.14439 | 12.23864 | 66° | 68km/h | 14758m | -8.2m/s | -57.5°C | 6.8% | 133.9hPa | 2.5V | 01:22:00 | 00:00:00 | 00:00:00 | |
| DO3MHA-12 | 2026-08-31 05:46:02 | 48.14430 | 12.23833 | 69° | 78km/h | 14766m | -8.0m/s | -57.5°C | 6.9% | 133.6hPa | 2.6V | 00:00:00 | 02:18:21 | 00:00:00 | |
| OE5DXL-15 | 2026-08-31 05:45:59 | 48.14411 | 12.23736 | 79° | 66km/h | 14790m | -7.7m/s | -57.5°C | 6.9% | 133.2hPa | 2.6V | 01:22:00 | 00:00:00 | 00:00:00 | |
| OE5MMP-10 | 2026-08-31 05:45:58 | 48.14407 | 12.23705 | 81° | 64km/h | 14798m | -7.5m/s | -57.4°C | 6.9% | 133.0hPa | 2.5V | 01:22:00 | 02:18:17 | 00:00:00 | |
| BAUMI2-15 | 2026-08-31 05:45:57 | 48.14404 | 12.23675 | 83° | 69km/h | 14805m | -7.2m/s | -57.2°C | 6.7% | 132.8hPa | 2.5V | 00:00:00 | 02:18:16 | 00:00:00 | |
| DO3MHA-11 | 2026-08-31 05:45:55 | 48.14399 | 12.23621 | 84° | 57km/h | 14820m | -7.1m/s | -56.9°C | 6.4% | 132.5hPa | 2.5V | 01:22:00 | 02:18:14 | 00:00:00 | |
| DO3MHA-12 | 2026-08-31 05:45:52 | 48.14394 | 12.23550 | 83° | 51km/h | 14842m | -7.7m/s | -57.1°C | 6.5% | 132.1hPa | 2.5V | 01:22:00 | 02:18:11 | 00:00:00 | |
| OE5MMP-10 | 2026-08-31 05:45:48 | 48.14384 | 12.23469 | 76° | 55km/h | 14874m | -8.0m/s | -57.4°C | 6.6% | 131.4hPa | 2.5V | 00:00:00 | 02:18:07 | 00:00:00 | |
| BAUMI2-15 | 2026-08-31 05:45:47 | 48.14381 | 12.23451 | 73° | 49km/h | 14882m | -8.1m/s | -57.3°C | 6.6% | 131.3hPa | 2.5V | 00:00:00 | 02:18:06 | 00:00:00 | |
| DG1MFX-10 | 2026-08-31 05:45:46 | 48.14381 | 12.23451 | 73° | 49km/h | 14882m | -8.1m/s | -57.4°C | 3.1% | 131.3hPa | 2.6V | 01:23:00 | 00:00:00 | 00:00:00 | |
| DO3MHA-11 | 2026-08-31 05:45:45 | 48.14372 | 12.23417 | 65° | 62km/h | 14898m | -7.8m/s | -57.3°C | 6.6% | 130.9hPa | 2.6V | 00:00:00 | 02:18:04 | 00:00:00 | |
| PG1ADW-2 | 2026-08-31 05:45:43 | 48.14359 | 12.23384 | 55° | 69km/h | 14914m | -7.7m/s | -57.2°C | 6.4% | 130.6hPa | 2.5V | 00:00:00 | 00:00:00 | 00:00:00 | |
| DO3MHA-12 | 2026-08-31 05:45:42 | 48.14351 | 12.23369 | 50° | 71km/h | 14921m | -7.9m/s | -57.2°C | 6.4% | 130.4hPa | 2.5V | 00:00:00 | 02:18:01 | 00:00:00 | |
| OE5GOL-10 | 2026-08-31 05:45:41 | 48.14342 | 12.23353 | 48° | 68km/h | 14929m | -8.0m/s | -57.1°C | 6.4% | 130.2hPa | 2.5V | 00:00:00 | 02:18:00 | 00:00:00 | |
| DF3TZ-5 | 2026-08-31 05:45:40 | 48.14320 | 12.23319 | 46° | 66km/h | 14945m | -7.8m/s | -57.1°C | 2.8% | 129.9hPa | 2.6V | 00:00:00 | 00:00:00 | 00:00:00 | |
| OE5DRO-10 | 2026-08-31 05:45:39 | 48.14320 | 12.23319 | 47° | 69km/h | 14945m | -7.8m/s | -57.1°C | 6.2% | 129.8hPa | 2.6V | 01:22:00 | 00:00:00 | 00:00:00 | |
| DB0UT-7 | 2026-08-31 05:45:38 | 48.14308 | 12.23299 | 48° | 68km/h | 14953m | -7.8m/s | -57.1°C | 6.3% | 129.7hPa | 2.6V | 00:00:00 | 00:00:00 | 00:00:00 | |
| BAUMI2-15 | 2026-08-31 05:45:37 | 48.14295 | 12.23278 | 50° | 80km/h | 14961m | -7.8m/s | -57.2°C | 6.3% | 129.6hPa | 2.6V | 00:00:00 | 02:17:56 | 00:00:00 | |
| DO3MHA-11 | 2026-08-31 05:45:35 | 48.14271 | 12.23232 | 55° | 75km/h | 14977m | -8.0m/s | -57.3°C | 6.4% | 129.2hPa | 2.6V | 01:22:00 | 02:17:54 | 00:00:00 | |
| DB0NH | 2026-08-31 05:45:34 | 48.14259 | 12.23206 | 58° | 75km/h | 14985m | -7.8m/s | -57.4°C | 6.5% | 129.1hPa | 2.6V | 01:22:00 | 02:17:53 | 00:00:00 | |
| DO3MHA-12 | 2026-08-31 05:45:32 | 48.14239 | 12.23151 | 65° | 66km/h | 15001m | -7.8m/s | -57.5°C | 6.6% | 128.7hPa | 2.6V | 01:22:00 | 02:17:51 | 00:00:00 | |
| BAUMI2-15 | 2026-08-31 05:45:32 | 48.14239 | 12.23151 | 65° | 77km/h | 15001m | -7.8m/s | -57.5°C | 6.6% | 128.7hPa | 2.6V | 01:22:00 | 02:17:51 | 00:00:00 | |
| OE5WHR-10 | 2026-08-31 05:45:31 | 48.14230 | 12.23123 | 68° | 64km/h | 15009m | -7.9m/s | -57.6°C | 6.6% | 128.5hPa | 2.6V | 00:00:00 | 02:17:50 | 00:00:00 | |
| IN3HCDX | 2026-08-31 05:45:30 | 48.14230 | 12.23123 | 68° | 80km/h | 15009m | -7.9m/s | 0°C | 0% | 0hPa | 2.6V | 00:00:00 | 00:00:00 | 00:00:00 | |
| OE5DXL-15 | 2026-08-31 05:45:29 | 48.14217 | 12.23068 | 74° | 73km/h | 15024m | -7.7m/s | -57.7°C | 6.5% | 128.3hPa | 2.6V | 00:00:00 | 02:17:48 | 00:00:00 | |
| OE5MMP-10 | 2026-08-31 05:45:28 | 48.14212 | 12.23042 | 75° | 55km/h | 15032m | -7.5m/s | -57.8°C | 6.4% | 128.1hPa | 2.6V | 00:00:00 | 02:17:47 | 00:00:00 | |
| BAUMI2-15 | 2026-08-31 05:45:27 | 48.14208 | 12.23017 | 76° | 57km/h | 15040m | -7.7m/s | -57.9°C | 6.4% | 128.0hPa | 2.6V | 00:00:00 | 02:17:46 | 00:00:00 | |
| DO3MHA-11 | 2026-08-31 05:45:25 | 48.14199 | 12.22974 | 73° | 55km/h | 15055m | -7.6m/s | -58.1°C | 6.5% | 127.7hPa | 2.6V | 00:00:00 | 02:17:44 | 00:00:00 | |
| PG1ADW-2 | 2026-08-31 05:45:23 | 48.14190 | 12.22937 | 64° | 75km/h | 15071m | -7.9m/s | -58.1°C | 6.7% | 127.4hPa | 2.6V | 01:23:00 | 02:17:42 | 00:00:00 | |
| DG1MFX-10 | 2026-08-31 05:45:22 | 48.14190 | 12.22937 | 65° | 49km/h | 15071m | -7.9m/s | -58.1°C | 3.1% | 127.4hPa | 2.6V | 01:23:00 | 00:00:00 | 00:00:00 | |
| OE5DRO-10 | 2026-08-31 05:45:20 | 48.14169 | 12.22892 | 49° | 78km/h | 15095m | -7.9m/s | -58.1°C | 6.9% | 126.8hPa | 2.6V | 00:00:00 | 00:00:00 | 00:00:00 | |
| NBG1-10 | 2026-08-31 05:45:19 | 48.14160 | 12.22877 | 45° | 78km/h | 15103m | -8.0m/s | -58.1°C | 6.9% | 126.7hPa | 2.6V | 01:23:00 | 02:17:38 | 00:00:00 | |
| OE5MMP-10 | 2026-08-31 05:45:18 | 48.14149 | 12.22862 | 43° | 75km/h | 15111m | -8.1m/s | -58.2°C | 6.9% | 126.6hPa | 2.6V | 01:23:00 | 02:17:37 | 00:00:00 | |
| BAUMI2-15 | 2026-08-31 05:45:17 | 48.14138 | 12.22847 | 41° | 73km/h | 15119m | -8.0m/s | -58.3°C | 6.9% | 126.4hPa | 2.5V | 00:00:00 | 02:17:36 | 00:00:00 | |
| DO3MHA-11 | 2026-08-31 05:45:15 | 48.14113 | 12.22815 | 41° | 84km/h | 15135m | -7.6m/s | -58.4°C | 6.9% | 126.1hPa | 2.5V | 01:23:00 | 02:17:34 | 00:00:00 | |
| DO3MHA-12 | 2026-08-31 05:45:12 | 48.14070 | 12.22757 | 45° | 89km/h | 15159m | -7.9m/s | -58.5°C | 6.9% | 125.6hPa | 2.5V | 01:23:00 | 02:17:31 | 00:00:00 | |
| OE5GOL-10 | 2026-08-31 05:45:11 | 48.14055 | 12.22735 | 46° | 84km/h | 15167m | -8.0m/s | -58.6°C | 6.9% | 125.4hPa | 2.5V | 01:23:00 | 02:17:30 | 00:00:00 | |
| OE5WHR-10 | 2026-08-31 05:45:10 | 48.14040 | 12.22712 | 48° | 80km/h | 15175m | -8.3m/s | -58.6°C | 6.9% | 125.2hPa | 2.5V | 01:23:00 | 00:00:00 | 00:00:00 | |
| DB0UT-7 | 2026-08-31 05:45:08 | 48.14011 | 12.22662 | 51° | 86km/h | 15192m | -8.2m/s | -58.7°C | 7.1% | 124.9hPa | 2.6V | 01:23:00 | 02:17:27 | 00:00:00 | |
| DL6DJ-15 | 2026-08-31 05:45:07 | 48.13997 | 12.22635 | 52° | 89km/h | 15200m | -8.4m/s | -58.7°C | 3.2% | 124.8hPa | 2.6V | 00:00:00 | 00:00:00 | 00:00:00 | |
| BAUMI2-15 | 2026-08-31 05:45:06 | 48.13984 | 12.22607 | 56° | 93km/h | 15209m | -8.2m/s | -58.6°C | 7.2% | 124.6hPa | 2.6V | 00:00:00 | 02:17:25 | 00:00:00 | |
| DO3MHA-11 | 2026-08-31 05:45:05 | 48.13971 | 12.22577 | 59° | 82km/h | 15217m | -8.4m/s | -58.5°C | 7.3% | 124.4hPa | 2.6V | 00:00:00 | 02:17:24 | 00:00:00 | |
| DO3MHA-12 | 2026-08-31 05:45:02 | 48.13938 | 12.22484 | 67° | 73km/h | 15242m | -8.1m/s | -58.1°C | 7.1% | 123.9hPa | 2.6V | 00:00:00 | 02:17:21 | 00:00:00 | |
| BAUMI2-15 | 2026-08-31 05:45:01 | 48.13930 | 12.22453 | 70° | 78km/h | 15251m | -8.4m/s | -57.9°C | 6.9% | 123.8hPa | 2.6V | 01:23:00 | 02:17:20 | 00:00:00 | |
| DB0NH | 2026-08-31 05:45:00 | 48.13922 | 12.22423 | 71° | 84km/h | 15259m | -8.3m/s | -57.9°C | 6.8% | 123.6hPa | 2.5V | 00:00:00 | 02:17:19 | 00:00:00 | |
| OE5DXL-15 | 2026-08-31 05:44:59 | 48.13916 | 12.22395 | 72° | 89km/h | 15267m | -8.1m/s | -57.9°C | 6.7% | 123.4hPa | 2.5V | 01:23:00 | 00:00:00 | 00:00:00 | |
| OE5MMP-10 | 2026-08-31 05:44:58 | 48.13910 | 12.22368 | 71° | 69km/h | 15276m | -8.0m/s | -58.0°C | 6.7% | 123.3hPa | 2.5V | 01:23:00 | 02:17:17 | 00:00:00 | |
| BAUMI2-15 | 2026-08-31 05:44:56 | 48.13897 | 12.22320 | 66° | 60km/h | 15292m | -8.0m/s | -58.0°C | 6.7% | 122.9hPa | 2.5V | 00:00:00 | 02:17:15 | 00:00:00 | |
| DO3MHA-11 | 2026-08-31 05:44:55 | 48.13890 | 12.22298 | 61° | 77km/h | 15300m | -8.2m/s | -58.1°C | 6.8% | 122.8hPa | 2.5V | 01:23:00 | 02:17:14 | 00:00:00 | |
| DO3MHA-12 | 2026-08-31 05:44:52 | 48.13860 | 12.22240 | 49° | 88km/h | 15325m | -8.2m/s | -57.9°C | 6.7% | 122.3hPa | 2.5V | 01:23:00 | 02:17:11 | 00:00:00 | |
| OE5WHR-10 | 2026-08-31 05:44:49 | 48.13820 | 12.22177 | 46° | 99km/h | 15350m | -8.3m/s | -57.7°C | 6.4% | 121.8hPa | 2.5V | 00:00:00 | 00:00:00 | 00:00:00 | |
| OE5MMP-10 | 2026-08-31 05:44:48 | 48.13805 | 12.22154 | 47° | 99km/h | 15358m | -8.5m/s | -57.8°C | 6.4% | 121.6hPa | 2.5V | 00:00:00 | 02:17:07 | 00:00:00 | |
| NBG1-10 | 2026-08-31 05:44:46 | 48.13774 | 12.22103 | 50° | 89km/h | 15375m | -8.2m/s | -57.8°C | 6.4% | 121.3hPa | 2.5V | 00:00:00 | 02:17:05 | 00:00:00 | |
| DK5PH-5 | 2026-08-31 05:44:45 | 48.13759 | 12.22075 | 52° | 89km/h | 15383m | -8.0m/s | -57.9°C | 6.4% | 121.1hPa | 2.5V | 01:23:00 | 02:17:04 | 00:00:00 | |
| PG1ADW-2 | 2026-08-31 05:44:43 | 48.13729 | 12.22014 | 57° | 99km/h | 15399m | -8.1m/s | -57.9°C | 6.6% | 120.9hPa | 2.5V | 01:23:00 | 00:00:00 | 00:00:00 | |
| DO3MHA-12 | 2026-08-31 05:44:42 | 48.13716 | 12.21982 | 59° | 102km/h | 15408m | -8.3m/s | -58.0°C | 6.7% | 120.7hPa | 2.5V | 00:00:00 | 02:17:01 | 00:00:00 | |
| OE5GOL-10 | 2026-08-31 05:44:41 | 48.13703 | 12.21949 | 61° | 88km/h | 15416m | -8.3m/s | -58.0°C | 6.8% | 120.6hPa | 2.5V | 00:00:00 | 02:17:00 | 00:00:00 | |
| DG1MFX-10 | 2026-08-31 05:44:40 | 48.13703 | 12.21949 | 61° | 102km/h | 15416m | -8.4m/s | -58.0°C | 3.0% | 120.6hPa | 2.5V | 01:23:00 | 00:00:00 | 00:00:00 | |
| OE5MMP-10 | 2026-08-31 05:44:38 | 48.13667 | 12.21846 | 65° | 100km/h | 15441m | -8.5m/s | -58.0°C | 6.9% | 120.1hPa | 2.5V | 01:23:00 | 02:16:57 | 00:00:00 | |
| DF3TZ-5 | 2026-08-31 05:44:37 | 48.13656 | 12.21812 | 65° | 100km/h | 15450m | -8.7m/s | -58.1°C | 3.0% | 120.0hPa | 2.5V | 00:00:00 | 00:00:00 | 00:00:00 | |
| DB0UT-7 | 2026-08-31 05:44:36 | 48.13646 | 12.21776 | 68° | 86km/h | 15459m | -8.6m/s | -58.0°C | 7.0% | 119.7hPa | 2.5V | 00:00:00 | 00:00:00 | 00:00:00 | |
| DO3MHA-11 | 2026-08-31 05:44:35 | 48.13636 | 12.21741 | 69° | 97km/h | 15467m | -8.7m/s | -58.1°C | 7.1% | 119.6hPa | 2.5V | 01:23:00 | 02:16:54 | 00:00:00 | |
| DO3MHA-12 | 2026-08-31 05:44:32 | 48.13611 | 12.21632 | 75° | 91km/h | 15494m | -8.9m/s | -57.9°C | 7.1% | 119.1hPa | 2.5V | 01:23:00 | 02:16:51 | 00:00:00 | |
| DB0NH | 2026-08-31 05:44:30 | 48.13599 | 12.21559 | 78° | 73km/h | 15512m | -9.1m/s | -57.8°C | 6.9% | 118.8hPa | 2.5V | 01:23:00 | 02:16:49 | 00:00:00 | |
| OE5DXL-15 | 2026-08-31 05:44:29 | 48.13595 | 12.21524 | 81° | 82km/h | 15521m | -8.8m/s | -57.7°C | 6.8% | 118.5hPa | 2.5V | 00:00:00 | 00:00:00 | 00:00:00 | |
| OE5WHR-10 | 2026-08-31 05:44:28 | 48.13592 | 12.21488 | 83° | 80km/h | 15530m | -9.2m/s | -57.4°C | 6.6% | 118.4hPa | 2.6V | 01:23:00 | 02:16:47 | 00:00:00 | |
| DO3MHA-11 | 2026-08-31 05:44:25 | 48.13586 | 12.21387 | 88° | 73km/h | 15558m | -9.4m/s | -57.1°C | 6.2% | 117.8hPa | 2.6V | 00:00:00 | 02:16:44 | 00:00:00 | |
| PG1ADW-2 | 2026-08-31 05:44:23 | 48.13585 | 12.21325 | 89° | 80km/h | 15576m | -9.2m/s | -56.9°C | 6.0% | 117.5hPa | 2.6V | 00:00:00 | 00:00:00 | 00:00:00 | |
| DO3MHA-12 | 2026-08-31 05:44:22 | 48.13584 | 12.21295 | 89° | 71km/h | 15585m | -9.3m/s | -56.8°C | 6.1% | 117.3hPa | 2.6V | 00:00:00 | 02:16:41 | 00:00:00 | |
| DG1MFX-10 | 2026-08-31 05:44:19 | 48.13583 | 12.21240 | 86° | 69km/h | 15604m | -9.1m/s | -56.6°C | 2.5% | 117.0hPa | 2.6V | 01:24:00 | 00:00:00 | 00:00:00 | |
| OE5MMP-10 | 2026-08-31 05:44:18 | 48.13578 | 12.21191 | 79° | 78km/h | 15622m | -9.2m/s | -56.3°C | 5.7% | 116.6hPa | 2.6V | 01:24:00 | 02:16:37 | 00:00:00 | |
| DK5PH-5 | 2026-08-31 05:44:15 | 48.13564 | 12.21119 | 70° | 73km/h | 15649m | -8.9m/s | -56.3°C | 5.6% | 116.2hPa | 2.5V | 00:00:00 | 02:16:34 | 00:00:00 | |
| NBG1-10 | 2026-08-31 05:44:13 | 48.13550 | 12.21065 | 71° | 73km/h | 15667m | -8.8m/s | -56.3°C | 5.7% | 115.8hPa | 2.5V | 01:24:00 | 02:16:32 | 00:00:00 | |
| DO3MHA-12 | 2026-08-31 05:44:12 | 48.13544 | 12.21035 | 74° | 89km/h | 15676m | -8.7m/s | -56.3°C | 5.8% | 115.7hPa | 2.5V | 01:24:00 | 02:16:31 | 00:00:00 | |
| OE5GOL-10 | 2026-08-31 05:44:11 | 48.13538 | 12.21003 | 77° | 73km/h | 15685m | -8.8m/s | -56.3°C | 5.8% | 115.6hPa | 2.5V | 01:24:00 | 02:16:30 | 00:00:00 | |
| DF7PN | 2026-08-31 05:44:10 | 48.13530 | 12.20936 | 82° | 91km/h | 15702m | -8.7m/s | -56.4°C | 2.4% | 115.3hPa | 2.5V | 00:00:00 | 00:00:00 | 00:00:00 | |
| OE5MMP-10 | 2026-08-31 05:44:08 | 48.13527 | 12.20902 | 86° | 86km/h | 15711m | -8.5m/s | -56.3°C | 5.8% | 115.1hPa | 2.5V | 00:00:00 | 02:16:27 | 00:00:00 | |
| OE5WHR-10 | 2026-08-31 05:44:07 | 48.13526 | 12.20867 | 89° | 68km/h | 15719m | -8.6m/s | -56.4°C | 5.8% | 114.9hPa | 2.5V | 00:00:00 | 00:00:00 | 00:00:00 | |
| DB0UT-7 | 2026-08-31 05:44:06 | 48.13526 | 12.20832 | 91° | 69km/h | 15728m | -8.5m/s | -56.4°C | 5.8% | 114.8hPa | 2.6V | 01:24:00 | 02:16:25 | 00:00:00 | |
| DO3MHA-11 | 2026-08-31 05:44:05 | 48.13527 | 12.20798 | 94° | 78km/h | 15736m | -8.5m/s | -56.4°C | 5.8% | 114.6hPa | 2.6V | 00:00:00 | 02:16:24 | 00:00:00 | |
| OE5DRO-10 | 2026-08-31 05:44:04 | 48.13528 | 12.20765 | 96° | 64km/h | 15745m | -9.2m/s | -56.4°C | 5.8% | 114.4hPa | 2.6V | 00:00:00 | 00:00:00 | 00:00:00 | |
| PG1ADW-2 | 2026-08-31 05:44:03 | 48.13531 | 12.20732 | 99° | 64km/h | 15755m | -9.1m/s | -56.5°C | 5.8% | 114.2hPa | 2.6V | 01:24:00 | 02:16:22 | 00:00:00 | |
| DO3MHA-12 | 2026-08-31 05:44:02 | 48.13535 | 12.20701 | 102° | 69km/h | 15764m | -9.3m/s | -56.5°C | 5.8% | 114.1hPa | 2.6V | 00:00:00 | 02:16:21 | 00:00:00 | |
| OE5DXL-15 | 2026-08-31 05:43:59 | 48.13550 | 12.20612 | 109° | 60km/h | 15792m | -9.2m/s | -56.2°C | 5.5% | 113.6hPa | 2.6V | 01:24:00 | 00:00:00 | 00:00:00 | |
| OE5MMP-10 | 2026-08-31 05:43:58 | 48.13557 | 12.20586 | 112° | 55km/h | 15801m | -9.4m/s | -56.3°C | 5.5% | 113.4hPa | 2.6V | 01:24:00 | 02:16:17 | 00:00:00 | |
| DO3MHA-11 | 2026-08-31 05:43:55 | 48.13577 | 12.20518 | 116° | 53km/h | 15831m | -9.5m/s | -56.2°C | 5.6% | 112.8hPa | 2.6V | 01:24:00 | 02:16:14 | 00:00:00 | |
| OE5REO-15 | 2026-08-31 05:43:54 | 48.13577 | 12.20518 | 117° | 60km/h | 15831m | -9.5m/s | -56.3°C | 2.3% | 112.9hPa | 2.6V | 01:24:00 | 00:00:00 | 00:00:00 | |
| DO3MHA-12 | 2026-08-31 05:43:52 | 48.13592 | 12.20464 | 108° | 60km/h | 15858m | -9.0m/s | -56.3°C | 5.7% | 112.4hPa | 2.6V | 01:24:00 | 02:16:11 | 00:00:00 | |
| OE5MMP-10 | 2026-08-31 05:43:48 | 48.13596 | 12.20393 | 86° | 73km/h | 15895m | -9.2m/s | -56.3°C | 5.6% | 111.7hPa | 2.6V | 00:00:00 | 02:16:07 | 00:00:00 | |
| OE5WHR-10 | 2026-08-31 05:43:46 | 48.13594 | 12.20348 | 88° | 58km/h | 15914m | -9.2m/s | -56.3°C | 5.6% | 111.4hPa | 2.6V | 01:24:00 | 00:00:00 | 00:00:00 | |
| PG1ADW-2 | 2026-08-31 05:43:43 | 48.13596 | 12.20264 | 98° | 55km/h | 15941m | -8.9m/s | -56.5°C | 5.6% | 110.9hPa | 2.6V | 00:00:00 | 00:00:00 | 00:00:00 | |
| DO3MHA-12 | 2026-08-31 05:43:42 | 48.13599 | 12.20234 | 103° | 68km/h | 15950m | -9.0m/s | -56.5°C | 5.6% | 110.8hPa | 2.6V | 00:00:00 | 02:16:01 | 00:00:00 | |
| OE5GOL-10 | 2026-08-31 05:43:41 | 48.13605 | 12.20203 | 108° | 51km/h | 15960m | -9.0m/s | -56.5°C | 5.6% | 110.7hPa | 2.6V | 00:00:00 | 02:16:00 | 00:00:00 | |
| NBG1-10 | 2026-08-31 05:43:40 | 48.13611 | 12.20175 | 112° | 47km/h | 15969m | -8.9m/s | -56.5°C | 5.5% | 110.5hPa | 2.6V | 00:00:00 | 02:15:59 | 00:00:00 | |
| DF7PN | 2026-08-31 05:43:39 | 48.13628 | 12.20122 | 119° | 71km/h | 15986m | -8.9m/s | -56.5°C | 2.2% | 110.2hPa | 2.6V | 00:00:00 | 00:00:00 | 00:00:00 | |
| DG1MFX-10 | 2026-08-31 05:43:38 | 48.13628 | 12.20122 | 120° | 73km/h | 15986m | -8.9m/s | -56.5°C | 2.2% | 110.2hPa | 2.6V | 01:25:00 | 00:00:00 | 00:00:00 | |
| DB0UT-7 | 2026-08-31 05:43:36 | 48.13646 | 12.20079 | 126° | 44km/h | 16004m | -8.7m/s | -56.4°C | 5.4% | 109.9hPa | 2.6V | 00:00:00 | 00:00:00 | 00:00:00 | |
| DO3MHA-11 | 2026-08-31 05:43:35 | 48.13655 | 12.20061 | 127° | 40km/h | 16013m | -8.7m/s | -56.4°C | 5.4% | 109.7hPa | 2.5V | 01:24:00 | 02:15:54 | 00:00:00 | |
| DL6DJ-15 | 2026-08-31 05:43:34 | 48.13663 | 12.20045 | 127° | 51km/h | 16022m | -9.0m/s | -56.5°C | 2.2% | 109.6hPa | 2.5V | 00:00:00 | 00:00:00 | 00:00:00 | |
| DO3MHA-12 | 2026-08-31 05:43:32 | 48.13677 | 12.20017 | 125° | 38km/h | 16040m | -9.1m/s | -56.4°C | 5.5% | 109.2hPa | 2.5V | 01:24:00 | 02:15:51 | 00:00:00 | |
| OE5DXL-15 | 2026-08-31 05:43:29 | 48.13689 | 12.19981 | 105° | 38km/h | 16068m | -8.8m/s | -56.4°C | 5.5% | 108.7hPa | 2.5V | 00:00:00 | 00:00:00 | 00:00:00 | |
| OE5MMP-10 | 2026-08-31 05:43:28 | 48.13691 | 12.19969 | 95° | 47km/h | 16077m | -8.8m/s | -56.4°C | 5.4% | 108.6hPa | 2.5V | 00:00:00 | 02:15:47 | 00:00:00 | |
| OE5DRO-10 | 2026-08-31 05:43:26 | 48.13689 | 12.19943 | 80° | 44km/h | 16096m | -9.2m/s | -56.5°C | 5.4% | 108.3hPa | 2.5V | 00:00:00 | 00:00:00 | 00:00:00 | |
| DO3MHA-11 | 2026-08-31 05:43:25 | 48.13687 | 12.19928 | 77° | 55km/h | 16105m | -9.3m/s | -56.6°C | 5.4% | 108.1hPa | 2.5V | 00:00:00 | 02:15:44 | 00:00:00 | |
| PG1ADW-2 | 2026-08-31 05:43:23 | 48.13682 | 12.19894 | 80° | 40km/h | 16124m | -9.3m/s | -56.8°C | 5.5% | 107.8hPa | 2.5V | 01:25:00 | 00:00:00 | 00:00:00 | |
| DO3MHA-12 | 2026-08-31 05:43:22 | 48.13680 | 12.19874 | 83° | 55km/h | 16133m | -9.2m/s | -56.8°C | 5.6% | 107.6hPa | 2.5V | 00:00:00 | 02:15:41 | 00:00:00 | |
| OE5MMP-10 | 2026-08-31 05:43:18 | 48.13683 | 12.19784 | 103° | 40km/h | 16170m | -8.7m/s | -56.9°C | 5.4% | 107.1hPa | 2.6V | 01:25:00 | 02:15:37 | 00:00:00 | |
| DL1ZP-14 | 2026-08-31 05:43:17 | 48.13687 | 12.19763 | 107° | 57km/h | 16178m | -8.9m/s | -57.0°C | 2.1% | 106.9hPa | 2.6V | 00:00:00 | 00:00:00 | 00:00:00 | |
| DM0DOS-11 | 2026-08-31 05:43:16 | 48.13708 | 12.19696 | 123° | 40km/h | 16213m | -8.4m/s | -57.3°C | 5.5% | 106.3hPa | 2.6V | 01:25:14 | 02:15:32 | 00:00:00 | |
| DO3MHA-11 | 2026-08-31 05:43:15 | 48.13697 | 12.19725 | 117° | 27km/h | 16196m | -9.0m/s | -57.1°C | 5.4% | 106.6hPa | 2.5V | 01:25:00 | 02:15:34 | 00:00:00 | |
| DO3MHA-12 | 2026-08-31 05:43:12 | 48.13713 | 12.19685 | 126° | 22km/h | 16222m | -8.8m/s | -57.3°C | 5.5% | 106.1hPa | 2.6V | 01:25:00 | 02:15:31 | 00:00:00 | |
| OE5GOL-10 | 2026-08-31 05:43:11 | 48.13718 | 12.19675 | 126° | 33km/h | 16232m | -9.3m/s | -57.3°C | 5.6% | 106.0hPa | 2.6V | 01:25:00 | 02:15:30 | 00:00:00 | |
| DF7PN | 2026-08-31 05:43:08 | 48.13726 | 12.19650 | 78° | 13km/h | 16268m | -9.2m/s | -57.6°C | 2.1% | 105.4hPa | 2.6V | 00:00:00 | 00:00:00 | 00:00:00 | |
| NBG1-10 | 2026-08-31 05:43:07 | 48.13726 | 12.19650 | 79° | 37km/h | 16268m | -9.1m/s | -57.5°C | 5.6% | 105.3hPa | 2.6V | 01:25:00 | 02:15:26 | 00:00:00 | |
| DM0DOS-11 | 2026-08-31 05:43:06 | 48.13713 | 12.19624 | 48° | 31km/h | 16304m | -9.1m/s | -57.8°C | 5.5% | 104.8hPa | 2.6V | 01:25:24 | 02:15:22 | 00:00:00 | |
| DB0UT-7 | 2026-08-31 05:43:06 | 48.13725 | 12.19645 | 60° | 35km/h | 16278m | -9.0m/s | -57.6°C | 5.6% | 105.2hPa | 2.6V | 01:25:00 | 02:15:25 | 00:00:00 | |
| DO3MHA-11 | 2026-08-31 05:43:05 | 48.13722 | 12.19639 | 51° | 40km/h | 16287m | -8.9m/s | -57.7°C | 5.5% | 105.1hPa | 2.6V | 00:00:00 | 02:15:24 | 00:00:00 | |
| OE5WHR-10 | 2026-08-31 05:43:04 | 48.13718 | 12.19632 | 49° | 38km/h | 16296m | -8.7m/s | -57.7°C | 5.5% | 104.9hPa | 2.6V | 01:25:00 | 00:00:00 | 00:00:00 | |
| PG1ADW-2 | 2026-08-31 05:43:03 | 48.13713 | 12.19624 | 49° | 40km/h | 16304m | -9.0m/s | -57.7°C | 5.5% | 104.8hPa | 2.6V | 00:00:00 | 00:00:00 | 00:00:00 | |
| DO3MHA-12 | 2026-08-31 05:43:02 | 48.13708 | 12.19614 | 52° | 49km/h | 16314m | -9.2m/s | -57.7°C | 5.4% | 104.6hPa | 2.6V | 00:00:00 | 02:15:21 | 00:00:00 | |
| OE5DXL-15 | 2026-08-31 05:42:59 | 48.13690 | 12.19573 | 65° | 42km/h | 16342m | -9.3m/s | -57.9°C | 5.6% | 104.1hPa | 2.6V | 01:25:00 | 00:00:00 | 00:00:00 | |
| OE5MMP-10 | 2026-08-31 05:42:58 | 48.13685 | 12.19556 | 70° | 47km/h | 16351m | -9.4m/s | -57.9°C | 5.8% | 104.0hPa | 2.6V | 01:25:00 | 02:15:17 | 00:00:00 | |
| DM0DOS-11 | 2026-08-31 05:42:56 | 48.13676 | 12.19457 | 96° | 51km/h | 16397m | -9.3m/s | -58.3°C | 5.8% | 103.2hPa | 2.6V | 01:25:34 | 02:15:12 | 00:00:00 | |
| DO3MHA-11 | 2026-08-31 05:42:55 | 48.13676 | 12.19497 | 86° | 40km/h | 16379m | -9.2m/s | -58.1°C | 5.9% | 103.5hPa | 2.6V | 01:25:00 | 02:15:14 | 00:00:00 | |
| DH7VM-15 | 2026-08-31 05:42:53 | 48.13676 | 12.19477 | 91° | 53km/h | 16388m | -9.2m/s | -58.3°C | 2.1% | 103.4hPa | 2.6V | 00:00:00 | 00:00:00 | 00:00:00 | |
| DO3MHA-12 | 2026-08-31 05:42:52 | 48.13678 | 12.19438 | 101° | 29km/h | 16407m | -9.0m/s | -58.4°C | 5.8% | 103.1hPa | 2.6V | 01:25:00 | 02:15:11 | 00:00:00 | |
| BAUMI2-15 | 2026-08-31 05:42:51 | 48.13681 | 12.19421 | 106° | 33km/h | 16416m | -8.7m/s | -58.5°C | 5.8% | 102.9hPa | 2.5V | 01:25:00 | 02:15:10 | 00:00:00 | |
| OE5REO-15 | 2026-08-31 05:42:49 | 48.13687 | 12.19394 | 113° | 33km/h | 16434m | -9.1m/s | -58.7°C | 2.1% | 102.7hPa | 2.5V | 01:26:00 | 00:00:00 | 00:00:00 | |
| OE5MMP-10 | 2026-08-31 05:42:48 | 48.13690 | 12.19384 | 111° | 24km/h | 16443m | -9.0m/s | -58.6°C | 6.0% | 102.5hPa | 2.5V | 00:00:00 | 02:15:07 | 00:00:00 | |
| DM0DOS-11 | 2026-08-31 05:42:46 | 48.13691 | 12.19347 | 53° | 18km/h | 16489m | -8.9m/s | -58.2°C | 6% | 101.8hPa | 2.6V | 01:25:44 | 02:15:02 | 00:00:00 | |
| BAUMI2-15 | 2026-08-31 05:42:46 | 48.13693 | 12.19366 | 100° | 18km/h | 16461m | -9.4m/s | -58.5°C | 6.0% | 102.2hPa | 2.6V | 00:00:00 | 02:15:05 | 00:00:00 | |
| DO3MHA-11 | 2026-08-31 05:42:45 | 48.13694 | 12.19359 | 86° | 29km/h | 16471m | -9.4m/s | -58.4°C | 6.1% | 102.0hPa | 2.6V | 00:00:00 | 02:15:04 | 00:00:00 | |
| OE5WHR-10 | 2026-08-31 05:42:43 | 48.13690 | 12.19347 | 54° | 53km/h | 16489m | -8.9m/s | -58.1°C | 6.0% | 101.8hPa | 2.5V | 00:00:00 | 00:00:00 | 00:00:00 | |
| DO3MHA-12 | 2026-08-31 05:42:42 | 48.13687 | 12.19342 | 43° | 40km/h | 16498m | -8.8m/s | -58.1°C | 6.0% | 101.6hPa | 2.5V | 00:00:00 | 02:15:01 | 00:00:00 | |
| BAUMI2-15 | 2026-08-31 05:42:41 | 48.13682 | 12.19336 | 37° | 35km/h | 16507m | -8.8m/s | -58.1°C | 5.9% | 101.4hPa | 2.5V | 01:25:00 | 02:15:00 | 00:00:00 | |
| OE5MMP-10 | 2026-08-31 05:42:38 | 48.13662 | 12.19315 | 33° | 57km/h | 16534m | -9.2m/s | -58.1°C | 5.8% | 101.0hPa | 2.5V | 01:25:00 | 02:14:57 | 00:00:00 | |
| DM0DOS-11 | 2026-08-31 05:42:36 | 48.13614 | 12.19259 | 43° | 58km/h | 16582m | -9.9m/s | -58°C | 5.7% | 100.2hPa | 2.5V | 01:25:54 | 02:14:52 | 00:00:00 | |
| BAUMI2-15 | 2026-08-31 05:42:36 | 48.13644 | 12.19297 | 37° | 55km/h | 16553m | -9.6m/s | -58.1°C | 5.8% | 100.7hPa | 2.6V | 00:00:00 | 02:14:55 | 00:00:00 | |
| DO3MHA-11 | 2026-08-31 05:42:35 | 48.13634 | 12.19286 | 38° | 66km/h | 16563m | -9.7m/s | -58.0°C | 5.8% | 100.6hPa | 2.6V | 01:25:00 | 02:14:54 | 00:00:00 | |
| NBG1-10 | 2026-08-31 05:42:34 | 48.13624 | 12.19273 | 41° | 62km/h | 16573m | -10.1m/s | -58.0°C | 5.8% | 100.4hPa | 2.6V | 00:00:00 | 02:14:53 | 00:00:00 | |
| DF3TZ-5 | 2026-08-31 05:42:33 | 48.13613 | 12.19259 | 43° | 58km/h | 16582m | -9.9m/s | -58.0°C | 2.1% | 100.2hPa | 2.6V | 00:00:00 | 00:00:00 | 00:00:00 | |
| DO3MHA-12 | 2026-08-31 05:42:32 | 48.13603 | 12.19243 | 47° | 68km/h | 16592m | -9.7m/s | -57.9°C | 5.7% | 100.0hPa | 2.6V | 01:25:00 | 02:14:51 | 00:00:00 | |
| BAUMI2-15 | 2026-08-31 05:42:31 | 48.13592 | 12.19225 | 52° | 71km/h | 16602m | -9.9m/s | -57.8°C | 5.8% | 99.9hPa | 2.6V | 01:25:00 | 02:14:50 | 00:00:00 | |
| OE5DXL-15 | 2026-08-31 05:42:29 | 48.13572 | 12.19182 | 60° | 62km/h | 16621m | -9.3m/s | -57.6°C | 5.7% | 99.6hPa | 2.6V | 00:00:00 | 00:00:00 | 00:00:00 | |
| OE5MMP-10 | 2026-08-31 05:42:28 | 48.13564 | 12.19157 | 64° | 60km/h | 16631m | -9.7m/s | -57.5°C | 5.8% | 99.5hPa | 2.6V | 00:00:00 | 02:14:47 | 00:00:00 | |
| DM0DOS-11 | 2026-08-31 05:42:26 | 48.13539 | 12.19033 | 82° | 60km/h | 16681m | -9.9m/s | -57.4°C | 5.6% | 98.7hPa | 2.6V | 01:26:04 | 02:14:42 | 00:00:00 | |
| BAUMI2-15 | 2026-08-31 05:42:26 | 48.13550 | 12.19106 | 73° | 64km/h | 16651m | -10.2m/s | -57.3°C | 5.6% | 99.1hPa | 2.6V | 00:00:00 | 02:14:45 | 00:00:00 | |
| DO3MHA-11 | 2026-08-31 05:42:25 | 48.13545 | 12.19081 | 76° | 49km/h | 16661m | -10.1m/s | -57.3°C | 5.6% | 98.9hPa | 2.6V | 00:00:00 | 02:14:44 | 00:00:00 | |
| OE5WHR-10 | 2026-08-31 05:42:22 | 48.13537 | 12.19011 | 85° | 60km/h | 16691m | -10.0m/s | -57.4°C | 5.6% | 98.5hPa | 2.6V | 01:26:00 | 02:14:41 | 00:00:00 | |
| BAUMI2-15 | 2026-08-31 05:42:21 | 48.13536 | 12.18992 | 85° | 40km/h | 16701m | -9.9m/s | -57.3°C | 5.7% | 98.3hPa | 2.6V | 01:26:00 | 02:14:40 | 00:00:00 | |
| OE5MMP-10 | 2026-08-31 05:42:18 | 48.13530 | 12.18947 | 68° | 55km/h | 16730m | -9.8m/s | -56.9°C | 5.5% | 97.9hPa | 2.6V | 01:26:00 | 02:14:37 | 00:00:00 | |
| OE5REO-15 | 2026-08-31 05:42:17 | 48.13530 | 12.18947 | 68° | 37km/h | 16730m | -9.8m/s | -56.9°C | 1.9% | 97.9hPa | 2.6V | 01:26:00 | 00:00:00 | 00:00:00 | |
| DM0DOS-11 | 2026-08-31 05:42:16 | 48.13486 | 12.18864 | 50° | 62km/h | 16789m | -9.4m/s | -56.5°C | 5.2% | 97hPa | 2.6V | 01:26:15 | 02:14:31 | 00:00:00 | |
| BAUMI2-15 | 2026-08-31 05:42:16 | 48.13520 | 12.18923 | 53° | 51km/h | 16750m | -10.0m/s | -56.6°C | 5.5% | 97.6hPa | 2.7V | 00:00:00 | 02:14:35 | 00:00:00 | |
| DK5PH-5 | 2026-08-31 05:42:15 | 48.13513 | 12.18910 | 49° | 57km/h | 16760m | -9.9m/s | -56.5°C | 5.4% | 97.5hPa | 2.6V | 00:00:00 | 02:14:34 | 00:00:00 | |
| DB0NH | 2026-08-31 05:42:12 | 48.13486 | 12.18864 | 51° | 57km/h | 16789m | -9.3m/s | -56.5°C | 5.2% | 97.0hPa | 2.6V | 00:00:00 | 02:14:31 | 00:00:00 | |
| BAUMI2-15 | 2026-08-31 05:42:11 | 48.13476 | 12.18845 | 55° | 73km/h | 16798m | -9.1m/s | -56.5°C | 5.2% | 96.9hPa | 2.6V | 01:26:00 | 02:14:30 | 00:00:00 | |
| OE5DRO-10 | 2026-08-31 05:42:10 | 48.13467 | 12.18823 | 59° | 64km/h | 16808m | -9.3m/s | -56.5°C | 5.2% | 96.7hPa | 2.6V | 00:00:00 | 00:00:00 | 00:00:00 | |
| OE5MMP-10 | 2026-08-31 05:42:08 | 48.13449 | 12.18775 | 67° | 75km/h | 16826m | -9.3m/s | -56.3°C | 5.3% | 96.4hPa | 2.7V | 00:00:00 | 02:14:27 | 00:00:00 | |
| DM0DOS-11 | 2026-08-31 05:42:06 | 48.13424 | 12.18606 | 88° | 75km/h | 16885m | -10.1m/s | -55.9°C | 5.5% | 95.6hPa | 2.7V | 01:26:25 | 02:14:21 | 00:00:00 | |
| DF7PN | 2026-08-31 05:42:06 | 48.13432 | 12.18692 | 77° | 77km/h | 16855m | -9.8m/s | -56.2°C | 1.9% | 96.0hPa | 2.6V | 00:00:00 | 00:00:00 | 00:00:00 | |
| DO3MHA-11 | 2026-08-31 05:42:05 | 48.13432 | 12.18692 | 78° | 68km/h | 16855m | -9.7m/s | -56.1°C | 5.5% | 96.0hPa | 2.6V | 00:00:00 | 02:14:24 | 00:00:00 | |
| DO3MHA-12 | 2026-08-31 05:42:02 | 48.13424 | 12.18606 | 89° | 58km/h | 16885m | -10.0m/s | -55.9°C | 5.5% | 95.5hPa | 2.6V | 00:00:00 | 02:14:21 | 00:00:00 | |
| OE5WHR-10 | 2026-08-31 05:42:01 | 48.13424 | 12.18578 | 92° | 47km/h | 16895m | -9.7m/s | -55.8°C | 5.4% | 95.4hPa | 2.6V | 00:00:00 | 00:00:00 | 00:00:00 | |
| OE5DXL-15 | 2026-08-31 05:41:59 | 48.13427 | 12.18526 | 100° | 44km/h | 16914m | -9.3m/s | -55.5°C | 5.3% | 95.2hPa | 2.6V | 01:26:00 | 00:00:00 | 00:00:00 | |
| OE5MMP-10 | 2026-08-31 05:41:58 | 48.13430 | 12.18503 | 103° | 44km/h | 16923m | -9.1m/s | -55.4°C | 5.2% | 95.0hPa | 2.6V | 01:26:00 | 02:14:17 | 00:00:00 | |
| DM0DOS-11 | 2026-08-31 05:41:56 | 48.13451 | 12.18398 | 102° | 38km/h | 16983m | -10.3m/s | -54.8°C | 4.9% | 94.1hPa | 2.6V | 01:26:35 | 02:14:11 | 00:00:00 | |
| BAUMI2-15 | 2026-08-31 05:41:56 | 48.13438 | 12.18462 | 108° | 44km/h | 16942m | -9.5m/s | -54.9°C | 4.9% | 94.7hPa | 2.6V | 00:00:00 | 02:14:15 | 00:00:00 | |
| DO3MHA-11 | 2026-08-31 05:41:55 | 48.13442 | 12.18444 | 108° | 37km/h | 16952m | -10.1m/s | -54.9°C | 4.9% | 94.5hPa | 2.6V | 01:26:00 | 02:14:14 | 00:00:00 | |
| DO3MHA-12 | 2026-08-31 05:41:52 | 48.13451 | 12.18398 | 103° | 38km/h | 16983m | -10.3m/s | -54.7°C | 4.9% | 94.1hPa | 2.6V | 01:26:00 | 02:14:11 | 00:00:00 | |
| BAUMI2-15 | 2026-08-31 05:41:51 | 48.13452 | 12.18384 | 98° | 31km/h | 16993m | -10.3m/s | -54.6°C | 4.9% | 93.9hPa | 2.7V | 01:26:00 | 02:14:10 | 00:00:00 | |
| OE5MMP-10 | 2026-08-31 05:41:48 | 48.13451 | 12.18350 | 71° | 47km/h | 17024m | -10.1m/s | -54.2°C | 4.8% | 93.5hPa | 2.7V | 00:00:00 | 02:14:07 | 00:00:00 | |
| DM0DOS-11 | 2026-08-31 05:41:46 | 48.13422 | 12.18262 | 72° | 57km/h | 17083m | -9.8m/s | -53.7°C | 4.5% | 92.7hPa | 2.7V | 01:26:45 | 02:14:01 | 00:00:00 | |
| BAUMI2-15 | 2026-08-31 05:41:46 | 48.13443 | 12.18327 | 60° | 46km/h | 17044m | -9.8m/s | -54.0°C | 4.7% | 93.1hPa | 2.6V | 00:00:00 | 02:14:05 | 00:00:00 | |
| DO3MHA-11 | 2026-08-31 05:41:45 | 48.13438 | 12.18314 | 61° | 53km/h | 17054m | -9.5m/s | -53.9°C | 4.7% | 93.0hPa | 2.5V | 00:00:00 | 02:14:04 | 00:00:00 | |
| DL1ZP-14 | 2026-08-31 05:41:44 | 48.13427 | 12.18282 | 66° | 53km/h | 17073m | -9.7m/s | -53.8°C | 1.5% | 92.8hPa | 2.6V | 00:00:00 | 00:00:00 | 00:00:00 | |
| DO3MHA-12 | 2026-08-31 05:41:42 | 48.13422 | 12.18262 | 73° | 51km/h | 17083m | -9.8m/s | -53.7°C | 4.5% | 92.6hPa | 2.7V | 00:00:00 | 02:14:01 | 00:00:00 | |
| OE5GOL-10 | 2026-08-31 05:41:41 | 48.13419 | 12.18241 | 79° | 38km/h | 17093m | -9.7m/s | 0°C | 0% | 0hPa | 2.7V | 00:00:00 | 02:14:00 | 00:00:00 | |
| OE5WHR-10 | 2026-08-31 05:41:40 | 48.13416 | 12.18219 | 85° | 33km/h | 17103m | -9.5m/s | -53.5°C | 4.4% | 92.4hPa | 2.7V | 01:26:00 | 00:00:00 | 00:00:00 | |
| OE5MMP-10 | 2026-08-31 05:41:38 | 48.13416 | 12.18176 | 97° | 35km/h | 17122m | -9.6m/s | -53.4°C | 4.3% | 92.1hPa | 2.7V | 01:26:00 | 02:13:57 | 00:00:00 | |
| DM0DOS-11 | 2026-08-31 05:41:36 | 48.13440 | 12.18084 | 124° | 27km/h | 17180m | -9.7m/s | -53.5°C | 4.3% | 91.3hPa | 2.7V | 01:26:55 | 02:13:51 | 00:00:00 | |
| DB0UT-7 | 2026-08-31 05:41:36 | 48.13422 | 12.18137 | 108° | 35km/h | 17142m | -9.6m/s | -53.5°C | 4.3% | 91.8hPa | 2.7V | 00:00:00 | 00:00:00 | 00:00:00 | |
| DO3MHA-11 | 2026-08-31 05:41:35 | 48.13426 | 12.18120 | 113° | 24km/h | 17152m | -9.6m/s | -53.5°C | 4.3% | 91.6hPa | 2.7V | 01:26:00 | 02:13:54 | 00:00:00 | |
| DF7PN | 2026-08-31 05:41:34 | 48.13431 | 12.18106 | 117° | 38km/h | 17161m | -9.6m/s | -53.5°C | 1.4% | 91.5hPa | 2.7V | 00:00:00 | 00:00:00 | 00:00:00 | |
| DO3MHA-12 | 2026-08-31 05:41:32 | 48.13440 | 12.18084 | 125° | 18km/h | 17181m | -9.6m/s | -53.5°C | 4.3% | 91.2hPa | 2.7V | 01:26:00 | 02:13:51 | 00:00:00 | |
| BAUMI2-15 | 2026-08-31 05:41:31 | 48.13443 | 12.18077 | 127° | 15km/h | 17190m | -9.6m/s | -53.4°C | 4.3% | 91.1hPa | 2.7V | 01:26:00 | 02:13:50 | 00:00:00 | |
| DL6DJ-15 | 2026-08-31 05:41:30 | 48.13446 | 12.18071 | 124° | 15km/h | 17200m | -9.7m/s | -53.5°C | 1.5% | 91.0hPa | 2.6V | 00:00:00 | 00:00:00 | 00:00:00 | |
| OE5DXL-15 | 2026-08-31 05:41:29 | 48.13448 | 12.18066 | 114° | 31km/h | 17210m | -9.5m/s | -53.5°C | 4.4% | 90.8hPa | 2.6V | 00:00:00 | 00:00:00 | 00:00:00 | |
| NBG1-10 | 2026-08-31 05:41:28 | 48.13448 | 12.18062 | 87° | 33km/h | 17219m | -9.9m/s | -53.5°C | 4.4% | 90.7hPa | 2.6V | 00:00:00 | 02:13:47 | 00:00:00 | |
| DM0DOS-11 | 2026-08-31 05:41:26 | 48.13424 | 12.18034 | 38° | 37km/h | 17278m | -9.8m/s | -53.9°C | 4.4% | 89.9hPa | 2.6V | 01:27:05 | 02:13:41 | 00:00:00 | |
| BAUMI2-15 | 2026-08-31 05:41:26 | 48.13445 | 12.18056 | 36° | 26km/h | 17239m | -9.8m/s | -53.6°C | 4.4% | 90.3hPa | 2.6V | 00:00:00 | 02:13:45 | 00:00:00 | |
| DO3MHA-11 | 2026-08-31 05:41:25 | 48.13442 | 12.18053 | 33° | 40km/h | 17249m | -9.7m/s | -53.6°C | 4.4% | 90.2hPa | 2.6V | 00:00:00 | 02:13:44 | 00:00:00 | |
| DO3MHA-12 | 2026-08-31 05:41:22 | 48.13423 | 12.18034 | 39° | 47km/h | 17279m | -9.8m/s | -53.8°C | 4.4% | 89.9hPa | 2.6V | 00:00:00 | 02:13:41 | 00:00:00 | |
| BAUMI2-15 | 2026-08-31 05:41:21 | 48.13416 | 12.18024 | 44° | 47km/h | 17288m | -9.8m/s | -53.9°C | 4.5% | 89.7hPa | 2.7V | 01:27:00 | 02:13:40 | 00:00:00 | |
| OE5WHR-10 | 2026-08-31 05:41:19 | 48.13401 | 12.17998 | 55° | 35km/h | 17308m | -10.1m/s | -54.0°C | 4.6% | 89.4hPa | 2.7V | 00:00:00 | 02:13:38 | 00:00:00 | |
| OE5MMP-10 | 2026-08-31 05:41:18 | 48.13394 | 12.17982 | 61° | 46km/h | 17318m | -10.2m/s | -54.1°C | 4.7% | 89.3hPa | 2.7V | 01:27:00 | 02:13:37 | 00:00:00 | |
| DM0DOS-11 | 2026-08-31 05:41:16 | 48.13380 | 12.17870 | 96° | 46km/h | 17379m | -10.3m/s | -54.3°C | 4.7% | 88.5hPa | 2.7V | 01:27:15 | 02:13:31 | 00:00:00 | |
| BAUMI2-15 | 2026-08-31 05:41:16 | 48.13384 | 12.17946 | 74° | 51km/h | 17338m | -10.1m/s | -54.1°C | 4.7% | 89.0hPa | 2.6V | 00:00:00 | 02:13:35 | 00:00:00 | |
| DO3MHA-11 | 2026-08-31 05:41:15 | 48.13381 | 12.17926 | 81° | 37km/h | 17348m | -10.1m/s | -54.2°C | 4.8% | 88.9hPa | 2.6V | 01:27:00 | 02:13:34 | 00:00:00 | |
| OE5REO-15 | 2026-08-31 05:41:14 | 48.13381 | 12.17926 | 81° | 53km/h | 17348m | -10.2m/s | -54.2°C | 1.7% | 88.9hPa | 2.7V | 01:27:00 | 00:00:00 | 00:00:00 | |
| DL1ZP-14 | 2026-08-31 05:41:13 | 48.13380 | 12.17870 | 96° | 44km/h | 17379m | -10.3m/s | -54.3°C | 1.6% | 88.5hPa | 2.7V | 00:00:00 | 00:00:00 | 00:00:00 | |
| DO3MHA-12 | 2026-08-31 05:41:12 | 48.13380 | 12.17870 | 97° | 26km/h | 17379m | -10.2m/s | -54.3°C | 4.7% | 88.4hPa | 2.7V | 01:27:00 | 02:13:31 | 00:00:00 | |
| OE5GOL-10 | 2026-08-31 05:41:11 | 48.13382 | 12.17854 | 102° | 35km/h | 17389m | -10.3m/s | 0°C | 0% | 0hPa | 2.7V | 01:27:00 | 02:13:30 | 00:00:00 | |
| OE5MMP-10 | 2026-08-31 05:41:08 | 48.13389 | 12.17817 | 110° | 20km/h | 17420m | -10.0m/s | -54.0°C | 4.5% | 87.9hPa | 2.7V | 00:00:00 | 02:13:27 | 00:00:00 | |
| DM0DOS-11 | 2026-08-31 05:41:06 | 48.13386 | 12.17789 | 24° | 18km/h | 17482m | -10.4m/s | -53.9°C | 4.5% | 87.1hPa | 2.7V | 01:27:25 | 02:13:21 | 00:00:00 | |
| DB0UT-7 | 2026-08-31 05:41:06 | 48.13392 | 12.17802 | 104° | 26km/h | 17440m | -10.2m/s | -53.8°C | 4.4% | 87.6hPa | 2.6V | 01:27:00 | 02:13:25 | 00:00:00 | |
| DO3MHA-11 | 2026-08-31 05:41:05 | 48.13392 | 12.17798 | 84° | 27km/h | 17450m | -10.2m/s | -53.8°C | 4.5% | 87.5hPa | 2.6V | 00:00:00 | 02:13:24 | 00:00:00 | |
| DF7PN | 2026-08-31 05:41:03 | 48.13390 | 12.17791 | 33° | 13km/h | 17471m | -10.7m/s | -53.8°C | 1.5% | 87.2hPa | 2.6V | 00:00:00 | 00:00:00 | 00:00:00 | |
| DO3MHA-12 | 2026-08-31 05:41:02 | 48.13386 | 12.17788 | 25° | 38km/h | 17482m | -10.3m/s | -53.9°C | 4.5% | 87.0hPa | 2.6V | 00:00:00 | 02:13:21 | 00:00:00 | |
| DF3TZ-5 | 2026-08-31 05:41:00 | 48.13375 | 12.17781 | 26° | 27km/h | 17503m | -10.0m/s | -54.1°C | 1.5% | 86.7hPa | 2.6V | 00:00:00 | 00:00:00 | 00:00:00 | |
| OE5DXL-15 | 2026-08-31 05:40:59 | 48.13368 | 12.17775 | 31° | 31km/h | 17513m | -9.9m/s | -54.1°C | 4.5% | 86.6hPa | 2.6V | 01:27:00 | 00:00:00 | 00:00:00 | |
| OE5MMP-10 | 2026-08-31 05:40:58 | 48.13360 | 12.17767 | 36° | 42km/h | 17522m | -9.6m/s | -54.2°C | 4.6% | 86.4hPa | 2.6V | 01:27:00 | 02:13:17 | 00:00:00 | |
| DM0DOS-11 | 2026-08-31 05:40:56 | 48.13324 | 12.17668 | 89° | 37km/h | 17592m | -10m/s | -54.5°C | 4.5% | 85.5hPa | 2.6V | 01:27:36 | 02:13:10 | 00:00:00 | |
| BAUMI2-15 | 2026-08-31 05:40:56 | 48.13344 | 12.17745 | 50° | 47km/h | 17542m | -9.7m/s | -54.3°C | 4.5% | 86.2hPa | 2.6V | 00:00:00 | 02:13:15 | 00:00:00 | |
| DO3MHA-11 | 2026-08-31 05:40:55 | 48.13337 | 12.17730 | 58° | 33km/h | 17552m | -10.0m/s | -54.4°C | 4.5% | 86.1hPa | 2.6V | 01:27:00 | 02:13:14 | 00:00:00 | |
| OE5DRO-10 | 2026-08-31 05:40:54 | 48.13331 | 12.17715 | 67° | 24km/h | 17562m | -10.0m/s | -54.4°C | 4.5% | 86.0hPa | 2.6V | 00:00:00 | 00:00:00 | 00:00:00 | |
| DO3MHA-12 | 2026-08-31 05:40:52 | 48.13325 | 12.17682 | 82° | 22km/h | 17582m | -10.0m/s | -54.4°C | 4.5% | 85.7hPa | 2.6V | 01:27:00 | 02:13:11 | 00:00:00 | |
| OE5MMP-10 | 2026-08-31 05:40:48 | 48.13328 | 12.17634 | 117° | 15km/h | 17623m | -9.6m/s | -54.3°C | 4.4% | 85.1hPa | 2.7V | 00:00:00 | 02:13:07 | 00:00:00 | |
| DM0DOS-11 | 2026-08-31 05:40:46 | 48.13338 | 12.17626 | 304° | 13km/h | 17692m | -10.1m/s | -54.8°C | 4.8% | 84.3hPa | 2.6V | 01:27:46 | 02:13:00 | 00:00:00 | |
| DO3MHA-11 | 2026-08-31 05:40:45 | 48.13336 | 12.17620 | 154° | 18km/h | 17652m | -9.6m/s | -54.6°C | 4.5% | 84.8hPa | 2.6V | 00:00:00 | 02:13:04 | 00:00:00 | |
| DL1ZP-14 | 2026-08-31 05:40:42 | 48.13338 | 12.17626 | 304° | 11km/h | 17692m | -10.1m/s | -54.8°C | 1.6% | 84.3hPa | 2.6V | 00:00:00 | 00:00:00 | 00:00:00 | |
| PG1ADW-2 | 2026-08-31 05:40:41 | 48.13338 | 12.17626 | 305° | 33km/h | 17692m | -10.1m/s | -54.8°C | 4.8% | 84.2hPa | 2.7V | 01:27:00 | 00:00:00 | 00:00:00 | |
| DK5PH-5 | 2026-08-31 05:40:39 | 48.13331 | 12.17635 | 328° | 29km/h | 17713m | -10.3m/s | -54.8°C | 4.8% | 83.9hPa | 2.7V | 00:00:00 | 02:12:58 | 00:00:00 | |
| OE5MMP-10 | 2026-08-31 05:40:38 | 48.13326 | 12.17639 | 337° | 38km/h | 17724m | -9.9m/s | -54.9°C | 4.8% | 83.8hPa | 2.7V | 01:27:00 | 02:12:57 | 00:00:00 | |
| DM0DOS-11 | 2026-08-31 05:40:37 | 48.13262 | 12.17628 | 30° | 42km/h | 17795m | -10.7m/s | -55.5°C | 5% | 82.9hPa | 2.7V | 01:27:56 | 02:12:50 | 00:00:00 | |
| OE5WHR-10 | 2026-08-31 05:40:37 | 48.13319 | 12.17643 | 346° | 29km/h | 17734m | -9.8m/s | -55.0°C | 4.8% | 83.7hPa | 2.6V | 00:00:00 | 00:00:00 | 00:00:00 | |
| DB0UT-7 | 2026-08-31 05:40:36 | 48.13311 | 12.17645 | 354° | 31km/h | 17744m | -9.7m/s | -55.0°C | 4.7% | 83.5hPa | 2.6V | 00:00:00 | 00:00:00 | 00:00:00 | |
| DG1MFX-10 | 2026-08-31 05:40:35 | 48.13302 | 12.17645 | 3° | 38km/h | 17754m | -10.3m/s | -55.2°C | 1.7% | 83.5hPa | 2.7V | 01:28:00 | 00:00:00 | 00:00:00 | |
| EDDB2-11 | 2026-08-31 05:40:32 | 48.13262 | 12.17628 | 30° | 42km/h | 17795m | -10.7m/s | -55.6°C | 1.7% | 82.9hPa | 2.7V | 00:00:00 | 00:00:00 | 00:00:00 | |
| OE5DXL-15 | 2026-08-31 05:40:29 | 48.13246 | 12.17609 | 45° | 33km/h | 17816m | -10.1m/s | -55.6°C | 5.2% | 82.5hPa | 2.7V | 00:00:00 | 00:00:00 | 00:00:00 | |
| DL6DJ-15 | 2026-08-31 05:40:28 | 48.13234 | 12.17586 | 61° | 37km/h | 17837m | -10.0m/s | -55.5°C | 1.8% | 82.4hPa | 2.7V | 00:00:00 | 00:00:00 | 00:00:00 | |
| DM0DOS-11 | 2026-08-31 05:40:26 | 48.13228 | 12.17522 | 110° | 16km/h | 17901m | -10.9m/s | -54.9°C | 4.7% | 81.5hPa | 2.7V | 01:28:06 | 02:12:40 | 00:00:00 | |
| DO3MHA-11 | 2026-08-31 05:40:25 | 48.13227 | 12.17560 | 78° | 16km/h | 17858m | -10.6m/s | -54.9°C | 4.8% | 82.1hPa | 2.6V | 00:00:00 | 02:12:44 | 00:00:00 | |
| DO3MHA-12 | 2026-08-31 05:40:22 | 48.13227 | 12.17529 | 102° | 15km/h | 17890m | -10.7m/s | -54.8°C | 4.7% | 81.6hPa | 2.6V | 00:00:00 | 02:12:41 | 00:00:00 | |
| PG1ADW-2 | 2026-08-31 05:40:21 | 48.13228 | 12.17522 | 111° | 31km/h | 17901m | -10.8m/s | -54.9°C | 4.7% | 81.5hPa | 2.6V | 00:00:00 | 00:00:00 | 00:00:00 | |
| OE5MMP-10 | 2026-08-31 05:40:18 | 48.13231 | 12.17514 | 249° | 24km/h | 17933m | -10.2m/s | -55.0°C | 4.8% | 81.1hPa | 2.6V | 01:28:00 | 02:12:37 | 00:00:00 | |
| DM0DOS-11 | 2026-08-31 05:40:16 | 48.13198 | 12.17520 | 12° | 37km/h | 18006m | -10.6m/s | -54.8°C | 4.6% | 80.2hPa | 2.7V | 01:28:16 | 02:12:30 | 00:00:00 | |
| OE5WHR-10 | 2026-08-31 05:40:16 | 48.13229 | 12.17517 | 330° | 35km/h | 17954m | -10.3m/s | -55.0°C | 4.8% | 80.8hPa | 2.6V | 01:28:00 | 02:12:35 | 00:00:00 | |
| DO3MHA-11 | 2026-08-31 05:40:15 | 48.13225 | 12.17519 | 340° | 38km/h | 17964m | -10.2m/s | -54.9°C | 4.8% | 80.7hPa | 2.6V | 01:28:00 | 02:12:34 | 00:00:00 | |
| DG1MFX-10 | 2026-08-31 05:40:14 | 48.13225 | 12.17519 | 341° | 18km/h | 17964m | -10.2m/s | -54.9°C | 1.7% | 80.7hPa | 2.6V | 01:29:00 | 00:00:00 | 00:00:00 | |
| DO3MHA-12 | 2026-08-31 05:40:12 | 48.13206 | 12.17522 | 5° | 46km/h | 17995m | -10.5m/s | -54.8°C | 4.6% | 80.3hPa | 2.6V | 01:28:00 | 02:12:31 | 00:00:00 | |
| DL1ZP-14 | 2026-08-31 05:40:11 | 48.13188 | 12.17516 | 19° | 40km/h | 18016m | -10.5m/s | -54.8°C | 1.5% | 80.1hPa | 2.6V | 00:00:00 | 00:00:00 | 00:00:00 | |
| DK5PH-5 | 2026-08-31 05:40:09 | 48.13178 | 12.17510 | 25° | 37km/h | 18027m | -10.4m/s | -54.8°C | 4.5% | 79.9hPa | 2.6V | 01:28:00 | 02:12:28 | 00:00:00 | |
| OE5MMP-10 | 2026-08-31 05:40:08 | 48.13168 | 12.17502 | 32° | 46km/h | 18037m | -10.6m/s | -54.8°C | 4.6% | 79.8hPa | 2.6V | 00:00:00 | 02:12:27 | 00:00:00 | |
| DM0DOS-11 | 2026-08-31 05:40:06 | 48.13117 | 12.17400 | 76° | 42km/h | 18113m | -10.5m/s | -55.2°C | 4.7% | 78.8hPa | 2.6V | 01:28:26 | 02:12:20 | 00:00:00 | |
| DB0UT-7 | 2026-08-31 05:40:06 | 48.13148 | 12.17479 | 45° | 38km/h | 18059m | -11.0m/s | -54.9°C | 4.6% | 79.5hPa | 2.6V | 01:28:00 | 02:12:25 | 00:00:00 | |
| DO3MHA-11 | 2026-08-31 05:40:05 | 48.13139 | 12.17464 | 51° | 35km/h | 18070m | -10.9m/s | -54.9°C | 4.7% | 79.4hPa | 2.6V | 00:00:00 | 02:12:24 | 00:00:00 | |
| DO3MHA-12 | 2026-08-31 05:40:02 | 48.13120 | 12.17416 | 71° | 24km/h | 18103m | -10.6m/s | -55.1°C | 4.7% | 79.0hPa | 2.6V | 00:00:00 | 02:12:21 | 00:00:00 | |
| DF7PN | 2026-08-31 05:40:01 | 48.13117 | 12.17400 | 76° | 40km/h | 18113m | -10.5m/s | -55.2°C | 1.6% | 78.8hPa | 2.6V | 00:00:00 | 00:00:00 | 00:00:00 | |
| EDDB2-11 | 2026-08-31 05:40:00 | 48.13115 | 12.17386 | 82° | 35km/h | 18124m | -10.3m/s | -55.3°C | 1.5% | 78.8hPa | 2.6V | 00:00:00 | 00:00:00 | 00:00:00 | |
| DL6DJ-15 | 2026-08-31 05:39:57 | 48.13113 | 12.17352 | 69° | 11km/h | 18166m | -10.5m/s | -55.7°C | 1.5% | 78.2hPa | 2.6V | 00:00:00 | 00:00:00 | 00:00:00 | |
| DM0DOS-11 | 2026-08-31 05:39:56 | 48.13093 | 12.17347 | 0° | 31km/h | 18220m | -10.3m/s | -55.8°C | 4.9% | 77.6hPa | 2.6V | 01:28:36 | 02:12:10 | 00:00:00 | |
| DB0NH | 2026-08-31 05:39:56 | 48.13113 | 12.17352 | 70° | 24km/h | 18166m | -10.5m/s | -55.6°C | 4.7% | 78.2hPa | 2.6V | 00:00:00 | 02:12:15 | 00:00:00 | |
| DO3MHA-11 | 2026-08-31 05:39:55 | 48.13112 | 12.17349 | 34° | 31km/h | 18177m | -10.9m/s | -55.6°C | 4.8% | 78.1hPa | 2.6V | 01:28:00 | 02:12:14 | 00:00:00 | |
| DG1MFX-10 | 2026-08-31 05:39:53 | 48.13109 | 12.17347 | 9° | 13km/h | 18188m | -11.0m/s | -55.7°C | 1.7% | 78.0hPa | 2.6V | 01:29:00 | 00:00:00 | 00:00:00 | |
| DO3MHA-12 | 2026-08-31 05:39:52 | 48.13099 | 12.17347 | 359° | 42km/h | 18210m | -10.6m/s | -55.7°C | 5.0% | 77.6hPa | 2.6V | 01:28:00 | 02:12:11 | 00:00:00 | |
| NBG1-10 | 2026-08-31 05:39:49 | 48.13075 | 12.17345 | 12° | 37km/h | 18241m | -10.3m/s | -55.8°C | 4.8% | 77.3hPa | 2.7V | 01:28:00 | 02:12:08 | 00:00:00 | |
| OE5MMP-10 | 2026-08-31 05:39:48 | 48.13064 | 12.17341 | 18° | 47km/h | 18251m | -10.4m/s | -55.9°C | 4.8% | 77.1hPa | 2.7V | 00:00:00 | 02:12:07 | 00:00:00 | |
| DM0DOS-11 | 2026-08-31 05:39:46 | 48.13002 | 12.17256 | 66° | 47km/h | 18325m | -10.6m/s | -56°C | 4.9% | 76.3hPa | 2.7V | 01:28:46 | 02:12:00 | 00:00:00 | |
| DO3MHA-11 | 2026-08-31 05:39:45 | 48.13032 | 12.17315 | 39° | 44km/h | 18283m | -10.2m/s | -55.8°C | 4.8% | 76.8hPa | 2.6V | 00:00:00 | 02:12:04 | 00:00:00 | |
| DO3MHA-12 | 2026-08-31 05:39:42 | 48.13007 | 12.17272 | 60° | 37km/h | 18315m | -10.6m/s | -55.9°C | 4.9% | 76.4hPa | 2.6V | 00:00:00 | 02:12:01 | 00:00:00 | |
| PG1ADW-2 | 2026-08-31 05:39:41 | 48.13002 | 12.17256 | 67° | 26km/h | 18325m | -10.6m/s | -55.9°C | 4.9% | 76.3hPa | 2.6V | 00:00:00 | 00:00:00 | 00:00:00 | |
| DH7VM-15 | 2026-08-31 05:39:40 | 48.13002 | 12.17256 | 68° | 47km/h | 18325m | -10.6m/s | -56.0°C | 1.6% | 76.3hPa | 2.6V | 00:00:00 | 00:00:00 | 00:00:00 | |
| DL1ZP-14 | 2026-08-31 05:39:39 | 48.12996 | 12.17224 | 80° | 42km/h | 18347m | -10.4m/s | -56.0°C | 1.6% | 76.1hPa | 2.6V | 00:00:00 | 00:00:00 | 00:00:00 | |
| OE5MMP-10 | 2026-08-31 05:39:38 | 48.12994 | 12.17208 | 88° | 20km/h | 18357m | -10.8m/s | -56.0°C | 4.9% | 75.9hPa | 2.7V | 01:28:00 | 02:11:57 | 00:00:00 | |
| DM0DOS-11 | 2026-08-31 05:39:36 | 48.13009 | 12.17152 | 165° | 9km/h | 18432m | -10.6m/s | -56.4°C | 5% | 75hPa | 2.7V | 01:28:56 | 02:11:50 | 00:00:00 | |
| DB0UT-7 | 2026-08-31 05:39:36 | 48.12996 | 12.17182 | 104° | 31km/h | 18379m | -10.7m/s | -56.2°C | 4.9% | 75.6hPa | 2.6V | 00:00:00 | 00:00:00 | 00:00:00 | |
| DO3MHA-11 | 2026-08-31 05:39:35 | 48.12998 | 12.17171 | 112° | 15km/h | 18389m | -10.8m/s | -56.2°C | 4.9% | 75.5hPa | 2.6V | 01:28:00 | 02:11:54 | 00:00:00 | |
| OE5WHR-10 | 2026-08-31 05:39:34 | 48.13001 | 12.17163 | 121° | 29km/h | 18400m | -10.6m/s | -56.3°C | 4.9% | 75.3hPa | 2.6V | 01:28:00 | 00:00:00 | 00:00:00 | |
| DO3MHA-12 | 2026-08-31 05:39:32 | 48.13006 | 12.17153 | 148° | 16km/h | 18422m | -10.7m/s | -56.3°C | 5.0% | 75.1hPa | 2.6V | 01:28:00 | 02:11:51 | 00:00:00 | |
| DF7PN | 2026-08-31 05:39:30 | 48.13011 | 12.17152 | 207° | 4km/h | 18443m | -10.5m/s | -56.4°C | 1.7% | 74.9hPa | 2.6V | 00:00:00 | 00:00:00 | 00:00:00 | |
| OE5DXL-15 | 2026-08-31 05:39:29 | 48.13011 | 12.17153 | 272° | 29km/h | 18454m | -10.4m/s | -56.4°C | 5.2% | 74.7hPa | 2.6V | 00:00:00 | 00:00:00 | 00:00:00 | |
| OE5MMP-10 | 2026-08-31 05:39:28 | 48.13010 | 12.17156 | 302° | 29km/h | 18464m | -10.4m/s | -56.5°C | 5.3% | 74.6hPa | 2.6V | 00:00:00 | 02:11:47 | 00:00:00 | |
| DM0DOS-11 | 2026-08-31 05:39:26 | 48.12967 | 12.17169 | 9° | 42km/h | 18539m | -10.7m/s | -56.5°C | 5.1% | 73.7hPa | 2.6V | 01:29:06 | 02:11:40 | 00:00:00 | |
| DL6DJ-15 | 2026-08-31 05:39:26 | 48.13000 | 12.17167 | 339° | 24km/h | 18496m | -11.0m/s | -56.5°C | 1.7% | 74.3hPa | 2.7V | 00:00:00 | 00:00:00 | 00:00:00 | |
| DO3MHA-11 | 2026-08-31 05:39:25 | 48.12999 | 12.17167 | 340° | 40km/h | 18496m | -10.9m/s | -56.5°C | 5.2% | 74.3hPa | 2.7V | 00:00:00 | 02:11:44 | 00:00:00 | |
| DO3MHA-12 | 2026-08-31 05:39:22 | 48.12976 | 12.17171 | 4° | 44km/h | 18529m | -10.5m/s | -56.5°C | 5.0% | 73.8hPa | 2.7V | 00:00:00 | 02:11:41 | 00:00:00 | |
| PG1ADW-2 | 2026-08-31 05:39:21 | 48.12967 | 12.17169 | 10° | 35km/h | 18540m | -10.7m/s | -56.5°C | 5.1% | 73.7hPa | 2.6V | 01:29:00 | 00:00:00 | 00:00:00 | |
| OE5DRO-10 | 2026-08-31 05:39:19 | 48.12945 | 12.17160 | 22° | 33km/h | 18562m | -11.2m/s | -56.4°C | 5.1% | 73.4hPa | 2.6V | 01:29:00 | 00:00:00 | 00:00:00 | |
| OE5MMP-10 | 2026-08-31 05:39:18 | 48.12934 | 12.17153 | 28° | 42km/h | 18573m | -11.0m/s | -56.3°C | 5.1% | 73.3hPa | 2.7V | 01:29:00 | 02:11:37 | 00:00:00 | |
| NBG1-10 | 2026-08-31 05:39:16 | 48.12915 | 12.17133 | 41° | 35km/h | 18595m | -10.5m/s | -56.4°C | 5.3% | 73.0hPa | 2.6V | 00:00:00 | 02:11:35 | 00:00:00 | |
| DO3MHA-11 | 2026-08-31 05:39:15 | 48.12906 | 12.17121 | 48° | 37km/h | 18606m | -10.3m/s | -56.5°C | 5.4% | 73.0hPa | 2.6V | 01:29:00 | 02:11:34 | 00:00:00 | |
| OE5WHR-10 | 2026-08-31 05:39:13 | 48.12893 | 12.17093 | 61° | 26km/h | 18626m | -10.2m/s | -56.5°C | 5.3% | 72.8hPa | 2.7V | 00:00:00 | 02:11:32 | 00:00:00 | |
| DO3MHA-12 | 2026-08-31 05:39:12 | 48.12888 | 12.17079 | 68° | 27km/h | 18636m | -10.3m/s | -56.5°C | 5.3% | 72.6hPa | 2.7V | 01:29:00 | 02:11:31 | 00:00:00 | |
| DG1MFX-10 | 2026-08-31 05:39:11 | 48.12888 | 12.17079 | 69° | 42km/h | 18636m | -10.4m/s | -56.5°C | 1.8% | 72.7hPa | 2.7V | 01:29:00 | 00:00:00 | 00:00:00 | |
| OE5MMP-10 | 2026-08-31 05:39:08 | 48.12882 | 12.17026 | 96° | 16km/h | 18680m | -11.3m/s | -56.0°C | 5.1% | 72.1hPa | 2.7V | 00:00:00 | 02:11:27 | 00:00:00 | |
| DB0UT-7 | 2026-08-31 05:39:06 | 48.12885 | 12.17008 | 116° | 31km/h | 18703m | -11.1m/s | -55.7°C | 5.0% | 71.8hPa | 2.7V | 01:29:00 | 02:11:25 | 00:00:00 | |
| DO3MHA-11 | 2026-08-31 05:39:05 | 48.12888 | 12.17001 | 127° | 16km/h | 18714m | -10.9m/s | -55.7°C | 5.0% | 71.7hPa | 2.6V | 00:00:00 | 02:11:24 | 00:00:00 | |
| SONDE2-11 | 2026-08-31 05:39:04 | 48.12891 | 12.16996 | 142° | 15km/h | 18725m | -11.1m/s | -55.8°C | 1.6% | 71.6hPa | 2.6V | 00:00:00 | 00:00:00 | 00:00:00 | |
| DO3MHA-12 | 2026-08-31 05:39:02 | 48.12896 | 12.16994 | 202° | 24km/h | 18747m | -10.9m/s | -55.8°C | 5.0% | 71.3hPa | 2.6V | 00:00:00 | 02:11:21 | 00:00:00 | |
| DF7PN | 2026-08-31 05:38:59 | 48.12898 | 12.17005 | 294° | 15km/h | 18779m | -10.9m/s | -55.8°C | 1.6% | 71.0hPa | 2.6V | 00:00:00 | 00:00:00 | 00:00:00 | |
| EDDB2-11 | 2026-08-31 05:38:58 | 48.12895 | 12.17011 | 308° | 18km/h | 18790m | -11.2m/s | -55.7°C | 1.6% | 70.9hPa | 2.6V | 00:00:00 | 00:00:00 | 00:00:00 | |
| DF3TZ-5 | 2026-08-31 05:38:56 | 48.12879 | 12.17026 | 344° | 31km/h | 18824m | -11.4m/s | -55.2°C | 1.5% | 70.5hPa | 2.6V | 00:00:00 | 00:00:00 | 00:00:00 | |
| DL6DJ-15 | 2026-08-31 05:38:55 | 48.12870 | 12.17028 | 353° | 37km/h | 18835m | -11.0m/s | -55.2°C | 1.5% | 70.4hPa | 2.6V | 00:00:00 | 00:00:00 | 00:00:00 | |
| OE5WHR-10 | 2026-08-31 05:38:52 | 48.12849 | 12.17027 | 9° | 37km/h | 18858m | -11.1m/s | -55.2°C | 4.6% | 70.1hPa | 2.6V | 01:29:00 | 00:00:00 | 00:00:00 | |
| DG1MFX-10 | 2026-08-31 05:38:50 | 48.12838 | 12.17023 | 17° | 47km/h | 18869m | -11.1m/s | -55.3°C | 1.5% | 70.0hPa | 2.7V | 01:29:00 | 00:00:00 | 00:00:00 | |
| OE5MMP-10 | 2026-08-31 05:38:48 | 48.12805 | 12.16998 | 38° | 42km/h | 18903m | -11.4m/s | -55.4°C | 4.7% | 69.6hPa | 2.7V | 00:00:00 | 02:11:07 | 00:00:00 | |
| DO3MHA-11 | 2026-08-31 05:38:45 | 48.12779 | 12.16955 | 59° | 31km/h | 18937m | -11.7m/s | -55.6°C | 4.8% | 69.2hPa | 2.6V | 00:00:00 | 02:11:04 | 00:00:00 | |
| NBG1-10 | 2026-08-31 05:38:43 | 48.12769 | 12.16923 | 73° | 35km/h | 18960m | -11.5m/s | -55.7°C | 4.8% | 69.0hPa | 2.7V | 01:29:00 | 02:11:02 | 00:00:00 | |
| DM0DOS-11 | 2026-08-31 05:38:42 | 48.12764 | 12.16857 | 76° | 13km/h | 19029m | -11.5m/s | -56.2°C | 4.9% | 68.3hPa | 2.7V | 01:29:50 | 02:10:56 | 00:00:00 | |
| DO3MHA-12 | 2026-08-31 05:38:42 | 48.12766 | 12.16907 | 78° | 24km/h | 18972m | -11.7m/s | -55.8°C | 4.9% | 68.9hPa | 2.7V | 00:00:00 | 02:11:01 | 00:00:00 | |
| OE5DRO-10 | 2026-08-31 05:38:41 | 48.12765 | 12.16893 | 85° | 37km/h | 18984m | -11.4m/s | -55.8°C | 4.8% | 68.7hPa | 2.7V | 01:29:00 | 00:00:00 | 00:00:00 | |
| OE5REO-15 | 2026-08-31 05:38:40 | 48.12765 | 12.16893 | 85° | 37km/h | 18984m | -11.5m/s | -55.9°C | 1.5% | 68.7hPa | 2.7V | 00:00:00 | 00:00:00 | 00:00:00 | |
| BAUMI2-15 | 2026-08-31 05:38:38 | 48.12764 | 12.16862 | 90° | 15km/h | 19018m | -11.3m/s | -56.0°C | 4.8% | 68.3hPa | 2.7V | 01:29:00 | 02:10:57 | 00:00:00 | |
| DL1ZP-14 | 2026-08-31 05:38:37 | 48.12764 | 12.16857 | 76° | 11km/h | 19029m | -11.5m/s | -56.2°C | 1.5% | 68.3hPa | 2.7V | 00:00:00 | 00:00:00 | 00:00:00 | |
| DB0UT-7 | 2026-08-31 05:38:36 | 48.12763 | 12.16853 | 44° | 38km/h | 19041m | -11.5m/s | -56.3°C | 5.0% | 68.1hPa | 2.6V | 00:00:00 | 00:00:00 | 00:00:00 | |
| DO3MHA-11 | 2026-08-31 05:38:35 | 48.12760 | 12.16851 | 17° | 40km/h | 19052m | -11.5m/s | -56.3°C | 5.1% | 68.0hPa | 2.6V | 01:29:00 | 02:10:54 | 00:00:00 | |
| BAUMI2-15 | 2026-08-31 05:38:33 | 48.12750 | 12.16848 | 8° | 40km/h | 19075m | -11.4m/s | -56.3°C | 5.2% | 67.7hPa | 2.6V | 00:00:00 | 02:10:52 | 00:00:00 | |
| DO3MHA-12 | 2026-08-31 05:38:32 | 48.12742 | 12.16847 | 11° | 51km/h | 19087m | -11.5m/s | -56.3°C | 5.2% | 67.6hPa | 2.6V | 01:29:00 | 02:10:51 | 00:00:00 | |
| OE5WHR-10 | 2026-08-31 05:38:31 | 48.12733 | 12.16843 | 17° | 38km/h | 19098m | -11.8m/s | -56.3°C | 5.1% | 67.5hPa | 2.6V | 00:00:00 | 00:00:00 | 00:00:00 | |
| DM0DOS-11 | 2026-08-31 05:38:30 | 48.12689 | 12.16805 | 44° | 57km/h | 19144m | -11.1m/s | -56.5°C | 5.1% | 67hPa | 2.6V | 01:30:00 | 02:10:46 | 00:00:00 | |
| OE5DXL-15 | 2026-08-31 05:38:29 | 48.12711 | 12.16829 | 30° | 35km/h | 19122m | -11.5m/s | -56.4°C | 5.1% | 67.2hPa | 2.6V | 00:00:00 | 00:00:00 | 00:00:00 | |
| BAUMI2-15 | 2026-08-31 05:38:28 | 48.12700 | 12.16818 | 38° | 57km/h | 19133m | -11.5m/s | -56.5°C | 5.1% | 67.1hPa | 2.6V | 01:29:00 | 02:10:47 | 00:00:00 | |
| EDDB2-11 | 2026-08-31 05:38:27 | 48.12689 | 12.16805 | 44° | 57km/h | 19144m | -11.1m/s | -56.5°C | 1.6% | 67.0hPa | 2.6V | 00:00:00 | 00:00:00 | 00:00:00 | |
| DB0NH | 2026-08-31 05:38:26 | 48.12679 | 12.16788 | 52° | 42km/h | 19156m | -11.4m/s | -56.4°C | 5.1% | 66.9hPa | 2.6V | 01:30:00 | 02:10:45 | 00:00:00 | |
| DO3MHA-11 | 2026-08-31 05:38:25 | 48.12671 | 12.16771 | 60° | 44km/h | 19168m | -11.7m/s | -56.3°C | 5.2% | 66.8hPa | 2.6V | 00:00:00 | 02:10:44 | 00:00:00 | |
| DH7VM-15 | 2026-08-31 05:38:24 | 48.12671 | 12.16771 | 61° | 57km/h | 19168m | -11.8m/s | -56.4°C | 1.6% | 66.8hPa | 2.6V | 00:00:00 | 00:00:00 | 00:00:00 | |
| BAUMI2-15 | 2026-08-31 05:38:23 | 48.12660 | 12.16732 | 76° | 47km/h | 19191m | -11.4m/s | -56.0°C | 5.0% | 66.5hPa | 2.6V | 00:00:00 | 02:10:42 | 00:00:00 | |
| DO3MHA-12 | 2026-08-31 05:38:22 | 48.12658 | 12.16713 | 82° | 33km/h | 19202m | -11.5m/s | -55.7°C | 4.9% | 66.4hPa | 2.6V | 00:00:00 | 02:10:41 | 00:00:00 | |
| PG1ADW-2 | 2026-08-31 05:38:21 | 48.12657 | 12.16695 | 90° | 27km/h | 19214m | -11.5m/s | -55.6°C | 4.8% | 66.3hPa | 2.6V | 00:00:00 | 00:00:00 | 00:00:00 | |
| DM0DOS-11 | 2026-08-31 05:38:20 | 48.12666 | 12.16637 | 122° | 31km/h | 19261m | -11.7m/s | -55.4°C | 4.6% | 65.8hPa | 2.6V | 01:30:10 | 02:10:36 | 00:00:00 | |
| OE5MMP-10 | 2026-08-31 05:38:18 | 48.12662 | 12.16648 | 113° | 18km/h | 19249m | -11.8m/s | -55.3°C | 4.7% | 65.9hPa | 2.6V | 01:30:00 | 02:10:37 | 00:00:00 | |
| DO3MHA-11 | 2026-08-31 05:38:15 | 48.12675 | 12.16623 | 144° | 16km/h | 19284m | -11.8m/s | -55.5°C | 4.7% | 65.5hPa | 2.7V | 01:30:00 | 02:10:34 | 00:00:00 | |
| BAUMI2-15 | 2026-08-31 05:38:13 | 48.12682 | 12.16618 | 186° | 11km/h | 19308m | -11.9m/s | -55.6°C | 4.8% | 65.3hPa | 2.7V | 00:00:00 | 02:10:32 | 00:00:00 | |
| DM0DOS-11 | 2026-08-31 05:38:12 | 48.12669 | 12.16628 | 7° | 27km/h | 19380m | -12m/s | -55.8°C | 5% | 64.6hPa | 2.6V | 01:30:20 | 02:10:26 | 00:00:00 | |
| NBG1-10 | 2026-08-31 05:38:10 | 48.12683 | 12.16624 | 320° | 29km/h | 19344m | -12.0m/s | -55.7°C | 5.0% | 64.9hPa | 2.6V | 00:00:00 | 02:10:29 | 00:00:00 | |
| DG1MFX-10 | 2026-08-31 05:38:09 | 48.12683 | 12.16624 | 320° | 11km/h | 19344m | -12.0m/s | -55.7°C | 1.6% | 65.0hPa | 2.6V | 01:30:00 | 00:00:00 | 00:00:00 | |
| OE5MMP-10 | 2026-08-31 05:38:08 | 48.12675 | 12.16628 | 356° | 35km/h | 19368m | -11.8m/s | -55.8°C | 5.0% | 64.7hPa | 2.6V | 00:00:00 | 02:10:27 | 00:00:00 | |
| DB0UT-7 | 2026-08-31 05:38:06 | 48.12662 | 12.16625 | 20° | 31km/h | 19392m | -12.0m/s | -55.7°C | 5.0% | 64.4hPa | 2.6V | 01:30:00 | 02:10:25 | 00:00:00 | |
| DO3MHA-11 | 2026-08-31 05:38:05 | 48.12655 | 12.16620 | 31° | 35km/h | 19404m | -12.2m/s | -55.7°C | 5.0% | 64.3hPa | 2.6V | 00:00:00 | 02:10:24 | 00:00:00 | |
| BAUMI2-15 | 2026-08-31 05:38:03 | 48.12641 | 12.16602 | 52° | 37km/h | 19429m | -12.2m/s | -55.6°C | 5.0% | 64.1hPa | 2.6V | 00:00:00 | 02:10:22 | 00:00:00 | |
| DK5PH-5 | 2026-08-31 05:38:02 | 48.12636 | 12.16590 | 62° | 31km/h | 19440m | -11.9m/s | -55.5°C | 5.0% | 64.0hPa | 2.6V | 01:30:00 | 02:10:21 | 00:00:00 | |
| PG1ADW-2 | 2026-08-31 05:38:01 | 48.12632 | 12.16577 | 71° | 29km/h | 19453m | -11.8m/s | -55.4°C | 5.0% | 63.8hPa | 2.6V | 01:30:00 | 00:00:00 | 00:00:00 | |
| DM0DOS-11 | 2026-08-31 05:38:00 | 48.12633 | 12.16527 | 115° | 29km/h | 19499m | -11.7m/s | -55.3°C | 4.8% | 63.4hPa | 2.7V | 01:30:30 | 02:10:16 | 00:00:00 | |
| DF7PN | 2026-08-31 05:37:57 | 48.12633 | 12.16527 | 115° | 27km/h | 19499m | -11.7m/s | -55.3°C | 1.5% | 63.4hPa | 2.7V | 00:00:00 | 00:00:00 | 00:00:00 | |
| EDDB2-11 | 2026-08-31 05:37:56 | 48.12636 | 12.16518 | 129° | 24km/h | 19511m | -11.5m/s | -55.3°C | 1.5% | 63.3hPa | 2.7V | 00:00:00 | 00:00:00 | 00:00:00 | |
| DF3TZ-5 | 2026-08-31 05:37:53 | 48.12649 | 12.16508 | 183° | 15km/h | 19546m | -11.8m/s | -55.2°C | 1.5% | 63.0hPa | 2.7V | 00:00:00 | 00:00:00 | 00:00:00 | |
| DO3MHA-12 | 2026-08-31 05:37:52 | 48.12653 | 12.16510 | 209° | 29km/h | 19558m | -11.6m/s | -55.2°C | 4.8% | 62.7hPa | 2.7V | 01:30:00 | 02:10:11 | 00:00:00 | |
| DM0DOS-11 | 2026-08-31 05:37:50 | 48.12656 | 12.16548 | 291° | 31km/h | 19618m | -12.4m/s | -55.2°C | 5.1% | 62.2hPa | 2.7V | 01:30:40 | 02:10:06 | 00:00:00 | |
| OE5WHR-10 | 2026-08-31 05:37:49 | 48.12659 | 12.16527 | 269° | 31km/h | 19594m | -12.0m/s | -55.2°C | 5.1% | 62.4hPa | 2.6V | 00:00:00 | 00:00:00 | 00:00:00 | |
| OE5MMP-10 | 2026-08-31 05:37:48 | 48.12658 | 12.16537 | 282° | 37km/h | 19606m | -12.3m/s | -55.2°C | 5.1% | 62.3hPa | 2.6V | 00:00:00 | 02:10:07 | 00:00:00 | |
| BAUMI2-15 | 2026-08-31 05:37:47 | 48.12656 | 12.16547 | 292° | 37km/h | 19619m | -12.4m/s | -55.1°C | 5.1% | 62.2hPa | 2.6V | 01:30:00 | 02:10:06 | 00:00:00 | |
| DO3MHA-11 | 2026-08-31 05:37:45 | 48.12647 | 12.16569 | 313° | 37km/h | 19644m | -12.4m/s | -54.8°C | 5.0% | 61.9hPa | 2.6V | 00:00:00 | 02:10:04 | 00:00:00 | |
| OE5DRO-10 | 2026-08-31 05:37:44 | 48.12640 | 12.16579 | 323° | 29km/h | 19657m | -12.3m/s | -54.6°C | 4.9% | 61.8hPa | 2.6V | 00:00:00 | 00:00:00 | 00:00:00 | |
| DO3MHA-12 | 2026-08-31 05:37:42 | 48.12622 | 12.16592 | 344° | 33km/h | 19681m | -11.9m/s | -54.5°C | 4.7% | 61.6hPa | 2.6V | 00:00:00 | 02:10:01 | 00:00:00 | |
| PG1ADW-2 | 2026-08-31 05:37:41 | 48.12612 | 12.16595 | 355° | 27km/h | 19693m | -11.7m/s | -54.5°C | 4.7% | 61.5hPa | 2.6V | 00:00:00 | 00:00:00 | 00:00:00 | |
| DM0DOS-11 | 2026-08-31 05:37:40 | 48.12578 | 12.16579 | 42° | 31km/h | 19741m | -12.1m/s | -54.2°C | 4.7% | 61.1hPa | 2.6V | 01:30:50 | 02:09:56 | 00:00:00 | |
| OE5MMP-10 | 2026-08-31 05:37:38 | 48.12584 | 12.16586 | 30° | 26km/h | 19729m | -11.9m/s | -54.3°C | 4.8% | 61.1hPa | 2.7V | 01:30:00 | 02:09:57 | 00:00:00 | |
| BAUMI2-15 | 2026-08-31 05:37:37 | 48.12578 | 12.16579 | 43° | 27km/h | 19741m | -12.1m/s | -54.1°C | 4.7% | 61.0hPa | 2.7V | 01:30:00 | 02:09:56 | 00:00:00 | |
| DB0UT-7 | 2026-08-31 05:37:36 | 48.12573 | 12.16571 | 56° | 27km/h | 19753m | -12.4m/s | -54.0°C | 4.7% | 60.9hPa | 2.7V | 00:00:00 | 00:00:00 | 00:00:00 | |
| DO3MHA-11 | 2026-08-31 05:37:35 | 48.12569 | 12.16561 | 70° | 24km/h | 19766m | -12.5m/s | -53.9°C | 4.6% | 60.8hPa | 2.6V | 01:30:00 | 02:09:54 | 00:00:00 | |
| DM0DOS-11 | 2026-08-31 05:37:32 | 48.12595 | 12.16519 | 198° | 24km/h | 19863m | -12.7m/s | -53.9°C | 4.5% | 59.9hPa | 2.6V | 01:31:00 | 02:09:46 | 00:00:00 | |
| DO3MHA-12 | 2026-08-31 05:37:32 | 48.12570 | 12.16534 | 117° | 24km/h | 19803m | -12.3m/s | -53.9°C | 4.6% | 60.4hPa | 2.6V | 01:30:00 | 02:09:51 | 00:00:00 | |
| SONDE2-11 | 2026-08-31 05:37:31 | 48.12573 | 12.16527 | 132° | 22km/h | 19815m | -12.0m/s | -53.9°C | 1.4% | 60.4hPa | 2.6V | 00:00:00 | 00:00:00 | 00:00:00 | |
| OE5DXL-15 | 2026-08-31 05:37:29 | 48.12583 | 12.16519 | 164° | 26km/h | 19839m | -11.8m/s | -53.9°C | 4.5% | 60.1hPa | 2.6V | 00:00:00 | 00:00:00 | 00:00:00 | |
| OE5WHR-10 | 2026-08-31 05:37:28 | 48.12589 | 12.16517 | 181° | 29km/h | 19851m | -12.1m/s | -53.9°C | 4.4% | 60.0hPa | 2.6V | 01:30:00 | 00:00:00 | 00:00:00 | |
| BAUMI2-15 | 2026-08-31 05:37:27 | 48.12594 | 12.16519 | 199° | 26km/h | 19864m | -12.7m/s | -53.9°C | 4.5% | 59.9hPa | 2.6V | 01:31:00 | 02:09:46 | 00:00:00 | |
| DF7PN | 2026-08-31 05:37:26 | 48.12600 | 12.16523 | 213° | 24km/h | 19876m | -12.8m/s | -53.9°C | 1.4% | 59.7hPa | 2.6V | 00:00:00 | 00:00:00 | 00:00:00 | |
| DO3MHA-11 | 2026-08-31 05:37:25 | 48.12605 | 12.16529 | 228° | 31km/h | 19889m | -12.5m/s | -53.8°C | 4.5% | 59.6hPa | 2.6V | 00:00:00 | 02:09:44 | 00:00:00 | |
| BAUMI2-15 | 2026-08-31 05:37:22 | 48.12612 | 12.16556 | 269° | 33km/h | 19926m | -12.3m/s | -53.8°C | 4.7% | 59.3hPa | 2.6V | 00:00:00 | 02:09:41 | 00:00:00 | |
| DL6DJ-15 | 2026-08-31 05:37:21 | 48.12611 | 12.16568 | 281° | 29km/h | 19938m | -12.4m/s | -53.9°C | 1.5% | 59.2hPa | 2.6V | 00:00:00 | 00:00:00 | 00:00:00 | |
| PG1ADW-2 | 2026-08-31 05:37:19 | 48.12604 | 12.16589 | 308° | 26km/h | 19963m | -12.8m/s | -53.7°C | 4.5% | 58.9hPa | 2.6V | 01:31:00 | 02:09:38 | 00:00:00 | |
| DM0DOS-11 | 2026-08-31 05:37:18 | 48.12591 | 12.16606 | 330° | 35km/h | 19988m | -12.7m/s | -53.7°C | 4.4% | 58.7hPa | 2.6V | 01:31:10 | 02:09:36 | 00:00:00 | |
| OE5MMP-10 | 2026-08-31 05:37:18 | 48.12598 | 12.16599 | 320° | 33km/h | 19976m | -12.7m/s | -53.6°C | 4.4% | 58.8hPa | 2.7V | 01:31:00 | 02:09:37 | 00:00:00 | |
| DK5PH-5 | 2026-08-31 05:37:17 | 48.12591 | 12.16606 | 331° | 31km/h | 19989m | -12.7m/s | -53.7°C | 4.4% | 58.6hPa | 2.6V | 00:00:00 | 02:09:36 | 00:00:00 | |
| DO3MHA-11 | 2026-08-31 05:37:15 | 48.12575 | 12.16614 | 356° | 27km/h | 20014m | -12.5m/s | -53.7°C | 4.3% | 58.4hPa | 2.6V | 01:31:00 | 02:09:34 | 00:00:00 | |
| DO3MHA-12 | 2026-08-31 05:37:12 | 48.12550 | 12.16604 | 33° | 22km/h | 20052m | -12.1m/s | -53.8°C | 4.4% | 58.1hPa | 2.7V | 01:31:00 | 02:09:31 | 00:00:00 | |
| DM0DOS-11 | 2026-08-31 05:37:10 | 48.12536 | 12.16563 | 105° | 20km/h | 20114m | -12.8m/s | -54.1°C | 4.5% | 57.6hPa | 2.7V | 01:31:20 | 02:09:26 | 00:00:00 | |
| OE5MMP-10 | 2026-08-31 05:37:08 | 48.12536 | 12.16571 | 89° | 18km/h | 20102m | -12.7m/s | -54.0°C | 4.5% | 57.6hPa | 2.7V | 00:00:00 | 02:09:27 | 00:00:00 | |
| BAUMI2-15 | 2026-08-31 05:37:07 | 48.12536 | 12.16563 | 106° | 18km/h | 20115m | -12.8m/s | -54.0°C | 4.5% | 57.5hPa | 2.7V | 01:31:00 | 02:09:26 | 00:00:00 | |
| DB0UT-7 | 2026-08-31 05:37:06 | 48.12538 | 12.16557 | 127° | 27km/h | 20128m | -12.9m/s | -54.0°C | 4.5% | 57.4hPa | 2.7V | 01:31:00 | 02:09:25 | 00:00:00 | |
| DO3MHA-11 | 2026-08-31 05:37:05 | 48.12541 | 12.16553 | 151° | 22km/h | 20141m | -13.1m/s | -54.0°C | 4.5% | 57.3hPa | 2.7V | 00:00:00 | 02:09:24 | 00:00:00 | |
| NBG1-10 | 2026-08-31 05:37:04 | 48.12545 | 12.16551 | 177° | 29km/h | 20154m | -13.1m/s | -54.0°C | 4.4% | 57.2hPa | 2.7V | 00:00:00 | 02:09:23 | 00:00:00 | |
| OE5REO-15 | 2026-08-31 05:37:03 | 48.12545 | 12.16551 | 177° | 15km/h | 20154m | -13.1m/s | -54.0°C | 1.4% | 57.2hPa | 2.7V | 01:31:00 | 00:00:00 | 00:00:00 | |
| DO3MHA-12 | 2026-08-31 05:37:02 | 48.12551 | 12.16555 | 231° | 31km/h | 20180m | -12.7m/s | -54.0°C | 4.5% | 57.0hPa | 2.7V | 00:00:00 | 02:09:21 | 00:00:00 | |
| DM0DOS-11 | 2026-08-31 05:37:00 | 48.12540 | 12.16591 | 331° | 35km/h | 20244m | -12.9m/s | -54.2°C | 4.5% | 56.4hPa | 2.7V | 01:31:30 | 02:09:16 | 00:00:00 | |
| SONDE2-11 | 2026-08-31 05:37:00 | 48.12551 | 12.16576 | 300° | 24km/h | 20218m | -13.0m/s | -54.1°C | 1.4% | 56.7hPa | 2.7V | 00:00:00 | 00:00:00 | 00:00:00 | |
| DF7PN | 2026-08-31 05:36:55 | 48.12522 | 12.16598 | 357° | 40km/h | 20270m | -13.0m/s | -54.2°C | 1.4% | 56.2hPa | 2.7V | 00:00:00 | 00:00:00 | 00:00:00 | |
| EDDB2-11 | 2026-08-31 05:36:54 | 48.12511 | 12.16597 | 8° | 42km/h | 20283m | -13.1m/s | -54.2°C | 1.4% | 56.1hPa | 2.7V | 00:00:00 | 00:00:00 | 00:00:00 | |
| DF3TZ-5 | 2026-08-31 05:36:51 | 48.12481 | 12.16577 | 39° | 44km/h | 20323m | -12.9m/s | -54.1°C | 1.4% | 55.7hPa | 2.7V | 00:00:00 | 00:00:00 | 00:00:00 | |
| DM0DOS-11 | 2026-08-31 05:36:50 | 48.12462 | 12.16528 | 85° | 31km/h | 20374m | -13.1m/s | -54.2°C | 4.5% | 55.3hPa | 2.7V | 01:31:40 | 02:09:06 | 00:00:00 | |
| OE5MMP-10 | 2026-08-31 05:36:48 | 48.12463 | 12.16540 | 73° | 22km/h | 20361m | -12.9m/s | -54.2°C | 4.6% | 55.4hPa | 2.7V | 00:00:00 | 02:09:07 | 00:00:00 | |
| DK5PH-5 | 2026-08-31 05:36:47 | 48.12462 | 12.16528 | 86° | 31km/h | 20374m | -13.0m/s | -54.1°C | 4.5% | 55.3hPa | 2.7V | 01:31:00 | 02:09:06 | 00:00:00 | |
| OE5WHR-10 | 2026-08-31 05:36:46 | 48.12462 | 12.16517 | 101° | 27km/h | 20387m | -13.2m/s | -54.1°C | 4.4% | 55.1hPa | 2.6V | 01:31:00 | 00:00:00 | 00:00:00 | |
| DO3MHA-11 | 2026-08-31 05:36:45 | 48.12464 | 12.16508 | 117° | 20km/h | 20401m | -13.1m/s | -54.1°C | 4.4% | 55.0hPa | 2.6V | 00:00:00 | 02:09:04 | 00:00:00 | |
| DO3MHA-12 | 2026-08-31 05:36:42 | 48.12475 | 12.16498 | 191° | 24km/h | 20440m | -12.9m/s | -54.2°C | 4.4% | 54.7hPa | 2.7V | 00:00:00 | 02:09:01 | 00:00:00 | |
| PG1ADW-2 | 2026-08-31 05:36:39 | 48.12482 | 12.16512 | 266° | 33km/h | 20479m | -13.1m/s | -54.3°C | 4.7% | 54.4hPa | 2.7V | 01:31:00 | 00:00:00 | 00:00:00 | |
| DM0DOS-11 | 2026-08-31 05:36:38 | 48.12480 | 12.16529 | 301° | 26km/h | 20505m | -13m/s | -54.5°C | 4.8% | 54.2hPa | 2.7V | 01:31:50 | 02:08:56 | 00:00:00 | |
| OE5MMP-10 | 2026-08-31 05:36:38 | 48.12482 | 12.16520 | 285° | 31km/h | 20492m | -13.1m/s | -54.4°C | 4.8% | 54.3hPa | 2.6V | 01:31:00 | 02:08:57 | 00:00:00 | |
| DB0UT-7 | 2026-08-31 05:36:36 | 48.12475 | 12.16536 | 319° | 31km/h | 20518m | -12.9m/s | -54.4°C | 4.8% | 54.0hPa | 2.6V | 00:00:00 | 00:00:00 | 00:00:00 | |
| DO3MHA-11 | 2026-08-31 05:36:35 | 48.12470 | 12.16542 | 335° | 35km/h | 20531m | -13.0m/s | -54.4°C | 4.7% | 53.9hPa | 2.6V | 01:31:00 | 02:08:54 | 00:00:00 | |
| DL1ZP-14 | 2026-08-31 05:36:33 | 48.12455 | 12.16546 | 4° | 31km/h | 20557m | -13.3m/s | -54.4°C | 1.4% | 53.7hPa | 2.6V | 00:00:00 | 00:00:00 | 00:00:00 | |
| DO3MHA-12 | 2026-08-31 05:36:32 | 48.12447 | 12.16543 | 19° | 37km/h | 20570m | -13.2m/s | -54.3°C | 4.6% | 53.6hPa | 2.6V | 01:31:00 | 02:08:51 | 00:00:00 | |
| DM0DOS-11 | 2026-08-31 05:36:30 | 48.12423 | 12.16492 | 86° | 38km/h | 20636m | -13.1m/s | -54.5°C | 4.8% | 53hPa | 2.6V | 01:32:00 | 02:08:46 | 00:00:00 | |
| OE5DXL-15 | 2026-08-31 05:36:29 | 48.12428 | 12.16519 | 62° | 31km/h | 20610m | -13.0m/s | -54.3°C | 4.8% | 53.2hPa | 2.7V | 00:00:00 | 00:00:00 | 00:00:00 | |
| OE5MMP-10 | 2026-08-31 05:36:28 | 48.12425 | 12.16506 | 75° | 35km/h | 20623m | -13.0m/s | -54.4°C | 4.7% | 53.1hPa | 2.7V | 00:00:00 | 02:08:47 | 00:00:00 | |
| DG1MFX-10 | 2026-08-31 05:36:26 | 48.12423 | 12.16492 | 88° | 38km/h | 20636m | -13.1m/s | -54.5°C | 1.5% | 53.0hPa | 2.7V | 01:32:00 | 00:00:00 | 00:00:00 | |
| DO3MHA-11 | 2026-08-31 05:36:25 | 48.12426 | 12.16464 | 111° | 31km/h | 20662m | -13.1m/s | -54.3°C | 4.8% | 52.8hPa | 2.7V | 00:00:00 | 02:08:44 | 00:00:00 | |
| DF7PN | 2026-08-31 05:36:24 | 48.12436 | 12.16442 | 135° | 33km/h | 20689m | -13.3m/s | -54.1°C | 1.4% | 52.6hPa | 2.7V | 00:00:00 | 00:00:00 | 00:00:00 | |
| EDDB2-11 | 2026-08-31 05:36:23 | 48.12436 | 12.16442 | 135° | 33km/h | 20689m | -13.3m/s | -54.1°C | 1.4% | 52.6hPa | 2.7V | 00:00:00 | 00:00:00 | 00:00:00 | |
| DO3MHA-12 | 2026-08-31 05:36:22 | 48.12442 | 12.16434 | 149° | 27km/h | 20702m | -13.1m/s | -53.9°C | 4.5% | 52.5hPa | 2.7V | 00:00:00 | 02:08:41 | 00:00:00 | |
| DM0DOS-11 | 2026-08-31 05:36:20 | 48.12479 | 12.16435 | 218° | 27km/h | 20769m | -13.2m/s | -54°C | 4.6% | 51.9hPa | 2.7V | 01:32:10 | 02:08:36 | 00:00:00 | |
| PG1ADW-2 | 2026-08-31 05:36:19 | 48.12466 | 12.16427 | 190° | 27km/h | 20742m | -13.8m/s | -53.9°C | 4.5% | 52.2hPa | 2.6V | 00:00:00 | 00:00:00 | 00:00:00 | |
| OE5MMP-10 | 2026-08-31 05:36:18 | 48.12473 | 12.16430 | 204° | 26km/h | 20756m | -13.5m/s | -53.9°C | 4.5% | 52.0hPa | 2.6V | 01:32:00 | 02:08:37 | 00:00:00 | |
| DK5PH-5 | 2026-08-31 05:36:17 | 48.12479 | 12.16435 | 219° | 26km/h | 20769m | -13.1m/s | -53.9°C | 4.6% | 51.9hPa | 2.7V | 00:00:00 | 02:08:36 | 00:00:00 | |
| DO3MHA-11 | 2026-08-31 05:36:15 | 48.12486 | 12.16451 | 254° | 26km/h | 20796m | -13.2m/s | -54.0°C | 4.8% | 51.7hPa | 2.7V | 01:32:00 | 02:08:34 | 00:00:00 | |
| DO3MHA-12 | 2026-08-31 05:36:12 | 48.12482 | 12.16475 | 313° | 27km/h | 20836m | -13.5m/s | -53.8°C | 4.6% | 51.4hPa | 2.7V | 01:32:00 | 02:08:31 | 00:00:00 | |
| OE5DRO-10 | 2026-08-31 05:36:09 | 48.12466 | 12.16482 | 10° | 27km/h | 20877m | -13.5m/s | -53.8°C | 4.5% | 51.1hPa | 2.7V | 01:32:00 | 00:00:00 | 00:00:00 | |
| OE5MMP-10 | 2026-08-31 05:36:08 | 48.12459 | 12.16480 | 25° | 31km/h | 20890m | -13.3m/s | -53.8°C | 4.5% | 51.0hPa | 2.7V | 00:00:00 | 02:08:27 | 00:00:00 | |
| DB0UT-7 | 2026-08-31 05:36:06 | 48.12449 | 12.16465 | 59° | 33km/h | 20917m | -13.3m/s | -53.8°C | 4.4% | 50.7hPa | 2.7V | 01:32:00 | 02:08:25 | 00:00:00 | |
| DM0DOS-11 | 2026-08-31 05:36:05 | 48.12445 | 12.16430 | 104° | 33km/h | 20956m | -13.4m/s | -53.9°C | 4.5% | 50.5hPa | 2.6V | 01:32:24 | 02:08:22 | 00:00:00 | |
| DO3MHA-11 | 2026-08-31 05:36:05 | 48.12446 | 12.16454 | 74° | 33km/h | 20930m | -13.1m/s | -53.8°C | 4.4% | 50.7hPa | 2.6V | 00:00:00 | 02:08:24 | 00:00:00 | |
| OE5WHR-10 | 2026-08-31 05:36:04 | 48.12445 | 12.16442 | 90° | 27km/h | 20943m | -13.3m/s | -53.8°C | 4.6% | 50.5hPa | 2.6V | 01:32:00 | 02:08:23 | 00:00:00 | |
| DO3MHA-12 | 2026-08-31 05:36:02 | 48.12449 | 12.16419 | 120° | 29km/h | 20970m | -13.5m/s | -53.8°C | 4.5% | 50.3hPa | 2.6V | 00:00:00 | 02:08:21 | 00:00:00 | |
| SONDE2-11 | 2026-08-31 05:35:58 | 48.12484 | 12.16394 | 189° | 31km/h | 21039m | -14.0m/s | -53.3°C | 1.3% | 49.8hPa | 2.6V | 00:00:00 | 00:00:00 | 00:00:00 | |
| DF7PN | 2026-08-31 05:35:53 | 48.12504 | 12.16422 | 285° | 15km/h | 21108m | -13.1m/s | -53.4°C | 1.3% | 49.3hPa | 2.6V | 00:00:00 | 00:00:00 | 00:00:00 | |
| DO3MHA-12 | 2026-08-31 05:35:52 | 48.12504 | 12.16422 | 286° | 27km/h | 21108m | -13.0m/s | -53.4°C | 4.4% | 49.2hPa | 2.6V | 01:32:00 | 02:08:11 | 00:00:00 | |
| DM0DOS-11 | 2026-08-31 05:35:50 | 48.12482 | 12.16402 | 74° | 35km/h | 21190m | -14.1m/s | -53.5°C | 4.4% | 48.7hPa | 2.6V | 01:32:41 | 02:08:05 | 00:00:00 | |
| DL6DJ-15 | 2026-08-31 05:35:48 | 48.12490 | 12.16421 | 43° | 24km/h | 21162m | -13.6m/s | -53.6°C | 1.3% | 48.9hPa | 2.7V | 00:00:00 | 00:00:00 | 00:00:00 | |
| DK5PH-5 | 2026-08-31 05:35:47 | 48.12486 | 12.16413 | 60° | 26km/h | 21176m | -14.0m/s | -53.5°C | 4.4% | 48.7hPa | 2.7V | 01:32:00 | 02:08:06 | 00:00:00 | |
| DO3MHA-11 | 2026-08-31 05:35:45 | 48.12481 | 12.16388 | 88° | 46km/h | 21204m | -13.8m/s | -53.4°C | 4.4% | 48.5hPa | 2.7V | 00:00:00 | 02:08:04 | 00:00:00 | |
| DG1MFX-10 | 2026-08-31 05:35:44 | 48.12481 | 12.16388 | 88° | 38km/h | 21204m | -13.9m/s | -53.5°C | 1.3% | 48.6hPa | 2.6V | 01:33:00 | 00:00:00 | 00:00:00 | |
| OE5WHR-10 | 2026-08-31 05:35:43 | 48.12485 | 12.16358 | 111° | 40km/h | 21231m | -13.1m/s | -53.3°C | 4.3% | 48.3hPa | 2.6V | 00:00:00 | 00:00:00 | 00:00:00 | |
| DO3MHA-12 | 2026-08-31 05:35:42 | 48.12490 | 12.16342 | 123° | 46km/h | 21245m | -13.6m/s | -53.2°C | 4.3% | 48.2hPa | 2.7V | 00:00:00 | 02:08:01 | 00:00:00 | |
| DM0DOS-11 | 2026-08-31 05:35:40 | 48.12551 | 12.16303 | 190° | 46km/h | 21327m | -14.2m/s | -53.1°C | 4% | 47.7hPa | 2.7V | 01:32:51 | 02:07:55 | 00:00:00 | |
| PG1ADW-2 | 2026-08-31 05:35:39 | 48.12516 | 12.16309 | 157° | 37km/h | 21286m | -13.8m/s | -52.9°C | 4.0% | 47.9hPa | 2.6V | 00:00:00 | 00:00:00 | 00:00:00 | |
| OE5MMP-10 | 2026-08-31 05:35:38 | 48.12527 | 12.16304 | 168° | 44km/h | 21299m | -13.7m/s | -53.0°C | 3.9% | 47.8hPa | 2.6V | 01:32:00 | 02:07:57 | 00:00:00 | |
| DB0UT-7 | 2026-08-31 05:35:36 | 48.12551 | 12.16303 | 191° | 37km/h | 21327m | -14.1m/s | -53.1°C | 4.0% | 47.6hPa | 2.6V | 00:00:00 | 00:00:00 | 00:00:00 | |
| DO3MHA-11 | 2026-08-31 05:35:35 | 48.12562 | 12.16308 | 201° | 40km/h | 21341m | -14.0m/s | -53.1°C | 4.0% | 47.5hPa | 2.6V | 01:32:00 | 02:07:54 | 00:00:00 | |
| DO3MHA-12 | 2026-08-31 05:35:32 | 48.12590 | 12.16337 | 234° | 35km/h | 21382m | -13.6m/s | -53.2°C | 4.2% | 47.2hPa | 2.6V | 01:32:00 | 02:07:51 | 00:00:00 | |
| OE5DRO-10 | 2026-08-31 05:35:31 | 48.12595 | 12.16351 | 244° | 27km/h | 21395m | -13.6m/s | -53.3°C | 4.3% | 47.0hPa | 2.6V | 01:32:00 | 00:00:00 | 00:00:00 | |
| OE5DXL-15 | 2026-08-31 05:35:29 | 48.12600 | 12.16380 | 267° | 33km/h | 21423m | -13.9m/s | -53.5°C | 4.4% | 46.9hPa | 2.7V | 00:00:00 | 00:00:00 | 00:00:00 | |
| OE5MMP-10 | 2026-08-31 05:35:28 | 48.12600 | 12.16393 | 280° | 26km/h | 21437m | -14.0m/s | -53.6°C | 4.4% | 46.8hPa | 2.7V | 00:00:00 | 02:07:47 | 00:00:00 | |
| DM0DOS-11 | 2026-08-31 05:35:27 | 48.12593 | 12.16416 | 308° | 31km/h | 21464m | -14.3m/s | -53.7°C | 4.4% | 46.6hPa | 2.7V | 01:33:01 | 02:07:45 | 00:00:00 | |
| SONDE2-11 | 2026-08-31 05:35:27 | 48.12593 | 12.16416 | 308° | 29km/h | 21464m | -14.3m/s | -53.7°C | 1.3% | 46.6hPa | 2.6V | 00:00:00 | 00:00:00 | 00:00:00 | |
| DO3MHA-11 | 2026-08-31 05:35:25 | 48.12588 | 12.16424 | 325° | 22km/h | 21478m | -14.4m/s | -53.8°C | 4.4% | 46.5hPa | 2.6V | 00:00:00 | 02:07:44 | 00:00:00 | |
| DG1MFX-10 | 2026-08-31 05:35:24 | 48.12588 | 12.16424 | 325° | 29km/h | 21478m | -14.4m/s | -53.8°C | 1.3% | 46.5hPa | 2.6V | 01:33:00 | 00:00:00 | 00:00:00 | |
| DF7PN | 2026-08-31 05:35:22 | 48.12566 | 12.16424 | 40° | 20km/h | 21534m | -14.3m/s | -54.4°C | 1.3% | 46.1hPa | 2.6V | 00:00:00 | 00:00:00 | 00:00:00 | |
| EDDB2-11 | 2026-08-31 05:35:21 | 48.12566 | 12.16424 | 40° | 20km/h | 21534m | -14.3m/s | -54.4°C | 1.3% | 46.1hPa | 2.6V | 00:00:00 | 00:00:00 | 00:00:00 | |
| DM0DOS-11 | 2026-08-31 05:35:20 | 48.12572 | 12.16397 | 163° | 24km/h | 21605m | -14.3m/s | -54.4°C | 4.6% | 45.6hPa | 2.6V | 01:33:11 | 02:07:35 | 00:00:00 | |
| PG1ADW-2 | 2026-08-31 05:35:19 | 48.12562 | 12.16412 | 93° | 35km/h | 21563m | -14.2m/s | -54.4°C | 4.5% | 45.8hPa | 2.6V | 01:33:00 | 00:00:00 | 00:00:00 | |
| OE5MMP-10 | 2026-08-31 05:35:18 | 48.12564 | 12.16406 | 119° | 31km/h | 21577m | -14.4m/s | -54.4°C | 4.5% | 45.7hPa | 2.6V | 01:33:00 | 02:07:37 | 00:00:00 | |
| DL6DJ-15 | 2026-08-31 05:35:17 | 48.12572 | 12.16397 | 163° | 22km/h | 21605m | -14.3m/s | -54.4°C | 1.3% | 45.6hPa | 2.7V | 00:00:00 | 00:00:00 | 00:00:00 | |
| DO3MHA-11 | 2026-08-31 05:35:15 | 48.12578 | 12.16395 | 182° | 38km/h | 21619m | -14.1m/s | -54.2°C | 4.5% | 45.4hPa | 2.7V | 01:33:00 | 02:07:34 | 00:00:00 | |
| DO3MHA-12 | 2026-08-31 05:35:12 | 48.12598 | 12.16413 | 232° | 42km/h | 21662m | -14.6m/s | -53.7°C | 4.3% | 45.1hPa | 2.7V | 01:33:00 | 02:07:31 | 00:00:00 | |
| OE5MMP-10 | 2026-08-31 05:35:08 | 48.12606 | 12.16472 | 283° | 38km/h | 21720m | -14.1m/s | -53.8°C | 4.4% | 44.7hPa | 2.7V | 00:00:00 | 02:07:27 | 00:00:00 | |
| DM0DOS-11 | 2026-08-31 05:35:07 | 48.12597 | 12.16503 | 306° | 44km/h | 21748m | -14.6m/s | -53.9°C | 4.4% | 44.5hPa | 2.7V | 01:33:21 | 02:07:25 | 00:00:00 | |
| DB0UT-7 | 2026-08-31 05:35:06 | 48.12597 | 12.16503 | 307° | 38km/h | 21748m | -14.5m/s | -53.8°C | 4.4% | 44.5hPa | 2.7V | 01:33:00 | 02:07:25 | 00:00:00 | |
| DO3MHA-11 | 2026-08-31 05:35:05 | 48.12590 | 12.16515 | 316° | 31km/h | 21763m | -15.0m/s | -53.8°C | 4.5% | 44.4hPa | 2.7V | 00:00:00 | 02:07:24 | 00:00:00 | |
| DG1MFX-10 | 2026-08-31 05:35:03 | 48.12582 | 12.16524 | 331° | 40km/h | 21777m | -14.4m/s | -53.9°C | 1.3% | 44.3hPa | 2.7V | 01:34:00 | 00:00:00 | 00:00:00 | |
| DO3MHA-12 | 2026-08-31 05:35:02 | 48.12564 | 12.16532 | 357° | 27km/h | 21806m | -14.7m/s | -53.9°C | 4.5% | 44.1hPa | 2.7V | 00:00:00 | 02:07:21 | 00:00:00 | |
| OE5WHR-10 | 2026-08-31 05:35:01 | 48.12555 | 12.16532 | 10° | 35km/h | 21820m | -14.4m/s | -53.9°C | 4.5% | 44.0hPa | 2.7V | 00:00:00 | 02:07:20 | 00:00:00 | |
| DM0DOS-11 | 2026-08-31 05:35:00 | 48.12540 | 12.16497 | 117° | 24km/h | 21892m | -15m/s | -54.1°C | 4.6% | 43.5hPa | 2.7V | 01:33:31 | 02:07:15 | 00:00:00 | |
| DL1ZP-14 | 2026-08-31 05:35:00 | 48.12542 | 12.16521 | 51° | 26km/h | 21849m | -14.7m/s | -54.0°C | 1.3% | 43.9hPa | 2.7V | 00:00:00 | 00:00:00 | 00:00:00 | |
| SONDE2-11 | 2026-08-31 05:34:55 | 48.12544 | 12.16489 | 133° | 24km/h | 21907m | -15.2m/s | -54.0°C | 1.3% | 43.4hPa | 2.6V | 00:00:00 | 00:00:00 | 00:00:00 | |
| DF7PN | 2026-08-31 05:34:51 | 48.12574 | 12.16496 | 228° | 31km/h | 21982m | -14.7m/s | -53.6°C | 1.3% | 43.0hPa | 2.6V | 00:00:00 | 00:00:00 | 00:00:00 | |
| EDDB2-11 | 2026-08-31 05:34:50 | 48.12574 | 12.16496 | 228° | 31km/h | 21982m | -14.7m/s | -53.6°C | 1.3% | 43.0hPa | 2.6V | 00:00:00 | 00:00:00 | 00:00:00 | |
| DM0DOS-11 | 2026-08-31 05:34:47 | 48.12582 | 12.16553 | 278° | 44km/h | 22042m | -15.5m/s | -53°C | 4.4% | 42.5hPa | 2.6V | 01:33:41 | 02:07:05 | 00:00:00 | |
| BAUMI2-15 | 2026-08-31 05:34:46 | 48.12582 | 12.16553 | 279° | 46km/h | 22042m | -15.5m/s | -53.0°C | 4.4% | 42.5hPa | 2.7V | 00:00:00 | 02:07:05 | 00:00:00 | |
| DO3MHA-11 | 2026-08-31 05:34:45 | 48.12579 | 12.16569 | 297° | 40km/h | 22057m | -14.5m/s | -52.8°C | 4.3% | 42.4hPa | 2.7V | 00:00:00 | 02:07:04 | 00:00:00 | |
| DG1MFX-10 | 2026-08-31 05:34:43 | 48.12573 | 12.16584 | 302° | 47km/h | 22071m | -15.1m/s | -52.6°C | 1.2% | 42.3hPa | 2.6V | 01:34:00 | 00:00:00 | 00:00:00 | |
| DO3MHA-12 | 2026-08-31 05:34:42 | 48.12558 | 12.16608 | 329° | 31km/h | 22101m | -14.8m/s | -52.2°C | 4.1% | 42.1hPa | 2.6V | 00:00:00 | 02:07:01 | 00:00:00 | |
| BAUMI2-15 | 2026-08-31 05:34:41 | 48.12548 | 12.16617 | 335° | 38km/h | 22116m | -15.7m/s | -52.1°C | 4.0% | 42.0hPa | 2.6V | 01:33:00 | 02:07:00 | 00:00:00 | |
| DM0DOS-11 | 2026-08-31 05:34:40 | 48.12505 | 12.16613 | 37° | 27km/h | 22192m | -15.8m/s | -51.8°C | 3.9% | 41.5hPa | 2.6V | 01:33:51 | 02:06:55 | 00:00:00 | |
| OE5WHR-10 | 2026-08-31 05:34:40 | 48.12538 | 12.16623 | 348° | 38km/h | 22132m | -15.1m/s | -52.0°C | 4.0% | 42.0hPa | 2.7V | 01:33:00 | 00:00:00 | 00:00:00 | |
| PG1ADW-2 | 2026-08-31 05:34:39 | 48.12528 | 12.16624 | 2° | 37km/h | 22146m | -14.7m/s | -51.9°C | 4.0% | 41.8hPa | 2.6V | 01:33:00 | 02:06:58 | 00:00:00 | |
| OE5MMP-10 | 2026-08-31 05:34:38 | 48.12519 | 12.16623 | 13° | 22km/h | 22161m | -15.1m/s | -51.8°C | 3.8% | 41.6hPa | 2.6V | 01:33:00 | 02:06:57 | 00:00:00 | |
| BAUMI2-15 | 2026-08-31 05:34:36 | 48.12505 | 12.16613 | 38° | 15km/h | 22192m | -15.7m/s | -51.7°C | 3.9% | 41.5hPa | 2.6V | 00:00:00 | 02:06:55 | 00:00:00 | |
| DO3MHA-11 | 2026-08-31 05:34:35 | 48.12500 | 12.16607 | 51° | 26km/h | 22207m | -15.6m/s | -51.8°C | 3.8% | 41.4hPa | 2.7V | 01:33:00 | 02:06:54 | 00:00:00 | |
| OE5DRO-10 | 2026-08-31 05:34:34 | 48.12498 | 12.16602 | 69° | 42km/h | 22223m | -15.5m/s | -51.9°C | 3.9% | 41.3hPa | 2.7V | 00:00:00 | 00:00:00 | 00:00:00 | |
| DO3MHA-12 | 2026-08-31 05:34:32 | 48.12499 | 12.16598 | 217° | 40km/h | 22253m | -15.3m/s | -52.0°C | 3.9% | 41.2hPa | 2.6V | 01:33:00 | 02:06:51 | 00:00:00 | |
| DB0NH | 2026-08-31 05:34:31 | 48.12500 | 12.16601 | 242° | 40km/h | 22268m | -14.9m/s | -52.0°C | 3.9% | 41.0hPa | 2.6V | 01:33:00 | 02:06:50 | 00:00:00 | |
| OE5DXL-15 | 2026-08-31 05:34:29 | 48.12505 | 12.16619 | 256° | 44km/h | 22299m | -15.3m/s | -52.0°C | 3.9% | 40.9hPa | 2.6V | 00:00:00 | 00:00:00 | 00:00:00 | |
| OE5MMP-10 | 2026-08-31 05:34:28 | 48.12506 | 12.16632 | 272° | 57km/h | 22313m | -14.9m/s | -52.1°C | 3.9% | 40.8hPa | 2.6V | 00:00:00 | 02:06:47 | 00:00:00 | |
| DM0DOS-11 | 2026-08-31 05:34:27 | 48.12498 | 12.16686 | 296° | 57km/h | 22360m | -15.1m/s | -52.3°C | 4% | 40.5hPa | 2.6V | 01:34:02 | 02:06:44 | 00:00:00 | |
| BAUMI2-15 | 2026-08-31 05:34:26 | 48.12502 | 12.16667 | 285° | 58km/h | 22344m | -16.4m/s | -52.2°C | 4.0% | 40.5hPa | 2.6V | 00:00:00 | 02:06:45 | 00:00:00 | |
| SONDE2-11 | 2026-08-31 05:34:25 | 48.12491 | 12.16705 | 300° | 60km/h | 22375m | -15.5m/s | -52.4°C | 1.1% | 40.4hPa | 2.6V | 00:00:00 | 00:00:00 | 00:00:00 | |
| DG1MFX-10 | 2026-08-31 05:34:23 | 48.12490 | 12.16705 | 301° | 62km/h | 22375m | -15.5m/s | -52.4°C | 1.2% | 40.4hPa | 2.6V | 01:34:00 | 00:00:00 | 00:00:00 | |
| DO3MHA-12 | 2026-08-31 05:34:22 | 48.12471 | 12.16740 | 322° | 49km/h | 22406m | -14.9m/s | -52.3°C | 4.0% | 40.1hPa | 2.6V | 00:00:00 | 02:06:41 | 00:00:00 | |
| BAUMI2-15 | 2026-08-31 05:34:21 | 48.12458 | 12.16754 | 329° | 57km/h | 22421m | -16.4m/s | -52.3°C | 4.0% | 40.0hPa | 2.6V | 01:34:00 | 02:06:40 | 00:00:00 | |
| OE5WHR-10 | 2026-08-31 05:34:19 | 48.12431 | 12.16770 | 350° | 38km/h | 22452m | -15.7m/s | -52.3°C | 3.9% | 39.8hPa | 2.7V | 00:00:00 | 00:00:00 | 00:00:00 | |
| OE5MMP-10 | 2026-08-31 05:34:18 | 48.12417 | 12.16772 | 357° | 29km/h | 22468m | -16.2m/s | -52.2°C | 4.0% | 39.8hPa | 2.7V | 01:34:00 | 02:06:37 | 00:00:00 | |
| BAUMI2-15 | 2026-08-31 05:34:16 | 48.12392 | 12.16767 | 18° | 31km/h | 22499m | -15.7m/s | -52.3°C | 3.9% | 39.5hPa | 2.6V | 00:00:00 | 02:06:35 | 00:00:00 | |
| DO3MHA-11 | 2026-08-31 05:34:15 | 48.12383 | 12.16760 | 30° | 22km/h | 22515m | -15.1m/s | -52.4°C | 4.0% | 39.5hPa | 2.6V | 01:34:00 | 02:06:34 | 00:00:00 | |
| DO3MHA-12 | 2026-08-31 05:34:12 | 48.12369 | 12.16738 | 68° | 27km/h | 22561m | -16.0m/s | -52.6°C | 4.0% | 39.2hPa | 2.6V | 01:34:00 | 02:06:31 | 00:00:00 | |
| BAUMI2-15 | 2026-08-31 05:34:11 | 48.12368 | 12.16734 | 83° | 15km/h | 22577m | -16.4m/s | -52.7°C | 4.0% | 39.1hPa | 2.6V | 01:34:00 | 02:06:30 | 00:00:00 | |
| OE5MMP-10 | 2026-08-31 05:34:08 | 48.12368 | 12.16740 | 274° | 47km/h | 22624m | -15.7m/s | -52.8°C | 4.1% | 38.9hPa | 2.6V | 00:00:00 | 02:06:27 | 00:00:00 | |
| BAUMI2-15 | 2026-08-31 05:34:06 | 48.12365 | 12.16761 | 294° | 49km/h | 22656m | -17.1m/s | -52.9°C | 4.1% | 38.7hPa | 2.6V | 00:00:00 | 02:06:25 | 00:00:00 | |
| DO3MHA-11 | 2026-08-31 05:34:05 | 48.12360 | 12.16774 | 301° | 58km/h | 22673m | -16.0m/s | -52.9°C | 4.1% | 38.6hPa | 2.7V | 00:00:00 | 02:06:24 | 00:00:00 | |
| DK5PH-5 | 2026-08-31 05:34:02 | 48.12333 | 12.16814 | 331° | 51km/h | 22721m | -15.6m/s | -52.9°C | 4.1% | 38.3hPa | 2.7V | 00:00:00 | 02:06:21 | 00:00:00 | |
| DL1ZP-14 | 2026-08-31 05:33:58 | 48.12256 | 12.16829 | 17° | 64km/h | 22800m | -15.9m/s | -53.1°C | 1.2% | 37.9hPa | 2.7V | 00:00:00 | 00:00:00 | 00:00:00 | |
| SONDE2-11 | 2026-08-31 05:33:53 | 48.12211 | 12.16780 | 55° | 46km/h | 22863m | -15.5m/s | -53.0°C | 1.1% | 37.5hPa | 2.7V | 00:00:00 | 00:00:00 | 00:00:00 | |
| DO3MHA-12 | 2026-08-31 05:33:52 | 48.12206 | 12.16766 | 68° | 22km/h | 22879m | -15.4m/s | -53.0°C | 4.1% | 37.3hPa | 2.7V | 01:34:00 | 02:06:11 | 00:00:00 | |
| BAUMI2-15 | 2026-08-31 05:33:51 | 48.12203 | 12.16752 | 79° | 20km/h | 22894m | -15.4m/s | -53.0°C | 4.1% | 37.3hPa | 2.7V | 01:34:00 | 02:06:10 | 00:00:00 | |
| OE5MMP-10 | 2026-08-31 05:33:48 | 48.12204 | 12.16726 | 120° | 26km/h | 22940m | -16.1m/s | -53.2°C | 4.2% | 37.0hPa | 2.7V | 00:00:00 | 02:06:07 | 00:00:00 | |
| BAUMI2-15 | 2026-08-31 05:33:46 | 48.12208 | 12.16724 | 228° | 24km/h | 22972m | -17.5m/s | -53.3°C | 4.2% | 36.7hPa | 2.6V | 00:00:00 | 02:06:05 | 00:00:00 | |
| DO3MHA-11 | 2026-08-31 05:33:45 | 48.12209 | 12.16729 | 264° | 37km/h | 22989m | -16.6m/s | -53.3°C | 4.2% | 36.7hPa | 2.6V | 00:00:00 | 02:06:04 | 00:00:00 | |
| DL6DJ-15 | 2026-08-31 05:33:44 | 48.12206 | 12.16745 | 302° | 26km/h | 23021m | -16.8m/s | -53.2°C | 1.2% | 36.5hPa | 2.6V | 00:00:00 | 00:00:00 | 00:00:00 | |
| DO3MHA-12 | 2026-08-31 05:33:42 | 48.12201 | 12.16754 | 312° | 40km/h | 23038m | -17.1m/s | -53.1°C | 4.1% | 36.4hPa | 2.6V | 00:00:00 | 02:06:01 | 00:00:00 | |
| BAUMI2-15 | 2026-08-31 05:33:41 | 48.12194 | 12.16763 | 329° | 42km/h | 23055m | -16.0m/s | -53.1°C | 4.1% | 36.3hPa | 2.6V | 01:34:00 | 02:06:00 | 00:00:00 | |
| DM0DOS-11 | 2026-08-31 05:33:40 | 48.12164 | 12.16774 | 3° | 46km/h | 23103m | -16.8m/s | -53.3°C | 4.2% | 36.1hPa | 2.6V | 01:34:49 | 02:05:57 | 00:00:00 | |
| PG1ADW-2 | 2026-08-31 05:33:39 | 48.12175 | 12.16773 | 350° | 38km/h | 23087m | -17.2m/s | -53.2°C | 4.2% | 36.1hPa | 2.7V | 00:00:00 | 00:00:00 | 00:00:00 | |
| OE5MMP-10 | 2026-08-31 05:33:38 | 48.12164 | 12.16774 | 4° | 37km/h | 23104m | -16.7m/s | -53.2°C | 4.2% | 36.0hPa | 2.7V | 01:34:00 | 02:05:57 | 00:00:00 | |
| OE5WHR-10 | 2026-08-31 05:33:37 | 48.12153 | 12.16770 | 19° | 38km/h | 23120m | -15.9m/s | -53.2°C | 4.1% | 35.9hPa | 2.7V | 00:00:00 | 00:00:00 | 00:00:00 | |
| BAUMI2-15 | 2026-08-31 05:33:36 | 48.12143 | 12.16764 | 30° | 38km/h | 23136m | -16.3m/s | -53.2°C | 4.2% | 35.8hPa | 2.7V | 00:00:00 | 02:05:55 | 00:00:00 | |
| DO3MHA-11 | 2026-08-31 05:33:35 | 48.12135 | 12.16755 | 40° | 35km/h | 23152m | -16.4m/s | -53.2°C | 4.1% | 35.7hPa | 2.6V | 01:34:00 | 02:05:54 | 00:00:00 | |
| DO3MHA-12 | 2026-08-31 05:33:32 | 48.12125 | 12.16717 | 94° | 35km/h | 23201m | -15.8m/s | -53.2°C | 4.1% | 35.5hPa | 2.6V | 01:34:00 | 02:05:51 | 00:00:00 | |
| BAUMI2-15 | 2026-08-31 05:33:31 | 48.12126 | 12.16705 | 112° | 31km/h | 23217m | -15.9m/s | -53.3°C | 4.1% | 35.4hPa | 2.6V | 01:34:00 | 02:05:50 | 00:00:00 | |
| DM0DOS-11 | 2026-08-31 05:33:30 | 48.12143 | 12.16682 | 162° | 31km/h | 23264m | -17.1m/s | -53.5°C | 4.2% | 35.1hPa | 2.6V | 01:34:59 | 02:05:47 | 00:00:00 | |
| OE5DXL-15 | 2026-08-31 05:33:29 | 48.12136 | 12.16687 | 146° | 35km/h | 23248m | -17.1m/s | -53.4°C | 4.2% | 35.2hPa | 2.7V | 00:00:00 | 00:00:00 | 00:00:00 | |
| OE5MMP-10 | 2026-08-31 05:33:28 | 48.12143 | 12.16682 | 163° | 40km/h | 23265m | -17.1m/s | -53.5°C | 4.2% | 35.1hPa | 2.7V | 00:00:00 | 02:05:47 | 00:00:00 | |
| DL1ZP-14 | 2026-08-31 05:33:27 | 48.12159 | 12.16681 | 197° | 35km/h | 23298m | -17.8m/s | -53.6°C | 1.2% | 34.9hPa | 2.7V | 00:00:00 | 00:00:00 | 00:00:00 | |
| BAUMI2-15 | 2026-08-31 05:33:26 | 48.12159 | 12.16681 | 198° | 40km/h | 23298m | -17.8m/s | -53.6°C | 4.2% | 34.9hPa | 2.7V | 00:00:00 | 02:05:45 | 00:00:00 | |
| DO3MHA-11 | 2026-08-31 05:33:25 | 48.12168 | 12.16687 | 214° | 44km/h | 23316m | -17.5m/s | -53.7°C | 4.3% | 34.8hPa | 2.7V | 00:00:00 | 02:05:44 | 00:00:00 | |
| DO3MHA-12 | 2026-08-31 05:33:22 | 48.12184 | 12.16722 | 261° | 44km/h | 23368m | -17.4m/s | -53.9°C | 4.3% | 34.6hPa | 2.7V | 00:00:00 | 02:05:41 | 00:00:00 | |
| BAUMI2-15 | 2026-08-31 05:33:21 | 48.12184 | 12.16738 | 275° | 46km/h | 23386m | -17.2m/s | -54.0°C | 4.4% | 34.5hPa | 2.7V | 01:35:00 | 02:05:40 | 00:00:00 | |
| PG1ADW-2 | 2026-08-31 05:33:19 | 48.12178 | 12.16768 | 303° | 35km/h | 23421m | -16.9m/s | -54.0°C | 4.4% | 34.3hPa | 2.6V | 01:35:00 | 02:05:38 | 00:00:00 | |
| OE5MMP-10 | 2026-08-31 05:33:18 | 48.12171 | 12.16780 | 320° | 40km/h | 23438m | -17.2m/s | -53.9°C | 4.4% | 34.2hPa | 2.6V | 01:35:00 | 02:05:37 | 00:00:00 | |
| DM0DOS-11 | 2026-08-31 05:33:17 | 48.12141 | 12.16796 | 357° | 44km/h | 23488m | -16.7m/s | -53.9°C | 4.3% | 34hPa | 2.7V | 01:35:12 | 02:05:34 | 00:00:00 | |
| OE5WHR-10 | 2026-08-31 05:33:16 | 48.12152 | 12.16795 | 346° | 33km/h | 23471m | -16.8m/s | -53.8°C | 4.3% | 34.0hPa | 2.7V | 01:35:00 | 00:00:00 | 00:00:00 | |
| DO3MHA-11 | 2026-08-31 05:33:15 | 48.12141 | 12.16796 | 358° | 33km/h | 23488m | -16.6m/s | -53.9°C | 4.3% | 33.9hPa | 2.7V | 01:35:00 | 02:05:34 | 00:00:00 | |
| DL6DJ-15 | 2026-08-31 05:33:13 | 48.12114 | 12.16781 | 41° | 37km/h | 23539m | -16.9m/s | -54.1°C | 1.2% | 33.7hPa | 2.7V | 00:00:00 | 00:00:00 | 00:00:00 | |
| DO3MHA-12 | 2026-08-31 05:33:12 | 48.12114 | 12.16781 | 42° | 29km/h | 23539m | -16.9m/s | -54.0°C | 4.3% | 33.6hPa | 2.7V | 01:35:00 | 02:05:31 | 00:00:00 | |
| BAUMI2-15 | 2026-08-31 05:33:11 | 48.12108 | 12.16770 | 60° | 29km/h | 23556m | -16.8m/s | -54.0°C | 4.3% | 33.6hPa | 2.7V | 01:35:00 | 02:05:30 | 00:00:00 | |
| OE5MMP-10 | 2026-08-31 05:33:08 | 48.12107 | 12.16736 | 116° | 27km/h | 23606m | -16.5m/s | -54.0°C | 4.3% | 33.3hPa | 2.7V | 00:00:00 | 02:05:27 | 00:00:00 | |
| DF1GD-15 | 2026-08-31 05:33:07 | 48.12107 | 12.16736 | 116° | 27km/h | 23606m | -16.5m/s | -54.1°C | 1.2% | 33.4hPa | 2.7V | 00:00:00 | 00:00:00 | 00:00:00 | |
| BAUMI2-15 | 2026-08-31 05:33:06 | 48.12116 | 12.16722 | 159° | 26km/h | 23639m | -16.9m/s | -54.1°C | 4.3% | 33.2hPa | 2.7V | 00:00:00 | 02:05:25 | 00:00:00 | |
| DO3MHA-11 | 2026-08-31 05:33:05 | 48.12122 | 12.16720 | 182° | 29km/h | 23657m | -16.8m/s | -54.1°C | 4.3% | 33.1hPa | 2.7V | 00:00:00 | 02:05:24 | 00:00:00 | |
| DO3MHA-12 | 2026-08-31 05:33:02 | 48.12136 | 12.16734 | 249° | 33km/h | 23709m | -17.2m/s | -54.1°C | 4.4% | 32.8hPa | 2.7V | 00:00:00 | 02:05:21 | 00:00:00 | |
| DM7RM-13 | 2026-08-31 05:33:01 | 48.12136 | 12.16734 | 249° | 27km/h | 23709m | -17.3m/s | -54.2°C | 1.3% | 32.8hPa | 2.7V | 00:00:00 | 00:00:00 | 00:00:00 | |
| DL1ZP-14 | 2026-08-31 05:32:56 | 48.12102 | 12.16773 | 22° | 35km/h | 23828m | -17.5m/s | -53.7°C | 1.2% | 32.2hPa | 2.7V | 00:00:00 | 00:00:00 | 00:00:00 | |
| DM0DOS-11 | 2026-08-31 05:32:55 | 48.12088 | 12.16756 | 51° | 38km/h | 23862m | -17.1m/s | -53.9°C | 4.3% | 32.1hPa | 2.6V | 01:35:34 | 02:05:12 | 00:00:00 | |
| SONDE2-11 | 2026-08-31 05:32:52 | 48.12080 | 12.16729 | 80° | 38km/h | 23896m | -17.0m/s | -54.1°C | 1.2% | 31.9hPa | 2.6V | 00:00:00 | 00:00:00 | 00:00:00 | |
| EDDB2-11 | 2026-08-31 05:32:46 | 48.12104 | 12.16667 | 159° | 38km/h | 23981m | -18.0m/s | -54.3°C | 1.2% | 31.4hPa | 2.6V | 00:00:00 | 00:00:00 | 00:00:00 | |
| DM0DOS-11 | 2026-08-31 05:32:45 | 48.12135 | 12.16669 | 203° | 44km/h | 24032m | -18.4m/s | -54.5°C | 4.7% | 31.2hPa | 2.6V | 01:35:44 | 02:05:02 | 00:00:00 | |
| DO3MHA-11 | 2026-08-31 05:32:45 | 48.12114 | 12.16663 | 176° | 42km/h | 23998m | -17.8m/s | -54.3°C | 4.6% | 31.3hPa | 2.7V | 00:00:00 | 02:05:04 | 00:00:00 | |
| DO3MHA-12 | 2026-08-31 05:32:42 | 48.12144 | 12.16677 | 218° | 40km/h | 24051m | -19.2m/s | -54.4°C | 4.7% | 31.0hPa | 2.6V | 00:00:00 | 02:05:01 | 00:00:00 | |
| DM7RM-13 | 2026-08-31 05:32:41 | 48.12144 | 12.16677 | 219° | 44km/h | 24051m | -19.3m/s | -54.5°C | 1.3% | 31.1hPa | 2.6V | 00:00:00 | 00:00:00 | 00:00:00 | |
| NBG1-10 | 2026-08-31 05:32:40 | 48.12157 | 12.16703 | 249° | 38km/h | 24088m | -18.2m/s | -54.3°C | 4.6% | 30.9hPa | 2.6V | 00:00:00 | 02:04:59 | 00:00:00 | |
| PG1ADW-2 | 2026-08-31 05:32:39 | 48.12159 | 12.16717 | 266° | 35km/h | 24106m | -17.7m/s | -54.2°C | 4.6% | 30.8hPa | 2.6V | 01:35:00 | 00:00:00 | 00:00:00 | |
| OE5MMP-10 | 2026-08-31 05:32:38 | 48.12159 | 12.16733 | 281° | 35km/h | 24124m | -17.4m/s | -54.1°C | 4.6% | 30.7hPa | 2.6V | 01:35:00 | 02:04:57 | 00:00:00 | |
| DB0UT-7 | 2026-08-31 05:32:36 | 48.12152 | 12.16760 | 309° | 38km/h | 24159m | -17.5m/s | -54.0°C | 4.6% | 30.5hPa | 2.6V | 00:00:00 | 00:00:00 | 00:00:00 | |
| OE5WHR-10 | 2026-08-31 05:32:34 | 48.12137 | 12.16778 | 340° | 37km/h | 24194m | -17.7m/s | -53.9°C | 4.6% | 30.3hPa | 2.6V | 01:35:00 | 00:00:00 | 00:00:00 | |
| DO3MHA-12 | 2026-08-31 05:32:32 | 48.12122 | 12.16780 | 19° | 31km/h | 24228m | -17.7m/s | -53.6°C | 4.4% | 30.2hPa | 2.6V | 01:35:00 | 02:04:51 | 00:00:00 | |
| DK5PH-5 | 2026-08-31 05:32:31 | 48.12116 | 12.16775 | 41° | 37km/h | 24246m | -18.0m/s | -53.4°C | 4.4% | 30.1hPa | 2.6V | 01:35:00 | 02:04:50 | 00:00:00 | |
| OE5DXL-15 | 2026-08-31 05:32:29 | 48.12111 | 12.16758 | 83° | 37km/h | 24282m | -18.7m/s | -53.2°C | 4.3% | 29.9hPa | 2.6V | 00:00:00 | 00:00:00 | 00:00:00 | |
| OE5MMP-10 | 2026-08-31 05:32:28 | 48.12112 | 12.16747 | 102° | 35km/h | 24301m | -18.9m/s | -53.2°C | 4.3% | 29.8hPa | 2.6V | 00:00:00 | 02:04:47 | 00:00:00 | |
| DM0DOS-11 | 2026-08-31 05:32:25 | 48.12151 | 12.16721 | 206° | 37km/h | 24411m | -18.7m/s | -52.9°C | 4.2% | 29.4hPa | 2.6V | 01:36:05 | 02:04:41 | 00:00:00 | |
| DO3MHA-11 | 2026-08-31 05:32:25 | 48.12126 | 12.16721 | 153° | 38km/h | 24356m | -19.1m/s | -53.0°C | 4.2% | 29.6hPa | 2.7V | 00:00:00 | 02:04:44 | 00:00:00 | |
| DL1ZP-14 | 2026-08-31 05:32:24 | 48.12134 | 12.16717 | 168° | 33km/h | 24375m | -18.6m/s | -53.0°C | 1.1% | 29.5hPa | 2.7V | 00:00:00 | 00:00:00 | 00:00:00 | |
| OE5DRO-10 | 2026-08-31 05:32:21 | 48.12159 | 12.16729 | 223° | 40km/h | 24429m | -18.7m/s | -52.8°C | 4.1% | 29.3hPa | 2.7V | 01:36:00 | 00:00:00 | 00:00:00 | |
| SONDE2-11 | 2026-08-31 05:32:20 | 48.12165 | 12.16741 | 238° | 38km/h | 24448m | -18.7m/s | -52.8°C | 1.1% | 29.2hPa | 2.7V | 00:00:00 | 00:00:00 | 00:00:00 | |
| OE5MMP-10 | 2026-08-31 05:32:18 | 48.12171 | 12.16770 | 271° | 44km/h | 24485m | -18.5m/s | -52.9°C | 4.2% | 29.1hPa | 2.7V | 01:36:00 | 02:04:37 | 00:00:00 | |
| DO3MHA-11 | 2026-08-31 05:32:15 | 48.12160 | 12.16816 | 312° | 42km/h | 24539m | -18.2m/s | -52.8°C | 4.2% | 28.8hPa | 2.6V | 01:36:00 | 02:04:34 | 00:00:00 | |
| OE5WHR-10 | 2026-08-31 05:32:13 | 48.12141 | 12.16836 | 336° | 37km/h | 24575m | -18.4m/s | -52.6°C | 4.2% | 28.6hPa | 2.7V | 00:00:00 | 00:00:00 | 00:00:00 | |
| DO3MHA-12 | 2026-08-31 05:32:12 | 48.12130 | 12.16842 | 349° | 37km/h | 24594m | -18.8m/s | -52.6°C | 4.1% | 28.5hPa | 2.7V | 01:36:00 | 02:04:31 | 00:00:00 | |
| DM0DOS-11 | 2026-08-31 05:32:10 | 48.12086 | 12.16786 | 100° | 29km/h | 24724m | -18.6m/s | -52.3°C | 4% | 28hPa | 2.7V | 01:36:22 | 02:04:24 | 00:00:00 | |
| OE5MMP-10 | 2026-08-31 05:32:08 | 48.12095 | 12.16822 | 50° | 31km/h | 24669m | -19.0m/s | -52.5°C | 4.1% | 28.1hPa | 2.7V | 00:00:00 | 02:04:27 | 00:00:00 | |
| NBG1-10 | 2026-08-31 05:32:07 | 48.12089 | 12.16810 | 62° | 35km/h | 24687m | -18.8m/s | -52.4°C | 4.0% | 28.0hPa | 2.7V | 01:36:00 | 02:04:26 | 00:00:00 | |
| DB0UT-7 | 2026-08-31 05:32:06 | 48.12086 | 12.16797 | 81° | 37km/h | 24706m | -18.5m/s | -52.3°C | 4.1% | 28.1hPa | 2.7V | 01:36:00 | 02:04:25 | 00:00:00 | |
| DO3MHA-11 | 2026-08-31 05:32:05 | 48.12086 | 12.16786 | 101° | 31km/h | 24724m | -18.5m/s | -52.2°C | 4.0% | 27.9hPa | 2.7V | 00:00:00 | 02:04:24 | 00:00:00 | |
| DF1GD-15 | 2026-08-31 05:32:04 | 48.12086 | 12.16786 | 101° | 29km/h | 24724m | -18.6m/s | -52.3°C | 1.1% | 28.0hPa | 2.7V | 00:00:00 | 00:00:00 | 00:00:00 | |
| DO3MHA-12 | 2026-08-31 05:32:02 | 48.12099 | 12.16765 | 171° | 35km/h | 24779m | -19.3m/s | -52.3°C | 4.0% | 27.7hPa | 2.7V | 00:00:00 | 02:04:21 | 00:00:00 | |
| DL1ZP-14 | 2026-08-31 05:31:53 | 48.12113 | 12.16852 | 321° | 42km/h | 24950m | -18.3m/s | -52.6°C | 1.1% | 27.0hPa | 2.7V | 00:00:00 | 00:00:00 | 00:00:00 | |
| SONDE2-11 | 2026-08-31 05:31:49 | 48.12073 | 12.16863 | 18° | 42km/h | 25026m | -19.9m/s | -52.7°C | 1.1% | 26.7hPa | 2.7V | 00:00:00 | 00:00:00 | 00:00:00 | |
| EDDB2-11 | 2026-08-31 05:31:44 | 48.12049 | 12.16808 | 97° | 37km/h | 25123m | -20.7m/s | -52.6°C | 1.1% | 26.3hPa | 2.7V | 00:00:00 | 00:00:00 | 00:00:00 | |
| OE5DRO-10 | 2026-08-31 05:31:43 | 48.12051 | 12.16795 | 113° | 40km/h | 25143m | -20.6m/s | -52.6°C | 4.2% | 26.1hPa | 2.7V | 01:36:00 | 00:00:00 | 00:00:00 | |
| DO3MHA-12 | 2026-08-31 05:31:41 | 48.12060 | 12.16779 | 152° | 37km/h | 25182m | -19.5m/s | -52.7°C | 4.3% | 26.0hPa | 2.7V | 00:00:00 | 02:04:00 | 00:00:00 | |
| PG1ADW-2 | 2026-08-31 05:31:39 | 48.12073 | 12.16778 | 208° | 42km/h | 25220m | -18.9m/s | -52.7°C | 4.3% | 25.9hPa | 2.7V | 00:00:00 | 00:00:00 | 00:00:00 | |
| OE5MMP-10 | 2026-08-31 05:31:38 | 48.12078 | 12.16785 | 229° | 44km/h | 25239m | -19.5m/s | -52.6°C | 4.2% | 25.8hPa | 2.7V | 01:36:00 | 02:03:57 | 00:00:00 | |
| DG1MFX-10 | 2026-08-31 05:31:37 | 48.12078 | 12.16785 | 229° | 33km/h | 25239m | -19.6m/s | -52.6°C | 1.2% | 25.8hPa | 2.7V | 01:37:00 | 00:00:00 | 00:00:00 | |
| DO3MHA-11 | 2026-08-31 05:31:35 | 48.12086 | 12.16824 | 277° | 47km/h | 25299m | -19.6m/s | -52.3°C | 4.2% | 25.6hPa | 2.7V | 01:36:00 | 02:03:54 | 00:00:00 | |
| NBG1-10 | 2026-08-31 05:31:34 | 48.12084 | 12.16840 | 287° | 46km/h | 25319m | -19.1m/s | -52.3°C | 4.2% | 25.5hPa | 2.7V | 00:00:00 | 02:03:53 | 00:00:00 | |
| OE9MKV-15 | 2026-08-31 05:31:32 | 48.12073 | 12.16872 | 311° | 42km/h | 25358m | -20.3m/s | -52.2°C | 4.2% | 25.3hPa | 2.6V | 01:36:00 | 02:03:51 | 00:00:00 | |
| DO3MHA-12 | 2026-08-31 05:31:31 | 48.12064 | 12.16884 | 328° | 46km/h | 25378m | -19.3m/s | -52.1°C | 4.2% | 25.3hPa | 2.7V | 01:36:00 | 02:03:50 | 00:00:00 | |
| OE5DXL-15 | 2026-08-31 05:31:29 | 48.12041 | 12.16897 | 352° | 44km/h | 25417m | -20.7m/s | -51.9°C | 4.1% | 25.1hPa | 2.7V | 00:00:00 | 00:00:00 | 00:00:00 | |
| OE5MMP-10 | 2026-08-31 05:31:28 | 48.12029 | 12.16897 | 9° | 42km/h | 25437m | -19.5m/s | -51.9°C | 4.1% | 25.0hPa | 2.7V | 00:00:00 | 02:03:47 | 00:00:00 | |
| DO3MHA-11 | 2026-08-31 05:31:25 | 48.12001 | 12.16873 | 55° | 38km/h | 25496m | -19.4m/s | -51.6°C | 4.1% | 24.8hPa | 2.7V | 00:00:00 | 02:03:44 | 00:00:00 | |
| OE5DRO-10 | 2026-08-31 05:31:24 | 48.11995 | 12.16858 | 64° | 44km/h | 25516m | -19.9m/s | -51.6°C | 4.1% | 24.7hPa | 2.7V | 00:00:00 | 00:00:00 | 00:00:00 | |
| DM0DOS-11 | 2026-08-31 05:31:23 | 48.12015 | 12.16788 | 172° | 33km/h | 25636m | -20.6m/s | -51.1°C | 3.9% | 24.3hPa | 2.7V | 01:37:09 | 02:03:37 | 00:00:00 | |
| DL1ZP-14 | 2026-08-31 05:31:22 | 48.11993 | 12.16828 | 96° | 42km/h | 25555m | -20.9m/s | -51.5°C | 1.1% | 24.6hPa | 2.6V | 00:00:00 | 00:00:00 | 00:00:00 | |
| DO3MHA-12 | 2026-08-31 05:31:21 | 48.11995 | 12.16814 | 115° | 38km/h | 25575m | -20.5m/s | -51.3°C | 4.0% | 24.5hPa | 2.6V | 00:00:00 | 02:03:40 | 00:00:00 | |
| DF1GD-15 | 2026-08-31 05:31:20 | 48.11995 | 12.16814 | 115° | 37km/h | 25575m | -20.5m/s | -51.3°C | 1.1% | 24.5hPa | 2.7V | 01:37:00 | 00:00:00 | 00:00:00 | |
| DB0NH | 2026-08-31 05:31:19 | 48.12008 | 12.16793 | 144° | 42km/h | 25616m | -20.8m/s | -51.0°C | 3.9% | 24.3hPa | 2.7V | 00:00:00 | 02:03:38 | 00:00:00 | |
| DO3MHA-11 | 2026-08-31 05:31:15 | 48.12038 | 12.16799 | 228° | 51km/h | 25696m | -20.6m/s | -50.9°C | 3.8% | 24.0hPa | 2.6V | 01:37:00 | 02:03:34 | 00:00:00 | |
| EDDB2-11 | 2026-08-31 05:31:13 | 48.12045 | 12.16826 | 263° | 47km/h | 25736m | -20.9m/s | -51.0°C | 1.0% | 23.9hPa | 2.6V | 00:00:00 | 00:00:00 | 00:00:00 | |
| DO3MHA-12 | 2026-08-31 05:31:11 | 48.12042 | 12.16862 | 289° | 53km/h | 25778m | -20.3m/s | -50.9°C | 3.9% | 23.7hPa | 2.6V | 01:37:00 | 02:03:30 | 00:00:00 | |
| OE5WHR-10 | 2026-08-31 05:31:10 | 48.12036 | 12.16880 | 300° | 42km/h | 25798m | -21.1m/s | -50.7°C | 3.8% | 23.6hPa | 2.6V | 01:37:00 | 00:00:00 | 00:00:00 | |
| DM0DOS-11 | 2026-08-31 05:31:09 | 48.11992 | 12.16928 | 348° | 57km/h | 25879m | -21.3m/s | -50.5°C | 3.7% | 23.4hPa | 2.6V | 01:37:21 | 02:03:25 | 00:00:00 | |
| OE5MMP-10 | 2026-08-31 05:31:08 | 48.12017 | 12.16911 | 322° | 47km/h | 25839m | -21.1m/s | -50.4°C | 3.8% | 23.5hPa | 2.7V | 00:00:00 | 02:03:27 | 00:00:00 | |
| DO3MHA-11 | 2026-08-31 05:31:05 | 48.11979 | 12.16929 | 3° | 40km/h | 25900m | -20.5m/s | -50.5°C | 3.8% | 23.3hPa | 2.7V | 00:00:00 | 02:03:24 | 00:00:00 | |
| DM0DOS-11 | 2026-08-31 05:31:01 | 48.11954 | 12.16838 | 159° | 31km/h | 26087m | -21m/s | -50.2°C | 3.6% | 22.7hPa | 2.7V | 01:37:31 | 02:03:15 | 00:00:00 | |
| DO3MHA-12 | 2026-08-31 05:31:01 | 48.11941 | 12.16895 | 62° | 35km/h | 25982m | -20.8m/s | -50.5°C | 3.8% | 22.9hPa | 2.7V | 00:00:00 | 02:03:20 | 00:00:00 | |
| OE5DXL-15 | 2026-08-31 05:30:59 | 48.11939 | 12.16866 | 99° | 38km/h | 26024m | -21.5m/s | -50.3°C | 3.8% | 22.8hPa | 2.7V | 01:37:00 | 00:00:00 | 00:00:00 | |
| OE5MMP-10 | 2026-08-31 05:30:58 | 48.11942 | 12.16854 | 123° | 33km/h | 26045m | -21.4m/s | -50.3°C | 3.7% | 22.8hPa | 2.7V | 01:37:00 | 02:03:17 | 00:00:00 | |
| DG1MFX-10 | 2026-08-31 05:30:57 | 48.11942 | 12.16854 | 124° | 33km/h | 26045m | -21.4m/s | -50.3°C | 1.0% | 22.8hPa | 2.7V | 01:37:00 | 00:00:00 | 00:00:00 | |
| DM7RM-13 | 2026-08-31 05:30:56 | 48.11947 | 12.16845 | 138° | 35km/h | 26066m | -21.9m/s | -50.2°C | 1.0% | 22.7hPa | 2.7V | 01:37:00 | 00:00:00 | 00:00:00 | |
| DO3MHA-11 | 2026-08-31 05:30:55 | 48.11962 | 12.16836 | 184° | 35km/h | 26107m | -21.9m/s | -50.1°C | 3.7% | 22.5hPa | 2.7V | 01:37:00 | 02:03:14 | 00:00:00 | |
| DG1MJG | 2026-08-31 05:30:53 | 48.11969 | 12.16839 | 200° | 31km/h | 26129m | -21.7m/s | -50.1°C | 0.9% | 22.5hPa | 2.7V | 01:38:00 | 00:00:00 | 00:00:00 | |
| DO3MHA-12 | 2026-08-31 05:30:51 | 48.11984 | 12.16867 | 266° | 37km/h | 26191m | -21.4m/s | -50.0°C | 3.7% | 22.2hPa | 2.7V | 01:37:00 | 02:03:10 | 00:00:00 | |
| BAUMI2-15 | 2026-08-31 05:30:50 | 48.11984 | 12.16880 | 278° | 38km/h | 26213m | -22.6m/s | -49.8°C | 3.7% | 22.1hPa | 2.7V | 01:37:00 | 02:03:09 | 00:00:00 | |
| DB0NH | 2026-08-31 05:30:49 | 48.11981 | 12.16893 | 297° | 37km/h | 26234m | -21.6m/s | -49.8°C | 3.6% | 22.1hPa | 2.6V | 01:37:00 | 02:03:08 | 00:00:00 | |
| OE5MMP-10 | 2026-08-31 05:30:48 | 48.11975 | 12.16904 | 315° | 37km/h | 26255m | -21.3m/s | -49.7°C | 3.5% | 22.0hPa | 2.6V | 00:00:00 | 02:03:07 | 00:00:00 | |
| OE9MKV-15 | 2026-08-31 05:30:47 | 48.11968 | 12.16913 | 326° | 29km/h | 26277m | -21.6m/s | -49.7°C | 3.5% | 21.9hPa | 2.6V | 00:00:00 | 02:03:06 | 00:00:00 | |
| OE5DRO-10 | 2026-08-31 05:30:46 | 48.11960 | 12.16918 | 348° | 42km/h | 26298m | -20.3m/s | -49.7°C | 3.5% | 21.9hPa | 2.6V | 00:00:00 | 00:00:00 | 00:00:00 | |
| DO3MHA-11 | 2026-08-31 05:30:45 | 48.11950 | 12.16920 | 1° | 38km/h | 26318m | -22.1m/s | -49.7°C | 3.6% | 21.8hPa | 2.7V | 00:00:00 | 02:03:04 | 00:00:00 | |
| DB0UT-7 | 2026-08-31 05:30:44 | 48.11941 | 12.16917 | 25° | 42km/h | 26339m | -21.4m/s | -49.7°C | 3.5% | 21.7hPa | 2.7V | 01:37:00 | 02:03:03 | 00:00:00 | |
| DM0DOS-11 | 2026-08-31 05:30:42 | 48.11937 | 12.16838 | 147° | 40km/h | 26489m | -22.1m/s | -50.3°C | 3.8% | 21.3hPa | 2.7V | 01:37:50 | 02:02:56 | 00:00:00 | |
| DF7PN | 2026-08-31 05:30:42 | 48.11927 | 12.16901 | 56° | 35km/h | 26381m | -21.3m/s | -49.8°C | 0.9% | 21.7hPa | 2.7V | 00:00:00 | 00:00:00 | 00:00:00 | |
| DO3MHA-12 | 2026-08-31 05:30:41 | 48.11924 | 12.16888 | 75° | 42km/h | 26403m | -22.7m/s | -49.8°C | 3.6% | 21.5hPa | 2.7V | 00:00:00 | 02:03:00 | 00:00:00 | |
| BAUMI2-15 | 2026-08-31 05:30:40 | 48.11923 | 12.16875 | 92° | 38km/h | 26425m | -21.3m/s | -49.9°C | 3.6% | 21.4hPa | 2.7V | 01:37:00 | 02:02:59 | 00:00:00 | |
| PG1ADW-2 | 2026-08-31 05:30:39 | 48.11925 | 12.16861 | 114° | 44km/h | 26446m | -22.4m/s | -50.0°C | 3.7% | 21.4hPa | 2.7V | 01:37:00 | 02:02:58 | 00:00:00 | |
| OE5MMP-10 | 2026-08-31 05:30:38 | 48.11930 | 12.16848 | 127° | 44km/h | 26468m | -21.8m/s | -50.1°C | 3.7% | 21.3hPa | 2.7V | 01:37:00 | 02:02:57 | 00:00:00 | |
| DM7RM-13 | 2026-08-31 05:30:37 | 48.11937 | 12.16838 | 148° | 40km/h | 26489m | -22.1m/s | -50.3°C | 1.0% | 21.3hPa | 2.7V | 00:00:00 | 00:00:00 | 00:00:00 | |
| DO3MHA-11 | 2026-08-31 05:30:35 | 48.11957 | 12.16828 | 183° | 46km/h | 26533m | -22.6m/s | -50.3°C | 3.8% | 21.1hPa | 2.7V | 01:37:00 | 02:02:54 | 00:00:00 | |
| DO3MHA-12 | 2026-08-31 05:30:31 | 48.11995 | 12.16860 | 243° | 47km/h | 26624m | -22.3m/s | -50.4°C | 3.9% | 20.8hPa | 2.7V | 01:37:00 | 02:02:50 | 00:00:00 | |
| BAUMI2-15 | 2026-08-31 05:30:30 | 48.11999 | 12.16876 | 255° | 47km/h | 26646m | -23.1m/s | -50.3°C | 3.9% | 20.7hPa | 2.7V | 01:37:00 | 02:02:49 | 00:00:00 | |
| OE5DXL-15 | 2026-08-31 05:30:29 | 48.12000 | 12.16893 | 276° | 40km/h | 26668m | -22.2m/s | -50.2°C | 3.8% | 20.7hPa | 2.7V | 00:00:00 | 00:00:00 | 00:00:00 | |
| OE5WHR-10 | 2026-08-31 05:30:28 | 48.11997 | 12.16909 | 290° | 40km/h | 26690m | -21.4m/s | -50.1°C | 3.9% | 20.6hPa | 2.7V | 01:37:00 | 00:00:00 | 00:00:00 | |
| OE5DRO-10 | 2026-08-31 05:30:27 | 48.11992 | 12.16925 | 309° | 38km/h | 26711m | -21.6m/s | -50.0°C | 3.8% | 20.5hPa | 2.7V | 01:38:00 | 00:00:00 | 00:00:00 | |
| DO3MHA-11 | 2026-08-31 05:30:25 | 48.11972 | 12.16944 | 342° | 44km/h | 26754m | -22.5m/s | -49.8°C | 3.7% | 20.4hPa | 2.7V | 00:00:00 | 02:02:44 | 00:00:00 | |
| DG1MJG | 2026-08-31 05:30:23 | 48.11960 | 12.16947 | 357° | 53km/h | 26777m | -22.8m/s | -49.8°C | 1.0% | 20.4hPa | 2.7V | 01:38:00 | 00:00:00 | 00:00:00 | |
| DO3MHA-12 | 2026-08-31 05:30:21 | 48.11925 | 12.16932 | 36° | 35km/h | 26843m | -22.2m/s | -49.6°C | 3.7% | 20.1hPa | 2.7V | 00:00:00 | 02:02:40 | 00:00:00 | |
| BAUMI2-15 | 2026-08-31 05:30:20 | 48.11917 | 12.16920 | 55° | 38km/h | 26865m | -22.6m/s | -49.6°C | 3.8% | 20.0hPa | 2.7V | 01:38:00 | 02:02:39 | 00:00:00 | |
| OE5HKT-10 | 2026-08-31 05:30:19 | 48.11912 | 12.16906 | 68° | 35km/h | 26887m | -22.2m/s | -49.5°C | 3.7% | 19.9hPa | 2.6V | 00:00:00 | 02:02:38 | 00:00:00 | |
| OE5MMP-10 | 2026-08-31 05:30:18 | 48.11910 | 12.16891 | 91° | 31km/h | 26909m | -23.3m/s | -49.3°C | 3.7% | 19.9hPa | 2.6V | 01:38:00 | 02:02:37 | 00:00:00 | |
| DF1GD-15 | 2026-08-31 05:30:17 | 48.11910 | 12.16891 | 92° | 40km/h | 26909m | -23.4m/s | -49.4°C | 1.0% | 19.9hPa | 2.7V | 00:00:00 | 00:00:00 | 00:00:00 | |
| SONDE2-11 | 2026-08-31 05:30:16 | 48.11915 | 12.16867 | 125° | 31km/h | 26953m | -23.7m/s | -49.1°C | 0.9% | 19.8hPa | 2.7V | 00:00:00 | 00:00:00 | 00:00:00 | |
| DO3MHA-11 | 2026-08-31 05:30:15 | 48.11921 | 12.16859 | 151° | 35km/h | 26977m | -23.1m/s | -49.0°C | 3.5% | 19.7hPa | 2.7V | 01:38:00 | 02:02:34 | 00:00:00 | |
| DB0UT-7 | 2026-08-31 05:30:14 | 48.11928 | 12.16855 | 172° | 44km/h | 26999m | -24.0m/s | -48.9°C | 3.6% | 19.6hPa | 2.6V | 00:00:00 | 00:00:00 | 00:00:00 | |
| DO3MHA-12 | 2026-08-31 05:30:11 | 48.11945 | 12.16868 | 243° | 40km/h | 27068m | -23.0m/s | -48.9°C | 3.6% | 19.4hPa | 2.6V | 01:38:00 | 02:02:30 | 00:00:00 | |
| BAUMI2-15 | 2026-08-31 05:30:10 | 48.11948 | 12.16879 | 263° | 40km/h | 27091m | -23.1m/s | -48.9°C | 3.6% | 19.4hPa | 2.6V | 01:38:00 | 02:02:29 | 00:00:00 | |
| OE5MMP-10 | 2026-08-31 05:30:08 | 48.11944 | 12.16904 | 301° | 40km/h | 27137m | -22.2m/s | -48.8°C | 3.6% | 19.2hPa | 2.6V | 00:00:00 | 02:02:27 | 00:00:00 | |
| OE5WHR-10 | 2026-08-31 05:30:07 | 48.11938 | 12.16916 | 315° | 44km/h | 27159m | -23.5m/s | -48.8°C | 3.6% | 19.1hPa | 2.6V | 00:00:00 | 00:00:00 | 00:00:00 | |
| DL6DJ-15 | 2026-08-31 05:30:06 | 48.11930 | 12.16925 | 333° | 44km/h | 27182m | -23.0m/s | -48.7°C | 0.9% | 19.1hPa | 2.6V | 00:00:00 | 00:00:00 | 00:00:00 | |
| DM0DOS-11 | 2026-08-31 05:30:05 | 48.11882 | 12.16917 | 47° | 38km/h | 27297m | -23.5m/s | -48.4°C | 3.5% | 18.7hPa | 2.6V | 01:38:26 | 02:02:20 | 00:00:00 | |
| DO3MHA-11 | 2026-08-31 05:30:05 | 48.11919 | 12.16932 | 343° | 40km/h | 27205m | -23.7m/s | -48.6°C | 3.5% | 19.0hPa | 2.7V | 00:00:00 | 02:02:24 | 00:00:00 | |
| DC4HF-4 | 2026-08-31 05:29:57 | 48.11886 | 12.16867 | 138° | 37km/h | 27389m | -24.6m/s | -48.0°C | 0.9% | 18.5hPa | 2.7V | 00:00:00 | 00:00:00 | 00:00:00 | |
| SONCRA | 2026-08-31 05:29:53 | 48.11955 | 12.16942 | 277° | 53km/h | 27603m | -25.1m/s | -47.9°C | 0.9% | 17.9hPa | 2.7V | 00:00:00 | 00:00:00 | 00:00:00 | |
| DO3MHA-12 | 2026-08-31 05:29:51 | 48.11947 | 12.16885 | 236° | 49km/h | 27531m | -24.1m/s | -47.6°C | 3.3% | 18.1hPa | 2.7V | 01:38:00 | 02:02:10 | 00:00:00 | |
| BAUMI2-15 | 2026-08-31 05:29:50 | 48.11953 | 12.16902 | 250° | 53km/h | 27555m | -25.0m/s | -47.7°C | 3.3% | 18.0hPa | 2.6V | 01:38:00 | 02:02:09 | 00:00:00 | |
| OE5DRO-10 | 2026-08-31 05:29:49 | 48.11955 | 12.16922 | 268° | 44km/h | 27580m | -24.3m/s | -47.8°C | 3.3% | 18.0hPa | 2.6V | 01:38:00 | 00:00:00 | 00:00:00 | |
| OE5MMP-10 | 2026-08-31 05:29:48 | 48.11955 | 12.16942 | 278° | 44km/h | 27604m | -25.0m/s | -47.8°C | 3.4% | 17.8hPa | 2.7V | 00:00:00 | 02:02:07 | 00:00:00 | |
| OE5WHR-10 | 2026-08-31 05:29:46 | 48.11945 | 12.16977 | 304° | 46km/h | 27651m | -24.1m/s | -47.8°C | 3.4% | 17.7hPa | 2.6V | 01:38:00 | 02:02:05 | 00:00:00 | |
| DM0DOS-11 | 2026-08-31 05:29:45 | 48.11906 | 12.17001 | 15° | 38km/h | 27745m | -23.9m/s | -47.8°C | 3.4% | 17.6hPa | 2.6V | 01:38:45 | 02:02:01 | 00:00:00 | |
| SONDE2-11 | 2026-08-31 05:29:45 | 48.11926 | 12.16999 | 335° | 42km/h | 27697m | -24.2m/s | -47.8°C | 0.8% | 17.7hPa | 2.6V | 00:00:00 | 00:00:00 | 00:00:00 | |
| HSKMA3-T | 2026-08-31 05:29:40 | 48.11891 | 12.16986 | 57° | 35km/h | 27792m | -23.8m/s | -47.8°C | 0.3% | 17.4hPa | 2.6V | 01:40:04 | 02:01:59 | 00:00:00 | |
| DB0NH | 2026-08-31 05:29:40 | 48.11890 | 12.16986 | 57° | 42km/h | 27793m | -23.8m/s | -47.7°C | 3.4% | 17.4hPa | 2.7V | 00:00:00 | 02:01:59 | 00:00:00 | |
| PG1ADW-2 | 2026-08-31 05:29:39 | 48.11887 | 12.16974 | 73° | 27km/h | 27816m | -24.4m/s | -47.7°C | 3.4% | 17.2hPa | 2.7V | 00:00:00 | 00:00:00 | 00:00:00 | |
| OE5MMP-10 | 2026-08-31 05:29:38 | 48.11887 | 12.16961 | 102° | 46km/h | 27840m | -23.9m/s | -47.7°C | 3.4% | 17.3hPa | 2.7V | 01:38:00 | 02:01:57 | 00:00:00 | |
| DM0DOS-11 | 2026-08-31 05:29:35 | 48.11938 | 12.16940 | 208° | 49km/h | 27987m | -26m/s | -47.6°C | 3.4% | 16.9hPa | 2.7V | 01:38:55 | 02:01:51 | 00:00:00 | |
| DO3MHA-11 | 2026-08-31 05:29:35 | 48.11905 | 12.16932 | 164° | 51km/h | 27912m | -25.1m/s | -47.5°C | 3.4% | 17.0hPa | 2.6V | 01:38:00 | 02:01:54 | 00:00:00 | |
| OE5HKT-10 | 2026-08-31 05:29:34 | 48.11916 | 12.16930 | 180° | 42km/h | 27937m | -25.9m/s | -47.5°C | 3.4% | 17.0hPa | 2.6V | 00:00:00 | 00:00:00 | 00:00:00 | |
| DM7RM-13 | 2026-08-31 05:29:32 | 48.11927 | 12.16933 | 199° | 46km/h | 27962m | -25.0m/s | -47.6°C | 0.9% | 17.0hPa | 2.6V | 01:39:00 | 00:00:00 | 00:00:00 | |
| DO3MHA-12 | 2026-08-31 05:29:31 | 48.11948 | 12.16951 | 226° | 55km/h | 28012m | -25.1m/s | -47.6°C | 3.4% | 16.8hPa | 2.6V | 01:38:00 | 02:01:50 | 00:00:00 | |
| BAUMI2-15 | 2026-08-31 05:29:30 | 48.11957 | 12.16966 | 236° | 55km/h | 28037m | -26.3m/s | -47.5°C | 3.4% | 16.7hPa | 2.6V | 01:38:00 | 02:01:49 | 00:00:00 | |
| OE5DXL-15 | 2026-08-31 05:29:29 | 48.11962 | 12.16984 | 253° | 35km/h | 28063m | -24.5m/s | -47.5°C | 3.4% | 16.7hPa | 2.6V | 00:00:00 | 00:00:00 | 00:00:00 | |
| DM0DOS-11 | 2026-08-31 05:29:25 | 48.11911 | 12.17100 | 359° | 47km/h | 28259m | -25m/s | -47°C | 3.3% | 16.3hPa | 2.7V | 01:39:06 | 02:01:40 | 00:00:00 | |
| HSKMA3-T | 2026-08-31 05:29:19 | 48.11888 | 12.17094 | 22° | 42km/h | 28310m | -25.2m/s | -46.9°C | 0.3% | 16.1hPa | 2.6V | 01:40:04 | 02:01:38 | 00:00:00 | |
| HSKMA3-T | 2026-08-31 05:29:08 | 48.11904 | 12.16979 | 152° | 31km/h | 28572m | -24.5m/s | -45.9°C | 0% | 15.4hPa | 2.7V | 01:40:04 | 02:01:27 | 00:00:00 | |
| HSKMA3-T | 2026-08-31 05:28:58 | 48.11929 | 12.16986 | 258° | 9km/h | 28847m | -12.2m/s | -45.1°C | 0% | 14.8hPa | 2.6V | 01:40:04 | 02:01:17 | 00:00:00 | |
| HSKMA3-T | 2026-08-31 05:28:47 | 48.11934 | 12.17015 | 323° | 13km/h | 28805m | 4.7m/s | -45.4°C | 0% | 14.9hPa | 2.6V | 01:40:04 | 02:01:06 | 00:00:00 | |
| DC4HF-4 | 2026-08-31 05:28:45 | 48.11930 | 12.17018 | 3° | 5km/h | 28795m | 5.0m/s | -45.5°C | 0.7% | 14.9hPa | 2.7V | 00:00:00 | 00:00:00 | 00:00:00 | |
| HSKMA3-T | 2026-08-31 05:28:36 | 48.11948 | 12.17018 | 154° | 9km/h | 28748m | 4.8m/s | -45.6°C | 0% | 15hPa | 2.7V | 01:40:04 | 02:00:55 | 00:00:00 | |
| DM0DOS-11 | 2026-08-31 05:28:35 | 48.11952 | 12.17014 | 133° | 4km/h | 28732m | 4.8m/s | -45.5°C | 3% | 15hPa | 2.6V | 01:39:54 | 02:00:52 | 00:00:00 | |
| HSKMA3-T | 2026-08-31 05:28:25 | 48.11966 | 12.16989 | 173° | 16km/h | 28690m | 5.1m/s | -45.9°C | 0% | 15.1hPa | 2.7V | 01:40:04 | 02:00:44 | 00:00:00 | |
| DO3MHA-11 | 2026-08-31 05:28:25 | 48.11966 | 12.16989 | 173° | 9km/h | 28690m | 5.0m/s | -45.8°C | 2.9% | 15.1hPa | 2.7V | 00:00:00 | 02:00:44 | 00:00:00 | |
| SONCRA | 2026-08-31 05:28:20 | 48.11979 | 12.16990 | 245° | 2km/h | 28658m | 4.7m/s | -45.8°C | 0.8% | 15.2hPa | 2.7V | 00:00:00 | 00:00:00 | 00:00:00 | |
| DM0DOS-11 | 2026-08-31 05:28:19 | 48.11978 | 12.16989 | 56° | 5km/h | 28648m | 6.2m/s | -45.9°C | 3% | 15.2hPa | 2.7V | 01:40:10 | 02:00:36 | 00:00:00 | |
| HSKMA3-T | 2026-08-31 05:28:14 | 48.11976 | 12.16977 | 93° | 13km/h | 28632m | 4.8m/s | -45.9°C | 0% | 15.3hPa | 2.6V | 01:41:46 | 02:00:33 | 00:00:00 | |
| DB0UT-7 | 2026-08-31 05:28:14 | 48.11976 | 12.16977 | 94° | 11km/h | 28633m | 4.7m/s | -45.9°C | 3.0% | 15.2hPa | 2.6V | 00:00:00 | 00:00:00 | 00:00:00 | |
| DG1MFX-10 | 2026-08-31 05:28:13 | 48.11976 | 12.16977 | 94° | 13km/h | 28633m | 4.8m/s | -45.9°C | 0.8% | 15.3hPa | 2.6V | 01:40:00 | 00:00:00 | 00:00:00 | |
| SONDE2-11 | 2026-08-31 05:28:12 | 48.11978 | 12.16969 | 139° | 11km/h | 28622m | 4.8m/s | -46.0°C | 0.8% | 15.3hPa | 2.6V | 00:00:00 | 00:00:00 | 00:00:00 | |
| DO3MHA-12 | 2026-08-31 05:28:11 | 48.11981 | 12.16966 | 155° | 9km/h | 28617m | 4.5m/s | -46.0°C | 3.0% | 15.3hPa | 2.6V | 01:40:00 | 02:00:30 | 00:00:00 | |
| DF1GD-15 | 2026-08-31 05:28:10 | 48.11981 | 12.16966 | 155° | 13km/h | 28617m | 4.5m/s | -46.0°C | 0.8% | 15.3hPa | 2.6V | 01:40:00 | 00:00:00 | 00:00:00 | |
| OE5MMP-10 | 2026-08-31 05:28:09 | 48.11988 | 12.16962 | 151° | 11km/h | 28602m | 4.9m/s | -46.0°C | 2.9% | 15.3hPa | 2.6V | 00:00:00 | 02:00:27 | 00:00:00 | |
| DM7RM-13 | 2026-08-31 05:28:06 | 48.11988 | 12.16961 | 0° | 0km/h | 28597m | 4.7m/s | -46.2°C | 0.8% | 15.4hPa | 2.6V | 01:40:00 | 00:00:00 | 00:00:00 | |
| DM0DOS-11 | 2026-08-31 05:28:05 | 48.11982 | 12.16967 | 352° | 13km/h | 28575m | 5.3m/s | -46.2°C | 3% | 15.4hPa | 2.6V | 01:40:24 | 02:00:22 | 00:00:00 | |
| HSKMA3-T | 2026-08-31 05:28:03 | 48.11983 | 12.16967 | 352° | 13km/h | 28575m | 5.3m/s | -46.2°C | 0% | 15.4hPa | 2.6V | 01:41:46 | 02:00:22 | 00:00:00 | |
| DL6DJ-15 | 2026-08-31 05:28:02 | 48.11975 | 12.16965 | 22° | 16km/h | 28564m | 4.6m/s | -46.2°C | 0.8% | 15.4hPa | 2.7V | 00:00:00 | 00:00:00 | 00:00:00 | |
| OE5WHR-10 | 2026-08-31 05:28:01 | 48.11975 | 12.16965 | 23° | 13km/h | 28564m | 4.6m/s | -46.1°C | 3.0% | 15.4hPa | 2.7V | 00:00:00 | 00:00:00 | 00:00:00 | |
| OE5DXL-15 | 2026-08-31 05:27:59 | 48.11968 | 12.16958 | 35° | 11km/h | 28556m | 4.7m/s | -46.1°C | 3.1% | 15.4hPa | 2.7V | 01:40:00 | 00:00:00 | 00:00:00 | |
| OE5MMP-10 | 2026-08-31 05:27:58 | 48.11966 | 12.16956 | 27° | 11km/h | 28551m | 5.0m/s | -46.1°C | 3.0% | 15.4hPa | 2.6V | 01:40:00 | 02:00:17 | 00:00:00 | |
| DM0DOS-11 | 2026-08-31 05:27:55 | 48.11958 | 12.16967 | 319° | 13km/h | 28525m | 5m/s | -46.3°C | 3% | 15.5hPa | 2.6V | 01:40:34 | 02:00:12 | 00:00:00 | |
| HSKMA3-T | 2026-08-31 05:27:52 | 48.11956 | 12.16970 | 328° | 13km/h | 28520m | 4.9m/s | -46.3°C | 0% | 15.5hPa | 2.7V | 01:41:46 | 02:00:11 | 00:00:00 | |
| SONCRA | 2026-08-31 05:27:49 | 48.11945 | 12.16978 | 343° | 9km/h | 28499m | 4.8m/s | -46.6°C | 0.8% | 15.6hPa | 2.7V | 00:00:00 | 00:00:00 | 00:00:00 | |
| DL1ZP-14 | 2026-08-31 05:27:45 | 48.11935 | 12.16979 | 358° | 15km/h | 28483m | 4.5m/s | -46.8°C | 0.8% | 15.6hPa | 2.7V | 00:00:00 | 00:00:00 | 00:00:00 | |
| DM0DOS-11 | 2026-08-31 05:27:45 | 48.11926 | 12.16982 | 323° | 11km/h | 28466m | 5.1m/s | -46.7°C | 3.1% | 15.7hPa | 2.6V | 01:40:45 | 02:00:01 | 00:00:00 | |
| HSKMA3-T | 2026-08-31 05:27:42 | 48.11926 | 12.16982 | 324° | 11km/h | 28467m | 5.1m/s | -46.7°C | 0% | 15.7hPa | 2.6V | 01:41:46 | 02:00:01 | 00:00:00 | |
| DB0NH | 2026-08-31 05:27:41 | 48.11924 | 12.16985 | 314° | 11km/h | 28462m | 5.1m/s | -46.7°C | 3.1% | 15.6hPa | 2.6V | 01:40:00 | 02:00:00 | 00:00:00 | |
| OE5MMP-10 | 2026-08-31 05:27:38 | 48.11918 | 12.16995 | 310° | 9km/h | 28446m | 4.3m/s | -46.7°C | 3.1% | 15.7hPa | 2.6V | 01:40:00 | 01:59:57 | 00:00:00 | |
| DM7RM-13 | 2026-08-31 05:27:37 | 48.11918 | 12.16995 | 311° | 11km/h | 28446m | 4.3m/s | -46.8°C | 0.8% | 15.7hPa | 2.6V | 01:40:00 | 00:00:00 | 00:00:00 | |
| EDDB2-11 | 2026-08-31 05:27:36 | 48.11916 | 12.17004 | 272° | 5km/h | 28431m | 4.6m/s | -46.8°C | 0.8% | 15.8hPa | 2.6V | 00:00:00 | 00:00:00 | 00:00:00 | |
| DM0DOS-11 | 2026-08-31 05:27:35 | 48.11912 | 12.17007 | 350° | 11km/h | 28415m | 5.1m/s | -46.8°C | 3.1% | 15.8hPa | 2.6V | 01:40:55 | 01:59:51 | 00:00:00 | |
| HSKMA3-T | 2026-08-31 05:27:31 | 48.11909 | 12.17008 | 352° | 13km/h | 28410m | 4.2m/s | -46.8°C | 0.1% | 15.8hPa | 2.7V | 01:41:46 | 01:59:50 | 00:00:00 | |
| DL6DJ-15 | 2026-08-31 05:27:31 | 48.11909 | 12.17008 | 352° | 11km/h | 28410m | 4.2m/s | -46.8°C | 0.8% | 15.8hPa | 2.7V | 00:00:00 | 00:00:00 | 00:00:00 | |
| OE5DXL-15 | 2026-08-31 05:27:29 | 48.11904 | 12.17010 | 344° | 13km/h | 28401m | 5.8m/s | -46.8°C | 3.1% | 15.8hPa | 2.7V | 00:00:00 | 00:00:00 | 00:00:00 | |
| OE5MMP-10 | 2026-08-31 05:27:28 | 48.11902 | 12.17011 | 325° | 11km/h | 28395m | 5.4m/s | -46.8°C | 3.2% | 15.8hPa | 2.7V | 00:00:00 | 01:59:47 | 00:00:00 | |
| DM0DOS-11 | 2026-08-31 05:27:25 | 48.11887 | 12.17036 | 321° | 11km/h | 28353m | 4.4m/s | -46.9°C | 3.1% | 15.9hPa | 2.7V | 01:41:07 | 01:59:39 | 00:00:00 | |
| HSKMA3-T | 2026-08-31 05:27:20 | 48.11887 | 12.17036 | 321° | 11km/h | 28353m | 4.4m/s | -46.9°C | 0.1% | 15.9hPa | 2.7V | 01:41:46 | 01:59:39 | 00:00:00 | |
| HSKMA3-T | 2026-08-31 05:27:10 | 48.11866 | 12.17049 | 299° | 11km/h | 28303m | 6.1m/s | -47.1°C | 0.2% | 0hPa | 2.7V | 01:41:46 | 01:59:29 | 00:00:00 | |
| NBG1-10 | 2026-08-31 05:27:10 | 48.11866 | 12.17049 | 299° | 15km/h | 28303m | 6.0m/s | -47.1°C | 3.2% | 16.0hPa | 2.7V | 00:00:00 | 01:59:29 | 00:00:00 | |
| OE8JPQ-2 | 2026-08-31 05:27:09 | 48.11864 | 12.17053 | 309° | 16km/h | 28298m | 4.8m/s | -47.1°C | 3.2% | 16.0hPa | 2.7V | 01:41:00 | 00:00:00 | 00:00:00 | |
| OE5MMP-10 | 2026-08-31 05:27:08 | 48.11861 | 12.17058 | 314° | 16km/h | 28293m | 4.4m/s | -47.0°C | 3.2% | 16.0hPa | 2.7V | 00:00:00 | 01:59:27 | 00:00:00 | |
| DF1GD-15 | 2026-08-31 05:27:07 | 48.11861 | 12.17058 | 314° | 18km/h | 28293m | 4.4m/s | -47.1°C | 0.9% | 16.1hPa | 2.7V | 01:41:00 | 00:00:00 | 00:00:00 | |
| DM0DOS-11 | 2026-08-31 05:27:05 | 48.11844 | 12.17071 | 357° | 16km/h | 28267m | 5.4m/s | -47.1°C | 3.2% | 16.1hPa | 2.7V | 01:41:24 | 01:59:22 | 00:00:00 | |
| HSKMA3-T | 2026-08-31 05:26:57 | 48.11830 | 12.17087 | 254° | 11km/h | 28237m | 4.5m/s | -47.1°C | 0% | 0hPa | 2.7V | 01:41:46 | 01:59:16 | 00:00:00 | |
| DM7RM-13 | 2026-08-31 05:26:56 | 48.11830 | 12.17087 | 255° | 11km/h | 28237m | 4.5m/s | -47.1°C | 0.8% | 16.3hPa | 2.7V | 01:41:00 | 00:00:00 | 00:00:00 | |
| DM0DOS-11 | 2026-08-31 05:26:55 | 48.11828 | 12.17107 | 304° | 20km/h | 28217m | 5.2m/s | -47.2°C | 3.2% | 16.3hPa | 2.7V | 01:41:34 | 01:59:12 | 00:00:00 | |
| DO3MHA-11 | 2026-08-31 05:26:55 | 48.11831 | 12.17096 | 275° | 16km/h | 28228m | 4.9m/s | -47.2°C | 3.1% | 16.2hPa | 2.6V | 01:41:00 | 01:59:14 | 00:00:00 | |
| DO3MHA-12 | 2026-08-31 05:26:51 | 48.11821 | 12.17120 | 313° | 13km/h | 28208m | 4.5m/s | -47.2°C | 3.2% | 16.3hPa | 2.6V | 01:41:00 | 01:59:10 | 00:00:00 | |
| DG1MFX-10 | 2026-08-31 05:26:50 | 48.11821 | 12.17120 | 314° | 24km/h | 28208m | 4.5m/s | -47.3°C | 0.8% | 16.3hPa | 2.7V | 01:41:00 | 00:00:00 | 00:00:00 | |
| OE8JPQ-2 | 2026-08-31 05:26:49 | 48.11813 | 12.17132 | 314° | 15km/h | 28198m | 5.3m/s | -47.2°C | 3.3% | 16.3hPa | 2.7V | 00:00:00 | 00:00:00 | 00:00:00 | |
| OE5MMP-10 | 2026-08-31 05:26:48 | 48.11810 | 12.17136 | 317° | 13km/h | 28193m | 4.6m/s | -47.2°C | 3.3% | 16.3hPa | 2.7V | 00:00:00 | 01:59:07 | 00:00:00 | |
| BAUMI2-15 | 2026-08-31 05:26:47 | 48.11808 | 12.17139 | 326° | 7km/h | 28188m | 4.9m/s | -47.2°C | 3.2% | 16.3hPa | 2.6V | 01:41:00 | 01:59:06 | 00:00:00 | |
| DF1GD-15 | 2026-08-31 05:26:46 | 48.11808 | 12.17139 | 326° | 11km/h | 28188m | 4.9m/s | -47.3°C | 0.8% | 16.4hPa | 2.7V | 01:41:00 | 00:00:00 | 00:00:00 | |
| DM0DOS-11 | 2026-08-31 05:26:45 | 48.11803 | 12.17145 | 257° | 5km/h | 28168m | 5.3m/s | -47.3°C | 3.2% | 16.4hPa | 2.7V | 01:41:44 | 01:59:02 | 00:00:00 | |
| HSKMA3-T | 2026-08-31 05:26:45 | 48.11804 | 12.17142 | 334° | 7km/h | 28177m | 4.6m/s | -47.3°C | 0.2% | 0hPa | 2.6V | 01:41:46 | 01:59:04 | 00:00:00 | |
| DO3MHA-11 | 2026-08-31 05:26:45 | 48.11804 | 12.17142 | 334° | 16km/h | 28178m | 4.6m/s | -47.2°C | 3.2% | 16.3hPa | 2.6V | 00:00:00 | 01:59:04 | 00:00:00 | |
| DB0UT-7 | 2026-08-31 05:26:44 | 48.11803 | 12.17143 | 309° | 15km/h | 28173m | 4.1m/s | -47.2°C | 3.2% | 16.4hPa | 2.7V | 01:41:00 | 01:59:03 | 00:00:00 | |
| DL1ZP-14 | 2026-08-31 05:26:43 | 48.11804 | 12.17148 | 237° | 11km/h | 28162m | 6.0m/s | -47.3°C | 0.8% | 16.4hPa | 2.7V | 00:00:00 | 00:00:00 | 00:00:00 | |
| BAUMI2-15 | 2026-08-31 05:26:42 | 48.11804 | 12.17148 | 238° | 20km/h | 28163m | 6.0m/s | -47.3°C | 3.2% | 16.4hPa | 2.6V | 00:00:00 | 01:59:01 | 00:00:00 | |
| DO3MHA-12 | 2026-08-31 05:26:41 | 48.11806 | 12.17153 | 239° | 18km/h | 28157m | 4.5m/s | -47.3°C | 3.2% | 16.4hPa | 2.6V | 00:00:00 | 01:59:00 | 00:00:00 | |
| OE5HKT-10 | 2026-08-31 05:26:40 | 48.11808 | 12.17160 | 247° | 16km/h | 28153m | 3.9m/s | -47.3°C | 3.2% | 16.4hPa | 2.6V | 00:00:00 | 00:00:00 | 00:00:00 | |
| OE5DRO-10 | 2026-08-31 05:26:39 | 48.11810 | 12.17168 | 258° | 16km/h | 28148m | 5.5m/s | -47.4°C | 3.2% | 16.4hPa | 2.6V | 01:41:00 | 00:00:00 | 00:00:00 | |
| OE5MMP-10 | 2026-08-31 05:26:38 | 48.11810 | 12.17177 | 272° | 15km/h | 28143m | 5.0m/s | -47.3°C | 3.1% | 16.4hPa | 2.6V | 01:41:00 | 01:58:57 | 00:00:00 | |
| OE5WHR-10 | 2026-08-31 05:26:37 | 48.11810 | 12.17186 | 284° | 15km/h | 28138m | 4.4m/s | -47.3°C | 3.1% | 16.4hPa | 2.6V | 00:00:00 | 01:58:56 | 00:00:00 | |
| DM7RM-13 | 2026-08-31 05:26:36 | 48.11810 | 12.17186 | 284° | 24km/h | 28138m | 4.5m/s | -47.3°C | 0.8% | 16.5hPa | 2.6V | 00:00:00 | 00:00:00 | 00:00:00 | |
| DM0DOS-11 | 2026-08-31 05:26:35 | 48.11804 | 12.17210 | 292° | 11km/h | 28117m | 4.6m/s | -47.5°C | 3.2% | 16.5hPa | 2.6V | 01:41:54 | 01:58:52 | 00:00:00 | |
| HSKMA3-T | 2026-08-31 05:26:34 | 48.11805 | 12.17206 | 293° | 15km/h | 28122m | 5.2m/s | -47.5°C | 0.2% | 0hPa | 2.6V | 01:42:37 | 01:58:53 | 00:00:00 | |
| DF7PN | 2026-08-31 05:26:34 | 48.11804 | 12.17210 | 292° | 9km/h | 28117m | 4.6m/s | -47.5°C | 0.8% | 16.5hPa | 2.7V | 00:00:00 | 00:00:00 | 00:00:00 | |
| BAUMI2-15 | 2026-08-31 05:26:32 | 48.11803 | 12.17214 | 293° | 11km/h | 28112m | 4.7m/s | -47.4°C | 3.2% | 16.5hPa | 2.7V | 00:00:00 | 01:58:51 | 00:00:00 | |
| DO3MHA-12 | 2026-08-31 05:26:31 | 48.11802 | 12.17216 | 294° | 16km/h | 28107m | 5.5m/s | -47.4°C | 3.2% | 16.5hPa | 2.7V | 01:41:00 | 01:58:50 | 00:00:00 | |
| DL6DJ-15 | 2026-08-31 05:26:29 | 48.11802 | 12.17228 | 251° | 15km/h | 28093m | 5.4m/s | -47.6°C | 0.8% | 16.6hPa | 2.7V | 00:00:00 | 00:00:00 | 00:00:00 | |
| OE5MMP-10 | 2026-08-31 05:26:28 | 48.11802 | 12.17228 | 252° | 16km/h | 28093m | 5.3m/s | -47.6°C | 3.2% | 16.5hPa | 2.7V | 00:00:00 | 01:58:47 | 00:00:00 | |
| BAUMI2-15 | 2026-08-31 05:26:27 | 48.11804 | 12.17234 | 241° | 22km/h | 28087m | 6.1m/s | -47.6°C | 3.2% | 16.6hPa | 2.7V | 01:42:00 | 01:58:46 | 00:00:00 | |
| DM0DOS-11 | 2026-08-31 05:26:25 | 48.11818 | 12.17268 | 253° | 11km/h | 28062m | 4.7m/s | -47.7°C | 3.3% | 16.6hPa | 2.7V | 01:42:05 | 01:58:41 | 00:00:00 | |
| HSKMA3-T | 2026-08-31 05:26:24 | 48.11814 | 12.17257 | 238° | 22km/h | 28072m | 5.6m/s | -47.7°C | 0.2% | 0hPa | 2.6V | 01:42:37 | 01:58:43 | 00:00:00 | |
| BAUMI2-15 | 2026-08-31 05:26:22 | 48.11818 | 12.17268 | 254° | 9km/h | 28062m | 4.6m/s | -47.6°C | 3.3% | 16.6hPa | 2.6V | 00:00:00 | 01:58:41 | 00:00:00 | |
| OE5DRO-10 | 2026-08-31 05:26:20 | 48.11818 | 12.17274 | 268° | 9km/h | 28052m | 6.0m/s | -47.7°C | 3.3% | 16.7hPa | 2.6V | 00:00:00 | 00:00:00 | 00:00:00 | |
| OE5HKT-10 | 2026-08-31 05:26:19 | 48.11818 | 12.17277 | 271° | 11km/h | 28046m | 5.3m/s | -47.6°C | 3.3% | 16.6hPa | 2.6V | 01:42:00 | 01:58:38 | 00:00:00 | |
| OE5MMP-10 | 2026-08-31 05:26:18 | 48.11818 | 12.17280 | 270° | 11km/h | 28041m | 4.8m/s | -47.7°C | 3.3% | 16.7hPa | 2.6V | 01:42:00 | 01:58:37 | 00:00:00 | |
| DM0DOS-11 | 2026-08-31 05:26:17 | 48.11816 | 12.17300 | 254° | 13km/h | 28009m | 6.3m/s | -47.6°C | 3.3% | 16.8hPa | 2.7V | 01:42:15 | 01:58:31 | 00:00:00 | |
| HSKMA3-T | 2026-08-31 05:26:13 | 48.11816 | 12.17296 | 273° | 9km/h | 28015m | 5m/s | -47.7°C | 0.2% | 0hPa | 2.7V | 01:42:37 | 01:58:32 | 00:00:00 | |
| DL1ZP-14 | 2026-08-31 05:26:12 | 48.11817 | 12.17304 | 241° | 15km/h | 28004m | 5.0m/s | -47.6°C | 0.8% | 16.8hPa | 2.6V | 00:00:00 | 00:00:00 | 00:00:00 | |
| DO3MHA-12 | 2026-08-31 05:26:11 | 48.11817 | 12.17304 | 242° | 11km/h | 28004m | 5.0m/s | -47.6°C | 3.3% | 16.8hPa | 2.7V | 01:42:00 | 01:58:30 | 00:00:00 | |
| OE8JPQ-2 | 2026-08-31 05:26:09 | 48.11821 | 12.17315 | 241° | 11km/h | 27994m | 5.4m/s | -47.6°C | 3.2% | 16.8hPa | 2.7V | 00:00:00 | 00:00:00 | 00:00:00 | |
| OE5MMP-10 | 2026-08-31 05:26:08 | 48.11823 | 12.17320 | 248° | 9km/h | 27989m | 5.7m/s | -47.6°C | 3.3% | 16.8hPa | 2.7V | 00:00:00 | 01:58:27 | 00:00:00 | |
| DB0NH | 2026-08-31 05:26:07 | 48.11824 | 12.17323 | 261° | 11km/h | 27983m | 5.1m/s | -47.5°C | 3.3% | 16.8hPa | 2.7V | 00:00:00 | 01:58:26 | 00:00:00 | |
| DO3MHA-11 | 2026-08-31 05:26:05 | 48.11823 | 12.17329 | 280° | 11km/h | 27973m | 6.0m/s | -47.6°C | 3.3% | 16.8hPa | 2.7V | 00:00:00 | 01:58:24 | 00:00:00 | |
| DM0DOS-11 | 2026-08-31 05:26:04 | 48.11821 | 12.17338 | 312° | 9km/h | 27957m | 5.8m/s | -47.5°C | 3.2% | 16.9hPa | 2.7V | 01:42:25 | 01:58:21 | 00:00:00 | |
| HSKMA3-T | 2026-08-31 05:26:01 | 48.11819 | 12.17340 | 324° | 11km/h | 27951m | 5.5m/s | -47.6°C | 0.2% | 0hPa | 2.6V | 01:42:37 | 01:58:20 | 00:00:00 | |
| HSKMA3-T | 2026-08-31 05:25:50 | 48.11820 | 12.17383 | 293° | 15km/h | 27895m | 5.8m/s | -47.7°C | 0.2% | 0hPa | 2.6V | 01:42:37 | 01:58:09 | 00:00:00 | |
| OE8JPQ-2 | 2026-08-31 05:25:49 | 48.11819 | 12.17388 | 295° | 11km/h | 27890m | 4.8m/s | -47.7°C | 3.3% | 17.1hPa | 2.7V | 01:42:00 | 00:00:00 | 00:00:00 | |
| OE5MMP-10 | 2026-08-31 05:25:48 | 48.11817 | 12.17393 | 303° | 11km/h | 27885m | 4.7m/s | -47.6°C | 3.3% | 17.1hPa | 2.7V | 00:00:00 | 01:58:07 | 00:00:00 | |
| BAUMI2-15 | 2026-08-31 05:25:47 | 48.11814 | 12.17398 | 318° | 9km/h | 27880m | 5.3m/s | -47.7°C | 3.3% | 17.1hPa | 2.7V | 01:42:00 | 01:58:06 | 00:00:00 | |
| DM0DOS-11 | 2026-08-31 05:25:44 | 48.11806 | 12.17402 | 354° | 7km/h | 27864m | 4.4m/s | -47.7°C | 3.3% | 17.2hPa | 2.6V | 01:42:43 | 01:58:03 | 00:00:00 | |
| HSKMA3-T | 2026-08-31 05:25:37 | 48.11807 | 12.17424 | 285° | 15km/h | 27827m | 4.7m/s | -47.6°C | 0.2% | 0hPa | 2.7V | 01:43:28 | 01:57:56 | 00:00:00 | |
| DB0NH | 2026-08-31 05:25:37 | 48.11806 | 12.17424 | 286° | 15km/h | 27827m | 4.6m/s | -47.6°C | 3.3% | 17.2hPa | 2.7V | 01:42:00 | 01:57:56 | 00:00:00 | |
| DM0DOS-11 | 2026-08-31 05:25:34 | 48.11802 | 12.17444 | 289° | 20km/h | 27811m | 4.5m/s | -47.8°C | 3.3% | 17.3hPa | 2.6V | 01:42:53 | 01:57:53 | 00:00:00 | |
| OE5WHR-10 | 2026-08-31 05:25:34 | 48.11802 | 12.17444 | 290° | 13km/h | 27811m | 4.4m/s | -47.7°C | 3.3% | 17.3hPa | 2.7V | 01:42:00 | 01:57:53 | 00:00:00 | |
| BAUMI2-15 | 2026-08-31 05:25:32 | 48.11799 | 12.17455 | 310° | 7km/h | 27801m | 5.7m/s | -47.8°C | 3.3% | 17.3hPa | 2.7V | 00:00:00 | 01:57:51 | 00:00:00 | |
| DO3MHA-12 | 2026-08-31 05:25:31 | 48.11797 | 12.17457 | 328° | 11km/h | 27796m | 4.3m/s | -47.8°C | 3.3% | 17.3hPa | 2.7V | 01:42:00 | 01:57:50 | 00:00:00 | |
| DM0DOS-11 | 2026-08-31 05:25:29 | 48.11795 | 12.17483 | 269° | 15km/h | 27759m | 6.1m/s | -47.7°C | 3.3% | 17.4hPa | 2.7V | 01:43:03 | 01:57:43 | 00:00:00 | |
| HSKMA3-T | 2026-08-31 05:25:26 | 48.11794 | 12.17471 | 264° | 15km/h | 27770m | 5.1m/s | -47.8°C | 0.2% | 0hPa | 2.7V | 01:43:28 | 01:57:45 | 00:00:00 | |
| DO3MHA-11 | 2026-08-31 05:25:25 | 48.11794 | 12.17477 | 266° | 13km/h | 27765m | 5.1m/s | -47.7°C | 3.3% | 17.4hPa | 2.6V | 00:00:00 | 01:57:44 | 00:00:00 | |
| BAUMI2-15 | 2026-08-31 05:25:22 | 48.11794 | 12.17493 | 279° | 15km/h | 27749m | 4.4m/s | -47.7°C | 3.3% | 17.5hPa | 2.6V | 00:00:00 | 01:57:41 | 00:00:00 | |
| DO3MHA-12 | 2026-08-31 05:25:21 | 48.11793 | 12.17499 | 278° | 15km/h | 27744m | 6.0m/s | -47.7°C | 3.3% | 17.5hPa | 2.6V | 00:00:00 | 01:57:40 | 00:00:00 | |
| OE5MMP-10 | 2026-08-31 05:25:18 | 48.11792 | 12.17516 | 277° | 15km/h | 27727m | 5.5m/s | -47.8°C | 3.3% | 17.5hPa | 2.6V | 01:43:00 | 01:57:37 | 00:00:00 | |
| BAUMI2-15 | 2026-08-31 05:25:17 | 48.11792 | 12.17520 | 282° | 11km/h | 27722m | 5.8m/s | -47.8°C | 3.3% | 17.5hPa | 2.6V | 01:43:00 | 01:57:36 | 00:00:00 | |
| DM0DOS-11 | 2026-08-31 05:25:15 | 48.11791 | 12.17531 | 265° | 13km/h | 27706m | 6m/s | -47.9°C | 3.3% | 17.6hPa | 2.6V | 01:43:13 | 01:57:33 | 00:00:00 | |
| HSKMA3-T | 2026-08-31 05:25:15 | 48.11791 | 12.17527 | 272° | 9km/h | 27712m | 4.4m/s | -47.9°C | 0.2% | 0hPa | 2.7V | 01:43:28 | 01:57:34 | 00:00:00 | |
| HSKMA3-T | 2026-08-31 05:25:05 | 48.11804 | 12.17596 | 234° | 20km/h | 27658m | 4.6m/s | -47.9°C | 0.2% | 0hPa | 2.7V | 01:43:28 | 01:57:24 | 00:00:00 | |
| DM0DOS-11 | 2026-08-31 05:25:04 | 48.11806 | 12.17602 | 227° | 16km/h | 27653m | 6.1m/s | -47.9°C | 3.3% | 17.8hPa | 2.7V | 01:43:23 | 01:57:23 | 00:00:00 | |
| OE5DRO-10 | 2026-08-31 05:25:04 | 48.11806 | 12.17602 | 228° | 11km/h | 27654m | 6.1m/s | -47.9°C | 3.3% | 17.7hPa | 2.7V | 00:00:00 | 00:00:00 | 00:00:00 | |
| BAUMI2-15 | 2026-08-31 05:25:02 | 48.11811 | 12.17607 | 203° | 7km/h | 27642m | 4.8m/s | -47.9°C | 3.4% | 17.7hPa | 2.6V | 00:00:00 | 01:57:21 | 00:00:00 | |
| DF1GD-15 | 2026-08-31 05:25:01 | 48.11811 | 12.17607 | 203° | 7km/h | 27642m | 4.9m/s | -47.9°C | 0.9% | 17.8hPa | 2.7V | 01:43:00 | 00:00:00 | 00:00:00 | |
| EDDB2-11 | 2026-08-31 05:25:00 | 48.11814 | 12.17609 | 211° | 5km/h | 27631m | 5.4m/s | -47.9°C | 0.9% | 17.8hPa | 2.7V | 00:00:00 | 00:00:00 | 00:00:00 | |
| DL6DJ-15 | 2026-08-31 05:24:55 | 48.11816 | 12.17620 | 275° | 9km/h | 27606m | 4.7m/s | -47.8°C | 0.9% | 17.9hPa | 2.7V | 00:00:00 | 00:00:00 | 00:00:00 | |
| DM0DOS-11 | 2026-08-31 05:24:54 | 48.11816 | 12.17624 | 264° | 13km/h | 27600m | 5.7m/s | -47.8°C | 3.4% | 17.9hPa | 2.7V | 01:43:33 | 01:57:13 | 00:00:00 | |
| HSKMA3-T | 2026-08-31 05:24:54 | 48.11816 | 12.17624 | 264° | 13km/h | 27600m | 5.7m/s | 0°C | 0% | 0hPa | 2.7V | 18:12:15 | 01:57:13 | 00:00:00 | |
| OE5WHR-10 | 2026-08-31 05:24:52 | 48.11818 | 12.17637 | 256° | 13km/h | 27590m | 4.5m/s | -47.7°C | 3.3% | 17.9hPa | 2.6V | 01:43:00 | 00:00:00 | 00:00:00 | |
| DO3MHA-12 | 2026-08-31 05:24:51 | 48.11819 | 12.17644 | 258° | 9km/h | 27585m | 4.5m/s | -47.7°C | 3.3% | 17.9hPa | 2.6V | 01:43:00 | 01:57:10 | 00:00:00 | |
| DM0DOS-11 | 2026-08-31 05:24:49 | 48.11820 | 12.17668 | 205° | 5km/h | 27547m | 5.2m/s | -47.6°C | 3.2% | 18hPa | 2.6V | 01:43:43 | 01:57:03 | 00:00:00 | |
| HSKMA3-T | 2026-08-31 05:24:42 | 48.11822 | 12.17669 | 207° | 5km/h | 27536m | 4.8m/s | 0°C | 0% | 0hPa | 2.6V | 18:12:15 | 01:57:01 | 00:00:00 | |
| DK5PH-5 | 2026-08-31 05:24:42 | 48.11822 | 12.17669 | 208° | 13km/h | 27536m | 4.8m/s | -47.6°C | 3.3% | 18.0hPa | 2.6V | 01:43:00 | 01:57:01 | 00:00:00 | |
| DO3MHA-12 | 2026-08-31 05:24:41 | 48.11823 | 12.17671 | 225° | 15km/h | 27531m | 5.1m/s | -47.6°C | 3.2% | 18.1hPa | 2.6V | 00:00:00 | 01:57:00 | 00:00:00 | |
| DF1GD-15 | 2026-08-31 05:24:40 | 48.11823 | 12.17671 | 226° | 7km/h | 27531m | 5.1m/s | -47.6°C | 0.9% | 18.1hPa | 2.6V | 01:44:00 | 00:00:00 | 00:00:00 | |
| DM7RM-13 | 2026-08-31 05:24:39 | 48.11825 | 12.17673 | 234° | 13km/h | 27526m | 6.1m/s | -47.6°C | 0.9% | 18.1hPa | 2.6V | 00:00:00 | 00:00:00 | 00:00:00 | |
| OE5MMP-10 | 2026-08-31 05:24:38 | 48.11829 | 12.17684 | 245° | 15km/h | 27515m | 4.8m/s | -47.6°C | 3.3% | 18.1hPa | 2.6V | 01:43:00 | 01:56:57 | 00:00:00 | |
| OE9MKV-15 | 2026-08-31 05:24:36 | 48.11832 | 12.17695 | 255° | 13km/h | 27504m | 5.0m/s | -47.6°C | 3.2% | 18.1hPa | 2.6V | 00:00:00 | 01:56:55 | 00:00:00 | |
| DM0DOS-11 | 2026-08-31 05:24:35 | 48.11835 | 12.17711 | 246° | 15km/h | 27488m | 5.8m/s | -47.8°C | 3.3% | 18.2hPa | 2.6V | 01:43:54 | 01:56:52 | 00:00:00 | |
| HSKMA3-T | 2026-08-31 05:24:30 | 48.11840 | 12.17725 | 240° | 11km/h | 27473m | 5.4m/s | 0°C | 0% | 0hPa | 2.7V | 18:12:15 | 01:56:49 | 00:00:00 | |
| EDDB2-11 | 2026-08-31 05:24:30 | 48.11842 | 12.17728 | 238° | 7km/h | 27468m | 6.1m/s | -48.0°C | 0.8% | 18.3hPa | 2.6V | 00:00:00 | 00:00:00 | 00:00:00 | |
| OE5DXL-15 | 2026-08-31 05:24:29 | 48.11842 | 12.17728 | 239° | 11km/h | 27468m | 6.0m/s | -48.0°C | 3.3% | 18.2hPa | 2.6V | 00:00:00 | 00:00:00 | 00:00:00 | |
| OE5MMP-10 | 2026-08-31 05:24:28 | 48.11842 | 12.17730 | 229° | 15km/h | 27462m | 4.6m/s | -47.9°C | 3.3% | 18.2hPa | 2.6V | 00:00:00 | 01:56:47 | 00:00:00 | |
| OE8JPQ-2 | 2026-08-31 05:24:27 | 48.11843 | 12.17732 | 224° | 29km/h | 27458m | 5.0m/s | 0°C | 0% | 0hPa | 2.6V | 01:44:00 | 01:56:46 | 00:00:00 | |
| OE5DRO-10 | 2026-08-31 05:24:26 | 48.11845 | 12.17734 | 224° | 13km/h | 27452m | 6.2m/s | -47.9°C | 3.3% | 18.3hPa | 2.6V | 00:00:00 | 00:00:00 | 00:00:00 | |
| DO3MHA-11 | 2026-08-31 05:24:25 | 48.11847 | 12.17738 | 225° | 18km/h | 27446m | 4.8m/s | -47.8°C | 3.3% | 18.3hPa | 2.6V | 00:00:00 | 01:56:44 | 00:00:00 | |
| DM0DOS-11 | 2026-08-31 05:24:24 | 48.11854 | 12.17747 | 227° | 18km/h | 27436m | 5.6m/s | -47.9°C | 3.3% | 18.4hPa | 2.6V | 01:44:04 | 01:56:42 | 00:00:00 | |
| HSKMA3-T | 2026-08-31 05:24:20 | 48.11862 | 12.17764 | 240° | 20km/h | 27420m | 5.3m/s | 0°C | 0% | 0hPa | 2.7V | 18:12:15 | 01:56:39 | 00:00:00 | |
| DF1GD-15 | 2026-08-31 05:24:19 | 48.11862 | 12.17764 | 241° | 20km/h | 27420m | 5.3m/s | -47.9°C | 0.9% | 18.4hPa | 2.7V | 01:44:00 | 00:00:00 | 00:00:00 | |
| OE5REO-15 | 2026-08-31 05:24:18 | 48.11868 | 12.17777 | 242° | 22km/h | 27410m | 4.4m/s | -48.1°C | 0.8% | 18.4hPa | 2.7V | 01:44:00 | 00:00:00 | 00:00:00 | |
| DG1MJG | 2026-08-31 05:24:17 | 48.11868 | 12.17777 | 242° | 22km/h | 27410m | 4.4m/s | -48.1°C | 0.8% | 18.4hPa | 2.7V | 01:44:00 | 00:00:00 | 00:00:00 | |
| DO3MHA-11 | 2026-08-31 05:24:15 | 48.11874 | 12.17793 | 221° | 5km/h | 27394m | 5.7m/s | -48.0°C | 3.3% | 18.5hPa | 2.7V | 01:44:00 | 01:56:34 | 00:00:00 | |
| DM0DOS-11 | 2026-08-31 05:24:14 | 48.11877 | 12.17794 | 160° | 4km/h | 27383m | 5.1m/s | -48.1°C | 3.3% | 18.5hPa | 2.6V | 01:44:14 | 01:56:32 | 00:00:00 | |
| HSKMA3-T | 2026-08-31 05:24:09 | 48.11880 | 12.17795 | 239° | 2km/h | 27362m | 6.2m/s | 0°C | 0% | 0hPa | 2.7V | 18:12:15 | 01:56:28 | 00:00:00 | |
| OE5MMP-10 | 2026-08-31 05:24:08 | 48.11880 | 12.17796 | 278° | 9km/h | 27356m | 5.0m/s | -48.5°C | 3.5% | 18.5hPa | 2.6V | 00:00:00 | 01:56:27 | 00:00:00 | |
| OE5DRO-10 | 2026-08-31 05:24:07 | 48.11880 | 12.17798 | 268° | 7km/h | 27351m | 5.0m/s | -48.5°C | 3.5% | 18.5hPa | 2.6V | 01:44:00 | 00:00:00 | 00:00:00 | |
| DG1MFX-10 | 2026-08-31 05:24:06 | 48.11880 | 12.17798 | 269° | 7km/h | 27351m | 5.1m/s | -48.5°C | 1.0% | 18.6hPa | 2.6V | 01:45:00 | 00:00:00 | 00:00:00 | |
| DO3MHA-11 | 2026-08-31 05:24:05 | 48.11882 | 12.17806 | 253° | 7km/h | 27340m | 5.0m/s | -48.5°C | 3.5% | 18.6hPa | 2.6V | 00:00:00 | 01:56:24 | 00:00:00 | |
| DM0DOS-11 | 2026-08-31 05:24:04 | 48.11884 | 12.17815 | 238° | 11km/h | 27330m | 5.3m/s | -48.6°C | 3.4% | 18.6hPa | 2.6V | 01:44:24 | 01:56:22 | 00:00:00 | |
| SONDE2-11 | 2026-08-31 05:24:04 | 48.11884 | 12.17815 | 238° | 9km/h | 27330m | 5.3m/s | -48.6°C | 0.9% | 18.6hPa | 2.6V | 00:00:00 | 00:00:00 | 00:00:00 | |
| DO3MHA-12 | 2026-08-31 05:24:01 | 48.11886 | 12.17818 | 146° | 5km/h | 27320m | 4.6m/s | -48.5°C | 3.3% | 18.6hPa | 2.6V | 00:00:00 | 01:56:20 | 00:00:00 | |
| OE5DXL-15 | 2026-08-31 05:23:59 | 48.11888 | 12.17814 | 120° | 9km/h | 27309m | 6.3m/s | -48.6°C | 3.4% | 18.7hPa | 2.6V | 01:44:00 | 00:00:00 | 00:00:00 | |
| OE5MMP-10 | 2026-08-31 05:23:58 | 48.11889 | 12.17811 | 128° | 5km/h | 27304m | 5.3m/s | -48.6°C | 3.3% | 18.7hPa | 2.6V | 01:44:00 | 01:56:17 | 00:00:00 | |
| DM7RM-13 | 2026-08-31 05:23:57 | 48.11889 | 12.17811 | 129° | 7km/h | 27304m | 5.3m/s | -48.6°C | 0.9% | 18.8hPa | 2.6V | 01:45:00 | 00:00:00 | 00:00:00 | |
| DM0DOS-11 | 2026-08-31 05:23:55 | 48.11890 | 12.17804 | 14° | 5km/h | 27277m | 4.8m/s | -48.9°C | 3.5% | 18.8hPa | 2.6V | 01:44:34 | 01:56:12 | 00:00:00 | |
| DL6DJ-15 | 2026-08-31 05:23:53 | 48.11890 | 12.17804 | 14° | 4km/h | 27277m | 4.8m/s | -48.9°C | 0.9% | 18.9hPa | 2.6V | 00:00:00 | 00:00:00 | 00:00:00 | |
| DO3MHA-12 | 2026-08-31 05:23:51 | 48.11887 | 12.17805 | 306° | 7km/h | 27267m | 5.2m/s | -48.8°C | 3.5% | 18.8hPa | 2.6V | 01:44:00 | 01:56:10 | 00:00:00 | |
| PG1ADW-2 | 2026-08-31 05:23:50 | 48.11886 | 12.17807 | 299° | 9km/h | 27262m | 4.4m/s | -48.7°C | 3.5% | 18.8hPa | 2.6V | 00:00:00 | 00:00:00 | 00:00:00 | |
| OE5WHR-10 | 2026-08-31 05:23:49 | 48.11885 | 12.17809 | 310° | 9km/h | 27257m | 5.4m/s | -48.7°C | 3.6% | 18.8hPa | 2.6V | 00:00:00 | 00:00:00 | 00:00:00 | |
| OE5MMP-10 | 2026-08-31 05:23:48 | 48.11884 | 12.17810 | 344° | 9km/h | 27251m | 5.6m/s | -48.7°C | 3.5% | 18.8hPa | 2.6V | 00:00:00 | 01:56:07 | 00:00:00 | |
| DG1MJG | 2026-08-31 05:23:47 | 48.11884 | 12.17810 | 345° | 5km/h | 27251m | 5.6m/s | -48.7°C | 0.9% | 18.9hPa | 2.7V | 01:45:00 | 00:00:00 | 00:00:00 | |
| DO3MHA-11 | 2026-08-31 05:23:45 | 48.11882 | 12.17805 | 102° | 11km/h | 27236m | 6.1m/s | -48.7°C | 3.4% | 18.9hPa | 2.7V | 00:00:00 | 01:56:04 | 00:00:00 | |
| DM0DOS-11 | 2026-08-31 05:23:44 | 48.11885 | 12.17798 | 121° | 13km/h | 27225m | 4.7m/s | -48.8°C | 3.4% | 19hPa | 2.6V | 01:44:44 | 01:56:02 | 00:00:00 | |
| DB0UT-7 | 2026-08-31 05:23:44 | 48.11883 | 12.17802 | 120° | 11km/h | 27230m | 5.6m/s | -48.7°C | 3.4% | 18.9hPa | 2.6V | 01:44:00 | 01:56:03 | 00:00:00 | |
| SP3BTT-10 | 2026-08-31 05:23:43 | 48.11885 | 12.17798 | 122° | 11km/h | 27225m | 4.7m/s | 0°C | 0% | 0hPa | 2.6V | 01:44:00 | 00:00:00 | 00:00:00 | |
| DO3MHA-12 | 2026-08-31 05:23:41 | 48.11887 | 12.17790 | 93° | 11km/h | 27215m | 6.0m/s | -48.8°C | 3.3% | 19.0hPa | 2.6V | 00:00:00 | 01:56:00 | 00:00:00 | |
| SONCRA | 2026-08-31 05:23:40 | 48.11887 | 12.17786 | 68° | 11km/h | 27209m | 5.2m/s | -48.9°C | 0.9% | 19.1hPa | 2.6V | 00:00:00 | 00:00:00 | 00:00:00 | |
| OE5MMP-10 | 2026-08-31 05:23:38 | 48.11883 | 12.17780 | 40° | 11km/h | 27198m | 6.0m/s | -48.9°C | 3.4% | 19.0hPa | 2.6V | 01:44:00 | 01:55:57 | 00:00:00 | |
| DM7RM-13 | 2026-08-31 05:23:36 | 48.11881 | 12.17777 | 30° | 9km/h | 27193m | 4.9m/s | -48.9°C | 0.9% | 19.0hPa | 2.6V | 01:45:00 | 00:00:00 | 00:00:00 | |
| DO3MHA-11 | 2026-08-31 05:23:35 | 48.11876 | 12.17774 | 26° | 11km/h | 27182m | 6.3m/s | -49.0°C | 3.6% | 19.1hPa | 2.6V | 01:44:00 | 01:55:54 | 00:00:00 | |
| DM0DOS-11 | 2026-08-31 05:23:34 | 48.11871 | 12.17769 | 38° | 13km/h | 27172m | 4.1m/s | -49°C | 3.5% | 19.1hPa | 2.6V | 01:44:54 | 01:55:52 | 00:00:00 | |
| SONDE2-11 | 2026-08-31 05:23:33 | 48.11869 | 12.17766 | 53° | 9km/h | 27167m | 5.2m/s | -49.0°C | 1.0% | 19.1hPa | 2.7V | 00:00:00 | 00:00:00 | 00:00:00 | |
| DO3MHA-12 | 2026-08-31 05:23:31 | 48.11868 | 12.17763 | 86° | 11km/h | 27162m | 5.9m/s | -48.9°C | 3.5% | 19.1hPa | 2.7V | 01:44:00 | 01:55:50 | 00:00:00 | |
| PG1ADW-2 | 2026-08-31 05:23:30 | 48.11868 | 12.17760 | 128° | 11km/h | 27156m | 5.6m/s | -49.0°C | 3.6% | 19.1hPa | 2.7V | 01:44:00 | 00:00:00 | 00:00:00 | |
| OE5DXL-15 | 2026-08-31 05:23:29 | 48.11870 | 12.17758 | 138° | 13km/h | 27151m | 4.6m/s | -49.0°C | 3.5% | 19.1hPa | 2.7V | 00:00:00 | 01:55:48 | 00:00:00 | |
| OE5WHR-10 | 2026-08-31 05:23:28 | 48.11871 | 12.17755 | 126° | 13km/h | 27146m | 4.6m/s | -49.1°C | 3.6% | 19.1hPa | 2.7V | 01:44:00 | 01:55:47 | 00:00:00 | |
| DF7PN | 2026-08-31 05:23:27 | 48.11872 | 12.17752 | 101° | 9km/h | 27141m | 5.9m/s | -49.1°C | 0.9% | 19.2hPa | 2.7V | 00:00:00 | 00:00:00 | 00:00:00 | |
| DO3MHA-11 | 2026-08-31 05:23:25 | 48.11871 | 12.17744 | 50° | 15km/h | 27131m | 4.9m/s | -49.1°C | 3.5% | 19.2hPa | 2.7V | 00:00:00 | 01:55:44 | 00:00:00 | |
| DM0DOS-11 | 2026-08-31 05:23:24 | 48.11864 | 12.17738 | 16° | 15km/h | 27119m | 5.1m/s | -49.2°C | 3.5% | 19.3hPa | 2.7V | 01:45:04 | 01:55:42 | 00:00:00 | |
| DL6DJ-15 | 2026-08-31 05:23:22 | 48.11861 | 12.17737 | 9° | 16km/h | 27114m | 4.8m/s | -49.2°C | 0.9% | 19.3hPa | 2.6V | 00:00:00 | 00:00:00 | 00:00:00 | |
| DO3MHA-12 | 2026-08-31 05:23:21 | 48.11856 | 12.17736 | 10° | 11km/h | 27109m | 5.6m/s | -49.1°C | 3.5% | 19.3hPa | 2.6V | 00:00:00 | 01:55:40 | 00:00:00 | |
| OE5MMP-10 | 2026-08-31 05:23:18 | 48.11843 | 12.17730 | 25° | 11km/h | 27093m | 5.2m/s | -49.1°C | 3.5% | 19.3hPa | 2.6V | 01:45:00 | 01:55:37 | 00:00:00 | |
| DF1GD-15 | 2026-08-31 05:23:17 | 48.11843 | 12.17730 | 25° | 13km/h | 27093m | 5.3m/s | -49.2°C | 1.0% | 19.4hPa | 2.7V | 01:45:00 | 00:00:00 | 00:00:00 | |
| DG1MJG | 2026-08-31 05:23:16 | 48.11841 | 12.17729 | 32° | 7km/h | 27088m | 6.2m/s | -49.1°C | 0.9% | 19.4hPa | 2.7V | 01:45:00 | 00:00:00 | 00:00:00 | |
| DM0DOS-11 | 2026-08-31 05:23:15 | 48.11842 | 12.17722 | 86° | 9km/h | 27067m | 4.9m/s | -49.1°C | 3.5% | 19.4hPa | 2.7V | 01:45:14 | 01:55:32 | 00:00:00 | |
| DO3MHA-11 | 2026-08-31 05:23:15 | 48.11841 | 12.17727 | 135° | 15km/h | 27077m | 4.2m/s | -49.1°C | 3.5% | 19.4hPa | 2.7V | 01:45:00 | 01:55:34 | 00:00:00 | |
| DB0UT-7 | 2026-08-31 05:23:14 | 48.11842 | 12.17725 | 120° | 13km/h | 27072m | 5.2m/s | -49.1°C | 3.5% | 19.4hPa | 2.6V | 00:00:00 | 00:00:00 | 00:00:00 | |
| DO3MHA-12 | 2026-08-31 05:23:11 | 48.11839 | 12.17715 | 34° | 16km/h | 27058m | 5.2m/s | -49.1°C | 3.5% | 19.4hPa | 2.6V | 01:45:00 | 01:55:30 | 00:00:00 | |
| PG1ADW-2 | 2026-08-31 05:23:10 | 48.11836 | 12.17713 | 17° | 15km/h | 27052m | 5.8m/s | -49.1°C | 3.4% | 19.4hPa | 2.6V | 00:00:00 | 00:00:00 | 00:00:00 | |
| SONCRA | 2026-08-31 05:23:09 | 48.11831 | 12.17712 | 5° | 18km/h | 27046m | 5.7m/s | -49.2°C | 0.9% | 19.5hPa | 2.6V | 00:00:00 | 00:00:00 | 00:00:00 | |
| OE5MMP-10 | 2026-08-31 05:23:08 | 48.11826 | 12.17711 | 2° | 11km/h | 27041m | 5.1m/s | -49.2°C | 3.5% | 19.5hPa | 2.6V | 00:00:00 | 01:55:27 | 00:00:00 | |
| OE5WHR-10 | 2026-08-31 05:23:07 | 48.11821 | 12.17711 | 4° | 13km/h | 27036m | 5.3m/s | -49.2°C | 3.5% | 19.5hPa | 2.6V | 00:00:00 | 00:00:00 | 00:00:00 | |
| DO3MHA-11 | 2026-08-31 05:23:05 | 48.11810 | 12.17709 | 13° | 7km/h | 27025m | 4.3m/s | -49.2°C | 3.4% | 19.5hPa | 2.6V | 00:00:00 | 01:55:24 | 00:00:00 | |
| DM0DOS-11 | 2026-08-31 05:23:04 | 48.11803 | 12.17707 | 0° | 9km/h | 27014m | 6.1m/s | -49.3°C | 3.5% | 19.6hPa | 2.6V | 01:45:24 | 01:55:22 | 00:00:00 | |
| OE5HKT-10 | 2026-08-31 05:23:03 | 48.11803 | 12.17707 | 1° | 9km/h | 27015m | 6.0m/s | -49.2°C | 3.5% | 19.5hPa | 2.6V | 01:45:00 | 00:00:00 | 00:00:00 | |
| SONDE2-11 | 2026-08-31 05:23:02 | 48.11801 | 12.17708 | 259° | 0km/h | 27003m | 5.2m/s | -49.3°C | 0.9% | 19.6hPa | 2.6V | 00:00:00 | 00:00:00 | 00:00:00 | |
| EDDB2-11 | 2026-08-31 05:22:57 | 48.11800 | 12.17708 | 329° | 9km/h | 26976m | 4.7m/s | -49.5°C | 0.9% | 19.7hPa | 2.6V | 00:00:00 | 00:00:00 | 00:00:00 | |
| DF7PN | 2026-08-31 05:22:56 | 48.11800 | 12.17708 | 329° | 9km/h | 26976m | 4.7m/s | -49.5°C | 0.9% | 19.7hPa | 2.6V | 00:00:00 | 00:00:00 | 00:00:00 | |
| DO3MHA-11 | 2026-08-31 05:22:55 | 48.11797 | 12.17711 | 333° | 18km/h | 26972m | 4.3m/s | -49.6°C | 3.5% | 19.7hPa | 2.6V | 01:45:00 | 01:55:14 | 00:00:00 | |
| DM0DOS-11 | 2026-08-31 05:22:54 | 48.11782 | 12.17717 | 352° | 24km/h | 26955m | 4.8m/s | -49.8°C | 3.6% | 19.8hPa | 2.6V | 01:45:35 | 01:55:11 | 00:00:00 | |
| DM7RM-13 | 2026-08-31 05:22:53 | 48.11793 | 12.17713 | 342° | 18km/h | 26967m | 5.7m/s | -49.7°C | 0.9% | 19.7hPa | 2.6V | 00:00:00 | 00:00:00 | 00:00:00 | |
| BAUMI2-15 | 2026-08-31 05:22:51 | 48.11776 | 12.17718 | 351° | 18km/h | 26951m | 4.9m/s | -49.8°C | 3.6% | 19.7hPa | 2.6V | 00:00:00 | 01:55:10 | 00:00:00 | |
| PG1ADW-2 | 2026-08-31 05:22:50 | 48.11770 | 12.17720 | 343° | 11km/h | 26945m | 6.0m/s | -49.9°C | 3.7% | 19.7hPa | 2.6V | 01:45:00 | 01:55:09 | 00:00:00 | |
| OE5MMP-10 | 2026-08-31 05:22:48 | 48.11762 | 12.17727 | 317° | 11km/h | 26935m | 4.5m/s | -49.9°C | 3.8% | 19.8hPa | 2.6V | 00:00:00 | 01:55:07 | 00:00:00 | |
| OE5REO-15 | 2026-08-31 05:22:47 | 48.11762 | 12.17727 | 318° | 16km/h | 26935m | 4.5m/s | -50.0°C | 1.0% | 19.8hPa | 2.6V | 00:00:00 | 00:00:00 | 00:00:00 | |
| BAUMI2-15 | 2026-08-31 05:22:46 | 48.11758 | 12.17734 | 295° | 9km/h | 26924m | 5.3m/s | -50.0°C | 3.8% | 19.8hPa | 2.6V | 01:45:00 | 01:55:05 | 00:00:00 | |
| DO3MHA-11 | 2026-08-31 05:22:45 | 48.11758 | 12.17737 | 278° | 13km/h | 26919m | 4.3m/s | -50.0°C | 3.7% | 19.8hPa | 2.7V | 00:00:00 | 01:55:04 | 00:00:00 | |
| DM0DOS-11 | 2026-08-31 05:22:44 | 48.11757 | 12.17747 | 289° | 13km/h | 26903m | 4.5m/s | -50.1°C | 3.7% | 19.9hPa | 2.6V | 01:45:45 | 01:55:01 | 00:00:00 | |
| DB0UT-7 | 2026-08-31 05:22:44 | 48.11758 | 12.17739 | 270° | 9km/h | 26914m | 4.8m/s | -50.1°C | 3.7% | 19.9hPa | 2.7V | 01:45:00 | 01:55:03 | 00:00:00 | |
| DG1MFX-10 | 2026-08-31 05:22:43 | 48.11758 | 12.17739 | 270° | 7km/h | 26914m | 4.8m/s | -50.1°C | 1.0% | 19.9hPa | 2.7V | 01:46:00 | 00:00:00 | 00:00:00 | |
| BAUMI2-15 | 2026-08-31 05:22:41 | 48.11755 | 12.17751 | 309° | 15km/h | 26899m | 4.1m/s | -50.0°C | 3.6% | 19.9hPa | 2.7V | 00:00:00 | 01:55:00 | 00:00:00 | |
| OE5MMP-10 | 2026-08-31 05:22:38 | 48.11745 | 12.17757 | 1° | 9km/h | 26883m | 4.9m/s | -50.0°C | 3.5% | 20.0hPa | 2.7V | 01:45:00 | 01:54:57 | 00:00:00 | |
| BAUMI2-15 | 2026-08-31 05:22:36 | 48.11737 | 12.17756 | 5° | 11km/h | 26873m | 5.3m/s | -50.0°C | 3.6% | 20.0hPa | 2.7V | 01:45:00 | 01:54:55 | 00:00:00 | |
| DO3MHA-11 | 2026-08-31 05:22:35 | 48.11733 | 12.17756 | 355° | 7km/h | 26868m | 5.6m/s | -50.0°C | 3.6% | 20.0hPa | 2.7V | 01:45:00 | 01:54:54 | 00:00:00 | |
| DM0DOS-11 | 2026-08-31 05:22:34 | 48.11728 | 12.17760 | 322° | 4km/h | 26852m | 6.1m/s | -50°C | 3.7% | 20.1hPa | 2.7V | 01:45:55 | 01:54:51 | 00:00:00 | |
| OE5DRO-10 | 2026-08-31 05:22:32 | 48.11727 | 12.17760 | 323° | 5km/h | 26853m | 6.1m/s | -50.0°C | 3.7% | 20.0hPa | 2.6V | 00:00:00 | 00:00:00 | 00:00:00 | |
| SONDE2-11 | 2026-08-31 05:22:31 | 48.11727 | 12.17759 | 71° | 2km/h | 26841m | 4.8m/s | -50.0°C | 0.9% | 20.1hPa | 2.6V | 00:00:00 | 00:00:00 | 00:00:00 | |
| OE5DXL-15 | 2026-08-31 05:22:29 | 48.11726 | 12.17758 | 52° | 7km/h | 26837m | 4.4m/s | -50.0°C | 3.6% | 20.1hPa | 2.6V | 00:00:00 | 00:00:00 | 00:00:00 | |
| OE5MMP-10 | 2026-08-31 05:22:28 | 48.11725 | 12.17758 | 9° | 9km/h | 26832m | 5.9m/s | -50.1°C | 3.6% | 20.1hPa | 2.6V | 00:00:00 | 01:54:47 | 00:00:00 | |
| BAUMI2-15 | 2026-08-31 05:22:26 | 48.11722 | 12.17758 | 351° | 11km/h | 26821m | 4.8m/s | -50.1°C | 3.6% | 20.1hPa | 2.6V | 01:46:00 | 01:54:45 | 00:00:00 | |
| DO3MHA-11 | 2026-08-31 05:22:25 | 48.11719 | 12.17758 | 3° | 7km/h | 26816m | 5.9m/s | -50.1°C | 3.6% | 20.1hPa | 2.6V | 00:00:00 | 01:54:44 | 00:00:00 | |
| DM0DOS-11 | 2026-08-31 05:22:24 | 48.11711 | 12.17755 | 20° | 9km/h | 26801m | 4.1m/s | -50.1°C | 3.6% | 20.2hPa | 2.6V | 01:46:05 | 01:54:41 | 00:00:00 | |
| DG1MFX-10 | 2026-08-31 05:22:23 | 48.11716 | 12.17758 | 16° | 13km/h | 26810m | 5.4m/s | -50.1°C | 1.0% | 20.2hPa | 2.6V | 01:46:00 | 00:00:00 | 00:00:00 | |
| DO3MHA-12 | 2026-08-31 05:22:21 | 48.11709 | 12.17754 | 6° | 4km/h | 26796m | 5.5m/s | -50.2°C | 3.6% | 20.2hPa | 2.6V | 00:00:00 | 01:54:40 | 00:00:00 | |
| DL6DJ-15 | 2026-08-31 05:22:20 | 48.11708 | 12.17755 | 335° | 5km/h | 26790m | 5.7m/s | -50.3°C | 0.9% | 20.2hPa | 2.7V | 00:00:00 | 00:00:00 | 00:00:00 | |
| OE5MMP-10 | 2026-08-31 05:22:18 | 48.11706 | 12.17757 | 326° | 5km/h | 26780m | 5.7m/s | -50.3°C | 3.7% | 20.3hPa | 2.7V | 01:46:00 | 01:54:37 | 00:00:00 | |
| OE5HKT-10 | 2026-08-31 05:22:17 | 48.11705 | 12.17757 | 61° | 4km/h | 26775m | 5.5m/s | -50.4°C | 3.6% | 20.3hPa | 2.6V | 01:46:00 | 01:54:36 | 00:00:00 | |
| BAUMI2-15 | 2026-08-31 05:22:16 | 48.11705 | 12.17756 | 74° | 4km/h | 26770m | 4.0m/s | -50.4°C | 3.7% | 20.3hPa | 2.6V | 01:46:00 | 01:54:35 | 00:00:00 | |
| DF1GD-15 | 2026-08-31 05:22:15 | 48.11705 | 12.17756 | 75° | 4km/h | 26770m | 4.0m/s | -50.5°C | 1.0% | 20.3hPa | 2.7V | 01:46:00 | 00:00:00 | 00:00:00 | |
| DM0DOS-11 | 2026-08-31 05:22:14 | 48.11702 | 12.17756 | 310° | 7km/h | 26749m | 4.3m/s | -50.4°C | 3.7% | 20.4hPa | 2.7V | 01:46:15 | 01:54:31 | 00:00:00 | |
| DB0UT-7 | 2026-08-31 05:22:14 | 48.11704 | 12.17754 | 6° | 9km/h | 26760m | 6.0m/s | -50.4°C | 3.7% | 20.3hPa | 2.6V | 00:00:00 | 00:00:00 | 00:00:00 | |
| NBG1-10 | 2026-08-31 05:22:12 | 48.11702 | 12.17756 | 311° | 11km/h | 26750m | 4.3m/s | -50.4°C | 3.7% | 20.3hPa | 2.7V | 01:46:00 | 01:54:31 | 00:00:00 | |
| DO3MHA-12 | 2026-08-31 05:22:11 | 48.11701 | 12.17759 | 314° | 9km/h | 26745m | 4.8m/s | -50.4°C | 3.7% | 20.3hPa | 2.7V | 01:46:00 | 01:54:30 | 00:00:00 | |
| OE5REO-15 | 2026-08-31 05:22:10 | 48.11701 | 12.17759 | 314° | 9km/h | 26745m | 4.8m/s | -50.5°C | 1.0% | 20.4hPa | 2.7V | 00:00:00 | 00:00:00 | 00:00:00 | |
| OE5MMP-10 | 2026-08-31 05:22:08 | 48.11696 | 12.17764 | 327° | 11km/h | 26729m | 4.4m/s | -50.4°C | 3.7% | 20.4hPa | 2.7V | 00:00:00 | 01:54:27 | 00:00:00 | |
| SONCRA | 2026-08-31 05:22:07 | 48.11695 | 12.17765 | 301° | 5km/h | 26725m | 4.7m/s | -50.5°C | 0.9% | 20.5hPa | 2.7V | 00:00:00 | 00:00:00 | 00:00:00 | |
| BAUMI2-15 | 2026-08-31 05:22:06 | 48.11695 | 12.17768 | 283° | 13km/h | 26719m | 5.9m/s | -50.5°C | 3.7% | 20.4hPa | 2.7V | 01:46:00 | 01:54:25 | 00:00:00 | |
| DO3MHA-11 | 2026-08-31 05:22:05 | 48.11694 | 12.17772 | 274° | 13km/h | 26714m | 4.5m/s | -50.6°C | 3.7% | 20.5hPa | 2.7V | 00:00:00 | 01:54:24 | 00:00:00 | |
| DM0DOS-11 | 2026-08-31 05:22:04 | 48.11695 | 12.17788 | 265° | 13km/h | 26698m | 5.3m/s | -50.7°C | 3.8% | 20.5hPa | 2.7V | 01:46:25 | 01:54:21 | 00:00:00 | |
| OE5WHR-10 | 2026-08-31 05:22:04 | 48.11694 | 12.17778 | 270° | 11km/h | 26710m | 4.8m/s | -50.7°C | 3.7% | 20.5hPa | 2.7V | 01:46:00 | 00:00:00 | 00:00:00 | |
| DL1ZP-14 | 2026-08-31 05:22:03 | 48.11694 | 12.17783 | 267° | 13km/h | 26704m | 5.8m/s | -50.7°C | 1.0% | 20.6hPa | 2.7V | 00:00:00 | 00:00:00 | 00:00:00 | |
| DG1MFX-10 | 2026-08-31 05:22:02 | 48.11694 | 12.17783 | 269° | 15km/h | 26704m | 5.8m/s | -50.7°C | 1.0% | 20.6hPa | 2.6V | 01:46:00 | 00:00:00 | 00:00:00 | |
| SONDE2-11 | 2026-08-31 05:22:00 | 48.11696 | 12.17802 | 264° | 13km/h | 26683m | 5.6m/s | -50.8°C | 1.0% | 20.6hPa | 2.6V | 00:00:00 | 00:00:00 | 00:00:00 | |
| OE5DXL-15 | 2026-08-31 05:21:59 | 48.11695 | 12.17802 | 265° | 9km/h | 26683m | 5.6m/s | -50.8°C | 3.8% | 20.6hPa | 2.6V | 01:46:00 | 00:00:00 | 00:00:00 | |
| OE5MMP-10 | 2026-08-31 05:21:58 | 48.11696 | 12.17807 | 262° | 9km/h | 26678m | 4.2m/s | -50.8°C | 3.8% | 20.6hPa | 2.7V | 01:46:00 | 01:54:17 | 00:00:00 | |
| BAUMI2-15 | 2026-08-31 05:21:56 | 48.11697 | 12.17815 | 236° | 9km/h | 26668m | 5.8m/s | -50.8°C | 3.8% | 20.6hPa | 2.7V | 01:46:00 | 01:54:15 | 00:00:00 | |
| DO3MHA-11 | 2026-08-31 05:21:55 | 48.11699 | 12.17816 | 198° | 9km/h | 26663m | 4.9m/s | -50.8°C | 3.9% | 20.6hPa | 2.7V | 01:46:00 | 01:54:14 | 00:00:00 | |
| DM0DOS-11 | 2026-08-31 05:21:54 | 48.11705 | 12.17820 | 210° | 13km/h | 26647m | 5.2m/s | -50.8°C | 3.8% | 20.7hPa | 2.7V | 01:46:35 | 01:54:11 | 00:00:00 | |
| OE5DRO-10 | 2026-08-31 05:21:54 | 48.11701 | 12.17817 | 191° | 11km/h | 26658m | 4.5m/s | -50.8°C | 3.8% | 20.7hPa | 2.6V | 00:00:00 | 00:00:00 | 00:00:00 | |
| DF1GD-15 | 2026-08-31 05:21:53 | 48.11700 | 12.17817 | 191° | 9km/h | 26658m | 4.6m/s | -50.9°C | 1.0% | 20.7hPa | 2.6V | 01:46:00 | 00:00:00 | 00:00:00 | |
| BAUMI2-15 | 2026-08-31 05:21:51 | 48.11708 | 12.17822 | 217° | 9km/h | 26642m | 4.6m/s | -50.8°C | 3.8% | 20.7hPa | 2.6V | 00:00:00 | 01:54:10 | 00:00:00 | |
| DM7RM-13 | 2026-08-31 05:21:50 | 48.11708 | 12.17822 | 217° | 13km/h | 26642m | 4.6m/s | -50.8°C | 1.0% | 20.7hPa | 2.6V | 00:00:00 | 00:00:00 | 00:00:00 | |
| SP3BTT-10 | 2026-08-31 05:21:49 | 48.11712 | 12.17827 | 220° | 9km/h | 26630m | 5.5m/s | 0°C | 0% | 0hPa | 2.6V | 00:00:00 | 00:00:00 | 00:00:00 | |
| OE5MMP-10 | 2026-08-31 05:21:48 | 48.11713 | 12.17829 | 237° | 11km/h | 26625m | 4.7m/s | -50.8°C | 3.9% | 20.8hPa | 2.6V | 00:00:00 | 01:54:07 | 00:00:00 | |
| DK5PH-5 | 2026-08-31 05:21:46 | 48.11714 | 12.17834 | 277° | 9km/h | 26615m | 6.3m/s | -50.7°C | 3.9% | 20.8hPa | 2.6V | 00:00:00 | 01:54:05 | 00:00:00 | |
| DO3MHA-11 | 2026-08-31 05:21:45 | 48.11713 | 12.17839 | 279° | 13km/h | 26609m | 5.1m/s | -50.7°C | 3.9% | 20.8hPa | 2.6V | 00:00:00 | 01:54:04 | 00:00:00 | |
| DM0DOS-11 | 2026-08-31 05:21:44 | 48.11714 | 12.17853 | 237° | 9km/h | 26593m | 5.4m/s | -50.6°C | 3.8% | 20.9hPa | 2.7V | 01:46:45 | 01:54:01 | 00:00:00 | |
| DB0UT-7 | 2026-08-31 05:21:44 | 48.11713 | 12.17845 | 275° | 9km/h | 26604m | 4.3m/s | -50.6°C | 3.9% | 20.8hPa | 2.6V | 01:46:00 | 01:54:03 | 00:00:00 | |
| OE5WHR-10 | 2026-08-31 05:21:43 | 48.11713 | 12.17849 | 265° | 9km/h | 26599m | 5.8m/s | -50.6°C | 3.8% | 20.8hPa | 2.6V | 00:00:00 | 00:00:00 | 00:00:00 | |
| DO3MHA-12 | 2026-08-31 05:21:41 | 48.11716 | 12.17855 | 208° | 11km/h | 26588m | 4.6m/s | -50.6°C | 3.7% | 20.9hPa | 2.6V | 00:00:00 | 01:54:00 | 00:00:00 | |
| NBG1-10 | 2026-08-31 05:21:39 | 48.11721 | 12.17858 | 200° | 7km/h | 26578m | 5.5m/s | -50.6°C | 3.8% | 20.9hPa | 2.6V | 00:00:00 | 01:53:58 | 00:00:00 | |
| OE5MMP-10 | 2026-08-31 05:21:38 | 48.11725 | 12.17860 | 205° | 7km/h | 26572m | 5.2m/s | -50.6°C | 3.7% | 20.9hPa | 2.7V | 01:46:00 | 01:53:57 | 00:00:00 | |
| BAUMI2-15 | 2026-08-31 05:21:36 | 48.11732 | 12.17865 | 198° | 7km/h | 26563m | 5.1m/s | -50.6°C | 3.8% | 21.0hPa | 2.7V | 01:46:00 | 01:53:55 | 00:00:00 | |
| DO3MHA-11 | 2026-08-31 05:21:35 | 48.11734 | 12.17866 | 185° | 4km/h | 26557m | 5.9m/s | -50.6°C | 3.9% | 21.0hPa | 2.7V | 01:46:00 | 01:53:54 | 00:00:00 | |
| DM0DOS-11 | 2026-08-31 05:21:34 | 48.11738 | 12.17865 | 263° | 2km/h | 26540m | 6.1m/s | -50.6°C | 3.9% | 21.1hPa | 2.7V | 01:46:55 | 01:53:51 | 00:00:00 | |
| DL1ZP-14 | 2026-08-31 05:21:32 | 48.11738 | 12.17865 | 263° | 2km/h | 26540m | 6.1m/s | -50.6°C | 1.0% | 21.1hPa | 2.7V | 00:00:00 | 00:00:00 | 00:00:00 | |
| BAUMI2-15 | 2026-08-31 05:21:31 | 48.11738 | 12.17866 | 288° | 4km/h | 26535m | 4.3m/s | -50.5°C | 3.9% | 21.1hPa | 2.7V | 00:00:00 | 01:53:50 | 00:00:00 | |
| DF1GD-15 | 2026-08-31 05:21:30 | 48.11738 | 12.17867 | 288° | 4km/h | 26535m | 4.3m/s | -50.6°C | 1.1% | 21.1hPa | 2.6V | 00:00:00 | 00:00:00 | 00:00:00 | |
| OE5DXL-15 | 2026-08-31 05:21:29 | 48.11737 | 12.17869 | 284° | 7km/h | 26526m | 5.8m/s | -50.5°C | 3.9% | 21.1hPa | 2.6V | 00:00:00 | 00:00:00 | 00:00:00 | |
| OE5MMP-10 | 2026-08-31 05:21:28 | 48.11737 | 12.17869 | 171° | 9km/h | 26520m | 5.3m/s | -50.4°C | 3.9% | 21.1hPa | 2.6V | 00:00:00 | 01:53:47 | 00:00:00 | |
| BAUMI2-15 | 2026-08-31 05:21:26 | 48.11739 | 12.17869 | 176° | 11km/h | 26510m | 4.9m/s | -50.4°C | 3.8% | 21.2hPa | 2.6V | 01:47:00 | 01:53:45 | 00:00:00 | |
| DO3MHA-11 | 2026-08-31 05:21:25 | 48.11741 | 12.17869 | 194° | 9km/h | 26504m | 6.4m/s | -50.3°C | 3.8% | 21.2hPa | 2.6V | 00:00:00 | 01:53:44 | 00:00:00 | |
| DM0DOS-11 | 2026-08-31 05:21:24 | 48.11750 | 12.17874 | 190° | 13km/h | 26487m | 5.7m/s | -50.2°C | 3.7% | 21.2hPa | 2.6V | 01:47:05 | 01:53:41 | 00:00:00 | |
| DF7PN | 2026-08-31 05:21:23 | 48.11747 | 12.17872 | 201° | 13km/h | 26493m | 4.5m/s | -50.3°C | 1.0% | 21.2hPa | 2.7V | 00:00:00 | 00:00:00 | 00:00:00 | |
| OE5WHR-10 | 2026-08-31 05:21:22 | 48.11750 | 12.17873 | 191° | 7km/h | 26488m | 5.6m/s | -50.2°C | 3.7% | 21.2hPa | 2.7V | 01:47:00 | 01:53:41 | 00:00:00 | |
| DO3MHA-12 | 2026-08-31 05:21:21 | 48.11753 | 12.17874 | 175° | 5km/h | 26482m | 5.6m/s | -50.2°C | 3.8% | 21.3hPa | 2.7V | 00:00:00 | 01:53:40 | 00:00:00 | |
| DG1MFX-10 | 2026-08-31 05:21:20 | 48.11753 | 12.17874 | 175° | 13km/h | 26482m | 5.7m/s | -50.2°C | 1.1% | 21.3hPa | 2.6V | 01:47:00 | 00:00:00 | 00:00:00 | |
| OE5MMP-10 | 2026-08-31 05:21:18 | 48.11761 | 12.17871 | 166° | 7km/h | 26465m | 5.6m/s | -50.2°C | 3.7% | 21.3hPa | 2.6V | 01:47:00 | 01:53:37 | 00:00:00 | |
| BAUMI2-15 | 2026-08-31 05:21:16 | 48.11762 | 12.17870 | 123° | 4km/h | 26455m | 5.8m/s | -50.2°C | 3.6% | 21.3hPa | 2.7V | 01:47:00 | 01:53:35 | 00:00:00 | |
| DO3MHA-11 | 2026-08-31 05:21:15 | 48.11762 | 12.17870 | 130° | 9km/h | 26449m | 5.7m/s | -50.1°C | 3.6% | 21.4hPa | 2.6V | 01:47:00 | 01:53:34 | 00:00:00 | |
| DM0DOS-11 | 2026-08-31 05:21:14 | 48.11765 | 12.17871 | 234° | 7km/h | 26433m | 6.3m/s | -50.2°C | 3.8% | 21.4hPa | 2.7V | 01:47:15 | 01:53:31 | 00:00:00 | |
| DB0UT-7 | 2026-08-31 05:21:14 | 48.11762 | 12.17869 | 170° | 9km/h | 26444m | 4.5m/s | -50.1°C | 3.6% | 21.4hPa | 2.7V | 00:00:00 | 00:00:00 | 00:00:00 | |
| OE9MKV-15 | 2026-08-31 05:21:13 | 48.11763 | 12.17870 | 215° | 9km/h | 26439m | 4.6m/s | 0°C | 0% | 0hPa | 2.7V | 01:47:00 | 01:53:32 | 00:00:00 | |
| DM7RM-13 | 2026-08-31 05:21:12 | 48.11763 | 12.17870 | 215° | 4km/h | 26439m | 4.7m/s | -50.2°C | 1.0% | 21.5hPa | 2.7V | 00:00:00 | 00:00:00 | 00:00:00 | |
| BAUMI2-15 | 2026-08-31 05:21:11 | 48.11766 | 12.17875 | 243° | 13km/h | 26428m | 5.7m/s | -50.2°C | 3.9% | 21.4hPa | 2.7V | 00:00:00 | 01:53:30 | 00:00:00 | |
| OE5MMP-10 | 2026-08-31 05:21:08 | 48.11772 | 12.17887 | 217° | 7km/h | 26412m | 5.5m/s | -50.1°C | 3.8% | 21.4hPa | 2.7V | 00:00:00 | 01:53:27 | 00:00:00 | |
| BAUMI2-15 | 2026-08-31 05:21:06 | 48.11775 | 12.17890 | 183° | 5km/h | 26401m | 5.3m/s | -50.0°C | 3.7% | 21.5hPa | 2.7V | 01:47:00 | 01:53:25 | 00:00:00 | |
| DO3MHA-11 | 2026-08-31 05:21:05 | 48.11776 | 12.17889 | 152° | 7km/h | 26395m | 6.2m/s | -50.0°C | 3.7% | 21.5hPa | 2.7V | 00:00:00 | 01:53:24 | 00:00:00 | |
| DM0DOS-11 | 2026-08-31 05:21:04 | 48.11777 | 12.17877 | 117° | 9km/h | 26369m | 4.1m/s | -50°C | 3.6% | 21.6hPa | 2.7V | 01:47:27 | 01:53:19 | 00:00:00 | |
| DO3MHA-12 | 2026-08-31 05:21:01 | 48.11776 | 12.17880 | 106° | 11km/h | 26373m | 4.5m/s | -50.0°C | 3.6% | 21.6hPa | 2.7V | 00:00:00 | 01:53:20 | 00:00:00 | |
| DG1MFX-10 | 2026-08-31 05:21:00 | 48.11776 | 12.17880 | 106° | 11km/h | 26373m | 4.6m/s | -50.0°C | 1.0% | 21.6hPa | 2.7V | 01:47:00 | 00:00:00 | 00:00:00 | |
| OE5DXL-15 | 2026-08-31 05:20:59 | 48.11778 | 12.17875 | 141° | 9km/h | 26364m | 6.0m/s | -50.0°C | 3.6% | 21.6hPa | 2.7V | 01:47:00 | 00:00:00 | 00:00:00 | |
| OE5MMP-10 | 2026-08-31 05:20:58 | 48.11780 | 12.17874 | 195° | 9km/h | 26358m | 5.8m/s | -50.1°C | 3.7% | 21.6hPa | 2.7V | 01:47:00 | 01:53:17 | 00:00:00 | |
| OE5DRO-10 | 2026-08-31 05:20:57 | 48.11782 | 12.17875 | 216° | 9km/h | 26352m | 4.9m/s | -50.2°C | 3.7% | 21.7hPa | 2.7V | 01:47:00 | 00:00:00 | 00:00:00 | |
| BAUMI2-15 | 2026-08-31 05:20:56 | 48.11784 | 12.17878 | 213° | 11km/h | 26347m | 5.3m/s | -50.2°C | 3.7% | 21.7hPa | 2.7V | 01:47:00 | 01:53:15 | 00:00:00 | |
| DM0DOS-11 | 2026-08-31 05:20:55 | 48.11798 | 12.17880 | 88° | 5km/h | 26316m | 5m/s | -50.2°C | 3.6% | 21.9hPa | 2.7V | 01:47:37 | 01:53:09 | 00:00:00 | |
| DF7PN | 2026-08-31 05:20:52 | 48.11797 | 12.17882 | 150° | 4km/h | 26321m | 5.7m/s | -50.2°C | 1.0% | 21.8hPa | 2.6V | 00:00:00 | 00:00:00 | 00:00:00 | |
| DL6DJ-15 | 2026-08-31 05:20:47 | 48.11796 | 12.17869 | 80° | 15km/h | 26300m | 4.9m/s | -50.3°C | 1.0% | 21.9hPa | 2.6V | 00:00:00 | 00:00:00 | 00:00:00 | |
| DK5PH-5 | 2026-08-31 05:20:46 | 48.11795 | 12.17863 | 77° | 9km/h | 26295m | 4.7m/s | -50.3°C | 3.6% | 21.9hPa | 2.6V | 00:00:00 | 01:53:05 | 00:00:00 | |
| DB0NH | 2026-08-31 05:20:45 | 48.11794 | 12.17858 | 67° | 9km/h | 26290m | 6.2m/s | -50.2°C | 3.6% | 21.9hPa | 2.7V | 01:47:00 | 01:53:04 | 00:00:00 | |
| DM0DOS-11 | 2026-08-31 05:20:44 | 48.11789 | 12.17852 | 31° | 2km/h | 26262m | 4.9m/s | -50.5°C | 3.7% | 22hPa | 2.7V | 01:47:47 | 01:52:59 | 00:00:00 | |
| DB0UT-7 | 2026-08-31 05:20:44 | 48.11793 | 12.17855 | 47° | 7km/h | 26284m | 5.2m/s | -50.2°C | 3.6% | 21.9hPa | 2.7V | 01:47:00 | 01:53:03 | 00:00:00 | |
| DG1MJG | 2026-08-31 05:20:43 | 48.11793 | 12.17855 | 48° | 7km/h | 26284m | 5.3m/s | -50.2°C | 0.9% | 22.0hPa | 2.6V | 01:47:00 | 00:00:00 | 00:00:00 | |
| OE9MKV-15 | 2026-08-31 05:20:42 | 48.11791 | 12.17853 | 25° | 7km/h | 26273m | 6.1m/s | 0°C | 0% | 0hPa | 2.6V | 00:00:00 | 01:53:01 | 00:00:00 | |
| DO3MHA-12 | 2026-08-31 05:20:41 | 48.11790 | 12.17852 | 36° | 9km/h | 26267m | 5.4m/s | -50.3°C | 3.7% | 22.0hPa | 2.6V | 00:00:00 | 01:53:00 | 00:00:00 | |
| OE5WHR-10 | 2026-08-31 05:20:40 | 48.11790 | 12.17852 | 32° | 9km/h | 26262m | 4.9m/s | -50.4°C | 3.7% | 22.0hPa | 2.6V | 01:47:00 | 00:00:00 | 00:00:00 | |
| DG1MFX-10 | 2026-08-31 05:20:39 | 48.11789 | 12.17852 | 32° | 2km/h | 26262m | 4.9m/s | -50.5°C | 1.0% | 22.0hPa | 2.6V | 01:48:00 | 00:00:00 | 00:00:00 | |
| OE5MMP-10 | 2026-08-31 05:20:38 | 48.11788 | 12.17851 | 2° | 11km/h | 26251m | 5.6m/s | -50.5°C | 3.8% | 22.0hPa | 2.6V | 01:47:00 | 01:52:57 | 00:00:00 | |
| DO3MHA-11 | 2026-08-31 05:20:35 | 48.11783 | 12.17846 | 70° | 9km/h | 26235m | 5.8m/s | -50.6°C | 3.8% | 22.0hPa | 2.6V | 01:47:00 | 01:52:54 | 00:00:00 | |
| DM0DOS-11 | 2026-08-31 05:20:34 | 48.11778 | 12.17824 | 34° | 7km/h | 26209m | 5.4m/s | -50.6°C | 3.8% | 22.2hPa | 2.6V | 01:47:57 | 01:52:49 | 00:00:00 | |
| SONCRA | 2026-08-31 05:20:34 | 48.11782 | 12.17836 | 78° | 15km/h | 26225m | 4.4m/s | -50.6°C | 1.0% | 22.1hPa | 2.6V | 00:00:00 | 00:00:00 | 00:00:00 | |
| PG1ADW-2 | 2026-08-31 05:20:33 | 48.11782 | 12.17836 | 79° | 9km/h | 26226m | 4.4m/s | -50.6°C | 3.8% | 22.1hPa | 2.6V | 01:47:00 | 00:00:00 | 00:00:00 | |
| OM5KV | 2026-08-31 05:20:32 | 48.11782 | 12.17836 | 80° | 15km/h | 26226m | 4.4m/s | -50.6°C | 1.0% | 22.1hPa | 2.6V | 00:00:00 | 00:00:00 | 00:00:00 | |
| DO3MHA-12 | 2026-08-31 05:20:31 | 48.11779 | 12.17826 | 57° | 9km/h | 26214m | 5.6m/s | -50.5°C | 3.8% | 22.1hPa | 2.6V | 01:47:00 | 01:52:50 | 00:00:00 | |
| DL1ZP-14 | 2026-08-31 05:20:30 | 48.11778 | 12.17824 | 34° | 7km/h | 26209m | 5.4m/s | -50.6°C | 1.0% | 22.2hPa | 2.6V | 00:00:00 | 00:00:00 | 00:00:00 | |
| OE5DXL-15 | 2026-08-31 05:20:29 | 48.11776 | 12.17822 | 17° | 9km/h | 26204m | 5.3m/s | -50.6°C | 3.8% | 22.1hPa | 2.7V | 00:00:00 | 00:00:00 | 00:00:00 | |
| OE5MMP-10 | 2026-08-31 05:20:28 | 48.11775 | 12.17822 | 13° | 9km/h | 26198m | 6.1m/s | -50.6°C | 3.7% | 22.2hPa | 2.6V | 00:00:00 | 01:52:47 | 00:00:00 | |
| SONDE2-11 | 2026-08-31 05:20:26 | 48.11772 | 12.17821 | 353° | 5km/h | 26187m | 4.9m/s | -50.7°C | 1.0% | 22.3hPa | 2.6V | 00:00:00 | 00:00:00 | 00:00:00 | |
| DO3MHA-11 | 2026-08-31 05:20:25 | 48.11770 | 12.17822 | 348° | 9km/h | 26181m | 6.6m/s | -50.6°C | 3.7% | 22.3hPa | 2.6V | 00:00:00 | 01:52:44 | 00:00:00 | |
| DM0DOS-11 | 2026-08-31 05:20:24 | 48.11757 | 12.17820 | 31° | 9km/h | 26154m | 4.5m/s | -50.6°C | 3.7% | 22.4hPa | 2.6V | 01:48:07 | 01:52:39 | 00:00:00 | |
| OM5KV | 2026-08-31 05:20:22 | 48.11764 | 12.17823 | 359° | 13km/h | 26170m | 5.6m/s | -50.6°C | 1.0% | 22.3hPa | 2.6V | 01:48:00 | 00:00:00 | 00:00:00 | |
| DO3MHA-12 | 2026-08-31 05:20:21 | 48.11759 | 12.17822 | 25° | 7km/h | 26159m | 4.6m/s | -50.5°C | 3.6% | 22.3hPa | 2.6V | 00:00:00 | 01:52:40 | 00:00:00 | |
| OE5WHR-10 | 2026-08-31 05:20:19 | 48.11755 | 12.17819 | 25° | 9km/h | 26149m | 6.4m/s | -50.7°C | 3.7% | 22.3hPa | 2.7V | 00:00:00 | 01:52:38 | 00:00:00 | |
| OE5MMP-10 | 2026-08-31 05:20:18 | 48.11753 | 12.17818 | 12° | 9km/h | 26143m | 5.5m/s | -50.7°C | 3.7% | 22.4hPa | 2.7V | 01:48:00 | 01:52:37 | 00:00:00 | |
| DK5PH-5 | 2026-08-31 05:20:16 | 48.11749 | 12.17817 | 11° | 13km/h | 26133m | 4.7m/s | -50.7°C | 3.8% | 22.4hPa | 2.6V | 01:48:00 | 01:52:35 | 00:00:00 | |
| DM0DOS-11 | 2026-08-31 05:20:15 | 48.11741 | 12.17807 | 6° | 11km/h | 26100m | 5.2m/s | -50.9°C | 3.8% | 22.6hPa | 2.6V | 01:48:17 | 01:52:29 | 00:00:00 | |
| DB0NH | 2026-08-31 05:20:15 | 48.11748 | 12.17816 | 38° | 13km/h | 26127m | 6.2m/s | -50.8°C | 3.8% | 22.4hPa | 2.6V | 00:00:00 | 01:52:34 | 00:00:00 | |
| DB0UT-7 | 2026-08-31 05:20:14 | 48.11747 | 12.17814 | 67° | 13km/h | 26122m | 5.4m/s | -50.8°C | 3.8% | 22.4hPa | 2.6V | 00:00:00 | 00:00:00 | 00:00:00 | |
| PG1ADW-2 | 2026-08-31 05:20:13 | 48.11747 | 12.17812 | 67° | 11km/h | 26116m | 4.8m/s | -50.8°C | 3.8% | 22.5hPa | 2.6V | 00:00:00 | 00:00:00 | 00:00:00 | |
| OE5MMP-10 | 2026-08-31 05:20:08 | 48.11736 | 12.17806 | 8° | 11km/h | 26089m | 6.5m/s | -50.9°C | 3.8% | 22.5hPa | 2.6V | 00:00:00 | 01:52:27 | 00:00:00 | |
| OM5KV | 2026-08-31 05:20:07 | 48.11736 | 12.17806 | 8° | 11km/h | 26089m | 6.5m/s | -51.0°C | 1.0% | 22.6hPa | 2.6V | 01:48:00 | 00:00:00 | 00:00:00 | |
| DO3MHA-11 | 2026-08-31 05:20:05 | 48.11729 | 12.17804 | 7° | 11km/h | 26073m | 5.3m/s | -51.0°C | 3.9% | 22.6hPa | 2.6V | 00:00:00 | 01:52:24 | 00:00:00 | |
| DM0DOS-11 | 2026-08-31 05:20:03 | 48.11713 | 12.17802 | 22° | 11km/h | 26046m | 5m/s | -51.1°C | 3.8% | 22.8hPa | 2.6V | 01:48:27 | 01:52:19 | 00:00:00 | |
| SONCRA | 2026-08-31 05:20:03 | 48.11716 | 12.17803 | 14° | 13km/h | 26052m | 5.4m/s | -51.1°C | 1.1% | 22.8hPa | 2.6V | 00:00:00 | 00:00:00 | 00:00:00 | |
| DO3MHA-12 | 2026-08-31 05:20:01 | 48.11716 | 12.17803 | 15° | 13km/h | 26052m | 5.4m/s | -51.1°C | 3.9% | 22.7hPa | 2.6V | 00:00:00 | 01:52:20 | 00:00:00 | |
| NBG1-10 | 2026-08-31 05:20:00 | 48.11713 | 12.17802 | 23° | 15km/h | 26047m | 5.0m/s | -51.1°C | 3.8% | 22.7hPa | 2.6V | 01:48:00 | 01:52:19 | 00:00:00 | |
| OE5DXL-15 | 2026-08-31 05:19:59 | 48.11710 | 12.17800 | 18° | 15km/h | 26042m | 4.4m/s | -51.1°C | 3.8% | 22.7hPa | 2.7V | 01:48:00 | 00:00:00 | 00:00:00 | |
| OE5WHR-10 | 2026-08-31 05:19:58 | 48.11709 | 12.17800 | 349° | 15km/h | 26037m | 4.9m/s | -51.1°C | 3.8% | 22.7hPa | 2.7V | 01:48:00 | 00:00:00 | 00:00:00 | |
| DG1MFX-10 | 2026-08-31 05:19:57 | 48.11709 | 12.17800 | 350° | 5km/h | 26037m | 4.9m/s | -51.2°C | 1.1% | 22.8hPa | 2.6V | 01:48:00 | 00:00:00 | 00:00:00 | |
| DM0DOS-11 | 2026-08-31 05:19:55 | 48.11684 | 12.17819 | 351° | 18km/h | 25993m | 6.5m/s | -51.1°C | 3.9% | 22.9hPa | 2.6V | 01:48:37 | 01:52:09 | 00:00:00 | |
| DF7PN | 2026-08-31 05:19:50 | 48.11680 | 12.17820 | 347° | 18km/h | 25987m | 5.0m/s | -51.1°C | 1.0% | 23.0hPa | 2.6V | 00:00:00 | 00:00:00 | 00:00:00 | |
| OE5MMP-10 | 2026-08-31 05:19:48 | 48.11675 | 12.17821 | 348° | 15km/h | 25982m | 4.9m/s | -51.0°C | 3.8% | 23.0hPa | 2.6V | 00:00:00 | 01:52:07 | 00:00:00 | |
| DK5PH-5 | 2026-08-31 05:19:46 | 48.11668 | 12.17823 | 357° | 15km/h | 25971m | 5.4m/s | -51.1°C | 3.8% | 23.0hPa | 2.7V | 00:00:00 | 01:52:05 | 00:00:00 | |
| DO3MHA-11 | 2026-08-31 05:19:45 | 48.11665 | 12.17824 | 356° | 16km/h | 25966m | 4.4m/s | -51.1°C | 3.8% | 23.0hPa | 2.7V | 00:00:00 | 01:52:04 | 00:00:00 | |
| DB0UT-7 | 2026-08-31 05:19:44 | 48.11662 | 12.17824 | 346° | 15km/h | 25960m | 5.5m/s | -51.1°C | 3.7% | 23.0hPa | 2.7V | 01:48:00 | 01:52:03 | 00:00:00 | |
| OM5KV | 2026-08-31 05:19:43 | 48.11662 | 12.17824 | 347° | 11km/h | 25960m | 5.5m/s | -51.1°C | 1.0% | 23.0hPa | 2.7V | 01:49:00 | 00:00:00 | 00:00:00 | |
| DM0DOS-11 | 2026-08-31 05:19:42 | 48.11649 | 12.17836 | 325° | 16km/h | 25937m | 6.5m/s | -51.2°C | 3.7% | 23.1hPa | 2.7V | 01:48:47 | 01:51:59 | 00:00:00 | |
| DO3MHA-12 | 2026-08-31 05:19:41 | 48.11652 | 12.17833 | 326° | 16km/h | 25944m | 5.1m/s | -51.2°C | 3.6% | 23.1hPa | 2.7V | 00:00:00 | 01:52:00 | 00:00:00 | |
| OE5MMP-10 | 2026-08-31 05:19:38 | 48.11642 | 12.17843 | 321° | 16km/h | 25927m | 5.2m/s | -51.3°C | 3.8% | 23.1hPa | 2.7V | 01:48:00 | 01:51:57 | 00:00:00 | |
| OE5WHR-10 | 2026-08-31 05:19:37 | 48.11639 | 12.17847 | 316° | 15km/h | 25921m | 6.3m/s | -51.3°C | 3.9% | 23.2hPa | 2.7V | 00:00:00 | 00:00:00 | 00:00:00 | |
| DM0DOS-11 | 2026-08-31 05:19:35 | 48.11617 | 12.17877 | 323° | 13km/h | 25882m | 5.8m/s | -51.7°C | 3.9% | 23.4hPa | 2.7V | 01:48:57 | 01:51:49 | 00:00:00 | |
| DO3MHA-11 | 2026-08-31 05:19:35 | 48.11632 | 12.17858 | 315° | 16km/h | 25910m | 4.5m/s | -51.4°C | 3.9% | 23.2hPa | 2.6V | 01:48:00 | 01:51:54 | 00:00:00 | |
| PG1ADW-2 | 2026-08-31 05:19:33 | 48.11625 | 12.17868 | 321° | 13km/h | 25898m | 6.3m/s | -51.5°C | 4.0% | 23.2hPa | 2.6V | 00:00:00 | 00:00:00 | 00:00:00 | |
| SONCRA | 2026-08-31 05:19:32 | 48.11620 | 12.17874 | 326° | 11km/h | 25888m | 4.9m/s | -51.6°C | 1.0% | 23.3hPa | 2.6V | 00:00:00 | 00:00:00 | 00:00:00 | |
| DO3MHA-12 | 2026-08-31 05:19:31 | 48.11620 | 12.17874 | 327° | 15km/h | 25888m | 4.8m/s | -51.5°C | 3.9% | 23.3hPa | 2.6V | 01:48:00 | 01:51:50 | 00:00:00 | |
| OM5KV | 2026-08-31 05:19:30 | 48.11620 | 12.17874 | 328° | 13km/h | 25888m | 4.9m/s | -51.6°C | 1.0% | 23.3hPa | 2.6V | 01:49:00 | 00:00:00 | 00:00:00 | |
| OE5DXL-15 | 2026-08-31 05:19:29 | 48.11614 | 12.17880 | 318° | 9km/h | 25877m | 5.9m/s | -51.7°C | 4.0% | 23.3hPa | 2.6V | 00:00:00 | 00:00:00 | 00:00:00 | |
| OE5MMP-10 | 2026-08-31 05:19:28 | 48.11611 | 12.17884 | 315° | 15km/h | 25871m | 4.8m/s | -51.8°C | 4.1% | 23.3hPa | 2.6V | 00:00:00 | 01:51:47 | 00:00:00 | |
| NBG1-10 | 2026-08-31 05:19:27 | 48.11608 | 12.17890 | 314° | 9km/h | 25867m | 4.9m/s | -51.9°C | 4.1% | 23.3hPa | 2.6V | 00:00:00 | 01:51:46 | 00:00:00 | |
| OM5KV | 2026-08-31 05:19:26 | 48.11608 | 12.17890 | 315° | 18km/h | 25867m | 4.9m/s | -51.9°C | 1.1% | 23.4hPa | 2.6V | 01:49:00 | 00:00:00 | 00:00:00 | |
| DO3MHA-11 | 2026-08-31 05:19:25 | 48.11602 | 12.17898 | 324° | 11km/h | 25855m | 5.7m/s | -51.8°C | 4.0% | 23.4hPa | 2.6V | 00:00:00 | 01:51:44 | 00:00:00 | |
| DM0DOS-11 | 2026-08-31 05:19:24 | 48.11588 | 12.17909 | 343° | 11km/h | 25828m | 5.2m/s | -51.8°C | 4% | 23.5hPa | 2.6V | 01:49:07 | 01:51:39 | 00:00:00 | |
| OE5DRO-10 | 2026-08-31 05:19:22 | 48.11593 | 12.17905 | 332° | 7km/h | 25838m | 5.5m/s | -51.8°C | 4.1% | 23.5hPa | 2.6V | 00:00:00 | 00:00:00 | 00:00:00 | |
| DO3MHA-12 | 2026-08-31 05:19:21 | 48.11590 | 12.17907 | 334° | 7km/h | 25833m | 4.6m/s | -51.7°C | 4.1% | 23.5hPa | 2.6V | 00:00:00 | 01:51:40 | 00:00:00 | |
| EDDB2-11 | 2026-08-31 05:19:19 | 48.11585 | 12.17909 | 4° | 7km/h | 25822m | 6.0m/s | -51.7°C | 1.0% | 23.6hPa | 2.7V | 00:00:00 | 00:00:00 | 00:00:00 | |
| OE5MMP-10 | 2026-08-31 05:19:18 | 48.11583 | 12.17909 | 23° | 5km/h | 25817m | 5.1m/s | -51.6°C | 3.9% | 23.5hPa | 2.7V | 01:49:00 | 01:51:37 | 00:00:00 | |
| OM5KV | 2026-08-31 05:19:17 | 48.11581 | 12.17908 | 21° | 7km/h | 25811m | 5.1m/s | -51.7°C | 1.0% | 23.6hPa | 2.6V | 01:49:00 | 00:00:00 | 00:00:00 | |
| DK5PH-5 | 2026-08-31 05:19:16 | 48.11580 | 12.17907 | 3° | 9km/h | 25806m | 6.1m/s | -51.6°C | 3.9% | 23.6hPa | 2.6V | 01:49:00 | 01:51:35 | 00:00:00 | |
| DO3MHA-11 | 2026-08-31 05:19:15 | 48.11578 | 12.17907 | 344° | 4km/h | 25800m | 4.5m/s | -51.6°C | 3.9% | 23.6hPa | 2.7V | 01:49:00 | 01:51:34 | 00:00:00 | |
| DL6DJ-15 | 2026-08-31 05:19:14 | 48.11576 | 12.17909 | 337° | 2km/h | 25789m | 6.3m/s | -51.6°C | 1.1% | 23.7hPa | 2.6V | 00:00:00 | 00:00:00 | 00:00:00 | |
| PG1ADW-2 | 2026-08-31 05:19:13 | 48.11575 | 12.17909 | 338° | 9km/h | 25790m | 6.3m/s | -51.6°C | 3.9% | 23.6hPa | 2.6V | 01:49:00 | 00:00:00 | 00:00:00 | |
| DO3MHA-12 | 2026-08-31 05:19:11 | 48.11575 | 12.17909 | 22° | 7km/h | 25779m | 4.7m/s | -51.6°C | 3.9% | 23.7hPa | 2.6V | 01:49:00 | 01:51:30 | 00:00:00 | |
| OE9MKV-15 | 2026-08-31 05:19:08 | 48.11572 | 12.17911 | 332° | 11km/h | 25763m | 4.1m/s | 0°C | 0% | 0hPa | 2.6V | 00:00:00 | 01:51:27 | 00:00:00 | |
| OM5KV | 2026-08-31 05:19:07 | 48.11573 | 12.17911 | 332° | 5km/h | 25763m | 4.2m/s | -51.8°C | 1.1% | 23.8hPa | 2.6V | 01:49:00 | 00:00:00 | 00:00:00 | |
| OM5KV | 2026-08-31 05:19:06 | 48.11571 | 12.17911 | 360° | 4km/h | 25758m | 5.3m/s | -51.8°C | 1.0% | 23.8hPa | 2.6V | 01:49:00 | 00:00:00 | 00:00:00 | |
| DM0DOS-11 | 2026-08-31 05:19:05 | 48.11560 | 12.17888 | 52° | 16km/h | 25720m | 5.5m/s | -51.8°C | 3.9% | 23.9hPa | 2.6V | 01:49:27 | 01:51:19 | 00:00:00 | |
| DO3MHA-11 | 2026-08-31 05:19:05 | 48.11570 | 12.17908 | 72° | 15km/h | 25747m | 5.2m/s | -51.8°C | 3.9% | 23.8hPa | 2.6V | 00:00:00 | 01:51:24 | 00:00:00 | |
| DM7RM-13 | 2026-08-31 05:19:04 | 48.11570 | 12.17908 | 72° | 9km/h | 25747m | 5.2m/s | -51.8°C | 1.1% | 23.8hPa | 2.6V | 00:00:00 | 00:00:00 | 00:00:00 | |
| OE5DRO-10 | 2026-08-31 05:19:03 | 48.11567 | 12.17901 | 58° | 11km/h | 25735m | 6.5m/s | -51.8°C | 4.0% | 23.8hPa | 2.6V | 01:49:00 | 00:00:00 | 00:00:00 | |
| OM5KV | 2026-08-31 05:19:02 | 48.11568 | 12.17901 | 58° | 13km/h | 25735m | 6.5m/s | -51.8°C | 1.1% | 23.9hPa | 2.6V | 01:49:00 | 00:00:00 | 00:00:00 | |
| DL1ZP-14 | 2026-08-31 05:18:57 | 48.11553 | 12.17867 | 61° | 9km/h | 25699m | 5.6m/s | -51.7°C | 1.0% | 24.0hPa | 2.6V | 00:00:00 | 00:00:00 | 00:00:00 | |
| DO3MHA-11 | 2026-08-31 05:18:55 | 48.11552 | 12.17864 | 33° | 9km/h | 25693m | 5.7m/s | -51.8°C | 3.9% | 24.0hPa | 2.7V | 01:49:00 | 01:51:14 | 00:00:00 | |
| NBG1-10 | 2026-08-31 05:18:54 | 48.11550 | 12.17863 | 6° | 11km/h | 25688m | 5.7m/s | -51.8°C | 3.9% | 24.0hPa | 2.7V | 01:49:00 | 01:51:13 | 00:00:00 | |
| PG1ADW-2 | 2026-08-31 05:18:53 | 48.11547 | 12.17863 | 355° | 11km/h | 25682m | 5.1m/s | -51.9°C | 3.9% | 24.0hPa | 2.7V | 00:00:00 | 00:00:00 | 00:00:00 | |
| DO3MHA-12 | 2026-08-31 05:18:51 | 48.11543 | 12.17862 | 16° | 11km/h | 25671m | 5.2m/s | -52.0°C | 4.0% | 24.1hPa | 2.6V | 01:49:00 | 01:51:10 | 00:00:00 | |
| OM5KV | 2026-08-31 05:18:50 | 48.11543 | 12.17863 | 17° | 7km/h | 25671m | 5.2m/s | -52.0°C | 1.1% | 24.1hPa | 2.7V | 01:50:00 | 00:00:00 | 00:00:00 | |
| OE5MMP-10 | 2026-08-31 05:18:48 | 48.11537 | 12.17859 | 29° | 11km/h | 25654m | 5.0m/s | -52.1°C | 4.0% | 24.2hPa | 2.7V | 00:00:00 | 01:51:07 | 00:00:00 | |
| DM0DOS-11 | 2026-08-31 05:18:47 | 48.11527 | 12.17840 | 16° | 9km/h | 25621m | 4.5m/s | -52.1°C | 4% | 24.3hPa | 2.7V | 01:49:45 | 01:51:01 | 00:00:00 | |
| BAUMI2-15 | 2026-08-31 05:18:47 | 48.11535 | 12.17856 | 45° | 11km/h | 25649m | 5.2m/s | -52.1°C | 4.0% | 24.2hPa | 2.6V | 00:00:00 | 01:51:06 | 00:00:00 | |
| DK5PH-5 | 2026-08-31 05:18:46 | 48.11534 | 12.17853 | 62° | 13km/h | 25643m | 5.8m/s | -52.1°C | 4.0% | 24.2hPa | 2.6V | 00:00:00 | 01:51:05 | 00:00:00 | |
| DB0NH | 2026-08-31 05:18:45 | 48.11532 | 12.17849 | 68° | 11km/h | 25638m | 4.8m/s | -52.1°C | 4.0% | 24.2hPa | 2.6V | 01:49:00 | 01:51:04 | 00:00:00 | |
| DB0UT-7 | 2026-08-31 05:18:44 | 48.11531 | 12.17845 | 62° | 11km/h | 25633m | 5.6m/s | -52.2°C | 4.0% | 24.2hPa | 2.6V | 01:49:00 | 01:51:03 | 00:00:00 | |
| DL6DJ-15 | 2026-08-31 05:18:43 | 48.11527 | 12.17840 | 16° | 9km/h | 25621m | 4.5m/s | -52.1°C | 1.1% | 24.3hPa | 2.6V | 00:00:00 | 00:00:00 | 00:00:00 | |
| DG1MJG | 2026-08-31 05:18:42 | 48.11527 | 12.17840 | 17° | 9km/h | 25622m | 4.5m/s | -52.1°C | 1.1% | 24.3hPa | 2.6V | 01:50:00 | 00:00:00 | 00:00:00 | |
| DO3MHA-12 | 2026-08-31 05:18:41 | 48.11525 | 12.17840 | 360° | 13km/h | 25617m | 4.6m/s | -52.1°C | 4.0% | 24.3hPa | 2.6V | 00:00:00 | 01:51:00 | 00:00:00 | |
| OM5KV | 2026-08-31 05:18:39 | 48.11523 | 12.17840 | 346° | 9km/h | 25611m | 6.1m/s | -52.2°C | 1.1% | 24.4hPa | 2.6V | 01:50:00 | 00:00:00 | 00:00:00 | |
| OE5MMP-10 | 2026-08-31 05:18:38 | 48.11519 | 12.17844 | 320° | 13km/h | 25601m | 4.5m/s | -52.2°C | 4.1% | 24.3hPa | 2.6V | 01:49:00 | 01:50:57 | 00:00:00 | |
| DM0DOS-11 | 2026-08-31 05:18:37 | 48.11496 | 12.17849 | 17° | 13km/h | 25569m | 5.9m/s | -52.3°C | 4.1% | 24.6hPa | 2.6V | 01:49:55 | 01:50:51 | 00:00:00 | |
| OE9MKV-15 | 2026-08-31 05:18:37 | 48.11517 | 12.17847 | 330° | 13km/h | 25596m | 5.4m/s | 0°C | 0% | 0hPa | 2.6V | 01:49:00 | 01:50:56 | 00:00:00 | |
| DO3MHA-11 | 2026-08-31 05:18:35 | 48.11509 | 12.17851 | 352° | 13km/h | 25584m | 4.7m/s | -52.2°C | 4.0% | 24.4hPa | 2.6V | 01:49:00 | 01:50:54 | 00:00:00 | |
| OE5WHR-10 | 2026-08-31 05:18:34 | 48.11504 | 12.17851 | 1° | 11km/h | 25580m | 4.0m/s | -52.3°C | 4.0% | 24.4hPa | 2.6V | 01:49:00 | 00:00:00 | 00:00:00 | |
| OM5KV | 2026-08-31 05:18:33 | 48.11504 | 12.17851 | 2° | 20km/h | 25580m | 4.1m/s | -52.3°C | 1.1% | 24.5hPa | 2.6V | 01:50:00 | 00:00:00 | 00:00:00 | |
| BAUMI2-15 | 2026-08-31 05:18:32 | 48.11495 | 12.17849 | 18° | 9km/h | 25569m | 5.9m/s | -52.2°C | 4.1% | 24.5hPa | 2.6V | 01:49:00 | 01:50:51 | 00:00:00 | |
| DO3MHA-12 | 2026-08-31 05:18:31 | 48.11493 | 12.17848 | 31° | 11km/h | 25564m | 5.0m/s | -52.3°C | 4.1% | 24.5hPa | 2.6V | 01:49:00 | 01:50:50 | 00:00:00 | |
| SONCRA | 2026-08-31 05:18:30 | 48.11490 | 12.17844 | 40° | 7km/h | 25554m | 5.1m/s | -52.3°C | 1.1% | 24.5hPa | 2.6V | 00:00:00 | 00:00:00 | 00:00:00 | |
| OE5DXL-15 | 2026-08-31 05:18:29 | 48.11490 | 12.17844 | 41° | 13km/h | 25554m | 5.1m/s | -52.3°C | 4.0% | 24.5hPa | 2.6V | 00:00:00 | 00:00:00 | 00:00:00 | |
| OE5MMP-10 | 2026-08-31 05:18:28 | 48.11488 | 12.17842 | 26° | 13km/h | 25549m | 5.8m/s | -52.2°C | 4.0% | 24.5hPa | 2.6V | 00:00:00 | 01:50:47 | 00:00:00 | |
| DM0DOS-11 | 2026-08-31 05:18:27 | 48.11472 | 12.17853 | 320° | 13km/h | 25517m | 4.7m/s | -52.3°C | 4% | 24.7hPa | 2.6V | 01:50:05 | 01:50:41 | 00:00:00 | |
| BAUMI2-15 | 2026-08-31 05:18:27 | 48.11486 | 12.17842 | 1° | 13km/h | 25543m | 4.6m/s | -52.2°C | 4.0% | 24.6hPa | 2.6V | 00:00:00 | 01:50:46 | 00:00:00 | |
| DL1ZP-14 | 2026-08-31 05:18:26 | 48.11480 | 12.17844 | 332° | 13km/h | 25533m | 5.7m/s | -52.2°C | 1.1% | 24.6hPa | 2.7V | 00:00:00 | 00:00:00 | 00:00:00 | |
| DO3MHA-11 | 2026-08-31 05:18:25 | 48.11480 | 12.17844 | 333° | 13km/h | 25534m | 5.7m/s | -52.2°C | 4.0% | 24.6hPa | 2.6V | 00:00:00 | 01:50:44 | 00:00:00 | |
| BAUMI2-15 | 2026-08-31 05:18:22 | 48.11472 | 12.17853 | 321° | 13km/h | 25518m | 4.6m/s | -52.3°C | 4.0% | 24.6hPa | 2.6V | 01:50:00 | 01:50:41 | 00:00:00 | |
| DO3MHA-12 | 2026-08-31 05:18:21 | 48.11469 | 12.17856 | 337° | 13km/h | 25512m | 6.5m/s | -52.3°C | 4.0% | 24.7hPa | 2.6V | 00:00:00 | 01:50:40 | 00:00:00 | |
| OE5MMP-10 | 2026-08-31 05:18:18 | 48.11460 | 12.17856 | 9° | 11km/h | 25497m | 6.1m/s | -52.4°C | 4.0% | 24.8hPa | 2.6V | 01:50:00 | 01:50:37 | 00:00:00 | |
| BAUMI2-15 | 2026-08-31 05:18:17 | 48.11458 | 12.17856 | 1° | 11km/h | 25491m | 4.9m/s | -52.4°C | 4.1% | 24.8hPa | 2.7V | 00:00:00 | 01:50:36 | 00:00:00 | |
| DK5PH-5 | 2026-08-31 05:18:16 | 48.11455 | 12.17856 | 349° | 16km/h | 25486m | 4.5m/s | -52.4°C | 4.0% | 24.8hPa | 2.7V | 01:50:00 | 01:50:35 | 00:00:00 | |
| DO3MHA-11 | 2026-08-31 05:18:15 | 48.11453 | 12.17857 | 345° | 13km/h | 25482m | 4.9m/s | -52.4°C | 4.0% | 24.8hPa | 2.7V | 01:50:00 | 01:50:34 | 00:00:00 | |
| DB0UT-7 | 2026-08-31 05:18:14 | 48.11451 | 12.17858 | 348° | 16km/h | 25476m | 6.0m/s | -52.4°C | 4.0% | 24.8hPa | 2.7V | 00:00:00 | 00:00:00 | 00:00:00 | |
| OE5WHR-10 | 2026-08-31 05:18:13 | 48.11447 | 12.17859 | 352° | 15km/h | 25471m | 5.4m/s | -52.4°C | 4.0% | 24.8hPa | 2.7V | 00:00:00 | 01:50:32 | 00:00:00 | |
| DL6DJ-15 | 2026-08-31 05:18:12 | 48.11440 | 12.17861 | 346° | 13km/h | 25460m | 5.9m/s | -52.4°C | 1.1% | 24.9hPa | 2.7V | 00:00:00 | 00:00:00 | 00:00:00 | |
| DO3MHA-12 | 2026-08-31 05:18:11 | 48.11440 | 12.17861 | 347° | 15km/h | 25461m | 5.9m/s | -52.4°C | 4.0% | 24.9hPa | 2.7V | 01:50:00 | 01:50:30 | 00:00:00 | |
| OM5KV | 2026-08-31 05:18:10 | 48.11440 | 12.17861 | 347° | 13km/h | 25461m | 5.9m/s | -52.4°C | 1.1% | 24.9hPa | 2.7V | 01:50:00 | 00:00:00 | 00:00:00 | |
| OE5MMP-10 | 2026-08-31 05:18:08 | 48.11431 | 12.17865 | 345° | 15km/h | 25444m | 6.3m/s | -52.6°C | 4.1% | 25.0hPa | 2.7V | 00:00:00 | 01:50:27 | 00:00:00 | |
| DM0DOS-11 | 2026-08-31 05:18:07 | 48.11413 | 12.17872 | 339° | 15km/h | 25417m | 4.4m/s | -52.6°C | 4.2% | 25.1hPa | 2.7V | 01:50:24 | 01:50:22 | 00:00:00 | |
| BAUMI2-15 | 2026-08-31 05:18:07 | 48.11427 | 12.17867 | 348° | 15km/h | 25438m | 5.2m/s | -52.6°C | 4.1% | 25.0hPa | 2.7V | 00:00:00 | 01:50:26 | 00:00:00 | |
| OE5DRO-10 | 2026-08-31 05:18:06 | 48.11423 | 12.17868 | 350° | 16km/h | 25433m | 4.8m/s | -52.6°C | 4.1% | 25.0hPa | 2.7V | 00:00:00 | 00:00:00 | 00:00:00 | |
| DO3MHA-11 | 2026-08-31 05:18:05 | 48.11419 | 12.17869 | 348° | 15km/h | 25427m | 6.1m/s | -52.6°C | 4.2% | 25.0hPa | 2.7V | 00:00:00 | 01:50:24 | 00:00:00 | |
| OM5KV | 2026-08-31 05:18:04 | 48.11419 | 12.17869 | 348° | 15km/h | 25427m | 6.1m/s | -52.6°C | 1.1% | 25.1hPa | 2.7V | 01:51:00 | 00:00:00 | 00:00:00 | |
| BAUMI2-15 | 2026-08-31 05:18:02 | 48.11409 | 12.17874 | 343° | 16km/h | 25412m | 6.2m/s | -52.6°C | 4.1% | 25.1hPa | 2.7V | 01:50:00 | 01:50:21 | 00:00:00 | |
| DM7RM-13 | 2026-08-31 05:18:01 | 48.11409 | 12.17874 | 344° | 16km/h | 25412m | 6.2m/s | -52.7°C | 1.1% | 25.1hPa | 2.7V | 00:00:00 | 00:00:00 | 00:00:00 | |
| SONCRA | 2026-08-31 05:17:59 | 48.11394 | 12.17882 | 324° | 13km/h | 25390m | 5.0m/s | -52.7°C | 1.1% | 25.2hPa | 2.7V | 00:00:00 | 00:00:00 | 00:00:00 | |
| OE5MMP-10 | 2026-08-31 05:17:58 | 48.11394 | 12.17882 | 325° | 16km/h | 25390m | 5.0m/s | -52.6°C | 4.2% | 25.2hPa | 2.7V | 01:50:00 | 01:50:17 | 00:00:00 | |
| DM0DOS-11 | 2026-08-31 05:17:57 | 48.11378 | 12.17902 | 315° | 16km/h | 25362m | 6.2m/s | -52.8°C | 4% | 25.3hPa | 2.7V | 01:50:34 | 01:50:12 | 00:00:00 | |
| BAUMI2-15 | 2026-08-31 05:17:57 | 48.11392 | 12.17886 | 320° | 16km/h | 25385m | 4.6m/s | -52.7°C | 4.1% | 25.1hPa | 2.7V | 00:00:00 | 01:50:16 | 00:00:00 | |
| DO3MHA-11 | 2026-08-31 05:17:55 | 48.11385 | 12.17893 | 322° | 18km/h | 25373m | 5.5m/s | -52.7°C | 4.1% | 25.3hPa | 2.7V | 01:50:00 | 01:50:14 | 00:00:00 | |
| DG1MFX-10 | 2026-08-31 05:17:54 | 48.11385 | 12.17893 | 322° | 18km/h | 25373m | 5.5m/s | -52.7°C | 1.1% | 25.3hPa | 2.7V | 01:51:00 | 00:00:00 | 00:00:00 | |
| DF1GD-15 | 2026-08-31 05:17:53 | 48.11382 | 12.17897 | 320° | 18km/h | 25368m | 5.1m/s | -52.7°C | 1.2% | 25.3hPa | 2.7V | 01:51:00 | 00:00:00 | 00:00:00 | |
| OE5WHR-10 | 2026-08-31 05:17:52 | 48.11375 | 12.17906 | 318° | 16km/h | 25357m | 4.7m/s | -52.7°C | 4.1% | 25.3hPa | 2.7V | 01:50:00 | 00:00:00 | 00:00:00 | |
| DO3MHA-12 | 2026-08-31 05:17:51 | 48.11372 | 12.17910 | 326° | 20km/h | 25352m | 4.5m/s | -52.8°C | 4.1% | 25.3hPa | 2.7V | 01:50:00 | 01:50:10 | 00:00:00 | |
| OE5MMP-10 | 2026-08-31 05:17:48 | 48.11358 | 12.17918 | 350° | 18km/h | 25336m | 5.0m/s | -52.7°C | 4.1% | 25.4hPa | 2.6V | 00:00:00 | 01:50:07 | 00:00:00 | |
| DM0DOS-11 | 2026-08-31 05:17:47 | 48.11334 | 12.17929 | 329° | 20km/h | 25308m | 5.6m/s | -52.8°C | 4.2% | 25.5hPa | 2.6V | 01:50:44 | 01:50:02 | 00:00:00 | |
| BAUMI2-15 | 2026-08-31 05:17:47 | 48.11353 | 12.17919 | 351° | 20km/h | 25330m | 5.4m/s | -52.6°C | 4.1% | 25.4hPa | 2.7V | 00:00:00 | 01:50:06 | 00:00:00 | |
| DK5PH-5 | 2026-08-31 05:17:46 | 48.11347 | 12.17921 | 347° | 15km/h | 25325m | 5.1m/s | -52.6°C | 4.1% | 25.4hPa | 2.7V | 00:00:00 | 01:50:05 | 00:00:00 | |
| DO3MHA-11 | 2026-08-31 05:17:45 | 48.11343 | 12.17923 | 340° | 15km/h | 25320m | 4.8m/s | -52.6°C | 4.2% | 25.4hPa | 2.6V | 00:00:00 | 01:50:04 | 00:00:00 | |
| DB0UT-7 | 2026-08-31 05:17:43 | 48.11334 | 12.17929 | 330° | 13km/h | 25309m | 5.5m/s | -52.7°C | 4.2% | 25.5hPa | 2.6V | 01:50:00 | 01:50:02 | 00:00:00 | |
| BAUMI2-15 | 2026-08-31 05:17:42 | 48.11330 | 12.17933 | 326° | 11km/h | 25304m | 4.7m/s | -52.7°C | 4.2% | 25.5hPa | 2.7V | 01:50:00 | 01:50:01 | 00:00:00 | |
| DO3MHA-12 | 2026-08-31 05:17:41 | 48.11327 | 12.17937 | 322° | 13km/h | 25298m | 5.7m/s | -52.7°C | 4.2% | 25.5hPa | 2.7V | 00:00:00 | 01:50:00 | 00:00:00 | |
| DM7RM-13 | 2026-08-31 05:17:40 | 48.11327 | 12.17937 | 322° | 15km/h | 25298m | 5.8m/s | -52.8°C | 1.2% | 25.6hPa | 2.7V | 00:00:00 | 00:00:00 | 00:00:00 | |
| OE5MMP-10 | 2026-08-31 05:17:38 | 48.11321 | 12.17943 | 342° | 15km/h | 25283m | 4.7m/s | -52.7°C | 4.3% | 25.6hPa | 2.7V | 01:50:00 | 01:49:57 | 00:00:00 | |
| BAUMI2-15 | 2026-08-31 05:17:37 | 48.11319 | 12.17944 | 356° | 16km/h | 25278m | 6.1m/s | -52.8°C | 4.2% | 25.6hPa | 2.7V | 00:00:00 | 01:49:56 | 00:00:00 | |
| DM0DOS-11 | 2026-08-31 05:17:36 | 48.11295 | 12.17939 | 14° | 15km/h | 25247m | 5m/s | -52.8°C | 4% | 25.8hPa | 2.7V | 01:50:56 | 01:49:50 | 00:00:00 | |
| OM5KV | 2026-08-31 05:17:36 | 48.11319 | 12.17944 | 357° | 11km/h | 25278m | 6.2m/s | -52.8°C | 1.1% | 25.7hPa | 2.7V | 01:51:00 | 00:00:00 | 00:00:00 | |
| DO3MHA-11 | 2026-08-31 05:17:35 | 48.11311 | 12.17944 | 5° | 16km/h | 25268m | 4.5m/s | -52.7°C | 4.1% | 25.6hPa | 2.7V | 01:50:00 | 01:49:54 | 00:00:00 | |
| DF1GD-15 | 2026-08-31 05:17:33 | 48.11307 | 12.17943 | 7° | 18km/h | 25263m | 4.9m/s | -52.8°C | 1.2% | 25.8hPa | 2.7V | 01:51:00 | 00:00:00 | 00:00:00 | |
| BAUMI2-15 | 2026-08-31 05:17:32 | 48.11298 | 12.17941 | 17° | 15km/h | 25252m | 5.0m/s | -52.8°C | 4.1% | 25.7hPa | 2.7V | 01:50:00 | 01:49:51 | 00:00:00 | |
| DO3MHA-12 | 2026-08-31 05:17:31 | 48.11295 | 12.17939 | 15° | 15km/h | 25247m | 5.0m/s | -52.8°C | 4.0% | 25.7hPa | 2.7V | 01:50:00 | 01:49:50 | 00:00:00 | |
| OM5KV | 2026-08-31 05:17:30 | 48.11295 | 12.17939 | 15° | 15km/h | 25247m | 5.0m/s | -52.8°C | 1.1% | 25.8hPa | 2.7V | 01:51:00 | 00:00:00 | 00:00:00 | |
| OE5DXL-15 | 2026-08-31 05:17:29 | 48.11287 | 12.17939 | 349° | 11km/h | 25237m | 5.8m/s | -52.8°C | 4.2% | 25.8hPa | 2.7V | 00:00:00 | 00:00:00 | 00:00:00 | |
| SONCRA | 2026-08-31 05:17:28 | 48.11280 | 12.17944 | 324° | 16km/h | 25226m | 5.9m/s | -52.8°C | 1.1% | 25.9hPa | 2.6V | 00:00:00 | 00:00:00 | 00:00:00 | |
| BAUMI2-15 | 2026-08-31 05:17:27 | 48.11280 | 12.17944 | 325° | 15km/h | 25226m | 5.9m/s | -52.8°C | 4.2% | 25.8hPa | 2.6V | 00:00:00 | 01:49:46 | 00:00:00 | |
| DM0DOS-11 | 2026-08-31 05:17:26 | 48.11263 | 12.17965 | 337° | 9km/h | 25194m | 5.2m/s | -52.8°C | 4.2% | 26hPa | 2.6V | 01:51:06 | 01:49:40 | 00:00:00 | |
| DO3MHA-11 | 2026-08-31 05:17:25 | 48.11274 | 12.17952 | 312° | 11km/h | 25215m | 5.0m/s | -52.8°C | 4.3% | 25.8hPa | 2.6V | 00:00:00 | 01:49:44 | 00:00:00 | |
| OM5KV | 2026-08-31 05:17:24 | 48.11274 | 12.17952 | 313° | 15km/h | 25215m | 5.0m/s | -52.9°C | 1.2% | 25.9hPa | 2.6V | 01:51:00 | 00:00:00 | 00:00:00 | |
| OM5KV | 2026-08-31 05:17:23 | 48.11271 | 12.17956 | 314° | 16km/h | 25209m | 5.9m/s | -52.9°C | 1.2% | 25.9hPa | 2.6V | 01:51:00 | 00:00:00 | 00:00:00 | |
| BAUMI2-15 | 2026-08-31 05:17:22 | 48.11266 | 12.17963 | 329° | 7km/h | 25199m | 4.0m/s | -52.8°C | 4.3% | 25.9hPa | 2.6V | 01:51:00 | 01:49:41 | 00:00:00 | |
| DO3MHA-12 | 2026-08-31 05:17:21 | 48.11263 | 12.17965 | 338° | 9km/h | 25195m | 5.1m/s | -52.8°C | 4.2% | 25.9hPa | 2.6V | 00:00:00 | 01:49:40 | 00:00:00 | |
| SONDE2-11 | 2026-08-31 05:17:20 | 48.11261 | 12.17966 | 349° | 5km/h | 25189m | 5.7m/s | -52.8°C | 1.1% | 26.0hPa | 2.7V | 00:00:00 | 00:00:00 | 00:00:00 | |
| OM5KV | 2026-08-31 05:17:19 | 48.11261 | 12.17966 | 351° | 5km/h | 25189m | 5.7m/s | -52.8°C | 1.1% | 26.0hPa | 2.7V | 01:51:00 | 00:00:00 | 00:00:00 | |
| OE5MMP-10 | 2026-08-31 05:17:18 | 48.11259 | 12.17965 | 25° | 13km/h | 25179m | 4.9m/s | -52.7°C | 4.1% | 26.0hPa | 2.7V | 01:51:00 | 01:49:37 | 00:00:00 | |
| BAUMI2-15 | 2026-08-31 05:17:17 | 48.11257 | 12.17965 | 12° | 11km/h | 25173m | 6.1m/s | -52.7°C | 4.2% | 26.0hPa | 2.6V | 00:00:00 | 01:49:36 | 00:00:00 | |
| DK5PH-5 | 2026-08-31 05:17:16 | 48.11255 | 12.17964 | 359° | 11km/h | 25168m | 4.6m/s | -52.6°C | 4.2% | 26.0hPa | 2.6V | 01:51:00 | 01:49:35 | 00:00:00 | |
| DM0DOS-11 | 2026-08-31 05:17:15 | 48.11237 | 12.17977 | 328° | 18km/h | 25135m | 4.6m/s | -52.6°C | 4.1% | 26.2hPa | 2.6V | 01:51:17 | 01:49:29 | 00:00:00 | |
| DO3MHA-11 | 2026-08-31 05:17:15 | 48.11252 | 12.17965 | 350° | 13km/h | 25163m | 4.9m/s | -52.6°C | 4.1% | 26.1hPa | 2.6V | 01:51:00 | 01:49:34 | 00:00:00 | |
| DF7PN | 2026-08-31 05:17:14 | 48.11249 | 12.17966 | 339° | 11km/h | 25157m | 6.1m/s | -52.6°C | 1.1% | 26.2hPa | 2.6V | 00:00:00 | 00:00:00 | 00:00:00 | |
| DB0UT-7 | 2026-08-31 05:17:13 | 48.11247 | 12.17968 | 330° | 9km/h | 25152m | 4.9m/s | -52.6°C | 4.1% | 26.1hPa | 2.6V | 00:00:00 | 00:00:00 | 00:00:00 | |
| PG1ADW-2 | 2026-08-31 05:17:12 | 48.11244 | 12.17970 | 326° | 11km/h | 25147m | 5.3m/s | -52.6°C | 4.2% | 26.1hPa | 2.6V | 01:51:00 | 01:49:31 | 00:00:00 | |
| DO3MHA-12 | 2026-08-31 05:17:11 | 48.11241 | 12.17973 | 327° | 11km/h | 25141m | 6.3m/s | -52.7°C | 4.2% | 26.2hPa | 2.6V | 01:51:00 | 01:49:30 | 00:00:00 | |
| OE5WHR-10 | 2026-08-31 05:17:10 | 48.11237 | 12.17977 | 329° | 11km/h | 25135m | 4.5m/s | -52.6°C | 4.1% | 26.2hPa | 2.6V | 01:51:00 | 01:49:29 | 00:00:00 | |
| OE5DRO-10 | 2026-08-31 05:17:09 | 48.11233 | 12.17980 | 333° | 9km/h | 25131m | 3.7m/s | -52.5°C | 4.2% | 26.2hPa | 2.6V | 01:51:00 | 00:00:00 | 00:00:00 | |
| OE5MMP-10 | 2026-08-31 05:17:08 | 48.11230 | 12.17982 | 334° | 9km/h | 25126m | 5.5m/s | -52.5°C | 4.2% | 26.2hPa | 2.6V | 00:00:00 | 01:49:27 | 00:00:00 | |
| BAUMI2-15 | 2026-08-31 05:17:07 | 48.11228 | 12.17984 | 347° | 7km/h | 25121m | 5.8m/s | -52.5°C | 4.2% | 26.3hPa | 2.6V | 00:00:00 | 01:49:26 | 00:00:00 | |
| DM0DOS-11 | 2026-08-31 05:17:05 | 48.11217 | 12.17977 | 332° | 9km/h | 25085m | 6.3m/s | -52.5°C | 4.1% | 26.4hPa | 2.6V | 01:51:27 | 01:49:19 | 00:00:00 | |
| DO3MHA-11 | 2026-08-31 05:17:05 | 48.11226 | 12.17982 | 73° | 11km/h | 25112m | 4.2m/s | -52.5°C | 4.2% | 26.3hPa | 2.7V | 00:00:00 | 01:49:24 | 00:00:00 | |
| OM5KV | 2026-08-31 05:17:02 | 48.11224 | 12.17977 | 37° | 9km/h | 25101m | 5.4m/s | -52.5°C | 1.1% | 26.4hPa | 2.7V | 01:51:00 | 00:00:00 | 00:00:00 | |
| DO3MHA-12 | 2026-08-31 05:17:01 | 48.11219 | 12.17976 | 353° | 11km/h | 25091m | 4.9m/s | -52.4°C | 4.1% | 26.3hPa | 2.7V | 00:00:00 | 01:49:20 | 00:00:00 | |
| OE5DXL-15 | 2026-08-31 05:16:59 | 48.11215 | 12.17979 | 313° | 7km/h | 25080m | 4.6m/s | -52.6°C | 4.1% | 26.4hPa | 2.7V | 01:51:00 | 00:00:00 | 00:00:00 | |
| OE5MMP-10 | 2026-08-31 05:16:58 | 48.11213 | 12.17982 | 309° | 11km/h | 25076m | 4.2m/s | -52.6°C | 4.1% | 26.4hPa | 2.7V | 01:51:00 | 01:49:17 | 00:00:00 | |
| OM5KV | 2026-08-31 05:16:57 | 48.11213 | 12.17982 | 310° | 13km/h | 25076m | 4.3m/s | -52.7°C | 1.1% | 26.5hPa | 2.7V | 01:51:00 | 00:00:00 | 00:00:00 | |
| BAUMI2-15 | 2026-08-31 05:16:56 | 48.11208 | 12.17989 | 328° | 11km/h | 25065m | 5.0m/s | -52.6°C | 4.2% | 26.5hPa | 2.7V | 00:00:00 | 01:49:15 | 00:00:00 | |
| DM0DOS-11 | 2026-08-31 05:16:55 | 48.11199 | 12.17983 | 65° | 11km/h | 25032m | 5.1m/s | -52.6°C | 4.2% | 26.7hPa | 2.6V | 01:51:37 | 01:49:09 | 00:00:00 | |
| DL1ZP-14 | 2026-08-31 05:16:53 | 48.11201 | 12.17990 | 70° | 7km/h | 25044m | 4.7m/s | -52.6°C | 1.1% | 26.7hPa | 2.7V | 00:00:00 | 00:00:00 | 00:00:00 | |
| PG1ADW-2 | 2026-08-31 05:16:52 | 48.11201 | 12.17990 | 71° | 5km/h | 25044m | 4.6m/s | -52.6°C | 4.2% | 26.6hPa | 2.7V | 00:00:00 | 00:00:00 | 00:00:00 | |
| DO3MHA-12 | 2026-08-31 05:16:51 | 48.11200 | 12.17987 | 72° | 5km/h | 25038m | 6.0m/s | -52.6°C | 4.3% | 26.6hPa | 2.7V | 01:51:00 | 01:49:10 | 00:00:00 | |
| OE5DRO-10 | 2026-08-31 05:16:50 | 48.11199 | 12.17983 | 66° | 5km/h | 25033m | 5.1m/s | -52.6°C | 4.2% | 26.6hPa | 2.6V | 00:00:00 | 00:00:00 | 00:00:00 | |
| OE5WHR-10 | 2026-08-31 05:16:49 | 48.11198 | 12.17980 | 61° | 7km/h | 25028m | 4.2m/s | -52.6°C | 4.2% | 26.7hPa | 2.6V | 00:00:00 | 00:00:00 | 00:00:00 | |
| OE5MMP-10 | 2026-08-31 05:16:48 | 48.11197 | 12.17977 | 62° | 4km/h | 25023m | 5.1m/s | -52.6°C | 4.2% | 26.6hPa | 2.6V | 00:00:00 | 01:49:07 | 00:00:00 | |
| DK5PH-5 | 2026-08-31 05:16:46 | 48.11196 | 12.17975 | 212° | 9km/h | 25012m | 4.6m/s | -52.6°C | 4.2% | 26.7hPa | 2.7V | 00:00:00 | 01:49:05 | 00:00:00 | |
| DM0DOS-11 | 2026-08-31 05:16:45 | 48.11194 | 12.17983 | 327° | 4km/h | 24980m | 4m/s | -52.4°C | 4.1% | 26.9hPa | 2.7V | 01:51:47 | 01:48:59 | 00:00:00 | |
| DB0NH | 2026-08-31 05:16:45 | 48.11197 | 12.17975 | 267° | 20km/h | 25008m | 4.8m/s | -52.5°C | 4.1% | 26.7hPa | 2.6V | 01:51:00 | 01:49:04 | 00:00:00 | |
| DB0UT-7 | 2026-08-31 05:16:43 | 48.11196 | 12.17979 | 306° | 9km/h | 24996m | 5.3m/s | -52.5°C | 4.1% | 26.8hPa | 2.6V | 01:51:00 | 01:49:02 | 00:00:00 | |
| NBG1-10 | 2026-08-31 05:16:42 | 48.11195 | 12.17980 | 302° | 11km/h | 24991m | 5.8m/s | -52.5°C | 4.1% | 26.8hPa | 2.6V | 01:51:00 | 01:49:01 | 00:00:00 | |
| DO3MHA-12 | 2026-08-31 05:16:41 | 48.11194 | 12.17982 | 295° | 7km/h | 24985m | 5.0m/s | -52.4°C | 4.0% | 26.8hPa | 2.7V | 00:00:00 | 01:49:00 | 00:00:00 | |
| DF3TZ-5 | 2026-08-31 05:16:40 | 48.11194 | 12.17983 | 327° | 2km/h | 24981m | 4.0m/s | -52.4°C | 1.1% | 26.9hPa | 2.7V | 00:00:00 | 00:00:00 | 00:00:00 | |
| DG1MJG | 2026-08-31 05:16:39 | 48.11194 | 12.17983 | 329° | 4km/h | 24981m | 4.0m/s | -52.4°C | 1.1% | 26.9hPa | 2.7V | 01:51:00 | 00:00:00 | 00:00:00 | |
| OE5MMP-10 | 2026-08-31 05:16:38 | 48.11191 | 12.17983 | 10° | 9km/h | 24970m | 5.4m/s | -52.3°C | 4.1% | 26.9hPa | 2.7V | 01:51:00 | 01:48:57 | 00:00:00 | |
| DM0DOS-11 | 2026-08-31 05:16:35 | 48.11177 | 12.17986 | 312° | 11km/h | 24928m | 5.3m/s | -52.4°C | 4.2% | 27.1hPa | 2.7V | 01:51:57 | 01:48:49 | 00:00:00 | |
| DO3MHA-11 | 2026-08-31 05:16:35 | 48.11184 | 12.17980 | 25° | 9km/h | 24954m | 5.4m/s | -52.3°C | 4.1% | 26.9hPa | 2.6V | 01:51:00 | 01:48:54 | 00:00:00 | |
| DH7VM-15 | 2026-08-31 05:16:34 | 48.11184 | 12.17980 | 12° | 4km/h | 24949m | 4.6m/s | -52.4°C | 1.1% | 27.0hPa | 2.6V | 00:00:00 | 00:00:00 | 00:00:00 | |
| PG1ADW-2 | 2026-08-31 05:16:32 | 48.11181 | 12.17981 | 329° | 13km/h | 24939m | 5.8m/s | -52.4°C | 4.2% | 27.0hPa | 2.6V | 01:51:00 | 00:00:00 | 00:00:00 | |
| DO3MHA-12 | 2026-08-31 05:16:31 | 48.11179 | 12.17983 | 321° | 11km/h | 24934m | 4.9m/s | -52.3°C | 4.1% | 27.0hPa | 2.6V | 01:51:00 | 01:48:50 | 00:00:00 | |
| OM5KV | 2026-08-31 05:16:29 | 48.11175 | 12.17990 | 305° | 11km/h | 24923m | 5.5m/s | -52.3°C | 1.2% | 27.1hPa | 2.6V | 01:51:00 | 00:00:00 | 00:00:00 | |
| OE5WHR-10 | 2026-08-31 05:16:28 | 48.11173 | 12.17993 | 305° | 13km/h | 24918m | 4.5m/s | -52.2°C | 4.2% | 27.1hPa | 2.6V | 01:51:00 | 00:00:00 | 00:00:00 | |
| DM0DOS-11 | 2026-08-31 05:16:25 | 48.11153 | 12.18002 | 11° | 11km/h | 24876m | 5.8m/s | -52.3°C | 4.1% | 27.3hPa | 2.6V | 01:52:07 | 01:48:39 | 00:00:00 | |
| DO3MHA-11 | 2026-08-31 05:16:25 | 48.11166 | 12.18003 | 336° | 11km/h | 24902m | 4.7m/s | -52.2°C | 4.2% | 27.1hPa | 2.6V | 00:00:00 | 01:48:44 | 00:00:00 | |
| DO3MHA-12 | 2026-08-31 05:16:21 | 48.11155 | 12.18003 | 21° | 13km/h | 24882m | 5.5m/s | -52.2°C | 4.1% | 27.2hPa | 2.6V | 00:00:00 | 01:48:40 | 00:00:00 | |
| OE5REO-15 | 2026-08-31 05:16:19 | 48.11153 | 12.18001 | 12° | 11km/h | 24876m | 5.8m/s | -52.3°C | 1.1% | 27.3hPa | 2.7V | 00:00:00 | 00:00:00 | 00:00:00 | |
| OE5MMP-10 | 2026-08-31 05:16:18 | 48.11148 | 12.18001 | 345° | 15km/h | 24866m | 5.7m/s | -52.2°C | 4.1% | 27.3hPa | 2.7V | 01:52:00 | 01:48:37 | 00:00:00 | |
| DK5PH-5 | 2026-08-31 05:16:16 | 48.11145 | 12.18006 | 298° | 15km/h | 24856m | 4.1m/s | -52.2°C | 4.1% | 27.4hPa | 2.7V | 01:52:00 | 01:48:35 | 00:00:00 | |
| DO3MHA-11 | 2026-08-31 05:16:15 | 48.11144 | 12.18011 | 300° | 18km/h | 24851m | 5.8m/s | -52.2°C | 4.1% | 27.4hPa | 2.6V | 01:52:00 | 01:48:34 | 00:00:00 | |
| DB0UT-7 | 2026-08-31 05:16:13 | 48.11138 | 12.18022 | 314° | 15km/h | 24841m | 4.2m/s | -52.2°C | 4.1% | 27.4hPa | 2.6V | 00:00:00 | 00:00:00 | 00:00:00 | |
| PG1ADW-2 | 2026-08-31 05:16:12 | 48.11134 | 12.18028 | 318° | 15km/h | 24836m | 5.4m/s | -52.2°C | 4.1% | 27.5hPa | 2.7V | 00:00:00 | 00:00:00 | 00:00:00 | |
| DO3MHA-12 | 2026-08-31 05:16:11 | 48.11130 | 12.18032 | 327° | 15km/h | 24831m | 5.4m/s | -52.1°C | 4.1% | 27.5hPa | 2.7V | 01:52:00 | 01:48:30 | 00:00:00 | |
| DG1MFX-10 | 2026-08-31 05:16:10 | 48.11130 | 12.18032 | 328° | 18km/h | 24831m | 5.4m/s | -52.2°C | 1.2% | 27.5hPa | 2.7V | 01:52:00 | 00:00:00 | 00:00:00 | |
| NBG1-10 | 2026-08-31 05:16:09 | 48.11123 | 12.18036 | 357° | 13km/h | 24820m | 5.1m/s | -52.1°C | 4.1% | 27.5hPa | 2.7V | 00:00:00 | 01:48:28 | 00:00:00 | |
| OE5MMP-10 | 2026-08-31 05:16:08 | 48.11118 | 12.18036 | 1° | 15km/h | 24815m | 5.9m/s | -52.1°C | 4.1% | 27.5hPa | 2.7V | 00:00:00 | 01:48:27 | 00:00:00 | |
| DM0DOS-11 | 2026-08-31 05:16:07 | 48.11110 | 12.18036 | 2° | 15km/h | 24804m | 5.5m/s | -52.1°C | 4.1% | 27.6hPa | 2.7V | 01:52:21 | 01:48:25 | 00:00:00 | |
| OE5WHR-10 | 2026-08-31 05:16:07 | 48.11114 | 12.18036 | 3° | 13km/h | 24810m | 4.6m/s | -52.0°C | 4.0% | 27.5hPa | 2.6V | 00:00:00 | 01:48:26 | 00:00:00 | |
| OM5KV | 2026-08-31 05:16:06 | 48.11114 | 12.18036 | 3° | 16km/h | 24810m | 4.7m/s | -52.0°C | 1.1% | 27.6hPa | 2.6V | 01:52:00 | 00:00:00 | 00:00:00 | |
| DO3MHA-11 | 2026-08-31 05:16:05 | 48.11107 | 12.18036 | 354° | 11km/h | 24799m | 5.4m/s | -52.0°C | 4.1% | 27.6hPa | 2.6V | 00:00:00 | 01:48:24 | 00:00:00 | |
| OE5REO-15 | 2026-08-31 05:16:04 | 48.11107 | 12.18036 | 355° | 11km/h | 24799m | 5.5m/s | -52.0°C | 1.1% | 27.6hPa | 2.6V | 00:00:00 | 00:00:00 | 00:00:00 | |
| DO3MHA-12 | 2026-08-31 05:16:01 | 48.11097 | 12.18045 | 324° | 13km/h | 24779m | 4.4m/s | -51.9°C | 4.1% | 27.6hPa | 2.6V | 00:00:00 | 01:48:20 | 00:00:00 | |
| OE5DXL-15 | 2026-08-31 05:15:59 | 48.11091 | 12.18052 | 326° | 11km/h | 24770m | 5.3m/s | -51.9°C | 4.0% | 27.7hPa | 2.6V | 01:52:00 | 00:00:00 | 00:00:00 | |
| OM5KV | 2026-08-31 05:15:58 | 48.11091 | 12.18052 | 326° | 13km/h | 24770m | 5.3m/s | -51.9°C | 1.1% | 27.8hPa | 2.7V | 01:52:00 | 00:00:00 | 00:00:00 | |
| DM0DOS-11 | 2026-08-31 05:15:57 | 48.11085 | 12.18059 | 322° | 9km/h | 24755m | 4.4m/s | -52°C | 4% | 27.9hPa | 2.7V | 01:52:31 | 01:48:15 | 00:00:00 | |
| SONCRA | 2026-08-31 05:15:54 | 48.11080 | 12.18063 | 335° | 13km/h | 24745m | 5.1m/s | -52.0°C | -1.0% | 27.9hPa | 2.7V | 00:00:00 | 00:00:00 | 00:00:00 | |
| DL1ZP-14 | 2026-08-31 05:15:50 | 48.11067 | 12.18070 | 346° | 15km/h | 24725m | 5.1m/s | -52.0°C | 1.1% | 28.0hPa | 2.7V | 00:00:00 | 00:00:00 | 00:00:00 | |
| SONDE2-11 | 2026-08-31 05:15:48 | 48.11055 | 12.18075 | 342° | 15km/h | 24710m | 5.3m/s | -52.0°C | 1.1% | 28.0hPa | 2.7V | 00:00:00 | 00:00:00 | 00:00:00 | |
| DM0DOS-11 | 2026-08-31 05:15:48 | 48.11052 | 12.18077 | 336° | 11km/h | 24704m | 5.3m/s | -52°C | 4% | 28hPa | 2.6V | 01:52:41 | 01:48:05 | 00:00:00 | |
| DK5PH-5 | 2026-08-31 05:15:46 | 48.11052 | 12.18077 | 337° | 11km/h | 24704m | 5.3m/s | -52.0°C | 4.0% | 28.0hPa | 2.7V | 00:00:00 | 01:48:05 | 00:00:00 | |
| DO3MHA-11 | 2026-08-31 05:15:45 | 48.11050 | 12.18079 | 328° | 11km/h | 24699m | 4.2m/s | -52.0°C | 4.0% | 28.0hPa | 2.7V | 00:00:00 | 01:48:04 | 00:00:00 | |
| OM5KV | 2026-08-31 05:15:42 | 48.11045 | 12.18083 | 332° | 13km/h | 24689m | 5.4m/s | -52.1°C | 1.1% | 28.1hPa | 2.6V | 01:52:00 | 00:00:00 | 00:00:00 | |
| DB0UT-7 | 2026-08-31 05:15:41 | 48.11039 | 12.18088 | 332° | 11km/h | 24680m | 4.6m/s | -52.1°C | 4.1% | 28.1hPa | 2.6V | 01:52:00 | 01:48:00 | 00:00:00 | |
| DM0DOS-11 | 2026-08-31 05:15:38 | 48.11028 | 12.18097 | 335° | 13km/h | 24653m | 4.5m/s | -52.1°C | 4% | 28.3hPa | 2.6V | 01:52:51 | 01:47:55 | 00:00:00 | |
| DG1MJG | 2026-08-31 05:15:38 | 48.11033 | 12.18094 | 331° | 9km/h | 24664m | 4.7m/s | -52.2°C | 1.1% | 28.2hPa | 2.7V | 01:52:00 | 00:00:00 | 00:00:00 | |
| OM5KV | 2026-08-31 05:15:37 | 48.11033 | 12.18094 | 331° | 9km/h | 24664m | 4.7m/s | -52.2°C | 1.1% | 28.2hPa | 2.7V | 01:52:00 | 00:00:00 | 00:00:00 | |
| NBG1-10 | 2026-08-31 05:15:36 | 48.11028 | 12.18097 | 336° | 11km/h | 24653m | 4.5m/s | -52.1°C | 4.0% | 28.2hPa | 2.7V | 01:52:00 | 01:47:55 | 00:00:00 | |
| DO3MHA-11 | 2026-08-31 05:15:35 | 48.11025 | 12.18099 | 332° | 11km/h | 24649m | 3.9m/s | -52.1°C | 4.0% | 28.2hPa | 2.7V | 01:52:00 | 01:47:54 | 00:00:00 | |
| OE5DRO-10 | 2026-08-31 05:15:34 | 48.11023 | 12.18102 | 319° | 11km/h | 24644m | 5.4m/s | -52.2°C | 4.0% | 28.3hPa | 2.7V | 00:00:00 | 00:00:00 | 00:00:00 | |
| PG1ADW-2 | 2026-08-31 05:15:32 | 48.11021 | 12.18108 | 277° | 11km/h | 24634m | 5.0m/s | -52.2°C | 4.1% | 28.3hPa | 2.6V | 00:00:00 | 00:00:00 | 00:00:00 | |
| DO3MHA-12 | 2026-08-31 05:15:31 | 48.11021 | 12.18112 | 277° | 13km/h | 24628m | 5.7m/s | -52.1°C | 4.0% | 28.3hPa | 2.6V | 01:52:00 | 01:47:50 | 00:00:00 | |
| OM5KV | 2026-08-31 05:15:30 | 48.11021 | 12.18112 | 278° | 11km/h | 24628m | 5.7m/s | -52.2°C | 1.1% | 28.4hPa | 2.6V | 01:53:00 | 00:00:00 | 00:00:00 | |
| OE5DXL-15 | 2026-08-31 05:15:29 | 48.11019 | 12.18121 | 289° | 11km/h | 24618m | 4.6m/s | -52.2°C | 4.0% | 28.4hPa | 2.6V | 00:00:00 | 00:00:00 | 00:00:00 | |
| DM0DOS-11 | 2026-08-31 05:15:28 | 48.11017 | 12.18134 | 284° | 11km/h | 24603m | 4.3m/s | -52.2°C | 4.1% | 28.5hPa | 2.6V | 01:53:01 | 01:47:45 | 00:00:00 | |
| OM5KV | 2026-08-31 05:15:26 | 48.11018 | 12.18130 | 281° | 11km/h | 24607m | 5.0m/s | -52.2°C | 1.1% | 28.5hPa | 2.7V | 01:53:00 | 00:00:00 | 00:00:00 | |
| DO3MHA-11 | 2026-08-31 05:15:25 | 48.11016 | 12.18138 | 298° | 11km/h | 24598m | 5.5m/s | -52.2°C | 4.1% | 28.5hPa | 2.7V | 00:00:00 | 01:47:44 | 00:00:00 | |
| OE9MKV-15 | 2026-08-31 05:15:24 | 48.11014 | 12.18142 | 311° | 11km/h | 24592m | 5.5m/s | 0°C | 0% | 0hPa | 2.7V | 01:53:00 | 01:47:43 | 00:00:00 | |
| DO3MHA-12 | 2026-08-31 05:15:21 | 48.11007 | 12.18153 | 311° | 11km/h | 24576m | 5.0m/s | -52.2°C | 4.1% | 28.6hPa | 2.7V | 00:00:00 | 01:47:40 | 00:00:00 | |
| OM5KV | 2026-08-31 05:15:20 | 48.11007 | 12.18153 | 311° | 11km/h | 24576m | 5.0m/s | -52.2°C | 1.2% | 28.6hPa | 2.6V | 01:53:00 | 00:00:00 | 00:00:00 | |
| OM5KV | 2026-08-31 05:15:19 | 48.11006 | 12.18156 | 312° | 11km/h | 24571m | 4.5m/s | -52.3°C | 1.1% | 28.6hPa | 2.6V | 01:53:00 | 00:00:00 | 00:00:00 | |
| OE5MMP-10 | 2026-08-31 05:15:18 | 48.11001 | 12.18161 | 322° | 11km/h | 24560m | 4.6m/s | -52.1°C | 4.0% | 28.7hPa | 2.6V | 01:53:00 | 01:47:37 | 00:00:00 | |
| DM0DOS-11 | 2026-08-31 05:15:17 | 48.10998 | 12.18167 | 303° | 9km/h | 24550m | 5.9m/s | -52.2°C | 4% | 28.8hPa | 2.7V | 01:53:11 | 01:47:35 | 00:00:00 | |
| DK5PH-5 | 2026-08-31 05:15:16 | 48.10998 | 12.18167 | 304° | 11km/h | 24550m | 5.8m/s | -52.2°C | 4.0% | 28.7hPa | 2.6V | 01:53:00 | 01:47:35 | 00:00:00 | |
| DM7RM-13 | 2026-08-31 05:15:15 | 48.10997 | 12.18170 | 286° | 7km/h | 24545m | 4.7m/s | -52.3°C | 1.2% | 28.8hPa | 2.6V | 00:00:00 | 00:00:00 | 00:00:00 | |
| OM5KV | 2026-08-31 05:15:13 | 48.10996 | 12.18173 | 281° | 9km/h | 24540m | 4.7m/s | -52.3°C | 1.1% | 28.8hPa | 2.6V | 01:53:00 | 00:00:00 | 00:00:00 | |
| PG1ADW-2 | 2026-08-31 05:15:12 | 48.10995 | 12.18180 | 295° | 11km/h | 24529m | 4.9m/s | -52.2°C | 4.1% | 28.8hPa | 2.6V | 01:53:00 | 00:00:00 | 00:00:00 | |
| DO3MHA-12 | 2026-08-31 05:15:11 | 48.10993 | 12.18185 | 293° | 11km/h | 24525m | 4.6m/s | -52.3°C | 4.1% | 28.8hPa | 2.6V | 01:53:00 | 01:47:30 | 00:00:00 | |
| DF7PN | 2026-08-31 05:15:10 | 48.10992 | 12.18190 | 287° | 13km/h | 24519m | 5.8m/s | -52.4°C | 1.1% | 28.9hPa | 2.6V | 00:00:00 | 00:00:00 | 00:00:00 | |
| OM5KV | 2026-08-31 05:15:09 | 48.10992 | 12.18190 | 288° | 13km/h | 24519m | 5.8m/s | -52.4°C | 1.1% | 28.9hPa | 2.6V | 01:53:00 | 00:00:00 | 00:00:00 | |
| DM0DOS-11 | 2026-08-31 05:15:08 | 48.10986 | 12.18206 | 324° | 13km/h | 24499m | 4m/s | -52.4°C | 4.1% | 29hPa | 2.6V | 01:53:21 | 01:47:25 | 00:00:00 | |
| DF3TZ-5 | 2026-08-31 05:15:07 | 48.10988 | 12.18203 | 311° | 13km/h | 24504m | 5.6m/s | -52.4°C | 1.1% | 28.9hPa | 2.6V | 00:00:00 | 00:00:00 | 00:00:00 | |
| DO3MHA-11 | 2026-08-31 05:15:05 | 48.10983 | 12.18208 | 332° | 7km/h | 24495m | 4.4m/s | -52.5°C | 4.2% | 28.9hPa | 2.6V | 00:00:00 | 01:47:24 | 00:00:00 | |
| OE5WHR-10 | 2026-08-31 05:15:04 | 48.10981 | 12.18210 | 332° | 9km/h | 24490m | 6.1m/s | -52.4°C | 4.2% | 29.0hPa | 2.6V | 01:53:00 | 01:47:23 | 00:00:00 | |
| NBG1-10 | 2026-08-31 05:15:02 | 48.10979 | 12.18212 | 302° | 9km/h | 24479m | 5.0m/s | -52.5°C | 4.2% | 29.0hPa | 2.6V | 00:00:00 | 01:47:21 | 00:00:00 | |
| DO3MHA-12 | 2026-08-31 05:15:01 | 48.10979 | 12.18213 | 306° | 11km/h | 24474m | 5.2m/s | -52.4°C | 4.1% | 29.0hPa | 2.6V | 00:00:00 | 01:47:20 | 00:00:00 | |
| OE5DXL-15 | 2026-08-31 05:14:59 | 48.10977 | 12.18217 | 306° | 11km/h | 24464m | 4.2m/s | -52.4°C | 4.1% | 29.1hPa | 2.6V | 01:53:00 | 00:00:00 | 00:00:00 | |
| OE5MMP-10 | 2026-08-31 05:14:58 | 48.10975 | 12.18221 | 295° | 13km/h | 24459m | 5.5m/s | -52.5°C | 4.2% | 29.1hPa | 2.6V | 01:53:00 | 01:47:17 | 00:00:00 | |
| DM0DOS-11 | 2026-08-31 05:14:57 | 48.10974 | 12.18228 | 281° | 11km/h | 24448m | 4.7m/s | -52.4°C | 4.2% | 29.2hPa | 2.6V | 01:53:31 | 01:47:15 | 00:00:00 | |
| OE5DRO-10 | 2026-08-31 05:14:56 | 48.10974 | 12.18228 | 282° | 11km/h | 24449m | 4.6m/s | -52.4°C | 4.2% | 29.2hPa | 2.7V | 00:00:00 | 00:00:00 | 00:00:00 | |
| DO3MHA-11 | 2026-08-31 05:14:55 | 48.10973 | 12.18233 | 289° | 11km/h | 24443m | 5.8m/s | -52.4°C | 4.1% | 29.2hPa | 2.7V | 01:53:00 | 01:47:14 | 00:00:00 | |
| OE9MKV-15 | 2026-08-31 05:14:54 | 48.10972 | 12.18237 | 299° | 9km/h | 24438m | 5.3m/s | 0°C | 0% | 0hPa | 2.7V | 00:00:00 | 01:47:13 | 00:00:00 | |
| PG1ADW-2 | 2026-08-31 05:14:52 | 48.10968 | 12.18247 | 301° | 11km/h | 24429m | 5.0m/s | -52.3°C | 4.1% | 29.2hPa | 2.7V | 00:00:00 | 00:00:00 | 00:00:00 | |
| DO3MHA-12 | 2026-08-31 05:14:51 | 48.10967 | 12.18251 | 294° | 9km/h | 24423m | 5.8m/s | -52.3°C | 4.1% | 29.3hPa | 2.6V | 01:53:00 | 01:47:10 | 00:00:00 | |
| OE5MMP-10 | 2026-08-31 05:14:48 | 48.10964 | 12.18261 | 314° | 11km/h | 24407m | 5.8m/s | -52.4°C | 4.1% | 29.3hPa | 2.7V | 00:00:00 | 01:47:07 | 00:00:00 | |
| DM0DOS-11 | 2026-08-31 05:14:47 | 48.10960 | 12.18265 | 329° | 9km/h | 24398m | 4.6m/s | -52.5°C | 4.2% | 29.4hPa | 2.6V | 01:53:41 | 01:47:05 | 00:00:00 | |
| DK5PH-5 | 2026-08-31 05:14:46 | 48.10960 | 12.18265 | 330° | 11km/h | 24398m | 4.5m/s | -52.5°C | 4.2% | 29.4hPa | 2.6V | 00:00:00 | 01:47:05 | 00:00:00 | |
| DO3MHA-11 | 2026-08-31 05:14:45 | 48.10958 | 12.18267 | 322° | 11km/h | 24393m | 5.8m/s | -52.5°C | 4.2% | 29.4hPa | 2.6V | 00:00:00 | 01:47:04 | 00:00:00 | |
| OE5WHR-10 | 2026-08-31 05:14:43 | 48.10956 | 12.18271 | 282° | 11km/h | 24383m | 4.6m/s | -52.5°C | 4.1% | 29.5hPa | 2.7V | 00:00:00 | 00:00:00 | 00:00:00 | |
| DO3MHA-12 | 2026-08-31 05:14:41 | 48.10955 | 12.18278 | 283° | 11km/h | 24372m | 4.9m/s | -52.4°C | 4.1% | 29.5hPa | 2.6V | 00:00:00 | 01:47:00 | 00:00:00 | |
| BAUMI2-15 | 2026-08-31 05:14:40 | 48.10955 | 12.18283 | 276° | 15km/h | 24368m | 4.6m/s | -52.4°C | 4.0% | 29.5hPa | 2.6V | 01:53:00 | 01:46:59 | 00:00:00 | |
| DF7PN | 2026-08-31 05:14:39 | 48.10955 | 12.18289 | 266° | 16km/h | 24362m | 6.0m/s | -52.5°C | 1.1% | 29.6hPa | 2.7V | 00:00:00 | 00:00:00 | 00:00:00 | |
| OE5MMP-10 | 2026-08-31 05:14:38 | 48.10955 | 12.18295 | 256° | 7km/h | 24357m | 4.9m/s | -52.5°C | 4.1% | 29.6hPa | 2.7V | 01:53:00 | 01:46:57 | 00:00:00 | |
| DM0DOS-11 | 2026-08-31 05:14:37 | 48.10958 | 12.18306 | 252° | 13km/h | 24348m | 5.2m/s | -52.6°C | 4.1% | 29.7hPa | 2.7V | 01:53:51 | 01:46:55 | 00:00:00 | |
| OE5DRO-10 | 2026-08-31 05:14:37 | 48.10956 | 12.18301 | 250° | 9km/h | 24353m | 3.8m/s | -52.5°C | 4.1% | 29.6hPa | 2.7V | 01:53:00 | 00:00:00 | 00:00:00 | |
| DF3TZ-5 | 2026-08-31 05:14:36 | 48.10958 | 12.18306 | 252° | 11km/h | 24348m | 5.2m/s | -52.6°C | 1.1% | 29.7hPa | 2.6V | 00:00:00 | 00:00:00 | 00:00:00 | |
| BAUMI2-15 | 2026-08-31 05:14:35 | 48.10958 | 12.18310 | 267° | 5km/h | 24343m | 5.6m/s | -52.6°C | 4.1% | 29.6hPa | 2.6V | 00:00:00 | 01:46:54 | 00:00:00 | |
| DL6DJ-15 | 2026-08-31 05:14:34 | 48.10958 | 12.18313 | 295° | 5km/h | 24337m | 4.8m/s | -52.6°C | 1.1% | 29.8hPa | 2.6V | 00:00:00 | 00:00:00 | 00:00:00 | |
| PG1ADW-2 | 2026-08-31 05:14:32 | 48.10957 | 12.18316 | 296° | 9km/h | 24327m | 5.7m/s | -52.6°C | 4.1% | 29.7hPa | 2.6V | 01:53:00 | 01:46:51 | 00:00:00 | |
| DO3MHA-12 | 2026-08-31 05:14:31 | 48.10956 | 12.18317 | 284° | 11km/h | 24322m | 4.8m/s | -52.6°C | 4.1% | 29.7hPa | 2.6V | 01:53:00 | 01:46:50 | 00:00:00 | |
| BAUMI2-15 | 2026-08-31 05:14:30 | 48.10956 | 12.18318 | 298° | 7km/h | 24317m | 5.3m/s | -52.6°C | 4.1% | 29.8hPa | 2.6V | 01:53:00 | 01:46:49 | 00:00:00 | |
| OE5DXL-15 | 2026-08-31 05:14:29 | 48.10956 | 12.18319 | 294° | 9km/h | 24311m | 5.3m/s | -52.6°C | 4.1% | 29.8hPa | 2.6V | 00:00:00 | 00:00:00 | 00:00:00 | |
| OE5MMP-10 | 2026-08-31 05:14:28 | 48.10956 | 12.18320 | 266° | 13km/h | 24307m | 3.9m/s | -52.5°C | 4.1% | 29.8hPa | 2.6V | 00:00:00 | 01:46:47 | 00:00:00 | |
| DM0DOS-11 | 2026-08-31 05:14:27 | 48.10958 | 12.18327 | 235° | 15km/h | 24297m | 5.8m/s | -52.6°C | 4.1% | 29.9hPa | 2.6V | 01:54:01 | 01:46:45 | 00:00:00 | |
| DG1MFX-10 | 2026-08-31 05:14:26 | 48.10956 | 12.18323 | 242° | 9km/h | 24302m | 4.6m/s | -52.5°C | 1.2% | 29.9hPa | 2.6V | 01:54:00 | 00:00:00 | 00:00:00 | |
| DO3MHA-11 | 2026-08-31 05:14:25 | 48.10961 | 12.18332 | 236° | 11km/h | 24292m | 4.5m/s | -52.6°C | 4.1% | 29.9hPa | 2.6V | 00:00:00 | 01:46:44 | 00:00:00 | |
| OE9MKV-15 | 2026-08-31 05:14:24 | 48.10964 | 12.18339 | 238° | 13km/h | 24288m | 4.2m/s | 0°C | 0% | 0hPa | 2.6V | 00:00:00 | 01:46:43 | 00:00:00 | |
| OM5KV | 2026-08-31 05:14:23 | 48.10964 | 12.18339 | 239° | 24km/h | 24288m | 4.2m/s | -52.7°C | 1.2% | 29.9hPa | 2.6V | 01:54:00 | 00:00:00 | 00:00:00 | |
| OE5WHR-10 | 2026-08-31 05:14:22 | 48.10969 | 12.18352 | 246° | 9km/h | 24278m | 4.9m/s | -52.7°C | 4.1% | 29.9hPa | 2.6V | 01:54:00 | 00:00:00 | 00:00:00 | |
| DO3MHA-12 | 2026-08-31 05:14:21 | 48.10970 | 12.18357 | 251° | 7km/h | 24273m | 4.6m/s | -52.8°C | 4.2% | 29.9hPa | 2.6V | 00:00:00 | 01:46:40 | 00:00:00 | |
| BAUMI2-15 | 2026-08-31 05:14:20 | 48.10970 | 12.18359 | 235° | 5km/h | 24268m | 5.2m/s | -52.8°C | 4.2% | 30.0hPa | 2.7V | 01:54:00 | 01:46:39 | 00:00:00 | |
| OM5KV | 2026-08-31 05:14:19 | 48.10970 | 12.18359 | 235° | 4km/h | 24268m | 5.3m/s | -52.8°C | 1.2% | 30.0hPa | 2.7V | 01:54:00 | 00:00:00 | 00:00:00 | |
| OE5MMP-10 | 2026-08-31 05:14:18 | 48.10972 | 12.18358 | 145° | 11km/h | 24258m | 4.9m/s | -52.8°C | 4.1% | 30.0hPa | 2.7V | 01:54:00 | 01:46:37 | 00:00:00 | |
| DM0DOS-11 | 2026-08-31 05:14:17 | 48.10975 | 12.18355 | 145° | 5km/h | 24247m | 5.6m/s | -52.9°C | 4% | 30.1hPa | 2.6V | 01:54:11 | 01:46:35 | 00:00:00 | |
| DK5PH-5 | 2026-08-31 05:14:16 | 48.10975 | 12.18355 | 146° | 9km/h | 24248m | 5.5m/s | -52.9°C | 4.0% | 30.1hPa | 2.6V | 01:54:00 | 01:46:35 | 00:00:00 | |
| OE5REO-15 | 2026-08-31 05:14:13 | 48.10977 | 12.18356 | 224° | 5km/h | 24237m | 4.9m/s | -53.0°C | 1.1% | 30.2hPa | 2.6V | 01:54:00 | 00:00:00 | 00:00:00 | |
| PG1ADW-2 | 2026-08-31 05:14:12 | 48.10981 | 12.18361 | 228° | 9km/h | 24226m | 4.9m/s | -52.9°C | 4.0% | 30.2hPa | 2.6V | 00:00:00 | 00:00:00 | 00:00:00 | |
| DO3MHA-12 | 2026-08-31 05:14:11 | 48.10984 | 12.18366 | 231° | 11km/h | 24222m | 3.9m/s | -53.0°C | 4.1% | 30.2hPa | 2.6V | 01:54:00 | 01:46:30 | 00:00:00 | |
| BAUMI2-15 | 2026-08-31 05:14:10 | 48.10986 | 12.18372 | 236° | 15km/h | 24217m | 5.9m/s | -53.2°C | 4.2% | 30.2hPa | 2.6V | 01:54:00 | 01:46:29 | 00:00:00 | |
| DB0UT-7 | 2026-08-31 05:14:09 | 48.10989 | 12.18378 | 242° | 7km/h | 24211m | 5.2m/s | -53.3°C | 4.2% | 30.2hPa | 2.6V | 00:00:00 | 00:00:00 | 00:00:00 | |
| OE5MMP-10 | 2026-08-31 05:14:08 | 48.10991 | 12.18384 | 244° | 5km/h | 24206m | 4.7m/s | -53.4°C | 4.3% | 30.3hPa | 2.6V | 00:00:00 | 01:46:27 | 00:00:00 | |
| DM0DOS-11 | 2026-08-31 05:14:07 | 48.10994 | 12.18391 | 219° | 9km/h | 24195m | 5.5m/s | -53.6°C | 4.4% | 30.4hPa | 2.6V | 01:54:21 | 01:46:25 | 00:00:00 | |
| DG1MJG | 2026-08-31 05:14:06 | 48.10992 | 12.18388 | 237° | 13km/h | 24201m | 5.4m/s | -53.6°C | 1.2% | 30.3hPa | 2.7V | 01:54:00 | 00:00:00 | 00:00:00 | |
| DO3MHA-11 | 2026-08-31 05:14:05 | 48.10996 | 12.18393 | 199° | 5km/h | 24191m | 4.3m/s | -53.6°C | 4.4% | 30.4hPa | 2.7V | 00:00:00 | 01:46:24 | 00:00:00 | |
| DF1GD-15 | 2026-08-31 05:14:04 | 48.10996 | 12.18393 | 200° | 7km/h | 24191m | 4.3m/s | -53.6°C | 1.3% | 30.4hPa | 2.7V | 01:54:00 | 00:00:00 | 00:00:00 | |
| DL6DJ-15 | 2026-08-31 05:14:03 | 48.10998 | 12.18393 | 171° | 0km/h | 24181m | 6.3m/s | -53.7°C | 1.3% | 30.4hPa | 2.7V | 00:00:00 | 00:00:00 | 00:00:00 | |
| OM5KV | 2026-08-31 05:14:02 | 48.10998 | 12.18393 | 0° | 0km/h | 24181m | 6.3m/s | -53.7°C | 1.3% | 30.4hPa | 2.7V | 01:54:00 | 00:00:00 | 00:00:00 | |
| DO3MHA-12 | 2026-08-31 05:14:01 | 48.10997 | 12.18394 | 332° | 9km/h | 24171m | 4.7m/s | -53.6°C | 4.4% | 30.4hPa | 2.7V | 00:00:00 | 01:46:20 | 00:00:00 | |
| BAUMI2-15 | 2026-08-31 05:14:00 | 48.10997 | 12.18395 | 287° | 7km/h | 24165m | 5.8m/s | -53.7°C | 4.3% | 30.5hPa | 2.7V | 01:54:00 | 01:46:19 | 00:00:00 | |
| OE5DXL-15 | 2026-08-31 05:13:59 | 48.10997 | 12.18396 | 248° | 9km/h | 24160m | 4.8m/s | -53.7°C | 4.4% | 30.5hPa | 2.7V | 01:54:00 | 00:00:00 | 00:00:00 | |
| OE5MMP-10 | 2026-08-31 05:13:58 | 48.10998 | 12.18398 | 245° | 9km/h | 24155m | 4.3m/s | -53.7°C | 4.4% | 30.5hPa | 2.7V | 01:54:00 | 01:46:17 | 00:00:00 | |
| DM0DOS-11 | 2026-08-31 05:13:57 | 48.10999 | 12.18405 | 264° | 11km/h | 24144m | 5.1m/s | -53.7°C | 4.3% | 30.6hPa | 2.7V | 01:54:31 | 01:46:15 | 00:00:00 | |
| NBG1-10 | 2026-08-31 05:13:56 | 48.10999 | 12.18405 | 265° | 9km/h | 24145m | 5.1m/s | -53.6°C | 4.3% | 30.6hPa | 2.7V | 00:00:00 | 01:46:15 | 00:00:00 | |
| BAUMI2-15 | 2026-08-31 05:13:55 | 48.10999 | 12.18409 | 259° | 11km/h | 24140m | 4.7m/s | -53.6°C | 4.3% | 30.6hPa | 2.7V | 00:00:00 | 01:46:14 | 00:00:00 | |
| OM5KV | 2026-08-31 05:13:54 | 48.10999 | 12.18409 | 260° | 11km/h | 24140m | 4.7m/s | -53.7°C | 1.2% | 30.7hPa | 2.6V | 01:55:00 | 00:00:00 | 00:00:00 | |
| PG1ADW-2 | 2026-08-31 05:13:52 | 48.11004 | 12.18420 | 225° | 7km/h | 24124m | 4.2m/s | -53.7°C | 4.2% | 30.7hPa | 2.6V | 01:54:00 | 00:00:00 | 00:00:00 | |
| DO3MHA-12 | 2026-08-31 05:13:51 | 48.11005 | 12.18423 | 230° | 5km/h | 24119m | 5.9m/s | -53.7°C | 4.3% | 30.7hPa | 2.6V | 01:54:00 | 01:46:10 | 00:00:00 | |
| BAUMI2-15 | 2026-08-31 05:13:50 | 48.11007 | 12.18425 | 240° | 5km/h | 24113m | 5.5m/s | -53.7°C | 4.3% | 30.7hPa | 2.6V | 01:54:00 | 01:46:09 | 00:00:00 | |
| OE5MMP-10 | 2026-08-31 05:13:48 | 48.11008 | 12.18429 | 234° | 7km/h | 24103m | 5.0m/s | -53.7°C | 4.3% | 30.7hPa | 2.6V | 00:00:00 | 01:46:07 | 00:00:00 | |
| DM0DOS-11 | 2026-08-31 05:13:47 | 48.11010 | 12.18430 | 175° | 5km/h | 24092m | 4.8m/s | -53.8°C | 4.3% | 30.9hPa | 2.6V | 01:54:41 | 01:46:05 | 00:00:00 | |
| DK5PH-5 | 2026-08-31 05:13:46 | 48.11010 | 12.18430 | 176° | 9km/h | 24093m | 4.8m/s | -53.7°C | 4.3% | 30.8hPa | 2.7V | 00:00:00 | 01:46:05 | 00:00:00 | |
| DO3MHA-11 | 2026-08-31 05:13:45 | 48.11011 | 12.18430 | 186° | 9km/h | 24088m | 5.0m/s | -53.8°C | 4.3% | 30.9hPa | 2.7V | 00:00:00 | 01:46:04 | 00:00:00 | |
| DF1GD-15 | 2026-08-31 05:13:44 | 48.11011 | 12.18430 | 187° | 4km/h | 24088m | 5.0m/s | -53.8°C | 1.3% | 30.9hPa | 2.6V | 01:55:00 | 00:00:00 | 00:00:00 | |
| OE5REO-15 | 2026-08-31 05:13:42 | 48.11012 | 12.18433 | 256° | 7km/h | 24077m | 4.8m/s | -53.9°C | 1.3% | 30.9hPa | 2.6V | 01:55:00 | 00:00:00 | 00:00:00 | |
| DO3MHA-12 | 2026-08-31 05:13:41 | 48.11014 | 12.18440 | 245° | 9km/h | 24066m | 5.8m/s | -54.0°C | 4.5% | 31.0hPa | 2.6V | 00:00:00 | 01:46:00 | 00:00:00 | |
| OE5WHR-10 | 2026-08-31 05:13:40 | 48.11016 | 12.18444 | 244° | 9km/h | 24061m | 4.1m/s | -54.1°C | 4.5% | 31.0hPa | 2.6V | 01:54:00 | 00:00:00 | 00:00:00 | |
| DB0UT-7 | 2026-08-31 05:13:39 | 48.11017 | 12.18448 | 248° | 9km/h | 24056m | 4.6m/s | -54.2°C | 4.5% | 31.0hPa | 2.6V | 01:54:00 | 01:45:58 | 00:00:00 | |
| OE5MMP-10 | 2026-08-31 05:13:38 | 48.11018 | 12.18453 | 256° | 9km/h | 24051m | 5.8m/s | -54.2°C | 4.5% | 31.0hPa | 2.6V | 01:54:00 | 01:45:57 | 00:00:00 | |
| DM0DOS-11 | 2026-08-31 05:13:37 | 48.11019 | 12.18460 | 245° | 5km/h | 24040m | 4.8m/s | -54.3°C | 4.6% | 31.1hPa | 2.6V | 01:54:51 | 01:45:55 | 00:00:00 | |
| DF7PN | 2026-08-31 05:13:37 | 48.11019 | 12.18457 | 258° | 9km/h | 24045m | 5.0m/s | -54.3°C | 1.3% | 31.1hPa | 2.7V | 00:00:00 | 00:00:00 | 00:00:00 | |
| DG1MJG | 2026-08-31 05:13:36 | 48.11019 | 12.18457 | 260° | 11km/h | 24046m | 5.0m/s | -54.3°C | 1.3% | 31.1hPa | 2.7V | 01:55:00 | 00:00:00 | 00:00:00 | |
| DO3MHA-11 | 2026-08-31 05:13:35 | 48.11020 | 12.18461 | 173° | 7km/h | 24035m | 6.1m/s | -54.2°C | 4.5% | 31.1hPa | 2.7V | 01:54:00 | 01:45:54 | 00:00:00 | |
| OM5KV | 2026-08-31 05:13:33 | 48.11021 | 12.18460 | 134° | 9km/h | 24030m | 5.0m/s | -54.3°C | 1.3% | 31.2hPa | 2.7V | 01:55:00 | 00:00:00 | 00:00:00 | |
| PG1ADW-2 | 2026-08-31 05:13:32 | 48.11024 | 12.18453 | 114° | 9km/h | 24019m | 5.5m/s | -54.1°C | 4.5% | 31.2hPa | 2.7V | 00:00:00 | 00:00:00 | 00:00:00 | |
| DO3MHA-12 | 2026-08-31 05:13:31 | 48.11025 | 12.18450 | 117° | 7km/h | 24014m | 4.9m/s | -54.0°C | 4.5% | 31.2hPa | 2.7V | 01:54:00 | 01:45:50 | 00:00:00 | |
| BAUMI2-15 | 2026-08-31 05:13:30 | 48.11026 | 12.18447 | 128° | 7km/h | 24008m | 5.7m/s | -54.0°C | 4.5% | 31.2hPa | 2.7V | 01:54:00 | 01:45:49 | 00:00:00 | |
| OE5DXL-15 | 2026-08-31 05:13:29 | 48.11028 | 12.18445 | 145° | 9km/h | 24002m | 5.2m/s | -54.1°C | 4.4% | 31.3hPa | 2.7V | 00:00:00 | 00:00:00 | 00:00:00 | |
| OE5MMP-10 | 2026-08-31 05:13:28 | 48.11030 | 12.18443 | 169° | 7km/h | 23998m | 4.9m/s | -54.1°C | 4.4% | 31.3hPa | 2.7V | 00:00:00 | 01:45:47 | 00:00:00 | |
| DM0DOS-11 | 2026-08-31 05:13:27 | 48.11032 | 12.18445 | 235° | 7km/h | 23986m | 4.9m/s | -54.1°C | 4.4% | 31.4hPa | 2.7V | 01:55:01 | 01:45:45 | 00:00:00 | |
| OE5REO-15 | 2026-08-31 05:13:26 | 48.11031 | 12.18443 | 206° | 5km/h | 23992m | 6.4m/s | -54.2°C | 1.3% | 31.4hPa | 2.6V | 01:55:00 | 00:00:00 | 00:00:00 | |
| DO3MHA-11 | 2026-08-31 05:13:25 | 48.11034 | 12.18447 | 236° | 11km/h | 23981m | 4.9m/s | -54.1°C | 4.5% | 31.4hPa | 2.6V | 00:00:00 | 01:45:44 | 00:00:00 | |
| NBG1-10 | 2026-08-31 05:13:23 | 48.11036 | 12.18451 | 192° | 9km/h | 23970m | 4.7m/s | -54.3°C | 4.6% | 31.4hPa | 2.6V | 01:55:00 | 01:45:42 | 00:00:00 | |
| OM5KV | 2026-08-31 05:13:22 | 48.11037 | 12.18451 | 192° | 7km/h | 23970m | 4.7m/s | -54.3°C | 1.3% | 31.5hPa | 2.7V | 01:55:00 | 00:00:00 | 00:00:00 | |
| DO3MHA-12 | 2026-08-31 05:13:21 | 48.11040 | 12.18450 | 148° | 11km/h | 23960m | 6.2m/s | -54.3°C | 4.6% | 31.5hPa | 2.7V | 00:00:00 | 01:45:40 | 00:00:00 | |
| BAUMI2-15 | 2026-08-31 05:13:20 | 48.11041 | 12.18448 | 119° | 15km/h | 23954m | 4.7m/s | -54.3°C | 4.6% | 31.5hPa | 2.6V | 01:55:00 | 01:45:39 | 00:00:00 | |
| OE5WHR-10 | 2026-08-31 05:13:19 | 48.11042 | 12.18444 | 114° | 9km/h | 23949m | 4.9m/s | -54.2°C | 4.6% | 31.5hPa | 2.6V | 00:00:00 | 00:00:00 | 00:00:00 | |
| OE5MMP-10 | 2026-08-31 05:13:18 | 48.11044 | 12.18439 | 115° | 9km/h | 23944m | 6.2m/s | -54.2°C | 4.6% | 31.6hPa | 2.6V | 01:55:00 | 01:45:37 | 00:00:00 | |
| DM0DOS-11 | 2026-08-31 05:13:17 | 48.11048 | 12.18427 | 113° | 16km/h | 23933m | 4.6m/s | -54.2°C | 4.6% | 31.7hPa | 2.7V | 01:55:11 | 01:45:35 | 00:00:00 | |
| DK5PH-5 | 2026-08-31 05:13:16 | 48.11047 | 12.18427 | 114° | 9km/h | 23934m | 4.6m/s | -54.1°C | 4.6% | 31.6hPa | 2.7V | 01:55:00 | 01:45:35 | 00:00:00 | |
| DO3MHA-11 | 2026-08-31 05:13:15 | 48.11049 | 12.18422 | 109° | 5km/h | 23928m | 6.0m/s | -54.1°C | 4.7% | 31.6hPa | 2.7V | 01:55:00 | 01:45:34 | 00:00:00 | |
| SONDE2-11 | 2026-08-31 05:13:12 | 48.11051 | 12.18413 | 136° | 4km/h | 23907m | 5.2m/s | -53.9°C | 1.3% | 31.8hPa | 2.7V | 00:00:00 | 00:00:00 | 00:00:00 | |
| DO3MHA-12 | 2026-08-31 05:13:11 | 48.11051 | 12.18413 | 137° | 7km/h | 23907m | 5.1m/s | -53.9°C | 4.6% | 31.8hPa | 2.7V | 01:55:00 | 01:45:30 | 00:00:00 | |
| BAUMI2-15 | 2026-08-31 05:13:10 | 48.11052 | 12.18412 | 138° | 4km/h | 23902m | 4.7m/s | -53.8°C | 4.5% | 31.8hPa | 2.7V | 01:55:00 | 01:45:29 | 00:00:00 | |
| DB0UT-7 | 2026-08-31 05:13:09 | 48.11053 | 12.18411 | 128° | 9km/h | 23897m | 5.4m/s | -53.8°C | 4.5% | 31.8hPa | 2.7V | 00:00:00 | 00:00:00 | 00:00:00 | |
| OE5MMP-10 | 2026-08-31 05:13:08 | 48.11053 | 12.18410 | 76° | 9km/h | 23891m | 6.1m/s | -53.8°C | 4.5% | 31.8hPa | 2.6V | 00:00:00 | 01:45:27 | 00:00:00 | |
| DF7PN | 2026-08-31 05:13:06 | 48.11052 | 12.18407 | 80° | 5km/h | 23881m | 4.5m/s | -53.7°C | 1.3% | 31.9hPa | 2.6V | 00:00:00 | 00:00:00 | 00:00:00 | |
| DO3MHA-11 | 2026-08-31 05:13:05 | 48.11052 | 12.18403 | 95° | 11km/h | 23876m | 5.8m/s | -53.7°C | 4.4% | 31.9hPa | 2.6V | 00:00:00 | 01:45:24 | 00:00:00 | |
| OM5KV | 2026-08-31 05:13:04 | 48.11052 | 12.18403 | 96° | 11km/h | 23876m | 5.8m/s | -53.7°C | 1.2% | 31.9hPa | 2.6V | 01:55:00 | 00:00:00 | 00:00:00 | |
| DF1GD-15 | 2026-08-31 05:13:03 | 48.11053 | 12.18399 | 104° | 15km/h | 23871m | 4.9m/s | -53.7°C | 1.3% | 32.0hPa | 2.6V | 01:56:00 | 00:00:00 | 00:00:00 | |
| OE5DRO-10 | 2026-08-31 05:13:02 | 48.11055 | 12.18388 | 106° | 9km/h | 23860m | 6.3m/s | -53.6°C | 4.3% | 32.0hPa | 2.6V | 00:00:00 | 00:00:00 | 00:00:00 | |
| DO3MHA-12 | 2026-08-31 05:13:01 | 48.11056 | 12.18384 | 106° | 9km/h | 23855m | 5.2m/s | -53.5°C | 4.3% | 32.0hPa | 2.6V | 00:00:00 | 01:45:20 | 00:00:00 | |
| BAUMI2-15 | 2026-08-31 05:13:00 | 48.11056 | 12.18381 | 110° | 9km/h | 23850m | 4.2m/s | -53.5°C | 4.3% | 32.0hPa | 2.6V | 01:55:00 | 01:45:19 | 00:00:00 | |
| OE5DXL-15 | 2026-08-31 05:12:59 | 48.11057 | 12.18378 | 120° | 11km/h | 23845m | 6.1m/s | -53.5°C | 4.3% | 32.0hPa | 2.6V | 01:55:00 | 00:00:00 | 00:00:00 | |
| OM5KV | 2026-08-31 05:12:58 | 48.11057 | 12.18378 | 120° | 9km/h | 23845m | 6.1m/s | -53.5°C | 1.2% | 32.1hPa | 2.7V | 01:56:00 | 00:00:00 | 00:00:00 | |
| DM0DOS-11 | 2026-08-31 05:12:57 | 48.11059 | 12.18372 | 104° | 7km/h | 23833m | 5.3m/s | -53.5°C | 4.3% | 32.2hPa | 2.7V | 01:55:30 | 01:45:16 | 00:00:00 | |
| SP3BTT-10 | 2026-08-31 05:12:57 | 48.11059 | 12.18372 | 105° | 11km/h | 23834m | 5.3m/s | 0°C | 0% | 0hPa | 2.7V | 00:00:00 | 00:00:00 | 00:00:00 | |
| DO3MHA-11 | 2026-08-31 05:12:55 | 48.11059 | 12.18366 | 66° | 11km/h | 23823m | 4.0m/s | -53.4°C | 4.3% | 32.1hPa | 2.7V | 01:55:00 | 01:45:14 | 00:00:00 | |
| OM5KV | 2026-08-31 05:12:53 | 48.11058 | 12.18363 | 73° | 9km/h | 23819m | 5.1m/s | -53.5°C | 1.2% | 32.3hPa | 2.7V | 01:56:00 | 00:00:00 | 00:00:00 | |
| DM0DOS-11 | 2026-08-31 05:12:52 | 48.11058 | 12.18332 | 91° | 11km/h | 23782m | 5.6m/s | -53.7°C | 4.4% | 32.4hPa | 2.7V | 01:55:40 | 01:45:06 | 00:00:00 | |
| DL1ZP-14 | 2026-08-31 05:12:44 | 48.11059 | 12.18324 | 81° | 4km/h | 23767m | 5.3m/s | -53.8°C | 1.3% | 32.5hPa | 2.6V | 00:00:00 | 00:00:00 | 00:00:00 | |
| OE5DRO-10 | 2026-08-31 05:12:43 | 48.11058 | 12.18321 | 44° | 15km/h | 23761m | 5.9m/s | -53.8°C | 4.5% | 32.4hPa | 2.6V | 01:55:00 | 00:00:00 | 00:00:00 | |
| DF1GD-15 | 2026-08-31 05:12:42 | 48.11058 | 12.18321 | 44° | 7km/h | 23761m | 5.9m/s | -53.9°C | 1.3% | 32.5hPa | 2.6V | 01:56:00 | 00:00:00 | 00:00:00 | |
| DO3MHA-12 | 2026-08-31 05:12:41 | 48.11054 | 12.18317 | 44° | 13km/h | 23751m | 5.1m/s | -53.9°C | 4.4% | 32.5hPa | 2.6V | 00:00:00 | 01:45:00 | 00:00:00 | |
| DM7RM-13 | 2026-08-31 05:12:40 | 48.11054 | 12.18317 | 44° | 13km/h | 23751m | 5.2m/s | -54.0°C | 1.3% | 32.6hPa | 2.6V | 00:00:00 | 00:00:00 | 00:00:00 | |
| DM0DOS-11 | 2026-08-31 05:12:39 | 48.11046 | 12.18299 | 55° | 15km/h | 23730m | 5.8m/s | -54.1°C | 4.6% | 32.7hPa | 2.6V | 01:55:50 | 01:44:56 | 00:00:00 | |
| DB0UT-7 | 2026-08-31 05:12:39 | 48.11050 | 12.18309 | 62° | 13km/h | 23740m | 4.3m/s | -54.0°C | 4.5% | 32.6hPa | 2.6V | 01:55:00 | 01:44:58 | 00:00:00 | |
| OE5MMP-10 | 2026-08-31 05:12:38 | 48.11048 | 12.18304 | 61° | 15km/h | 23735m | 5.1m/s | -54.0°C | 4.5% | 32.6hPa | 2.6V | 01:55:00 | 01:44:57 | 00:00:00 | |
| OE5WHR-10 | 2026-08-31 05:12:37 | 48.11046 | 12.18299 | 56° | 13km/h | 23730m | 5.8m/s | -54.1°C | 4.6% | 32.6hPa | 2.6V | 00:00:00 | 00:00:00 | 00:00:00 | |
| OM5KV | 2026-08-31 05:12:36 | 48.11046 | 12.18299 | 56° | 15km/h | 23730m | 5.8m/s | -54.1°C | 1.3% | 32.7hPa | 2.7V | 01:56:00 | 00:00:00 | 00:00:00 | |
| DO3MHA-11 | 2026-08-31 05:12:35 | 48.11042 | 12.18290 | 63° | 15km/h | 23720m | 5.1m/s | -54.1°C | 4.5% | 32.7hPa | 2.7V | 01:55:00 | 01:44:54 | 00:00:00 | |
| DG1MJG | 2026-08-31 05:12:34 | 48.11042 | 12.18290 | 63° | 13km/h | 23720m | 5.2m/s | -54.1°C | 1.3% | 32.7hPa | 2.7V | 01:56:00 | 00:00:00 | 00:00:00 | |
| DM0DOS-11 | 2026-08-31 05:12:32 | 48.11024 | 12.18260 | 9° | 15km/h | 23677m | 4.8m/s | -54.1°C | 4.5% | 32.9hPa | 2.7V | 01:56:00 | 01:44:46 | 00:00:00 | |
| PG1ADW-2 | 2026-08-31 05:12:32 | 48.11039 | 12.18277 | 64° | 13km/h | 23704m | 5.1m/s | -54.1°C | 4.6% | 32.8hPa | 2.6V | 01:55:00 | 00:00:00 | 00:00:00 | |
| DO3MHA-12 | 2026-08-31 05:12:31 | 48.11037 | 12.18272 | 49° | 15km/h | 23699m | 5.7m/s | -54.1°C | 4.6% | 32.8hPa | 2.6V | 01:55:00 | 01:44:50 | 00:00:00 | |
| DL6DJ-15 | 2026-08-31 05:12:30 | 48.11034 | 12.18268 | 37° | 16km/h | 23693m | 5.2m/s | -54.1°C | 1.3% | 32.8hPa | 2.6V | 00:00:00 | 00:00:00 | 00:00:00 | |
| OE5DXL-15 | 2026-08-31 05:12:29 | 48.11031 | 12.18265 | 33° | 11km/h | 23688m | 5.7m/s | -54.1°C | 4.5% | 32.9hPa | 2.6V | 00:00:00 | 00:00:00 | 00:00:00 | |
| OE5MMP-10 | 2026-08-31 05:12:28 | 48.11027 | 12.18262 | 26° | 13km/h | 23682m | 4.8m/s | -54.1°C | 4.5% | 32.9hPa | 2.6V | 00:00:00 | 01:44:47 | 00:00:00 | |
| DO3MHA-11 | 2026-08-31 05:12:25 | 48.11016 | 12.18260 | 347° | 11km/h | 23667m | 4.7m/s | -54.0°C | 4.5% | 33.0hPa | 2.6V | 00:00:00 | 01:44:44 | 00:00:00 | |
| OE5DRO-10 | 2026-08-31 05:12:24 | 48.11012 | 12.18262 | 339° | 11km/h | 23662m | 4.6m/s | -54.0°C | 4.5% | 33.0hPa | 2.6V | 00:00:00 | 00:00:00 | 00:00:00 | |
| DG1MFX-10 | 2026-08-31 05:12:23 | 48.11012 | 12.18262 | 339° | 15km/h | 23662m | 4.7m/s | -54.0°C | 1.3% | 33.0hPa | 2.6V | 01:56:00 | 00:00:00 | 00:00:00 | |
| DO3MHA-12 | 2026-08-31 05:12:21 | 48.11004 | 12.18266 | 358° | 13km/h | 23646m | 5.0m/s | -54.0°C | 4.5% | 33.1hPa | 2.6V | 00:00:00 | 01:44:40 | 00:00:00 | |
| OM5KV | 2026-08-31 05:12:20 | 48.11004 | 12.18266 | 359° | 7km/h | 23646m | 5.0m/s | -54.0°C | 1.3% | 33.1hPa | 2.7V | 01:56:00 | 00:00:00 | 00:00:00 | |
| DM0DOS-11 | 2026-08-31 05:12:19 | 48.10994 | 12.18262 | 25° | 13km/h | 23625m | 6.1m/s | -54°C | 4.5% | 33.2hPa | 2.7V | 01:56:10 | 01:44:36 | 00:00:00 | |
| OE5MMP-10 | 2026-08-31 05:12:18 | 48.10997 | 12.18264 | 21° | 13km/h | 23631m | 4.9m/s | -54.0°C | 4.5% | 33.1hPa | 2.7V | 01:56:00 | 01:44:37 | 00:00:00 | |
| NBG1-10 | 2026-08-31 05:12:17 | 48.10994 | 12.18262 | 26° | 9km/h | 23625m | 6.0m/s | -54.0°C | 4.5% | 33.2hPa | 2.6V | 01:56:00 | 01:44:36 | 00:00:00 | |
| DK5PH-5 | 2026-08-31 05:12:16 | 48.10991 | 12.18260 | 24° | 9km/h | 23620m | 4.5m/s | -53.9°C | 4.5% | 33.2hPa | 2.6V | 01:56:00 | 01:44:35 | 00:00:00 | |
| DO3MHA-11 | 2026-08-31 05:12:15 | 48.10988 | 12.18259 | 14° | 11km/h | 23615m | 4.6m/s | -53.9°C | 4.5% | 33.3hPa | 2.6V | 01:56:00 | 01:44:34 | 00:00:00 | |
| DL1ZP-14 | 2026-08-31 05:12:13 | 48.10981 | 12.18258 | 355° | 15km/h | 23604m | 5.0m/s | -53.9°C | 1.3% | 33.3hPa | 2.6V | 00:00:00 | 00:00:00 | 00:00:00 | |
| SP3BTT-10 | 2026-08-31 05:12:12 | 48.10977 | 12.18259 | 351° | 11km/h | 23599m | 5.8m/s | 0°C | 0% | 0hPa | 2.7V | 00:00:00 | 00:00:00 | 00:00:00 | |
| DO3MHA-12 | 2026-08-31 05:12:11 | 48.10973 | 12.18260 | 348° | 5km/h | 23593m | 5.4m/s | -53.8°C | 4.5% | 33.4hPa | 2.7V | 01:56:00 | 01:44:30 | 00:00:00 | |
| SONDE2-11 | 2026-08-31 05:12:10 | 48.10969 | 12.18262 | 326° | 7km/h | 23584m | 4.9m/s | -53.8°C | 1.3% | 33.4hPa | 2.7V | 00:00:00 | 00:00:00 | 00:00:00 | |
| DB0UT-7 | 2026-08-31 05:12:09 | 48.10969 | 12.18262 | 327° | 9km/h | 23584m | 4.8m/s | -53.8°C | 4.5% | 33.4hPa | 2.7V | 00:00:00 | 00:00:00 | 00:00:00 | |
| OE5MMP-10 | 2026-08-31 05:12:08 | 48.10967 | 12.18264 | 324° | 5km/h | 23578m | 5.9m/s | -53.8°C | 4.4% | 33.4hPa | 2.7V | 00:00:00 | 01:44:27 | 00:00:00 | |
| DO3MHA-11 | 2026-08-31 05:12:05 | 48.10963 | 12.18269 | 314° | 5km/h | 23563m | 5.2m/s | -53.8°C | 4.4% | 33.5hPa | 2.7V | 00:00:00 | 01:44:24 | 00:00:00 | |
| OM5KV | 2026-08-31 05:12:03 | 48.10963 | 12.18270 | 0° | 0km/h | 23558m | 5.9m/s | -53.8°C | 1.3% | 33.6hPa | 2.7V | 01:57:00 | 00:00:00 | 00:00:00 | |
| OM5KV | 2026-08-31 05:12:02 | 48.10963 | 12.18270 | 153° | 2km/h | 23553m | 4.7m/s | -53.8°C | 1.3% | 33.6hPa | 2.7V | 01:57:00 | 00:00:00 | 00:00:00 | |
| DM0DOS-11 | 2026-08-31 05:12:01 | 48.10962 | 12.18270 | 343° | 7km/h | 23537m | 4.7m/s | -53.8°C | 4.4% | 33.7hPa | 2.7V | 01:56:27 | 01:44:19 | 00:00:00 | |
| DL6DJ-15 | 2026-08-31 05:11:59 | 48.10958 | 12.18273 | 336° | 7km/h | 23526m | 5.0m/s | -53.8°C | 1.3% | 33.7hPa | 2.6V | 00:00:00 | 00:00:00 | 00:00:00 | |
| OE5MMP-10 | 2026-08-31 05:11:58 | 48.10958 | 12.18273 | 337° | 11km/h | 23526m | 5.0m/s | -53.8°C | 4.5% | 33.7hPa | 2.6V | 01:56:00 | 01:44:17 | 00:00:00 | |
| OM5KV | 2026-08-31 05:11:57 | 48.10958 | 12.18273 | 337° | 9km/h | 23526m | 5.0m/s | -53.8°C | 1.3% | 33.7hPa | 2.6V | 01:57:00 | 00:00:00 | 00:00:00 | |
| OM5KV | 2026-08-31 05:11:56 | 48.10955 | 12.18274 | 335° | 11km/h | 23521m | 4.6m/s | -53.8°C | 1.3% | 33.8hPa | 2.6V | 01:57:00 | 00:00:00 | 00:00:00 | |
| DM0DOS-11 | 2026-08-31 05:11:55 | 48.10940 | 12.18295 | 303° | 9km/h | 23485m | 5.8m/s | -53.6°C | 4.4% | 34hPa | 2.6V | 01:56:37 | 01:44:09 | 00:00:00 | |
| OE5WHR-10 | 2026-08-31 05:11:55 | 48.10949 | 12.18279 | 328° | 9km/h | 23510m | 4.6m/s | -53.7°C | 4.5% | 33.8hPa | 2.7V | 00:00:00 | 01:44:14 | 00:00:00 | |
| PG1ADW-2 | 2026-08-31 05:11:52 | 48.10942 | 12.18289 | 298° | 9km/h | 23495m | 4.3m/s | -53.7°C | 4.4% | 33.9hPa | 2.7V | 01:56:00 | 01:44:11 | 00:00:00 | |
| DO3MHA-12 | 2026-08-31 05:11:51 | 48.10941 | 12.18292 | 296° | 9km/h | 23491m | 5.2m/s | -53.6°C | 4.4% | 33.9hPa | 2.7V | 01:56:00 | 01:44:10 | 00:00:00 | |
| OM5KV | 2026-08-31 05:11:50 | 48.10941 | 12.18292 | 297° | 9km/h | 23491m | 5.2m/s | -53.7°C | 1.3% | 33.9hPa | 2.6V | 01:57:00 | 00:00:00 | 00:00:00 | |
| OE5MMP-10 | 2026-08-31 05:11:48 | 48.10937 | 12.18301 | 305° | 9km/h | 23475m | 4.6m/s | -53.6°C | 4.4% | 33.9hPa | 2.6V | 00:00:00 | 01:44:07 | 00:00:00 | |
| DK5PH-5 | 2026-08-31 05:11:46 | 48.10936 | 12.18306 | 277° | 7km/h | 23464m | 5.0m/s | -53.6°C | 4.4% | 34.0hPa | 2.7V | 00:00:00 | 01:44:05 | 00:00:00 | |
| DO3MHA-11 | 2026-08-31 05:11:45 | 48.10935 | 12.18310 | 283° | 9km/h | 23459m | 4.0m/s | -53.6°C | 4.4% | 34.1hPa | 2.6V | 00:00:00 | 01:44:04 | 00:00:00 | |
| NBG1-10 | 2026-08-31 05:11:44 | 48.10935 | 12.18312 | 298° | 7km/h | 23455m | 4.5m/s | -53.6°C | 4.4% | 34.1hPa | 2.6V | 00:00:00 | 01:44:03 | 00:00:00 | |
| DL1ZP-14 | 2026-08-31 05:11:42 | 48.10931 | 12.18317 | 336° | 11km/h | 23444m | 4.6m/s | -53.6°C | 1.2% | 34.2hPa | 2.7V | 00:00:00 | 00:00:00 | 00:00:00 | |
| DM0DOS-11 | 2026-08-31 05:11:41 | 48.10925 | 12.18320 | 332° | 11km/h | 23435m | 5.5m/s | -53.7°C | 4.4% | 34.2hPa | 2.7V | 01:56:47 | 01:43:59 | 00:00:00 | |
| DO3MHA-12 | 2026-08-31 05:11:41 | 48.10928 | 12.18319 | 341° | 9km/h | 23440m | 4.0m/s | -53.6°C | 4.4% | 34.2hPa | 2.6V | 00:00:00 | 01:44:00 | 00:00:00 | |
| DF1GD-15 | 2026-08-31 05:11:40 | 48.10928 | 12.18319 | 341° | 13km/h | 23440m | 4.1m/s | -53.7°C | 1.3% | 34.2hPa | 2.6V | 01:57:00 | 00:00:00 | 00:00:00 | |
| DB0UT-7 | 2026-08-31 05:11:39 | 48.10923 | 12.18322 | 323° | 7km/h | 23430m | 5.1m/s | -53.6°C | 4.4% | 34.2hPa | 2.6V | 01:56:00 | 01:43:58 | 00:00:00 | |
| OE5MMP-10 | 2026-08-31 05:11:38 | 48.10921 | 12.18324 | 307° | 9km/h | 23425m | 4.2m/s | -53.6°C | 4.4% | 34.2hPa | 2.6V | 01:56:00 | 01:43:57 | 00:00:00 | |
| OE5REO-15 | 2026-08-31 05:11:36 | 48.10921 | 12.18326 | 304° | 4km/h | 23421m | 4.7m/s | -53.7°C | 1.3% | 34.3hPa | 2.6V | 01:57:00 | 00:00:00 | 00:00:00 | |
| DM0DOS-11 | 2026-08-31 05:11:35 | 48.10912 | 12.18345 | 301° | 11km/h | 23385m | 5.8m/s | -53.8°C | 4.5% | 34.5hPa | 2.6V | 01:56:57 | 01:43:49 | 00:00:00 | |
| DO3MHA-11 | 2026-08-31 05:11:35 | 48.10919 | 12.18329 | 323° | 9km/h | 23410m | 4.7m/s | -53.7°C | 4.4% | 34.3hPa | 2.7V | 01:56:00 | 01:43:54 | 00:00:00 | |
| OE5WHR-10 | 2026-08-31 05:11:34 | 48.10917 | 12.18330 | 317° | 7km/h | 23406m | 4.7m/s | -53.8°C | 4.4% | 34.3hPa | 2.7V | 01:56:00 | 00:00:00 | 00:00:00 | |
| DF7PN | 2026-08-31 05:11:33 | 48.10915 | 12.18337 | 290° | 11km/h | 23395m | 5.2m/s | -53.8°C | 1.3% | 34.4hPa | 2.7V | 00:00:00 | 00:00:00 | 00:00:00 | |
| PG1ADW-2 | 2026-08-31 05:11:32 | 48.10915 | 12.18337 | 291° | 7km/h | 23395m | 5.1m/s | -53.8°C | 4.6% | 34.4hPa | 2.7V | 00:00:00 | 00:00:00 | 00:00:00 | |
| DO3MHA-12 | 2026-08-31 05:11:31 | 48.10914 | 12.18341 | 293° | 7km/h | 23390m | 4.2m/s | -53.8°C | 4.5% | 34.4hPa | 2.7V | 01:56:00 | 01:43:50 | 00:00:00 | |
| DF3TZ-5 | 2026-08-31 05:11:30 | 48.10912 | 12.18345 | 301° | 9km/h | 23385m | 5.8m/s | -53.8°C | 1.3% | 34.5hPa | 2.7V | 00:00:00 | 00:00:00 | 00:00:00 | |
| OE5DXL-15 | 2026-08-31 05:11:29 | 48.10911 | 12.18348 | 318° | 5km/h | 23380m | 4.9m/s | -53.8°C | 4.5% | 34.5hPa | 2.7V | 00:00:00 | 00:00:00 | 00:00:00 | |
| DL6DJ-15 | 2026-08-31 05:11:28 | 48.10908 | 12.18352 | 314° | 7km/h | 23371m | 5.9m/s | -53.8°C | 1.3% | 34.6hPa | 2.6V | 00:00:00 | 00:00:00 | 00:00:00 | |
| OE5DRO-10 | 2026-08-31 05:11:27 | 48.10908 | 12.18352 | 315° | 5km/h | 23371m | 5.8m/s | -53.7°C | 4.5% | 34.6hPa | 2.6V | 01:57:00 | 00:00:00 | 00:00:00 | |
| DO3MHA-11 | 2026-08-31 05:11:25 | 48.10906 | 12.18356 | 295° | 5km/h | 23360m | 4.5m/s | -53.7°C | 4.5% | 34.6hPa | 2.6V | 00:00:00 | 01:43:44 | 00:00:00 | |
| OM5KV | 2026-08-31 05:11:23 | 48.10905 | 12.18357 | 318° | 4km/h | 23355m | 6.1m/s | -53.7°C | 1.3% | 34.7hPa | 2.6V | 01:57:00 | 00:00:00 | 00:00:00 | |
| OM5KV | 2026-08-31 05:11:22 | 48.10905 | 12.18357 | 334° | 2km/h | 23350m | 4.6m/s | -53.7°C | 1.3% | 34.7hPa | 2.6V | 01:57:00 | 00:00:00 | 00:00:00 | |
| DM0DOS-11 | 2026-08-31 05:11:21 | 48.10905 | 12.18361 | 253° | 7km/h | 23334m | 4.3m/s | -53.6°C | 4.5% | 34.8hPa | 2.6V | 01:57:07 | 01:43:39 | 00:00:00 | |
| DO3MHA-12 | 2026-08-31 05:11:21 | 48.10905 | 12.18359 | 258° | 7km/h | 23340m | 6.1m/s | -53.6°C | 4.5% | 34.7hPa | 2.6V | 00:00:00 | 01:43:40 | 00:00:00 | |
| DF1GD-15 | 2026-08-31 05:11:20 | 48.10905 | 12.18359 | 259° | 4km/h | 23340m | 6.2m/s | -53.7°C | 1.3% | 34.7hPa | 2.6V | 01:57:00 | 00:00:00 | 00:00:00 | |
| OE5MMP-10 | 2026-08-31 05:11:18 | 48.10906 | 12.18368 | 261° | 5km/h | 23325m | 5.6m/s | -53.6°C | 4.4% | 34.8hPa | 2.6V | 01:57:00 | 01:43:37 | 00:00:00 | |
| OM5KV | 2026-08-31 05:11:17 | 48.10906 | 12.18368 | 261° | 9km/h | 23325m | 5.7m/s | -53.6°C | 1.3% | 34.8hPa | 2.7V | 01:57:00 | 00:00:00 | 00:00:00 | |
| DK5PH-5 | 2026-08-31 05:11:16 | 48.10906 | 12.18374 | 270° | 7km/h | 23315m | 4.4m/s | -53.5°C | 4.5% | 34.8hPa | 2.7V | 01:57:00 | 01:43:35 | 00:00:00 | |
| DM0DOS-11 | 2026-08-31 05:11:15 | 48.10907 | 12.18387 | 337° | 4km/h | 23283m | 4.4m/s | -53.5°C | 4.5% | 35hPa | 2.7V | 01:57:17 | 01:43:29 | 00:00:00 | |
| DO3MHA-11 | 2026-08-31 05:11:15 | 48.10906 | 12.18377 | 259° | 5km/h | 23310m | 5.1m/s | -53.5°C | 4.4% | 34.8hPa | 2.7V | 01:57:00 | 01:43:34 | 00:00:00 | |
| OE5WHR-10 | 2026-08-31 05:11:13 | 48.10908 | 12.18382 | 250° | 5km/h | 23300m | 4.6m/s | -53.6°C | 4.5% | 34.9hPa | 2.6V | 00:00:00 | 00:00:00 | 00:00:00 | |
| PG1ADW-2 | 2026-08-31 05:11:12 | 48.10908 | 12.18385 | 265° | 5km/h | 23295m | 6.0m/s | -53.5°C | 4.4% | 34.9hPa | 2.6V | 01:57:00 | 00:00:00 | 00:00:00 | |
| DO3MHA-12 | 2026-08-31 05:11:11 | 48.10908 | 12.18386 | 314° | 4km/h | 23289m | 5.4m/s | -53.5°C | 4.5% | 35.0hPa | 2.6V | 01:57:00 | 01:43:30 | 00:00:00 | |
| DB0UT-7 | 2026-08-31 05:11:09 | 48.10906 | 12.18388 | 330° | 9km/h | 23279m | 4.4m/s | -53.4°C | 4.4% | 35.0hPa | 2.6V | 00:00:00 | 00:00:00 | 00:00:00 | |
| SONDE2-11 | 2026-08-31 05:11:08 | 48.10906 | 12.18390 | 268° | 4km/h | 23269m | 4.7m/s | -53.5°C | 1.3% | 35.1hPa | 2.6V | 00:00:00 | 00:00:00 | 00:00:00 | |
| DH7VM-15 | 2026-08-31 05:11:07 | 48.10906 | 12.18390 | 270° | 4km/h | 23269m | 4.7m/s | -53.5°C | 1.3% | 35.1hPa | 2.6V | 00:00:00 | 00:00:00 | 00:00:00 | |
| OM5KV | 2026-08-31 05:11:06 | 48.10906 | 12.18390 | 270° | 4km/h | 23269m | 4.7m/s | -53.5°C | 1.3% | 35.1hPa | 2.6V | 01:57:00 | 00:00:00 | 00:00:00 | |
| DM0DOS-11 | 2026-08-31 05:11:05 | 48.10908 | 12.18401 | 130° | 0km/h | 23233m | 6m/s | -53.4°C | 4.4% | 35.3hPa | 2.6V | 01:57:27 | 01:43:19 | 00:00:00 | |
| DO3MHA-11 | 2026-08-31 05:11:05 | 48.10906 | 12.18393 | 284° | 5km/h | 23258m | 5.2m/s | -53.4°C | 4.4% | 35.1hPa | 2.6V | 00:00:00 | 01:43:24 | 00:00:00 | |
| DG1MJG | 2026-08-31 05:11:02 | 48.10906 | 12.18397 | 249° | 7km/h | 23248m | 6.1m/s | -53.4°C | 1.3% | 35.2hPa | 2.6V | 01:57:00 | 00:00:00 | 00:00:00 | |
| OM5KV | 2026-08-31 05:11:01 | 48.10906 | 12.18399 | 239° | 5km/h | 23243m | 4.2m/s | -53.4°C | 1.3% | 35.3hPa | 2.6V | 01:57:00 | 00:00:00 | 00:00:00 | |
| DF3TZ-5 | 2026-08-31 05:10:59 | 48.10907 | 12.18398 | 60° | 7km/h | 23224m | 4.0m/s | -53.3°C | 1.3% | 35.4hPa | 2.6V | 00:00:00 | 00:00:00 | 00:00:00 | |
| DL6DJ-15 | 2026-08-31 05:10:57 | 48.10905 | 12.18393 | 67° | 5km/h | 23214m | 5.0m/s | -53.3°C | 1.2% | 35.4hPa | 2.6V | 00:00:00 | 00:00:00 | 00:00:00 | |
| DM0DOS-11 | 2026-08-31 05:10:55 | 48.10894 | 12.18387 | 338° | 11km/h | 23183m | 5.1m/s | -53.3°C | 4.3% | 35.6hPa | 2.6V | 01:57:37 | 01:43:09 | 00:00:00 | |
| DO3MHA-11 | 2026-08-31 05:10:55 | 48.10904 | 12.18391 | 59° | 11km/h | 23209m | 4.3m/s | -53.2°C | 4.3% | 35.4hPa | 2.7V | 01:57:00 | 01:43:14 | 00:00:00 | |
| OM5KV | 2026-08-31 05:10:54 | 48.10904 | 12.18391 | 60° | 5km/h | 23209m | 4.3m/s | -53.3°C | 1.3% | 35.5hPa | 2.7V | 01:57:00 | 00:00:00 | 00:00:00 | |
| PG1ADW-2 | 2026-08-31 05:10:52 | 48.10899 | 12.18386 | 10° | 15km/h | 23194m | 4.4m/s | -53.2°C | 4.3% | 35.5hPa | 2.7V | 00:00:00 | 00:00:00 | 00:00:00 | |
| DO3MHA-12 | 2026-08-31 05:10:51 | 48.10896 | 12.18386 | 355° | 11km/h | 23189m | 5.8m/s | -53.2°C | 4.2% | 35.5hPa | 2.6V | 01:57:00 | 01:43:10 | 00:00:00 | |
| OE5DRO-10 | 2026-08-31 05:10:49 | 48.10891 | 12.18389 | 337° | 15km/h | 23178m | 4.7m/s | -53.3°C | 4.3% | 35.6hPa | 2.6V | 01:57:00 | 00:00:00 | 00:00:00 | |
| OE5MMP-10 | 2026-08-31 05:10:48 | 48.10888 | 12.18390 | 343° | 13km/h | 23173m | 5.9m/s | -53.3°C | 4.3% | 35.6hPa | 2.7V | 00:00:00 | 01:43:07 | 00:00:00 | |
| BAUMI2-15 | 2026-08-31 05:10:46 | 48.10882 | 12.18392 | 356° | 11km/h | 23162m | 5.2m/s | -53.4°C | 4.3% | 35.6hPa | 2.7V | 00:00:00 | 01:43:05 | 00:00:00 | |
| DM0DOS-11 | 2026-08-31 05:10:45 | 48.10865 | 12.18380 | 33° | 18km/h | 23131m | 4.8m/s | -53.5°C | 4.4% | 35.9hPa | 2.7V | 01:57:47 | 01:42:59 | 00:00:00 | |
| DO3MHA-11 | 2026-08-31 05:10:45 | 48.10879 | 12.18392 | 3° | 15km/h | 23157m | 5.5m/s | -53.4°C | 4.4% | 35.7hPa | 2.6V | 00:00:00 | 01:43:04 | 00:00:00 | |
| OM5KV | 2026-08-31 05:10:44 | 48.10880 | 12.18392 | 3° | 9km/h | 23157m | 5.5m/s | -53.4°C | 1.3% | 35.7hPa | 2.7V | 01:57:00 | 00:00:00 | 00:00:00 | |
| OM5KV | 2026-08-31 05:10:43 | 48.10877 | 12.18392 | 19° | 9km/h | 23152m | 4.3m/s | -53.5°C | 1.3% | 35.8hPa | 2.7V | 01:57:00 | 00:00:00 | 00:00:00 | |
| BAUMI2-15 | 2026-08-31 05:10:41 | 48.10868 | 12.18384 | 34° | 16km/h | 23136m | 4.4m/s | -53.5°C | 4.5% | 35.8hPa | 2.7V | 01:57:00 | 01:43:00 | 00:00:00 | |
| DL1ZP-14 | 2026-08-31 05:10:40 | 48.10861 | 12.18377 | 30° | 15km/h | 23126m | 5.6m/s | -53.5°C | 1.3% | 35.9hPa | 2.7V | 00:00:00 | 00:00:00 | 00:00:00 | |
| DB0UT-7 | 2026-08-31 05:10:39 | 48.10861 | 12.18377 | 31° | 22km/h | 23127m | 5.6m/s | -53.5°C | 4.4% | 35.9hPa | 2.7V | 01:57:00 | 01:42:58 | 00:00:00 | |
| OE5MMP-10 | 2026-08-31 05:10:38 | 48.10858 | 12.18374 | 29° | 16km/h | 23122m | 3.8m/s | -53.5°C | 4.5% | 35.9hPa | 2.7V | 01:57:00 | 01:42:57 | 00:00:00 | |
| OM5KV | 2026-08-31 05:10:37 | 48.10858 | 12.18374 | 29° | 15km/h | 23122m | 3.8m/s | -53.5°C | 1.3% | 36.0hPa | 2.7V | 01:57:00 | 00:00:00 | 00:00:00 | |
| BAUMI2-15 | 2026-08-31 05:10:36 | 48.10850 | 12.18368 | 27° | 16km/h | 23112m | 5.6m/s | -53.4°C | 4.5% | 35.9hPa | 2.7V | 00:00:00 | 01:42:55 | 00:00:00 | |
| DO3MHA-11 | 2026-08-31 05:10:35 | 48.10846 | 12.18365 | 30° | 16km/h | 23107m | 4.6m/s | -53.4°C | 4.4% | 36.0hPa | 2.7V | 01:57:00 | 01:42:54 | 00:00:00 | |
| OE5REO-15 | 2026-08-31 05:10:33 | 48.10842 | 12.18361 | 33° | 18km/h | 23103m | 4.4m/s | -53.4°C | 1.3% | 36.1hPa | 2.7V | 01:57:00 | 00:00:00 | 00:00:00 | |
| PG1ADW-2 | 2026-08-31 05:10:32 | 48.10835 | 12.18356 | 27° | 22km/h | 23092m | 5.5m/s | -53.4°C | 4.4% | 36.1hPa | 2.7V | 01:57:00 | 01:42:51 | 00:00:00 | |
| DM0DOS-11 | 2026-08-31 05:10:31 | 48.10830 | 12.18351 | 31° | 13km/h | 23083m | 5m/s | -53.5°C | 4.4% | 36.2hPa | 2.7V | 01:57:57 | 01:42:49 | 00:00:00 | |
| DF7PN | 2026-08-31 05:10:31 | 48.10830 | 12.18351 | 31° | 11km/h | 23083m | 5.0m/s | -53.5°C | 1.3% | 36.2hPa | 2.6V | 00:00:00 | 00:00:00 | 00:00:00 | |
| OE5DRO-10 | 2026-08-31 05:10:30 | 48.10830 | 12.18351 | 32° | 24km/h | 23083m | 4.9m/s | -53.4°C | 4.4% | 36.1hPa | 2.6V | 00:00:00 | 00:00:00 | 00:00:00 | |
| OE5DXL-15 | 2026-08-31 05:10:29 | 48.10827 | 12.18348 | 34° | 24km/h | 23078m | 4.9m/s | -53.4°C | 4.4% | 36.1hPa | 2.6V | 00:00:00 | 00:00:00 | 00:00:00 | |
| OE5MMP-10 | 2026-08-31 05:10:28 | 48.10823 | 12.18345 | 30° | 24km/h | 23073m | 4.1m/s | -53.4°C | 4.4% | 36.2hPa | 2.6V | 00:00:00 | 01:42:47 | 00:00:00 | |
| DL6DJ-15 | 2026-08-31 05:10:26 | 48.10808 | 12.18337 | 10° | 24km/h | 23058m | 4.2m/s | -53.6°C | 1.3% | 36.3hPa | 2.6V | 00:00:00 | 00:00:00 | 00:00:00 | |
| DM0DOS-11 | 2026-08-31 05:10:25 | 48.10777 | 12.18324 | 16° | 20km/h | 23034m | 4.9m/s | -53.7°C | 4.5% | 36.5hPa | 2.6V | 01:58:07 | 01:42:39 | 00:00:00 | |
| DO3MHA-11 | 2026-08-31 05:10:25 | 48.10808 | 12.18337 | 11° | 24km/h | 23058m | 4.1m/s | -53.5°C | 4.4% | 36.3hPa | 2.7V | 00:00:00 | 01:42:44 | 00:00:00 | |
| OE5HKT-10 | 2026-08-31 05:10:23 | 48.10795 | 12.18332 | 16° | 27km/h | 23049m | 4.9m/s | -53.6°C | 4.5% | 36.3hPa | 2.7V | 01:58:00 | 00:00:00 | 00:00:00 | |
| BAUMI2-15 | 2026-08-31 05:10:21 | 48.10782 | 12.18326 | 20° | 22km/h | 23039m | 5.0m/s | -53.6°C | 4.4% | 36.4hPa | 2.7V | 01:58:00 | 01:42:40 | 00:00:00 | |
| OM5KV | 2026-08-31 05:10:20 | 48.10782 | 12.18326 | 21° | 24km/h | 23039m | 5.0m/s | -53.7°C | 1.3% | 36.4hPa | 2.7V | 01:58:00 | 00:00:00 | 00:00:00 | |
| DG1MFX-10 | 2026-08-31 05:10:19 | 48.10777 | 12.18323 | 18° | 20km/h | 23034m | 4.9m/s | -53.7°C | 1.4% | 36.5hPa | 2.7V | 01:58:00 | 00:00:00 | 00:00:00 | |
| OE5MMP-10 | 2026-08-31 05:10:18 | 48.10767 | 12.18320 | 8° | 26km/h | 23025m | 4.7m/s | -53.6°C | 4.5% | 36.5hPa | 2.7V | 01:58:00 | 01:42:37 | 00:00:00 | |
| DM7RM-13 | 2026-08-31 05:10:17 | 48.10767 | 12.18320 | 8° | 20km/h | 23025m | 4.7m/s | -53.7°C | 1.4% | 36.5hPa | 2.7V | 00:00:00 | 00:00:00 | 00:00:00 | |
| BAUMI2-15 | 2026-08-31 05:10:16 | 48.10755 | 12.18318 | 8° | 27km/h | 23014m | 4.7m/s | -53.6°C | 4.4% | 36.5hPa | 2.7V | 00:00:00 | 01:42:35 | 00:00:00 | |
| DO3MHA-11 | 2026-08-31 05:10:15 | 48.10749 | 12.18317 | 11° | 26km/h | 23010m | 4.4m/s | -53.5°C | 4.4% | 36.6hPa | 2.7V | 01:58:00 | 01:42:34 | 00:00:00 | |
| OM5KV | 2026-08-31 05:10:14 | 48.10749 | 12.18317 | 11° | 27km/h | 23010m | 4.5m/s | -53.6°C | 1.3% | 36.6hPa | 2.7V | 01:58:00 | 00:00:00 | 00:00:00 | |
| PG1ADW-2 | 2026-08-31 05:10:12 | 48.10729 | 12.18311 | 9° | 24km/h | 22995m | 4.3m/s | -53.5°C | 4.5% | 36.6hPa | 2.7V | 00:00:00 | 00:00:00 | 00:00:00 | |
| DO3MHA-12 | 2026-08-31 05:10:11 | 48.10722 | 12.18310 | 7° | 26km/h | 22990m | 5.9m/s | -53.5°C | 4.5% | 36.6hPa | 2.7V | 01:58:00 | 01:42:30 | 00:00:00 | |
| OE5WHR-10 | 2026-08-31 05:10:10 | 48.10715 | 12.18309 | 3° | 24km/h | 22984m | 4.5m/s | -53.5°C | 4.6% | 36.7hPa | 2.7V | 01:58:00 | 00:00:00 | 00:00:00 | |
| DM0DOS-11 | 2026-08-31 05:10:09 | 48.10689 | 12.18309 | 0° | 24km/h | 22965m | 5.2m/s | -53.5°C | 4.5% | 36.9hPa | 2.7V | 01:58:21 | 01:42:25 | 00:00:00 | |
| DB0UT-7 | 2026-08-31 05:10:09 | 48.10708 | 12.18308 | 1° | 26km/h | 22979m | 5.2m/s | -53.4°C | 4.6% | 36.7hPa | 2.7V | 00:00:00 | 00:00:00 | 00:00:00 | |
| OE5MMP-10 | 2026-08-31 05:10:08 | 48.10701 | 12.18308 | 359° | 24km/h | 22974m | 5.2m/s | -53.4°C | 4.6% | 36.8hPa | 2.6V | 00:00:00 | 01:42:27 | 00:00:00 | |
| OE3JTB-15 | 2026-08-31 05:10:07 | 48.10695 | 12.18309 | 359° | 26km/h | 22969m | 3.9m/s | 0°C | 0% | 0hPa | 2.6V | 00:00:00 | 00:00:00 | 00:00:00 | |
| BAUMI2-15 | 2026-08-31 05:10:06 | 48.10689 | 12.18309 | 1° | 26km/h | 22965m | 5.2m/s | -53.4°C | 4.5% | 36.8hPa | 2.6V | 00:00:00 | 01:42:25 | 00:00:00 | |
| DO3MHA-11 | 2026-08-31 05:10:05 | 48.10683 | 12.18308 | 5° | 24km/h | 22959m | 5.6m/s | -53.4°C | 4.5% | 36.8hPa | 2.6V | 00:00:00 | 01:42:24 | 00:00:00 | |
| DB0NH | 2026-08-31 05:10:03 | 48.10669 | 12.18306 | 9° | 27km/h | 22950m | 4.2m/s | -53.5°C | 4.4% | 36.9hPa | 2.6V | 00:00:00 | 01:42:22 | 00:00:00 | |
| OM5KV | 2026-08-31 05:10:02 | 48.10669 | 12.18306 | 10° | 27km/h | 22950m | 4.2m/s | -53.5°C | 1.3% | 37.0hPa | 2.6V | 01:58:00 | 00:00:00 | 00:00:00 | |
| BAUMI2-15 | 2026-08-31 05:10:01 | 48.10657 | 12.18303 | 10° | 22km/h | 22940m | 4.9m/s | -53.5°C | 4.4% | 36.9hPa | 2.6V | 01:58:00 | 01:42:20 | 00:00:00 | |
| DG1MJG | 2026-08-31 05:10:00 | 48.10657 | 12.18303 | 10° | 22km/h | 22940m | 4.9m/s | -53.5°C | 1.3% | 37.0hPa | 2.6V | 01:58:00 | 00:00:00 | 00:00:00 | |
| DM0DOS-11 | 2026-08-31 05:09:59 | 48.10624 | 12.18305 | 345° | 22km/h | 22909m | 3.9m/s | -53.4°C | 4.5% | 37.2hPa | 2.6V | 01:58:32 | 01:42:14 | 00:00:00 | |
| DF3TZ-5 | 2026-08-31 05:09:57 | 48.10629 | 12.18304 | 349° | 20km/h | 22914m | 5.5m/s | -53.4°C | 1.3% | 37.2hPa | 2.7V | 00:00:00 | 00:00:00 | 00:00:00 | |
| DL6DJ-15 | 2026-08-31 05:09:55 | 48.10618 | 12.18308 | 343° | 22km/h | 22905m | 4.6m/s | -53.4°C | 1.3% | 37.2hPa | 2.7V | 00:00:00 | 00:00:00 | 00:00:00 | |
| OE5DRO-10 | 2026-08-31 05:09:52 | 48.10606 | 12.18313 | 346° | 29km/h | 22895m | 4.2m/s | -53.3°C | 4.5% | 37.2hPa | 2.7V | 00:00:00 | 00:00:00 | 00:00:00 | |
| DO3MHA-12 | 2026-08-31 05:09:51 | 48.10599 | 12.18315 | 349° | 27km/h | 22890m | 5.9m/s | -53.3°C | 4.5% | 37.2hPa | 2.7V | 01:58:00 | 01:42:10 | 00:00:00 | |
| OM5KV | 2026-08-31 05:09:50 | 48.10599 | 12.18315 | 349° | 26km/h | 22890m | 5.9m/s | -53.4°C | 1.4% | 37.3hPa | 2.6V | 01:58:00 | 00:00:00 | 00:00:00 | |
| DM0DOS-11 | 2026-08-31 05:09:49 | 48.10559 | 12.18311 | 12° | 27km/h | 22859m | 5.5m/s | -53.4°C | 4.6% | 37.4hPa | 2.6V | 01:58:42 | 01:42:04 | 00:00:00 | |
| OE5WHR-10 | 2026-08-31 05:09:49 | 48.10587 | 12.18317 | 2° | 31km/h | 22880m | 4.3m/s | -53.4°C | 4.6% | 37.3hPa | 2.7V | 00:00:00 | 01:42:08 | 00:00:00 | |
| OE5MMP-10 | 2026-08-31 05:09:48 | 48.10580 | 12.18316 | 6° | 27km/h | 22875m | 5.8m/s | -53.4°C | 4.6% | 37.3hPa | 2.7V | 00:00:00 | 01:42:07 | 00:00:00 | |
| DK5PH-5 | 2026-08-31 05:09:47 | 48.10573 | 12.18315 | 9° | 31km/h | 22869m | 4.5m/s | -53.4°C | 4.6% | 37.3hPa | 2.7V | 01:58:00 | 01:42:06 | 00:00:00 | |
| BAUMI2-15 | 2026-08-31 05:09:46 | 48.10566 | 12.18313 | 11° | 27km/h | 22865m | 4.6m/s | -53.4°C | 4.6% | 37.4hPa | 2.6V | 00:00:00 | 01:42:05 | 00:00:00 | |
| DO3MHA-11 | 2026-08-31 05:09:45 | 48.10559 | 12.18311 | 13° | 29km/h | 22860m | 5.4m/s | -53.4°C | 4.6% | 37.4hPa | 2.6V | 00:00:00 | 01:42:04 | 00:00:00 | |
| OM5KV | 2026-08-31 05:09:44 | 48.10559 | 12.18311 | 14° | 27km/h | 22860m | 5.5m/s | -53.4°C | 1.4% | 37.4hPa | 2.6V | 01:58:00 | 00:00:00 | 00:00:00 | |
| DO3MHA-12 | 2026-08-31 05:09:41 | 48.10532 | 12.18303 | 6° | 33km/h | 22842m | 3.8m/s | -53.4°C | 4.4% | 37.5hPa | 2.6V | 00:00:00 | 01:42:00 | 00:00:00 | |
| OM5KV | 2026-08-31 05:09:40 | 48.10532 | 12.18303 | 7° | 31km/h | 22842m | 3.9m/s | -53.4°C | 1.3% | 37.5hPa | 2.6V | 01:58:00 | 00:00:00 | 00:00:00 | |
| DB0UT-7 | 2026-08-31 05:09:39 | 48.10517 | 12.18303 | 358° | 31km/h | 22832m | 5.2m/s | -53.4°C | 4.4% | 37.5hPa | 2.6V | 01:58:00 | 01:41:58 | 00:00:00 | |
| OE5MMP-10 | 2026-08-31 05:09:38 | 48.10510 | 12.18303 | 356° | 33km/h | 22827m | 4.7m/s | -53.4°C | 4.4% | 37.6hPa | 2.6V | 01:58:00 | 01:41:57 | 00:00:00 | |
| BAUMI2-15 | 2026-08-31 05:09:36 | 48.10494 | 12.18305 | 357° | 37km/h | 22816m | 5.2m/s | -53.4°C | 4.5% | 37.6hPa | 2.6V | 00:00:00 | 01:41:55 | 00:00:00 | |
| DO3MHA-11 | 2026-08-31 05:09:35 | 48.10485 | 12.18306 | 358° | 33km/h | 22812m | 4.1m/s | -53.4°C | 4.5% | 37.7hPa | 2.6V | 01:58:00 | 01:41:54 | 00:00:00 | |
| SONDE2-11 | 2026-08-31 05:09:34 | 48.10476 | 12.18306 | 358° | 37km/h | 22808m | 4.2m/s | -53.4°C | 1.3% | 37.8hPa | 2.6V | 00:00:00 | 00:00:00 | 00:00:00 | |
| DB0NH | 2026-08-31 05:09:33 | 48.10466 | 12.18306 | 358° | 29km/h | 22802m | 5.7m/s | -53.4°C | 4.4% | 37.8hPa | 2.6V | 01:58:00 | 01:41:52 | 00:00:00 | |
| NBG1-10 | 2026-08-31 05:09:32 | 48.10458 | 12.18307 | 357° | 29km/h | 22797m | 4.5m/s | -53.4°C | 4.4% | 37.8hPa | 2.6V | 00:00:00 | 01:41:51 | 00:00:00 | |
| DO3MHA-12 | 2026-08-31 05:09:31 | 48.10449 | 12.18308 | 357° | 29km/h | 22793m | 4.6m/s | -53.3°C | 4.4% | 37.8hPa | 2.6V | 01:58:00 | 01:41:50 | 00:00:00 | |
| OE5DXL-15 | 2026-08-31 05:09:29 | 48.10433 | 12.18310 | 355° | 29km/h | 22783m | 4.4m/s | -53.3°C | 4.4% | 37.9hPa | 2.6V | 00:00:00 | 00:00:00 | 00:00:00 | |
| OE5MMP-10 | 2026-08-31 05:09:28 | 48.10425 | 12.18311 | 353° | 29km/h | 22778m | 5.1m/s | -53.3°C | 4.4% | 37.9hPa | 2.6V | 00:00:00 | 01:41:47 | 00:00:00 | |
| OM5KV | 2026-08-31 05:09:27 | 48.10425 | 12.18311 | 353° | 31km/h | 22778m | 5.1m/s | -53.3°C | 1.3% | 37.9hPa | 2.6V | 01:59:00 | 00:00:00 | 00:00:00 | |
| DF3TZ-5 | 2026-08-31 05:09:26 | 48.10405 | 12.18319 | 343° | 26km/h | 22762m | 5.6m/s | -53.3°C | 1.3% | 38.0hPa | 2.6V | 00:00:00 | 00:00:00 | 00:00:00 | |
| DO3MHA-11 | 2026-08-31 05:09:25 | 48.10405 | 12.18319 | 344° | 29km/h | 22762m | 5.5m/s | -53.3°C | 4.5% | 38.0hPa | 2.6V | 00:00:00 | 01:41:44 | 00:00:00 | |
| OM5KV | 2026-08-31 05:09:24 | 48.10405 | 12.18319 | 344° | 27km/h | 22762m | 5.6m/s | -53.3°C | 1.3% | 38.0hPa | 2.6V | 01:59:00 | 00:00:00 | 00:00:00 | |
| DL6DJ-15 | 2026-08-31 05:09:23 | 48.10391 | 12.18324 | 346° | 27km/h | 22752m | 4.3m/s | -53.3°C | 1.2% | 38.1hPa | 2.6V | 00:00:00 | 00:00:00 | 00:00:00 | |
| DO3MHA-12 | 2026-08-31 05:09:21 | 48.10377 | 12.18329 | 347° | 31km/h | 22742m | 4.7m/s | -53.3°C | 4.3% | 38.1hPa | 2.6V | 00:00:00 | 01:41:40 | 00:00:00 | |
| BAUMI2-15 | 2026-08-31 05:09:20 | 48.10370 | 12.18331 | 350° | 33km/h | 22737m | 5.0m/s | -53.2°C | 4.3% | 38.1hPa | 2.7V | 01:59:00 | 01:41:39 | 00:00:00 | |
| DM0DOS-11 | 2026-08-31 05:09:19 | 48.10354 | 12.18335 | 354° | 33km/h | 22726m | 3.9m/s | -53.3°C | 4.4% | 38.2hPa | 2.7V | 01:59:09 | 01:41:37 | 00:00:00 | |
| OE3JTB-15 | 2026-08-31 05:09:19 | 48.10362 | 12.18333 | 353° | 27km/h | 22731m | 5.7m/s | 0°C | 0% | 0hPa | 2.7V | 01:59:00 | 00:00:00 | 00:00:00 | |
| OE5MMP-10 | 2026-08-31 05:09:18 | 48.10354 | 12.18334 | 355° | 29km/h | 22726m | 3.8m/s | -53.3°C | 4.4% | 38.2hPa | 2.7V | 01:59:00 | 01:41:37 | 00:00:00 | |
| DK5PH-5 | 2026-08-31 05:09:17 | 48.10345 | 12.18336 | 354° | 26km/h | 22723m | 4.2m/s | -53.3°C | 4.4% | 38.2hPa | 2.6V | 00:00:00 | 01:41:36 | 00:00:00 | |
| DO3MHA-11 | 2026-08-31 05:09:15 | 48.10330 | 12.18340 | 343° | 27km/h | 22712m | 4.6m/s | -53.3°C | 4.5% | 38.3hPa | 2.6V | 01:59:00 | 01:41:34 | 00:00:00 | |
| OE5DRO-10 | 2026-08-31 05:09:14 | 48.10324 | 12.18344 | 339° | 27km/h | 22707m | 4.9m/s | -53.3°C | 4.5% | 38.3hPa | 2.6V | 00:00:00 | 00:00:00 | 00:00:00 | |
| OE5REO-15 | 2026-08-31 05:09:13 | 48.10324 | 12.18344 | 339° | 27km/h | 22707m | 5.0m/s | -53.4°C | 1.3% | 38.4hPa | 2.6V | 01:59:00 | 00:00:00 | 00:00:00 | |
| PG1ADW-2 | 2026-08-31 05:09:12 | 48.10311 | 12.18353 | 334° | 26km/h | 22697m | 4.3m/s | -53.3°C | 4.5% | 38.4hPa | 2.6V | 01:59:00 | 01:41:31 | 00:00:00 | |
| DO3MHA-12 | 2026-08-31 05:09:11 | 48.10304 | 12.18358 | 330° | 27km/h | 22693m | 4.6m/s | -53.3°C | 4.5% | 38.4hPa | 2.6V | 01:59:00 | 01:41:30 | 00:00:00 | |
| BAUMI2-15 | 2026-08-31 05:09:10 | 48.10299 | 12.18364 | 325° | 27km/h | 22687m | 6.4m/s | -53.4°C | 4.5% | 38.4hPa | 2.6V | 01:59:00 | 01:41:29 | 00:00:00 | |
| DB0UT-7 | 2026-08-31 05:09:09 | 48.10293 | 12.18369 | 323° | 24km/h | 22681m | 4.8m/s | -53.4°C | 4.6% | 38.4hPa | 2.7V | 00:00:00 | 00:00:00 | 00:00:00 | |
| OE5MMP-10 | 2026-08-31 05:09:08 | 48.10288 | 12.18375 | 328° | 27km/h | 22677m | 4.6m/s | -53.4°C | 4.5% | 38.5hPa | 2.7V | 00:00:00 | 01:41:27 | 00:00:00 | |
| OE5WHR-10 | 2026-08-31 05:09:07 | 48.10282 | 12.18380 | 335° | 26km/h | 22672m | 5.4m/s | -53.4°C | 4.5% | 38.5hPa | 2.7V | 00:00:00 | 00:00:00 | 00:00:00 | |
| DO3MHA-11 | 2026-08-31 05:09:05 | 48.10268 | 12.18387 | 346° | 26km/h | 22662m | 4.6m/s | -53.3°C | 4.4% | 38.6hPa | 2.7V | 00:00:00 | 01:41:24 | 00:00:00 | |
| OM5KV | 2026-08-31 05:09:04 | 48.10268 | 12.18388 | 347° | 29km/h | 22662m | 4.7m/s | -53.3°C | 1.3% | 38.6hPa | 2.7V | 01:59:00 | 00:00:00 | 00:00:00 | |
| DB0NH | 2026-08-31 05:09:03 | 48.10255 | 12.18392 | 346° | 24km/h | 22652m | 5.1m/s | -53.2°C | 4.4% | 38.6hPa | 2.7V | 00:00:00 | 01:41:22 | 00:00:00 | |
| OE5HKT-10 | 2026-08-31 05:09:02 | 48.10248 | 12.18395 | 346° | 24km/h | 22647m | 4.5m/s | -53.2°C | 4.4% | 38.7hPa | 2.7V | 01:59:00 | 00:00:00 | 00:00:00 | |
| DO3MHA-12 | 2026-08-31 05:09:01 | 48.10242 | 12.18397 | 345° | 24km/h | 22641m | 5.5m/s | -53.2°C | 4.5% | 38.7hPa | 2.6V | 00:00:00 | 01:41:20 | 00:00:00 | |
| BAUMI2-15 | 2026-08-31 05:09:00 | 48.10236 | 12.18401 | 338° | 26km/h | 22637m | 3.8m/s | -53.2°C | 4.5% | 38.7hPa | 2.6V | 01:59:00 | 01:41:19 | 00:00:00 | |
| OE5DXL-15 | 2026-08-31 05:08:59 | 48.10230 | 12.18405 | 331° | 22km/h | 22633m | 4.4m/s | -53.2°C | 4.5% | 38.8hPa | 2.6V | 01:59:00 | 00:00:00 | 00:00:00 | |
| DM0DOS-11 | 2026-08-31 05:08:58 | 48.10204 | 12.18442 | 316° | 22km/h | 22601m | 5.7m/s | -53.1°C | 4.4% | 39hPa | 2.6V | 01:59:34 | 01:41:12 | 00:00:00 | |
| DF7PN | 2026-08-31 05:08:57 | 48.10220 | 12.18417 | 311° | 22km/h | 22622m | 5.4m/s | -53.2°C | 1.4% | 38.8hPa | 2.6V | 00:00:00 | 00:00:00 | 00:00:00 | |
| OM5KV | 2026-08-31 05:08:56 | 48.10220 | 12.18417 | 312° | 24km/h | 22622m | 5.4m/s | -53.2°C | 1.4% | 38.8hPa | 2.6V | 01:59:00 | 00:00:00 | 00:00:00 | |
| DO3MHA-11 | 2026-08-31 05:08:55 | 48.10212 | 12.18430 | 313° | 22km/h | 22611m | 5.3m/s | -53.1°C | 4.5% | 38.9hPa | 2.6V | 01:59:00 | 01:41:14 | 00:00:00 | |
| DF1GD-15 | 2026-08-31 05:08:54 | 48.10212 | 12.18430 | 314° | 24km/h | 22611m | 5.3m/s | -53.1°C | 1.4% | 38.9hPa | 2.6V | 01:59:00 | 00:00:00 | 00:00:00 | |
| PG1ADW-2 | 2026-08-31 05:08:52 | 48.10200 | 12.18447 | 320° | 22km/h | 22595m | 5.1m/s | -53.1°C | 4.4% | 39.0hPa | 2.6V | 00:00:00 | 00:00:00 | 00:00:00 | |
| DO3MHA-12 | 2026-08-31 05:08:51 | 48.10196 | 12.18452 | 329° | 22km/h | 22590m | 5.0m/s | -53.1°C | 4.5% | 39.0hPa | 2.7V | 01:59:00 | 01:41:10 | 00:00:00 | |
| OM5KV | 2026-08-31 05:08:49 | 48.10191 | 12.18456 | 339° | 24km/h | 22585m | 6.2m/s | -53.2°C | 1.4% | 39.1hPa | 2.6V | 01:59:00 | 00:00:00 | 00:00:00 | |
| OE5MMP-10 | 2026-08-31 05:08:48 | 48.10179 | 12.18461 | 346° | 22km/h | 22575m | 3.8m/s | -53.1°C | 4.4% | 39.1hPa | 2.6V | 00:00:00 | 01:41:07 | 00:00:00 | |
| DK5PH-5 | 2026-08-31 05:08:47 | 48.10173 | 12.18464 | 342° | 24km/h | 22570m | 5.4m/s | -53.1°C | 4.4% | 39.1hPa | 2.7V | 01:59:00 | 01:41:06 | 00:00:00 | |
| OE5WHR-10 | 2026-08-31 05:08:46 | 48.10168 | 12.18467 | 332° | 24km/h | 22565m | 5.1m/s | -53.0°C | 4.4% | 39.2hPa | 2.7V | 01:59:00 | 01:41:05 | 00:00:00 | |
| OM5KV | 2026-08-31 05:08:43 | 48.10161 | 12.18477 | 311° | 20km/h | 22555m | 5.2m/s | -53.2°C | 1.3% | 39.3hPa | 2.7V | 02:00:00 | 00:00:00 | 00:00:00 | |
| OE5REO-15 | 2026-08-31 05:08:42 | 48.10157 | 12.18483 | 308° | 22km/h | 22549m | 5.5m/s | -53.1°C | 1.3% | 39.3hPa | 2.7V | 02:00:00 | 00:00:00 | 00:00:00 | |
| DO3MHA-12 | 2026-08-31 05:08:41 | 48.10151 | 12.18497 | 299° | 22km/h | 22538m | 6.3m/s | -53.1°C | 4.4% | 39.3hPa | 2.7V | 00:00:00 | 01:41:00 | 00:00:00 | |
| DB0UT-7 | 2026-08-31 05:08:39 | 48.10145 | 12.18512 | 306° | 26km/h | 22528m | 4.4m/s | -53.1°C | 4.5% | 39.4hPa | 2.7V | 01:59:00 | 01:40:58 | 00:00:00 | |
| OE5MMP-10 | 2026-08-31 05:08:38 | 48.10142 | 12.18518 | 316° | 24km/h | 22523m | 5.6m/s | -53.1°C | 4.5% | 39.4hPa | 2.6V | 01:59:00 | 01:40:57 | 00:00:00 | |
| OE5DRO-10 | 2026-08-31 05:08:36 | 48.10132 | 12.18529 | 327° | 26km/h | 22515m | 4.1m/s | -53.1°C | 4.5% | 39.5hPa | 2.6V | 00:00:00 | 00:00:00 | 00:00:00 | |
| DO3MHA-11 | 2026-08-31 05:08:35 | 48.10127 | 12.18534 | 325° | 26km/h | 22509m | 5.8m/s | -53.0°C | 4.4% | 39.5hPa | 2.6V | 01:59:00 | 01:40:54 | 00:00:00 | |
| DB0NH | 2026-08-31 05:08:33 | 48.10119 | 12.18545 | 314° | 26km/h | 22499m | 4.8m/s | -53.0°C | 4.4% | 39.6hPa | 2.6V | 01:59:00 | 01:40:52 | 00:00:00 | |
| PG1ADW-2 | 2026-08-31 05:08:32 | 48.10115 | 12.18551 | 310° | 26km/h | 22494m | 5.1m/s | -53.0°C | 4.4% | 39.6hPa | 2.6V | 01:59:00 | 00:00:00 | 00:00:00 | |
| DO3MHA-12 | 2026-08-31 05:08:31 | 48.10111 | 12.18558 | 312° | 27km/h | 22488m | 5.9m/s | -53.0°C | 4.4% | 39.7hPa | 2.6V | 01:59:00 | 01:40:50 | 00:00:00 | |
| OE5DXL-15 | 2026-08-31 05:08:29 | 48.10103 | 12.18572 | 308° | 26km/h | 22478m | 4.4m/s | -53.0°C | 4.5% | 39.7hPa | 2.6V | 00:00:00 | 00:00:00 | 00:00:00 | |
| OM5KV | 2026-08-31 05:08:27 | 48.10099 | 12.18580 | 302° | 27km/h | 22473m | 6.0m/s | -53.0°C | 1.4% | 39.8hPa | 2.7V | 02:00:00 | 00:00:00 | 00:00:00 | |
| OE5MMP-10 | 2026-08-31 05:08:26 | 48.10093 | 12.18599 | 299° | 27km/h | 22463m | 5.4m/s | -52.9°C | 4.5% | 39.8hPa | 2.7V | 00:00:00 | 01:40:45 | 00:00:00 | |
| DM0DOS-11 | 2026-08-31 05:08:25 | 48.10068 | 12.18652 | 309° | 24km/h | 22431m | 5.3m/s | -53°C | 4.4% | 40hPa | 2.7V | 02:00:07 | 01:40:39 | 00:00:00 | |
| DO3MHA-11 | 2026-08-31 05:08:25 | 48.10089 | 12.18609 | 303° | 26km/h | 22457m | 5.7m/s | -52.9°C | 4.5% | 39.8hPa | 2.7V | 00:00:00 | 01:40:44 | 00:00:00 | |
| DF3TZ-5 | 2026-08-31 05:08:24 | 48.10080 | 12.18628 | 306° | 29km/h | 22447m | 4.7m/s | -53.0°C | -1.0% | -1.0hPa | 2.7V | 00:00:00 | 00:00:00 | 00:00:00 | |
| DO3MHA-12 | 2026-08-31 05:08:21 | 48.10072 | 12.18645 | 306° | 26km/h | 22436m | 4.9m/s | -52.9°C | 4.5% | 40.0hPa | 2.7V | 02:00:00 | 01:40:40 | 00:00:00 | |
| OE5HKT-10 | 2026-08-31 05:08:20 | 48.10068 | 12.18652 | 310° | 24km/h | 22431m | 5.3m/s | -52.9°C | 4.4% | 40.0hPa | 2.6V | 00:00:00 | 01:40:39 | 00:00:00 | |
| DK5PH-5 | 2026-08-31 05:08:17 | 48.10055 | 12.18671 | 317° | 22km/h | 22416m | 5.4m/s | -52.8°C | 4.4% | 40.1hPa | 2.6V | 02:00:00 | 01:40:36 | 00:00:00 | |
| OE5MMP-10 | 2026-08-31 05:08:16 | 48.10051 | 12.18677 | 312° | 27km/h | 22411m | 5.2m/s | -52.7°C | 4.4% | 40.1hPa | 2.6V | 02:00:00 | 01:40:35 | 00:00:00 | |
| DO3MHA-11 | 2026-08-31 05:08:15 | 48.10048 | 12.18683 | 307° | 26km/h | 22406m | 4.7m/s | -52.7°C | 4.5% | 40.1hPa | 2.6V | 02:00:00 | 01:40:34 | 00:00:00 | |
| OM5KV | 2026-08-31 05:08:14 | 48.10044 | 12.18691 | 307° | 27km/h | 22400m | 6.0m/s | -52.7°C | 1.4% | 40.3hPa | 2.6V | 02:00:00 | 00:00:00 | 00:00:00 | |
| DF1GD-15 | 2026-08-31 05:08:13 | 48.10044 | 12.18691 | 307° | 27km/h | 22400m | 6.0m/s | -52.7°C | 1.4% | 40.3hPa | 2.6V | 02:00:00 | 00:00:00 | 00:00:00 | |
| PG1ADW-2 | 2026-08-31 05:08:12 | 48.10036 | 12.18710 | 300° | 24km/h | 22390m | 4.8m/s | -52.5°C | 4.4% | 40.3hPa | 2.6V | 00:00:00 | 00:00:00 | 00:00:00 | |
| DO3MHA-12 | 2026-08-31 05:08:11 | 48.10032 | 12.18720 | 295° | 22km/h | 22385m | 5.6m/s | -52.5°C | 4.3% | 40.3hPa | 2.6V | 00:00:00 | 01:40:30 | 00:00:00 | |
| DB0UT-7 | 2026-08-31 05:08:09 | 48.10027 | 12.18740 | 294° | 18km/h | 22374m | 5.4m/s | -52.5°C | 4.4% | 40.3hPa | 2.6V | 00:00:00 | 00:00:00 | 00:00:00 | |
| OM5KV | 2026-08-31 05:08:08 | 48.10027 | 12.18740 | 295° | 27km/h | 22374m | 5.5m/s | -52.5°C | 1.4% | 40.4hPa | 2.6V | 02:00:00 | 00:00:00 | 00:00:00 | |
| DM0DOS-11 | 2026-08-31 05:08:06 | 48.10003 | 12.18787 | 320° | 22km/h | 22333m | 4.4m/s | -52.4°C | 4.4% | 40.6hPa | 2.6V | 02:00:26 | 01:40:20 | 00:00:00 | |
| OE5MMP-10 | 2026-08-31 05:08:06 | 48.10018 | 12.18762 | 303° | 22km/h | 22359m | 5.6m/s | -52.5°C | 4.4% | 40.5hPa | 2.7V | 00:00:00 | 01:40:25 | 00:00:00 | |
| DO3MHA-11 | 2026-08-31 05:08:05 | 48.10016 | 12.18768 | 301° | 22km/h | 22354m | 5.0m/s | -52.4°C | 4.3% | 40.5hPa | 2.7V | 00:00:00 | 01:40:24 | 00:00:00 | |
| OE5WHR-10 | 2026-08-31 05:08:04 | 48.10014 | 12.18773 | 306° | 20km/h | 22349m | 4.4m/s | -52.4°C | 4.3% | 40.5hPa | 2.7V | 00:00:00 | 00:00:00 | 00:00:00 | |
| DB0NH | 2026-08-31 05:08:03 | 48.10011 | 12.18777 | 316° | 20km/h | 22344m | 6.0m/s | -52.4°C | 4.3% | 40.5hPa | 2.7V | 02:00:00 | 01:40:22 | 00:00:00 | |
| DO3MHA-12 | 2026-08-31 05:08:01 | 48.10003 | 12.18787 | 321° | 26km/h | 22334m | 4.3m/s | -52.3°C | 4.4% | 40.6hPa | 2.7V | 00:00:00 | 01:40:20 | 00:00:00 | |
| OE5HKT-10 | 2026-08-31 05:07:59 | 48.09995 | 12.18800 | 309° | 20km/h | 22323m | 5.0m/s | -52.4°C | 4.4% | 40.6hPa | 2.7V | 02:00:00 | 00:00:00 | 00:00:00 | |
| OE5DRO-10 | 2026-08-31 05:07:58 | 48.09991 | 12.18808 | 307° | 20km/h | 22318m | 4.9m/s | -52.4°C | 4.5% | 40.7hPa | 2.7V | 02:00:00 | 00:00:00 | 00:00:00 | |
| OM5KV | 2026-08-31 05:07:57 | 48.09991 | 12.18808 | 307° | 27km/h | 22318m | 4.9m/s | -52.5°C | 1.5% | 40.7hPa | 2.6V | 02:01:00 | 00:00:00 | 00:00:00 | |
| DM0DOS-11 | 2026-08-31 05:07:56 | 48.09964 | 12.18861 | 316° | 16km/h | 22282m | 5.7m/s | -52.6°C | 4.5% | 41hPa | 2.6V | 02:00:36 | 01:40:10 | 00:00:00 | |
| DF7PN | 2026-08-31 05:07:55 | 48.09977 | 12.18834 | 307° | 27km/h | 22302m | 4.1m/s | -52.5°C | 1.4% | 40.9hPa | 2.7V | 00:00:00 | 00:00:00 | 00:00:00 | |
| DF3TZ-5 | 2026-08-31 05:07:53 | 48.09967 | 12.18856 | 307° | 18km/h | 22288m | 5.0m/s | 0°C | -1.0% | -1.0hPa | 2.7V | 00:00:00 | 00:00:00 | 00:00:00 | |
| DL6DJ-15 | 2026-08-31 05:07:50 | 48.09961 | 12.18865 | 325° | 15km/h | 22277m | 4.5m/s | -52.6°C | 1.4% | 41.0hPa | 2.7V | 00:00:00 | 00:00:00 | 00:00:00 | |
| DK5PH-5 | 2026-08-31 05:07:47 | 48.09953 | 12.18876 | 303° | 15km/h | 22262m | 5.0m/s | -52.4°C | 4.5% | 41.1hPa | 2.7V | 00:00:00 | 01:40:06 | 00:00:00 | |
| DM0DOS-11 | 2026-08-31 05:07:46 | 48.09940 | 12.18909 | 293° | 24km/h | 22232m | 4.1m/s | -52.7°C | 4.3% | 41.3hPa | 2.7V | 02:00:46 | 01:40:00 | 00:00:00 | |
| OE5MMP-10 | 2026-08-31 05:07:46 | 48.09952 | 12.18880 | 302° | 18km/h | 22257m | 4.5m/s | -52.5°C | 4.5% | 41.1hPa | 2.6V | 02:00:00 | 01:40:05 | 00:00:00 | |
| DO3MHA-11 | 2026-08-31 05:07:45 | 48.09950 | 12.18884 | 307° | 18km/h | 22252m | 5.9m/s | -52.5°C | 4.5% | 41.1hPa | 2.6V | 02:00:00 | 01:40:04 | 00:00:00 | |
| OE5WHR-10 | 2026-08-31 05:07:43 | 48.09945 | 12.18894 | 303° | 16km/h | 22242m | 5.2m/s | -52.7°C | 4.6% | 41.2hPa | 2.7V | 00:00:00 | 01:40:02 | 00:00:00 | |
| OM5KV | 2026-08-31 05:07:42 | 48.09945 | 12.18894 | 303° | 18km/h | 22242m | 5.2m/s | -52.7°C | 1.6% | 41.2hPa | 2.7V | 02:01:00 | 00:00:00 | 00:00:00 | |
| DO3MHA-12 | 2026-08-31 05:07:41 | 48.09940 | 12.18909 | 294° | 16km/h | 22232m | 4.0m/s | -52.7°C | 4.3% | 41.2hPa | 2.7V | 00:00:00 | 01:40:00 | 00:00:00 | |
| OE5REO-15 | 2026-08-31 05:07:40 | 48.09940 | 12.18909 | 295° | 24km/h | 22232m | 4.1m/s | -52.7°C | 1.4% | 41.3hPa | 2.7V | 02:01:00 | 00:00:00 | 00:00:00 | |
| DB0UT-7 | 2026-08-31 05:07:39 | 48.09935 | 12.18924 | 300° | 11km/h | 22222m | 5.7m/s | -52.7°C | 4.3% | 41.3hPa | 2.7V | 00:00:00 | 01:39:58 | 00:00:00 | |
| OE5HKT-10 | 2026-08-31 05:07:38 | 48.09932 | 12.18930 | 301° | 15km/h | 22217m | 4.4m/s | -52.7°C | 4.3% | 41.4hPa | 2.7V | 00:00:00 | 00:00:00 | 00:00:00 | |
| DG1MFX-10 | 2026-08-31 05:07:37 | 48.09933 | 12.18930 | 301° | 16km/h | 22217m | 4.4m/s | -52.8°C | 1.4% | 41.4hPa | 2.7V | 02:01:00 | 00:00:00 | 00:00:00 | |
| DM0DOS-11 | 2026-08-31 05:07:36 | 48.09939 | 12.18958 | 215° | 11km/h | 22181m | 3.8m/s | -53.1°C | 4.2% | 41.7hPa | 2.7V | 02:00:56 | 01:39:50 | 00:00:00 | |
| OE5MMP-10 | 2026-08-31 05:07:36 | 48.09930 | 12.18940 | 275° | 15km/h | 22207m | 6.0m/s | -52.8°C | 4.2% | 41.4hPa | 2.7V | 00:00:00 | 01:39:55 | 00:00:00 | |
| DO3MHA-11 | 2026-08-31 05:07:35 | 48.09931 | 12.18945 | 249° | 15km/h | 22202m | 5.3m/s | -52.9°C | 4.3% | 41.4hPa | 2.7V | 00:00:00 | 01:39:54 | 00:00:00 | |
| DB0NH | 2026-08-31 05:07:33 | 48.09934 | 12.18953 | 223° | 13km/h | 22192m | 5.9m/s | -53.0°C | 4.3% | 41.5hPa | 2.7V | 00:00:00 | 01:39:52 | 00:00:00 | |
| PG1ADW-2 | 2026-08-31 05:07:32 | 48.09937 | 12.18956 | 213° | 13km/h | 22186m | 5.1m/s | -53.0°C | 4.2% | 41.6hPa | 2.7V | 00:00:00 | 00:00:00 | 00:00:00 | |
| DO3MHA-12 | 2026-08-31 05:07:31 | 48.09939 | 12.18958 | 216° | 16km/h | 22181m | 3.8m/s | -53.0°C | 4.2% | 41.6hPa | 2.7V | 00:00:00 | 01:39:50 | 00:00:00 | |
| SONDE2-11 | 2026-08-31 05:07:30 | 48.09941 | 12.18961 | 226° | 11km/h | 22176m | 6.0m/s | -53.2°C | 1.3% | 41.7hPa | 2.7V | 00:00:00 | 00:00:00 | 00:00:00 | |
| OE5DXL-15 | 2026-08-31 05:07:29 | 48.09943 | 12.18965 | 243° | 11km/h | 22171m | 4.7m/s | -53.2°C | 4.3% | 41.6hPa | 2.7V | 00:00:00 | 00:00:00 | 00:00:00 | |
| DH7VM-15 | 2026-08-31 05:07:27 | 48.09945 | 12.18971 | 258° | 18km/h | 22167m | 4.4m/s | -53.3°C | 1.3% | 41.7hPa | 2.7V | 00:00:00 | 00:00:00 | 00:00:00 | |
| DM0DOS-11 | 2026-08-31 05:07:26 | 48.09940 | 12.19015 | 248° | 7km/h | 22133m | 5m/s | -53.8°C | 4.5% | 42hPa | 2.7V | 02:01:06 | 01:39:40 | 00:00:00 | |
| OE5MMP-10 | 2026-08-31 05:07:26 | 48.09945 | 12.18985 | 286° | 15km/h | 22157m | 5.8m/s | -53.5°C | 4.4% | 41.7hPa | 2.7V | 00:00:00 | 01:39:45 | 00:00:00 | |
| DO3MHA-11 | 2026-08-31 05:07:25 | 48.09943 | 12.18992 | 293° | 13km/h | 22152m | 4.0m/s | -53.5°C | 4.4% | 41.8hPa | 2.7V | 00:00:00 | 01:39:44 | 00:00:00 | |
| DF7PN | 2026-08-31 05:07:24 | 48.09941 | 12.18999 | 291° | 18km/h | 22147m | 4.8m/s | -53.6°C | 1.3% | 41.9hPa | 2.7V | 00:00:00 | 00:00:00 | 00:00:00 | |
| OE5WHR-10 | 2026-08-31 05:07:22 | 48.09939 | 12.19011 | 271° | 9km/h | 22138m | 4.2m/s | -53.7°C | 4.4% | 41.8hPa | 2.7V | 02:01:00 | 00:00:00 | 00:00:00 | |
| DO3MHA-12 | 2026-08-31 05:07:21 | 48.09939 | 12.19015 | 249° | 9km/h | 22133m | 5.0m/s | -53.7°C | 4.5% | 41.9hPa | 2.7V | 02:01:00 | 01:39:40 | 00:00:00 | |
| NBG1-10 | 2026-08-31 05:07:20 | 48.09940 | 12.19016 | 184° | 7km/h | 22127m | 6.2m/s | -53.8°C | 4.4% | 41.9hPa | 2.6V | 00:00:00 | 01:39:39 | 00:00:00 | |
| DL6DJ-15 | 2026-08-31 05:07:19 | 48.09942 | 12.19015 | 144° | 9km/h | 22122m | 4.7m/s | -53.9°C | 1.4% | 42.0hPa | 2.6V | 00:00:00 | 00:00:00 | 00:00:00 | |
| DM7RM-13 | 2026-08-31 05:07:18 | 48.09942 | 12.19015 | 145° | 9km/h | 22122m | 4.7m/s | -53.9°C | 1.4% | 42.0hPa | 2.6V | 02:01:00 | 00:00:00 | 00:00:00 | |
| DK5PH-5 | 2026-08-31 05:07:17 | 48.09947 | 12.19009 | 146° | 7km/h | 22113m | 5.6m/s | -53.9°C | 4.5% | 42.0hPa | 2.6V | 00:00:00 | 01:39:36 | 00:00:00 | |
| DM0DOS-11 | 2026-08-31 05:07:16 | 48.09950 | 12.19011 | 308° | 13km/h | 22084m | 5.4m/s | -54°C | 4.5% | 42.3hPa | 2.6V | 02:01:16 | 01:39:30 | 00:00:00 | |
| OE5MMP-10 | 2026-08-31 05:07:16 | 48.09950 | 12.19007 | 158° | 9km/h | 22108m | 4.0m/s | -53.9°C | 4.5% | 42.1hPa | 2.7V | 02:01:00 | 01:39:35 | 00:00:00 | |
| DO3MHA-11 | 2026-08-31 05:07:15 | 48.09952 | 12.19006 | 166° | 7km/h | 22104m | 4.1m/s | -53.9°C | 4.5% | 42.1hPa | 2.7V | 02:01:00 | 01:39:34 | 00:00:00 | |
| OM5KV | 2026-08-31 05:07:13 | 48.09953 | 12.19006 | 183° | 4km/h | 22099m | 5.9m/s | -54.0°C | 1.4% | 42.2hPa | 2.7V | 02:01:00 | 00:00:00 | 00:00:00 | |
| PG1ADW-2 | 2026-08-31 05:07:12 | 48.09952 | 12.19008 | 317° | 9km/h | 22089m | 3.8m/s | -53.9°C | 4.4% | 42.2hPa | 2.7V | 00:00:00 | 00:00:00 | 00:00:00 | |
| DO3MHA-12 | 2026-08-31 05:07:11 | 48.09950 | 12.19011 | 309° | 9km/h | 22084m | 5.3m/s | -53.9°C | 4.5% | 42.2hPa | 2.7V | 00:00:00 | 01:39:30 | 00:00:00 | |
| DF1GD-15 | 2026-08-31 05:07:10 | 48.09950 | 12.19011 | 310° | 13km/h | 22084m | 5.4m/s | -54.0°C | 1.4% | 42.3hPa | 2.7V | 02:01:00 | 00:00:00 | 00:00:00 | |
| DB0UT-7 | 2026-08-31 05:07:09 | 48.09947 | 12.19020 | 289° | 7km/h | 22074m | 4.3m/s | -53.9°C | 4.4% | 42.3hPa | 2.7V | 02:01:00 | 00:00:00 | 00:00:00 | |
| OM5KV | 2026-08-31 05:07:07 | 48.09946 | 12.19024 | 286° | 9km/h | 22069m | 4.9m/s | -54.0°C | 1.3% | 42.4hPa | 2.6V | 02:01:00 | 00:00:00 | 00:00:00 | |
| DM0DOS-11 | 2026-08-31 05:07:06 | 48.09955 | 12.19020 | 130° | 9km/h | 22034m | 4.8m/s | -54.2°C | 4.5% | 42.6hPa | 2.6V | 02:01:26 | 01:39:20 | 00:00:00 | |
| OE5MMP-10 | 2026-08-31 05:07:06 | 48.09946 | 12.19027 | 170° | 7km/h | 22059m | 4.9m/s | -54.0°C | 4.5% | 42.4hPa | 2.7V | 00:00:00 | 01:39:25 | 00:00:00 | |
| DO3MHA-11 | 2026-08-31 05:07:05 | 48.09947 | 12.19026 | 159° | 7km/h | 22053m | 6.1m/s | -54.0°C | 4.5% | 42.4hPa | 2.7V | 00:00:00 | 01:39:24 | 00:00:00 | |
| DO3MHA-12 | 2026-08-31 05:07:01 | 48.09955 | 12.19019 | 131° | 7km/h | 22034m | 4.8m/s | -54.1°C | 4.5% | 42.5hPa | 2.7V | 00:00:00 | 01:39:20 | 00:00:00 | |
| OM5KV | 2026-08-31 05:07:00 | 48.09955 | 12.19019 | 131° | 9km/h | 22034m | 4.8m/s | -54.2°C | 1.4% | 42.6hPa | 2.7V | 02:02:00 | 00:00:00 | 00:00:00 | |
| OE5DXL-15 | 2026-08-31 05:06:59 | 48.09957 | 12.19017 | 179° | 7km/h | 22025m | 5.8m/s | -54.1°C | 4.5% | 42.6hPa | 2.7V | 02:01:00 | 00:00:00 | 00:00:00 | |
| DM7RM-13 | 2026-08-31 05:06:57 | 48.09958 | 12.19018 | 253° | 5km/h | 22019m | 4.9m/s | -54.2°C | 1.4% | 42.7hPa | 2.6V | 00:00:00 | 00:00:00 | 00:00:00 | |
| DM0DOS-11 | 2026-08-31 05:06:56 | 48.09955 | 12.19040 | 260° | 5km/h | 21983m | 5.5m/s | -54.4°C | 4.6% | 42.9hPa | 2.6V | 02:01:36 | 01:39:10 | 00:00:00 | |
| DF7PN | 2026-08-31 05:06:53 | 48.09955 | 12.19034 | 279° | 9km/h | 21993m | 6.2m/s | -54.2°C | 1.4% | 42.9hPa | 2.6V | 00:00:00 | 00:00:00 | 00:00:00 | |
| DL6DJ-15 | 2026-08-31 05:06:48 | 48.09957 | 12.19042 | 188° | 4km/h | 21968m | 5.3m/s | -54.5°C | 1.4% | 43.0hPa | 2.6V | 00:00:00 | 00:00:00 | 00:00:00 | |
| NBG1-10 | 2026-08-31 05:06:47 | 48.09958 | 12.19043 | 214° | 7km/h | 21963m | 5.0m/s | -54.4°C | 4.6% | 43.0hPa | 2.6V | 02:01:00 | 01:39:06 | 00:00:00 | |
| DM0DOS-11 | 2026-08-31 05:06:46 | 48.09954 | 12.19061 | 294° | 11km/h | 21933m | 6m/s | -54.5°C | 4.7% | 43.2hPa | 2.6V | 02:01:46 | 01:39:00 | 00:00:00 | |
| OE5MMP-10 | 2026-08-31 05:06:46 | 48.09959 | 12.19045 | 247° | 9km/h | 21959m | 4.0m/s | -54.4°C | 4.7% | 43.1hPa | 2.6V | 02:01:00 | 01:39:05 | 00:00:00 | |
| DO3MHA-11 | 2026-08-31 05:06:45 | 48.09959 | 12.19047 | 271° | 9km/h | 21954m | 5.0m/s | -54.4°C | 4.7% | 43.0hPa | 2.7V | 02:01:00 | 01:39:04 | 00:00:00 | |
| OE5DRO-10 | 2026-08-31 05:06:42 | 48.09956 | 12.19057 | 306° | 7km/h | 21939m | 4.6m/s | -54.4°C | 4.7% | 43.2hPa | 2.6V | 00:00:00 | 00:00:00 | 00:00:00 | |
| DO3MHA-12 | 2026-08-31 05:06:41 | 48.09954 | 12.19061 | 295° | 7km/h | 21934m | 5.9m/s | -54.4°C | 4.7% | 43.2hPa | 2.6V | 00:00:00 | 01:39:00 | 00:00:00 | |
| BAUMI2-15 | 2026-08-31 05:06:40 | 48.09953 | 12.19064 | 276° | 7km/h | 21929m | 4.3m/s | -54.4°C | 4.7% | 43.2hPa | 2.6V | 02:01:00 | 01:38:59 | 00:00:00 | |
| DB0UT-7 | 2026-08-31 05:06:39 | 48.09953 | 12.19068 | 258° | 7km/h | 21925m | 3.8m/s | -54.4°C | 4.7% | 43.3hPa | 2.7V | 00:00:00 | 01:38:58 | 00:00:00 | |
| OE5MMP-10 | 2026-08-31 05:06:36 | 48.09956 | 12.19070 | 168° | 5km/h | 21910m | 4.7m/s | -54.3°C | 4.7% | 43.4hPa | 2.7V | 00:00:00 | 01:38:55 | 00:00:00 | |
| DM0DOS-11 | 2026-08-31 05:06:35 | 48.09964 | 12.19068 | 51° | 2km/h | 21885m | 4.7m/s | -54.3°C | 4.7% | 43.6hPa | 2.7V | 02:01:56 | 01:38:50 | 00:00:00 | |
| OE5HKT-10 | 2026-08-31 05:06:35 | 48.09958 | 12.19069 | 173° | 7km/h | 21905m | 5.5m/s | -54.3°C | 4.7% | 43.4hPa | 2.7V | 00:00:00 | 00:00:00 | 00:00:00 | |
| DG1MFX-10 | 2026-08-31 05:06:34 | 48.09958 | 12.19069 | 173° | 9km/h | 21905m | 5.6m/s | -54.4°C | 1.5% | 43.5hPa | 2.7V | 02:02:00 | 00:00:00 | 00:00:00 | |
| OM5KV | 2026-08-31 05:06:33 | 48.09960 | 12.19069 | 175° | 7km/h | 21900m | 4.1m/s | -54.4°C | 1.4% | 43.5hPa | 2.7V | 02:02:00 | 00:00:00 | 00:00:00 | |
| DL1ZP-14 | 2026-08-31 05:06:32 | 48.09964 | 12.19068 | 51° | 0km/h | 21886m | 4.7m/s | -54.3°C | 1.4% | 43.6hPa | 2.7V | 00:00:00 | 00:00:00 | 00:00:00 | |
| DO3MHA-12 | 2026-08-31 05:06:31 | 48.09964 | 12.19068 | 52° | 7km/h | 21886m | 4.6m/s | -54.2°C | 4.7% | 43.5hPa | 2.7V | 00:00:00 | 01:38:50 | 00:00:00 | |
| BAUMI2-15 | 2026-08-31 05:06:30 | 48.09963 | 12.19068 | 336° | 7km/h | 21881m | 4.4m/s | -54.2°C | 4.6% | 43.6hPa | 2.7V | 00:00:00 | 01:38:49 | 00:00:00 | |
| OE5DXL-15 | 2026-08-31 05:06:29 | 48.09962 | 12.19069 | 304° | 7km/h | 21876m | 5.7m/s | -54.2°C | 4.6% | 43.6hPa | 2.7V | 00:00:00 | 00:00:00 | 00:00:00 | |
| SONDE2-11 | 2026-08-31 05:06:28 | 48.09962 | 12.19072 | 291° | 7km/h | 21871m | 4.5m/s | -54.2°C | 1.4% | 43.7hPa | 2.7V | 00:00:00 | 00:00:00 | 00:00:00 | |
| OE5MMP-10 | 2026-08-31 05:06:26 | 48.09960 | 12.19078 | 301° | 7km/h | 21861m | 5.4m/s | -54.1°C | 4.6% | 43.7hPa | 2.7V | 00:00:00 | 01:38:45 | 00:00:00 | |
| DM0DOS-11 | 2026-08-31 05:06:25 | 48.09958 | 12.19097 | 260° | 4km/h | 21831m | 5.2m/s | -54.1°C | 4.6% | 43.9hPa | 2.7V | 02:02:07 | 01:38:39 | 00:00:00 | |
| DO3MHA-11 | 2026-08-31 05:06:25 | 48.09958 | 12.19082 | 304° | 7km/h | 21856m | 4.5m/s | -54.2°C | 4.7% | 43.8hPa | 2.7V | 00:00:00 | 01:38:44 | 00:00:00 | |
| OE5DRO-10 | 2026-08-31 05:06:23 | 48.09956 | 12.19089 | 268° | 7km/h | 21846m | 4.8m/s | -54.1°C | 4.6% | 43.8hPa | 2.7V | 00:00:00 | 00:00:00 | 00:00:00 | |
| DF7PN | 2026-08-31 05:06:22 | 48.09957 | 12.19092 | 255° | 7km/h | 21841m | 4.0m/s | -54.1°C | 1.4% | 43.9hPa | 2.7V | 00:00:00 | 00:00:00 | 00:00:00 | |
| DB0NH | 2026-08-31 05:06:21 | 48.09957 | 12.19095 | 254° | 7km/h | 21837m | 4.8m/s | -54.1°C | 4.6% | 43.9hPa | 2.7V | 02:02:00 | 01:38:40 | 00:00:00 | |
| BAUMI2-15 | 2026-08-31 05:06:20 | 48.09958 | 12.19097 | 261° | 4km/h | 21832m | 5.1m/s | -54.1°C | 4.6% | 43.9hPa | 2.6V | 00:00:00 | 01:38:39 | 00:00:00 | |
| OE5WHR-10 | 2026-08-31 05:06:19 | 48.09958 | 12.19098 | 273° | 7km/h | 21827m | 3.7m/s | -54.1°C | 4.6% | 44.0hPa | 2.6V | 02:02:00 | 00:00:00 | 00:00:00 | |
| DK5PH-5 | 2026-08-31 05:06:17 | 48.09958 | 12.19100 | 235° | 7km/h | 21818m | 5.6m/s | -54.1°C | 4.7% | 44.0hPa | 2.6V | 00:00:00 | 01:38:36 | 00:00:00 | |
| OE5MMP-10 | 2026-08-31 05:06:16 | 48.09959 | 12.19102 | 234° | 7km/h | 21813m | 4.7m/s | -54.0°C | 4.6% | 44.1hPa | 2.6V | 02:02:00 | 01:38:35 | 00:00:00 | |
| DO3MHA-11 | 2026-08-31 05:06:15 | 48.09960 | 12.19104 | 249° | 7km/h | 21808m | 5.0m/s | -54.0°C | 4.6% | 44.1hPa | 2.7V | 02:02:00 | 01:38:34 | 00:00:00 | |
| OE5HKT-10 | 2026-08-31 05:06:14 | 48.09960 | 12.19106 | 270° | 7km/h | 21803m | 5.4m/s | -54.0°C | 4.6% | 44.1hPa | 2.7V | 00:00:00 | 01:38:33 | 00:00:00 | |
| PG1ADW-2 | 2026-08-31 05:06:12 | 48.09960 | 12.19111 | 272° | 7km/h | 21793m | 5.3m/s | -54.0°C | 4.6% | 44.2hPa | 2.7V | 00:00:00 | 00:00:00 | 00:00:00 | |
| DO3MHA-12 | 2026-08-31 05:06:11 | 48.09960 | 12.19114 | 258° | 7km/h | 21788m | 5.2m/s | -53.9°C | 4.6% | 44.2hPa | 2.7V | 00:00:00 | 01:38:30 | 00:00:00 | |
| DM0DOS-11 | 2026-08-31 05:06:10 | 48.09962 | 12.19125 | 264° | 7km/h | 21773m | 5m/s | -53.9°C | 4.6% | 44.4hPa | 2.7V | 02:02:19 | 01:38:27 | 00:00:00 | |
| BAUMI2-15 | 2026-08-31 05:06:10 | 48.09960 | 12.19118 | 254° | 9km/h | 21783m | 3.9m/s | -53.9°C | 4.5% | 44.3hPa | 2.6V | 02:02:00 | 01:38:29 | 00:00:00 | |
| DH7VM-15 | 2026-08-31 05:06:07 | 48.09962 | 12.19125 | 266° | 7km/h | 21773m | 5.0m/s | -53.9°C | 1.4% | 44.4hPa | 2.7V | 00:00:00 | 00:00:00 | 00:00:00 | |
| OE5MMP-10 | 2026-08-31 05:06:06 | 48.09962 | 12.19130 | 247° | 7km/h | 21764m | 5.6m/s | -53.9°C | 4.5% | 44.4hPa | 2.7V | 00:00:00 | 01:38:25 | 00:00:00 | |
| DO3MHA-11 | 2026-08-31 05:06:05 | 48.09963 | 12.19132 | 235° | 7km/h | 21758m | 4.7m/s | -53.8°C | 4.6% | 44.4hPa | 2.7V | 00:00:00 | 01:38:24 | 00:00:00 | |
| OE5DRO-10 | 2026-08-31 05:06:04 | 48.09965 | 12.19135 | 228° | 9km/h | 21754m | 4.4m/s | -53.9°C | 4.5% | 44.5hPa | 2.7V | 02:02:00 | 00:00:00 | 00:00:00 | |
| DO3MHA-12 | 2026-08-31 05:06:01 | 48.09968 | 12.19139 | 220° | 9km/h | 21739m | 4.7m/s | -53.8°C | 4.5% | 44.6hPa | 2.6V | 00:00:00 | 01:38:20 | 00:00:00 | |
| DM0DOS-11 | 2026-08-31 05:06:00 | 48.09970 | 12.19144 | 257° | 7km/h | 21724m | 4.7m/s | -53.7°C | 4.4% | 44.7hPa | 2.6V | 02:02:29 | 01:38:17 | 00:00:00 | |
| SONDE2-11 | 2026-08-31 05:05:57 | 48.09970 | 12.19147 | 277° | 5km/h | 21719m | 5.6m/s | -53.7°C | 1.4% | 44.7hPa | 2.6V | 00:00:00 | 00:00:00 | 00:00:00 | |
| OE5MMP-10 | 2026-08-31 05:05:56 | 48.09969 | 12.19150 | 287° | 11km/h | 21714m | 4.2m/s | -53.6°C | 4.4% | 44.7hPa | 2.6V | 00:00:00 | 01:38:15 | 00:00:00 | |
| DO3MHA-11 | 2026-08-31 05:05:55 | 48.09969 | 12.19153 | 282° | 11km/h | 21709m | 4.8m/s | -53.6°C | 4.4% | 44.8hPa | 2.6V | 00:00:00 | 01:38:14 | 00:00:00 | |
| DG1MFX-10 | 2026-08-31 05:05:54 | 48.09969 | 12.19153 | 283° | 11km/h | 21709m | 4.9m/s | -53.7°C | 1.4% | 44.8hPa | 2.6V | 02:03:00 | 00:00:00 | 00:00:00 | |
| OE5HKT-10 | 2026-08-31 05:05:53 | 48.09968 | 12.19162 | 273° | 9km/h | 21700m | 4.4m/s | -53.6°C | 4.4% | 44.8hPa | 2.6V | 02:02:00 | 00:00:00 | 00:00:00 | |
| PG1ADW-2 | 2026-08-31 05:05:52 | 48.09968 | 12.19167 | 279° | 9km/h | 21695m | 5.0m/s | -53.6°C | 4.3% | 44.9hPa | 2.6V | 02:02:00 | 00:00:00 | 00:00:00 | |
| DO3MHA-12 | 2026-08-31 05:05:51 | 48.09967 | 12.19171 | 291° | 9km/h | 21690m | 4.8m/s | -53.6°C | 4.4% | 44.9hPa | 2.6V | 02:02:00 | 01:38:10 | 00:00:00 | |
| BAUMI2-15 | 2026-08-31 05:05:50 | 48.09966 | 12.19175 | 300° | 9km/h | 21685m | 4.5m/s | -53.7°C | 4.4% | 44.9hPa | 2.6V | 00:00:00 | 01:38:09 | 00:00:00 | |
| DM0DOS-11 | 2026-08-31 05:05:49 | 48.09964 | 12.19186 | 257° | 9km/h | 21670m | 4.7m/s | -53.8°C | 4.3% | 45.1hPa | 2.6V | 02:02:40 | 01:38:06 | 00:00:00 | |
| DF1GD-15 | 2026-08-31 05:05:48 | 48.09965 | 12.19179 | 293° | 9km/h | 21680m | 4.8m/s | -53.8°C | 1.4% | 45.0hPa | 2.6V | 02:03:00 | 00:00:00 | 00:00:00 | |
| DK5PH-5 | 2026-08-31 05:05:47 | 48.09964 | 12.19186 | 258° | 9km/h | 21670m | 4.6m/s | -53.7°C | 4.3% | 45.0hPa | 2.6V | 00:00:00 | 01:38:06 | 00:00:00 | |
| OE5MMP-10 | 2026-08-31 05:05:46 | 48.09965 | 12.19189 | 254° | 9km/h | 21665m | 5.6m/s | -53.8°C | 4.4% | 45.1hPa | 2.6V | 02:02:00 | 01:38:05 | 00:00:00 | |
| DO3MHA-11 | 2026-08-31 05:05:45 | 48.09965 | 12.19192 | 245° | 9km/h | 21660m | 4.2m/s | -53.9°C | 4.5% | 45.1hPa | 2.6V | 02:02:00 | 01:38:04 | 00:00:00 | |
| DM7RM-13 | 2026-08-31 05:05:43 | 48.09966 | 12.19194 | 239° | 7km/h | 21656m | 3.7m/s | -54.1°C | 1.4% | 45.1hPa | 2.6V | 02:03:00 | 00:00:00 | 00:00:00 | |
| DO3MHA-12 | 2026-08-31 05:05:41 | 48.09971 | 12.19204 | 243° | 7km/h | 21641m | 4.4m/s | -54.3°C | 4.6% | 45.2hPa | 2.6V | 00:00:00 | 01:38:00 | 00:00:00 | |
| DM0DOS-11 | 2026-08-31 05:05:40 | 48.09972 | 12.19216 | 265° | 7km/h | 21621m | 4.7m/s | -54.6°C | 4.8% | 45.4hPa | 2.6V | 02:02:50 | 01:37:56 | 00:00:00 | |
| DB0UT-7 | 2026-08-31 05:05:39 | 48.09972 | 12.19210 | 266° | 9km/h | 21631m | 3.9m/s | -54.5°C | 4.8% | 45.3hPa | 2.6V | 02:02:00 | 01:37:58 | 00:00:00 | |
| OE5WHR-10 | 2026-08-31 05:05:37 | 48.09972 | 12.19216 | 266° | 9km/h | 21621m | 4.6m/s | -54.6°C | 4.8% | 45.4hPa | 2.6V | 00:00:00 | 01:37:56 | 00:00:00 | |
| OE5MMP-10 | 2026-08-31 05:05:36 | 48.09972 | 12.19219 | 272° | 7km/h | 21617m | 4.7m/s | -54.6°C | 4.8% | 45.4hPa | 2.6V | 00:00:00 | 01:37:55 | 00:00:00 | |
| DG1MFX-10 | 2026-08-31 05:05:33 | 48.09971 | 12.19223 | 293° | 5km/h | 21607m | 4.0m/s | -54.6°C | 1.6% | 45.5hPa | 2.6V | 02:03:00 | 00:00:00 | 00:00:00 | |
| OE5HKT-10 | 2026-08-31 05:05:32 | 48.09971 | 12.19227 | 255° | 11km/h | 21598m | 5.3m/s | -54.5°C | 4.8% | 45.6hPa | 2.6V | 00:00:00 | 00:00:00 | 00:00:00 | |
| DO3MHA-12 | 2026-08-31 05:05:31 | 48.09972 | 12.19230 | 242° | 9km/h | 21593m | 4.8m/s | -54.6°C | 4.8% | 45.6hPa | 2.6V | 00:00:00 | 01:37:50 | 00:00:00 | |
| BAUMI2-15 | 2026-08-31 05:05:30 | 48.09974 | 12.19234 | 236° | 11km/h | 21589m | 4.2m/s | -54.6°C | 4.8% | 45.6hPa | 2.6V | 00:00:00 | 01:37:49 | 00:00:00 | |
| DM0DOS-11 | 2026-08-31 05:05:29 | 48.09978 | 12.19244 | 229° | 7km/h | 21574m | 3.7m/s | -54.6°C | 4.9% | 45.8hPa | 2.6V | 02:03:00 | 01:37:46 | 00:00:00 | |
| OE5MMP-10 | 2026-08-31 05:05:26 | 48.09980 | 12.19246 | 224° | 11km/h | 21570m | 5.2m/s | -54.5°C | 4.9% | 45.8hPa | 2.6V | 00:00:00 | 01:37:45 | 00:00:00 | |
| DO3MHA-11 | 2026-08-31 05:05:25 | 48.09982 | 12.19249 | 218° | 9km/h | 21564m | 5.4m/s | -54.5°C | 4.9% | 45.8hPa | 2.6V | 00:00:00 | 01:37:44 | 00:00:00 | |
| OM5KV | 2026-08-31 05:05:24 | 48.09982 | 12.19249 | 218° | 11km/h | 21564m | 5.5m/s | -54.6°C | 1.6% | 45.9hPa | 2.6V | 02:03:00 | 00:00:00 | 00:00:00 | |
| OM5KV | 2026-08-31 05:05:23 | 48.09984 | 12.19251 | 217° | 11km/h | 21559m | 4.2m/s | -54.6°C | 1.6% | 45.9hPa | 2.6V | 02:03:00 | 00:00:00 | 00:00:00 | |
| DO3MHA-12 | 2026-08-31 05:05:21 | 48.09990 | 12.19256 | 212° | 11km/h | 21545m | 4.7m/s | -54.4°C | 5.0% | 46.0hPa | 2.6V | 02:03:00 | 01:37:40 | 00:00:00 | |
| DM0DOS-11 | 2026-08-31 05:05:20 | 48.10002 | 12.19266 | 202° | 7km/h | 21521m | 4.2m/s | -54.3°C | 5.1% | 46.1hPa | 2.6V | 02:03:11 | 01:37:35 | 00:00:00 | |
| BAUMI2-15 | 2026-08-31 05:05:20 | 48.09992 | 12.19258 | 209° | 11km/h | 21540m | 5.2m/s | -54.4°C | 5.1% | 46.0hPa | 2.6V | 00:00:00 | 01:37:39 | 00:00:00 | |
| OM5KV | 2026-08-31 05:05:19 | 48.09992 | 12.19258 | 209° | 11km/h | 21540m | 5.2m/s | -54.5°C | 1.7% | 46.0hPa | 2.6V | 02:03:00 | 00:00:00 | 00:00:00 | |
| DK5PH-5 | 2026-08-31 05:05:17 | 48.10000 | 12.19265 | 211° | 15km/h | 21527m | 5.4m/s | -54.3°C | 5.1% | 46.1hPa | 2.6V | 02:03:00 | 01:37:36 | 00:00:00 | |
| OE5WHR-10 | 2026-08-31 05:05:16 | 48.10001 | 12.19266 | 203° | 15km/h | 21522m | 4.2m/s | -54.3°C | 5.1% | 46.1hPa | 2.6V | 02:03:00 | 00:00:00 | 00:00:00 | |
| DO3MHA-11 | 2026-08-31 05:05:15 | 48.10003 | 12.19267 | 191° | 13km/h | 21518m | 4.1m/s | -54.3°C | 5.0% | 46.1hPa | 2.6V | 02:03:00 | 01:37:34 | 00:00:00 | |
| OM5KV | 2026-08-31 05:05:14 | 48.10003 | 12.19267 | 191° | 7km/h | 21518m | 4.1m/s | -54.3°C | 1.6% | 46.2hPa | 2.6V | 02:03:00 | 00:00:00 | 00:00:00 | |
| DG1MFX-10 | 2026-08-31 05:05:13 | 48.10006 | 12.19267 | 184° | 9km/h | 21513m | 5.5m/s | -54.3°C | 1.6% | 46.2hPa | 2.6V | 02:03:00 | 00:00:00 | 00:00:00 | |
| PG1ADW-2 | 2026-08-31 05:05:12 | 48.10012 | 12.19267 | 180° | 16km/h | 21503m | 4.4m/s | -54.2°C | 4.7% | 46.2hPa | 2.6V | 00:00:00 | 01:37:31 | 00:00:00 | |
| DO3MHA-12 | 2026-08-31 05:05:11 | 48.10015 | 12.19267 | 180° | 15km/h | 21498m | 5.1m/s | -54.2°C | 4.7% | 46.3hPa | 2.6V | 00:00:00 | 01:37:30 | 00:00:00 | |
| BAUMI2-15 | 2026-08-31 05:05:10 | 48.10018 | 12.19267 | 174° | 15km/h | 21494m | 4.1m/s | -54.1°C | 4.7% | 46.3hPa | 2.6V | 02:03:00 | 01:37:29 | 00:00:00 | |
| Es werden nur die letzten 3500 von 5909 Frames angezeigt. GPX/KML und Diagramme bleiben verfügbar. | |||||||||||||||